<?xml version="1.0" encoding="UTF-8" standalone="no" ?>
<gpx xmlns="http://www.topografix.com/GPX/1/1" xmlns:xsi="http://www.w3.org/2001/XMLSchema-instance" xsi:schemaLocation="http://www.topografix.com/GPX/1/1 http://www.topografix.com/GPX/1/1/gpx.xsd" version="1.1" creator="VisuGPX - https://www.visugpx.com">
  <metadata>
    <name>20210418_100328.gpx</name>
  </metadata>
  <trk>
    <name><![CDATA[20210418_100328.gpx]]></name>
    <trkseg>
      <trkpt lat="44.012" lon="2.23363">
        <ele>395</ele>
        <time>2021-04-18T08:03:29Z</time>
      </trkpt>
      <trkpt lat="44.01199" lon="2.23361">
        <ele>394</ele>
        <time>2021-04-18T08:03:31Z</time>
      </trkpt>
      <trkpt lat="44.01199" lon="2.2336">
        <ele>393</ele>
        <time>2021-04-18T08:03:32Z</time>
      </trkpt>
      <trkpt lat="44.01199" lon="2.2336">
        <ele>393</ele>
        <time>2021-04-18T08:03:32Z</time>
      </trkpt>
      <trkpt lat="44.01198" lon="2.23358">
        <ele>393</ele>
        <time>2021-04-18T08:03:34Z</time>
      </trkpt>
      <trkpt lat="44.01197" lon="2.23356">
        <ele>392</ele>
        <time>2021-04-18T08:03:36Z</time>
      </trkpt>
      <trkpt lat="44.01197" lon="2.23353">
        <ele>392</ele>
        <time>2021-04-18T08:03:38Z</time>
      </trkpt>
      <trkpt lat="44.01197" lon="2.2335">
        <ele>392</ele>
        <time>2021-04-18T08:03:40Z</time>
      </trkpt>
      <trkpt lat="44.01196" lon="2.23347">
        <ele>392</ele>
        <time>2021-04-18T08:03:42Z</time>
      </trkpt>
      <trkpt lat="44.01195" lon="2.23343">
        <ele>392</ele>
        <time>2021-04-18T08:03:44Z</time>
      </trkpt>
      <trkpt lat="44.01194" lon="2.23341">
        <ele>392</ele>
        <time>2021-04-18T08:03:45Z</time>
      </trkpt>
      <trkpt lat="44.01195" lon="2.23337">
        <ele>392</ele>
        <time>2021-04-18T08:03:47Z</time>
      </trkpt>
      <trkpt lat="44.01196" lon="2.23333">
        <ele>392</ele>
        <time>2021-04-18T08:03:49Z</time>
      </trkpt>
      <trkpt lat="44.01196" lon="2.23333">
        <ele>392</ele>
        <time>2021-04-18T08:03:49Z</time>
      </trkpt>
      <trkpt lat="44.01196" lon="2.2333">
        <ele>392</ele>
        <time>2021-04-18T08:03:51Z</time>
      </trkpt>
      <trkpt lat="44.01196" lon="2.2333">
        <ele>392</ele>
        <time>2021-04-18T08:03:51Z</time>
      </trkpt>
      <trkpt lat="44.01196" lon="2.23328">
        <ele>392</ele>
        <time>2021-04-18T08:03:53Z</time>
      </trkpt>
      <trkpt lat="44.01195" lon="2.23324">
        <ele>391</ele>
        <time>2021-04-18T08:03:54Z</time>
      </trkpt>
      <trkpt lat="44.01195" lon="2.23323">
        <ele>391</ele>
        <time>2021-04-18T08:03:55Z</time>
      </trkpt>
      <trkpt lat="44.01194" lon="2.23321">
        <ele>391</ele>
        <time>2021-04-18T08:03:56Z</time>
      </trkpt>
      <trkpt lat="44.01194" lon="2.23319">
        <ele>391</ele>
        <time>2021-04-18T08:03:57Z</time>
      </trkpt>
      <trkpt lat="44.01194" lon="2.23318">
        <ele>391</ele>
        <time>2021-04-18T08:03:58Z</time>
      </trkpt>
      <trkpt lat="44.01193" lon="2.23316">
        <ele>391</ele>
        <time>2021-04-18T08:03:59Z</time>
      </trkpt>
      <trkpt lat="44.01193" lon="2.23314">
        <ele>391</ele>
        <time>2021-04-18T08:04:00Z</time>
      </trkpt>
      <trkpt lat="44.01192" lon="2.23313">
        <ele>391</ele>
        <time>2021-04-18T08:04:01Z</time>
      </trkpt>
      <trkpt lat="44.01192" lon="2.23311">
        <ele>391</ele>
        <time>2021-04-18T08:04:02Z</time>
      </trkpt>
      <trkpt lat="44.01191" lon="2.23309">
        <ele>391</ele>
        <time>2021-04-18T08:04:03Z</time>
      </trkpt>
      <trkpt lat="44.01191" lon="2.23308">
        <ele>391</ele>
        <time>2021-04-18T08:04:04Z</time>
      </trkpt>
      <trkpt lat="44.0119" lon="2.23307">
        <ele>391</ele>
        <time>2021-04-18T08:04:05Z</time>
      </trkpt>
      <trkpt lat="44.01189" lon="2.23305">
        <ele>391</ele>
        <time>2021-04-18T08:04:06Z</time>
      </trkpt>
      <trkpt lat="44.01188" lon="2.23303">
        <ele>391</ele>
        <time>2021-04-18T08:04:07Z</time>
      </trkpt>
      <trkpt lat="44.01186" lon="2.23298">
        <ele>391</ele>
        <time>2021-04-18T08:04:09Z</time>
      </trkpt>
      <trkpt lat="44.01186" lon="2.23294">
        <ele>391</ele>
        <time>2021-04-18T08:04:11Z</time>
      </trkpt>
      <trkpt lat="44.01184" lon="2.2329">
        <ele>390</ele>
        <time>2021-04-18T08:04:13Z</time>
      </trkpt>
      <trkpt lat="44.01184" lon="2.23288">
        <ele>391</ele>
        <time>2021-04-18T08:04:14Z</time>
      </trkpt>
      <trkpt lat="44.01183" lon="2.23287">
        <ele>390</ele>
        <time>2021-04-18T08:04:15Z</time>
      </trkpt>
      <trkpt lat="44.01182" lon="2.23284">
        <ele>390</ele>
        <time>2021-04-18T08:04:16Z</time>
      </trkpt>
      <trkpt lat="44.01181" lon="2.23283">
        <ele>390</ele>
        <time>2021-04-18T08:04:17Z</time>
      </trkpt>
      <trkpt lat="44.01181" lon="2.23281">
        <ele>390</ele>
        <time>2021-04-18T08:04:18Z</time>
      </trkpt>
      <trkpt lat="44.0118" lon="2.2328">
        <ele>390</ele>
        <time>2021-04-18T08:04:19Z</time>
      </trkpt>
      <trkpt lat="44.01179" lon="2.23278">
        <ele>390</ele>
        <time>2021-04-18T08:04:20Z</time>
      </trkpt>
      <trkpt lat="44.01178" lon="2.23276">
        <ele>390</ele>
        <time>2021-04-18T08:04:21Z</time>
      </trkpt>
      <trkpt lat="44.01178" lon="2.23275">
        <ele>390</ele>
        <time>2021-04-18T08:04:22Z</time>
      </trkpt>
      <trkpt lat="44.01177" lon="2.23273">
        <ele>390</ele>
        <time>2021-04-18T08:04:23Z</time>
      </trkpt>
      <trkpt lat="44.01175" lon="2.23272">
        <ele>390</ele>
        <time>2021-04-18T08:04:24Z</time>
      </trkpt>
      <trkpt lat="44.01174" lon="2.2327">
        <ele>390</ele>
        <time>2021-04-18T08:04:25Z</time>
      </trkpt>
      <trkpt lat="44.01173" lon="2.23269">
        <ele>390</ele>
        <time>2021-04-18T08:04:26Z</time>
      </trkpt>
      <trkpt lat="44.01172" lon="2.23267">
        <ele>390</ele>
        <time>2021-04-18T08:04:27Z</time>
      </trkpt>
      <trkpt lat="44.01171" lon="2.23266">
        <ele>390</ele>
        <time>2021-04-18T08:04:28Z</time>
      </trkpt>
      <trkpt lat="44.01169" lon="2.23266">
        <ele>390</ele>
        <time>2021-04-18T08:04:29Z</time>
      </trkpt>
      <trkpt lat="44.01168" lon="2.23265">
        <ele>390</ele>
        <time>2021-04-18T08:04:30Z</time>
      </trkpt>
      <trkpt lat="44.01168" lon="2.23263">
        <ele>390</ele>
        <time>2021-04-18T08:04:31Z</time>
      </trkpt>
      <trkpt lat="44.01167" lon="2.23261">
        <ele>390</ele>
        <time>2021-04-18T08:04:32Z</time>
      </trkpt>
      <trkpt lat="44.01167" lon="2.2326">
        <ele>390</ele>
        <time>2021-04-18T08:04:33Z</time>
      </trkpt>
      <trkpt lat="44.01166" lon="2.23258">
        <ele>389</ele>
        <time>2021-04-18T08:04:34Z</time>
      </trkpt>
      <trkpt lat="44.01165" lon="2.23257">
        <ele>389</ele>
        <time>2021-04-18T08:04:35Z</time>
      </trkpt>
      <trkpt lat="44.01165" lon="2.23255">
        <ele>389</ele>
        <time>2021-04-18T08:04:36Z</time>
      </trkpt>
      <trkpt lat="44.01163" lon="2.23254">
        <ele>390</ele>
        <time>2021-04-18T08:04:37Z</time>
      </trkpt>
      <trkpt lat="44.01162" lon="2.23252">
        <ele>390</ele>
        <time>2021-04-18T08:04:38Z</time>
      </trkpt>
      <trkpt lat="44.01161" lon="2.23251">
        <ele>390</ele>
        <time>2021-04-18T08:04:39Z</time>
      </trkpt>
      <trkpt lat="44.0116" lon="2.23249">
        <ele>389</ele>
        <time>2021-04-18T08:04:40Z</time>
      </trkpt>
      <trkpt lat="44.01159" lon="2.23248">
        <ele>390</ele>
        <time>2021-04-18T08:04:41Z</time>
      </trkpt>
      <trkpt lat="44.01157" lon="2.23246">
        <ele>390</ele>
        <time>2021-04-18T08:04:42Z</time>
      </trkpt>
      <trkpt lat="44.01156" lon="2.23245">
        <ele>390</ele>
        <time>2021-04-18T08:04:43Z</time>
      </trkpt>
      <trkpt lat="44.01155" lon="2.23243">
        <ele>390</ele>
        <time>2021-04-18T08:04:44Z</time>
      </trkpt>
      <trkpt lat="44.01154" lon="2.23241">
        <ele>390</ele>
        <time>2021-04-18T08:04:45Z</time>
      </trkpt>
      <trkpt lat="44.01153" lon="2.2324">
        <ele>390</ele>
        <time>2021-04-18T08:04:46Z</time>
      </trkpt>
      <trkpt lat="44.01152" lon="2.23239">
        <ele>390</ele>
        <time>2021-04-18T08:04:47Z</time>
      </trkpt>
      <trkpt lat="44.01151" lon="2.23238">
        <ele>389</ele>
        <time>2021-04-18T08:04:48Z</time>
      </trkpt>
      <trkpt lat="44.0115" lon="2.23237">
        <ele>389</ele>
        <time>2021-04-18T08:04:49Z</time>
      </trkpt>
      <trkpt lat="44.01149" lon="2.23236">
        <ele>389</ele>
        <time>2021-04-18T08:04:50Z</time>
      </trkpt>
      <trkpt lat="44.01148" lon="2.23234">
        <ele>389</ele>
        <time>2021-04-18T08:04:51Z</time>
      </trkpt>
      <trkpt lat="44.01147" lon="2.23233">
        <ele>389</ele>
        <time>2021-04-18T08:04:52Z</time>
      </trkpt>
      <trkpt lat="44.01145" lon="2.23232">
        <ele>389</ele>
        <time>2021-04-18T08:04:53Z</time>
      </trkpt>
      <trkpt lat="44.01143" lon="2.2323">
        <ele>390</ele>
        <time>2021-04-18T08:04:54Z</time>
      </trkpt>
      <trkpt lat="44.01142" lon="2.23229">
        <ele>390</ele>
        <time>2021-04-18T08:04:55Z</time>
      </trkpt>
      <trkpt lat="44.0114" lon="2.23228">
        <ele>390</ele>
        <time>2021-04-18T08:04:56Z</time>
      </trkpt>
      <trkpt lat="44.01138" lon="2.23227">
        <ele>390</ele>
        <time>2021-04-18T08:04:57Z</time>
      </trkpt>
      <trkpt lat="44.01137" lon="2.23225">
        <ele>390</ele>
        <time>2021-04-18T08:04:58Z</time>
      </trkpt>
      <trkpt lat="44.01136" lon="2.23225">
        <ele>389</ele>
        <time>2021-04-18T08:04:59Z</time>
      </trkpt>
      <trkpt lat="44.01135" lon="2.23223">
        <ele>390</ele>
        <time>2021-04-18T08:05:00Z</time>
      </trkpt>
      <trkpt lat="44.01134" lon="2.23222">
        <ele>390</ele>
        <time>2021-04-18T08:05:01Z</time>
      </trkpt>
      <trkpt lat="44.01133" lon="2.23221">
        <ele>390</ele>
        <time>2021-04-18T08:05:02Z</time>
      </trkpt>
      <trkpt lat="44.01131" lon="2.2322">
        <ele>389</ele>
        <time>2021-04-18T08:05:03Z</time>
      </trkpt>
      <trkpt lat="44.0113" lon="2.23219">
        <ele>389</ele>
        <time>2021-04-18T08:05:04Z</time>
      </trkpt>
      <trkpt lat="44.01129" lon="2.23218">
        <ele>388</ele>
        <time>2021-04-18T08:05:05Z</time>
      </trkpt>
      <trkpt lat="44.01128" lon="2.23216">
        <ele>388</ele>
        <time>2021-04-18T08:05:06Z</time>
      </trkpt>
      <trkpt lat="44.01127" lon="2.23214">
        <ele>388</ele>
        <time>2021-04-18T08:05:07Z</time>
      </trkpt>
      <trkpt lat="44.01126" lon="2.23213">
        <ele>389</ele>
        <time>2021-04-18T08:05:08Z</time>
      </trkpt>
      <trkpt lat="44.01125" lon="2.23212">
        <ele>390</ele>
        <time>2021-04-18T08:05:09Z</time>
      </trkpt>
      <trkpt lat="44.01124" lon="2.2321">
        <ele>390</ele>
        <time>2021-04-18T08:05:10Z</time>
      </trkpt>
      <trkpt lat="44.01123" lon="2.23209">
        <ele>390</ele>
        <time>2021-04-18T08:05:11Z</time>
      </trkpt>
      <trkpt lat="44.01122" lon="2.23208">
        <ele>390</ele>
        <time>2021-04-18T08:05:12Z</time>
      </trkpt>
      <trkpt lat="44.01121" lon="2.23206">
        <ele>390</ele>
        <time>2021-04-18T08:05:13Z</time>
      </trkpt>
      <trkpt lat="44.0112" lon="2.23205">
        <ele>390</ele>
        <time>2021-04-18T08:05:14Z</time>
      </trkpt>
      <trkpt lat="44.01119" lon="2.23204">
        <ele>390</ele>
        <time>2021-04-18T08:05:15Z</time>
      </trkpt>
      <trkpt lat="44.01117" lon="2.23203">
        <ele>389</ele>
        <time>2021-04-18T08:05:16Z</time>
      </trkpt>
      <trkpt lat="44.01116" lon="2.23201">
        <ele>389</ele>
        <time>2021-04-18T08:05:17Z</time>
      </trkpt>
      <trkpt lat="44.01115" lon="2.232">
        <ele>389</ele>
        <time>2021-04-18T08:05:18Z</time>
      </trkpt>
      <trkpt lat="44.01114" lon="2.23199">
        <ele>390</ele>
        <time>2021-04-18T08:05:19Z</time>
      </trkpt>
      <trkpt lat="44.01112" lon="2.23198">
        <ele>390</ele>
        <time>2021-04-18T08:05:20Z</time>
      </trkpt>
      <trkpt lat="44.01111" lon="2.23197">
        <ele>390</ele>
        <time>2021-04-18T08:05:21Z</time>
      </trkpt>
      <trkpt lat="44.0111" lon="2.23196">
        <ele>390</ele>
        <time>2021-04-18T08:05:22Z</time>
      </trkpt>
      <trkpt lat="44.01109" lon="2.23195">
        <ele>390</ele>
        <time>2021-04-18T08:05:23Z</time>
      </trkpt>
      <trkpt lat="44.01107" lon="2.23192">
        <ele>390</ele>
        <time>2021-04-18T08:05:24Z</time>
      </trkpt>
      <trkpt lat="44.01106" lon="2.23191">
        <ele>391</ele>
        <time>2021-04-18T08:05:25Z</time>
      </trkpt>
      <trkpt lat="44.01105" lon="2.2319">
        <ele>391</ele>
        <time>2021-04-18T08:05:26Z</time>
      </trkpt>
      <trkpt lat="44.01104" lon="2.23189">
        <ele>390</ele>
        <time>2021-04-18T08:05:27Z</time>
      </trkpt>
      <trkpt lat="44.01104" lon="2.23187">
        <ele>390</ele>
        <time>2021-04-18T08:05:28Z</time>
      </trkpt>
      <trkpt lat="44.01103" lon="2.23185">
        <ele>390</ele>
        <time>2021-04-18T08:05:29Z</time>
      </trkpt>
      <trkpt lat="44.01102" lon="2.23183">
        <ele>390</ele>
        <time>2021-04-18T08:05:30Z</time>
      </trkpt>
      <trkpt lat="44.01102" lon="2.23182">
        <ele>391</ele>
        <time>2021-04-18T08:05:31Z</time>
      </trkpt>
      <trkpt lat="44.01101" lon="2.23181">
        <ele>391</ele>
        <time>2021-04-18T08:05:32Z</time>
      </trkpt>
      <trkpt lat="44.01099" lon="2.23181">
        <ele>391</ele>
        <time>2021-04-18T08:05:33Z</time>
      </trkpt>
      <trkpt lat="44.01097" lon="2.23181">
        <ele>392</ele>
        <time>2021-04-18T08:05:34Z</time>
      </trkpt>
      <trkpt lat="44.01096" lon="2.23181">
        <ele>391</ele>
        <time>2021-04-18T08:05:35Z</time>
      </trkpt>
      <trkpt lat="44.01094" lon="2.23182">
        <ele>391</ele>
        <time>2021-04-18T08:05:36Z</time>
      </trkpt>
      <trkpt lat="44.01094" lon="2.23183">
        <ele>391</ele>
        <time>2021-04-18T08:05:37Z</time>
      </trkpt>
      <trkpt lat="44.01094" lon="2.23183">
        <ele>391</ele>
        <time>2021-04-18T08:05:38Z</time>
      </trkpt>
      <trkpt lat="44.01093" lon="2.23184">
        <ele>391</ele>
        <time>2021-04-18T08:05:39Z</time>
      </trkpt>
      <trkpt lat="44.01092" lon="2.23185">
        <ele>391</ele>
        <time>2021-04-18T08:05:40Z</time>
      </trkpt>
      <trkpt lat="44.01091" lon="2.23185">
        <ele>391</ele>
        <time>2021-04-18T08:05:41Z</time>
      </trkpt>
      <trkpt lat="44.0109" lon="2.23186">
        <ele>391</ele>
        <time>2021-04-18T08:05:42Z</time>
      </trkpt>
      <trkpt lat="44.01088" lon="2.23187">
        <ele>392</ele>
        <time>2021-04-18T08:05:43Z</time>
      </trkpt>
      <trkpt lat="44.01087" lon="2.23188">
        <ele>392</ele>
        <time>2021-04-18T08:05:44Z</time>
      </trkpt>
      <trkpt lat="44.01086" lon="2.23189">
        <ele>392</ele>
        <time>2021-04-18T08:05:45Z</time>
      </trkpt>
      <trkpt lat="44.01085" lon="2.2319">
        <ele>392</ele>
        <time>2021-04-18T08:05:46Z</time>
      </trkpt>
      <trkpt lat="44.01084" lon="2.2319">
        <ele>392</ele>
        <time>2021-04-18T08:05:47Z</time>
      </trkpt>
      <trkpt lat="44.01082" lon="2.23192">
        <ele>392</ele>
        <time>2021-04-18T08:05:48Z</time>
      </trkpt>
      <trkpt lat="44.01082" lon="2.23194">
        <ele>393</ele>
        <time>2021-04-18T08:05:49Z</time>
      </trkpt>
      <trkpt lat="44.01081" lon="2.23195">
        <ele>393</ele>
        <time>2021-04-18T08:05:50Z</time>
      </trkpt>
      <trkpt lat="44.0108" lon="2.23196">
        <ele>393</ele>
        <time>2021-04-18T08:05:51Z</time>
      </trkpt>
      <trkpt lat="44.01078" lon="2.23197">
        <ele>393</ele>
        <time>2021-04-18T08:05:52Z</time>
      </trkpt>
      <trkpt lat="44.01077" lon="2.23199">
        <ele>393</ele>
        <time>2021-04-18T08:05:53Z</time>
      </trkpt>
      <trkpt lat="44.01076" lon="2.232">
        <ele>393</ele>
        <time>2021-04-18T08:05:54Z</time>
      </trkpt>
      <trkpt lat="44.01075" lon="2.23201">
        <ele>393</ele>
        <time>2021-04-18T08:05:55Z</time>
      </trkpt>
      <trkpt lat="44.01074" lon="2.23203">
        <ele>393</ele>
        <time>2021-04-18T08:05:56Z</time>
      </trkpt>
      <trkpt lat="44.01072" lon="2.23205">
        <ele>393</ele>
        <time>2021-04-18T08:05:57Z</time>
      </trkpt>
      <trkpt lat="44.01071" lon="2.23206">
        <ele>393</ele>
        <time>2021-04-18T08:05:58Z</time>
      </trkpt>
      <trkpt lat="44.0107" lon="2.23208">
        <ele>394</ele>
        <time>2021-04-18T08:05:59Z</time>
      </trkpt>
      <trkpt lat="44.01069" lon="2.23209">
        <ele>393</ele>
        <time>2021-04-18T08:06:00Z</time>
      </trkpt>
      <trkpt lat="44.01068" lon="2.2321">
        <ele>394</ele>
        <time>2021-04-18T08:06:01Z</time>
      </trkpt>
      <trkpt lat="44.01067" lon="2.23211">
        <ele>394</ele>
        <time>2021-04-18T08:06:02Z</time>
      </trkpt>
      <trkpt lat="44.01066" lon="2.23212">
        <ele>394</ele>
        <time>2021-04-18T08:06:03Z</time>
      </trkpt>
      <trkpt lat="44.01065" lon="2.23213">
        <ele>394</ele>
        <time>2021-04-18T08:06:04Z</time>
      </trkpt>
      <trkpt lat="44.01064" lon="2.23214">
        <ele>395</ele>
        <time>2021-04-18T08:06:05Z</time>
      </trkpt>
      <trkpt lat="44.01062" lon="2.23215">
        <ele>394</ele>
        <time>2021-04-18T08:06:06Z</time>
      </trkpt>
      <trkpt lat="44.01061" lon="2.23216">
        <ele>394</ele>
        <time>2021-04-18T08:06:07Z</time>
      </trkpt>
      <trkpt lat="44.01059" lon="2.23217">
        <ele>393</ele>
        <time>2021-04-18T08:06:08Z</time>
      </trkpt>
      <trkpt lat="44.01058" lon="2.23219">
        <ele>393</ele>
        <time>2021-04-18T08:06:09Z</time>
      </trkpt>
      <trkpt lat="44.01057" lon="2.2322">
        <ele>393</ele>
        <time>2021-04-18T08:06:10Z</time>
      </trkpt>
      <trkpt lat="44.01057" lon="2.2322">
        <ele>393</ele>
        <time>2021-04-18T08:06:11Z</time>
      </trkpt>
      <trkpt lat="44.01056" lon="2.23221">
        <ele>393</ele>
        <time>2021-04-18T08:06:12Z</time>
      </trkpt>
      <trkpt lat="44.01054" lon="2.23222">
        <ele>393</ele>
        <time>2021-04-18T08:06:13Z</time>
      </trkpt>
      <trkpt lat="44.01053" lon="2.23223">
        <ele>393</ele>
        <time>2021-04-18T08:06:14Z</time>
      </trkpt>
      <trkpt lat="44.01052" lon="2.23225">
        <ele>393</ele>
        <time>2021-04-18T08:06:15Z</time>
      </trkpt>
      <trkpt lat="44.0105" lon="2.23227">
        <ele>393</ele>
        <time>2021-04-18T08:06:16Z</time>
      </trkpt>
      <trkpt lat="44.01049" lon="2.23228">
        <ele>393</ele>
        <time>2021-04-18T08:06:17Z</time>
      </trkpt>
      <trkpt lat="44.01048" lon="2.2323">
        <ele>393</ele>
        <time>2021-04-18T08:06:18Z</time>
      </trkpt>
      <trkpt lat="44.01046" lon="2.23231">
        <ele>394</ele>
        <time>2021-04-18T08:06:19Z</time>
      </trkpt>
      <trkpt lat="44.01045" lon="2.23232">
        <ele>394</ele>
        <time>2021-04-18T08:06:20Z</time>
      </trkpt>
      <trkpt lat="44.01044" lon="2.23233">
        <ele>395</ele>
        <time>2021-04-18T08:06:21Z</time>
      </trkpt>
      <trkpt lat="44.01042" lon="2.23234">
        <ele>395</ele>
        <time>2021-04-18T08:06:22Z</time>
      </trkpt>
      <trkpt lat="44.01041" lon="2.23235">
        <ele>395</ele>
        <time>2021-04-18T08:06:23Z</time>
      </trkpt>
      <trkpt lat="44.0104" lon="2.23236">
        <ele>395</ele>
        <time>2021-04-18T08:06:24Z</time>
      </trkpt>
      <trkpt lat="44.01039" lon="2.23237">
        <ele>395</ele>
        <time>2021-04-18T08:06:25Z</time>
      </trkpt>
      <trkpt lat="44.01038" lon="2.23238">
        <ele>395</ele>
        <time>2021-04-18T08:06:26Z</time>
      </trkpt>
      <trkpt lat="44.01037" lon="2.2324">
        <ele>395</ele>
        <time>2021-04-18T08:06:27Z</time>
      </trkpt>
      <trkpt lat="44.01035" lon="2.23241">
        <ele>395</ele>
        <time>2021-04-18T08:06:28Z</time>
      </trkpt>
      <trkpt lat="44.01033" lon="2.23243">
        <ele>396</ele>
        <time>2021-04-18T08:06:29Z</time>
      </trkpt>
      <trkpt lat="44.01032" lon="2.23244">
        <ele>396</ele>
        <time>2021-04-18T08:06:30Z</time>
      </trkpt>
      <trkpt lat="44.0103" lon="2.23245">
        <ele>396</ele>
        <time>2021-04-18T08:06:31Z</time>
      </trkpt>
      <trkpt lat="44.01029" lon="2.23247">
        <ele>396</ele>
        <time>2021-04-18T08:06:32Z</time>
      </trkpt>
      <trkpt lat="44.01028" lon="2.23248">
        <ele>396</ele>
        <time>2021-04-18T08:06:33Z</time>
      </trkpt>
      <trkpt lat="44.01027" lon="2.2325">
        <ele>396</ele>
        <time>2021-04-18T08:06:34Z</time>
      </trkpt>
      <trkpt lat="44.01026" lon="2.23252">
        <ele>396</ele>
        <time>2021-04-18T08:06:35Z</time>
      </trkpt>
      <trkpt lat="44.01024" lon="2.23253">
        <ele>396</ele>
        <time>2021-04-18T08:06:36Z</time>
      </trkpt>
      <trkpt lat="44.01023" lon="2.23255">
        <ele>396</ele>
        <time>2021-04-18T08:06:37Z</time>
      </trkpt>
      <trkpt lat="44.01022" lon="2.23256">
        <ele>396</ele>
        <time>2021-04-18T08:06:38Z</time>
      </trkpt>
      <trkpt lat="44.0102" lon="2.23257">
        <ele>396</ele>
        <time>2021-04-18T08:06:39Z</time>
      </trkpt>
      <trkpt lat="44.01019" lon="2.23259">
        <ele>396</ele>
        <time>2021-04-18T08:06:40Z</time>
      </trkpt>
      <trkpt lat="44.01018" lon="2.2326">
        <ele>396</ele>
        <time>2021-04-18T08:06:41Z</time>
      </trkpt>
      <trkpt lat="44.01017" lon="2.23261">
        <ele>396</ele>
        <time>2021-04-18T08:06:42Z</time>
      </trkpt>
      <trkpt lat="44.01015" lon="2.23262">
        <ele>396</ele>
        <time>2021-04-18T08:06:43Z</time>
      </trkpt>
      <trkpt lat="44.01014" lon="2.23263">
        <ele>396</ele>
        <time>2021-04-18T08:06:44Z</time>
      </trkpt>
      <trkpt lat="44.01014" lon="2.23264">
        <ele>396</ele>
        <time>2021-04-18T08:06:45Z</time>
      </trkpt>
      <trkpt lat="44.01012" lon="2.23266">
        <ele>396</ele>
        <time>2021-04-18T08:06:46Z</time>
      </trkpt>
      <trkpt lat="44.01011" lon="2.23267">
        <ele>396</ele>
        <time>2021-04-18T08:06:47Z</time>
      </trkpt>
      <trkpt lat="44.0101" lon="2.23268">
        <ele>396</ele>
        <time>2021-04-18T08:06:48Z</time>
      </trkpt>
      <trkpt lat="44.01009" lon="2.23269">
        <ele>396</ele>
        <time>2021-04-18T08:06:49Z</time>
      </trkpt>
      <trkpt lat="44.01007" lon="2.2327">
        <ele>395</ele>
        <time>2021-04-18T08:06:50Z</time>
      </trkpt>
      <trkpt lat="44.01006" lon="2.23272">
        <ele>395</ele>
        <time>2021-04-18T08:06:51Z</time>
      </trkpt>
      <trkpt lat="44.01004" lon="2.23273">
        <ele>395</ele>
        <time>2021-04-18T08:06:52Z</time>
      </trkpt>
      <trkpt lat="44.01003" lon="2.23275">
        <ele>395</ele>
        <time>2021-04-18T08:06:53Z</time>
      </trkpt>
      <trkpt lat="44.01002" lon="2.23276">
        <ele>395</ele>
        <time>2021-04-18T08:06:54Z</time>
      </trkpt>
      <trkpt lat="44.01001" lon="2.23278">
        <ele>395</ele>
        <time>2021-04-18T08:06:55Z</time>
      </trkpt>
      <trkpt lat="44.00999" lon="2.23279">
        <ele>395</ele>
        <time>2021-04-18T08:06:56Z</time>
      </trkpt>
      <trkpt lat="44.00998" lon="2.23281">
        <ele>395</ele>
        <time>2021-04-18T08:06:57Z</time>
      </trkpt>
      <trkpt lat="44.00997" lon="2.23282">
        <ele>394</ele>
        <time>2021-04-18T08:06:58Z</time>
      </trkpt>
      <trkpt lat="44.00996" lon="2.23283">
        <ele>394</ele>
        <time>2021-04-18T08:06:59Z</time>
      </trkpt>
      <trkpt lat="44.00995" lon="2.23284">
        <ele>394</ele>
        <time>2021-04-18T08:07:00Z</time>
      </trkpt>
      <trkpt lat="44.00993" lon="2.23286">
        <ele>394</ele>
        <time>2021-04-18T08:07:01Z</time>
      </trkpt>
      <trkpt lat="44.00992" lon="2.23287">
        <ele>394</ele>
        <time>2021-04-18T08:07:02Z</time>
      </trkpt>
      <trkpt lat="44.00991" lon="2.23289">
        <ele>393</ele>
        <time>2021-04-18T08:07:03Z</time>
      </trkpt>
      <trkpt lat="44.0099" lon="2.23291">
        <ele>393</ele>
        <time>2021-04-18T08:07:04Z</time>
      </trkpt>
      <trkpt lat="44.00988" lon="2.23292">
        <ele>393</ele>
        <time>2021-04-18T08:07:05Z</time>
      </trkpt>
      <trkpt lat="44.00987" lon="2.23294">
        <ele>393</ele>
        <time>2021-04-18T08:07:06Z</time>
      </trkpt>
      <trkpt lat="44.00986" lon="2.23295">
        <ele>393</ele>
        <time>2021-04-18T08:07:07Z</time>
      </trkpt>
      <trkpt lat="44.00985" lon="2.23297">
        <ele>393</ele>
        <time>2021-04-18T08:07:08Z</time>
      </trkpt>
      <trkpt lat="44.00983" lon="2.23298">
        <ele>392</ele>
        <time>2021-04-18T08:07:09Z</time>
      </trkpt>
      <trkpt lat="44.00982" lon="2.233">
        <ele>392</ele>
        <time>2021-04-18T08:07:10Z</time>
      </trkpt>
      <trkpt lat="44.00981" lon="2.23302">
        <ele>392</ele>
        <time>2021-04-18T08:07:11Z</time>
      </trkpt>
      <trkpt lat="44.0098" lon="2.23303">
        <ele>392</ele>
        <time>2021-04-18T08:07:12Z</time>
      </trkpt>
      <trkpt lat="44.00978" lon="2.23304">
        <ele>392</ele>
        <time>2021-04-18T08:07:13Z</time>
      </trkpt>
      <trkpt lat="44.00977" lon="2.23306">
        <ele>392</ele>
        <time>2021-04-18T08:07:14Z</time>
      </trkpt>
      <trkpt lat="44.00975" lon="2.23307">
        <ele>392</ele>
        <time>2021-04-18T08:07:15Z</time>
      </trkpt>
      <trkpt lat="44.00974" lon="2.23309">
        <ele>391</ele>
        <time>2021-04-18T08:07:16Z</time>
      </trkpt>
      <trkpt lat="44.00974" lon="2.2331">
        <ele>391</ele>
        <time>2021-04-18T08:07:17Z</time>
      </trkpt>
      <trkpt lat="44.00972" lon="2.23312">
        <ele>391</ele>
        <time>2021-04-18T08:07:18Z</time>
      </trkpt>
      <trkpt lat="44.00971" lon="2.23313">
        <ele>391</ele>
        <time>2021-04-18T08:07:19Z</time>
      </trkpt>
      <trkpt lat="44.00971" lon="2.23314">
        <ele>391</ele>
        <time>2021-04-18T08:07:20Z</time>
      </trkpt>
      <trkpt lat="44.00969" lon="2.23316">
        <ele>391</ele>
        <time>2021-04-18T08:07:21Z</time>
      </trkpt>
      <trkpt lat="44.00968" lon="2.23317">
        <ele>391</ele>
        <time>2021-04-18T08:07:22Z</time>
      </trkpt>
      <trkpt lat="44.00967" lon="2.23318">
        <ele>391</ele>
        <time>2021-04-18T08:07:23Z</time>
      </trkpt>
      <trkpt lat="44.00966" lon="2.23319">
        <ele>391</ele>
        <time>2021-04-18T08:07:24Z</time>
      </trkpt>
      <trkpt lat="44.00965" lon="2.2332">
        <ele>391</ele>
        <time>2021-04-18T08:07:25Z</time>
      </trkpt>
      <trkpt lat="44.00964" lon="2.23321">
        <ele>391</ele>
        <time>2021-04-18T08:07:26Z</time>
      </trkpt>
      <trkpt lat="44.00962" lon="2.23322">
        <ele>391</ele>
        <time>2021-04-18T08:07:27Z</time>
      </trkpt>
      <trkpt lat="44.00961" lon="2.23324">
        <ele>391</ele>
        <time>2021-04-18T08:07:28Z</time>
      </trkpt>
      <trkpt lat="44.0096" lon="2.23325">
        <ele>392</ele>
        <time>2021-04-18T08:07:29Z</time>
      </trkpt>
      <trkpt lat="44.00959" lon="2.23327">
        <ele>392</ele>
        <time>2021-04-18T08:07:30Z</time>
      </trkpt>
      <trkpt lat="44.00958" lon="2.23328">
        <ele>392</ele>
        <time>2021-04-18T08:07:31Z</time>
      </trkpt>
      <trkpt lat="44.00956" lon="2.23329">
        <ele>392</ele>
        <time>2021-04-18T08:07:32Z</time>
      </trkpt>
      <trkpt lat="44.00955" lon="2.2333">
        <ele>392</ele>
        <time>2021-04-18T08:07:33Z</time>
      </trkpt>
      <trkpt lat="44.00954" lon="2.23332">
        <ele>392</ele>
        <time>2021-04-18T08:07:34Z</time>
      </trkpt>
      <trkpt lat="44.00953" lon="2.23333">
        <ele>392</ele>
        <time>2021-04-18T08:07:35Z</time>
      </trkpt>
      <trkpt lat="44.00952" lon="2.23335">
        <ele>392</ele>
        <time>2021-04-18T08:07:36Z</time>
      </trkpt>
      <trkpt lat="44.00951" lon="2.23336">
        <ele>392</ele>
        <time>2021-04-18T08:07:37Z</time>
      </trkpt>
      <trkpt lat="44.0095" lon="2.23337">
        <ele>392</ele>
        <time>2021-04-18T08:07:38Z</time>
      </trkpt>
      <trkpt lat="44.00948" lon="2.23339">
        <ele>393</ele>
        <time>2021-04-18T08:07:39Z</time>
      </trkpt>
      <trkpt lat="44.00947" lon="2.23341">
        <ele>392</ele>
        <time>2021-04-18T08:07:40Z</time>
      </trkpt>
      <trkpt lat="44.00946" lon="2.23342">
        <ele>392</ele>
        <time>2021-04-18T08:07:41Z</time>
      </trkpt>
      <trkpt lat="44.00945" lon="2.23343">
        <ele>392</ele>
        <time>2021-04-18T08:07:42Z</time>
      </trkpt>
      <trkpt lat="44.00943" lon="2.23345">
        <ele>392</ele>
        <time>2021-04-18T08:07:43Z</time>
      </trkpt>
      <trkpt lat="44.00942" lon="2.23346">
        <ele>392</ele>
        <time>2021-04-18T08:07:44Z</time>
      </trkpt>
      <trkpt lat="44.00941" lon="2.23347">
        <ele>391</ele>
        <time>2021-04-18T08:07:45Z</time>
      </trkpt>
      <trkpt lat="44.00939" lon="2.23349">
        <ele>391</ele>
        <time>2021-04-18T08:07:46Z</time>
      </trkpt>
      <trkpt lat="44.00938" lon="2.2335">
        <ele>391</ele>
        <time>2021-04-18T08:07:47Z</time>
      </trkpt>
      <trkpt lat="44.00937" lon="2.23351">
        <ele>390</ele>
        <time>2021-04-18T08:07:48Z</time>
      </trkpt>
      <trkpt lat="44.00935" lon="2.23353">
        <ele>390</ele>
        <time>2021-04-18T08:07:49Z</time>
      </trkpt>
      <trkpt lat="44.00934" lon="2.23354">
        <ele>390</ele>
        <time>2021-04-18T08:07:50Z</time>
      </trkpt>
      <trkpt lat="44.00932" lon="2.23355">
        <ele>390</ele>
        <time>2021-04-18T08:07:51Z</time>
      </trkpt>
      <trkpt lat="44.00931" lon="2.23356">
        <ele>389</ele>
        <time>2021-04-18T08:07:52Z</time>
      </trkpt>
      <trkpt lat="44.0093" lon="2.23357">
        <ele>389</ele>
        <time>2021-04-18T08:07:53Z</time>
      </trkpt>
      <trkpt lat="44.00928" lon="2.23359">
        <ele>388</ele>
        <time>2021-04-18T08:07:54Z</time>
      </trkpt>
      <trkpt lat="44.00927" lon="2.2336">
        <ele>389</ele>
        <time>2021-04-18T08:07:55Z</time>
      </trkpt>
      <trkpt lat="44.00926" lon="2.23362">
        <ele>388</ele>
        <time>2021-04-18T08:07:56Z</time>
      </trkpt>
      <trkpt lat="44.00925" lon="2.23364">
        <ele>388</ele>
        <time>2021-04-18T08:07:57Z</time>
      </trkpt>
      <trkpt lat="44.00923" lon="2.23365">
        <ele>387</ele>
        <time>2021-04-18T08:07:58Z</time>
      </trkpt>
      <trkpt lat="44.00922" lon="2.23366">
        <ele>387</ele>
        <time>2021-04-18T08:07:59Z</time>
      </trkpt>
      <trkpt lat="44.0092" lon="2.23368">
        <ele>387</ele>
        <time>2021-04-18T08:08:00Z</time>
      </trkpt>
      <trkpt lat="44.00919" lon="2.23369">
        <ele>386</ele>
        <time>2021-04-18T08:08:01Z</time>
      </trkpt>
      <trkpt lat="44.00918" lon="2.23371">
        <ele>387</ele>
        <time>2021-04-18T08:08:02Z</time>
      </trkpt>
      <trkpt lat="44.00917" lon="2.23372">
        <ele>387</ele>
        <time>2021-04-18T08:08:03Z</time>
      </trkpt>
      <trkpt lat="44.00916" lon="2.23374">
        <ele>386</ele>
        <time>2021-04-18T08:08:04Z</time>
      </trkpt>
      <trkpt lat="44.00914" lon="2.23375">
        <ele>386</ele>
        <time>2021-04-18T08:08:05Z</time>
      </trkpt>
      <trkpt lat="44.00914" lon="2.23376">
        <ele>386</ele>
        <time>2021-04-18T08:08:06Z</time>
      </trkpt>
      <trkpt lat="44.00913" lon="2.23377">
        <ele>386</ele>
        <time>2021-04-18T08:08:07Z</time>
      </trkpt>
      <trkpt lat="44.00912" lon="2.23377">
        <ele>386</ele>
        <time>2021-04-18T08:08:08Z</time>
      </trkpt>
      <trkpt lat="44.00911" lon="2.23378">
        <ele>387</ele>
        <time>2021-04-18T08:08:09Z</time>
      </trkpt>
      <trkpt lat="44.0091" lon="2.2338">
        <ele>387</ele>
        <time>2021-04-18T08:08:10Z</time>
      </trkpt>
      <trkpt lat="44.00909" lon="2.23381">
        <ele>388</ele>
        <time>2021-04-18T08:08:11Z</time>
      </trkpt>
      <trkpt lat="44.00908" lon="2.23382">
        <ele>388</ele>
        <time>2021-04-18T08:08:12Z</time>
      </trkpt>
      <trkpt lat="44.00906" lon="2.23383">
        <ele>388</ele>
        <time>2021-04-18T08:08:13Z</time>
      </trkpt>
      <trkpt lat="44.00905" lon="2.23384">
        <ele>388</ele>
        <time>2021-04-18T08:08:14Z</time>
      </trkpt>
      <trkpt lat="44.00903" lon="2.23385">
        <ele>389</ele>
        <time>2021-04-18T08:08:15Z</time>
      </trkpt>
      <trkpt lat="44.00901" lon="2.23386">
        <ele>389</ele>
        <time>2021-04-18T08:08:16Z</time>
      </trkpt>
      <trkpt lat="44.009" lon="2.23387">
        <ele>389</ele>
        <time>2021-04-18T08:08:17Z</time>
      </trkpt>
      <trkpt lat="44.009" lon="2.23387">
        <ele>389</ele>
        <time>2021-04-18T08:08:18Z</time>
      </trkpt>
      <trkpt lat="44.00899" lon="2.23387">
        <ele>389</ele>
        <time>2021-04-18T08:08:19Z</time>
      </trkpt>
      <trkpt lat="44.00897" lon="2.23388">
        <ele>389</ele>
        <time>2021-04-18T08:08:20Z</time>
      </trkpt>
      <trkpt lat="44.00896" lon="2.23389">
        <ele>389</ele>
        <time>2021-04-18T08:08:21Z</time>
      </trkpt>
      <trkpt lat="44.00894" lon="2.2339">
        <ele>389</ele>
        <time>2021-04-18T08:08:22Z</time>
      </trkpt>
      <trkpt lat="44.00893" lon="2.23391">
        <ele>389</ele>
        <time>2021-04-18T08:08:23Z</time>
      </trkpt>
      <trkpt lat="44.00891" lon="2.23393">
        <ele>389</ele>
        <time>2021-04-18T08:08:24Z</time>
      </trkpt>
      <trkpt lat="44.00889" lon="2.23394">
        <ele>389</ele>
        <time>2021-04-18T08:08:25Z</time>
      </trkpt>
      <trkpt lat="44.00888" lon="2.23395">
        <ele>389</ele>
        <time>2021-04-18T08:08:26Z</time>
      </trkpt>
      <trkpt lat="44.00886" lon="2.23396">
        <ele>389</ele>
        <time>2021-04-18T08:08:27Z</time>
      </trkpt>
      <trkpt lat="44.00884" lon="2.23396">
        <ele>389</ele>
        <time>2021-04-18T08:08:28Z</time>
      </trkpt>
      <trkpt lat="44.00883" lon="2.23397">
        <ele>390</ele>
        <time>2021-04-18T08:08:29Z</time>
      </trkpt>
      <trkpt lat="44.00882" lon="2.23399">
        <ele>390</ele>
        <time>2021-04-18T08:08:30Z</time>
      </trkpt>
      <trkpt lat="44.0088" lon="2.23401">
        <ele>390</ele>
        <time>2021-04-18T08:08:31Z</time>
      </trkpt>
      <trkpt lat="44.00879" lon="2.23402">
        <ele>389</ele>
        <time>2021-04-18T08:08:32Z</time>
      </trkpt>
      <trkpt lat="44.00877" lon="2.23403">
        <ele>389</ele>
        <time>2021-04-18T08:08:33Z</time>
      </trkpt>
      <trkpt lat="44.00875" lon="2.23404">
        <ele>389</ele>
        <time>2021-04-18T08:08:34Z</time>
      </trkpt>
      <trkpt lat="44.00874" lon="2.23406">
        <ele>389</ele>
        <time>2021-04-18T08:08:35Z</time>
      </trkpt>
      <trkpt lat="44.00873" lon="2.23407">
        <ele>389</ele>
        <time>2021-04-18T08:08:36Z</time>
      </trkpt>
      <trkpt lat="44.00872" lon="2.23407">
        <ele>389</ele>
        <time>2021-04-18T08:08:37Z</time>
      </trkpt>
      <trkpt lat="44.00871" lon="2.23409">
        <ele>389</ele>
        <time>2021-04-18T08:08:38Z</time>
      </trkpt>
      <trkpt lat="44.00869" lon="2.2341">
        <ele>389</ele>
        <time>2021-04-18T08:08:39Z</time>
      </trkpt>
      <trkpt lat="44.00868" lon="2.23412">
        <ele>389</ele>
        <time>2021-04-18T08:08:40Z</time>
      </trkpt>
      <trkpt lat="44.00867" lon="2.23413">
        <ele>388</ele>
        <time>2021-04-18T08:08:41Z</time>
      </trkpt>
      <trkpt lat="44.00865" lon="2.23414">
        <ele>388</ele>
        <time>2021-04-18T08:08:42Z</time>
      </trkpt>
      <trkpt lat="44.00864" lon="2.23415">
        <ele>388</ele>
        <time>2021-04-18T08:08:43Z</time>
      </trkpt>
      <trkpt lat="44.00863" lon="2.23415">
        <ele>388</ele>
        <time>2021-04-18T08:08:44Z</time>
      </trkpt>
      <trkpt lat="44.00862" lon="2.23417">
        <ele>388</ele>
        <time>2021-04-18T08:08:45Z</time>
      </trkpt>
      <trkpt lat="44.00862" lon="2.23417">
        <ele>388</ele>
        <time>2021-04-18T08:08:46Z</time>
      </trkpt>
      <trkpt lat="44.00861" lon="2.23418">
        <ele>388</ele>
        <time>2021-04-18T08:08:47Z</time>
      </trkpt>
      <trkpt lat="44.0086" lon="2.23419">
        <ele>388</ele>
        <time>2021-04-18T08:08:48Z</time>
      </trkpt>
      <trkpt lat="44.00858" lon="2.2342">
        <ele>388</ele>
        <time>2021-04-18T08:08:49Z</time>
      </trkpt>
      <trkpt lat="44.00856" lon="2.23421">
        <ele>387</ele>
        <time>2021-04-18T08:08:50Z</time>
      </trkpt>
      <trkpt lat="44.00855" lon="2.23423">
        <ele>387</ele>
        <time>2021-04-18T08:08:51Z</time>
      </trkpt>
      <trkpt lat="44.00853" lon="2.23424">
        <ele>387</ele>
        <time>2021-04-18T08:08:52Z</time>
      </trkpt>
      <trkpt lat="44.00851" lon="2.23425">
        <ele>387</ele>
        <time>2021-04-18T08:08:53Z</time>
      </trkpt>
      <trkpt lat="44.0085" lon="2.23426">
        <ele>388</ele>
        <time>2021-04-18T08:08:54Z</time>
      </trkpt>
      <trkpt lat="44.00849" lon="2.23427">
        <ele>388</ele>
        <time>2021-04-18T08:08:55Z</time>
      </trkpt>
      <trkpt lat="44.00848" lon="2.23428">
        <ele>388</ele>
        <time>2021-04-18T08:08:56Z</time>
      </trkpt>
      <trkpt lat="44.00847" lon="2.23429">
        <ele>388</ele>
        <time>2021-04-18T08:08:57Z</time>
      </trkpt>
      <trkpt lat="44.00845" lon="2.2343">
        <ele>388</ele>
        <time>2021-04-18T08:08:58Z</time>
      </trkpt>
      <trkpt lat="44.00845" lon="2.23432">
        <ele>388</ele>
        <time>2021-04-18T08:08:59Z</time>
      </trkpt>
      <trkpt lat="44.00844" lon="2.23433">
        <ele>388</ele>
        <time>2021-04-18T08:09:00Z</time>
      </trkpt>
      <trkpt lat="44.00843" lon="2.23433">
        <ele>387</ele>
        <time>2021-04-18T08:09:01Z</time>
      </trkpt>
      <trkpt lat="44.00843" lon="2.23434">
        <ele>386</ele>
        <time>2021-04-18T08:09:02Z</time>
      </trkpt>
      <trkpt lat="44.00843" lon="2.23435">
        <ele>386</ele>
        <time>2021-04-18T08:09:03Z</time>
      </trkpt>
      <trkpt lat="44.00842" lon="2.23435">
        <ele>386</ele>
        <time>2021-04-18T08:09:04Z</time>
      </trkpt>
      <trkpt lat="44.00842" lon="2.23435">
        <ele>386</ele>
        <time>2021-04-18T08:09:05Z</time>
      </trkpt>
      <trkpt lat="44.00842" lon="2.23435">
        <ele>386</ele>
        <time>2021-04-18T08:09:06Z</time>
      </trkpt>
      <trkpt lat="44.00841" lon="2.23437">
        <ele>386</ele>
        <time>2021-04-18T08:09:07Z</time>
      </trkpt>
      <trkpt lat="44.0084" lon="2.23437">
        <ele>386</ele>
        <time>2021-04-18T08:09:08Z</time>
      </trkpt>
      <trkpt lat="44.00839" lon="2.23437">
        <ele>387</ele>
        <time>2021-04-18T08:09:09Z</time>
      </trkpt>
      <trkpt lat="44.00837" lon="2.23436">
        <ele>386</ele>
        <time>2021-04-18T08:09:10Z</time>
      </trkpt>
      <trkpt lat="44.00835" lon="2.23436">
        <ele>386</ele>
        <time>2021-04-18T08:09:11Z</time>
      </trkpt>
      <trkpt lat="44.00834" lon="2.23437">
        <ele>386</ele>
        <time>2021-04-18T08:09:12Z</time>
      </trkpt>
      <trkpt lat="44.00832" lon="2.23439">
        <ele>385</ele>
        <time>2021-04-18T08:09:13Z</time>
      </trkpt>
      <trkpt lat="44.00831" lon="2.2344">
        <ele>385</ele>
        <time>2021-04-18T08:09:14Z</time>
      </trkpt>
      <trkpt lat="44.0083" lon="2.2344">
        <ele>385</ele>
        <time>2021-04-18T08:09:15Z</time>
      </trkpt>
      <trkpt lat="44.00829" lon="2.23442">
        <ele>385</ele>
        <time>2021-04-18T08:09:16Z</time>
      </trkpt>
      <trkpt lat="44.00827" lon="2.23442">
        <ele>385</ele>
        <time>2021-04-18T08:09:17Z</time>
      </trkpt>
      <trkpt lat="44.00826" lon="2.23443">
        <ele>386</ele>
        <time>2021-04-18T08:09:18Z</time>
      </trkpt>
      <trkpt lat="44.00825" lon="2.23444">
        <ele>386</ele>
        <time>2021-04-18T08:09:19Z</time>
      </trkpt>
      <trkpt lat="44.00824" lon="2.23445">
        <ele>386</ele>
        <time>2021-04-18T08:09:20Z</time>
      </trkpt>
      <trkpt lat="44.00822" lon="2.23446">
        <ele>386</ele>
        <time>2021-04-18T08:09:21Z</time>
      </trkpt>
      <trkpt lat="44.00821" lon="2.23447">
        <ele>386</ele>
        <time>2021-04-18T08:09:22Z</time>
      </trkpt>
      <trkpt lat="44.00819" lon="2.23448">
        <ele>385</ele>
        <time>2021-04-18T08:09:23Z</time>
      </trkpt>
      <trkpt lat="44.00818" lon="2.23449">
        <ele>385</ele>
        <time>2021-04-18T08:09:24Z</time>
      </trkpt>
      <trkpt lat="44.00817" lon="2.2345">
        <ele>385</ele>
        <time>2021-04-18T08:09:25Z</time>
      </trkpt>
      <trkpt lat="44.00815" lon="2.23451">
        <ele>385</ele>
        <time>2021-04-18T08:09:26Z</time>
      </trkpt>
      <trkpt lat="44.00813" lon="2.23452">
        <ele>385</ele>
        <time>2021-04-18T08:09:27Z</time>
      </trkpt>
      <trkpt lat="44.00812" lon="2.23453">
        <ele>385</ele>
        <time>2021-04-18T08:09:28Z</time>
      </trkpt>
      <trkpt lat="44.00811" lon="2.23454">
        <ele>385</ele>
        <time>2021-04-18T08:09:29Z</time>
      </trkpt>
      <trkpt lat="44.00809" lon="2.23455">
        <ele>385</ele>
        <time>2021-04-18T08:09:30Z</time>
      </trkpt>
      <trkpt lat="44.00808" lon="2.23455">
        <ele>384</ele>
        <time>2021-04-18T08:09:31Z</time>
      </trkpt>
      <trkpt lat="44.00806" lon="2.23456">
        <ele>384</ele>
        <time>2021-04-18T08:09:32Z</time>
      </trkpt>
      <trkpt lat="44.00805" lon="2.23457">
        <ele>383</ele>
        <time>2021-04-18T08:09:33Z</time>
      </trkpt>
      <trkpt lat="44.00803" lon="2.23457">
        <ele>383</ele>
        <time>2021-04-18T08:09:34Z</time>
      </trkpt>
      <trkpt lat="44.00802" lon="2.23458">
        <ele>383</ele>
        <time>2021-04-18T08:09:35Z</time>
      </trkpt>
      <trkpt lat="44.008" lon="2.23459">
        <ele>383</ele>
        <time>2021-04-18T08:09:36Z</time>
      </trkpt>
      <trkpt lat="44.00799" lon="2.23459">
        <ele>383</ele>
        <time>2021-04-18T08:09:37Z</time>
      </trkpt>
      <trkpt lat="44.00797" lon="2.2346">
        <ele>383</ele>
        <time>2021-04-18T08:09:38Z</time>
      </trkpt>
      <trkpt lat="44.00796" lon="2.23461">
        <ele>383</ele>
        <time>2021-04-18T08:09:39Z</time>
      </trkpt>
      <trkpt lat="44.00794" lon="2.23461">
        <ele>383</ele>
        <time>2021-04-18T08:09:40Z</time>
      </trkpt>
      <trkpt lat="44.00793" lon="2.23462">
        <ele>383</ele>
        <time>2021-04-18T08:09:41Z</time>
      </trkpt>
      <trkpt lat="44.00791" lon="2.23463">
        <ele>383</ele>
        <time>2021-04-18T08:09:42Z</time>
      </trkpt>
      <trkpt lat="44.0079" lon="2.23464">
        <ele>383</ele>
        <time>2021-04-18T08:09:43Z</time>
      </trkpt>
      <trkpt lat="44.00788" lon="2.23466">
        <ele>382</ele>
        <time>2021-04-18T08:09:44Z</time>
      </trkpt>
      <trkpt lat="44.00786" lon="2.23467">
        <ele>382</ele>
        <time>2021-04-18T08:09:45Z</time>
      </trkpt>
      <trkpt lat="44.00784" lon="2.23468">
        <ele>382</ele>
        <time>2021-04-18T08:09:46Z</time>
      </trkpt>
      <trkpt lat="44.00782" lon="2.2347">
        <ele>382</ele>
        <time>2021-04-18T08:09:47Z</time>
      </trkpt>
      <trkpt lat="44.00781" lon="2.2347">
        <ele>382</ele>
        <time>2021-04-18T08:09:48Z</time>
      </trkpt>
      <trkpt lat="44.00779" lon="2.23471">
        <ele>381</ele>
        <time>2021-04-18T08:09:49Z</time>
      </trkpt>
      <trkpt lat="44.00778" lon="2.23472">
        <ele>381</ele>
        <time>2021-04-18T08:09:50Z</time>
      </trkpt>
      <trkpt lat="44.00777" lon="2.23473">
        <ele>381</ele>
        <time>2021-04-18T08:09:51Z</time>
      </trkpt>
      <trkpt lat="44.00776" lon="2.23474">
        <ele>381</ele>
        <time>2021-04-18T08:09:52Z</time>
      </trkpt>
      <trkpt lat="44.00774" lon="2.23475">
        <ele>381</ele>
        <time>2021-04-18T08:09:53Z</time>
      </trkpt>
      <trkpt lat="44.00773" lon="2.23475">
        <ele>381</ele>
        <time>2021-04-18T08:09:54Z</time>
      </trkpt>
      <trkpt lat="44.00771" lon="2.23476">
        <ele>381</ele>
        <time>2021-04-18T08:09:55Z</time>
      </trkpt>
      <trkpt lat="44.0077" lon="2.23477">
        <ele>380</ele>
        <time>2021-04-18T08:09:56Z</time>
      </trkpt>
      <trkpt lat="44.00769" lon="2.23478">
        <ele>380</ele>
        <time>2021-04-18T08:09:57Z</time>
      </trkpt>
      <trkpt lat="44.00768" lon="2.23479">
        <ele>379</ele>
        <time>2021-04-18T08:09:58Z</time>
      </trkpt>
      <trkpt lat="44.00766" lon="2.2348">
        <ele>379</ele>
        <time>2021-04-18T08:09:59Z</time>
      </trkpt>
      <trkpt lat="44.00765" lon="2.23481">
        <ele>379</ele>
        <time>2021-04-18T08:10:00Z</time>
      </trkpt>
      <trkpt lat="44.00764" lon="2.23481">
        <ele>379</ele>
        <time>2021-04-18T08:10:01Z</time>
      </trkpt>
      <trkpt lat="44.00763" lon="2.23482">
        <ele>379</ele>
        <time>2021-04-18T08:10:02Z</time>
      </trkpt>
      <trkpt lat="44.00761" lon="2.23483">
        <ele>379</ele>
        <time>2021-04-18T08:10:03Z</time>
      </trkpt>
      <trkpt lat="44.0076" lon="2.23484">
        <ele>379</ele>
        <time>2021-04-18T08:10:04Z</time>
      </trkpt>
      <trkpt lat="44.00758" lon="2.23485">
        <ele>378</ele>
        <time>2021-04-18T08:10:05Z</time>
      </trkpt>
      <trkpt lat="44.00757" lon="2.23486">
        <ele>378</ele>
        <time>2021-04-18T08:10:06Z</time>
      </trkpt>
      <trkpt lat="44.00755" lon="2.23487">
        <ele>378</ele>
        <time>2021-04-18T08:10:07Z</time>
      </trkpt>
      <trkpt lat="44.00754" lon="2.23488">
        <ele>378</ele>
        <time>2021-04-18T08:10:08Z</time>
      </trkpt>
      <trkpt lat="44.00753" lon="2.23489">
        <ele>378</ele>
        <time>2021-04-18T08:10:09Z</time>
      </trkpt>
      <trkpt lat="44.00751" lon="2.23491">
        <ele>378</ele>
        <time>2021-04-18T08:10:10Z</time>
      </trkpt>
      <trkpt lat="44.0075" lon="2.23492">
        <ele>377</ele>
        <time>2021-04-18T08:10:11Z</time>
      </trkpt>
      <trkpt lat="44.00748" lon="2.23492">
        <ele>377</ele>
        <time>2021-04-18T08:10:12Z</time>
      </trkpt>
      <trkpt lat="44.00747" lon="2.23493">
        <ele>377</ele>
        <time>2021-04-18T08:10:13Z</time>
      </trkpt>
      <trkpt lat="44.00746" lon="2.23493">
        <ele>377</ele>
        <time>2021-04-18T08:10:14Z</time>
      </trkpt>
      <trkpt lat="44.00745" lon="2.23494">
        <ele>377</ele>
        <time>2021-04-18T08:10:15Z</time>
      </trkpt>
      <trkpt lat="44.00743" lon="2.23495">
        <ele>377</ele>
        <time>2021-04-18T08:10:16Z</time>
      </trkpt>
      <trkpt lat="44.00741" lon="2.23496">
        <ele>377</ele>
        <time>2021-04-18T08:10:17Z</time>
      </trkpt>
      <trkpt lat="44.0074" lon="2.23497">
        <ele>377</ele>
        <time>2021-04-18T08:10:18Z</time>
      </trkpt>
      <trkpt lat="44.00738" lon="2.23498">
        <ele>377</ele>
        <time>2021-04-18T08:10:19Z</time>
      </trkpt>
      <trkpt lat="44.00737" lon="2.23498">
        <ele>377</ele>
        <time>2021-04-18T08:10:20Z</time>
      </trkpt>
      <trkpt lat="44.00735" lon="2.23499">
        <ele>377</ele>
        <time>2021-04-18T08:10:21Z</time>
      </trkpt>
      <trkpt lat="44.00734" lon="2.235">
        <ele>377</ele>
        <time>2021-04-18T08:10:22Z</time>
      </trkpt>
      <trkpt lat="44.00732" lon="2.235">
        <ele>377</ele>
        <time>2021-04-18T08:10:23Z</time>
      </trkpt>
      <trkpt lat="44.00731" lon="2.23501">
        <ele>377</ele>
        <time>2021-04-18T08:10:24Z</time>
      </trkpt>
      <trkpt lat="44.00729" lon="2.23502">
        <ele>377</ele>
        <time>2021-04-18T08:10:25Z</time>
      </trkpt>
      <trkpt lat="44.00728" lon="2.23503">
        <ele>377</ele>
        <time>2021-04-18T08:10:26Z</time>
      </trkpt>
      <trkpt lat="44.00727" lon="2.23504">
        <ele>377</ele>
        <time>2021-04-18T08:10:27Z</time>
      </trkpt>
      <trkpt lat="44.00726" lon="2.23505">
        <ele>377</ele>
        <time>2021-04-18T08:10:28Z</time>
      </trkpt>
      <trkpt lat="44.00724" lon="2.23505">
        <ele>377</ele>
        <time>2021-04-18T08:10:29Z</time>
      </trkpt>
      <trkpt lat="44.00723" lon="2.23506">
        <ele>377</ele>
        <time>2021-04-18T08:10:30Z</time>
      </trkpt>
      <trkpt lat="44.00722" lon="2.23507">
        <ele>377</ele>
        <time>2021-04-18T08:10:31Z</time>
      </trkpt>
      <trkpt lat="44.0072" lon="2.23508">
        <ele>377</ele>
        <time>2021-04-18T08:10:32Z</time>
      </trkpt>
      <trkpt lat="44.00719" lon="2.23509">
        <ele>376</ele>
        <time>2021-04-18T08:10:33Z</time>
      </trkpt>
      <trkpt lat="44.00717" lon="2.23509">
        <ele>376</ele>
        <time>2021-04-18T08:10:34Z</time>
      </trkpt>
      <trkpt lat="44.00716" lon="2.2351">
        <ele>376</ele>
        <time>2021-04-18T08:10:35Z</time>
      </trkpt>
      <trkpt lat="44.00715" lon="2.2351">
        <ele>376</ele>
        <time>2021-04-18T08:10:36Z</time>
      </trkpt>
      <trkpt lat="44.00713" lon="2.2351">
        <ele>376</ele>
        <time>2021-04-18T08:10:37Z</time>
      </trkpt>
      <trkpt lat="44.00712" lon="2.23511">
        <ele>376</ele>
        <time>2021-04-18T08:10:38Z</time>
      </trkpt>
      <trkpt lat="44.00711" lon="2.23511">
        <ele>375</ele>
        <time>2021-04-18T08:10:39Z</time>
      </trkpt>
      <trkpt lat="44.0071" lon="2.23511">
        <ele>375</ele>
        <time>2021-04-18T08:10:40Z</time>
      </trkpt>
      <trkpt lat="44.00709" lon="2.23511">
        <ele>375</ele>
        <time>2021-04-18T08:10:41Z</time>
      </trkpt>
      <trkpt lat="44.00709" lon="2.23511">
        <ele>375</ele>
        <time>2021-04-18T08:10:42Z</time>
      </trkpt>
      <trkpt lat="44.00708" lon="2.23512">
        <ele>374</ele>
        <time>2021-04-18T08:10:43Z</time>
      </trkpt>
      <trkpt lat="44.00708" lon="2.23513">
        <ele>374</ele>
        <time>2021-04-18T08:10:44Z</time>
      </trkpt>
      <trkpt lat="44.00709" lon="2.23513">
        <ele>373</ele>
        <time>2021-04-18T08:10:45Z</time>
      </trkpt>
      <trkpt lat="44.00708" lon="2.23514">
        <ele>372</ele>
        <time>2021-04-18T08:10:46Z</time>
      </trkpt>
      <trkpt lat="44.00707" lon="2.23515">
        <ele>372</ele>
        <time>2021-04-18T08:10:47Z</time>
      </trkpt>
      <trkpt lat="44.00706" lon="2.23517">
        <ele>372</ele>
        <time>2021-04-18T08:10:48Z</time>
      </trkpt>
      <trkpt lat="44.00705" lon="2.23518">
        <ele>372</ele>
        <time>2021-04-18T08:10:49Z</time>
      </trkpt>
      <trkpt lat="44.00703" lon="2.23519">
        <ele>372</ele>
        <time>2021-04-18T08:10:50Z</time>
      </trkpt>
      <trkpt lat="44.00702" lon="2.2352">
        <ele>372</ele>
        <time>2021-04-18T08:10:51Z</time>
      </trkpt>
      <trkpt lat="44.007" lon="2.23521">
        <ele>372</ele>
        <time>2021-04-18T08:10:52Z</time>
      </trkpt>
      <trkpt lat="44.00699" lon="2.23523">
        <ele>372</ele>
        <time>2021-04-18T08:10:53Z</time>
      </trkpt>
      <trkpt lat="44.00698" lon="2.23524">
        <ele>372</ele>
        <time>2021-04-18T08:10:54Z</time>
      </trkpt>
      <trkpt lat="44.00697" lon="2.23525">
        <ele>372</ele>
        <time>2021-04-18T08:10:55Z</time>
      </trkpt>
      <trkpt lat="44.00695" lon="2.23526">
        <ele>372</ele>
        <time>2021-04-18T08:10:56Z</time>
      </trkpt>
      <trkpt lat="44.00694" lon="2.23526">
        <ele>372</ele>
        <time>2021-04-18T08:10:57Z</time>
      </trkpt>
      <trkpt lat="44.00692" lon="2.23527">
        <ele>372</ele>
        <time>2021-04-18T08:10:58Z</time>
      </trkpt>
      <trkpt lat="44.00691" lon="2.23527">
        <ele>372</ele>
        <time>2021-04-18T08:10:59Z</time>
      </trkpt>
      <trkpt lat="44.00689" lon="2.23528">
        <ele>372</ele>
        <time>2021-04-18T08:11:00Z</time>
      </trkpt>
      <trkpt lat="44.00688" lon="2.23529">
        <ele>372</ele>
        <time>2021-04-18T08:11:01Z</time>
      </trkpt>
      <trkpt lat="44.00687" lon="2.23529">
        <ele>371</ele>
        <time>2021-04-18T08:11:02Z</time>
      </trkpt>
      <trkpt lat="44.00685" lon="2.23529">
        <ele>371</ele>
        <time>2021-04-18T08:11:03Z</time>
      </trkpt>
      <trkpt lat="44.00684" lon="2.2353">
        <ele>371</ele>
        <time>2021-04-18T08:11:04Z</time>
      </trkpt>
      <trkpt lat="44.00682" lon="2.23532">
        <ele>371</ele>
        <time>2021-04-18T08:11:05Z</time>
      </trkpt>
      <trkpt lat="44.00679" lon="2.23533">
        <ele>370</ele>
        <time>2021-04-18T08:11:07Z</time>
      </trkpt>
      <trkpt lat="44.00676" lon="2.23535">
        <ele>370</ele>
        <time>2021-04-18T08:11:09Z</time>
      </trkpt>
      <trkpt lat="44.00674" lon="2.23535">
        <ele>370</ele>
        <time>2021-04-18T08:11:10Z</time>
      </trkpt>
      <trkpt lat="44.00673" lon="2.23536">
        <ele>370</ele>
        <time>2021-04-18T08:11:11Z</time>
      </trkpt>
      <trkpt lat="44.00671" lon="2.23537">
        <ele>371</ele>
        <time>2021-04-18T08:11:12Z</time>
      </trkpt>
      <trkpt lat="44.0067" lon="2.23538">
        <ele>371</ele>
        <time>2021-04-18T08:11:13Z</time>
      </trkpt>
      <trkpt lat="44.00668" lon="2.23539">
        <ele>370</ele>
        <time>2021-04-18T08:11:14Z</time>
      </trkpt>
      <trkpt lat="44.00667" lon="2.23539">
        <ele>371</ele>
        <time>2021-04-18T08:11:15Z</time>
      </trkpt>
      <trkpt lat="44.00665" lon="2.2354">
        <ele>370</ele>
        <time>2021-04-18T08:11:16Z</time>
      </trkpt>
      <trkpt lat="44.00664" lon="2.23541">
        <ele>370</ele>
        <time>2021-04-18T08:11:17Z</time>
      </trkpt>
      <trkpt lat="44.00663" lon="2.23542">
        <ele>370</ele>
        <time>2021-04-18T08:11:18Z</time>
      </trkpt>
      <trkpt lat="44.00661" lon="2.23542">
        <ele>370</ele>
        <time>2021-04-18T08:11:19Z</time>
      </trkpt>
      <trkpt lat="44.0066" lon="2.23543">
        <ele>369</ele>
        <time>2021-04-18T08:11:20Z</time>
      </trkpt>
      <trkpt lat="44.00658" lon="2.23544">
        <ele>370</ele>
        <time>2021-04-18T08:11:21Z</time>
      </trkpt>
      <trkpt lat="44.00657" lon="2.23544">
        <ele>370</ele>
        <time>2021-04-18T08:11:22Z</time>
      </trkpt>
      <trkpt lat="44.00655" lon="2.23545">
        <ele>370</ele>
        <time>2021-04-18T08:11:23Z</time>
      </trkpt>
      <trkpt lat="44.00654" lon="2.23546">
        <ele>370</ele>
        <time>2021-04-18T08:11:24Z</time>
      </trkpt>
      <trkpt lat="44.00652" lon="2.23547">
        <ele>370</ele>
        <time>2021-04-18T08:11:25Z</time>
      </trkpt>
      <trkpt lat="44.00651" lon="2.23547">
        <ele>370</ele>
        <time>2021-04-18T08:11:26Z</time>
      </trkpt>
      <trkpt lat="44.0065" lon="2.23548">
        <ele>370</ele>
        <time>2021-04-18T08:11:27Z</time>
      </trkpt>
      <trkpt lat="44.00648" lon="2.2355">
        <ele>370</ele>
        <time>2021-04-18T08:11:28Z</time>
      </trkpt>
      <trkpt lat="44.00647" lon="2.23551">
        <ele>369</ele>
        <time>2021-04-18T08:11:29Z</time>
      </trkpt>
      <trkpt lat="44.00645" lon="2.23552">
        <ele>369</ele>
        <time>2021-04-18T08:11:30Z</time>
      </trkpt>
      <trkpt lat="44.00644" lon="2.23553">
        <ele>369</ele>
        <time>2021-04-18T08:11:31Z</time>
      </trkpt>
      <trkpt lat="44.00642" lon="2.23553">
        <ele>369</ele>
        <time>2021-04-18T08:11:32Z</time>
      </trkpt>
      <trkpt lat="44.00641" lon="2.23554">
        <ele>369</ele>
        <time>2021-04-18T08:11:33Z</time>
      </trkpt>
      <trkpt lat="44.00639" lon="2.23554">
        <ele>369</ele>
        <time>2021-04-18T08:11:34Z</time>
      </trkpt>
      <trkpt lat="44.00636" lon="2.23554">
        <ele>369</ele>
        <time>2021-04-18T08:11:36Z</time>
      </trkpt>
      <trkpt lat="44.00634" lon="2.23555">
        <ele>369</ele>
        <time>2021-04-18T08:11:37Z</time>
      </trkpt>
      <trkpt lat="44.00633" lon="2.23556">
        <ele>368</ele>
        <time>2021-04-18T08:11:38Z</time>
      </trkpt>
      <trkpt lat="44.00631" lon="2.23556">
        <ele>368</ele>
        <time>2021-04-18T08:11:39Z</time>
      </trkpt>
      <trkpt lat="44.00629" lon="2.23557">
        <ele>368</ele>
        <time>2021-04-18T08:11:40Z</time>
      </trkpt>
      <trkpt lat="44.00628" lon="2.23557">
        <ele>368</ele>
        <time>2021-04-18T08:11:41Z</time>
      </trkpt>
      <trkpt lat="44.00627" lon="2.23558">
        <ele>368</ele>
        <time>2021-04-18T08:11:42Z</time>
      </trkpt>
      <trkpt lat="44.00625" lon="2.23558">
        <ele>367</ele>
        <time>2021-04-18T08:11:43Z</time>
      </trkpt>
      <trkpt lat="44.00624" lon="2.23558">
        <ele>368</ele>
        <time>2021-04-18T08:11:44Z</time>
      </trkpt>
      <trkpt lat="44.00623" lon="2.23559">
        <ele>367</ele>
        <time>2021-04-18T08:11:45Z</time>
      </trkpt>
      <trkpt lat="44.00621" lon="2.23559">
        <ele>367</ele>
        <time>2021-04-18T08:11:46Z</time>
      </trkpt>
      <trkpt lat="44.0062" lon="2.2356">
        <ele>367</ele>
        <time>2021-04-18T08:11:47Z</time>
      </trkpt>
      <trkpt lat="44.00618" lon="2.2356">
        <ele>367</ele>
        <time>2021-04-18T08:11:48Z</time>
      </trkpt>
      <trkpt lat="44.00617" lon="2.23561">
        <ele>367</ele>
        <time>2021-04-18T08:11:49Z</time>
      </trkpt>
      <trkpt lat="44.00615" lon="2.23562">
        <ele>367</ele>
        <time>2021-04-18T08:11:50Z</time>
      </trkpt>
      <trkpt lat="44.00614" lon="2.23562">
        <ele>367</ele>
        <time>2021-04-18T08:11:51Z</time>
      </trkpt>
      <trkpt lat="44.00613" lon="2.23562">
        <ele>367</ele>
        <time>2021-04-18T08:11:52Z</time>
      </trkpt>
      <trkpt lat="44.00612" lon="2.23562">
        <ele>367</ele>
        <time>2021-04-18T08:11:53Z</time>
      </trkpt>
      <trkpt lat="44.0061" lon="2.23562">
        <ele>367</ele>
        <time>2021-04-18T08:11:54Z</time>
      </trkpt>
      <trkpt lat="44.00609" lon="2.23563">
        <ele>367</ele>
        <time>2021-04-18T08:11:55Z</time>
      </trkpt>
      <trkpt lat="44.00607" lon="2.23563">
        <ele>367</ele>
        <time>2021-04-18T08:11:56Z</time>
      </trkpt>
      <trkpt lat="44.00605" lon="2.23563">
        <ele>367</ele>
        <time>2021-04-18T08:11:57Z</time>
      </trkpt>
      <trkpt lat="44.00604" lon="2.23564">
        <ele>367</ele>
        <time>2021-04-18T08:11:59Z</time>
      </trkpt>
      <trkpt lat="44.00603" lon="2.23564">
        <ele>367</ele>
        <time>2021-04-18T08:12:00Z</time>
      </trkpt>
      <trkpt lat="44.00602" lon="2.23564">
        <ele>367</ele>
        <time>2021-04-18T08:12:01Z</time>
      </trkpt>
      <trkpt lat="44.006" lon="2.23565">
        <ele>367</ele>
        <time>2021-04-18T08:12:02Z</time>
      </trkpt>
      <trkpt lat="44.00599" lon="2.23565">
        <ele>367</ele>
        <time>2021-04-18T08:12:03Z</time>
      </trkpt>
      <trkpt lat="44.00598" lon="2.23566">
        <ele>367</ele>
        <time>2021-04-18T08:12:04Z</time>
      </trkpt>
      <trkpt lat="44.00597" lon="2.23567">
        <ele>367</ele>
        <time>2021-04-18T08:12:05Z</time>
      </trkpt>
      <trkpt lat="44.00595" lon="2.23567">
        <ele>367</ele>
        <time>2021-04-18T08:12:06Z</time>
      </trkpt>
      <trkpt lat="44.00594" lon="2.23567">
        <ele>367</ele>
        <time>2021-04-18T08:12:07Z</time>
      </trkpt>
      <trkpt lat="44.00592" lon="2.23567">
        <ele>367</ele>
        <time>2021-04-18T08:12:08Z</time>
      </trkpt>
      <trkpt lat="44.00591" lon="2.23568">
        <ele>367</ele>
        <time>2021-04-18T08:12:09Z</time>
      </trkpt>
      <trkpt lat="44.00589" lon="2.23568">
        <ele>367</ele>
        <time>2021-04-18T08:12:10Z</time>
      </trkpt>
      <trkpt lat="44.00587" lon="2.23569">
        <ele>367</ele>
        <time>2021-04-18T08:12:11Z</time>
      </trkpt>
      <trkpt lat="44.00586" lon="2.23569">
        <ele>366</ele>
        <time>2021-04-18T08:12:12Z</time>
      </trkpt>
      <trkpt lat="44.00584" lon="2.23569">
        <ele>366</ele>
        <time>2021-04-18T08:12:13Z</time>
      </trkpt>
      <trkpt lat="44.00583" lon="2.23569">
        <ele>366</ele>
        <time>2021-04-18T08:12:14Z</time>
      </trkpt>
      <trkpt lat="44.00581" lon="2.23569">
        <ele>366</ele>
        <time>2021-04-18T08:12:15Z</time>
      </trkpt>
      <trkpt lat="44.0058" lon="2.2357">
        <ele>366</ele>
        <time>2021-04-18T08:12:16Z</time>
      </trkpt>
      <trkpt lat="44.00578" lon="2.2357">
        <ele>366</ele>
        <time>2021-04-18T08:12:17Z</time>
      </trkpt>
      <trkpt lat="44.00577" lon="2.23571">
        <ele>366</ele>
        <time>2021-04-18T08:12:18Z</time>
      </trkpt>
      <trkpt lat="44.00575" lon="2.23571">
        <ele>365</ele>
        <time>2021-04-18T08:12:19Z</time>
      </trkpt>
      <trkpt lat="44.00574" lon="2.23571">
        <ele>365</ele>
        <time>2021-04-18T08:12:20Z</time>
      </trkpt>
      <trkpt lat="44.00572" lon="2.23571">
        <ele>365</ele>
        <time>2021-04-18T08:12:21Z</time>
      </trkpt>
      <trkpt lat="44.00571" lon="2.23571">
        <ele>365</ele>
        <time>2021-04-18T08:12:22Z</time>
      </trkpt>
      <trkpt lat="44.0057" lon="2.23572">
        <ele>365</ele>
        <time>2021-04-18T08:12:23Z</time>
      </trkpt>
      <trkpt lat="44.00568" lon="2.23572">
        <ele>365</ele>
        <time>2021-04-18T08:12:24Z</time>
      </trkpt>
      <trkpt lat="44.00567" lon="2.23573">
        <ele>365</ele>
        <time>2021-04-18T08:12:25Z</time>
      </trkpt>
      <trkpt lat="44.00565" lon="2.23573">
        <ele>365</ele>
        <time>2021-04-18T08:12:26Z</time>
      </trkpt>
      <trkpt lat="44.00563" lon="2.23573">
        <ele>365</ele>
        <time>2021-04-18T08:12:27Z</time>
      </trkpt>
      <trkpt lat="44.00562" lon="2.23572">
        <ele>365</ele>
        <time>2021-04-18T08:12:28Z</time>
      </trkpt>
      <trkpt lat="44.0056" lon="2.23572">
        <ele>364</ele>
        <time>2021-04-18T08:12:29Z</time>
      </trkpt>
      <trkpt lat="44.00559" lon="2.23572">
        <ele>364</ele>
        <time>2021-04-18T08:12:30Z</time>
      </trkpt>
      <trkpt lat="44.00557" lon="2.23572">
        <ele>364</ele>
        <time>2021-04-18T08:12:31Z</time>
      </trkpt>
      <trkpt lat="44.00556" lon="2.23572">
        <ele>364</ele>
        <time>2021-04-18T08:12:32Z</time>
      </trkpt>
      <trkpt lat="44.00554" lon="2.23572">
        <ele>364</ele>
        <time>2021-04-18T08:12:33Z</time>
      </trkpt>
      <trkpt lat="44.00552" lon="2.23572">
        <ele>363</ele>
        <time>2021-04-18T08:12:34Z</time>
      </trkpt>
      <trkpt lat="44.00551" lon="2.23571">
        <ele>364</ele>
        <time>2021-04-18T08:12:35Z</time>
      </trkpt>
      <trkpt lat="44.0055" lon="2.23571">
        <ele>364</ele>
        <time>2021-04-18T08:12:36Z</time>
      </trkpt>
      <trkpt lat="44.00549" lon="2.23571">
        <ele>364</ele>
        <time>2021-04-18T08:12:37Z</time>
      </trkpt>
      <trkpt lat="44.00547" lon="2.23571">
        <ele>364</ele>
        <time>2021-04-18T08:12:38Z</time>
      </trkpt>
      <trkpt lat="44.00546" lon="2.23571">
        <ele>364</ele>
        <time>2021-04-18T08:12:39Z</time>
      </trkpt>
      <trkpt lat="44.00544" lon="2.23571">
        <ele>364</ele>
        <time>2021-04-18T08:12:40Z</time>
      </trkpt>
      <trkpt lat="44.00543" lon="2.2357">
        <ele>363</ele>
        <time>2021-04-18T08:12:41Z</time>
      </trkpt>
      <trkpt lat="44.00541" lon="2.2357">
        <ele>363</ele>
        <time>2021-04-18T08:12:42Z</time>
      </trkpt>
      <trkpt lat="44.0054" lon="2.2357">
        <ele>363</ele>
        <time>2021-04-18T08:12:43Z</time>
      </trkpt>
      <trkpt lat="44.00538" lon="2.2357">
        <ele>363</ele>
        <time>2021-04-18T08:12:44Z</time>
      </trkpt>
      <trkpt lat="44.00537" lon="2.2357">
        <ele>362</ele>
        <time>2021-04-18T08:12:45Z</time>
      </trkpt>
      <trkpt lat="44.00536" lon="2.2357">
        <ele>363</ele>
        <time>2021-04-18T08:12:46Z</time>
      </trkpt>
      <trkpt lat="44.00534" lon="2.2357">
        <ele>363</ele>
        <time>2021-04-18T08:12:47Z</time>
      </trkpt>
      <trkpt lat="44.00533" lon="2.2357">
        <ele>362</ele>
        <time>2021-04-18T08:12:48Z</time>
      </trkpt>
      <trkpt lat="44.00531" lon="2.2357">
        <ele>362</ele>
        <time>2021-04-18T08:12:49Z</time>
      </trkpt>
      <trkpt lat="44.0053" lon="2.2357">
        <ele>362</ele>
        <time>2021-04-18T08:12:50Z</time>
      </trkpt>
      <trkpt lat="44.00528" lon="2.2357">
        <ele>362</ele>
        <time>2021-04-18T08:12:51Z</time>
      </trkpt>
      <trkpt lat="44.00526" lon="2.2357">
        <ele>362</ele>
        <time>2021-04-18T08:12:52Z</time>
      </trkpt>
      <trkpt lat="44.00525" lon="2.2357">
        <ele>362</ele>
        <time>2021-04-18T08:12:53Z</time>
      </trkpt>
      <trkpt lat="44.00523" lon="2.23571">
        <ele>362</ele>
        <time>2021-04-18T08:12:54Z</time>
      </trkpt>
      <trkpt lat="44.00521" lon="2.23571">
        <ele>362</ele>
        <time>2021-04-18T08:12:55Z</time>
      </trkpt>
      <trkpt lat="44.00519" lon="2.23571">
        <ele>362</ele>
        <time>2021-04-18T08:12:56Z</time>
      </trkpt>
      <trkpt lat="44.00518" lon="2.23571">
        <ele>361</ele>
        <time>2021-04-18T08:12:57Z</time>
      </trkpt>
      <trkpt lat="44.00516" lon="2.23572">
        <ele>361</ele>
        <time>2021-04-18T08:12:58Z</time>
      </trkpt>
      <trkpt lat="44.00515" lon="2.23572">
        <ele>361</ele>
        <time>2021-04-18T08:12:59Z</time>
      </trkpt>
      <trkpt lat="44.00514" lon="2.23573">
        <ele>361</ele>
        <time>2021-04-18T08:13:00Z</time>
      </trkpt>
      <trkpt lat="44.00512" lon="2.23573">
        <ele>361</ele>
        <time>2021-04-18T08:13:01Z</time>
      </trkpt>
      <trkpt lat="44.0051" lon="2.23574">
        <ele>361</ele>
        <time>2021-04-18T08:13:02Z</time>
      </trkpt>
      <trkpt lat="44.00509" lon="2.23575">
        <ele>361</ele>
        <time>2021-04-18T08:13:03Z</time>
      </trkpt>
      <trkpt lat="44.00507" lon="2.23576">
        <ele>360</ele>
        <time>2021-04-18T08:13:04Z</time>
      </trkpt>
      <trkpt lat="44.00506" lon="2.23576">
        <ele>360</ele>
        <time>2021-04-18T08:13:05Z</time>
      </trkpt>
      <trkpt lat="44.00505" lon="2.23577">
        <ele>360</ele>
        <time>2021-04-18T08:13:06Z</time>
      </trkpt>
      <trkpt lat="44.00503" lon="2.23577">
        <ele>360</ele>
        <time>2021-04-18T08:13:07Z</time>
      </trkpt>
      <trkpt lat="44.00502" lon="2.23577">
        <ele>360</ele>
        <time>2021-04-18T08:13:08Z</time>
      </trkpt>
      <trkpt lat="44.00501" lon="2.23578">
        <ele>359</ele>
        <time>2021-04-18T08:13:09Z</time>
      </trkpt>
      <trkpt lat="44.00499" lon="2.23579">
        <ele>359</ele>
        <time>2021-04-18T08:13:10Z</time>
      </trkpt>
      <trkpt lat="44.00497" lon="2.23579">
        <ele>359</ele>
        <time>2021-04-18T08:13:11Z</time>
      </trkpt>
      <trkpt lat="44.00496" lon="2.23581">
        <ele>358</ele>
        <time>2021-04-18T08:13:12Z</time>
      </trkpt>
      <trkpt lat="44.00494" lon="2.23582">
        <ele>358</ele>
        <time>2021-04-18T08:13:13Z</time>
      </trkpt>
      <trkpt lat="44.00493" lon="2.23583">
        <ele>357</ele>
        <time>2021-04-18T08:13:14Z</time>
      </trkpt>
      <trkpt lat="44.00492" lon="2.23584">
        <ele>357</ele>
        <time>2021-04-18T08:13:15Z</time>
      </trkpt>
      <trkpt lat="44.00491" lon="2.23585">
        <ele>357</ele>
        <time>2021-04-18T08:13:16Z</time>
      </trkpt>
      <trkpt lat="44.00489" lon="2.23585">
        <ele>357</ele>
        <time>2021-04-18T08:13:17Z</time>
      </trkpt>
      <trkpt lat="44.00488" lon="2.23586">
        <ele>356</ele>
        <time>2021-04-18T08:13:18Z</time>
      </trkpt>
      <trkpt lat="44.00488" lon="2.23587">
        <ele>356</ele>
        <time>2021-04-18T08:13:19Z</time>
      </trkpt>
      <trkpt lat="44.00486" lon="2.23588">
        <ele>356</ele>
        <time>2021-04-18T08:13:20Z</time>
      </trkpt>
      <trkpt lat="44.00485" lon="2.23589">
        <ele>356</ele>
        <time>2021-04-18T08:13:21Z</time>
      </trkpt>
      <trkpt lat="44.00484" lon="2.2359">
        <ele>356</ele>
        <time>2021-04-18T08:13:22Z</time>
      </trkpt>
      <trkpt lat="44.00483" lon="2.23591">
        <ele>356</ele>
        <time>2021-04-18T08:13:23Z</time>
      </trkpt>
      <trkpt lat="44.00482" lon="2.23592">
        <ele>356</ele>
        <time>2021-04-18T08:13:24Z</time>
      </trkpt>
      <trkpt lat="44.00481" lon="2.23593">
        <ele>356</ele>
        <time>2021-04-18T08:13:25Z</time>
      </trkpt>
      <trkpt lat="44.00479" lon="2.23594">
        <ele>355</ele>
        <time>2021-04-18T08:13:26Z</time>
      </trkpt>
      <trkpt lat="44.00478" lon="2.23595">
        <ele>356</ele>
        <time>2021-04-18T08:13:27Z</time>
      </trkpt>
      <trkpt lat="44.00478" lon="2.23596">
        <ele>356</ele>
        <time>2021-04-18T08:13:28Z</time>
      </trkpt>
      <trkpt lat="44.00477" lon="2.23597">
        <ele>355</ele>
        <time>2021-04-18T08:13:29Z</time>
      </trkpt>
      <trkpt lat="44.00475" lon="2.23598">
        <ele>356</ele>
        <time>2021-04-18T08:13:30Z</time>
      </trkpt>
      <trkpt lat="44.00474" lon="2.236">
        <ele>356</ele>
        <time>2021-04-18T08:13:31Z</time>
      </trkpt>
      <trkpt lat="44.00472" lon="2.23601">
        <ele>356</ele>
        <time>2021-04-18T08:13:32Z</time>
      </trkpt>
      <trkpt lat="44.00471" lon="2.23602">
        <ele>356</ele>
        <time>2021-04-18T08:13:33Z</time>
      </trkpt>
      <trkpt lat="44.0047" lon="2.23603">
        <ele>356</ele>
        <time>2021-04-18T08:13:34Z</time>
      </trkpt>
      <trkpt lat="44.00469" lon="2.23604">
        <ele>356</ele>
        <time>2021-04-18T08:13:35Z</time>
      </trkpt>
      <trkpt lat="44.00468" lon="2.23605">
        <ele>356</ele>
        <time>2021-04-18T08:13:36Z</time>
      </trkpt>
      <trkpt lat="44.00467" lon="2.23607">
        <ele>356</ele>
        <time>2021-04-18T08:13:37Z</time>
      </trkpt>
      <trkpt lat="44.00466" lon="2.23608">
        <ele>356</ele>
        <time>2021-04-18T08:13:38Z</time>
      </trkpt>
      <trkpt lat="44.00466" lon="2.2361">
        <ele>356</ele>
        <time>2021-04-18T08:13:39Z</time>
      </trkpt>
      <trkpt lat="44.00465" lon="2.23612">
        <ele>356</ele>
        <time>2021-04-18T08:13:40Z</time>
      </trkpt>
      <trkpt lat="44.00465" lon="2.23614">
        <ele>356</ele>
        <time>2021-04-18T08:13:41Z</time>
      </trkpt>
      <trkpt lat="44.00464" lon="2.23616">
        <ele>356</ele>
        <time>2021-04-18T08:13:42Z</time>
      </trkpt>
      <trkpt lat="44.00464" lon="2.23617">
        <ele>356</ele>
        <time>2021-04-18T08:13:43Z</time>
      </trkpt>
      <trkpt lat="44.00464" lon="2.23619">
        <ele>356</ele>
        <time>2021-04-18T08:13:44Z</time>
      </trkpt>
      <trkpt lat="44.00463" lon="2.2362">
        <ele>356</ele>
        <time>2021-04-18T08:13:45Z</time>
      </trkpt>
      <trkpt lat="44.00462" lon="2.23622">
        <ele>355</ele>
        <time>2021-04-18T08:13:46Z</time>
      </trkpt>
      <trkpt lat="44.00462" lon="2.23624">
        <ele>355</ele>
        <time>2021-04-18T08:13:47Z</time>
      </trkpt>
      <trkpt lat="44.00461" lon="2.23627">
        <ele>354</ele>
        <time>2021-04-18T08:13:48Z</time>
      </trkpt>
      <trkpt lat="44.0046" lon="2.23629">
        <ele>354</ele>
        <time>2021-04-18T08:13:49Z</time>
      </trkpt>
      <trkpt lat="44.00459" lon="2.23632">
        <ele>354</ele>
        <time>2021-04-18T08:13:50Z</time>
      </trkpt>
      <trkpt lat="44.00459" lon="2.23634">
        <ele>353</ele>
        <time>2021-04-18T08:13:51Z</time>
      </trkpt>
      <trkpt lat="44.00459" lon="2.23634">
        <ele>353</ele>
        <time>2021-04-18T08:13:52Z</time>
      </trkpt>
      <trkpt lat="44.00459" lon="2.23634">
        <ele>353</ele>
        <time>2021-04-18T08:13:53Z</time>
      </trkpt>
      <trkpt lat="44.00459" lon="2.23636">
        <ele>353</ele>
        <time>2021-04-18T08:13:54Z</time>
      </trkpt>
      <trkpt lat="44.00459" lon="2.23638">
        <ele>352</ele>
        <time>2021-04-18T08:13:55Z</time>
      </trkpt>
      <trkpt lat="44.00458" lon="2.2364">
        <ele>353</ele>
        <time>2021-04-18T08:13:56Z</time>
      </trkpt>
      <trkpt lat="44.00458" lon="2.23641">
        <ele>353</ele>
        <time>2021-04-18T08:13:57Z</time>
      </trkpt>
      <trkpt lat="44.00457" lon="2.23643">
        <ele>353</ele>
        <time>2021-04-18T08:13:58Z</time>
      </trkpt>
      <trkpt lat="44.00457" lon="2.23644">
        <ele>353</ele>
        <time>2021-04-18T08:13:59Z</time>
      </trkpt>
      <trkpt lat="44.00456" lon="2.23646">
        <ele>354</ele>
        <time>2021-04-18T08:14:00Z</time>
      </trkpt>
      <trkpt lat="44.00456" lon="2.23647">
        <ele>354</ele>
        <time>2021-04-18T08:14:01Z</time>
      </trkpt>
      <trkpt lat="44.00455" lon="2.23648">
        <ele>354</ele>
        <time>2021-04-18T08:14:02Z</time>
      </trkpt>
      <trkpt lat="44.00454" lon="2.2365">
        <ele>355</ele>
        <time>2021-04-18T08:14:03Z</time>
      </trkpt>
      <trkpt lat="44.00454" lon="2.23652">
        <ele>355</ele>
        <time>2021-04-18T08:14:04Z</time>
      </trkpt>
      <trkpt lat="44.00454" lon="2.23653">
        <ele>355</ele>
        <time>2021-04-18T08:14:05Z</time>
      </trkpt>
      <trkpt lat="44.00454" lon="2.23654">
        <ele>355</ele>
        <time>2021-04-18T08:14:06Z</time>
      </trkpt>
      <trkpt lat="44.00453" lon="2.23655">
        <ele>355</ele>
        <time>2021-04-18T08:14:07Z</time>
      </trkpt>
      <trkpt lat="44.00452" lon="2.23657">
        <ele>354</ele>
        <time>2021-04-18T08:14:08Z</time>
      </trkpt>
      <trkpt lat="44.00451" lon="2.23658">
        <ele>354</ele>
        <time>2021-04-18T08:14:09Z</time>
      </trkpt>
      <trkpt lat="44.00451" lon="2.23659">
        <ele>355</ele>
        <time>2021-04-18T08:14:10Z</time>
      </trkpt>
      <trkpt lat="44.00451" lon="2.23661">
        <ele>355</ele>
        <time>2021-04-18T08:14:11Z</time>
      </trkpt>
      <trkpt lat="44.00451" lon="2.23663">
        <ele>355</ele>
        <time>2021-04-18T08:14:12Z</time>
      </trkpt>
      <trkpt lat="44.00451" lon="2.23664">
        <ele>355</ele>
        <time>2021-04-18T08:14:13Z</time>
      </trkpt>
      <trkpt lat="44.00451" lon="2.23665">
        <ele>356</ele>
        <time>2021-04-18T08:14:14Z</time>
      </trkpt>
      <trkpt lat="44.00451" lon="2.23665">
        <ele>356</ele>
        <time>2021-04-18T08:14:15Z</time>
      </trkpt>
      <trkpt lat="44.00451" lon="2.23666">
        <ele>356</ele>
        <time>2021-04-18T08:14:16Z</time>
      </trkpt>
      <trkpt lat="44.00451" lon="2.23666">
        <ele>355</ele>
        <time>2021-04-18T08:14:17Z</time>
      </trkpt>
      <trkpt lat="44.00451" lon="2.23667">
        <ele>354</ele>
        <time>2021-04-18T08:14:18Z</time>
      </trkpt>
      <trkpt lat="44.00451" lon="2.23668">
        <ele>353</ele>
        <time>2021-04-18T08:14:19Z</time>
      </trkpt>
      <trkpt lat="44.00451" lon="2.23669">
        <ele>353</ele>
        <time>2021-04-18T08:14:20Z</time>
      </trkpt>
      <trkpt lat="44.0045" lon="2.2367">
        <ele>353</ele>
        <time>2021-04-18T08:14:21Z</time>
      </trkpt>
      <trkpt lat="44.00449" lon="2.23671">
        <ele>353</ele>
        <time>2021-04-18T08:14:22Z</time>
      </trkpt>
      <trkpt lat="44.00449" lon="2.23671">
        <ele>353</ele>
        <time>2021-04-18T08:14:23Z</time>
      </trkpt>
      <trkpt lat="44.00448" lon="2.23673">
        <ele>352</ele>
        <time>2021-04-18T08:14:24Z</time>
      </trkpt>
      <trkpt lat="44.00448" lon="2.23675">
        <ele>352</ele>
        <time>2021-04-18T08:14:25Z</time>
      </trkpt>
      <trkpt lat="44.00447" lon="2.23676">
        <ele>352</ele>
        <time>2021-04-18T08:14:26Z</time>
      </trkpt>
      <trkpt lat="44.00446" lon="2.23679">
        <ele>351</ele>
        <time>2021-04-18T08:14:28Z</time>
      </trkpt>
      <trkpt lat="44.00446" lon="2.23679">
        <ele>351</ele>
        <time>2021-04-18T08:14:28Z</time>
      </trkpt>
      <trkpt lat="44.00446" lon="2.2368">
        <ele>351</ele>
        <time>2021-04-18T08:14:29Z</time>
      </trkpt>
      <trkpt lat="44.00446" lon="2.23682">
        <ele>351</ele>
        <time>2021-04-18T08:14:30Z</time>
      </trkpt>
      <trkpt lat="44.00446" lon="2.23683">
        <ele>350</ele>
        <time>2021-04-18T08:14:31Z</time>
      </trkpt>
      <trkpt lat="44.00446" lon="2.23686">
        <ele>350</ele>
        <time>2021-04-18T08:14:32Z</time>
      </trkpt>
      <trkpt lat="44.00446" lon="2.23688">
        <ele>350</ele>
        <time>2021-04-18T08:14:33Z</time>
      </trkpt>
      <trkpt lat="44.00446" lon="2.2369">
        <ele>350</ele>
        <time>2021-04-18T08:14:34Z</time>
      </trkpt>
      <trkpt lat="44.00445" lon="2.23691">
        <ele>351</ele>
        <time>2021-04-18T08:14:35Z</time>
      </trkpt>
      <trkpt lat="44.00445" lon="2.23693">
        <ele>351</ele>
        <time>2021-04-18T08:14:36Z</time>
      </trkpt>
      <trkpt lat="44.00446" lon="2.23695">
        <ele>351</ele>
        <time>2021-04-18T08:14:37Z</time>
      </trkpt>
      <trkpt lat="44.00445" lon="2.23697">
        <ele>351</ele>
        <time>2021-04-18T08:14:38Z</time>
      </trkpt>
      <trkpt lat="44.00446" lon="2.23698">
        <ele>352</ele>
        <time>2021-04-18T08:14:39Z</time>
      </trkpt>
      <trkpt lat="44.00446" lon="2.237">
        <ele>352</ele>
        <time>2021-04-18T08:14:40Z</time>
      </trkpt>
      <trkpt lat="44.00445" lon="2.23702">
        <ele>353</ele>
        <time>2021-04-18T08:14:41Z</time>
      </trkpt>
      <trkpt lat="44.00445" lon="2.23703">
        <ele>353</ele>
        <time>2021-04-18T08:14:42Z</time>
      </trkpt>
      <trkpt lat="44.00445" lon="2.23705">
        <ele>353</ele>
        <time>2021-04-18T08:14:43Z</time>
      </trkpt>
      <trkpt lat="44.00445" lon="2.23707">
        <ele>353</ele>
        <time>2021-04-18T08:14:44Z</time>
      </trkpt>
      <trkpt lat="44.00445" lon="2.23709">
        <ele>353</ele>
        <time>2021-04-18T08:14:45Z</time>
      </trkpt>
      <trkpt lat="44.00444" lon="2.2371">
        <ele>353</ele>
        <time>2021-04-18T08:14:46Z</time>
      </trkpt>
      <trkpt lat="44.00444" lon="2.23712">
        <ele>353</ele>
        <time>2021-04-18T08:14:47Z</time>
      </trkpt>
      <trkpt lat="44.00443" lon="2.23713">
        <ele>354</ele>
        <time>2021-04-18T08:14:48Z</time>
      </trkpt>
      <trkpt lat="44.00443" lon="2.23715">
        <ele>354</ele>
        <time>2021-04-18T08:14:49Z</time>
      </trkpt>
      <trkpt lat="44.00443" lon="2.23718">
        <ele>354</ele>
        <time>2021-04-18T08:14:50Z</time>
      </trkpt>
      <trkpt lat="44.00443" lon="2.23719">
        <ele>354</ele>
        <time>2021-04-18T08:14:51Z</time>
      </trkpt>
      <trkpt lat="44.00443" lon="2.23721">
        <ele>354</ele>
        <time>2021-04-18T08:14:52Z</time>
      </trkpt>
      <trkpt lat="44.00442" lon="2.23723">
        <ele>354</ele>
        <time>2021-04-18T08:14:53Z</time>
      </trkpt>
      <trkpt lat="44.00442" lon="2.23725">
        <ele>354</ele>
        <time>2021-04-18T08:14:54Z</time>
      </trkpt>
      <trkpt lat="44.00441" lon="2.23726">
        <ele>354</ele>
        <time>2021-04-18T08:14:55Z</time>
      </trkpt>
      <trkpt lat="44.00441" lon="2.23728">
        <ele>353</ele>
        <time>2021-04-18T08:14:56Z</time>
      </trkpt>
      <trkpt lat="44.00441" lon="2.23729">
        <ele>353</ele>
        <time>2021-04-18T08:14:57Z</time>
      </trkpt>
      <trkpt lat="44.0044" lon="2.23733">
        <ele>354</ele>
        <time>2021-04-18T08:14:59Z</time>
      </trkpt>
      <trkpt lat="44.00439" lon="2.23735">
        <ele>353</ele>
        <time>2021-04-18T08:15:00Z</time>
      </trkpt>
      <trkpt lat="44.00439" lon="2.23735">
        <ele>353</ele>
        <time>2021-04-18T08:15:00Z</time>
      </trkpt>
      <trkpt lat="44.00438" lon="2.23737">
        <ele>353</ele>
        <time>2021-04-18T08:15:01Z</time>
      </trkpt>
      <trkpt lat="44.00438" lon="2.23738">
        <ele>353</ele>
        <time>2021-04-18T08:15:02Z</time>
      </trkpt>
      <trkpt lat="44.00437" lon="2.23741">
        <ele>353</ele>
        <time>2021-04-18T08:15:03Z</time>
      </trkpt>
      <trkpt lat="44.00437" lon="2.23745">
        <ele>354</ele>
        <time>2021-04-18T08:15:05Z</time>
      </trkpt>
      <trkpt lat="44.00437" lon="2.23745">
        <ele>354</ele>
        <time>2021-04-18T08:15:05Z</time>
      </trkpt>
      <trkpt lat="44.00437" lon="2.23747">
        <ele>354</ele>
        <time>2021-04-18T08:15:06Z</time>
      </trkpt>
      <trkpt lat="44.00437" lon="2.23749">
        <ele>354</ele>
        <time>2021-04-18T08:15:07Z</time>
      </trkpt>
      <trkpt lat="44.00437" lon="2.23751">
        <ele>354</ele>
        <time>2021-04-18T08:15:08Z</time>
      </trkpt>
      <trkpt lat="44.00438" lon="2.23752">
        <ele>354</ele>
        <time>2021-04-18T08:15:09Z</time>
      </trkpt>
      <trkpt lat="44.00438" lon="2.23756">
        <ele>353</ele>
        <time>2021-04-18T08:15:11Z</time>
      </trkpt>
      <trkpt lat="44.00438" lon="2.23757">
        <ele>353</ele>
        <time>2021-04-18T08:15:12Z</time>
      </trkpt>
      <trkpt lat="44.00438" lon="2.23757">
        <ele>353</ele>
        <time>2021-04-18T08:15:12Z</time>
      </trkpt>
      <trkpt lat="44.00437" lon="2.23759">
        <ele>354</ele>
        <time>2021-04-18T08:15:13Z</time>
      </trkpt>
      <trkpt lat="44.00437" lon="2.23761">
        <ele>354</ele>
        <time>2021-04-18T08:15:14Z</time>
      </trkpt>
      <trkpt lat="44.00436" lon="2.23763">
        <ele>353</ele>
        <time>2021-04-18T08:15:16Z</time>
      </trkpt>
      <trkpt lat="44.00436" lon="2.23763">
        <ele>353</ele>
        <time>2021-04-18T08:15:16Z</time>
      </trkpt>
      <trkpt lat="44.00436" lon="2.23767">
        <ele>353</ele>
        <time>2021-04-18T08:15:18Z</time>
      </trkpt>
      <trkpt lat="44.00436" lon="2.23767">
        <ele>353</ele>
        <time>2021-04-18T08:15:18Z</time>
      </trkpt>
      <trkpt lat="44.00436" lon="2.23768">
        <ele>353</ele>
        <time>2021-04-18T08:15:19Z</time>
      </trkpt>
      <trkpt lat="44.00436" lon="2.23769">
        <ele>354</ele>
        <time>2021-04-18T08:15:20Z</time>
      </trkpt>
      <trkpt lat="44.00436" lon="2.23771">
        <ele>354</ele>
        <time>2021-04-18T08:15:21Z</time>
      </trkpt>
      <trkpt lat="44.00436" lon="2.23773">
        <ele>354</ele>
        <time>2021-04-18T08:15:22Z</time>
      </trkpt>
      <trkpt lat="44.00437" lon="2.23776">
        <ele>354</ele>
        <time>2021-04-18T08:15:24Z</time>
      </trkpt>
      <trkpt lat="44.00437" lon="2.23776">
        <ele>354</ele>
        <time>2021-04-18T08:15:24Z</time>
      </trkpt>
      <trkpt lat="44.00437" lon="2.23779">
        <ele>353</ele>
        <time>2021-04-18T08:15:26Z</time>
      </trkpt>
      <trkpt lat="44.00437" lon="2.23779">
        <ele>353</ele>
        <time>2021-04-18T08:15:26Z</time>
      </trkpt>
      <trkpt lat="44.00437" lon="2.23781">
        <ele>353</ele>
        <time>2021-04-18T08:15:27Z</time>
      </trkpt>
      <trkpt lat="44.00437" lon="2.23783">
        <ele>352</ele>
        <time>2021-04-18T08:15:28Z</time>
      </trkpt>
      <trkpt lat="44.00437" lon="2.23786">
        <ele>353</ele>
        <time>2021-04-18T08:15:29Z</time>
      </trkpt>
      <trkpt lat="44.00438" lon="2.23788">
        <ele>353</ele>
        <time>2021-04-18T08:15:30Z</time>
      </trkpt>
      <trkpt lat="44.00439" lon="2.23791">
        <ele>354</ele>
        <time>2021-04-18T08:15:32Z</time>
      </trkpt>
      <trkpt lat="44.0044" lon="2.23792">
        <ele>354</ele>
        <time>2021-04-18T08:15:33Z</time>
      </trkpt>
      <trkpt lat="44.0044" lon="2.23792">
        <ele>354</ele>
        <time>2021-04-18T08:15:33Z</time>
      </trkpt>
      <trkpt lat="44.00439" lon="2.23794">
        <ele>354</ele>
        <time>2021-04-18T08:15:35Z</time>
      </trkpt>
      <trkpt lat="44.00439" lon="2.23794">
        <ele>354</ele>
        <time>2021-04-18T08:15:36Z</time>
      </trkpt>
      <trkpt lat="44.00439" lon="2.23794">
        <ele>354</ele>
        <time>2021-04-18T08:15:36Z</time>
      </trkpt>
      <trkpt lat="44.00438" lon="2.23795">
        <ele>354</ele>
        <time>2021-04-18T08:15:37Z</time>
      </trkpt>
      <trkpt lat="44.00438" lon="2.23796">
        <ele>355</ele>
        <time>2021-04-18T08:15:38Z</time>
      </trkpt>
      <trkpt lat="44.00439" lon="2.23797">
        <ele>355</ele>
        <time>2021-04-18T08:15:39Z</time>
      </trkpt>
      <trkpt lat="44.00439" lon="2.23797">
        <ele>356</ele>
        <time>2021-04-18T08:15:40Z</time>
      </trkpt>
      <trkpt lat="44.0044" lon="2.23797">
        <ele>355</ele>
        <time>2021-04-18T08:15:42Z</time>
      </trkpt>
      <trkpt lat="44.0044" lon="2.23797">
        <ele>355</ele>
        <time>2021-04-18T08:15:42Z</time>
      </trkpt>
      <trkpt lat="44.0044" lon="2.23798">
        <ele>355</ele>
        <time>2021-04-18T08:15:43Z</time>
      </trkpt>
      <trkpt lat="44.0044" lon="2.23799">
        <ele>355</ele>
        <time>2021-04-18T08:15:44Z</time>
      </trkpt>
      <trkpt lat="44.0044" lon="2.23799">
        <ele>355</ele>
        <time>2021-04-18T08:15:45Z</time>
      </trkpt>
      <trkpt lat="44.0044" lon="2.23801">
        <ele>354</ele>
        <time>2021-04-18T08:15:46Z</time>
      </trkpt>
      <trkpt lat="44.0044" lon="2.23802">
        <ele>354</ele>
        <time>2021-04-18T08:15:47Z</time>
      </trkpt>
      <trkpt lat="44.0044" lon="2.23803">
        <ele>354</ele>
        <time>2021-04-18T08:15:48Z</time>
      </trkpt>
      <trkpt lat="44.0044" lon="2.23803">
        <ele>354</ele>
        <time>2021-04-18T08:15:49Z</time>
      </trkpt>
      <trkpt lat="44.0044" lon="2.23804">
        <ele>354</ele>
        <time>2021-04-18T08:15:50Z</time>
      </trkpt>
      <trkpt lat="44.0044" lon="2.23804">
        <ele>354</ele>
        <time>2021-04-18T08:15:50Z</time>
      </trkpt>
      <trkpt lat="44.0044" lon="2.23804">
        <ele>354</ele>
        <time>2021-04-18T08:15:50Z</time>
      </trkpt>
      <trkpt lat="44.00441" lon="2.23809">
        <ele>353</ele>
        <time>2021-04-18T08:15:55Z</time>
      </trkpt>
      <trkpt lat="44.00442" lon="2.23812">
        <ele>354</ele>
        <time>2021-04-18T08:15:57Z</time>
      </trkpt>
      <trkpt lat="44.00442" lon="2.23812">
        <ele>354</ele>
        <time>2021-04-18T08:15:57Z</time>
      </trkpt>
      <trkpt lat="44.00443" lon="2.23813">
        <ele>354</ele>
        <time>2021-04-18T08:15:58Z</time>
      </trkpt>
      <trkpt lat="44.00444" lon="2.23814">
        <ele>354</ele>
        <time>2021-04-18T08:15:59Z</time>
      </trkpt>
      <trkpt lat="44.00444" lon="2.23815">
        <ele>354</ele>
        <time>2021-04-18T08:16:00Z</time>
      </trkpt>
      <trkpt lat="44.00445" lon="2.23816">
        <ele>354</ele>
        <time>2021-04-18T08:16:01Z</time>
      </trkpt>
      <trkpt lat="44.00445" lon="2.23817">
        <ele>354</ele>
        <time>2021-04-18T08:16:02Z</time>
      </trkpt>
      <trkpt lat="44.00445" lon="2.23817">
        <ele>354</ele>
        <time>2021-04-18T08:16:03Z</time>
      </trkpt>
      <trkpt lat="44.00445" lon="2.23817">
        <ele>354</ele>
        <time>2021-04-18T08:16:04Z</time>
      </trkpt>
      <trkpt lat="44.00445" lon="2.23817">
        <ele>354</ele>
        <time>2021-04-18T08:16:04Z</time>
      </trkpt>
      <trkpt lat="44.00445" lon="2.23817">
        <ele>354</ele>
        <time>2021-04-18T08:16:04Z</time>
      </trkpt>
      <trkpt lat="44.00448" lon="2.23824">
        <ele>355</ele>
        <time>2021-04-18T08:16:10Z</time>
      </trkpt>
      <trkpt lat="44.00449" lon="2.23825">
        <ele>355</ele>
        <time>2021-04-18T08:16:11Z</time>
      </trkpt>
      <trkpt lat="44.00449" lon="2.23826">
        <ele>355</ele>
        <time>2021-04-18T08:16:12Z</time>
      </trkpt>
      <trkpt lat="44.0045" lon="2.23826">
        <ele>355</ele>
        <time>2021-04-18T08:16:13Z</time>
      </trkpt>
      <trkpt lat="44.00451" lon="2.23827">
        <ele>355</ele>
        <time>2021-04-18T08:16:14Z</time>
      </trkpt>
      <trkpt lat="44.00452" lon="2.23828">
        <ele>355</ele>
        <time>2021-04-18T08:16:15Z</time>
      </trkpt>
      <trkpt lat="44.00452" lon="2.23829">
        <ele>355</ele>
        <time>2021-04-18T08:16:16Z</time>
      </trkpt>
      <trkpt lat="44.00453" lon="2.2383">
        <ele>356</ele>
        <time>2021-04-18T08:16:17Z</time>
      </trkpt>
      <trkpt lat="44.00454" lon="2.23831">
        <ele>356</ele>
        <time>2021-04-18T08:16:18Z</time>
      </trkpt>
      <trkpt lat="44.00455" lon="2.23832">
        <ele>356</ele>
        <time>2021-04-18T08:16:19Z</time>
      </trkpt>
      <trkpt lat="44.00455" lon="2.23833">
        <ele>356</ele>
        <time>2021-04-18T08:16:20Z</time>
      </trkpt>
      <trkpt lat="44.00456" lon="2.23834">
        <ele>356</ele>
        <time>2021-04-18T08:16:21Z</time>
      </trkpt>
      <trkpt lat="44.00457" lon="2.23835">
        <ele>357</ele>
        <time>2021-04-18T08:16:22Z</time>
      </trkpt>
      <trkpt lat="44.00457" lon="2.23836">
        <ele>357</ele>
        <time>2021-04-18T08:16:23Z</time>
      </trkpt>
      <trkpt lat="44.00458" lon="2.23836">
        <ele>357</ele>
        <time>2021-04-18T08:16:24Z</time>
      </trkpt>
      <trkpt lat="44.00458" lon="2.23837">
        <ele>358</ele>
        <time>2021-04-18T08:16:25Z</time>
      </trkpt>
      <trkpt lat="44.00459" lon="2.23838">
        <ele>359</ele>
        <time>2021-04-18T08:16:26Z</time>
      </trkpt>
      <trkpt lat="44.0046" lon="2.23839">
        <ele>359</ele>
        <time>2021-04-18T08:16:27Z</time>
      </trkpt>
      <trkpt lat="44.0046" lon="2.2384">
        <ele>359</ele>
        <time>2021-04-18T08:16:28Z</time>
      </trkpt>
      <trkpt lat="44.00462" lon="2.2384">
        <ele>360</ele>
        <time>2021-04-18T08:16:29Z</time>
      </trkpt>
      <trkpt lat="44.00463" lon="2.23841">
        <ele>360</ele>
        <time>2021-04-18T08:16:30Z</time>
      </trkpt>
      <trkpt lat="44.00464" lon="2.23841">
        <ele>360</ele>
        <time>2021-04-18T08:16:31Z</time>
      </trkpt>
      <trkpt lat="44.00464" lon="2.23842">
        <ele>360</ele>
        <time>2021-04-18T08:16:32Z</time>
      </trkpt>
      <trkpt lat="44.00464" lon="2.23843">
        <ele>361</ele>
        <time>2021-04-18T08:16:33Z</time>
      </trkpt>
      <trkpt lat="44.00464" lon="2.23843">
        <ele>361</ele>
        <time>2021-04-18T08:16:34Z</time>
      </trkpt>
      <trkpt lat="44.00465" lon="2.23845">
        <ele>361</ele>
        <time>2021-04-18T08:16:35Z</time>
      </trkpt>
      <trkpt lat="44.00466" lon="2.23846">
        <ele>361</ele>
        <time>2021-04-18T08:16:36Z</time>
      </trkpt>
      <trkpt lat="44.00467" lon="2.23847">
        <ele>361</ele>
        <time>2021-04-18T08:16:37Z</time>
      </trkpt>
      <trkpt lat="44.00468" lon="2.23848">
        <ele>362</ele>
        <time>2021-04-18T08:16:38Z</time>
      </trkpt>
      <trkpt lat="44.00468" lon="2.2385">
        <ele>363</ele>
        <time>2021-04-18T08:16:39Z</time>
      </trkpt>
      <trkpt lat="44.0047" lon="2.23851">
        <ele>363</ele>
        <time>2021-04-18T08:16:40Z</time>
      </trkpt>
      <trkpt lat="44.00471" lon="2.23853">
        <ele>363</ele>
        <time>2021-04-18T08:16:41Z</time>
      </trkpt>
      <trkpt lat="44.00472" lon="2.23854">
        <ele>363</ele>
        <time>2021-04-18T08:16:42Z</time>
      </trkpt>
      <trkpt lat="44.00473" lon="2.23855">
        <ele>364</ele>
        <time>2021-04-18T08:16:43Z</time>
      </trkpt>
      <trkpt lat="44.00474" lon="2.23857">
        <ele>364</ele>
        <time>2021-04-18T08:16:44Z</time>
      </trkpt>
      <trkpt lat="44.00476" lon="2.23858">
        <ele>364</ele>
        <time>2021-04-18T08:16:45Z</time>
      </trkpt>
      <trkpt lat="44.00477" lon="2.23859">
        <ele>364</ele>
        <time>2021-04-18T08:16:46Z</time>
      </trkpt>
      <trkpt lat="44.00478" lon="2.2386">
        <ele>364</ele>
        <time>2021-04-18T08:16:47Z</time>
      </trkpt>
      <trkpt lat="44.00479" lon="2.23861">
        <ele>363</ele>
        <time>2021-04-18T08:16:48Z</time>
      </trkpt>
      <trkpt lat="44.00479" lon="2.23862">
        <ele>363</ele>
        <time>2021-04-18T08:16:49Z</time>
      </trkpt>
      <trkpt lat="44.0048" lon="2.23863">
        <ele>363</ele>
        <time>2021-04-18T08:16:50Z</time>
      </trkpt>
      <trkpt lat="44.0048" lon="2.23864">
        <ele>363</ele>
        <time>2021-04-18T08:16:51Z</time>
      </trkpt>
      <trkpt lat="44.00481" lon="2.23864">
        <ele>363</ele>
        <time>2021-04-18T08:16:52Z</time>
      </trkpt>
      <trkpt lat="44.00482" lon="2.23865">
        <ele>363</ele>
        <time>2021-04-18T08:16:53Z</time>
      </trkpt>
      <trkpt lat="44.00483" lon="2.23865">
        <ele>363</ele>
        <time>2021-04-18T08:16:54Z</time>
      </trkpt>
      <trkpt lat="44.00483" lon="2.23866">
        <ele>363</ele>
        <time>2021-04-18T08:16:55Z</time>
      </trkpt>
      <trkpt lat="44.00485" lon="2.23867">
        <ele>363</ele>
        <time>2021-04-18T08:16:56Z</time>
      </trkpt>
      <trkpt lat="44.00485" lon="2.23868">
        <ele>362</ele>
        <time>2021-04-18T08:16:57Z</time>
      </trkpt>
      <trkpt lat="44.00486" lon="2.23869">
        <ele>362</ele>
        <time>2021-04-18T08:16:58Z</time>
      </trkpt>
      <trkpt lat="44.00488" lon="2.23871">
        <ele>362</ele>
        <time>2021-04-18T08:16:59Z</time>
      </trkpt>
      <trkpt lat="44.00488" lon="2.23872">
        <ele>362</ele>
        <time>2021-04-18T08:17:00Z</time>
      </trkpt>
      <trkpt lat="44.00489" lon="2.23873">
        <ele>362</ele>
        <time>2021-04-18T08:17:01Z</time>
      </trkpt>
      <trkpt lat="44.0049" lon="2.23874">
        <ele>362</ele>
        <time>2021-04-18T08:17:02Z</time>
      </trkpt>
      <trkpt lat="44.00491" lon="2.23875">
        <ele>363</ele>
        <time>2021-04-18T08:17:03Z</time>
      </trkpt>
      <trkpt lat="44.00492" lon="2.23876">
        <ele>363</ele>
        <time>2021-04-18T08:17:04Z</time>
      </trkpt>
      <trkpt lat="44.00493" lon="2.23877">
        <ele>363</ele>
        <time>2021-04-18T08:17:05Z</time>
      </trkpt>
      <trkpt lat="44.00493" lon="2.23879">
        <ele>364</ele>
        <time>2021-04-18T08:17:06Z</time>
      </trkpt>
      <trkpt lat="44.00494" lon="2.2388">
        <ele>364</ele>
        <time>2021-04-18T08:17:07Z</time>
      </trkpt>
      <trkpt lat="44.00495" lon="2.23882">
        <ele>364</ele>
        <time>2021-04-18T08:17:08Z</time>
      </trkpt>
      <trkpt lat="44.00496" lon="2.23883">
        <ele>364</ele>
        <time>2021-04-18T08:17:09Z</time>
      </trkpt>
      <trkpt lat="44.00497" lon="2.23884">
        <ele>365</ele>
        <time>2021-04-18T08:17:10Z</time>
      </trkpt>
      <trkpt lat="44.00498" lon="2.23886">
        <ele>364</ele>
        <time>2021-04-18T08:17:11Z</time>
      </trkpt>
      <trkpt lat="44.00499" lon="2.23887">
        <ele>364</ele>
        <time>2021-04-18T08:17:12Z</time>
      </trkpt>
      <trkpt lat="44.00499" lon="2.23888">
        <ele>364</ele>
        <time>2021-04-18T08:17:13Z</time>
      </trkpt>
      <trkpt lat="44.005" lon="2.23889">
        <ele>364</ele>
        <time>2021-04-18T08:17:14Z</time>
      </trkpt>
      <trkpt lat="44.00501" lon="2.2389">
        <ele>365</ele>
        <time>2021-04-18T08:17:15Z</time>
      </trkpt>
      <trkpt lat="44.00502" lon="2.23891">
        <ele>365</ele>
        <time>2021-04-18T08:17:16Z</time>
      </trkpt>
      <trkpt lat="44.00503" lon="2.23892">
        <ele>365</ele>
        <time>2021-04-18T08:17:17Z</time>
      </trkpt>
      <trkpt lat="44.00504" lon="2.23893">
        <ele>365</ele>
        <time>2021-04-18T08:17:18Z</time>
      </trkpt>
      <trkpt lat="44.00505" lon="2.23894">
        <ele>366</ele>
        <time>2021-04-18T08:17:19Z</time>
      </trkpt>
      <trkpt lat="44.00506" lon="2.23895">
        <ele>366</ele>
        <time>2021-04-18T08:17:20Z</time>
      </trkpt>
      <trkpt lat="44.00507" lon="2.23896">
        <ele>366</ele>
        <time>2021-04-18T08:17:21Z</time>
      </trkpt>
      <trkpt lat="44.00509" lon="2.23897">
        <ele>367</ele>
        <time>2021-04-18T08:17:22Z</time>
      </trkpt>
      <trkpt lat="44.0051" lon="2.23898">
        <ele>366</ele>
        <time>2021-04-18T08:17:23Z</time>
      </trkpt>
      <trkpt lat="44.0051" lon="2.23899">
        <ele>366</ele>
        <time>2021-04-18T08:17:24Z</time>
      </trkpt>
      <trkpt lat="44.00512" lon="2.239">
        <ele>366</ele>
        <time>2021-04-18T08:17:25Z</time>
      </trkpt>
      <trkpt lat="44.00513" lon="2.23902">
        <ele>366</ele>
        <time>2021-04-18T08:17:26Z</time>
      </trkpt>
      <trkpt lat="44.00513" lon="2.23903">
        <ele>367</ele>
        <time>2021-04-18T08:17:27Z</time>
      </trkpt>
      <trkpt lat="44.00514" lon="2.23904">
        <ele>367</ele>
        <time>2021-04-18T08:17:28Z</time>
      </trkpt>
      <trkpt lat="44.00515" lon="2.23905">
        <ele>367</ele>
        <time>2021-04-18T08:17:29Z</time>
      </trkpt>
      <trkpt lat="44.00517" lon="2.23907">
        <ele>367</ele>
        <time>2021-04-18T08:17:30Z</time>
      </trkpt>
      <trkpt lat="44.00519" lon="2.23909">
        <ele>367</ele>
        <time>2021-04-18T08:17:32Z</time>
      </trkpt>
      <trkpt lat="44.00519" lon="2.23909">
        <ele>367</ele>
        <time>2021-04-18T08:17:32Z</time>
      </trkpt>
      <trkpt lat="44.0052" lon="2.2391">
        <ele>367</ele>
        <time>2021-04-18T08:17:33Z</time>
      </trkpt>
      <trkpt lat="44.00521" lon="2.23912">
        <ele>367</ele>
        <time>2021-04-18T08:17:34Z</time>
      </trkpt>
      <trkpt lat="44.00522" lon="2.23913">
        <ele>367</ele>
        <time>2021-04-18T08:17:35Z</time>
      </trkpt>
      <trkpt lat="44.00522" lon="2.23915">
        <ele>367</ele>
        <time>2021-04-18T08:17:36Z</time>
      </trkpt>
      <trkpt lat="44.00523" lon="2.23916">
        <ele>367</ele>
        <time>2021-04-18T08:17:37Z</time>
      </trkpt>
      <trkpt lat="44.00524" lon="2.23918">
        <ele>367</ele>
        <time>2021-04-18T08:17:38Z</time>
      </trkpt>
      <trkpt lat="44.00525" lon="2.23918">
        <ele>368</ele>
        <time>2021-04-18T08:17:39Z</time>
      </trkpt>
      <trkpt lat="44.00526" lon="2.23919">
        <ele>368</ele>
        <time>2021-04-18T08:17:40Z</time>
      </trkpt>
      <trkpt lat="44.00527" lon="2.23921">
        <ele>368</ele>
        <time>2021-04-18T08:17:41Z</time>
      </trkpt>
      <trkpt lat="44.00528" lon="2.23922">
        <ele>368</ele>
        <time>2021-04-18T08:17:42Z</time>
      </trkpt>
      <trkpt lat="44.00529" lon="2.23923">
        <ele>369</ele>
        <time>2021-04-18T08:17:44Z</time>
      </trkpt>
      <trkpt lat="44.00529" lon="2.23923">
        <ele>369</ele>
        <time>2021-04-18T08:17:44Z</time>
      </trkpt>
      <trkpt lat="44.0053" lon="2.23924">
        <ele>369</ele>
        <time>2021-04-18T08:17:45Z</time>
      </trkpt>
      <trkpt lat="44.00531" lon="2.23925">
        <ele>369</ele>
        <time>2021-04-18T08:17:46Z</time>
      </trkpt>
      <trkpt lat="44.00531" lon="2.23926">
        <ele>369</ele>
        <time>2021-04-18T08:17:47Z</time>
      </trkpt>
      <trkpt lat="44.00532" lon="2.23926">
        <ele>370</ele>
        <time>2021-04-18T08:17:48Z</time>
      </trkpt>
      <trkpt lat="44.00534" lon="2.23929">
        <ele>370</ele>
        <time>2021-04-18T08:17:50Z</time>
      </trkpt>
      <trkpt lat="44.00535" lon="2.2393">
        <ele>370</ele>
        <time>2021-04-18T08:17:51Z</time>
      </trkpt>
      <trkpt lat="44.00536" lon="2.23932">
        <ele>370</ele>
        <time>2021-04-18T08:17:52Z</time>
      </trkpt>
      <trkpt lat="44.00536" lon="2.23932">
        <ele>370</ele>
        <time>2021-04-18T08:17:52Z</time>
      </trkpt>
      <trkpt lat="44.00537" lon="2.23935">
        <ele>370</ele>
        <time>2021-04-18T08:17:54Z</time>
      </trkpt>
      <trkpt lat="44.00538" lon="2.23936">
        <ele>370</ele>
        <time>2021-04-18T08:17:55Z</time>
      </trkpt>
      <trkpt lat="44.00539" lon="2.23937">
        <ele>370</ele>
        <time>2021-04-18T08:17:56Z</time>
      </trkpt>
      <trkpt lat="44.0054" lon="2.23938">
        <ele>370</ele>
        <time>2021-04-18T08:17:57Z</time>
      </trkpt>
      <trkpt lat="44.00541" lon="2.2394">
        <ele>370</ele>
        <time>2021-04-18T08:17:58Z</time>
      </trkpt>
      <trkpt lat="44.00541" lon="2.23941">
        <ele>370</ele>
        <time>2021-04-18T08:17:59Z</time>
      </trkpt>
      <trkpt lat="44.00542" lon="2.23942">
        <ele>371</ele>
        <time>2021-04-18T08:18:00Z</time>
      </trkpt>
      <trkpt lat="44.00543" lon="2.23943">
        <ele>371</ele>
        <time>2021-04-18T08:18:01Z</time>
      </trkpt>
      <trkpt lat="44.00544" lon="2.23945">
        <ele>372</ele>
        <time>2021-04-18T08:18:02Z</time>
      </trkpt>
      <trkpt lat="44.00546" lon="2.23947">
        <ele>372</ele>
        <time>2021-04-18T08:18:03Z</time>
      </trkpt>
      <trkpt lat="44.00547" lon="2.23948">
        <ele>372</ele>
        <time>2021-04-18T08:18:04Z</time>
      </trkpt>
      <trkpt lat="44.00548" lon="2.23949">
        <ele>371</ele>
        <time>2021-04-18T08:18:05Z</time>
      </trkpt>
      <trkpt lat="44.00549" lon="2.2395">
        <ele>371</ele>
        <time>2021-04-18T08:18:06Z</time>
      </trkpt>
      <trkpt lat="44.0055" lon="2.23951">
        <ele>372</ele>
        <time>2021-04-18T08:18:07Z</time>
      </trkpt>
      <trkpt lat="44.00551" lon="2.23952">
        <ele>372</ele>
        <time>2021-04-18T08:18:08Z</time>
      </trkpt>
      <trkpt lat="44.00552" lon="2.23953">
        <ele>372</ele>
        <time>2021-04-18T08:18:09Z</time>
      </trkpt>
      <trkpt lat="44.00553" lon="2.23954">
        <ele>372</ele>
        <time>2021-04-18T08:18:10Z</time>
      </trkpt>
      <trkpt lat="44.00554" lon="2.23955">
        <ele>372</ele>
        <time>2021-04-18T08:18:11Z</time>
      </trkpt>
      <trkpt lat="44.00555" lon="2.23956">
        <ele>372</ele>
        <time>2021-04-18T08:18:12Z</time>
      </trkpt>
      <trkpt lat="44.00557" lon="2.23957">
        <ele>372</ele>
        <time>2021-04-18T08:18:13Z</time>
      </trkpt>
      <trkpt lat="44.00558" lon="2.23958">
        <ele>372</ele>
        <time>2021-04-18T08:18:14Z</time>
      </trkpt>
      <trkpt lat="44.00559" lon="2.2396">
        <ele>373</ele>
        <time>2021-04-18T08:18:15Z</time>
      </trkpt>
      <trkpt lat="44.0056" lon="2.23961">
        <ele>373</ele>
        <time>2021-04-18T08:18:16Z</time>
      </trkpt>
      <trkpt lat="44.00561" lon="2.23963">
        <ele>374</ele>
        <time>2021-04-18T08:18:17Z</time>
      </trkpt>
      <trkpt lat="44.00563" lon="2.23964">
        <ele>373</ele>
        <time>2021-04-18T08:18:18Z</time>
      </trkpt>
      <trkpt lat="44.00563" lon="2.23966">
        <ele>374</ele>
        <time>2021-04-18T08:18:19Z</time>
      </trkpt>
      <trkpt lat="44.00565" lon="2.23967">
        <ele>374</ele>
        <time>2021-04-18T08:18:20Z</time>
      </trkpt>
      <trkpt lat="44.00565" lon="2.23968">
        <ele>373</ele>
        <time>2021-04-18T08:18:21Z</time>
      </trkpt>
      <trkpt lat="44.00566" lon="2.23969">
        <ele>373</ele>
        <time>2021-04-18T08:18:22Z</time>
      </trkpt>
      <trkpt lat="44.00567" lon="2.2397">
        <ele>373</ele>
        <time>2021-04-18T08:18:23Z</time>
      </trkpt>
      <trkpt lat="44.00568" lon="2.23972">
        <ele>373</ele>
        <time>2021-04-18T08:18:24Z</time>
      </trkpt>
      <trkpt lat="44.00569" lon="2.23973">
        <ele>373</ele>
        <time>2021-04-18T08:18:25Z</time>
      </trkpt>
      <trkpt lat="44.00569" lon="2.23973">
        <ele>373</ele>
        <time>2021-04-18T08:18:26Z</time>
      </trkpt>
      <trkpt lat="44.0057" lon="2.23974">
        <ele>373</ele>
        <time>2021-04-18T08:18:27Z</time>
      </trkpt>
      <trkpt lat="44.0057" lon="2.23975">
        <ele>373</ele>
        <time>2021-04-18T08:18:28Z</time>
      </trkpt>
      <trkpt lat="44.00571" lon="2.23977">
        <ele>374</ele>
        <time>2021-04-18T08:18:29Z</time>
      </trkpt>
      <trkpt lat="44.00572" lon="2.23978">
        <ele>374</ele>
        <time>2021-04-18T08:18:30Z</time>
      </trkpt>
      <trkpt lat="44.00572" lon="2.23978">
        <ele>374</ele>
        <time>2021-04-18T08:18:30Z</time>
      </trkpt>
      <trkpt lat="44.00574" lon="2.23979">
        <ele>374</ele>
        <time>2021-04-18T08:18:32Z</time>
      </trkpt>
      <trkpt lat="44.00575" lon="2.2398">
        <ele>374</ele>
        <time>2021-04-18T08:18:33Z</time>
      </trkpt>
      <trkpt lat="44.00576" lon="2.23982">
        <ele>374</ele>
        <time>2021-04-18T08:18:34Z</time>
      </trkpt>
      <trkpt lat="44.00578" lon="2.23984">
        <ele>374</ele>
        <time>2021-04-18T08:18:35Z</time>
      </trkpt>
      <trkpt lat="44.00578" lon="2.23985">
        <ele>374</ele>
        <time>2021-04-18T08:18:36Z</time>
      </trkpt>
      <trkpt lat="44.00579" lon="2.23986">
        <ele>374</ele>
        <time>2021-04-18T08:18:37Z</time>
      </trkpt>
      <trkpt lat="44.00579" lon="2.23986">
        <ele>374</ele>
        <time>2021-04-18T08:18:37Z</time>
      </trkpt>
      <trkpt lat="44.00582" lon="2.23988">
        <ele>375</ele>
        <time>2021-04-18T08:18:39Z</time>
      </trkpt>
      <trkpt lat="44.00583" lon="2.2399">
        <ele>375</ele>
        <time>2021-04-18T08:18:40Z</time>
      </trkpt>
      <trkpt lat="44.00584" lon="2.23991">
        <ele>375</ele>
        <time>2021-04-18T08:18:41Z</time>
      </trkpt>
      <trkpt lat="44.00584" lon="2.23992">
        <ele>375</ele>
        <time>2021-04-18T08:18:42Z</time>
      </trkpt>
      <trkpt lat="44.00586" lon="2.23993">
        <ele>375</ele>
        <time>2021-04-18T08:18:43Z</time>
      </trkpt>
      <trkpt lat="44.00586" lon="2.23994">
        <ele>375</ele>
        <time>2021-04-18T08:18:44Z</time>
      </trkpt>
      <trkpt lat="44.00587" lon="2.23995">
        <ele>375</ele>
        <time>2021-04-18T08:18:45Z</time>
      </trkpt>
      <trkpt lat="44.00588" lon="2.23996">
        <ele>375</ele>
        <time>2021-04-18T08:18:46Z</time>
      </trkpt>
      <trkpt lat="44.00588" lon="2.23997">
        <ele>375</ele>
        <time>2021-04-18T08:18:47Z</time>
      </trkpt>
      <trkpt lat="44.00589" lon="2.23999">
        <ele>375</ele>
        <time>2021-04-18T08:18:48Z</time>
      </trkpt>
      <trkpt lat="44.0059" lon="2.24">
        <ele>375</ele>
        <time>2021-04-18T08:18:49Z</time>
      </trkpt>
      <trkpt lat="44.00591" lon="2.24001">
        <ele>375</ele>
        <time>2021-04-18T08:18:50Z</time>
      </trkpt>
      <trkpt lat="44.00592" lon="2.24002">
        <ele>375</ele>
        <time>2021-04-18T08:18:51Z</time>
      </trkpt>
      <trkpt lat="44.00593" lon="2.24003">
        <ele>376</ele>
        <time>2021-04-18T08:18:52Z</time>
      </trkpt>
      <trkpt lat="44.00594" lon="2.24003">
        <ele>375</ele>
        <time>2021-04-18T08:18:53Z</time>
      </trkpt>
      <trkpt lat="44.00595" lon="2.24003">
        <ele>375</ele>
        <time>2021-04-18T08:18:54Z</time>
      </trkpt>
      <trkpt lat="44.00596" lon="2.24004">
        <ele>375</ele>
        <time>2021-04-18T08:18:55Z</time>
      </trkpt>
      <trkpt lat="44.00597" lon="2.24006">
        <ele>375</ele>
        <time>2021-04-18T08:18:56Z</time>
      </trkpt>
      <trkpt lat="44.00598" lon="2.24007">
        <ele>375</ele>
        <time>2021-04-18T08:18:57Z</time>
      </trkpt>
      <trkpt lat="44.00599" lon="2.24007">
        <ele>375</ele>
        <time>2021-04-18T08:18:58Z</time>
      </trkpt>
      <trkpt lat="44.006" lon="2.24009">
        <ele>375</ele>
        <time>2021-04-18T08:18:59Z</time>
      </trkpt>
      <trkpt lat="44.00601" lon="2.2401">
        <ele>375</ele>
        <time>2021-04-18T08:19:00Z</time>
      </trkpt>
      <trkpt lat="44.00602" lon="2.24011">
        <ele>376</ele>
        <time>2021-04-18T08:19:01Z</time>
      </trkpt>
      <trkpt lat="44.00603" lon="2.24012">
        <ele>377</ele>
        <time>2021-04-18T08:19:02Z</time>
      </trkpt>
      <trkpt lat="44.00604" lon="2.24013">
        <ele>377</ele>
        <time>2021-04-18T08:19:03Z</time>
      </trkpt>
      <trkpt lat="44.00605" lon="2.24015">
        <ele>378</ele>
        <time>2021-04-18T08:19:04Z</time>
      </trkpt>
      <trkpt lat="44.00606" lon="2.24016">
        <ele>378</ele>
        <time>2021-04-18T08:19:05Z</time>
      </trkpt>
      <trkpt lat="44.00607" lon="2.24018">
        <ele>378</ele>
        <time>2021-04-18T08:19:06Z</time>
      </trkpt>
      <trkpt lat="44.00608" lon="2.2402">
        <ele>378</ele>
        <time>2021-04-18T08:19:07Z</time>
      </trkpt>
      <trkpt lat="44.00609" lon="2.24022">
        <ele>378</ele>
        <time>2021-04-18T08:19:08Z</time>
      </trkpt>
      <trkpt lat="44.0061" lon="2.24023">
        <ele>378</ele>
        <time>2021-04-18T08:19:09Z</time>
      </trkpt>
      <trkpt lat="44.00611" lon="2.24024">
        <ele>379</ele>
        <time>2021-04-18T08:19:10Z</time>
      </trkpt>
      <trkpt lat="44.00612" lon="2.24025">
        <ele>379</ele>
        <time>2021-04-18T08:19:11Z</time>
      </trkpt>
      <trkpt lat="44.00613" lon="2.24026">
        <ele>380</ele>
        <time>2021-04-18T08:19:12Z</time>
      </trkpt>
      <trkpt lat="44.00614" lon="2.24027">
        <ele>380</ele>
        <time>2021-04-18T08:19:13Z</time>
      </trkpt>
      <trkpt lat="44.00615" lon="2.24029">
        <ele>380</ele>
        <time>2021-04-18T08:19:14Z</time>
      </trkpt>
      <trkpt lat="44.00616" lon="2.2403">
        <ele>380</ele>
        <time>2021-04-18T08:19:15Z</time>
      </trkpt>
      <trkpt lat="44.00617" lon="2.24031">
        <ele>380</ele>
        <time>2021-04-18T08:19:16Z</time>
      </trkpt>
      <trkpt lat="44.00618" lon="2.24032">
        <ele>380</ele>
        <time>2021-04-18T08:19:17Z</time>
      </trkpt>
      <trkpt lat="44.00618" lon="2.24033">
        <ele>380</ele>
        <time>2021-04-18T08:19:18Z</time>
      </trkpt>
      <trkpt lat="44.00619" lon="2.24034">
        <ele>380</ele>
        <time>2021-04-18T08:19:19Z</time>
      </trkpt>
      <trkpt lat="44.00619" lon="2.24034">
        <ele>380</ele>
        <time>2021-04-18T08:19:19Z</time>
      </trkpt>
      <trkpt lat="44.0062" lon="2.24036">
        <ele>380</ele>
        <time>2021-04-18T08:19:21Z</time>
      </trkpt>
      <trkpt lat="44.00621" lon="2.24036">
        <ele>380</ele>
        <time>2021-04-18T08:19:22Z</time>
      </trkpt>
      <trkpt lat="44.00622" lon="2.24037">
        <ele>380</ele>
        <time>2021-04-18T08:19:23Z</time>
      </trkpt>
      <trkpt lat="44.00622" lon="2.24038">
        <ele>380</ele>
        <time>2021-04-18T08:19:24Z</time>
      </trkpt>
      <trkpt lat="44.00623" lon="2.24039">
        <ele>380</ele>
        <time>2021-04-18T08:19:25Z</time>
      </trkpt>
      <trkpt lat="44.00624" lon="2.2404">
        <ele>381</ele>
        <time>2021-04-18T08:19:26Z</time>
      </trkpt>
      <trkpt lat="44.00625" lon="2.2404">
        <ele>381</ele>
        <time>2021-04-18T08:19:27Z</time>
      </trkpt>
      <trkpt lat="44.00626" lon="2.24041">
        <ele>381</ele>
        <time>2021-04-18T08:19:28Z</time>
      </trkpt>
      <trkpt lat="44.00627" lon="2.24042">
        <ele>381</ele>
        <time>2021-04-18T08:19:29Z</time>
      </trkpt>
      <trkpt lat="44.00627" lon="2.24042">
        <ele>381</ele>
        <time>2021-04-18T08:19:29Z</time>
      </trkpt>
      <trkpt lat="44.00629" lon="2.24044">
        <ele>381</ele>
        <time>2021-04-18T08:19:31Z</time>
      </trkpt>
      <trkpt lat="44.00631" lon="2.24045">
        <ele>381</ele>
        <time>2021-04-18T08:19:32Z</time>
      </trkpt>
      <trkpt lat="44.00631" lon="2.24046">
        <ele>381</ele>
        <time>2021-04-18T08:19:33Z</time>
      </trkpt>
      <trkpt lat="44.00632" lon="2.24047">
        <ele>381</ele>
        <time>2021-04-18T08:19:34Z</time>
      </trkpt>
      <trkpt lat="44.00633" lon="2.24048">
        <ele>382</ele>
        <time>2021-04-18T08:19:35Z</time>
      </trkpt>
      <trkpt lat="44.00634" lon="2.24049">
        <ele>382</ele>
        <time>2021-04-18T08:19:36Z</time>
      </trkpt>
      <trkpt lat="44.00635" lon="2.2405">
        <ele>382</ele>
        <time>2021-04-18T08:19:37Z</time>
      </trkpt>
      <trkpt lat="44.00636" lon="2.24051">
        <ele>381</ele>
        <time>2021-04-18T08:19:38Z</time>
      </trkpt>
      <trkpt lat="44.00637" lon="2.24052">
        <ele>381</ele>
        <time>2021-04-18T08:19:39Z</time>
      </trkpt>
      <trkpt lat="44.00637" lon="2.24053">
        <ele>381</ele>
        <time>2021-04-18T08:19:40Z</time>
      </trkpt>
      <trkpt lat="44.00638" lon="2.24054">
        <ele>381</ele>
        <time>2021-04-18T08:19:41Z</time>
      </trkpt>
      <trkpt lat="44.00639" lon="2.24055">
        <ele>381</ele>
        <time>2021-04-18T08:19:42Z</time>
      </trkpt>
      <trkpt lat="44.00639" lon="2.24056">
        <ele>382</ele>
        <time>2021-04-18T08:19:43Z</time>
      </trkpt>
      <trkpt lat="44.0064" lon="2.24058">
        <ele>382</ele>
        <time>2021-04-18T08:19:44Z</time>
      </trkpt>
      <trkpt lat="44.00641" lon="2.24059">
        <ele>382</ele>
        <time>2021-04-18T08:19:45Z</time>
      </trkpt>
      <trkpt lat="44.00642" lon="2.2406">
        <ele>382</ele>
        <time>2021-04-18T08:19:46Z</time>
      </trkpt>
      <trkpt lat="44.00642" lon="2.24061">
        <ele>382</ele>
        <time>2021-04-18T08:19:47Z</time>
      </trkpt>
      <trkpt lat="44.00644" lon="2.24062">
        <ele>383</ele>
        <time>2021-04-18T08:19:48Z</time>
      </trkpt>
      <trkpt lat="44.00644" lon="2.24064">
        <ele>382</ele>
        <time>2021-04-18T08:19:49Z</time>
      </trkpt>
      <trkpt lat="44.00645" lon="2.24065">
        <ele>383</ele>
        <time>2021-04-18T08:19:50Z</time>
      </trkpt>
      <trkpt lat="44.00646" lon="2.24066">
        <ele>382</ele>
        <time>2021-04-18T08:19:51Z</time>
      </trkpt>
      <trkpt lat="44.00647" lon="2.24067">
        <ele>382</ele>
        <time>2021-04-18T08:19:52Z</time>
      </trkpt>
      <trkpt lat="44.00647" lon="2.24069">
        <ele>382</ele>
        <time>2021-04-18T08:19:53Z</time>
      </trkpt>
      <trkpt lat="44.00648" lon="2.2407">
        <ele>382</ele>
        <time>2021-04-18T08:19:54Z</time>
      </trkpt>
      <trkpt lat="44.00649" lon="2.24072">
        <ele>382</ele>
        <time>2021-04-18T08:19:55Z</time>
      </trkpt>
      <trkpt lat="44.00649" lon="2.24074">
        <ele>382</ele>
        <time>2021-04-18T08:19:56Z</time>
      </trkpt>
      <trkpt lat="44.00649" lon="2.24074">
        <ele>382</ele>
        <time>2021-04-18T08:19:56Z</time>
      </trkpt>
      <trkpt lat="44.0065" lon="2.24078">
        <ele>382</ele>
        <time>2021-04-18T08:19:58Z</time>
      </trkpt>
      <trkpt lat="44.0065" lon="2.24079">
        <ele>382</ele>
        <time>2021-04-18T08:19:59Z</time>
      </trkpt>
      <trkpt lat="44.0065" lon="2.2408">
        <ele>382</ele>
        <time>2021-04-18T08:20:00Z</time>
      </trkpt>
      <trkpt lat="44.0065" lon="2.24081">
        <ele>382</ele>
        <time>2021-04-18T08:20:01Z</time>
      </trkpt>
      <trkpt lat="44.0065" lon="2.24083">
        <ele>382</ele>
        <time>2021-04-18T08:20:02Z</time>
      </trkpt>
      <trkpt lat="44.0065" lon="2.24083">
        <ele>382</ele>
        <time>2021-04-18T08:20:03Z</time>
      </trkpt>
      <trkpt lat="44.00651" lon="2.24085">
        <ele>382</ele>
        <time>2021-04-18T08:20:04Z</time>
      </trkpt>
      <trkpt lat="44.00651" lon="2.24087">
        <ele>382</ele>
        <time>2021-04-18T08:20:05Z</time>
      </trkpt>
      <trkpt lat="44.00652" lon="2.24088">
        <ele>382</ele>
        <time>2021-04-18T08:20:06Z</time>
      </trkpt>
      <trkpt lat="44.00652" lon="2.2409">
        <ele>382</ele>
        <time>2021-04-18T08:20:07Z</time>
      </trkpt>
      <trkpt lat="44.00652" lon="2.24091">
        <ele>383</ele>
        <time>2021-04-18T08:20:08Z</time>
      </trkpt>
      <trkpt lat="44.00652" lon="2.24093">
        <ele>384</ele>
        <time>2021-04-18T08:20:09Z</time>
      </trkpt>
      <trkpt lat="44.00652" lon="2.24094">
        <ele>384</ele>
        <time>2021-04-18T08:20:10Z</time>
      </trkpt>
      <trkpt lat="44.00651" lon="2.24096">
        <ele>384</ele>
        <time>2021-04-18T08:20:11Z</time>
      </trkpt>
      <trkpt lat="44.0065" lon="2.24097">
        <ele>384</ele>
        <time>2021-04-18T08:20:12Z</time>
      </trkpt>
      <trkpt lat="44.00649" lon="2.24098">
        <ele>385</ele>
        <time>2021-04-18T08:20:13Z</time>
      </trkpt>
      <trkpt lat="44.00649" lon="2.241">
        <ele>386</ele>
        <time>2021-04-18T08:20:14Z</time>
      </trkpt>
      <trkpt lat="44.00648" lon="2.24101">
        <ele>386</ele>
        <time>2021-04-18T08:20:15Z</time>
      </trkpt>
      <trkpt lat="44.00648" lon="2.24103">
        <ele>386</ele>
        <time>2021-04-18T08:20:16Z</time>
      </trkpt>
      <trkpt lat="44.00648" lon="2.24104">
        <ele>387</ele>
        <time>2021-04-18T08:20:17Z</time>
      </trkpt>
      <trkpt lat="44.00648" lon="2.24105">
        <ele>387</ele>
        <time>2021-04-18T08:20:18Z</time>
      </trkpt>
      <trkpt lat="44.00647" lon="2.24106">
        <ele>388</ele>
        <time>2021-04-18T08:20:19Z</time>
      </trkpt>
      <trkpt lat="44.00647" lon="2.24107">
        <ele>388</ele>
        <time>2021-04-18T08:20:20Z</time>
      </trkpt>
      <trkpt lat="44.00647" lon="2.24108">
        <ele>388</ele>
        <time>2021-04-18T08:20:21Z</time>
      </trkpt>
      <trkpt lat="44.00646" lon="2.24108">
        <ele>387</ele>
        <time>2021-04-18T08:20:22Z</time>
      </trkpt>
      <trkpt lat="44.00645" lon="2.24109">
        <ele>387</ele>
        <time>2021-04-18T08:20:23Z</time>
      </trkpt>
      <trkpt lat="44.00644" lon="2.2411">
        <ele>387</ele>
        <time>2021-04-18T08:20:24Z</time>
      </trkpt>
      <trkpt lat="44.00643" lon="2.2411">
        <ele>387</ele>
        <time>2021-04-18T08:20:25Z</time>
      </trkpt>
      <trkpt lat="44.00642" lon="2.24111">
        <ele>387</ele>
        <time>2021-04-18T08:20:26Z</time>
      </trkpt>
      <trkpt lat="44.00641" lon="2.24111">
        <ele>387</ele>
        <time>2021-04-18T08:20:27Z</time>
      </trkpt>
      <trkpt lat="44.00641" lon="2.24111">
        <ele>387</ele>
        <time>2021-04-18T08:20:28Z</time>
      </trkpt>
      <trkpt lat="44.0064" lon="2.24112">
        <ele>386</ele>
        <time>2021-04-18T08:20:29Z</time>
      </trkpt>
      <trkpt lat="44.00639" lon="2.24113">
        <ele>387</ele>
        <time>2021-04-18T08:20:30Z</time>
      </trkpt>
      <trkpt lat="44.00639" lon="2.24114">
        <ele>388</ele>
        <time>2021-04-18T08:20:31Z</time>
      </trkpt>
      <trkpt lat="44.0064" lon="2.24114">
        <ele>388</ele>
        <time>2021-04-18T08:20:32Z</time>
      </trkpt>
      <trkpt lat="44.0064" lon="2.24114">
        <ele>388</ele>
        <time>2021-04-18T08:20:33Z</time>
      </trkpt>
      <trkpt lat="44.0064" lon="2.24115">
        <ele>388</ele>
        <time>2021-04-18T08:20:34Z</time>
      </trkpt>
      <trkpt lat="44.0064" lon="2.24115">
        <ele>388</ele>
        <time>2021-04-18T08:20:34Z</time>
      </trkpt>
      <trkpt lat="44.0064" lon="2.24115">
        <ele>388</ele>
        <time>2021-04-18T08:20:34Z</time>
      </trkpt>
      <trkpt lat="44.00644" lon="2.24114">
        <ele>388</ele>
        <time>2021-04-18T08:20:49Z</time>
      </trkpt>
      <trkpt lat="44.00645" lon="2.24113">
        <ele>388</ele>
        <time>2021-04-18T08:20:50Z</time>
      </trkpt>
      <trkpt lat="44.00645" lon="2.24113">
        <ele>389</ele>
        <time>2021-04-18T08:20:51Z</time>
      </trkpt>
      <trkpt lat="44.00646" lon="2.24113">
        <ele>389</ele>
        <time>2021-04-18T08:20:52Z</time>
      </trkpt>
      <trkpt lat="44.00648" lon="2.24113">
        <ele>389</ele>
        <time>2021-04-18T08:20:53Z</time>
      </trkpt>
      <trkpt lat="44.00649" lon="2.24115">
        <ele>389</ele>
        <time>2021-04-18T08:20:54Z</time>
      </trkpt>
      <trkpt lat="44.00649" lon="2.24116">
        <ele>389</ele>
        <time>2021-04-18T08:20:55Z</time>
      </trkpt>
      <trkpt lat="44.0065" lon="2.24116">
        <ele>389</ele>
        <time>2021-04-18T08:20:56Z</time>
      </trkpt>
      <trkpt lat="44.0065" lon="2.24115">
        <ele>389</ele>
        <time>2021-04-18T08:20:57Z</time>
      </trkpt>
      <trkpt lat="44.0065" lon="2.24115">
        <ele>389</ele>
        <time>2021-04-18T08:20:58Z</time>
      </trkpt>
      <trkpt lat="44.0065" lon="2.24115">
        <ele>389</ele>
        <time>2021-04-18T08:20:59Z</time>
      </trkpt>
      <trkpt lat="44.0065" lon="2.24115">
        <ele>389</ele>
        <time>2021-04-18T08:20:59Z</time>
      </trkpt>
      <trkpt lat="44.0065" lon="2.24115">
        <ele>389</ele>
        <time>2021-04-18T08:20:59Z</time>
      </trkpt>
      <trkpt lat="44.00644" lon="2.24113">
        <ele>389</ele>
        <time>2021-04-18T08:21:14Z</time>
      </trkpt>
      <trkpt lat="44.00642" lon="2.24113">
        <ele>389</ele>
        <time>2021-04-18T08:21:15Z</time>
      </trkpt>
      <trkpt lat="44.00642" lon="2.24115">
        <ele>389</ele>
        <time>2021-04-18T08:21:16Z</time>
      </trkpt>
      <trkpt lat="44.00641" lon="2.24117">
        <ele>388</ele>
        <time>2021-04-18T08:21:17Z</time>
      </trkpt>
      <trkpt lat="44.00641" lon="2.24118">
        <ele>388</ele>
        <time>2021-04-18T08:21:18Z</time>
      </trkpt>
      <trkpt lat="44.0064" lon="2.2412">
        <ele>388</ele>
        <time>2021-04-18T08:21:19Z</time>
      </trkpt>
      <trkpt lat="44.00639" lon="2.24121">
        <ele>388</ele>
        <time>2021-04-18T08:21:20Z</time>
      </trkpt>
      <trkpt lat="44.00639" lon="2.24123">
        <ele>388</ele>
        <time>2021-04-18T08:21:21Z</time>
      </trkpt>
      <trkpt lat="44.00638" lon="2.24124">
        <ele>389</ele>
        <time>2021-04-18T08:21:22Z</time>
      </trkpt>
      <trkpt lat="44.00638" lon="2.24126">
        <ele>388</ele>
        <time>2021-04-18T08:21:23Z</time>
      </trkpt>
      <trkpt lat="44.00638" lon="2.24128">
        <ele>388</ele>
        <time>2021-04-18T08:21:24Z</time>
      </trkpt>
      <trkpt lat="44.00638" lon="2.24129">
        <ele>388</ele>
        <time>2021-04-18T08:21:25Z</time>
      </trkpt>
      <trkpt lat="44.00638" lon="2.24131">
        <ele>388</ele>
        <time>2021-04-18T08:21:26Z</time>
      </trkpt>
      <trkpt lat="44.00639" lon="2.24133">
        <ele>388</ele>
        <time>2021-04-18T08:21:27Z</time>
      </trkpt>
      <trkpt lat="44.00639" lon="2.24134">
        <ele>387</ele>
        <time>2021-04-18T08:21:28Z</time>
      </trkpt>
      <trkpt lat="44.0064" lon="2.24136">
        <ele>387</ele>
        <time>2021-04-18T08:21:29Z</time>
      </trkpt>
      <trkpt lat="44.0064" lon="2.24138">
        <ele>388</ele>
        <time>2021-04-18T08:21:30Z</time>
      </trkpt>
      <trkpt lat="44.0064" lon="2.2414">
        <ele>387</ele>
        <time>2021-04-18T08:21:31Z</time>
      </trkpt>
      <trkpt lat="44.00641" lon="2.24142">
        <ele>387</ele>
        <time>2021-04-18T08:21:32Z</time>
      </trkpt>
      <trkpt lat="44.00641" lon="2.24144">
        <ele>387</ele>
        <time>2021-04-18T08:21:33Z</time>
      </trkpt>
      <trkpt lat="44.00641" lon="2.24145">
        <ele>387</ele>
        <time>2021-04-18T08:21:34Z</time>
      </trkpt>
      <trkpt lat="44.00641" lon="2.24147">
        <ele>387</ele>
        <time>2021-04-18T08:21:35Z</time>
      </trkpt>
      <trkpt lat="44.00642" lon="2.24149">
        <ele>386</ele>
        <time>2021-04-18T08:21:36Z</time>
      </trkpt>
      <trkpt lat="44.00641" lon="2.2415">
        <ele>386</ele>
        <time>2021-04-18T08:21:37Z</time>
      </trkpt>
      <trkpt lat="44.00641" lon="2.2415">
        <ele>386</ele>
        <time>2021-04-18T08:21:37Z</time>
      </trkpt>
      <trkpt lat="44.00641" lon="2.24154">
        <ele>386</ele>
        <time>2021-04-18T08:21:39Z</time>
      </trkpt>
      <trkpt lat="44.00641" lon="2.24155">
        <ele>386</ele>
        <time>2021-04-18T08:21:40Z</time>
      </trkpt>
      <trkpt lat="44.00641" lon="2.24156">
        <ele>385</ele>
        <time>2021-04-18T08:21:41Z</time>
      </trkpt>
      <trkpt lat="44.00641" lon="2.24157">
        <ele>385</ele>
        <time>2021-04-18T08:21:42Z</time>
      </trkpt>
      <trkpt lat="44.0064" lon="2.24159">
        <ele>385</ele>
        <time>2021-04-18T08:21:43Z</time>
      </trkpt>
      <trkpt lat="44.0064" lon="2.2416">
        <ele>385</ele>
        <time>2021-04-18T08:21:44Z</time>
      </trkpt>
      <trkpt lat="44.0064" lon="2.24162">
        <ele>384</ele>
        <time>2021-04-18T08:21:45Z</time>
      </trkpt>
      <trkpt lat="44.00639" lon="2.24163">
        <ele>384</ele>
        <time>2021-04-18T08:21:46Z</time>
      </trkpt>
      <trkpt lat="44.00639" lon="2.24164">
        <ele>384</ele>
        <time>2021-04-18T08:21:47Z</time>
      </trkpt>
      <trkpt lat="44.00639" lon="2.24165">
        <ele>384</ele>
        <time>2021-04-18T08:21:48Z</time>
      </trkpt>
      <trkpt lat="44.00639" lon="2.24167">
        <ele>384</ele>
        <time>2021-04-18T08:21:49Z</time>
      </trkpt>
      <trkpt lat="44.00639" lon="2.24168">
        <ele>384</ele>
        <time>2021-04-18T08:21:50Z</time>
      </trkpt>
      <trkpt lat="44.00638" lon="2.2417">
        <ele>384</ele>
        <time>2021-04-18T08:21:51Z</time>
      </trkpt>
      <trkpt lat="44.00638" lon="2.2417">
        <ele>384</ele>
        <time>2021-04-18T08:21:52Z</time>
      </trkpt>
      <trkpt lat="44.00639" lon="2.24171">
        <ele>384</ele>
        <time>2021-04-18T08:21:53Z</time>
      </trkpt>
      <trkpt lat="44.00639" lon="2.2417">
        <ele>384</ele>
        <time>2021-04-18T08:21:54Z</time>
      </trkpt>
      <trkpt lat="44.00639" lon="2.2417">
        <ele>384</ele>
        <time>2021-04-18T08:21:55Z</time>
      </trkpt>
      <trkpt lat="44.00639" lon="2.2417">
        <ele>384</ele>
        <time>2021-04-18T08:21:56Z</time>
      </trkpt>
      <trkpt lat="44.00638" lon="2.24171">
        <ele>385</ele>
        <time>2021-04-18T08:21:57Z</time>
      </trkpt>
      <trkpt lat="44.00637" lon="2.24173">
        <ele>385</ele>
        <time>2021-04-18T08:21:58Z</time>
      </trkpt>
      <trkpt lat="44.00637" lon="2.24174">
        <ele>385</ele>
        <time>2021-04-18T08:21:59Z</time>
      </trkpt>
      <trkpt lat="44.00637" lon="2.24174">
        <ele>385</ele>
        <time>2021-04-18T08:21:59Z</time>
      </trkpt>
      <trkpt lat="44.00637" lon="2.24178">
        <ele>384</ele>
        <time>2021-04-18T08:22:01Z</time>
      </trkpt>
      <trkpt lat="44.00637" lon="2.2418">
        <ele>384</ele>
        <time>2021-04-18T08:22:02Z</time>
      </trkpt>
      <trkpt lat="44.00637" lon="2.24182">
        <ele>384</ele>
        <time>2021-04-18T08:22:03Z</time>
      </trkpt>
      <trkpt lat="44.00637" lon="2.24184">
        <ele>384</ele>
        <time>2021-04-18T08:22:04Z</time>
      </trkpt>
      <trkpt lat="44.00637" lon="2.24186">
        <ele>384</ele>
        <time>2021-04-18T08:22:05Z</time>
      </trkpt>
      <trkpt lat="44.00637" lon="2.24187">
        <ele>384</ele>
        <time>2021-04-18T08:22:06Z</time>
      </trkpt>
      <trkpt lat="44.00636" lon="2.24188">
        <ele>384</ele>
        <time>2021-04-18T08:22:07Z</time>
      </trkpt>
      <trkpt lat="44.00636" lon="2.2419">
        <ele>384</ele>
        <time>2021-04-18T08:22:08Z</time>
      </trkpt>
      <trkpt lat="44.00636" lon="2.24191">
        <ele>384</ele>
        <time>2021-04-18T08:22:09Z</time>
      </trkpt>
      <trkpt lat="44.00636" lon="2.24193">
        <ele>384</ele>
        <time>2021-04-18T08:22:10Z</time>
      </trkpt>
      <trkpt lat="44.00637" lon="2.24195">
        <ele>384</ele>
        <time>2021-04-18T08:22:11Z</time>
      </trkpt>
      <trkpt lat="44.00636" lon="2.24196">
        <ele>384</ele>
        <time>2021-04-18T08:22:12Z</time>
      </trkpt>
      <trkpt lat="44.00636" lon="2.24198">
        <ele>384</ele>
        <time>2021-04-18T08:22:13Z</time>
      </trkpt>
      <trkpt lat="44.00636" lon="2.242">
        <ele>384</ele>
        <time>2021-04-18T08:22:14Z</time>
      </trkpt>
      <trkpt lat="44.00635" lon="2.24201">
        <ele>384</ele>
        <time>2021-04-18T08:22:15Z</time>
      </trkpt>
      <trkpt lat="44.00634" lon="2.24202">
        <ele>384</ele>
        <time>2021-04-18T08:22:16Z</time>
      </trkpt>
      <trkpt lat="44.00633" lon="2.24202">
        <ele>384</ele>
        <time>2021-04-18T08:22:17Z</time>
      </trkpt>
      <trkpt lat="44.00632" lon="2.24203">
        <ele>384</ele>
        <time>2021-04-18T08:22:18Z</time>
      </trkpt>
      <trkpt lat="44.00631" lon="2.24203">
        <ele>383</ele>
        <time>2021-04-18T08:22:19Z</time>
      </trkpt>
      <trkpt lat="44.0063" lon="2.24204">
        <ele>384</ele>
        <time>2021-04-18T08:22:20Z</time>
      </trkpt>
      <trkpt lat="44.0063" lon="2.24204">
        <ele>383</ele>
        <time>2021-04-18T08:22:21Z</time>
      </trkpt>
      <trkpt lat="44.0063" lon="2.24204">
        <ele>383</ele>
        <time>2021-04-18T08:22:22Z</time>
      </trkpt>
      <trkpt lat="44.0063" lon="2.24204">
        <ele>383</ele>
        <time>2021-04-18T08:22:23Z</time>
      </trkpt>
      <trkpt lat="44.0063" lon="2.24203">
        <ele>383</ele>
        <time>2021-04-18T08:22:24Z</time>
      </trkpt>
      <trkpt lat="44.00631" lon="2.24202">
        <ele>383</ele>
        <time>2021-04-18T08:22:25Z</time>
      </trkpt>
      <trkpt lat="44.00631" lon="2.242">
        <ele>383</ele>
        <time>2021-04-18T08:22:26Z</time>
      </trkpt>
      <trkpt lat="44.00633" lon="2.24198">
        <ele>383</ele>
        <time>2021-04-18T08:22:27Z</time>
      </trkpt>
      <trkpt lat="44.00633" lon="2.24197">
        <ele>383</ele>
        <time>2021-04-18T08:22:28Z</time>
      </trkpt>
      <trkpt lat="44.00634" lon="2.24195">
        <ele>384</ele>
        <time>2021-04-18T08:22:29Z</time>
      </trkpt>
      <trkpt lat="44.00634" lon="2.24194">
        <ele>384</ele>
        <time>2021-04-18T08:22:30Z</time>
      </trkpt>
      <trkpt lat="44.00634" lon="2.24192">
        <ele>384</ele>
        <time>2021-04-18T08:22:31Z</time>
      </trkpt>
      <trkpt lat="44.00635" lon="2.24191">
        <ele>384</ele>
        <time>2021-04-18T08:22:32Z</time>
      </trkpt>
      <trkpt lat="44.00634" lon="2.24189">
        <ele>384</ele>
        <time>2021-04-18T08:22:33Z</time>
      </trkpt>
      <trkpt lat="44.00635" lon="2.24187">
        <ele>384</ele>
        <time>2021-04-18T08:22:34Z</time>
      </trkpt>
      <trkpt lat="44.00636" lon="2.24187">
        <ele>384</ele>
        <time>2021-04-18T08:22:35Z</time>
      </trkpt>
      <trkpt lat="44.00636" lon="2.24187">
        <ele>384</ele>
        <time>2021-04-18T08:22:35Z</time>
      </trkpt>
      <trkpt lat="44.00636" lon="2.24188">
        <ele>384</ele>
        <time>2021-04-18T08:22:36Z</time>
      </trkpt>
      <trkpt lat="44.00636" lon="2.24188">
        <ele>384</ele>
        <time>2021-04-18T08:22:37Z</time>
      </trkpt>
      <trkpt lat="44.00637" lon="2.24185">
        <ele>383</ele>
        <time>2021-04-18T08:22:39Z</time>
      </trkpt>
      <trkpt lat="44.00637" lon="2.24184">
        <ele>383</ele>
        <time>2021-04-18T08:22:40Z</time>
      </trkpt>
      <trkpt lat="44.00637" lon="2.24184">
        <ele>383</ele>
        <time>2021-04-18T08:22:40Z</time>
      </trkpt>
      <trkpt lat="44.00637" lon="2.24181">
        <ele>383</ele>
        <time>2021-04-18T08:22:42Z</time>
      </trkpt>
      <trkpt lat="44.00637" lon="2.24179">
        <ele>383</ele>
        <time>2021-04-18T08:22:43Z</time>
      </trkpt>
      <trkpt lat="44.00637" lon="2.24177">
        <ele>383</ele>
        <time>2021-04-18T08:22:44Z</time>
      </trkpt>
      <trkpt lat="44.00636" lon="2.24176">
        <ele>383</ele>
        <time>2021-04-18T08:22:45Z</time>
      </trkpt>
      <trkpt lat="44.00637" lon="2.24174">
        <ele>384</ele>
        <time>2021-04-18T08:22:46Z</time>
      </trkpt>
      <trkpt lat="44.00637" lon="2.24172">
        <ele>384</ele>
        <time>2021-04-18T08:22:47Z</time>
      </trkpt>
      <trkpt lat="44.00637" lon="2.24171">
        <ele>383</ele>
        <time>2021-04-18T08:22:48Z</time>
      </trkpt>
      <trkpt lat="44.00638" lon="2.24169">
        <ele>384</ele>
        <time>2021-04-18T08:22:49Z</time>
      </trkpt>
      <trkpt lat="44.00639" lon="2.24167">
        <ele>385</ele>
        <time>2021-04-18T08:22:50Z</time>
      </trkpt>
      <trkpt lat="44.00639" lon="2.24167">
        <ele>385</ele>
        <time>2021-04-18T08:22:50Z</time>
      </trkpt>
      <trkpt lat="44.0064" lon="2.24164">
        <ele>385</ele>
        <time>2021-04-18T08:22:52Z</time>
      </trkpt>
      <trkpt lat="44.00641" lon="2.24162">
        <ele>385</ele>
        <time>2021-04-18T08:22:53Z</time>
      </trkpt>
      <trkpt lat="44.00641" lon="2.24161">
        <ele>385</ele>
        <time>2021-04-18T08:22:54Z</time>
      </trkpt>
      <trkpt lat="44.00641" lon="2.24159">
        <ele>385</ele>
        <time>2021-04-18T08:22:55Z</time>
      </trkpt>
      <trkpt lat="44.00642" lon="2.24157">
        <ele>385</ele>
        <time>2021-04-18T08:22:56Z</time>
      </trkpt>
      <trkpt lat="44.00642" lon="2.24157">
        <ele>385</ele>
        <time>2021-04-18T08:22:56Z</time>
      </trkpt>
      <trkpt lat="44.00642" lon="2.24153">
        <ele>385</ele>
        <time>2021-04-18T08:22:58Z</time>
      </trkpt>
      <trkpt lat="44.00641" lon="2.24152">
        <ele>385</ele>
        <time>2021-04-18T08:22:59Z</time>
      </trkpt>
      <trkpt lat="44.00641" lon="2.24149">
        <ele>385</ele>
        <time>2021-04-18T08:23:00Z</time>
      </trkpt>
      <trkpt lat="44.00641" lon="2.24148">
        <ele>385</ele>
        <time>2021-04-18T08:23:01Z</time>
      </trkpt>
      <trkpt lat="44.00641" lon="2.24146">
        <ele>385</ele>
        <time>2021-04-18T08:23:02Z</time>
      </trkpt>
      <trkpt lat="44.00641" lon="2.24146">
        <ele>385</ele>
        <time>2021-04-18T08:23:02Z</time>
      </trkpt>
      <trkpt lat="44.00641" lon="2.24143">
        <ele>386</ele>
        <time>2021-04-18T08:23:04Z</time>
      </trkpt>
      <trkpt lat="44.00641" lon="2.24141">
        <ele>385</ele>
        <time>2021-04-18T08:23:05Z</time>
      </trkpt>
      <trkpt lat="44.00641" lon="2.24139">
        <ele>385</ele>
        <time>2021-04-18T08:23:06Z</time>
      </trkpt>
      <trkpt lat="44.0064" lon="2.24138">
        <ele>385</ele>
        <time>2021-04-18T08:23:07Z</time>
      </trkpt>
      <trkpt lat="44.0064" lon="2.24136">
        <ele>385</ele>
        <time>2021-04-18T08:23:08Z</time>
      </trkpt>
      <trkpt lat="44.0064" lon="2.24134">
        <ele>385</ele>
        <time>2021-04-18T08:23:09Z</time>
      </trkpt>
      <trkpt lat="44.00639" lon="2.24133">
        <ele>385</ele>
        <time>2021-04-18T08:23:10Z</time>
      </trkpt>
      <trkpt lat="44.00639" lon="2.24131">
        <ele>385</ele>
        <time>2021-04-18T08:23:11Z</time>
      </trkpt>
      <trkpt lat="44.00639" lon="2.24129">
        <ele>385</ele>
        <time>2021-04-18T08:23:12Z</time>
      </trkpt>
      <trkpt lat="44.00639" lon="2.24129">
        <ele>385</ele>
        <time>2021-04-18T08:23:12Z</time>
      </trkpt>
      <trkpt lat="44.00639" lon="2.24125">
        <ele>386</ele>
        <time>2021-04-18T08:23:14Z</time>
      </trkpt>
      <trkpt lat="44.00638" lon="2.24123">
        <ele>386</ele>
        <time>2021-04-18T08:23:15Z</time>
      </trkpt>
      <trkpt lat="44.00639" lon="2.24121">
        <ele>386</ele>
        <time>2021-04-18T08:23:16Z</time>
      </trkpt>
      <trkpt lat="44.00639" lon="2.24119">
        <ele>386</ele>
        <time>2021-04-18T08:23:17Z</time>
      </trkpt>
      <trkpt lat="44.00639" lon="2.24117">
        <ele>386</ele>
        <time>2021-04-18T08:23:18Z</time>
      </trkpt>
      <trkpt lat="44.00639" lon="2.24116">
        <ele>386</ele>
        <time>2021-04-18T08:23:19Z</time>
      </trkpt>
      <trkpt lat="44.00639" lon="2.24114">
        <ele>386</ele>
        <time>2021-04-18T08:23:20Z</time>
      </trkpt>
      <trkpt lat="44.0064" lon="2.24113">
        <ele>387</ele>
        <time>2021-04-18T08:23:21Z</time>
      </trkpt>
      <trkpt lat="44.00641" lon="2.24112">
        <ele>387</ele>
        <time>2021-04-18T08:23:22Z</time>
      </trkpt>
      <trkpt lat="44.00642" lon="2.24111">
        <ele>387</ele>
        <time>2021-04-18T08:23:23Z</time>
      </trkpt>
      <trkpt lat="44.00643" lon="2.24112">
        <ele>387</ele>
        <time>2021-04-18T08:23:24Z</time>
      </trkpt>
      <trkpt lat="44.00644" lon="2.24112">
        <ele>387</ele>
        <time>2021-04-18T08:23:25Z</time>
      </trkpt>
      <trkpt lat="44.00645" lon="2.24112">
        <ele>387</ele>
        <time>2021-04-18T08:23:26Z</time>
      </trkpt>
      <trkpt lat="44.00646" lon="2.24112">
        <ele>387</ele>
        <time>2021-04-18T08:23:27Z</time>
      </trkpt>
      <trkpt lat="44.00647" lon="2.24111">
        <ele>387</ele>
        <time>2021-04-18T08:23:28Z</time>
      </trkpt>
      <trkpt lat="44.00648" lon="2.24111">
        <ele>387</ele>
        <time>2021-04-18T08:23:29Z</time>
      </trkpt>
      <trkpt lat="44.00649" lon="2.24111">
        <ele>386</ele>
        <time>2021-04-18T08:23:30Z</time>
      </trkpt>
      <trkpt lat="44.0065" lon="2.2411">
        <ele>386</ele>
        <time>2021-04-18T08:23:31Z</time>
      </trkpt>
      <trkpt lat="44.0065" lon="2.2411">
        <ele>386</ele>
        <time>2021-04-18T08:23:32Z</time>
      </trkpt>
      <trkpt lat="44.00651" lon="2.24108">
        <ele>385</ele>
        <time>2021-04-18T08:23:33Z</time>
      </trkpt>
      <trkpt lat="44.00652" lon="2.24107">
        <ele>385</ele>
        <time>2021-04-18T08:23:34Z</time>
      </trkpt>
      <trkpt lat="44.00653" lon="2.24107">
        <ele>385</ele>
        <time>2021-04-18T08:23:35Z</time>
      </trkpt>
      <trkpt lat="44.00654" lon="2.24105">
        <ele>385</ele>
        <time>2021-04-18T08:23:36Z</time>
      </trkpt>
      <trkpt lat="44.00654" lon="2.24105">
        <ele>385</ele>
        <time>2021-04-18T08:23:36Z</time>
      </trkpt>
      <trkpt lat="44.00654" lon="2.24104">
        <ele>385</ele>
        <time>2021-04-18T08:23:38Z</time>
      </trkpt>
      <trkpt lat="44.00655" lon="2.24102">
        <ele>384</ele>
        <time>2021-04-18T08:23:39Z</time>
      </trkpt>
      <trkpt lat="44.00657" lon="2.24102">
        <ele>383</ele>
        <time>2021-04-18T08:23:40Z</time>
      </trkpt>
      <trkpt lat="44.00658" lon="2.24101">
        <ele>382</ele>
        <time>2021-04-18T08:23:41Z</time>
      </trkpt>
      <trkpt lat="44.00659" lon="2.241">
        <ele>382</ele>
        <time>2021-04-18T08:23:42Z</time>
      </trkpt>
      <trkpt lat="44.0066" lon="2.241">
        <ele>382</ele>
        <time>2021-04-18T08:23:43Z</time>
      </trkpt>
      <trkpt lat="44.00662" lon="2.241">
        <ele>382</ele>
        <time>2021-04-18T08:23:44Z</time>
      </trkpt>
      <trkpt lat="44.00663" lon="2.241">
        <ele>382</ele>
        <time>2021-04-18T08:23:45Z</time>
      </trkpt>
      <trkpt lat="44.00665" lon="2.241">
        <ele>383</ele>
        <time>2021-04-18T08:23:46Z</time>
      </trkpt>
      <trkpt lat="44.00666" lon="2.241">
        <ele>382</ele>
        <time>2021-04-18T08:23:47Z</time>
      </trkpt>
      <trkpt lat="44.00667" lon="2.241">
        <ele>383</ele>
        <time>2021-04-18T08:23:48Z</time>
      </trkpt>
      <trkpt lat="44.00668" lon="2.24101">
        <ele>382</ele>
        <time>2021-04-18T08:23:49Z</time>
      </trkpt>
      <trkpt lat="44.0067" lon="2.24102">
        <ele>383</ele>
        <time>2021-04-18T08:23:50Z</time>
      </trkpt>
      <trkpt lat="44.00671" lon="2.24102">
        <ele>383</ele>
        <time>2021-04-18T08:23:51Z</time>
      </trkpt>
      <trkpt lat="44.00673" lon="2.24103">
        <ele>384</ele>
        <time>2021-04-18T08:23:52Z</time>
      </trkpt>
      <trkpt lat="44.00674" lon="2.24103">
        <ele>384</ele>
        <time>2021-04-18T08:23:53Z</time>
      </trkpt>
      <trkpt lat="44.00676" lon="2.24103">
        <ele>384</ele>
        <time>2021-04-18T08:23:54Z</time>
      </trkpt>
      <trkpt lat="44.00676" lon="2.24103">
        <ele>384</ele>
        <time>2021-04-18T08:23:54Z</time>
      </trkpt>
      <trkpt lat="44.00678" lon="2.24103">
        <ele>384</ele>
        <time>2021-04-18T08:23:56Z</time>
      </trkpt>
      <trkpt lat="44.0068" lon="2.24103">
        <ele>384</ele>
        <time>2021-04-18T08:23:57Z</time>
      </trkpt>
      <trkpt lat="44.00681" lon="2.24102">
        <ele>384</ele>
        <time>2021-04-18T08:23:58Z</time>
      </trkpt>
      <trkpt lat="44.00682" lon="2.24103">
        <ele>383</ele>
        <time>2021-04-18T08:23:59Z</time>
      </trkpt>
      <trkpt lat="44.00682" lon="2.24103">
        <ele>383</ele>
        <time>2021-04-18T08:23:59Z</time>
      </trkpt>
      <trkpt lat="44.00684" lon="2.24103">
        <ele>383</ele>
        <time>2021-04-18T08:24:01Z</time>
      </trkpt>
      <trkpt lat="44.00685" lon="2.24103">
        <ele>383</ele>
        <time>2021-04-18T08:24:02Z</time>
      </trkpt>
      <trkpt lat="44.00685" lon="2.24103">
        <ele>383</ele>
        <time>2021-04-18T08:24:02Z</time>
      </trkpt>
      <trkpt lat="44.00685" lon="2.24104">
        <ele>383</ele>
        <time>2021-04-18T08:24:03Z</time>
      </trkpt>
      <trkpt lat="44.00686" lon="2.24106">
        <ele>383</ele>
        <time>2021-04-18T08:24:04Z</time>
      </trkpt>
      <trkpt lat="44.00687" lon="2.24107">
        <ele>383</ele>
        <time>2021-04-18T08:24:05Z</time>
      </trkpt>
      <trkpt lat="44.00687" lon="2.24109">
        <ele>383</ele>
        <time>2021-04-18T08:24:06Z</time>
      </trkpt>
      <trkpt lat="44.00688" lon="2.24109">
        <ele>384</ele>
        <time>2021-04-18T08:24:07Z</time>
      </trkpt>
      <trkpt lat="44.00688" lon="2.24111">
        <ele>383</ele>
        <time>2021-04-18T08:24:08Z</time>
      </trkpt>
      <trkpt lat="44.00688" lon="2.24113">
        <ele>383</ele>
        <time>2021-04-18T08:24:09Z</time>
      </trkpt>
      <trkpt lat="44.00689" lon="2.24114">
        <ele>383</ele>
        <time>2021-04-18T08:24:10Z</time>
      </trkpt>
      <trkpt lat="44.00689" lon="2.24115">
        <ele>383</ele>
        <time>2021-04-18T08:24:11Z</time>
      </trkpt>
      <trkpt lat="44.00689" lon="2.24116">
        <ele>383</ele>
        <time>2021-04-18T08:24:12Z</time>
      </trkpt>
      <trkpt lat="44.00689" lon="2.24119">
        <ele>383</ele>
        <time>2021-04-18T08:24:13Z</time>
      </trkpt>
      <trkpt lat="44.00688" lon="2.24122">
        <ele>384</ele>
        <time>2021-04-18T08:24:15Z</time>
      </trkpt>
      <trkpt lat="44.00688" lon="2.24122">
        <ele>384</ele>
        <time>2021-04-18T08:24:15Z</time>
      </trkpt>
      <trkpt lat="44.00688" lon="2.24123">
        <ele>384</ele>
        <time>2021-04-18T08:24:16Z</time>
      </trkpt>
      <trkpt lat="44.00688" lon="2.24124">
        <ele>385</ele>
        <time>2021-04-18T08:24:17Z</time>
      </trkpt>
      <trkpt lat="44.00688" lon="2.24126">
        <ele>386</ele>
        <time>2021-04-18T08:24:18Z</time>
      </trkpt>
      <trkpt lat="44.00688" lon="2.24127">
        <ele>386</ele>
        <time>2021-04-18T08:24:19Z</time>
      </trkpt>
      <trkpt lat="44.00688" lon="2.24128">
        <ele>386</ele>
        <time>2021-04-18T08:24:20Z</time>
      </trkpt>
      <trkpt lat="44.00687" lon="2.2413">
        <ele>386</ele>
        <time>2021-04-18T08:24:21Z</time>
      </trkpt>
      <trkpt lat="44.00687" lon="2.24131">
        <ele>385</ele>
        <time>2021-04-18T08:24:22Z</time>
      </trkpt>
      <trkpt lat="44.00686" lon="2.24133">
        <ele>385</ele>
        <time>2021-04-18T08:24:23Z</time>
      </trkpt>
      <trkpt lat="44.00686" lon="2.24137">
        <ele>386</ele>
        <time>2021-04-18T08:24:25Z</time>
      </trkpt>
      <trkpt lat="44.00686" lon="2.24137">
        <ele>386</ele>
        <time>2021-04-18T08:24:25Z</time>
      </trkpt>
      <trkpt lat="44.00685" lon="2.2414">
        <ele>387</ele>
        <time>2021-04-18T08:24:26Z</time>
      </trkpt>
      <trkpt lat="44.00684" lon="2.24142">
        <ele>386</ele>
        <time>2021-04-18T08:24:27Z</time>
      </trkpt>
      <trkpt lat="44.00684" lon="2.24144">
        <ele>386</ele>
        <time>2021-04-18T08:24:28Z</time>
      </trkpt>
      <trkpt lat="44.00684" lon="2.24146">
        <ele>387</ele>
        <time>2021-04-18T08:24:29Z</time>
      </trkpt>
      <trkpt lat="44.00684" lon="2.24149">
        <ele>387</ele>
        <time>2021-04-18T08:24:30Z</time>
      </trkpt>
      <trkpt lat="44.00684" lon="2.24151">
        <ele>387</ele>
        <time>2021-04-18T08:24:31Z</time>
      </trkpt>
      <trkpt lat="44.00684" lon="2.24153">
        <ele>387</ele>
        <time>2021-04-18T08:24:32Z</time>
      </trkpt>
      <trkpt lat="44.00684" lon="2.24156">
        <ele>388</ele>
        <time>2021-04-18T08:24:33Z</time>
      </trkpt>
      <trkpt lat="44.00684" lon="2.2416">
        <ele>388</ele>
        <time>2021-04-18T08:24:35Z</time>
      </trkpt>
      <trkpt lat="44.00684" lon="2.2416">
        <ele>388</ele>
        <time>2021-04-18T08:24:35Z</time>
      </trkpt>
      <trkpt lat="44.00683" lon="2.24163">
        <ele>389</ele>
        <time>2021-04-18T08:24:36Z</time>
      </trkpt>
      <trkpt lat="44.00683" lon="2.24165">
        <ele>389</ele>
        <time>2021-04-18T08:24:37Z</time>
      </trkpt>
      <trkpt lat="44.00683" lon="2.24167">
        <ele>389</ele>
        <time>2021-04-18T08:24:38Z</time>
      </trkpt>
      <trkpt lat="44.00682" lon="2.24172">
        <ele>389</ele>
        <time>2021-04-18T08:24:40Z</time>
      </trkpt>
      <trkpt lat="44.00682" lon="2.24173">
        <ele>390</ele>
        <time>2021-04-18T08:24:41Z</time>
      </trkpt>
      <trkpt lat="44.00682" lon="2.24173">
        <ele>390</ele>
        <time>2021-04-18T08:24:41Z</time>
      </trkpt>
      <trkpt lat="44.00682" lon="2.24176">
        <ele>390</ele>
        <time>2021-04-18T08:24:42Z</time>
      </trkpt>
      <trkpt lat="44.00682" lon="2.24178">
        <ele>390</ele>
        <time>2021-04-18T08:24:43Z</time>
      </trkpt>
      <trkpt lat="44.00682" lon="2.24179">
        <ele>390</ele>
        <time>2021-04-18T08:24:44Z</time>
      </trkpt>
      <trkpt lat="44.00682" lon="2.24182">
        <ele>390</ele>
        <time>2021-04-18T08:24:45Z</time>
      </trkpt>
      <trkpt lat="44.00682" lon="2.24184">
        <ele>390</ele>
        <time>2021-04-18T08:24:46Z</time>
      </trkpt>
      <trkpt lat="44.00682" lon="2.24186">
        <ele>390</ele>
        <time>2021-04-18T08:24:47Z</time>
      </trkpt>
      <trkpt lat="44.00682" lon="2.24188">
        <ele>390</ele>
        <time>2021-04-18T08:24:48Z</time>
      </trkpt>
      <trkpt lat="44.00682" lon="2.2419">
        <ele>390</ele>
        <time>2021-04-18T08:24:49Z</time>
      </trkpt>
      <trkpt lat="44.00682" lon="2.24192">
        <ele>390</ele>
        <time>2021-04-18T08:24:50Z</time>
      </trkpt>
      <trkpt lat="44.00682" lon="2.24194">
        <ele>390</ele>
        <time>2021-04-18T08:24:51Z</time>
      </trkpt>
      <trkpt lat="44.00682" lon="2.24198">
        <ele>390</ele>
        <time>2021-04-18T08:24:53Z</time>
      </trkpt>
      <trkpt lat="44.00682" lon="2.24198">
        <ele>390</ele>
        <time>2021-04-18T08:24:53Z</time>
      </trkpt>
      <trkpt lat="44.00682" lon="2.24202">
        <ele>389</ele>
        <time>2021-04-18T08:24:55Z</time>
      </trkpt>
      <trkpt lat="44.00682" lon="2.24204">
        <ele>388</ele>
        <time>2021-04-18T08:24:56Z</time>
      </trkpt>
      <trkpt lat="44.00682" lon="2.24204">
        <ele>388</ele>
        <time>2021-04-18T08:24:56Z</time>
      </trkpt>
      <trkpt lat="44.00682" lon="2.24207">
        <ele>387</ele>
        <time>2021-04-18T08:24:58Z</time>
      </trkpt>
      <trkpt lat="44.00682" lon="2.24207">
        <ele>387</ele>
        <time>2021-04-18T08:24:58Z</time>
      </trkpt>
      <trkpt lat="44.00683" lon="2.24211">
        <ele>387</ele>
        <time>2021-04-18T08:25:00Z</time>
      </trkpt>
      <trkpt lat="44.00683" lon="2.24214">
        <ele>387</ele>
        <time>2021-04-18T08:25:01Z</time>
      </trkpt>
      <trkpt lat="44.00683" lon="2.24216">
        <ele>388</ele>
        <time>2021-04-18T08:25:02Z</time>
      </trkpt>
      <trkpt lat="44.00683" lon="2.24218">
        <ele>388</ele>
        <time>2021-04-18T08:25:03Z</time>
      </trkpt>
      <trkpt lat="44.00683" lon="2.2422">
        <ele>388</ele>
        <time>2021-04-18T08:25:04Z</time>
      </trkpt>
      <trkpt lat="44.00683" lon="2.2422">
        <ele>388</ele>
        <time>2021-04-18T08:25:04Z</time>
      </trkpt>
      <trkpt lat="44.00683" lon="2.24222">
        <ele>388</ele>
        <time>2021-04-18T08:25:05Z</time>
      </trkpt>
      <trkpt lat="44.00683" lon="2.24224">
        <ele>388</ele>
        <time>2021-04-18T08:25:06Z</time>
      </trkpt>
      <trkpt lat="44.00683" lon="2.24226">
        <ele>388</ele>
        <time>2021-04-18T08:25:07Z</time>
      </trkpt>
      <trkpt lat="44.00683" lon="2.24228">
        <ele>387</ele>
        <time>2021-04-18T08:25:08Z</time>
      </trkpt>
      <trkpt lat="44.00684" lon="2.2423">
        <ele>387</ele>
        <time>2021-04-18T08:25:09Z</time>
      </trkpt>
      <trkpt lat="44.00684" lon="2.24233">
        <ele>387</ele>
        <time>2021-04-18T08:25:10Z</time>
      </trkpt>
      <trkpt lat="44.00684" lon="2.24235">
        <ele>387</ele>
        <time>2021-04-18T08:25:11Z</time>
      </trkpt>
      <trkpt lat="44.00685" lon="2.2424">
        <ele>387</ele>
        <time>2021-04-18T08:25:13Z</time>
      </trkpt>
      <trkpt lat="44.00685" lon="2.24242">
        <ele>387</ele>
        <time>2021-04-18T08:25:14Z</time>
      </trkpt>
      <trkpt lat="44.00685" lon="2.24242">
        <ele>387</ele>
        <time>2021-04-18T08:25:14Z</time>
      </trkpt>
      <trkpt lat="44.00685" lon="2.24247">
        <ele>387</ele>
        <time>2021-04-18T08:25:16Z</time>
      </trkpt>
      <trkpt lat="44.00685" lon="2.24247">
        <ele>387</ele>
        <time>2021-04-18T08:25:16Z</time>
      </trkpt>
      <trkpt lat="44.00684" lon="2.24251">
        <ele>386</ele>
        <time>2021-04-18T08:25:18Z</time>
      </trkpt>
      <trkpt lat="44.00684" lon="2.24252">
        <ele>387</ele>
        <time>2021-04-18T08:25:19Z</time>
      </trkpt>
      <trkpt lat="44.00683" lon="2.24254">
        <ele>388</ele>
        <time>2021-04-18T08:25:20Z</time>
      </trkpt>
      <trkpt lat="44.00682" lon="2.24256">
        <ele>388</ele>
        <time>2021-04-18T08:25:21Z</time>
      </trkpt>
      <trkpt lat="44.00682" lon="2.24257">
        <ele>388</ele>
        <time>2021-04-18T08:25:22Z</time>
      </trkpt>
      <trkpt lat="44.00682" lon="2.24257">
        <ele>388</ele>
        <time>2021-04-18T08:25:22Z</time>
      </trkpt>
      <trkpt lat="44.00681" lon="2.24261">
        <ele>389</ele>
        <time>2021-04-18T08:25:24Z</time>
      </trkpt>
      <trkpt lat="44.00681" lon="2.24261">
        <ele>389</ele>
        <time>2021-04-18T08:25:24Z</time>
      </trkpt>
      <trkpt lat="44.00681" lon="2.24262">
        <ele>389</ele>
        <time>2021-04-18T08:25:25Z</time>
      </trkpt>
      <trkpt lat="44.00681" lon="2.24265">
        <ele>390</ele>
        <time>2021-04-18T08:25:27Z</time>
      </trkpt>
      <trkpt lat="44.00681" lon="2.24267">
        <ele>390</ele>
        <time>2021-04-18T08:25:28Z</time>
      </trkpt>
      <trkpt lat="44.00681" lon="2.24267">
        <ele>390</ele>
        <time>2021-04-18T08:25:28Z</time>
      </trkpt>
      <trkpt lat="44.0068" lon="2.24272">
        <ele>390</ele>
        <time>2021-04-18T08:25:30Z</time>
      </trkpt>
      <trkpt lat="44.00679" lon="2.24274">
        <ele>390</ele>
        <time>2021-04-18T08:25:31Z</time>
      </trkpt>
      <trkpt lat="44.00679" lon="2.24274">
        <ele>390</ele>
        <time>2021-04-18T08:25:31Z</time>
      </trkpt>
      <trkpt lat="44.00679" lon="2.24278">
        <ele>390</ele>
        <time>2021-04-18T08:25:33Z</time>
      </trkpt>
      <trkpt lat="44.00679" lon="2.24278">
        <ele>390</ele>
        <time>2021-04-18T08:25:33Z</time>
      </trkpt>
      <trkpt lat="44.00679" lon="2.2428">
        <ele>390</ele>
        <time>2021-04-18T08:25:34Z</time>
      </trkpt>
      <trkpt lat="44.00678" lon="2.24285">
        <ele>389</ele>
        <time>2021-04-18T08:25:36Z</time>
      </trkpt>
      <trkpt lat="44.00678" lon="2.24287">
        <ele>389</ele>
        <time>2021-04-18T08:25:37Z</time>
      </trkpt>
      <trkpt lat="44.00677" lon="2.24289">
        <ele>389</ele>
        <time>2021-04-18T08:25:38Z</time>
      </trkpt>
      <trkpt lat="44.00677" lon="2.24289">
        <ele>389</ele>
        <time>2021-04-18T08:25:38Z</time>
      </trkpt>
      <trkpt lat="44.00676" lon="2.24292">
        <ele>389</ele>
        <time>2021-04-18T08:25:40Z</time>
      </trkpt>
      <trkpt lat="44.00676" lon="2.24292">
        <ele>389</ele>
        <time>2021-04-18T08:25:40Z</time>
      </trkpt>
      <trkpt lat="44.00676" lon="2.24294">
        <ele>389</ele>
        <time>2021-04-18T08:25:41Z</time>
      </trkpt>
      <trkpt lat="44.00675" lon="2.24297">
        <ele>389</ele>
        <time>2021-04-18T08:25:42Z</time>
      </trkpt>
      <trkpt lat="44.00674" lon="2.24301">
        <ele>388</ele>
        <time>2021-04-18T08:25:44Z</time>
      </trkpt>
      <trkpt lat="44.00674" lon="2.24301">
        <ele>388</ele>
        <time>2021-04-18T08:25:44Z</time>
      </trkpt>
      <trkpt lat="44.00673" lon="2.24305">
        <ele>388</ele>
        <time>2021-04-18T08:25:46Z</time>
      </trkpt>
      <trkpt lat="44.00673" lon="2.24305">
        <ele>388</ele>
        <time>2021-04-18T08:25:46Z</time>
      </trkpt>
      <trkpt lat="44.00672" lon="2.24307">
        <ele>388</ele>
        <time>2021-04-18T08:25:47Z</time>
      </trkpt>
      <trkpt lat="44.00672" lon="2.24309">
        <ele>389</ele>
        <time>2021-04-18T08:25:48Z</time>
      </trkpt>
      <trkpt lat="44.00671" lon="2.24314">
        <ele>389</ele>
        <time>2021-04-18T08:25:50Z</time>
      </trkpt>
      <trkpt lat="44.00671" lon="2.24316">
        <ele>390</ele>
        <time>2021-04-18T08:25:51Z</time>
      </trkpt>
      <trkpt lat="44.00671" lon="2.24316">
        <ele>390</ele>
        <time>2021-04-18T08:25:51Z</time>
      </trkpt>
      <trkpt lat="44.0067" lon="2.2432">
        <ele>390</ele>
        <time>2021-04-18T08:25:53Z</time>
      </trkpt>
      <trkpt lat="44.0067" lon="2.2432">
        <ele>390</ele>
        <time>2021-04-18T08:25:53Z</time>
      </trkpt>
      <trkpt lat="44.00669" lon="2.24323">
        <ele>389</ele>
        <time>2021-04-18T08:25:54Z</time>
      </trkpt>
      <trkpt lat="44.00667" lon="2.24326">
        <ele>389</ele>
        <time>2021-04-18T08:25:56Z</time>
      </trkpt>
      <trkpt lat="44.00667" lon="2.24328">
        <ele>390</ele>
        <time>2021-04-18T08:25:57Z</time>
      </trkpt>
      <trkpt lat="44.00667" lon="2.24328">
        <ele>390</ele>
        <time>2021-04-18T08:25:57Z</time>
      </trkpt>
      <trkpt lat="44.00665" lon="2.24331">
        <ele>390</ele>
        <time>2021-04-18T08:25:59Z</time>
      </trkpt>
      <trkpt lat="44.00665" lon="2.24331">
        <ele>390</ele>
        <time>2021-04-18T08:25:59Z</time>
      </trkpt>
      <trkpt lat="44.00663" lon="2.24334">
        <ele>391</ele>
        <time>2021-04-18T08:26:01Z</time>
      </trkpt>
      <trkpt lat="44.00662" lon="2.24336">
        <ele>391</ele>
        <time>2021-04-18T08:26:02Z</time>
      </trkpt>
      <trkpt lat="44.00662" lon="2.24336">
        <ele>391</ele>
        <time>2021-04-18T08:26:02Z</time>
      </trkpt>
      <trkpt lat="44.00662" lon="2.24339">
        <ele>391</ele>
        <time>2021-04-18T08:26:04Z</time>
      </trkpt>
      <trkpt lat="44.00662" lon="2.24341">
        <ele>392</ele>
        <time>2021-04-18T08:26:05Z</time>
      </trkpt>
      <trkpt lat="44.00661" lon="2.24343">
        <ele>392</ele>
        <time>2021-04-18T08:26:06Z</time>
      </trkpt>
      <trkpt lat="44.0066" lon="2.24344">
        <ele>393</ele>
        <time>2021-04-18T08:26:07Z</time>
      </trkpt>
      <trkpt lat="44.0066" lon="2.24346">
        <ele>393</ele>
        <time>2021-04-18T08:26:08Z</time>
      </trkpt>
      <trkpt lat="44.00659" lon="2.24348">
        <ele>393</ele>
        <time>2021-04-18T08:26:09Z</time>
      </trkpt>
      <trkpt lat="44.00658" lon="2.24351">
        <ele>393</ele>
        <time>2021-04-18T08:26:10Z</time>
      </trkpt>
      <trkpt lat="44.00657" lon="2.24353">
        <ele>393</ele>
        <time>2021-04-18T08:26:11Z</time>
      </trkpt>
      <trkpt lat="44.00656" lon="2.24354">
        <ele>393</ele>
        <time>2021-04-18T08:26:12Z</time>
      </trkpt>
      <trkpt lat="44.00655" lon="2.24357">
        <ele>393</ele>
        <time>2021-04-18T08:26:13Z</time>
      </trkpt>
      <trkpt lat="44.00655" lon="2.24358">
        <ele>393</ele>
        <time>2021-04-18T08:26:14Z</time>
      </trkpt>
      <trkpt lat="44.00655" lon="2.24358">
        <ele>393</ele>
        <time>2021-04-18T08:26:14Z</time>
      </trkpt>
      <trkpt lat="44.00654" lon="2.24364">
        <ele>394</ele>
        <time>2021-04-18T08:26:16Z</time>
      </trkpt>
      <trkpt lat="44.00654" lon="2.24366">
        <ele>394</ele>
        <time>2021-04-18T08:26:17Z</time>
      </trkpt>
      <trkpt lat="44.00653" lon="2.24368">
        <ele>394</ele>
        <time>2021-04-18T08:26:18Z</time>
      </trkpt>
      <trkpt lat="44.00652" lon="2.2437">
        <ele>394</ele>
        <time>2021-04-18T08:26:19Z</time>
      </trkpt>
      <trkpt lat="44.00652" lon="2.24372">
        <ele>394</ele>
        <time>2021-04-18T08:26:20Z</time>
      </trkpt>
      <trkpt lat="44.00652" lon="2.24372">
        <ele>394</ele>
        <time>2021-04-18T08:26:20Z</time>
      </trkpt>
      <trkpt lat="44.0065" lon="2.24376">
        <ele>394</ele>
        <time>2021-04-18T08:26:22Z</time>
      </trkpt>
      <trkpt lat="44.0065" lon="2.24376">
        <ele>394</ele>
        <time>2021-04-18T08:26:22Z</time>
      </trkpt>
      <trkpt lat="44.00649" lon="2.24381">
        <ele>394</ele>
        <time>2021-04-18T08:26:24Z</time>
      </trkpt>
      <trkpt lat="44.00649" lon="2.24381">
        <ele>394</ele>
        <time>2021-04-18T08:26:24Z</time>
      </trkpt>
      <trkpt lat="44.00648" lon="2.24386">
        <ele>393</ele>
        <time>2021-04-18T08:26:26Z</time>
      </trkpt>
      <trkpt lat="44.00647" lon="2.24388">
        <ele>395</ele>
        <time>2021-04-18T08:26:27Z</time>
      </trkpt>
      <trkpt lat="44.00646" lon="2.2439">
        <ele>395</ele>
        <time>2021-04-18T08:26:28Z</time>
      </trkpt>
      <trkpt lat="44.00646" lon="2.24391">
        <ele>395</ele>
        <time>2021-04-18T08:26:29Z</time>
      </trkpt>
      <trkpt lat="44.00646" lon="2.24391">
        <ele>395</ele>
        <time>2021-04-18T08:26:29Z</time>
      </trkpt>
      <trkpt lat="44.00645" lon="2.24394">
        <ele>395</ele>
        <time>2021-04-18T08:26:30Z</time>
      </trkpt>
      <trkpt lat="44.00644" lon="2.24396">
        <ele>395</ele>
        <time>2021-04-18T08:26:31Z</time>
      </trkpt>
      <trkpt lat="44.00644" lon="2.24397">
        <ele>394</ele>
        <time>2021-04-18T08:26:32Z</time>
      </trkpt>
      <trkpt lat="44.00643" lon="2.24398">
        <ele>394</ele>
        <time>2021-04-18T08:26:33Z</time>
      </trkpt>
      <trkpt lat="44.00642" lon="2.244">
        <ele>395</ele>
        <time>2021-04-18T08:26:34Z</time>
      </trkpt>
      <trkpt lat="44.00642" lon="2.24403">
        <ele>394</ele>
        <time>2021-04-18T08:26:35Z</time>
      </trkpt>
      <trkpt lat="44.00641" lon="2.24407">
        <ele>394</ele>
        <time>2021-04-18T08:26:37Z</time>
      </trkpt>
      <trkpt lat="44.00641" lon="2.24407">
        <ele>394</ele>
        <time>2021-04-18T08:26:37Z</time>
      </trkpt>
      <trkpt lat="44.00641" lon="2.24409">
        <ele>394</ele>
        <time>2021-04-18T08:26:38Z</time>
      </trkpt>
      <trkpt lat="44.00641" lon="2.24411">
        <ele>394</ele>
        <time>2021-04-18T08:26:39Z</time>
      </trkpt>
      <trkpt lat="44.00641" lon="2.24413">
        <ele>394</ele>
        <time>2021-04-18T08:26:40Z</time>
      </trkpt>
      <trkpt lat="44.0064" lon="2.24415">
        <ele>394</ele>
        <time>2021-04-18T08:26:41Z</time>
      </trkpt>
      <trkpt lat="44.0064" lon="2.24417">
        <ele>394</ele>
        <time>2021-04-18T08:26:42Z</time>
      </trkpt>
      <trkpt lat="44.00639" lon="2.24419">
        <ele>395</ele>
        <time>2021-04-18T08:26:43Z</time>
      </trkpt>
      <trkpt lat="44.00639" lon="2.24421">
        <ele>395</ele>
        <time>2021-04-18T08:26:44Z</time>
      </trkpt>
      <trkpt lat="44.00638" lon="2.24423">
        <ele>395</ele>
        <time>2021-04-18T08:26:45Z</time>
      </trkpt>
      <trkpt lat="44.00637" lon="2.24426">
        <ele>395</ele>
        <time>2021-04-18T08:26:47Z</time>
      </trkpt>
      <trkpt lat="44.00637" lon="2.24426">
        <ele>395</ele>
        <time>2021-04-18T08:26:47Z</time>
      </trkpt>
      <trkpt lat="44.00637" lon="2.24428">
        <ele>395</ele>
        <time>2021-04-18T08:26:48Z</time>
      </trkpt>
      <trkpt lat="44.00637" lon="2.2443">
        <ele>394</ele>
        <time>2021-04-18T08:26:49Z</time>
      </trkpt>
      <trkpt lat="44.00635" lon="2.24435">
        <ele>394</ele>
        <time>2021-04-18T08:26:51Z</time>
      </trkpt>
      <trkpt lat="44.00635" lon="2.24435">
        <ele>394</ele>
        <time>2021-04-18T08:26:51Z</time>
      </trkpt>
      <trkpt lat="44.00635" lon="2.2444">
        <ele>393</ele>
        <time>2021-04-18T08:26:53Z</time>
      </trkpt>
      <trkpt lat="44.00635" lon="2.24442">
        <ele>393</ele>
        <time>2021-04-18T08:26:54Z</time>
      </trkpt>
      <trkpt lat="44.00635" lon="2.24443">
        <ele>393</ele>
        <time>2021-04-18T08:26:55Z</time>
      </trkpt>
      <trkpt lat="44.00635" lon="2.24443">
        <ele>393</ele>
        <time>2021-04-18T08:26:55Z</time>
      </trkpt>
      <trkpt lat="44.00634" lon="2.24442">
        <ele>392</ele>
        <time>2021-04-18T08:26:57Z</time>
      </trkpt>
      <trkpt lat="44.00634" lon="2.24442">
        <ele>392</ele>
        <time>2021-04-18T08:26:58Z</time>
      </trkpt>
      <trkpt lat="44.00634" lon="2.24442">
        <ele>392</ele>
        <time>2021-04-18T08:26:59Z</time>
      </trkpt>
      <trkpt lat="44.00634" lon="2.24442">
        <ele>392</ele>
        <time>2021-04-18T08:26:59Z</time>
      </trkpt>
      <trkpt lat="44.00634" lon="2.24442">
        <ele>392</ele>
        <time>2021-04-18T08:26:59Z</time>
      </trkpt>
      <trkpt lat="44.00634" lon="2.24442">
        <ele>392</ele>
        <time>2021-04-18T08:26:59Z</time>
      </trkpt>
      <trkpt lat="44.00633" lon="2.24448">
        <ele>391</ele>
        <time>2021-04-18T08:27:27Z</time>
      </trkpt>
      <trkpt lat="44.00633" lon="2.2445">
        <ele>390</ele>
        <time>2021-04-18T08:27:28Z</time>
      </trkpt>
      <trkpt lat="44.00633" lon="2.2445">
        <ele>390</ele>
        <time>2021-04-18T08:27:29Z</time>
      </trkpt>
      <trkpt lat="44.00633" lon="2.2445">
        <ele>390</ele>
        <time>2021-04-18T08:27:29Z</time>
      </trkpt>
      <trkpt lat="44.00633" lon="2.2445">
        <ele>390</ele>
        <time>2021-04-18T08:27:30Z</time>
      </trkpt>
      <trkpt lat="44.00633" lon="2.2445">
        <ele>390</ele>
        <time>2021-04-18T08:27:30Z</time>
      </trkpt>
      <trkpt lat="44.00632" lon="2.24458">
        <ele>390</ele>
        <time>2021-04-18T08:27:49Z</time>
      </trkpt>
      <trkpt lat="44.00632" lon="2.24458">
        <ele>390</ele>
        <time>2021-04-18T08:27:49Z</time>
      </trkpt>
      <trkpt lat="44.00631" lon="2.2446">
        <ele>390</ele>
        <time>2021-04-18T08:27:50Z</time>
      </trkpt>
      <trkpt lat="44.00631" lon="2.24464">
        <ele>391</ele>
        <time>2021-04-18T08:27:52Z</time>
      </trkpt>
      <trkpt lat="44.00631" lon="2.24464">
        <ele>391</ele>
        <time>2021-04-18T08:27:52Z</time>
      </trkpt>
      <trkpt lat="44.0063" lon="2.24466">
        <ele>391</ele>
        <time>2021-04-18T08:27:53Z</time>
      </trkpt>
      <trkpt lat="44.00629" lon="2.24472">
        <ele>391</ele>
        <time>2021-04-18T08:27:55Z</time>
      </trkpt>
      <trkpt lat="44.00629" lon="2.24472">
        <ele>391</ele>
        <time>2021-04-18T08:27:55Z</time>
      </trkpt>
      <trkpt lat="44.00629" lon="2.24477">
        <ele>392</ele>
        <time>2021-04-18T08:27:57Z</time>
      </trkpt>
      <trkpt lat="44.00629" lon="2.24477">
        <ele>392</ele>
        <time>2021-04-18T08:27:57Z</time>
      </trkpt>
      <trkpt lat="44.00629" lon="2.24479">
        <ele>392</ele>
        <time>2021-04-18T08:27:58Z</time>
      </trkpt>
      <trkpt lat="44.00628" lon="2.24483">
        <ele>392</ele>
        <time>2021-04-18T08:28:00Z</time>
      </trkpt>
      <trkpt lat="44.00628" lon="2.24483">
        <ele>392</ele>
        <time>2021-04-18T08:28:00Z</time>
      </trkpt>
      <trkpt lat="44.00628" lon="2.24487">
        <ele>392</ele>
        <time>2021-04-18T08:28:02Z</time>
      </trkpt>
      <trkpt lat="44.00627" lon="2.24489">
        <ele>393</ele>
        <time>2021-04-18T08:28:03Z</time>
      </trkpt>
      <trkpt lat="44.00627" lon="2.24491">
        <ele>393</ele>
        <time>2021-04-18T08:28:04Z</time>
      </trkpt>
      <trkpt lat="44.00627" lon="2.24491">
        <ele>393</ele>
        <time>2021-04-18T08:28:04Z</time>
      </trkpt>
      <trkpt lat="44.00626" lon="2.24496">
        <ele>393</ele>
        <time>2021-04-18T08:28:06Z</time>
      </trkpt>
      <trkpt lat="44.00626" lon="2.24498">
        <ele>392</ele>
        <time>2021-04-18T08:28:07Z</time>
      </trkpt>
      <trkpt lat="44.00626" lon="2.245">
        <ele>393</ele>
        <time>2021-04-18T08:28:08Z</time>
      </trkpt>
      <trkpt lat="44.00625" lon="2.24502">
        <ele>393</ele>
        <time>2021-04-18T08:28:09Z</time>
      </trkpt>
      <trkpt lat="44.00625" lon="2.24502">
        <ele>393</ele>
        <time>2021-04-18T08:28:09Z</time>
      </trkpt>
      <trkpt lat="44.00625" lon="2.24506">
        <ele>394</ele>
        <time>2021-04-18T08:28:11Z</time>
      </trkpt>
      <trkpt lat="44.00625" lon="2.24508">
        <ele>394</ele>
        <time>2021-04-18T08:28:12Z</time>
      </trkpt>
      <trkpt lat="44.00625" lon="2.2451">
        <ele>393</ele>
        <time>2021-04-18T08:28:13Z</time>
      </trkpt>
      <trkpt lat="44.00624" lon="2.24512">
        <ele>393</ele>
        <time>2021-04-18T08:28:14Z</time>
      </trkpt>
      <trkpt lat="44.00623" lon="2.24514">
        <ele>393</ele>
        <time>2021-04-18T08:28:15Z</time>
      </trkpt>
      <trkpt lat="44.00623" lon="2.24516">
        <ele>393</ele>
        <time>2021-04-18T08:28:16Z</time>
      </trkpt>
      <trkpt lat="44.00623" lon="2.24518">
        <ele>393</ele>
        <time>2021-04-18T08:28:17Z</time>
      </trkpt>
      <trkpt lat="44.00623" lon="2.2452">
        <ele>393</ele>
        <time>2021-04-18T08:28:18Z</time>
      </trkpt>
      <trkpt lat="44.00622" lon="2.24522">
        <ele>393</ele>
        <time>2021-04-18T08:28:19Z</time>
      </trkpt>
      <trkpt lat="44.00622" lon="2.24524">
        <ele>393</ele>
        <time>2021-04-18T08:28:20Z</time>
      </trkpt>
      <trkpt lat="44.00621" lon="2.24526">
        <ele>393</ele>
        <time>2021-04-18T08:28:21Z</time>
      </trkpt>
      <trkpt lat="44.00621" lon="2.24528">
        <ele>393</ele>
        <time>2021-04-18T08:28:22Z</time>
      </trkpt>
      <trkpt lat="44.00621" lon="2.2453">
        <ele>393</ele>
        <time>2021-04-18T08:28:23Z</time>
      </trkpt>
      <trkpt lat="44.00621" lon="2.24532">
        <ele>394</ele>
        <time>2021-04-18T08:28:24Z</time>
      </trkpt>
      <trkpt lat="44.0062" lon="2.24534">
        <ele>393</ele>
        <time>2021-04-18T08:28:25Z</time>
      </trkpt>
      <trkpt lat="44.0062" lon="2.24537">
        <ele>393</ele>
        <time>2021-04-18T08:28:26Z</time>
      </trkpt>
      <trkpt lat="44.0062" lon="2.24539">
        <ele>394</ele>
        <time>2021-04-18T08:28:27Z</time>
      </trkpt>
      <trkpt lat="44.0062" lon="2.24541">
        <ele>394</ele>
        <time>2021-04-18T08:28:28Z</time>
      </trkpt>
      <trkpt lat="44.0062" lon="2.24543">
        <ele>394</ele>
        <time>2021-04-18T08:28:29Z</time>
      </trkpt>
      <trkpt lat="44.0062" lon="2.24545">
        <ele>394</ele>
        <time>2021-04-18T08:28:30Z</time>
      </trkpt>
      <trkpt lat="44.0062" lon="2.24547">
        <ele>394</ele>
        <time>2021-04-18T08:28:31Z</time>
      </trkpt>
      <trkpt lat="44.0062" lon="2.24547">
        <ele>394</ele>
        <time>2021-04-18T08:28:31Z</time>
      </trkpt>
      <trkpt lat="44.0062" lon="2.24552">
        <ele>394</ele>
        <time>2021-04-18T08:28:33Z</time>
      </trkpt>
      <trkpt lat="44.0062" lon="2.24552">
        <ele>394</ele>
        <time>2021-04-18T08:28:33Z</time>
      </trkpt>
      <trkpt lat="44.0062" lon="2.24556">
        <ele>394</ele>
        <time>2021-04-18T08:28:35Z</time>
      </trkpt>
      <trkpt lat="44.0062" lon="2.24558">
        <ele>394</ele>
        <time>2021-04-18T08:28:36Z</time>
      </trkpt>
      <trkpt lat="44.0062" lon="2.24558">
        <ele>394</ele>
        <time>2021-04-18T08:28:36Z</time>
      </trkpt>
      <trkpt lat="44.0062" lon="2.24562">
        <ele>394</ele>
        <time>2021-04-18T08:28:38Z</time>
      </trkpt>
      <trkpt lat="44.0062" lon="2.24565">
        <ele>394</ele>
        <time>2021-04-18T08:28:39Z</time>
      </trkpt>
      <trkpt lat="44.0062" lon="2.24567">
        <ele>394</ele>
        <time>2021-04-18T08:28:40Z</time>
      </trkpt>
      <trkpt lat="44.0062" lon="2.24569">
        <ele>393</ele>
        <time>2021-04-18T08:28:41Z</time>
      </trkpt>
      <trkpt lat="44.0062" lon="2.24569">
        <ele>393</ele>
        <time>2021-04-18T08:28:41Z</time>
      </trkpt>
      <trkpt lat="44.0062" lon="2.24573">
        <ele>394</ele>
        <time>2021-04-18T08:28:43Z</time>
      </trkpt>
      <trkpt lat="44.0062" lon="2.24576">
        <ele>394</ele>
        <time>2021-04-18T08:28:44Z</time>
      </trkpt>
      <trkpt lat="44.0062" lon="2.24578">
        <ele>394</ele>
        <time>2021-04-18T08:28:45Z</time>
      </trkpt>
      <trkpt lat="44.0062" lon="2.2458">
        <ele>394</ele>
        <time>2021-04-18T08:28:46Z</time>
      </trkpt>
      <trkpt lat="44.0062" lon="2.24582">
        <ele>394</ele>
        <time>2021-04-18T08:28:47Z</time>
      </trkpt>
      <trkpt lat="44.0062" lon="2.24582">
        <ele>394</ele>
        <time>2021-04-18T08:28:47Z</time>
      </trkpt>
      <trkpt lat="44.0062" lon="2.24585">
        <ele>394</ele>
        <time>2021-04-18T08:28:48Z</time>
      </trkpt>
      <trkpt lat="44.0062" lon="2.24587">
        <ele>394</ele>
        <time>2021-04-18T08:28:49Z</time>
      </trkpt>
      <trkpt lat="44.0062" lon="2.24589">
        <ele>394</ele>
        <time>2021-04-18T08:28:50Z</time>
      </trkpt>
      <trkpt lat="44.0062" lon="2.24593">
        <ele>395</ele>
        <time>2021-04-18T08:28:52Z</time>
      </trkpt>
      <trkpt lat="44.00621" lon="2.24594">
        <ele>395</ele>
        <time>2021-04-18T08:28:53Z</time>
      </trkpt>
      <trkpt lat="44.00621" lon="2.24595">
        <ele>395</ele>
        <time>2021-04-18T08:28:54Z</time>
      </trkpt>
      <trkpt lat="44.00622" lon="2.24597">
        <ele>395</ele>
        <time>2021-04-18T08:28:55Z</time>
      </trkpt>
      <trkpt lat="44.00621" lon="2.24598">
        <ele>396</ele>
        <time>2021-04-18T08:28:56Z</time>
      </trkpt>
      <trkpt lat="44.00621" lon="2.24598">
        <ele>396</ele>
        <time>2021-04-18T08:28:56Z</time>
      </trkpt>
      <trkpt lat="44.0062" lon="2.24602">
        <ele>395</ele>
        <time>2021-04-18T08:28:58Z</time>
      </trkpt>
      <trkpt lat="44.0062" lon="2.24602">
        <ele>395</ele>
        <time>2021-04-18T08:28:58Z</time>
      </trkpt>
      <trkpt lat="44.0062" lon="2.24606">
        <ele>395</ele>
        <time>2021-04-18T08:29:00Z</time>
      </trkpt>
      <trkpt lat="44.0062" lon="2.24608">
        <ele>396</ele>
        <time>2021-04-18T08:29:01Z</time>
      </trkpt>
      <trkpt lat="44.0062" lon="2.2461">
        <ele>396</ele>
        <time>2021-04-18T08:29:02Z</time>
      </trkpt>
      <trkpt lat="44.0062" lon="2.24612">
        <ele>396</ele>
        <time>2021-04-18T08:29:03Z</time>
      </trkpt>
      <trkpt lat="44.0062" lon="2.24612">
        <ele>396</ele>
        <time>2021-04-18T08:29:03Z</time>
      </trkpt>
      <trkpt lat="44.0062" lon="2.24614">
        <ele>396</ele>
        <time>2021-04-18T08:29:04Z</time>
      </trkpt>
      <trkpt lat="44.0062" lon="2.24616">
        <ele>395</ele>
        <time>2021-04-18T08:29:05Z</time>
      </trkpt>
      <trkpt lat="44.00619" lon="2.24621">
        <ele>396</ele>
        <time>2021-04-18T08:29:07Z</time>
      </trkpt>
      <trkpt lat="44.00619" lon="2.24621">
        <ele>396</ele>
        <time>2021-04-18T08:29:07Z</time>
      </trkpt>
      <trkpt lat="44.00619" lon="2.24623">
        <ele>396</ele>
        <time>2021-04-18T08:29:08Z</time>
      </trkpt>
      <trkpt lat="44.0062" lon="2.24627">
        <ele>396</ele>
        <time>2021-04-18T08:29:10Z</time>
      </trkpt>
      <trkpt lat="44.0062" lon="2.24627">
        <ele>396</ele>
        <time>2021-04-18T08:29:10Z</time>
      </trkpt>
      <trkpt lat="44.0062" lon="2.2463">
        <ele>396</ele>
        <time>2021-04-18T08:29:11Z</time>
      </trkpt>
      <trkpt lat="44.0062" lon="2.24632">
        <ele>396</ele>
        <time>2021-04-18T08:29:12Z</time>
      </trkpt>
      <trkpt lat="44.00619" lon="2.24634">
        <ele>395</ele>
        <time>2021-04-18T08:29:13Z</time>
      </trkpt>
      <trkpt lat="44.00619" lon="2.24637">
        <ele>396</ele>
        <time>2021-04-18T08:29:14Z</time>
      </trkpt>
      <trkpt lat="44.00619" lon="2.24639">
        <ele>396</ele>
        <time>2021-04-18T08:29:15Z</time>
      </trkpt>
      <trkpt lat="44.00619" lon="2.24641">
        <ele>396</ele>
        <time>2021-04-18T08:29:16Z</time>
      </trkpt>
      <trkpt lat="44.00619" lon="2.24642">
        <ele>396</ele>
        <time>2021-04-18T08:29:17Z</time>
      </trkpt>
      <trkpt lat="44.00618" lon="2.24644">
        <ele>396</ele>
        <time>2021-04-18T08:29:18Z</time>
      </trkpt>
      <trkpt lat="44.00618" lon="2.24647">
        <ele>396</ele>
        <time>2021-04-18T08:29:19Z</time>
      </trkpt>
      <trkpt lat="44.00618" lon="2.24649">
        <ele>396</ele>
        <time>2021-04-18T08:29:20Z</time>
      </trkpt>
      <trkpt lat="44.00618" lon="2.24652">
        <ele>396</ele>
        <time>2021-04-18T08:29:21Z</time>
      </trkpt>
      <trkpt lat="44.00618" lon="2.24654">
        <ele>395</ele>
        <time>2021-04-18T08:29:22Z</time>
      </trkpt>
      <trkpt lat="44.00618" lon="2.24656">
        <ele>395</ele>
        <time>2021-04-18T08:29:23Z</time>
      </trkpt>
      <trkpt lat="44.00618" lon="2.24659">
        <ele>396</ele>
        <time>2021-04-18T08:29:24Z</time>
      </trkpt>
      <trkpt lat="44.00618" lon="2.24661">
        <ele>396</ele>
        <time>2021-04-18T08:29:25Z</time>
      </trkpt>
      <trkpt lat="44.00618" lon="2.24663">
        <ele>396</ele>
        <time>2021-04-18T08:29:26Z</time>
      </trkpt>
      <trkpt lat="44.00618" lon="2.24665">
        <ele>396</ele>
        <time>2021-04-18T08:29:27Z</time>
      </trkpt>
      <trkpt lat="44.00618" lon="2.24667">
        <ele>396</ele>
        <time>2021-04-18T08:29:28Z</time>
      </trkpt>
      <trkpt lat="44.00618" lon="2.24669">
        <ele>396</ele>
        <time>2021-04-18T08:29:29Z</time>
      </trkpt>
      <trkpt lat="44.00618" lon="2.2467">
        <ele>396</ele>
        <time>2021-04-18T08:29:30Z</time>
      </trkpt>
      <trkpt lat="44.00617" lon="2.24672">
        <ele>396</ele>
        <time>2021-04-18T08:29:31Z</time>
      </trkpt>
      <trkpt lat="44.00618" lon="2.24675">
        <ele>397</ele>
        <time>2021-04-18T08:29:33Z</time>
      </trkpt>
      <trkpt lat="44.00618" lon="2.24675">
        <ele>397</ele>
        <time>2021-04-18T08:29:33Z</time>
      </trkpt>
      <trkpt lat="44.00618" lon="2.24677">
        <ele>397</ele>
        <time>2021-04-18T08:29:34Z</time>
      </trkpt>
      <trkpt lat="44.00616" lon="2.2468">
        <ele>397</ele>
        <time>2021-04-18T08:29:36Z</time>
      </trkpt>
      <trkpt lat="44.00616" lon="2.2468">
        <ele>397</ele>
        <time>2021-04-18T08:29:36Z</time>
      </trkpt>
      <trkpt lat="44.00613" lon="2.24683">
        <ele>398</ele>
        <time>2021-04-18T08:29:38Z</time>
      </trkpt>
      <trkpt lat="44.00612" lon="2.24685">
        <ele>399</ele>
        <time>2021-04-18T08:29:39Z</time>
      </trkpt>
      <trkpt lat="44.00612" lon="2.24685">
        <ele>399</ele>
        <time>2021-04-18T08:29:39Z</time>
      </trkpt>
      <trkpt lat="44.00609" lon="2.24687">
        <ele>399</ele>
        <time>2021-04-18T08:29:41Z</time>
      </trkpt>
      <trkpt lat="44.00609" lon="2.24687">
        <ele>399</ele>
        <time>2021-04-18T08:29:41Z</time>
      </trkpt>
      <trkpt lat="44.00607" lon="2.24689">
        <ele>398</ele>
        <time>2021-04-18T08:29:43Z</time>
      </trkpt>
      <trkpt lat="44.00606" lon="2.24691">
        <ele>398</ele>
        <time>2021-04-18T08:29:44Z</time>
      </trkpt>
      <trkpt lat="44.00604" lon="2.24692">
        <ele>398</ele>
        <time>2021-04-18T08:29:45Z</time>
      </trkpt>
      <trkpt lat="44.00604" lon="2.24692">
        <ele>398</ele>
        <time>2021-04-18T08:29:45Z</time>
      </trkpt>
      <trkpt lat="44.00603" lon="2.24694">
        <ele>398</ele>
        <time>2021-04-18T08:29:46Z</time>
      </trkpt>
      <trkpt lat="44.00602" lon="2.24695">
        <ele>398</ele>
        <time>2021-04-18T08:29:47Z</time>
      </trkpt>
      <trkpt lat="44.006" lon="2.24696">
        <ele>399</ele>
        <time>2021-04-18T08:29:48Z</time>
      </trkpt>
      <trkpt lat="44.00598" lon="2.24698">
        <ele>398</ele>
        <time>2021-04-18T08:29:50Z</time>
      </trkpt>
      <trkpt lat="44.00598" lon="2.24698">
        <ele>398</ele>
        <time>2021-04-18T08:29:50Z</time>
      </trkpt>
      <trkpt lat="44.00597" lon="2.24699">
        <ele>398</ele>
        <time>2021-04-18T08:29:51Z</time>
      </trkpt>
      <trkpt lat="44.00595" lon="2.247">
        <ele>398</ele>
        <time>2021-04-18T08:29:52Z</time>
      </trkpt>
      <trkpt lat="44.00594" lon="2.24701">
        <ele>398</ele>
        <time>2021-04-18T08:29:53Z</time>
      </trkpt>
      <trkpt lat="44.00592" lon="2.24703">
        <ele>397</ele>
        <time>2021-04-18T08:29:54Z</time>
      </trkpt>
      <trkpt lat="44.00591" lon="2.24703">
        <ele>397</ele>
        <time>2021-04-18T08:29:55Z</time>
      </trkpt>
      <trkpt lat="44.00589" lon="2.24704">
        <ele>397</ele>
        <time>2021-04-18T08:29:56Z</time>
      </trkpt>
      <trkpt lat="44.00586" lon="2.24706">
        <ele>397</ele>
        <time>2021-04-18T08:29:58Z</time>
      </trkpt>
      <trkpt lat="44.00586" lon="2.24706">
        <ele>397</ele>
        <time>2021-04-18T08:29:58Z</time>
      </trkpt>
      <trkpt lat="44.00584" lon="2.24707">
        <ele>397</ele>
        <time>2021-04-18T08:29:59Z</time>
      </trkpt>
      <trkpt lat="44.0058" lon="2.24709">
        <ele>396</ele>
        <time>2021-04-18T08:30:00Z</time>
      </trkpt>
      <trkpt lat="44.0058" lon="2.24709">
        <ele>396</ele>
        <time>2021-04-18T08:30:00Z</time>
      </trkpt>
      <trkpt lat="44.00579" lon="2.2471">
        <ele>396</ele>
        <time>2021-04-18T08:30:02Z</time>
      </trkpt>
      <trkpt lat="44.00576" lon="2.24711">
        <ele>396</ele>
        <time>2021-04-18T08:30:04Z</time>
      </trkpt>
      <trkpt lat="44.00575" lon="2.24712">
        <ele>397</ele>
        <time>2021-04-18T08:30:05Z</time>
      </trkpt>
      <trkpt lat="44.00575" lon="2.24712">
        <ele>397</ele>
        <time>2021-04-18T08:30:05Z</time>
      </trkpt>
      <trkpt lat="44.00573" lon="2.24713">
        <ele>397</ele>
        <time>2021-04-18T08:30:07Z</time>
      </trkpt>
      <trkpt lat="44.00573" lon="2.24713">
        <ele>397</ele>
        <time>2021-04-18T08:30:07Z</time>
      </trkpt>
      <trkpt lat="44.00571" lon="2.24714">
        <ele>398</ele>
        <time>2021-04-18T08:30:08Z</time>
      </trkpt>
      <trkpt lat="44.00569" lon="2.24715">
        <ele>398</ele>
        <time>2021-04-18T08:30:10Z</time>
      </trkpt>
      <trkpt lat="44.00569" lon="2.24715">
        <ele>398</ele>
        <time>2021-04-18T08:30:10Z</time>
      </trkpt>
      <trkpt lat="44.00567" lon="2.24717">
        <ele>398</ele>
        <time>2021-04-18T08:30:11Z</time>
      </trkpt>
      <trkpt lat="44.00566" lon="2.24717">
        <ele>398</ele>
        <time>2021-04-18T08:30:12Z</time>
      </trkpt>
      <trkpt lat="44.00564" lon="2.24718">
        <ele>398</ele>
        <time>2021-04-18T08:30:13Z</time>
      </trkpt>
      <trkpt lat="44.00563" lon="2.24719">
        <ele>397</ele>
        <time>2021-04-18T08:30:14Z</time>
      </trkpt>
      <trkpt lat="44.00562" lon="2.24719">
        <ele>398</ele>
        <time>2021-04-18T08:30:15Z</time>
      </trkpt>
      <trkpt lat="44.0056" lon="2.2472">
        <ele>397</ele>
        <time>2021-04-18T08:30:16Z</time>
      </trkpt>
      <trkpt lat="44.00558" lon="2.24721">
        <ele>397</ele>
        <time>2021-04-18T08:30:17Z</time>
      </trkpt>
      <trkpt lat="44.00557" lon="2.24721">
        <ele>398</ele>
        <time>2021-04-18T08:30:18Z</time>
      </trkpt>
      <trkpt lat="44.00555" lon="2.24723">
        <ele>398</ele>
        <time>2021-04-18T08:30:19Z</time>
      </trkpt>
      <trkpt lat="44.00553" lon="2.24723">
        <ele>398</ele>
        <time>2021-04-18T08:30:20Z</time>
      </trkpt>
      <trkpt lat="44.00551" lon="2.24724">
        <ele>398</ele>
        <time>2021-04-18T08:30:21Z</time>
      </trkpt>
      <trkpt lat="44.00549" lon="2.24725">
        <ele>398</ele>
        <time>2021-04-18T08:30:22Z</time>
      </trkpt>
      <trkpt lat="44.00547" lon="2.24725">
        <ele>397</ele>
        <time>2021-04-18T08:30:23Z</time>
      </trkpt>
      <trkpt lat="44.00546" lon="2.24726">
        <ele>397</ele>
        <time>2021-04-18T08:30:24Z</time>
      </trkpt>
      <trkpt lat="44.00544" lon="2.24726">
        <ele>397</ele>
        <time>2021-04-18T08:30:25Z</time>
      </trkpt>
      <trkpt lat="44.00543" lon="2.24727">
        <ele>397</ele>
        <time>2021-04-18T08:30:26Z</time>
      </trkpt>
      <trkpt lat="44.00541" lon="2.24727">
        <ele>398</ele>
        <time>2021-04-18T08:30:27Z</time>
      </trkpt>
      <trkpt lat="44.00539" lon="2.24728">
        <ele>398</ele>
        <time>2021-04-18T08:30:28Z</time>
      </trkpt>
      <trkpt lat="44.00538" lon="2.24729">
        <ele>398</ele>
        <time>2021-04-18T08:30:29Z</time>
      </trkpt>
      <trkpt lat="44.00536" lon="2.24729">
        <ele>397</ele>
        <time>2021-04-18T08:30:30Z</time>
      </trkpt>
      <trkpt lat="44.00535" lon="2.2473">
        <ele>397</ele>
        <time>2021-04-18T08:30:31Z</time>
      </trkpt>
      <trkpt lat="44.00533" lon="2.24731">
        <ele>397</ele>
        <time>2021-04-18T08:30:32Z</time>
      </trkpt>
      <trkpt lat="44.00532" lon="2.24732">
        <ele>397</ele>
        <time>2021-04-18T08:30:33Z</time>
      </trkpt>
      <trkpt lat="44.00528" lon="2.24732">
        <ele>397</ele>
        <time>2021-04-18T08:30:34Z</time>
      </trkpt>
      <trkpt lat="44.00528" lon="2.24732">
        <ele>397</ele>
        <time>2021-04-18T08:30:34Z</time>
      </trkpt>
      <trkpt lat="44.00525" lon="2.24732">
        <ele>397</ele>
        <time>2021-04-18T08:30:36Z</time>
      </trkpt>
      <trkpt lat="44.00525" lon="2.24732">
        <ele>397</ele>
        <time>2021-04-18T08:30:36Z</time>
      </trkpt>
      <trkpt lat="44.00524" lon="2.24733">
        <ele>397</ele>
        <time>2021-04-18T08:30:38Z</time>
      </trkpt>
      <trkpt lat="44.00522" lon="2.24734">
        <ele>397</ele>
        <time>2021-04-18T08:30:39Z</time>
      </trkpt>
      <trkpt lat="44.0052" lon="2.24735">
        <ele>397</ele>
        <time>2021-04-18T08:30:40Z</time>
      </trkpt>
      <trkpt lat="44.00518" lon="2.24734">
        <ele>397</ele>
        <time>2021-04-18T08:30:41Z</time>
      </trkpt>
      <trkpt lat="44.00517" lon="2.24734">
        <ele>397</ele>
        <time>2021-04-18T08:30:42Z</time>
      </trkpt>
      <trkpt lat="44.00515" lon="2.24735">
        <ele>397</ele>
        <time>2021-04-18T08:30:43Z</time>
      </trkpt>
      <trkpt lat="44.00514" lon="2.24735">
        <ele>397</ele>
        <time>2021-04-18T08:30:44Z</time>
      </trkpt>
      <trkpt lat="44.00512" lon="2.24735">
        <ele>397</ele>
        <time>2021-04-18T08:30:45Z</time>
      </trkpt>
      <trkpt lat="44.00511" lon="2.24736">
        <ele>397</ele>
        <time>2021-04-18T08:30:46Z</time>
      </trkpt>
      <trkpt lat="44.00509" lon="2.24736">
        <ele>397</ele>
        <time>2021-04-18T08:30:47Z</time>
      </trkpt>
      <trkpt lat="44.00508" lon="2.24736">
        <ele>397</ele>
        <time>2021-04-18T08:30:48Z</time>
      </trkpt>
      <trkpt lat="44.00505" lon="2.24737">
        <ele>397</ele>
        <time>2021-04-18T08:30:49Z</time>
      </trkpt>
      <trkpt lat="44.00505" lon="2.24737">
        <ele>397</ele>
        <time>2021-04-18T08:30:49Z</time>
      </trkpt>
      <trkpt lat="44.00501" lon="2.24738">
        <ele>397</ele>
        <time>2021-04-18T08:30:51Z</time>
      </trkpt>
      <trkpt lat="44.00501" lon="2.24738">
        <ele>397</ele>
        <time>2021-04-18T08:30:51Z</time>
      </trkpt>
      <trkpt lat="44.005" lon="2.24738">
        <ele>396</ele>
        <time>2021-04-18T08:30:53Z</time>
      </trkpt>
      <trkpt lat="44.00498" lon="2.24739">
        <ele>395</ele>
        <time>2021-04-18T08:30:54Z</time>
      </trkpt>
      <trkpt lat="44.00496" lon="2.24739">
        <ele>395</ele>
        <time>2021-04-18T08:30:55Z</time>
      </trkpt>
      <trkpt lat="44.00494" lon="2.2474">
        <ele>395</ele>
        <time>2021-04-18T08:30:56Z</time>
      </trkpt>
      <trkpt lat="44.00493" lon="2.2474">
        <ele>395</ele>
        <time>2021-04-18T08:30:57Z</time>
      </trkpt>
      <trkpt lat="44.00493" lon="2.2474">
        <ele>395</ele>
        <time>2021-04-18T08:30:58Z</time>
      </trkpt>
      <trkpt lat="44.00493" lon="2.24741">
        <ele>395</ele>
        <time>2021-04-18T08:30:59Z</time>
      </trkpt>
      <trkpt lat="44.00491" lon="2.24742">
        <ele>395</ele>
        <time>2021-04-18T08:31:00Z</time>
      </trkpt>
      <trkpt lat="44.0049" lon="2.24743">
        <ele>395</ele>
        <time>2021-04-18T08:31:01Z</time>
      </trkpt>
      <trkpt lat="44.00489" lon="2.24744">
        <ele>395</ele>
        <time>2021-04-18T08:31:02Z</time>
      </trkpt>
      <trkpt lat="44.00489" lon="2.24746">
        <ele>395</ele>
        <time>2021-04-18T08:31:03Z</time>
      </trkpt>
      <trkpt lat="44.00488" lon="2.24748">
        <ele>395</ele>
        <time>2021-04-18T08:31:04Z</time>
      </trkpt>
      <trkpt lat="44.00487" lon="2.24749">
        <ele>395</ele>
        <time>2021-04-18T08:31:05Z</time>
      </trkpt>
      <trkpt lat="44.00486" lon="2.24751">
        <ele>396</ele>
        <time>2021-04-18T08:31:06Z</time>
      </trkpt>
      <trkpt lat="44.00485" lon="2.24752">
        <ele>396</ele>
        <time>2021-04-18T08:31:07Z</time>
      </trkpt>
      <trkpt lat="44.00484" lon="2.24753">
        <ele>396</ele>
        <time>2021-04-18T08:31:08Z</time>
      </trkpt>
      <trkpt lat="44.00482" lon="2.24754">
        <ele>395</ele>
        <time>2021-04-18T08:31:09Z</time>
      </trkpt>
      <trkpt lat="44.00479" lon="2.24756">
        <ele>395</ele>
        <time>2021-04-18T08:31:10Z</time>
      </trkpt>
      <trkpt lat="44.00478" lon="2.24757">
        <ele>395</ele>
        <time>2021-04-18T08:31:11Z</time>
      </trkpt>
      <trkpt lat="44.00476" lon="2.24758">
        <ele>395</ele>
        <time>2021-04-18T08:31:12Z</time>
      </trkpt>
      <trkpt lat="44.00476" lon="2.24758">
        <ele>395</ele>
        <time>2021-04-18T08:31:12Z</time>
      </trkpt>
      <trkpt lat="44.00473" lon="2.24761">
        <ele>395</ele>
        <time>2021-04-18T08:31:14Z</time>
      </trkpt>
      <trkpt lat="44.00473" lon="2.24761">
        <ele>395</ele>
        <time>2021-04-18T08:31:14Z</time>
      </trkpt>
      <trkpt lat="44.00472" lon="2.24762">
        <ele>396</ele>
        <time>2021-04-18T08:31:16Z</time>
      </trkpt>
      <trkpt lat="44.00472" lon="2.24763">
        <ele>397</ele>
        <time>2021-04-18T08:31:17Z</time>
      </trkpt>
      <trkpt lat="44.0047" lon="2.24765">
        <ele>397</ele>
        <time>2021-04-18T08:31:18Z</time>
      </trkpt>
      <trkpt lat="44.00469" lon="2.24766">
        <ele>397</ele>
        <time>2021-04-18T08:31:19Z</time>
      </trkpt>
      <trkpt lat="44.00467" lon="2.24767">
        <ele>397</ele>
        <time>2021-04-18T08:31:20Z</time>
      </trkpt>
      <trkpt lat="44.00466" lon="2.24768">
        <ele>397</ele>
        <time>2021-04-18T08:31:21Z</time>
      </trkpt>
      <trkpt lat="44.00463" lon="2.24771">
        <ele>397</ele>
        <time>2021-04-18T08:31:22Z</time>
      </trkpt>
      <trkpt lat="44.00463" lon="2.24771">
        <ele>397</ele>
        <time>2021-04-18T08:31:22Z</time>
      </trkpt>
      <trkpt lat="44.0046" lon="2.24773">
        <ele>397</ele>
        <time>2021-04-18T08:31:24Z</time>
      </trkpt>
      <trkpt lat="44.00458" lon="2.24774">
        <ele>397</ele>
        <time>2021-04-18T08:31:25Z</time>
      </trkpt>
      <trkpt lat="44.00457" lon="2.24776">
        <ele>397</ele>
        <time>2021-04-18T08:31:26Z</time>
      </trkpt>
      <trkpt lat="44.00457" lon="2.24776">
        <ele>397</ele>
        <time>2021-04-18T08:31:26Z</time>
      </trkpt>
      <trkpt lat="44.00455" lon="2.24779">
        <ele>397</ele>
        <time>2021-04-18T08:31:28Z</time>
      </trkpt>
      <trkpt lat="44.00454" lon="2.24781">
        <ele>397</ele>
        <time>2021-04-18T08:31:29Z</time>
      </trkpt>
      <trkpt lat="44.00452" lon="2.24782">
        <ele>397</ele>
        <time>2021-04-18T08:31:30Z</time>
      </trkpt>
      <trkpt lat="44.00451" lon="2.24784">
        <ele>397</ele>
        <time>2021-04-18T08:31:31Z</time>
      </trkpt>
      <trkpt lat="44.0045" lon="2.24785">
        <ele>397</ele>
        <time>2021-04-18T08:31:32Z</time>
      </trkpt>
      <trkpt lat="44.00449" lon="2.24786">
        <ele>397</ele>
        <time>2021-04-18T08:31:33Z</time>
      </trkpt>
      <trkpt lat="44.00448" lon="2.24787">
        <ele>397</ele>
        <time>2021-04-18T08:31:34Z</time>
      </trkpt>
      <trkpt lat="44.00446" lon="2.24788">
        <ele>397</ele>
        <time>2021-04-18T08:31:35Z</time>
      </trkpt>
      <trkpt lat="44.00446" lon="2.2479">
        <ele>397</ele>
        <time>2021-04-18T08:31:36Z</time>
      </trkpt>
      <trkpt lat="44.00444" lon="2.24791">
        <ele>398</ele>
        <time>2021-04-18T08:31:37Z</time>
      </trkpt>
      <trkpt lat="44.00443" lon="2.24793">
        <ele>398</ele>
        <time>2021-04-18T08:31:38Z</time>
      </trkpt>
      <trkpt lat="44.00442" lon="2.24794">
        <ele>398</ele>
        <time>2021-04-18T08:31:39Z</time>
      </trkpt>
      <trkpt lat="44.00441" lon="2.24795">
        <ele>398</ele>
        <time>2021-04-18T08:31:40Z</time>
      </trkpt>
      <trkpt lat="44.0044" lon="2.24796">
        <ele>398</ele>
        <time>2021-04-18T08:31:41Z</time>
      </trkpt>
      <trkpt lat="44.00438" lon="2.24797">
        <ele>398</ele>
        <time>2021-04-18T08:31:42Z</time>
      </trkpt>
      <trkpt lat="44.00437" lon="2.24799">
        <ele>398</ele>
        <time>2021-04-18T08:31:43Z</time>
      </trkpt>
      <trkpt lat="44.00436" lon="2.248">
        <ele>399</ele>
        <time>2021-04-18T08:31:44Z</time>
      </trkpt>
      <trkpt lat="44.00435" lon="2.24802">
        <ele>398</ele>
        <time>2021-04-18T08:31:45Z</time>
      </trkpt>
      <trkpt lat="44.00434" lon="2.24803">
        <ele>399</ele>
        <time>2021-04-18T08:31:46Z</time>
      </trkpt>
      <trkpt lat="44.00434" lon="2.24803">
        <ele>399</ele>
        <time>2021-04-18T08:31:46Z</time>
      </trkpt>
      <trkpt lat="44.00431" lon="2.24807">
        <ele>398</ele>
        <time>2021-04-18T08:31:48Z</time>
      </trkpt>
      <trkpt lat="44.00431" lon="2.24808">
        <ele>398</ele>
        <time>2021-04-18T08:31:49Z</time>
      </trkpt>
      <trkpt lat="44.0043" lon="2.24809">
        <ele>398</ele>
        <time>2021-04-18T08:31:50Z</time>
      </trkpt>
      <trkpt lat="44.00428" lon="2.2481">
        <ele>398</ele>
        <time>2021-04-18T08:31:51Z</time>
      </trkpt>
      <trkpt lat="44.00427" lon="2.24812">
        <ele>398</ele>
        <time>2021-04-18T08:31:52Z</time>
      </trkpt>
      <trkpt lat="44.00425" lon="2.24813">
        <ele>398</ele>
        <time>2021-04-18T08:31:53Z</time>
      </trkpt>
      <trkpt lat="44.00424" lon="2.24814">
        <ele>398</ele>
        <time>2021-04-18T08:31:54Z</time>
      </trkpt>
      <trkpt lat="44.00422" lon="2.24815">
        <ele>399</ele>
        <time>2021-04-18T08:31:55Z</time>
      </trkpt>
      <trkpt lat="44.00421" lon="2.24817">
        <ele>399</ele>
        <time>2021-04-18T08:31:56Z</time>
      </trkpt>
      <trkpt lat="44.0042" lon="2.24818">
        <ele>399</ele>
        <time>2021-04-18T08:31:57Z</time>
      </trkpt>
      <trkpt lat="44.0042" lon="2.24819">
        <ele>399</ele>
        <time>2021-04-18T08:31:58Z</time>
      </trkpt>
      <trkpt lat="44.00419" lon="2.24819">
        <ele>399</ele>
        <time>2021-04-18T08:31:59Z</time>
      </trkpt>
      <trkpt lat="44.00419" lon="2.24819">
        <ele>400</ele>
        <time>2021-04-18T08:32:00Z</time>
      </trkpt>
      <trkpt lat="44.00417" lon="2.2482">
        <ele>399</ele>
        <time>2021-04-18T08:32:01Z</time>
      </trkpt>
      <trkpt lat="44.00416" lon="2.2482">
        <ele>398</ele>
        <time>2021-04-18T08:32:02Z</time>
      </trkpt>
      <trkpt lat="44.00415" lon="2.24821">
        <ele>397</ele>
        <time>2021-04-18T08:32:03Z</time>
      </trkpt>
      <trkpt lat="44.00414" lon="2.24822">
        <ele>397</ele>
        <time>2021-04-18T08:32:04Z</time>
      </trkpt>
      <trkpt lat="44.00412" lon="2.24823">
        <ele>397</ele>
        <time>2021-04-18T08:32:05Z</time>
      </trkpt>
      <trkpt lat="44.00411" lon="2.24824">
        <ele>397</ele>
        <time>2021-04-18T08:32:06Z</time>
      </trkpt>
      <trkpt lat="44.0041" lon="2.24825">
        <ele>397</ele>
        <time>2021-04-18T08:32:07Z</time>
      </trkpt>
      <trkpt lat="44.00408" lon="2.24825">
        <ele>397</ele>
        <time>2021-04-18T08:32:08Z</time>
      </trkpt>
      <trkpt lat="44.00407" lon="2.24826">
        <ele>397</ele>
        <time>2021-04-18T08:32:09Z</time>
      </trkpt>
      <trkpt lat="44.00405" lon="2.24827">
        <ele>397</ele>
        <time>2021-04-18T08:32:10Z</time>
      </trkpt>
      <trkpt lat="44.00403" lon="2.24829">
        <ele>396</ele>
        <time>2021-04-18T08:32:11Z</time>
      </trkpt>
      <trkpt lat="44.00402" lon="2.2483">
        <ele>396</ele>
        <time>2021-04-18T08:32:12Z</time>
      </trkpt>
      <trkpt lat="44.004" lon="2.24831">
        <ele>396</ele>
        <time>2021-04-18T08:32:13Z</time>
      </trkpt>
      <trkpt lat="44.00399" lon="2.24832">
        <ele>396</ele>
        <time>2021-04-18T08:32:14Z</time>
      </trkpt>
      <trkpt lat="44.00398" lon="2.24834">
        <ele>396</ele>
        <time>2021-04-18T08:32:15Z</time>
      </trkpt>
      <trkpt lat="44.00396" lon="2.24835">
        <ele>395</ele>
        <time>2021-04-18T08:32:16Z</time>
      </trkpt>
      <trkpt lat="44.00395" lon="2.24836">
        <ele>395</ele>
        <time>2021-04-18T08:32:17Z</time>
      </trkpt>
      <trkpt lat="44.00393" lon="2.24837">
        <ele>395</ele>
        <time>2021-04-18T08:32:18Z</time>
      </trkpt>
      <trkpt lat="44.00392" lon="2.24838">
        <ele>395</ele>
        <time>2021-04-18T08:32:19Z</time>
      </trkpt>
      <trkpt lat="44.0039" lon="2.24839">
        <ele>395</ele>
        <time>2021-04-18T08:32:20Z</time>
      </trkpt>
      <trkpt lat="44.00389" lon="2.2484">
        <ele>395</ele>
        <time>2021-04-18T08:32:21Z</time>
      </trkpt>
      <trkpt lat="44.00388" lon="2.24841">
        <ele>395</ele>
        <time>2021-04-18T08:32:22Z</time>
      </trkpt>
      <trkpt lat="44.00386" lon="2.24843">
        <ele>395</ele>
        <time>2021-04-18T08:32:23Z</time>
      </trkpt>
      <trkpt lat="44.00386" lon="2.24843">
        <ele>395</ele>
        <time>2021-04-18T08:32:24Z</time>
      </trkpt>
      <trkpt lat="44.00386" lon="2.24843">
        <ele>395</ele>
        <time>2021-04-18T08:32:25Z</time>
      </trkpt>
      <trkpt lat="44.00384" lon="2.24844">
        <ele>395</ele>
        <time>2021-04-18T08:32:26Z</time>
      </trkpt>
      <trkpt lat="44.00382" lon="2.24846">
        <ele>395</ele>
        <time>2021-04-18T08:32:27Z</time>
      </trkpt>
      <trkpt lat="44.00381" lon="2.24847">
        <ele>395</ele>
        <time>2021-04-18T08:32:28Z</time>
      </trkpt>
      <trkpt lat="44.00379" lon="2.24848">
        <ele>395</ele>
        <time>2021-04-18T08:32:29Z</time>
      </trkpt>
      <trkpt lat="44.00378" lon="2.2485">
        <ele>395</ele>
        <time>2021-04-18T08:32:30Z</time>
      </trkpt>
      <trkpt lat="44.00377" lon="2.24852">
        <ele>395</ele>
        <time>2021-04-18T08:32:31Z</time>
      </trkpt>
      <trkpt lat="44.00375" lon="2.24853">
        <ele>395</ele>
        <time>2021-04-18T08:32:32Z</time>
      </trkpt>
      <trkpt lat="44.00374" lon="2.24854">
        <ele>394</ele>
        <time>2021-04-18T08:32:33Z</time>
      </trkpt>
      <trkpt lat="44.00372" lon="2.24855">
        <ele>394</ele>
        <time>2021-04-18T08:32:34Z</time>
      </trkpt>
      <trkpt lat="44.0037" lon="2.24856">
        <ele>394</ele>
        <time>2021-04-18T08:32:35Z</time>
      </trkpt>
      <trkpt lat="44.00369" lon="2.24857">
        <ele>394</ele>
        <time>2021-04-18T08:32:36Z</time>
      </trkpt>
      <trkpt lat="44.00367" lon="2.24858">
        <ele>395</ele>
        <time>2021-04-18T08:32:37Z</time>
      </trkpt>
      <trkpt lat="44.00365" lon="2.24859">
        <ele>394</ele>
        <time>2021-04-18T08:32:38Z</time>
      </trkpt>
      <trkpt lat="44.00364" lon="2.24859">
        <ele>394</ele>
        <time>2021-04-18T08:32:39Z</time>
      </trkpt>
      <trkpt lat="44.00362" lon="2.2486">
        <ele>394</ele>
        <time>2021-04-18T08:32:40Z</time>
      </trkpt>
      <trkpt lat="44.0036" lon="2.24861">
        <ele>394</ele>
        <time>2021-04-18T08:32:41Z</time>
      </trkpt>
      <trkpt lat="44.00359" lon="2.24862">
        <ele>393</ele>
        <time>2021-04-18T08:32:42Z</time>
      </trkpt>
      <trkpt lat="44.00357" lon="2.24863">
        <ele>393</ele>
        <time>2021-04-18T08:32:43Z</time>
      </trkpt>
      <trkpt lat="44.00356" lon="2.24864">
        <ele>393</ele>
        <time>2021-04-18T08:32:44Z</time>
      </trkpt>
      <trkpt lat="44.00354" lon="2.24865">
        <ele>393</ele>
        <time>2021-04-18T08:32:45Z</time>
      </trkpt>
      <trkpt lat="44.00353" lon="2.24866">
        <ele>393</ele>
        <time>2021-04-18T08:32:46Z</time>
      </trkpt>
      <trkpt lat="44.00352" lon="2.24867">
        <ele>392</ele>
        <time>2021-04-18T08:32:47Z</time>
      </trkpt>
      <trkpt lat="44.0035" lon="2.24868">
        <ele>392</ele>
        <time>2021-04-18T08:32:48Z</time>
      </trkpt>
      <trkpt lat="44.00349" lon="2.24869">
        <ele>392</ele>
        <time>2021-04-18T08:32:49Z</time>
      </trkpt>
      <trkpt lat="44.00348" lon="2.2487">
        <ele>392</ele>
        <time>2021-04-18T08:32:50Z</time>
      </trkpt>
      <trkpt lat="44.00347" lon="2.24871">
        <ele>392</ele>
        <time>2021-04-18T08:32:51Z</time>
      </trkpt>
      <trkpt lat="44.00346" lon="2.24871">
        <ele>392</ele>
        <time>2021-04-18T08:32:52Z</time>
      </trkpt>
      <trkpt lat="44.00345" lon="2.24872">
        <ele>392</ele>
        <time>2021-04-18T08:32:53Z</time>
      </trkpt>
      <trkpt lat="44.00343" lon="2.24873">
        <ele>392</ele>
        <time>2021-04-18T08:32:54Z</time>
      </trkpt>
      <trkpt lat="44.00342" lon="2.24874">
        <ele>392</ele>
        <time>2021-04-18T08:32:55Z</time>
      </trkpt>
      <trkpt lat="44.00341" lon="2.24875">
        <ele>392</ele>
        <time>2021-04-18T08:32:56Z</time>
      </trkpt>
      <trkpt lat="44.0034" lon="2.24876">
        <ele>392</ele>
        <time>2021-04-18T08:32:57Z</time>
      </trkpt>
      <trkpt lat="44.00339" lon="2.24877">
        <ele>391</ele>
        <time>2021-04-18T08:32:58Z</time>
      </trkpt>
      <trkpt lat="44.00337" lon="2.24878">
        <ele>391</ele>
        <time>2021-04-18T08:32:59Z</time>
      </trkpt>
      <trkpt lat="44.00336" lon="2.24879">
        <ele>391</ele>
        <time>2021-04-18T08:33:00Z</time>
      </trkpt>
      <trkpt lat="44.00334" lon="2.2488">
        <ele>391</ele>
        <time>2021-04-18T08:33:01Z</time>
      </trkpt>
      <trkpt lat="44.00332" lon="2.24881">
        <ele>390</ele>
        <time>2021-04-18T08:33:02Z</time>
      </trkpt>
      <trkpt lat="44.00331" lon="2.24883">
        <ele>390</ele>
        <time>2021-04-18T08:33:03Z</time>
      </trkpt>
      <trkpt lat="44.00329" lon="2.24884">
        <ele>390</ele>
        <time>2021-04-18T08:33:04Z</time>
      </trkpt>
      <trkpt lat="44.00328" lon="2.24884">
        <ele>390</ele>
        <time>2021-04-18T08:33:05Z</time>
      </trkpt>
      <trkpt lat="44.00327" lon="2.24885">
        <ele>391</ele>
        <time>2021-04-18T08:33:06Z</time>
      </trkpt>
      <trkpt lat="44.00325" lon="2.24886">
        <ele>390</ele>
        <time>2021-04-18T08:33:07Z</time>
      </trkpt>
      <trkpt lat="44.00324" lon="2.24887">
        <ele>390</ele>
        <time>2021-04-18T08:33:08Z</time>
      </trkpt>
      <trkpt lat="44.00323" lon="2.24888">
        <ele>390</ele>
        <time>2021-04-18T08:33:09Z</time>
      </trkpt>
      <trkpt lat="44.00322" lon="2.24889">
        <ele>390</ele>
        <time>2021-04-18T08:33:10Z</time>
      </trkpt>
      <trkpt lat="44.0032" lon="2.2489">
        <ele>390</ele>
        <time>2021-04-18T08:33:11Z</time>
      </trkpt>
      <trkpt lat="44.00319" lon="2.24891">
        <ele>390</ele>
        <time>2021-04-18T08:33:12Z</time>
      </trkpt>
      <trkpt lat="44.00317" lon="2.24892">
        <ele>391</ele>
        <time>2021-04-18T08:33:13Z</time>
      </trkpt>
      <trkpt lat="44.00316" lon="2.24893">
        <ele>391</ele>
        <time>2021-04-18T08:33:14Z</time>
      </trkpt>
      <trkpt lat="44.00315" lon="2.24894">
        <ele>391</ele>
        <time>2021-04-18T08:33:15Z</time>
      </trkpt>
      <trkpt lat="44.00314" lon="2.24895">
        <ele>391</ele>
        <time>2021-04-18T08:33:16Z</time>
      </trkpt>
      <trkpt lat="44.00312" lon="2.24896">
        <ele>390</ele>
        <time>2021-04-18T08:33:17Z</time>
      </trkpt>
      <trkpt lat="44.00311" lon="2.24897">
        <ele>390</ele>
        <time>2021-04-18T08:33:18Z</time>
      </trkpt>
      <trkpt lat="44.00309" lon="2.24898">
        <ele>390</ele>
        <time>2021-04-18T08:33:19Z</time>
      </trkpt>
      <trkpt lat="44.00308" lon="2.249">
        <ele>389</ele>
        <time>2021-04-18T08:33:20Z</time>
      </trkpt>
      <trkpt lat="44.00306" lon="2.24901">
        <ele>389</ele>
        <time>2021-04-18T08:33:21Z</time>
      </trkpt>
      <trkpt lat="44.00305" lon="2.24902">
        <ele>389</ele>
        <time>2021-04-18T08:33:22Z</time>
      </trkpt>
      <trkpt lat="44.00304" lon="2.24903">
        <ele>389</ele>
        <time>2021-04-18T08:33:23Z</time>
      </trkpt>
      <trkpt lat="44.00302" lon="2.24904">
        <ele>388</ele>
        <time>2021-04-18T08:33:24Z</time>
      </trkpt>
      <trkpt lat="44.00301" lon="2.24905">
        <ele>389</ele>
        <time>2021-04-18T08:33:25Z</time>
      </trkpt>
      <trkpt lat="44.003" lon="2.24906">
        <ele>389</ele>
        <time>2021-04-18T08:33:26Z</time>
      </trkpt>
      <trkpt lat="44.00299" lon="2.24907">
        <ele>388</ele>
        <time>2021-04-18T08:33:27Z</time>
      </trkpt>
      <trkpt lat="44.00298" lon="2.24908">
        <ele>388</ele>
        <time>2021-04-18T08:33:28Z</time>
      </trkpt>
      <trkpt lat="44.00296" lon="2.24909">
        <ele>388</ele>
        <time>2021-04-18T08:33:29Z</time>
      </trkpt>
      <trkpt lat="44.00295" lon="2.2491">
        <ele>389</ele>
        <time>2021-04-18T08:33:30Z</time>
      </trkpt>
      <trkpt lat="44.00293" lon="2.24912">
        <ele>389</ele>
        <time>2021-04-18T08:33:31Z</time>
      </trkpt>
      <trkpt lat="44.00292" lon="2.24913">
        <ele>389</ele>
        <time>2021-04-18T08:33:32Z</time>
      </trkpt>
      <trkpt lat="44.00291" lon="2.24915">
        <ele>389</ele>
        <time>2021-04-18T08:33:33Z</time>
      </trkpt>
      <trkpt lat="44.0029" lon="2.24916">
        <ele>389</ele>
        <time>2021-04-18T08:33:34Z</time>
      </trkpt>
      <trkpt lat="44.00289" lon="2.24918">
        <ele>389</ele>
        <time>2021-04-18T08:33:35Z</time>
      </trkpt>
      <trkpt lat="44.00288" lon="2.24919">
        <ele>390</ele>
        <time>2021-04-18T08:33:36Z</time>
      </trkpt>
      <trkpt lat="44.00286" lon="2.24921">
        <ele>389</ele>
        <time>2021-04-18T08:33:37Z</time>
      </trkpt>
      <trkpt lat="44.00285" lon="2.24923">
        <ele>390</ele>
        <time>2021-04-18T08:33:38Z</time>
      </trkpt>
      <trkpt lat="44.00284" lon="2.24924">
        <ele>390</ele>
        <time>2021-04-18T08:33:39Z</time>
      </trkpt>
      <trkpt lat="44.00283" lon="2.24926">
        <ele>389</ele>
        <time>2021-04-18T08:33:40Z</time>
      </trkpt>
      <trkpt lat="44.00281" lon="2.24927">
        <ele>390</ele>
        <time>2021-04-18T08:33:41Z</time>
      </trkpt>
      <trkpt lat="44.0028" lon="2.24928">
        <ele>390</ele>
        <time>2021-04-18T08:33:42Z</time>
      </trkpt>
      <trkpt lat="44.00279" lon="2.24929">
        <ele>389</ele>
        <time>2021-04-18T08:33:43Z</time>
      </trkpt>
      <trkpt lat="44.00277" lon="2.2493">
        <ele>389</ele>
        <time>2021-04-18T08:33:44Z</time>
      </trkpt>
      <trkpt lat="44.00276" lon="2.24931">
        <ele>389</ele>
        <time>2021-04-18T08:33:45Z</time>
      </trkpt>
      <trkpt lat="44.00275" lon="2.24932">
        <ele>388</ele>
        <time>2021-04-18T08:33:46Z</time>
      </trkpt>
      <trkpt lat="44.00273" lon="2.24933">
        <ele>388</ele>
        <time>2021-04-18T08:33:47Z</time>
      </trkpt>
      <trkpt lat="44.00271" lon="2.24935">
        <ele>388</ele>
        <time>2021-04-18T08:33:48Z</time>
      </trkpt>
      <trkpt lat="44.0027" lon="2.24936">
        <ele>388</ele>
        <time>2021-04-18T08:33:49Z</time>
      </trkpt>
      <trkpt lat="44.00268" lon="2.24937">
        <ele>387</ele>
        <time>2021-04-18T08:33:50Z</time>
      </trkpt>
      <trkpt lat="44.00267" lon="2.24939">
        <ele>386</ele>
        <time>2021-04-18T08:33:51Z</time>
      </trkpt>
      <trkpt lat="44.00266" lon="2.2494">
        <ele>386</ele>
        <time>2021-04-18T08:33:52Z</time>
      </trkpt>
      <trkpt lat="44.00264" lon="2.24941">
        <ele>386</ele>
        <time>2021-04-18T08:33:53Z</time>
      </trkpt>
      <trkpt lat="44.00263" lon="2.24942">
        <ele>386</ele>
        <time>2021-04-18T08:33:54Z</time>
      </trkpt>
      <trkpt lat="44.00262" lon="2.24943">
        <ele>386</ele>
        <time>2021-04-18T08:33:55Z</time>
      </trkpt>
      <trkpt lat="44.00261" lon="2.24944">
        <ele>386</ele>
        <time>2021-04-18T08:33:56Z</time>
      </trkpt>
      <trkpt lat="44.00259" lon="2.24945">
        <ele>386</ele>
        <time>2021-04-18T08:33:57Z</time>
      </trkpt>
      <trkpt lat="44.00258" lon="2.24947">
        <ele>386</ele>
        <time>2021-04-18T08:33:58Z</time>
      </trkpt>
      <trkpt lat="44.00256" lon="2.24948">
        <ele>386</ele>
        <time>2021-04-18T08:33:59Z</time>
      </trkpt>
      <trkpt lat="44.00255" lon="2.24949">
        <ele>386</ele>
        <time>2021-04-18T08:34:00Z</time>
      </trkpt>
      <trkpt lat="44.00254" lon="2.2495">
        <ele>386</ele>
        <time>2021-04-18T08:34:01Z</time>
      </trkpt>
      <trkpt lat="44.00253" lon="2.2495">
        <ele>386</ele>
        <time>2021-04-18T08:34:02Z</time>
      </trkpt>
      <trkpt lat="44.00251" lon="2.24952">
        <ele>386</ele>
        <time>2021-04-18T08:34:03Z</time>
      </trkpt>
      <trkpt lat="44.0025" lon="2.24953">
        <ele>386</ele>
        <time>2021-04-18T08:34:04Z</time>
      </trkpt>
      <trkpt lat="44.00248" lon="2.24954">
        <ele>385</ele>
        <time>2021-04-18T08:34:05Z</time>
      </trkpt>
      <trkpt lat="44.00246" lon="2.24955">
        <ele>385</ele>
        <time>2021-04-18T08:34:06Z</time>
      </trkpt>
      <trkpt lat="44.00245" lon="2.24956">
        <ele>385</ele>
        <time>2021-04-18T08:34:07Z</time>
      </trkpt>
      <trkpt lat="44.00244" lon="2.24956">
        <ele>385</ele>
        <time>2021-04-18T08:34:08Z</time>
      </trkpt>
      <trkpt lat="44.00242" lon="2.24957">
        <ele>385</ele>
        <time>2021-04-18T08:34:09Z</time>
      </trkpt>
      <trkpt lat="44.00241" lon="2.24957">
        <ele>385</ele>
        <time>2021-04-18T08:34:10Z</time>
      </trkpt>
      <trkpt lat="44.00239" lon="2.24958">
        <ele>384</ele>
        <time>2021-04-18T08:34:11Z</time>
      </trkpt>
      <trkpt lat="44.00238" lon="2.24959">
        <ele>384</ele>
        <time>2021-04-18T08:34:12Z</time>
      </trkpt>
      <trkpt lat="44.00237" lon="2.24959">
        <ele>384</ele>
        <time>2021-04-18T08:34:13Z</time>
      </trkpt>
      <trkpt lat="44.00235" lon="2.2496">
        <ele>384</ele>
        <time>2021-04-18T08:34:14Z</time>
      </trkpt>
      <trkpt lat="44.00234" lon="2.24961">
        <ele>384</ele>
        <time>2021-04-18T08:34:15Z</time>
      </trkpt>
      <trkpt lat="44.00232" lon="2.24962">
        <ele>384</ele>
        <time>2021-04-18T08:34:16Z</time>
      </trkpt>
      <trkpt lat="44.00231" lon="2.24963">
        <ele>384</ele>
        <time>2021-04-18T08:34:17Z</time>
      </trkpt>
      <trkpt lat="44.00229" lon="2.24964">
        <ele>383</ele>
        <time>2021-04-18T08:34:18Z</time>
      </trkpt>
      <trkpt lat="44.00227" lon="2.24964">
        <ele>383</ele>
        <time>2021-04-18T08:34:19Z</time>
      </trkpt>
      <trkpt lat="44.00226" lon="2.24965">
        <ele>383</ele>
        <time>2021-04-18T08:34:20Z</time>
      </trkpt>
      <trkpt lat="44.00225" lon="2.24966">
        <ele>382</ele>
        <time>2021-04-18T08:34:21Z</time>
      </trkpt>
      <trkpt lat="44.00224" lon="2.24966">
        <ele>382</ele>
        <time>2021-04-18T08:34:22Z</time>
      </trkpt>
      <trkpt lat="44.00223" lon="2.24967">
        <ele>382</ele>
        <time>2021-04-18T08:34:23Z</time>
      </trkpt>
      <trkpt lat="44.00222" lon="2.24968">
        <ele>382</ele>
        <time>2021-04-18T08:34:24Z</time>
      </trkpt>
      <trkpt lat="44.00221" lon="2.2497">
        <ele>382</ele>
        <time>2021-04-18T08:34:25Z</time>
      </trkpt>
      <trkpt lat="44.00219" lon="2.2497">
        <ele>382</ele>
        <time>2021-04-18T08:34:26Z</time>
      </trkpt>
      <trkpt lat="44.00218" lon="2.24971">
        <ele>381</ele>
        <time>2021-04-18T08:34:27Z</time>
      </trkpt>
      <trkpt lat="44.00216" lon="2.24971">
        <ele>381</ele>
        <time>2021-04-18T08:34:28Z</time>
      </trkpt>
      <trkpt lat="44.00215" lon="2.24972">
        <ele>381</ele>
        <time>2021-04-18T08:34:29Z</time>
      </trkpt>
      <trkpt lat="44.00214" lon="2.24973">
        <ele>381</ele>
        <time>2021-04-18T08:34:30Z</time>
      </trkpt>
      <trkpt lat="44.00212" lon="2.24973">
        <ele>381</ele>
        <time>2021-04-18T08:34:31Z</time>
      </trkpt>
      <trkpt lat="44.00211" lon="2.24974">
        <ele>382</ele>
        <time>2021-04-18T08:34:32Z</time>
      </trkpt>
      <trkpt lat="44.00209" lon="2.24975">
        <ele>382</ele>
        <time>2021-04-18T08:34:33Z</time>
      </trkpt>
      <trkpt lat="44.00208" lon="2.24976">
        <ele>382</ele>
        <time>2021-04-18T08:34:34Z</time>
      </trkpt>
      <trkpt lat="44.00207" lon="2.24977">
        <ele>381</ele>
        <time>2021-04-18T08:34:35Z</time>
      </trkpt>
      <trkpt lat="44.00205" lon="2.24979">
        <ele>381</ele>
        <time>2021-04-18T08:34:36Z</time>
      </trkpt>
      <trkpt lat="44.00203" lon="2.24979">
        <ele>381</ele>
        <time>2021-04-18T08:34:37Z</time>
      </trkpt>
      <trkpt lat="44.00201" lon="2.2498">
        <ele>381</ele>
        <time>2021-04-18T08:34:38Z</time>
      </trkpt>
      <trkpt lat="44.002" lon="2.24981">
        <ele>381</ele>
        <time>2021-04-18T08:34:39Z</time>
      </trkpt>
      <trkpt lat="44.00199" lon="2.24982">
        <ele>380</ele>
        <time>2021-04-18T08:34:40Z</time>
      </trkpt>
      <trkpt lat="44.00197" lon="2.24982">
        <ele>380</ele>
        <time>2021-04-18T08:34:41Z</time>
      </trkpt>
      <trkpt lat="44.00196" lon="2.24983">
        <ele>380</ele>
        <time>2021-04-18T08:34:42Z</time>
      </trkpt>
      <trkpt lat="44.00195" lon="2.24984">
        <ele>379</ele>
        <time>2021-04-18T08:34:43Z</time>
      </trkpt>
      <trkpt lat="44.00194" lon="2.24985">
        <ele>379</ele>
        <time>2021-04-18T08:34:44Z</time>
      </trkpt>
      <trkpt lat="44.00192" lon="2.24986">
        <ele>379</ele>
        <time>2021-04-18T08:34:45Z</time>
      </trkpt>
      <trkpt lat="44.00191" lon="2.24987">
        <ele>379</ele>
        <time>2021-04-18T08:34:46Z</time>
      </trkpt>
      <trkpt lat="44.0019" lon="2.24987">
        <ele>380</ele>
        <time>2021-04-18T08:34:47Z</time>
      </trkpt>
      <trkpt lat="44.00188" lon="2.24988">
        <ele>380</ele>
        <time>2021-04-18T08:34:48Z</time>
      </trkpt>
      <trkpt lat="44.00187" lon="2.24989">
        <ele>379</ele>
        <time>2021-04-18T08:34:49Z</time>
      </trkpt>
      <trkpt lat="44.00186" lon="2.2499">
        <ele>379</ele>
        <time>2021-04-18T08:34:50Z</time>
      </trkpt>
      <trkpt lat="44.00185" lon="2.2499">
        <ele>379</ele>
        <time>2021-04-18T08:34:51Z</time>
      </trkpt>
      <trkpt lat="44.00183" lon="2.2499">
        <ele>379</ele>
        <time>2021-04-18T08:34:52Z</time>
      </trkpt>
      <trkpt lat="44.00182" lon="2.24991">
        <ele>379</ele>
        <time>2021-04-18T08:34:53Z</time>
      </trkpt>
      <trkpt lat="44.0018" lon="2.24992">
        <ele>379</ele>
        <time>2021-04-18T08:34:54Z</time>
      </trkpt>
      <trkpt lat="44.00179" lon="2.24992">
        <ele>378</ele>
        <time>2021-04-18T08:34:55Z</time>
      </trkpt>
      <trkpt lat="44.00177" lon="2.24992">
        <ele>378</ele>
        <time>2021-04-18T08:34:56Z</time>
      </trkpt>
      <trkpt lat="44.00176" lon="2.24993">
        <ele>377</ele>
        <time>2021-04-18T08:34:57Z</time>
      </trkpt>
      <trkpt lat="44.00174" lon="2.24993">
        <ele>377</ele>
        <time>2021-04-18T08:34:58Z</time>
      </trkpt>
      <trkpt lat="44.00173" lon="2.24994">
        <ele>377</ele>
        <time>2021-04-18T08:34:59Z</time>
      </trkpt>
      <trkpt lat="44.00171" lon="2.24994">
        <ele>377</ele>
        <time>2021-04-18T08:35:00Z</time>
      </trkpt>
      <trkpt lat="44.00169" lon="2.24994">
        <ele>377</ele>
        <time>2021-04-18T08:35:01Z</time>
      </trkpt>
      <trkpt lat="44.00168" lon="2.24995">
        <ele>377</ele>
        <time>2021-04-18T08:35:02Z</time>
      </trkpt>
      <trkpt lat="44.00167" lon="2.24995">
        <ele>378</ele>
        <time>2021-04-18T08:35:03Z</time>
      </trkpt>
      <trkpt lat="44.00165" lon="2.24995">
        <ele>378</ele>
        <time>2021-04-18T08:35:04Z</time>
      </trkpt>
      <trkpt lat="44.00164" lon="2.24996">
        <ele>377</ele>
        <time>2021-04-18T08:35:05Z</time>
      </trkpt>
      <trkpt lat="44.00162" lon="2.24997">
        <ele>378</ele>
        <time>2021-04-18T08:35:06Z</time>
      </trkpt>
      <trkpt lat="44.00161" lon="2.24997">
        <ele>378</ele>
        <time>2021-04-18T08:35:07Z</time>
      </trkpt>
      <trkpt lat="44.00159" lon="2.24998">
        <ele>377</ele>
        <time>2021-04-18T08:35:08Z</time>
      </trkpt>
      <trkpt lat="44.00157" lon="2.24998">
        <ele>377</ele>
        <time>2021-04-18T08:35:09Z</time>
      </trkpt>
      <trkpt lat="44.00156" lon="2.24999">
        <ele>378</ele>
        <time>2021-04-18T08:35:10Z</time>
      </trkpt>
      <trkpt lat="44.00154" lon="2.24999">
        <ele>378</ele>
        <time>2021-04-18T08:35:11Z</time>
      </trkpt>
      <trkpt lat="44.00153" lon="2.25">
        <ele>377</ele>
        <time>2021-04-18T08:35:12Z</time>
      </trkpt>
      <trkpt lat="44.00151" lon="2.25001">
        <ele>377</ele>
        <time>2021-04-18T08:35:13Z</time>
      </trkpt>
      <trkpt lat="44.0015" lon="2.25002">
        <ele>377</ele>
        <time>2021-04-18T08:35:14Z</time>
      </trkpt>
      <trkpt lat="44.00148" lon="2.25003">
        <ele>376</ele>
        <time>2021-04-18T08:35:15Z</time>
      </trkpt>
      <trkpt lat="44.00147" lon="2.25004">
        <ele>376</ele>
        <time>2021-04-18T08:35:16Z</time>
      </trkpt>
      <trkpt lat="44.00145" lon="2.25004">
        <ele>376</ele>
        <time>2021-04-18T08:35:17Z</time>
      </trkpt>
      <trkpt lat="44.00144" lon="2.25005">
        <ele>376</ele>
        <time>2021-04-18T08:35:18Z</time>
      </trkpt>
      <trkpt lat="44.00143" lon="2.25005">
        <ele>376</ele>
        <time>2021-04-18T08:35:19Z</time>
      </trkpt>
      <trkpt lat="44.00141" lon="2.25006">
        <ele>376</ele>
        <time>2021-04-18T08:35:20Z</time>
      </trkpt>
      <trkpt lat="44.0014" lon="2.25006">
        <ele>375</ele>
        <time>2021-04-18T08:35:21Z</time>
      </trkpt>
      <trkpt lat="44.00139" lon="2.25006">
        <ele>375</ele>
        <time>2021-04-18T08:35:22Z</time>
      </trkpt>
      <trkpt lat="44.00138" lon="2.25006">
        <ele>375</ele>
        <time>2021-04-18T08:35:23Z</time>
      </trkpt>
      <trkpt lat="44.00137" lon="2.25006">
        <ele>374</ele>
        <time>2021-04-18T08:35:24Z</time>
      </trkpt>
      <trkpt lat="44.00135" lon="2.25006">
        <ele>375</ele>
        <time>2021-04-18T08:35:25Z</time>
      </trkpt>
      <trkpt lat="44.00133" lon="2.25006">
        <ele>375</ele>
        <time>2021-04-18T08:35:26Z</time>
      </trkpt>
      <trkpt lat="44.00132" lon="2.25005">
        <ele>375</ele>
        <time>2021-04-18T08:35:27Z</time>
      </trkpt>
      <trkpt lat="44.0013" lon="2.25005">
        <ele>374</ele>
        <time>2021-04-18T08:35:28Z</time>
      </trkpt>
      <trkpt lat="44.00129" lon="2.25005">
        <ele>374</ele>
        <time>2021-04-18T08:35:29Z</time>
      </trkpt>
      <trkpt lat="44.00127" lon="2.25005">
        <ele>375</ele>
        <time>2021-04-18T08:35:30Z</time>
      </trkpt>
      <trkpt lat="44.00126" lon="2.25005">
        <ele>375</ele>
        <time>2021-04-18T08:35:31Z</time>
      </trkpt>
      <trkpt lat="44.00124" lon="2.25006">
        <ele>375</ele>
        <time>2021-04-18T08:35:32Z</time>
      </trkpt>
      <trkpt lat="44.00123" lon="2.25006">
        <ele>375</ele>
        <time>2021-04-18T08:35:33Z</time>
      </trkpt>
      <trkpt lat="44.00121" lon="2.25006">
        <ele>374</ele>
        <time>2021-04-18T08:35:34Z</time>
      </trkpt>
      <trkpt lat="44.00119" lon="2.25006">
        <ele>374</ele>
        <time>2021-04-18T08:35:35Z</time>
      </trkpt>
      <trkpt lat="44.00118" lon="2.25007">
        <ele>374</ele>
        <time>2021-04-18T08:35:36Z</time>
      </trkpt>
      <trkpt lat="44.00116" lon="2.25007">
        <ele>374</ele>
        <time>2021-04-18T08:35:37Z</time>
      </trkpt>
      <trkpt lat="44.00115" lon="2.25008">
        <ele>375</ele>
        <time>2021-04-18T08:35:38Z</time>
      </trkpt>
      <trkpt lat="44.00114" lon="2.25009">
        <ele>375</ele>
        <time>2021-04-18T08:35:39Z</time>
      </trkpt>
      <trkpt lat="44.00113" lon="2.2501">
        <ele>374</ele>
        <time>2021-04-18T08:35:40Z</time>
      </trkpt>
      <trkpt lat="44.00112" lon="2.25011">
        <ele>374</ele>
        <time>2021-04-18T08:35:41Z</time>
      </trkpt>
      <trkpt lat="44.00111" lon="2.25013">
        <ele>374</ele>
        <time>2021-04-18T08:35:42Z</time>
      </trkpt>
      <trkpt lat="44.00111" lon="2.25014">
        <ele>373</ele>
        <time>2021-04-18T08:35:43Z</time>
      </trkpt>
      <trkpt lat="44.0011" lon="2.25016">
        <ele>373</ele>
        <time>2021-04-18T08:35:44Z</time>
      </trkpt>
      <trkpt lat="44.00109" lon="2.25019">
        <ele>372</ele>
        <time>2021-04-18T08:35:45Z</time>
      </trkpt>
      <trkpt lat="44.0011" lon="2.25022">
        <ele>372</ele>
        <time>2021-04-18T08:35:46Z</time>
      </trkpt>
      <trkpt lat="44.0011" lon="2.25025">
        <ele>372</ele>
        <time>2021-04-18T08:35:47Z</time>
      </trkpt>
      <trkpt lat="44.0011" lon="2.25027">
        <ele>371</ele>
        <time>2021-04-18T08:35:48Z</time>
      </trkpt>
      <trkpt lat="44.0011" lon="2.2503">
        <ele>370</ele>
        <time>2021-04-18T08:35:49Z</time>
      </trkpt>
      <trkpt lat="44.00111" lon="2.25032">
        <ele>370</ele>
        <time>2021-04-18T08:35:50Z</time>
      </trkpt>
      <trkpt lat="44.00111" lon="2.25034">
        <ele>369</ele>
        <time>2021-04-18T08:35:51Z</time>
      </trkpt>
      <trkpt lat="44.00112" lon="2.25035">
        <ele>369</ele>
        <time>2021-04-18T08:35:52Z</time>
      </trkpt>
      <trkpt lat="44.00113" lon="2.25037">
        <ele>368</ele>
        <time>2021-04-18T08:35:53Z</time>
      </trkpt>
      <trkpt lat="44.00114" lon="2.25038">
        <ele>368</ele>
        <time>2021-04-18T08:35:54Z</time>
      </trkpt>
      <trkpt lat="44.00115" lon="2.2504">
        <ele>367</ele>
        <time>2021-04-18T08:35:55Z</time>
      </trkpt>
      <trkpt lat="44.00116" lon="2.25042">
        <ele>368</ele>
        <time>2021-04-18T08:35:56Z</time>
      </trkpt>
      <trkpt lat="44.00118" lon="2.25044">
        <ele>368</ele>
        <time>2021-04-18T08:35:57Z</time>
      </trkpt>
      <trkpt lat="44.00119" lon="2.25045">
        <ele>368</ele>
        <time>2021-04-18T08:35:58Z</time>
      </trkpt>
      <trkpt lat="44.00121" lon="2.25047">
        <ele>368</ele>
        <time>2021-04-18T08:35:59Z</time>
      </trkpt>
      <trkpt lat="44.00122" lon="2.25048">
        <ele>367</ele>
        <time>2021-04-18T08:36:00Z</time>
      </trkpt>
      <trkpt lat="44.00124" lon="2.25049">
        <ele>367</ele>
        <time>2021-04-18T08:36:01Z</time>
      </trkpt>
      <trkpt lat="44.00125" lon="2.2505">
        <ele>367</ele>
        <time>2021-04-18T08:36:02Z</time>
      </trkpt>
      <trkpt lat="44.00126" lon="2.25052">
        <ele>367</ele>
        <time>2021-04-18T08:36:03Z</time>
      </trkpt>
      <trkpt lat="44.00127" lon="2.25053">
        <ele>367</ele>
        <time>2021-04-18T08:36:04Z</time>
      </trkpt>
      <trkpt lat="44.00129" lon="2.25054">
        <ele>367</ele>
        <time>2021-04-18T08:36:05Z</time>
      </trkpt>
      <trkpt lat="44.0013" lon="2.25056">
        <ele>367</ele>
        <time>2021-04-18T08:36:06Z</time>
      </trkpt>
      <trkpt lat="44.00131" lon="2.25056">
        <ele>367</ele>
        <time>2021-04-18T08:36:07Z</time>
      </trkpt>
      <trkpt lat="44.00132" lon="2.25057">
        <ele>366</ele>
        <time>2021-04-18T08:36:08Z</time>
      </trkpt>
      <trkpt lat="44.00134" lon="2.25057">
        <ele>366</ele>
        <time>2021-04-18T08:36:09Z</time>
      </trkpt>
      <trkpt lat="44.00135" lon="2.25058">
        <ele>366</ele>
        <time>2021-04-18T08:36:10Z</time>
      </trkpt>
      <trkpt lat="44.00137" lon="2.25059">
        <ele>366</ele>
        <time>2021-04-18T08:36:11Z</time>
      </trkpt>
      <trkpt lat="44.00139" lon="2.25059">
        <ele>366</ele>
        <time>2021-04-18T08:36:12Z</time>
      </trkpt>
      <trkpt lat="44.0014" lon="2.2506">
        <ele>366</ele>
        <time>2021-04-18T08:36:13Z</time>
      </trkpt>
      <trkpt lat="44.00141" lon="2.25061">
        <ele>366</ele>
        <time>2021-04-18T08:36:14Z</time>
      </trkpt>
      <trkpt lat="44.00143" lon="2.25061">
        <ele>366</ele>
        <time>2021-04-18T08:36:15Z</time>
      </trkpt>
      <trkpt lat="44.00144" lon="2.25061">
        <ele>367</ele>
        <time>2021-04-18T08:36:16Z</time>
      </trkpt>
      <trkpt lat="44.00145" lon="2.25062">
        <ele>367</ele>
        <time>2021-04-18T08:36:17Z</time>
      </trkpt>
      <trkpt lat="44.00146" lon="2.25062">
        <ele>367</ele>
        <time>2021-04-18T08:36:18Z</time>
      </trkpt>
      <trkpt lat="44.00147" lon="2.25063">
        <ele>366</ele>
        <time>2021-04-18T08:36:19Z</time>
      </trkpt>
      <trkpt lat="44.00148" lon="2.25063">
        <ele>367</ele>
        <time>2021-04-18T08:36:20Z</time>
      </trkpt>
      <trkpt lat="44.00149" lon="2.25064">
        <ele>367</ele>
        <time>2021-04-18T08:36:21Z</time>
      </trkpt>
      <trkpt lat="44.0015" lon="2.25065">
        <ele>367</ele>
        <time>2021-04-18T08:36:22Z</time>
      </trkpt>
      <trkpt lat="44.0015" lon="2.25065">
        <ele>368</ele>
        <time>2021-04-18T08:36:23Z</time>
      </trkpt>
      <trkpt lat="44.00151" lon="2.25066">
        <ele>368</ele>
        <time>2021-04-18T08:36:24Z</time>
      </trkpt>
      <trkpt lat="44.00152" lon="2.25067">
        <ele>367</ele>
        <time>2021-04-18T08:36:25Z</time>
      </trkpt>
      <trkpt lat="44.00153" lon="2.25067">
        <ele>368</ele>
        <time>2021-04-18T08:36:26Z</time>
      </trkpt>
      <trkpt lat="44.00154" lon="2.25068">
        <ele>367</ele>
        <time>2021-04-18T08:36:27Z</time>
      </trkpt>
      <trkpt lat="44.00155" lon="2.25068">
        <ele>366</ele>
        <time>2021-04-18T08:36:28Z</time>
      </trkpt>
      <trkpt lat="44.00157" lon="2.25068">
        <ele>366</ele>
        <time>2021-04-18T08:36:29Z</time>
      </trkpt>
      <trkpt lat="44.00158" lon="2.25068">
        <ele>365</ele>
        <time>2021-04-18T08:36:30Z</time>
      </trkpt>
      <trkpt lat="44.00158" lon="2.25068">
        <ele>365</ele>
        <time>2021-04-18T08:36:31Z</time>
      </trkpt>
      <trkpt lat="44.00158" lon="2.25068">
        <ele>365</ele>
        <time>2021-04-18T08:36:32Z</time>
      </trkpt>
      <trkpt lat="44.00158" lon="2.25068">
        <ele>365</ele>
        <time>2021-04-18T08:36:32Z</time>
      </trkpt>
      <trkpt lat="44.00158" lon="2.25068">
        <ele>365</ele>
        <time>2021-04-18T08:36:32Z</time>
      </trkpt>
      <trkpt lat="44.00164" lon="2.25071">
        <ele>362</ele>
        <time>2021-04-18T08:36:41Z</time>
      </trkpt>
      <trkpt lat="44.00165" lon="2.25072">
        <ele>362</ele>
        <time>2021-04-18T08:36:42Z</time>
      </trkpt>
      <trkpt lat="44.00166" lon="2.25073">
        <ele>362</ele>
        <time>2021-04-18T08:36:43Z</time>
      </trkpt>
      <trkpt lat="44.00167" lon="2.25073">
        <ele>362</ele>
        <time>2021-04-18T08:36:44Z</time>
      </trkpt>
      <trkpt lat="44.00168" lon="2.25074">
        <ele>362</ele>
        <time>2021-04-18T08:36:45Z</time>
      </trkpt>
      <trkpt lat="44.00168" lon="2.25075">
        <ele>362</ele>
        <time>2021-04-18T08:36:46Z</time>
      </trkpt>
      <trkpt lat="44.00169" lon="2.25077">
        <ele>362</ele>
        <time>2021-04-18T08:36:47Z</time>
      </trkpt>
      <trkpt lat="44.0017" lon="2.25078">
        <ele>363</ele>
        <time>2021-04-18T08:36:48Z</time>
      </trkpt>
      <trkpt lat="44.00171" lon="2.25079">
        <ele>365</ele>
        <time>2021-04-18T08:36:49Z</time>
      </trkpt>
      <trkpt lat="44.00171" lon="2.25079">
        <ele>364</ele>
        <time>2021-04-18T08:36:50Z</time>
      </trkpt>
      <trkpt lat="44.00172" lon="2.2508">
        <ele>364</ele>
        <time>2021-04-18T08:36:51Z</time>
      </trkpt>
      <trkpt lat="44.00173" lon="2.25081">
        <ele>363</ele>
        <time>2021-04-18T08:36:52Z</time>
      </trkpt>
      <trkpt lat="44.00174" lon="2.25083">
        <ele>364</ele>
        <time>2021-04-18T08:36:53Z</time>
      </trkpt>
      <trkpt lat="44.00175" lon="2.25084">
        <ele>363</ele>
        <time>2021-04-18T08:36:54Z</time>
      </trkpt>
      <trkpt lat="44.00176" lon="2.25085">
        <ele>364</ele>
        <time>2021-04-18T08:36:55Z</time>
      </trkpt>
      <trkpt lat="44.00176" lon="2.25086">
        <ele>365</ele>
        <time>2021-04-18T08:36:56Z</time>
      </trkpt>
      <trkpt lat="44.00177" lon="2.25086">
        <ele>365</ele>
        <time>2021-04-18T08:36:57Z</time>
      </trkpt>
      <trkpt lat="44.00178" lon="2.25088">
        <ele>365</ele>
        <time>2021-04-18T08:36:58Z</time>
      </trkpt>
      <trkpt lat="44.00179" lon="2.25089">
        <ele>366</ele>
        <time>2021-04-18T08:36:59Z</time>
      </trkpt>
      <trkpt lat="44.00179" lon="2.25091">
        <ele>365</ele>
        <time>2021-04-18T08:37:00Z</time>
      </trkpt>
      <trkpt lat="44.0018" lon="2.25092">
        <ele>365</ele>
        <time>2021-04-18T08:37:01Z</time>
      </trkpt>
      <trkpt lat="44.00182" lon="2.25093">
        <ele>365</ele>
        <time>2021-04-18T08:37:02Z</time>
      </trkpt>
      <trkpt lat="44.00182" lon="2.25095">
        <ele>365</ele>
        <time>2021-04-18T08:37:03Z</time>
      </trkpt>
      <trkpt lat="44.00184" lon="2.25096">
        <ele>364</ele>
        <time>2021-04-18T08:37:04Z</time>
      </trkpt>
      <trkpt lat="44.00184" lon="2.25098">
        <ele>364</ele>
        <time>2021-04-18T08:37:05Z</time>
      </trkpt>
      <trkpt lat="44.00185" lon="2.251">
        <ele>364</ele>
        <time>2021-04-18T08:37:06Z</time>
      </trkpt>
      <trkpt lat="44.00186" lon="2.25102">
        <ele>363</ele>
        <time>2021-04-18T08:37:07Z</time>
      </trkpt>
      <trkpt lat="44.00186" lon="2.25103">
        <ele>363</ele>
        <time>2021-04-18T08:37:08Z</time>
      </trkpt>
      <trkpt lat="44.00187" lon="2.25105">
        <ele>363</ele>
        <time>2021-04-18T08:37:09Z</time>
      </trkpt>
      <trkpt lat="44.00188" lon="2.25106">
        <ele>362</ele>
        <time>2021-04-18T08:37:10Z</time>
      </trkpt>
      <trkpt lat="44.00188" lon="2.25107">
        <ele>361</ele>
        <time>2021-04-18T08:37:11Z</time>
      </trkpt>
      <trkpt lat="44.00189" lon="2.25108">
        <ele>362</ele>
        <time>2021-04-18T08:37:12Z</time>
      </trkpt>
      <trkpt lat="44.0019" lon="2.2511">
        <ele>362</ele>
        <time>2021-04-18T08:37:13Z</time>
      </trkpt>
      <trkpt lat="44.0019" lon="2.25111">
        <ele>362</ele>
        <time>2021-04-18T08:37:14Z</time>
      </trkpt>
      <trkpt lat="44.00191" lon="2.25113">
        <ele>361</ele>
        <time>2021-04-18T08:37:15Z</time>
      </trkpt>
      <trkpt lat="44.00192" lon="2.25114">
        <ele>361</ele>
        <time>2021-04-18T08:37:16Z</time>
      </trkpt>
      <trkpt lat="44.00193" lon="2.25115">
        <ele>360</ele>
        <time>2021-04-18T08:37:17Z</time>
      </trkpt>
      <trkpt lat="44.00193" lon="2.25117">
        <ele>359</ele>
        <time>2021-04-18T08:37:18Z</time>
      </trkpt>
      <trkpt lat="44.00194" lon="2.25118">
        <ele>359</ele>
        <time>2021-04-18T08:37:19Z</time>
      </trkpt>
      <trkpt lat="44.00195" lon="2.25119">
        <ele>359</ele>
        <time>2021-04-18T08:37:20Z</time>
      </trkpt>
      <trkpt lat="44.00196" lon="2.25121">
        <ele>359</ele>
        <time>2021-04-18T08:37:21Z</time>
      </trkpt>
      <trkpt lat="44.00196" lon="2.25123">
        <ele>359</ele>
        <time>2021-04-18T08:37:22Z</time>
      </trkpt>
      <trkpt lat="44.00197" lon="2.25124">
        <ele>358</ele>
        <time>2021-04-18T08:37:23Z</time>
      </trkpt>
      <trkpt lat="44.00197" lon="2.25126">
        <ele>358</ele>
        <time>2021-04-18T08:37:24Z</time>
      </trkpt>
      <trkpt lat="44.00197" lon="2.25127">
        <ele>358</ele>
        <time>2021-04-18T08:37:25Z</time>
      </trkpt>
      <trkpt lat="44.00198" lon="2.25129">
        <ele>358</ele>
        <time>2021-04-18T08:37:26Z</time>
      </trkpt>
      <trkpt lat="44.00198" lon="2.25131">
        <ele>358</ele>
        <time>2021-04-18T08:37:27Z</time>
      </trkpt>
      <trkpt lat="44.00198" lon="2.25133">
        <ele>358</ele>
        <time>2021-04-18T08:37:28Z</time>
      </trkpt>
      <trkpt lat="44.00199" lon="2.25136">
        <ele>358</ele>
        <time>2021-04-18T08:37:29Z</time>
      </trkpt>
      <trkpt lat="44.002" lon="2.25137">
        <ele>358</ele>
        <time>2021-04-18T08:37:30Z</time>
      </trkpt>
      <trkpt lat="44.002" lon="2.25139">
        <ele>358</ele>
        <time>2021-04-18T08:37:31Z</time>
      </trkpt>
      <trkpt lat="44.002" lon="2.25141">
        <ele>358</ele>
        <time>2021-04-18T08:37:32Z</time>
      </trkpt>
      <trkpt lat="44.00201" lon="2.25143">
        <ele>358</ele>
        <time>2021-04-18T08:37:33Z</time>
      </trkpt>
      <trkpt lat="44.00201" lon="2.25145">
        <ele>357</ele>
        <time>2021-04-18T08:37:34Z</time>
      </trkpt>
      <trkpt lat="44.00201" lon="2.25146">
        <ele>357</ele>
        <time>2021-04-18T08:37:35Z</time>
      </trkpt>
      <trkpt lat="44.00201" lon="2.25148">
        <ele>356</ele>
        <time>2021-04-18T08:37:36Z</time>
      </trkpt>
      <trkpt lat="44.00201" lon="2.2515">
        <ele>356</ele>
        <time>2021-04-18T08:37:37Z</time>
      </trkpt>
      <trkpt lat="44.00201" lon="2.25152">
        <ele>356</ele>
        <time>2021-04-18T08:37:38Z</time>
      </trkpt>
      <trkpt lat="44.00201" lon="2.25154">
        <ele>355</ele>
        <time>2021-04-18T08:37:39Z</time>
      </trkpt>
      <trkpt lat="44.00201" lon="2.25156">
        <ele>354</ele>
        <time>2021-04-18T08:37:40Z</time>
      </trkpt>
      <trkpt lat="44.00201" lon="2.25158">
        <ele>353</ele>
        <time>2021-04-18T08:37:41Z</time>
      </trkpt>
      <trkpt lat="44.00202" lon="2.2516">
        <ele>353</ele>
        <time>2021-04-18T08:37:42Z</time>
      </trkpt>
      <trkpt lat="44.00202" lon="2.25162">
        <ele>353</ele>
        <time>2021-04-18T08:37:43Z</time>
      </trkpt>
      <trkpt lat="44.00202" lon="2.25165">
        <ele>353</ele>
        <time>2021-04-18T08:37:44Z</time>
      </trkpt>
      <trkpt lat="44.00202" lon="2.25167">
        <ele>352</ele>
        <time>2021-04-18T08:37:45Z</time>
      </trkpt>
      <trkpt lat="44.00202" lon="2.25169">
        <ele>352</ele>
        <time>2021-04-18T08:37:46Z</time>
      </trkpt>
      <trkpt lat="44.00202" lon="2.25171">
        <ele>351</ele>
        <time>2021-04-18T08:37:47Z</time>
      </trkpt>
      <trkpt lat="44.00202" lon="2.25173">
        <ele>351</ele>
        <time>2021-04-18T08:37:48Z</time>
      </trkpt>
      <trkpt lat="44.00203" lon="2.25176">
        <ele>350</ele>
        <time>2021-04-18T08:37:49Z</time>
      </trkpt>
      <trkpt lat="44.00202" lon="2.25178">
        <ele>350</ele>
        <time>2021-04-18T08:37:50Z</time>
      </trkpt>
      <trkpt lat="44.00202" lon="2.25179">
        <ele>350</ele>
        <time>2021-04-18T08:37:51Z</time>
      </trkpt>
      <trkpt lat="44.00202" lon="2.25181">
        <ele>350</ele>
        <time>2021-04-18T08:37:52Z</time>
      </trkpt>
      <trkpt lat="44.00201" lon="2.25183">
        <ele>349</ele>
        <time>2021-04-18T08:37:53Z</time>
      </trkpt>
      <trkpt lat="44.00201" lon="2.25185">
        <ele>349</ele>
        <time>2021-04-18T08:37:54Z</time>
      </trkpt>
      <trkpt lat="44.00201" lon="2.25187">
        <ele>349</ele>
        <time>2021-04-18T08:37:55Z</time>
      </trkpt>
      <trkpt lat="44.00201" lon="2.25189">
        <ele>348</ele>
        <time>2021-04-18T08:37:56Z</time>
      </trkpt>
      <trkpt lat="44.00201" lon="2.25191">
        <ele>348</ele>
        <time>2021-04-18T08:37:57Z</time>
      </trkpt>
      <trkpt lat="44.00201" lon="2.25193">
        <ele>347</ele>
        <time>2021-04-18T08:37:58Z</time>
      </trkpt>
      <trkpt lat="44.00201" lon="2.25195">
        <ele>347</ele>
        <time>2021-04-18T08:38:00Z</time>
      </trkpt>
      <trkpt lat="44.002" lon="2.25197">
        <ele>347</ele>
        <time>2021-04-18T08:38:00Z</time>
      </trkpt>
      <trkpt lat="44.002" lon="2.25199">
        <ele>348</ele>
        <time>2021-04-18T08:38:01Z</time>
      </trkpt>
      <trkpt lat="44.002" lon="2.25202">
        <ele>348</ele>
        <time>2021-04-18T08:38:03Z</time>
      </trkpt>
      <trkpt lat="44.00199" lon="2.25203">
        <ele>348</ele>
        <time>2021-04-18T08:38:04Z</time>
      </trkpt>
      <trkpt lat="44.00199" lon="2.25205">
        <ele>348</ele>
        <time>2021-04-18T08:38:05Z</time>
      </trkpt>
      <trkpt lat="44.00199" lon="2.25206">
        <ele>349</ele>
        <time>2021-04-18T08:38:06Z</time>
      </trkpt>
      <trkpt lat="44.00198" lon="2.25208">
        <ele>348</ele>
        <time>2021-04-18T08:38:07Z</time>
      </trkpt>
      <trkpt lat="44.00198" lon="2.2521">
        <ele>349</ele>
        <time>2021-04-18T08:38:08Z</time>
      </trkpt>
      <trkpt lat="44.00197" lon="2.25211">
        <ele>349</ele>
        <time>2021-04-18T08:38:09Z</time>
      </trkpt>
      <trkpt lat="44.00197" lon="2.25213">
        <ele>350</ele>
        <time>2021-04-18T08:38:10Z</time>
      </trkpt>
      <trkpt lat="44.00197" lon="2.25214">
        <ele>350</ele>
        <time>2021-04-18T08:38:11Z</time>
      </trkpt>
      <trkpt lat="44.00197" lon="2.25215">
        <ele>350</ele>
        <time>2021-04-18T08:38:12Z</time>
      </trkpt>
      <trkpt lat="44.00197" lon="2.25216">
        <ele>349</ele>
        <time>2021-04-18T08:38:13Z</time>
      </trkpt>
      <trkpt lat="44.00197" lon="2.25217">
        <ele>350</ele>
        <time>2021-04-18T08:38:14Z</time>
      </trkpt>
      <trkpt lat="44.00197" lon="2.25217">
        <ele>350</ele>
        <time>2021-04-18T08:38:15Z</time>
      </trkpt>
      <trkpt lat="44.00197" lon="2.25219">
        <ele>350</ele>
        <time>2021-04-18T08:38:16Z</time>
      </trkpt>
      <trkpt lat="44.00196" lon="2.25221">
        <ele>349</ele>
        <time>2021-04-18T08:38:17Z</time>
      </trkpt>
      <trkpt lat="44.00196" lon="2.25223">
        <ele>349</ele>
        <time>2021-04-18T08:38:18Z</time>
      </trkpt>
      <trkpt lat="44.00196" lon="2.25224">
        <ele>347</ele>
        <time>2021-04-18T08:38:19Z</time>
      </trkpt>
      <trkpt lat="44.00196" lon="2.25224">
        <ele>347</ele>
        <time>2021-04-18T08:38:20Z</time>
      </trkpt>
      <trkpt lat="44.00196" lon="2.25226">
        <ele>347</ele>
        <time>2021-04-18T08:38:21Z</time>
      </trkpt>
      <trkpt lat="44.00196" lon="2.25226">
        <ele>347</ele>
        <time>2021-04-18T08:38:21Z</time>
      </trkpt>
      <trkpt lat="44.00196" lon="2.25226">
        <ele>347</ele>
        <time>2021-04-18T08:38:21Z</time>
      </trkpt>
      <trkpt lat="44.00195" lon="2.25231">
        <ele>343</ele>
        <time>2021-04-18T08:38:27Z</time>
      </trkpt>
      <trkpt lat="44.00194" lon="2.25233">
        <ele>343</ele>
        <time>2021-04-18T08:38:28Z</time>
      </trkpt>
      <trkpt lat="44.00194" lon="2.25234">
        <ele>343</ele>
        <time>2021-04-18T08:38:29Z</time>
      </trkpt>
      <trkpt lat="44.00194" lon="2.25235">
        <ele>343</ele>
        <time>2021-04-18T08:38:30Z</time>
      </trkpt>
      <trkpt lat="44.00194" lon="2.25236">
        <ele>343</ele>
        <time>2021-04-18T08:38:31Z</time>
      </trkpt>
      <trkpt lat="44.00195" lon="2.25235">
        <ele>342</ele>
        <time>2021-04-18T08:38:32Z</time>
      </trkpt>
      <trkpt lat="44.00194" lon="2.25236">
        <ele>342</ele>
        <time>2021-04-18T08:38:33Z</time>
      </trkpt>
      <trkpt lat="44.00194" lon="2.25236">
        <ele>341</ele>
        <time>2021-04-18T08:38:34Z</time>
      </trkpt>
      <trkpt lat="44.00193" lon="2.25236">
        <ele>341</ele>
        <time>2021-04-18T08:38:35Z</time>
      </trkpt>
      <trkpt lat="44.00192" lon="2.25236">
        <ele>340</ele>
        <time>2021-04-18T08:38:36Z</time>
      </trkpt>
      <trkpt lat="44.00193" lon="2.25236">
        <ele>340</ele>
        <time>2021-04-18T08:38:37Z</time>
      </trkpt>
      <trkpt lat="44.00192" lon="2.25235">
        <ele>340</ele>
        <time>2021-04-18T08:38:38Z</time>
      </trkpt>
      <trkpt lat="44.00192" lon="2.25234">
        <ele>340</ele>
        <time>2021-04-18T08:38:39Z</time>
      </trkpt>
      <trkpt lat="44.00192" lon="2.25233">
        <ele>340</ele>
        <time>2021-04-18T08:38:40Z</time>
      </trkpt>
      <trkpt lat="44.00192" lon="2.25233">
        <ele>340</ele>
        <time>2021-04-18T08:38:41Z</time>
      </trkpt>
      <trkpt lat="44.00192" lon="2.25232">
        <ele>340</ele>
        <time>2021-04-18T08:38:42Z</time>
      </trkpt>
      <trkpt lat="44.00191" lon="2.25231">
        <ele>340</ele>
        <time>2021-04-18T08:38:43Z</time>
      </trkpt>
      <trkpt lat="44.00191" lon="2.2523">
        <ele>340</ele>
        <time>2021-04-18T08:38:44Z</time>
      </trkpt>
      <trkpt lat="44.0019" lon="2.25229">
        <ele>340</ele>
        <time>2021-04-18T08:38:45Z</time>
      </trkpt>
      <trkpt lat="44.0019" lon="2.25229">
        <ele>340</ele>
        <time>2021-04-18T08:38:46Z</time>
      </trkpt>
      <trkpt lat="44.0019" lon="2.25228">
        <ele>339</ele>
        <time>2021-04-18T08:38:47Z</time>
      </trkpt>
      <trkpt lat="44.0019" lon="2.25227">
        <ele>340</ele>
        <time>2021-04-18T08:38:48Z</time>
      </trkpt>
      <trkpt lat="44.0019" lon="2.25225">
        <ele>340</ele>
        <time>2021-04-18T08:38:49Z</time>
      </trkpt>
      <trkpt lat="44.00189" lon="2.25224">
        <ele>339</ele>
        <time>2021-04-18T08:38:50Z</time>
      </trkpt>
      <trkpt lat="44.00188" lon="2.25224">
        <ele>339</ele>
        <time>2021-04-18T08:38:51Z</time>
      </trkpt>
      <trkpt lat="44.00187" lon="2.25223">
        <ele>338</ele>
        <time>2021-04-18T08:38:52Z</time>
      </trkpt>
      <trkpt lat="44.00187" lon="2.25222">
        <ele>338</ele>
        <time>2021-04-18T08:38:53Z</time>
      </trkpt>
      <trkpt lat="44.00186" lon="2.25221">
        <ele>338</ele>
        <time>2021-04-18T08:38:54Z</time>
      </trkpt>
      <trkpt lat="44.00185" lon="2.2522">
        <ele>338</ele>
        <time>2021-04-18T08:38:55Z</time>
      </trkpt>
      <trkpt lat="44.00184" lon="2.25219">
        <ele>338</ele>
        <time>2021-04-18T08:38:56Z</time>
      </trkpt>
      <trkpt lat="44.00182" lon="2.25218">
        <ele>338</ele>
        <time>2021-04-18T08:38:57Z</time>
      </trkpt>
      <trkpt lat="44.0018" lon="2.25217">
        <ele>339</ele>
        <time>2021-04-18T08:38:58Z</time>
      </trkpt>
      <trkpt lat="44.00179" lon="2.25217">
        <ele>339</ele>
        <time>2021-04-18T08:38:59Z</time>
      </trkpt>
      <trkpt lat="44.00178" lon="2.25217">
        <ele>338</ele>
        <time>2021-04-18T08:39:00Z</time>
      </trkpt>
      <trkpt lat="44.00177" lon="2.25218">
        <ele>338</ele>
        <time>2021-04-18T08:39:01Z</time>
      </trkpt>
      <trkpt lat="44.00177" lon="2.25219">
        <ele>339</ele>
        <time>2021-04-18T08:39:02Z</time>
      </trkpt>
      <trkpt lat="44.00176" lon="2.2522">
        <ele>339</ele>
        <time>2021-04-18T08:39:03Z</time>
      </trkpt>
      <trkpt lat="44.00176" lon="2.2522">
        <ele>339</ele>
        <time>2021-04-18T08:39:04Z</time>
      </trkpt>
      <trkpt lat="44.00174" lon="2.25221">
        <ele>339</ele>
        <time>2021-04-18T08:39:05Z</time>
      </trkpt>
      <trkpt lat="44.00174" lon="2.25221">
        <ele>339</ele>
        <time>2021-04-18T08:39:06Z</time>
      </trkpt>
      <trkpt lat="44.00172" lon="2.25221">
        <ele>341</ele>
        <time>2021-04-18T08:39:07Z</time>
      </trkpt>
      <trkpt lat="44.00171" lon="2.25221">
        <ele>341</ele>
        <time>2021-04-18T08:39:08Z</time>
      </trkpt>
      <trkpt lat="44.00169" lon="2.25222">
        <ele>341</ele>
        <time>2021-04-18T08:39:09Z</time>
      </trkpt>
      <trkpt lat="44.00169" lon="2.25222">
        <ele>342</ele>
        <time>2021-04-18T08:39:10Z</time>
      </trkpt>
      <trkpt lat="44.00168" lon="2.25222">
        <ele>342</ele>
        <time>2021-04-18T08:39:11Z</time>
      </trkpt>
      <trkpt lat="44.00167" lon="2.25222">
        <ele>342</ele>
        <time>2021-04-18T08:39:12Z</time>
      </trkpt>
      <trkpt lat="44.00166" lon="2.25222">
        <ele>342</ele>
        <time>2021-04-18T08:39:13Z</time>
      </trkpt>
      <trkpt lat="44.00164" lon="2.25222">
        <ele>342</ele>
        <time>2021-04-18T08:39:14Z</time>
      </trkpt>
      <trkpt lat="44.00163" lon="2.25222">
        <ele>342</ele>
        <time>2021-04-18T08:39:15Z</time>
      </trkpt>
      <trkpt lat="44.00162" lon="2.25221">
        <ele>342</ele>
        <time>2021-04-18T08:39:16Z</time>
      </trkpt>
      <trkpt lat="44.0016" lon="2.25221">
        <ele>342</ele>
        <time>2021-04-18T08:39:17Z</time>
      </trkpt>
      <trkpt lat="44.00159" lon="2.25221">
        <ele>342</ele>
        <time>2021-04-18T08:39:18Z</time>
      </trkpt>
      <trkpt lat="44.00158" lon="2.25221">
        <ele>343</ele>
        <time>2021-04-18T08:39:19Z</time>
      </trkpt>
      <trkpt lat="44.00157" lon="2.25221">
        <ele>343</ele>
        <time>2021-04-18T08:39:20Z</time>
      </trkpt>
      <trkpt lat="44.00155" lon="2.25221">
        <ele>344</ele>
        <time>2021-04-18T08:39:21Z</time>
      </trkpt>
      <trkpt lat="44.00154" lon="2.25221">
        <ele>344</ele>
        <time>2021-04-18T08:39:22Z</time>
      </trkpt>
      <trkpt lat="44.00153" lon="2.25221">
        <ele>345</ele>
        <time>2021-04-18T08:39:23Z</time>
      </trkpt>
      <trkpt lat="44.00152" lon="2.25221">
        <ele>345</ele>
        <time>2021-04-18T08:39:24Z</time>
      </trkpt>
      <trkpt lat="44.0015" lon="2.2522">
        <ele>346</ele>
        <time>2021-04-18T08:39:25Z</time>
      </trkpt>
      <trkpt lat="44.00149" lon="2.2522">
        <ele>346</ele>
        <time>2021-04-18T08:39:26Z</time>
      </trkpt>
      <trkpt lat="44.00147" lon="2.2522">
        <ele>346</ele>
        <time>2021-04-18T08:39:27Z</time>
      </trkpt>
      <trkpt lat="44.00146" lon="2.2522">
        <ele>347</ele>
        <time>2021-04-18T08:39:28Z</time>
      </trkpt>
      <trkpt lat="44.00144" lon="2.2522">
        <ele>347</ele>
        <time>2021-04-18T08:39:29Z</time>
      </trkpt>
      <trkpt lat="44.00143" lon="2.2522">
        <ele>347</ele>
        <time>2021-04-18T08:39:30Z</time>
      </trkpt>
      <trkpt lat="44.00141" lon="2.2522">
        <ele>348</ele>
        <time>2021-04-18T08:39:31Z</time>
      </trkpt>
      <trkpt lat="44.0014" lon="2.2522">
        <ele>348</ele>
        <time>2021-04-18T08:39:32Z</time>
      </trkpt>
      <trkpt lat="44.00138" lon="2.2522">
        <ele>348</ele>
        <time>2021-04-18T08:39:33Z</time>
      </trkpt>
      <trkpt lat="44.00137" lon="2.2522">
        <ele>348</ele>
        <time>2021-04-18T08:39:34Z</time>
      </trkpt>
      <trkpt lat="44.00135" lon="2.2522">
        <ele>348</ele>
        <time>2021-04-18T08:39:35Z</time>
      </trkpt>
      <trkpt lat="44.00134" lon="2.2522">
        <ele>348</ele>
        <time>2021-04-18T08:39:36Z</time>
      </trkpt>
      <trkpt lat="44.00133" lon="2.2522">
        <ele>349</ele>
        <time>2021-04-18T08:39:37Z</time>
      </trkpt>
      <trkpt lat="44.00132" lon="2.2522">
        <ele>349</ele>
        <time>2021-04-18T08:39:38Z</time>
      </trkpt>
      <trkpt lat="44.00131" lon="2.2522">
        <ele>349</ele>
        <time>2021-04-18T08:39:39Z</time>
      </trkpt>
      <trkpt lat="44.0013" lon="2.2522">
        <ele>349</ele>
        <time>2021-04-18T08:39:40Z</time>
      </trkpt>
      <trkpt lat="44.00129" lon="2.2522">
        <ele>349</ele>
        <time>2021-04-18T08:39:41Z</time>
      </trkpt>
      <trkpt lat="44.00127" lon="2.2522">
        <ele>349</ele>
        <time>2021-04-18T08:39:42Z</time>
      </trkpt>
      <trkpt lat="44.00126" lon="2.2522">
        <ele>349</ele>
        <time>2021-04-18T08:39:43Z</time>
      </trkpt>
      <trkpt lat="44.00125" lon="2.25219">
        <ele>349</ele>
        <time>2021-04-18T08:39:44Z</time>
      </trkpt>
      <trkpt lat="44.00124" lon="2.25219">
        <ele>349</ele>
        <time>2021-04-18T08:39:45Z</time>
      </trkpt>
      <trkpt lat="44.00122" lon="2.25219">
        <ele>349</ele>
        <time>2021-04-18T08:39:46Z</time>
      </trkpt>
      <trkpt lat="44.00121" lon="2.25218">
        <ele>349</ele>
        <time>2021-04-18T08:39:47Z</time>
      </trkpt>
      <trkpt lat="44.0012" lon="2.25219">
        <ele>350</ele>
        <time>2021-04-18T08:39:48Z</time>
      </trkpt>
      <trkpt lat="44.00119" lon="2.25218">
        <ele>350</ele>
        <time>2021-04-18T08:39:49Z</time>
      </trkpt>
      <trkpt lat="44.00118" lon="2.25218">
        <ele>350</ele>
        <time>2021-04-18T08:39:50Z</time>
      </trkpt>
      <trkpt lat="44.00116" lon="2.25218">
        <ele>350</ele>
        <time>2021-04-18T08:39:51Z</time>
      </trkpt>
      <trkpt lat="44.00115" lon="2.25218">
        <ele>350</ele>
        <time>2021-04-18T08:39:52Z</time>
      </trkpt>
      <trkpt lat="44.00114" lon="2.25219">
        <ele>350</ele>
        <time>2021-04-18T08:39:53Z</time>
      </trkpt>
      <trkpt lat="44.00113" lon="2.2522">
        <ele>351</ele>
        <time>2021-04-18T08:39:54Z</time>
      </trkpt>
      <trkpt lat="44.00112" lon="2.25221">
        <ele>351</ele>
        <time>2021-04-18T08:39:55Z</time>
      </trkpt>
      <trkpt lat="44.0011" lon="2.25221">
        <ele>351</ele>
        <time>2021-04-18T08:39:56Z</time>
      </trkpt>
      <trkpt lat="44.00109" lon="2.25222">
        <ele>352</ele>
        <time>2021-04-18T08:39:57Z</time>
      </trkpt>
      <trkpt lat="44.00108" lon="2.25222">
        <ele>352</ele>
        <time>2021-04-18T08:39:58Z</time>
      </trkpt>
      <trkpt lat="44.00108" lon="2.25222">
        <ele>352</ele>
        <time>2021-04-18T08:39:59Z</time>
      </trkpt>
      <trkpt lat="44.00108" lon="2.25223">
        <ele>352</ele>
        <time>2021-04-18T08:40:00Z</time>
      </trkpt>
      <trkpt lat="44.00107" lon="2.25223">
        <ele>352</ele>
        <time>2021-04-18T08:40:01Z</time>
      </trkpt>
      <trkpt lat="44.00107" lon="2.25223">
        <ele>352</ele>
        <time>2021-04-18T08:40:01Z</time>
      </trkpt>
      <trkpt lat="44.00107" lon="2.25223">
        <ele>352</ele>
        <time>2021-04-18T08:40:01Z</time>
      </trkpt>
      <trkpt lat="44.00101" lon="2.25223">
        <ele>352</ele>
        <time>2021-04-18T08:40:16Z</time>
      </trkpt>
      <trkpt lat="44.001" lon="2.25224">
        <ele>353</ele>
        <time>2021-04-18T08:40:17Z</time>
      </trkpt>
      <trkpt lat="44.00098" lon="2.25224">
        <ele>353</ele>
        <time>2021-04-18T08:40:18Z</time>
      </trkpt>
      <trkpt lat="44.00097" lon="2.25225">
        <ele>354</ele>
        <time>2021-04-18T08:40:19Z</time>
      </trkpt>
      <trkpt lat="44.00095" lon="2.25225">
        <ele>354</ele>
        <time>2021-04-18T08:40:20Z</time>
      </trkpt>
      <trkpt lat="44.00094" lon="2.25226">
        <ele>354</ele>
        <time>2021-04-18T08:40:21Z</time>
      </trkpt>
      <trkpt lat="44.00092" lon="2.25226">
        <ele>354</ele>
        <time>2021-04-18T08:40:22Z</time>
      </trkpt>
      <trkpt lat="44.00091" lon="2.25227">
        <ele>354</ele>
        <time>2021-04-18T08:40:23Z</time>
      </trkpt>
      <trkpt lat="44.00089" lon="2.25229">
        <ele>354</ele>
        <time>2021-04-18T08:40:24Z</time>
      </trkpt>
      <trkpt lat="44.00088" lon="2.2523">
        <ele>354</ele>
        <time>2021-04-18T08:40:25Z</time>
      </trkpt>
      <trkpt lat="44.00087" lon="2.2523">
        <ele>354</ele>
        <time>2021-04-18T08:40:26Z</time>
      </trkpt>
      <trkpt lat="44.00086" lon="2.25231">
        <ele>355</ele>
        <time>2021-04-18T08:40:27Z</time>
      </trkpt>
      <trkpt lat="44.00085" lon="2.25232">
        <ele>355</ele>
        <time>2021-04-18T08:40:28Z</time>
      </trkpt>
      <trkpt lat="44.00084" lon="2.25234">
        <ele>355</ele>
        <time>2021-04-18T08:40:29Z</time>
      </trkpt>
      <trkpt lat="44.00084" lon="2.25235">
        <ele>355</ele>
        <time>2021-04-18T08:40:30Z</time>
      </trkpt>
      <trkpt lat="44.00084" lon="2.25237">
        <ele>355</ele>
        <time>2021-04-18T08:40:31Z</time>
      </trkpt>
      <trkpt lat="44.00083" lon="2.25238">
        <ele>355</ele>
        <time>2021-04-18T08:40:32Z</time>
      </trkpt>
      <trkpt lat="44.00083" lon="2.25239">
        <ele>355</ele>
        <time>2021-04-18T08:40:33Z</time>
      </trkpt>
      <trkpt lat="44.00082" lon="2.2524">
        <ele>355</ele>
        <time>2021-04-18T08:40:34Z</time>
      </trkpt>
      <trkpt lat="44.00082" lon="2.25241">
        <ele>355</ele>
        <time>2021-04-18T08:40:35Z</time>
      </trkpt>
      <trkpt lat="44.00082" lon="2.25243">
        <ele>355</ele>
        <time>2021-04-18T08:40:36Z</time>
      </trkpt>
      <trkpt lat="44.00081" lon="2.25244">
        <ele>355</ele>
        <time>2021-04-18T08:40:37Z</time>
      </trkpt>
      <trkpt lat="44.0008" lon="2.25246">
        <ele>356</ele>
        <time>2021-04-18T08:40:38Z</time>
      </trkpt>
      <trkpt lat="44.00079" lon="2.25247">
        <ele>356</ele>
        <time>2021-04-18T08:40:39Z</time>
      </trkpt>
      <trkpt lat="44.00078" lon="2.25249">
        <ele>356</ele>
        <time>2021-04-18T08:40:40Z</time>
      </trkpt>
      <trkpt lat="44.00078" lon="2.25251">
        <ele>355</ele>
        <time>2021-04-18T08:40:41Z</time>
      </trkpt>
      <trkpt lat="44.00078" lon="2.25252">
        <ele>356</ele>
        <time>2021-04-18T08:40:42Z</time>
      </trkpt>
      <trkpt lat="44.00078" lon="2.25254">
        <ele>355</ele>
        <time>2021-04-18T08:40:43Z</time>
      </trkpt>
      <trkpt lat="44.00079" lon="2.25255">
        <ele>355</ele>
        <time>2021-04-18T08:40:44Z</time>
      </trkpt>
      <trkpt lat="44.00079" lon="2.25256">
        <ele>356</ele>
        <time>2021-04-18T08:40:45Z</time>
      </trkpt>
      <trkpt lat="44.00079" lon="2.25258">
        <ele>355</ele>
        <time>2021-04-18T08:40:46Z</time>
      </trkpt>
      <trkpt lat="44.00079" lon="2.25259">
        <ele>355</ele>
        <time>2021-04-18T08:40:47Z</time>
      </trkpt>
      <trkpt lat="44.00079" lon="2.25261">
        <ele>355</ele>
        <time>2021-04-18T08:40:48Z</time>
      </trkpt>
      <trkpt lat="44.00079" lon="2.25262">
        <ele>356</ele>
        <time>2021-04-18T08:40:49Z</time>
      </trkpt>
      <trkpt lat="44.0008" lon="2.25264">
        <ele>356</ele>
        <time>2021-04-18T08:40:50Z</time>
      </trkpt>
      <trkpt lat="44.00081" lon="2.25266">
        <ele>356</ele>
        <time>2021-04-18T08:40:51Z</time>
      </trkpt>
      <trkpt lat="44.00081" lon="2.25268">
        <ele>356</ele>
        <time>2021-04-18T08:40:52Z</time>
      </trkpt>
      <trkpt lat="44.00082" lon="2.2527">
        <ele>356</ele>
        <time>2021-04-18T08:40:53Z</time>
      </trkpt>
      <trkpt lat="44.00082" lon="2.25272">
        <ele>356</ele>
        <time>2021-04-18T08:40:54Z</time>
      </trkpt>
      <trkpt lat="44.00083" lon="2.25273">
        <ele>356</ele>
        <time>2021-04-18T08:40:55Z</time>
      </trkpt>
      <trkpt lat="44.00084" lon="2.25274">
        <ele>356</ele>
        <time>2021-04-18T08:40:56Z</time>
      </trkpt>
      <trkpt lat="44.00084" lon="2.25276">
        <ele>356</ele>
        <time>2021-04-18T08:40:57Z</time>
      </trkpt>
      <trkpt lat="44.00085" lon="2.25277">
        <ele>356</ele>
        <time>2021-04-18T08:40:58Z</time>
      </trkpt>
      <trkpt lat="44.00085" lon="2.25279">
        <ele>356</ele>
        <time>2021-04-18T08:40:59Z</time>
      </trkpt>
      <trkpt lat="44.00085" lon="2.2528">
        <ele>356</ele>
        <time>2021-04-18T08:41:00Z</time>
      </trkpt>
      <trkpt lat="44.00086" lon="2.25282">
        <ele>357</ele>
        <time>2021-04-18T08:41:01Z</time>
      </trkpt>
      <trkpt lat="44.00085" lon="2.25284">
        <ele>358</ele>
        <time>2021-04-18T08:41:02Z</time>
      </trkpt>
      <trkpt lat="44.00086" lon="2.25285">
        <ele>357</ele>
        <time>2021-04-18T08:41:03Z</time>
      </trkpt>
      <trkpt lat="44.00086" lon="2.25287">
        <ele>357</ele>
        <time>2021-04-18T08:41:04Z</time>
      </trkpt>
      <trkpt lat="44.00086" lon="2.25288">
        <ele>358</ele>
        <time>2021-04-18T08:41:05Z</time>
      </trkpt>
      <trkpt lat="44.00087" lon="2.2529">
        <ele>358</ele>
        <time>2021-04-18T08:41:06Z</time>
      </trkpt>
      <trkpt lat="44.00087" lon="2.25292">
        <ele>358</ele>
        <time>2021-04-18T08:41:07Z</time>
      </trkpt>
      <trkpt lat="44.00087" lon="2.25293">
        <ele>359</ele>
        <time>2021-04-18T08:41:08Z</time>
      </trkpt>
      <trkpt lat="44.00088" lon="2.25296">
        <ele>359</ele>
        <time>2021-04-18T08:41:09Z</time>
      </trkpt>
      <trkpt lat="44.00088" lon="2.25297">
        <ele>360</ele>
        <time>2021-04-18T08:41:10Z</time>
      </trkpt>
      <trkpt lat="44.00089" lon="2.25299">
        <ele>360</ele>
        <time>2021-04-18T08:41:11Z</time>
      </trkpt>
      <trkpt lat="44.00089" lon="2.25301">
        <ele>360</ele>
        <time>2021-04-18T08:41:12Z</time>
      </trkpt>
      <trkpt lat="44.0009" lon="2.25302">
        <ele>361</ele>
        <time>2021-04-18T08:41:13Z</time>
      </trkpt>
      <trkpt lat="44.0009" lon="2.25304">
        <ele>361</ele>
        <time>2021-04-18T08:41:14Z</time>
      </trkpt>
      <trkpt lat="44.0009" lon="2.25306">
        <ele>361</ele>
        <time>2021-04-18T08:41:15Z</time>
      </trkpt>
      <trkpt lat="44.00091" lon="2.25308">
        <ele>362</ele>
        <time>2021-04-18T08:41:16Z</time>
      </trkpt>
      <trkpt lat="44.00092" lon="2.25309">
        <ele>361</ele>
        <time>2021-04-18T08:41:17Z</time>
      </trkpt>
      <trkpt lat="44.00092" lon="2.25311">
        <ele>362</ele>
        <time>2021-04-18T08:41:18Z</time>
      </trkpt>
      <trkpt lat="44.00092" lon="2.25312">
        <ele>362</ele>
        <time>2021-04-18T08:41:19Z</time>
      </trkpt>
      <trkpt lat="44.00092" lon="2.25314">
        <ele>361</ele>
        <time>2021-04-18T08:41:20Z</time>
      </trkpt>
      <trkpt lat="44.00092" lon="2.25315">
        <ele>362</ele>
        <time>2021-04-18T08:41:21Z</time>
      </trkpt>
      <trkpt lat="44.00092" lon="2.25317">
        <ele>362</ele>
        <time>2021-04-18T08:41:22Z</time>
      </trkpt>
      <trkpt lat="44.00092" lon="2.25318">
        <ele>362</ele>
        <time>2021-04-18T08:41:23Z</time>
      </trkpt>
      <trkpt lat="44.00093" lon="2.2532">
        <ele>362</ele>
        <time>2021-04-18T08:41:24Z</time>
      </trkpt>
      <trkpt lat="44.00093" lon="2.25322">
        <ele>362</ele>
        <time>2021-04-18T08:41:25Z</time>
      </trkpt>
      <trkpt lat="44.00094" lon="2.25323">
        <ele>362</ele>
        <time>2021-04-18T08:41:26Z</time>
      </trkpt>
      <trkpt lat="44.00094" lon="2.25325">
        <ele>362</ele>
        <time>2021-04-18T08:41:27Z</time>
      </trkpt>
      <trkpt lat="44.00094" lon="2.25327">
        <ele>362</ele>
        <time>2021-04-18T08:41:28Z</time>
      </trkpt>
      <trkpt lat="44.00095" lon="2.25329">
        <ele>362</ele>
        <time>2021-04-18T08:41:29Z</time>
      </trkpt>
      <trkpt lat="44.00095" lon="2.25331">
        <ele>363</ele>
        <time>2021-04-18T08:41:30Z</time>
      </trkpt>
      <trkpt lat="44.00096" lon="2.25333">
        <ele>364</ele>
        <time>2021-04-18T08:41:31Z</time>
      </trkpt>
      <trkpt lat="44.00097" lon="2.25335">
        <ele>364</ele>
        <time>2021-04-18T08:41:32Z</time>
      </trkpt>
      <trkpt lat="44.00097" lon="2.25336">
        <ele>364</ele>
        <time>2021-04-18T08:41:33Z</time>
      </trkpt>
      <trkpt lat="44.00097" lon="2.25338">
        <ele>364</ele>
        <time>2021-04-18T08:41:34Z</time>
      </trkpt>
      <trkpt lat="44.00098" lon="2.25339">
        <ele>365</ele>
        <time>2021-04-18T08:41:35Z</time>
      </trkpt>
      <trkpt lat="44.00098" lon="2.25341">
        <ele>365</ele>
        <time>2021-04-18T08:41:36Z</time>
      </trkpt>
      <trkpt lat="44.00098" lon="2.25343">
        <ele>364</ele>
        <time>2021-04-18T08:41:37Z</time>
      </trkpt>
      <trkpt lat="44.00098" lon="2.25344">
        <ele>364</ele>
        <time>2021-04-18T08:41:38Z</time>
      </trkpt>
      <trkpt lat="44.00098" lon="2.25346">
        <ele>364</ele>
        <time>2021-04-18T08:41:39Z</time>
      </trkpt>
      <trkpt lat="44.00099" lon="2.25347">
        <ele>364</ele>
        <time>2021-04-18T08:41:40Z</time>
      </trkpt>
      <trkpt lat="44.001" lon="2.25349">
        <ele>365</ele>
        <time>2021-04-18T08:41:41Z</time>
      </trkpt>
      <trkpt lat="44.001" lon="2.25351">
        <ele>365</ele>
        <time>2021-04-18T08:41:42Z</time>
      </trkpt>
      <trkpt lat="44.00101" lon="2.25353">
        <ele>366</ele>
        <time>2021-04-18T08:41:43Z</time>
      </trkpt>
      <trkpt lat="44.00102" lon="2.25355">
        <ele>367</ele>
        <time>2021-04-18T08:41:44Z</time>
      </trkpt>
      <trkpt lat="44.00102" lon="2.25357">
        <ele>367</ele>
        <time>2021-04-18T08:41:45Z</time>
      </trkpt>
      <trkpt lat="44.00102" lon="2.25359">
        <ele>368</ele>
        <time>2021-04-18T08:41:46Z</time>
      </trkpt>
      <trkpt lat="44.00103" lon="2.25361">
        <ele>368</ele>
        <time>2021-04-18T08:41:47Z</time>
      </trkpt>
      <trkpt lat="44.00103" lon="2.25363">
        <ele>368</ele>
        <time>2021-04-18T08:41:48Z</time>
      </trkpt>
      <trkpt lat="44.00103" lon="2.25365">
        <ele>369</ele>
        <time>2021-04-18T08:41:49Z</time>
      </trkpt>
      <trkpt lat="44.00103" lon="2.25367">
        <ele>369</ele>
        <time>2021-04-18T08:41:50Z</time>
      </trkpt>
      <trkpt lat="44.00103" lon="2.25368">
        <ele>369</ele>
        <time>2021-04-18T08:41:51Z</time>
      </trkpt>
      <trkpt lat="44.00103" lon="2.2537">
        <ele>369</ele>
        <time>2021-04-18T08:41:52Z</time>
      </trkpt>
      <trkpt lat="44.00103" lon="2.25372">
        <ele>369</ele>
        <time>2021-04-18T08:41:53Z</time>
      </trkpt>
      <trkpt lat="44.00103" lon="2.25374">
        <ele>369</ele>
        <time>2021-04-18T08:41:54Z</time>
      </trkpt>
      <trkpt lat="44.00103" lon="2.25375">
        <ele>369</ele>
        <time>2021-04-18T08:41:55Z</time>
      </trkpt>
      <trkpt lat="44.00103" lon="2.25377">
        <ele>369</ele>
        <time>2021-04-18T08:41:56Z</time>
      </trkpt>
      <trkpt lat="44.00103" lon="2.25379">
        <ele>369</ele>
        <time>2021-04-18T08:41:57Z</time>
      </trkpt>
      <trkpt lat="44.00103" lon="2.25381">
        <ele>369</ele>
        <time>2021-04-18T08:41:58Z</time>
      </trkpt>
      <trkpt lat="44.00104" lon="2.25383">
        <ele>368</ele>
        <time>2021-04-18T08:41:59Z</time>
      </trkpt>
      <trkpt lat="44.00104" lon="2.25385">
        <ele>368</ele>
        <time>2021-04-18T08:42:00Z</time>
      </trkpt>
      <trkpt lat="44.00104" lon="2.25387">
        <ele>368</ele>
        <time>2021-04-18T08:42:01Z</time>
      </trkpt>
      <trkpt lat="44.00105" lon="2.25389">
        <ele>368</ele>
        <time>2021-04-18T08:42:02Z</time>
      </trkpt>
      <trkpt lat="44.00105" lon="2.2539">
        <ele>368</ele>
        <time>2021-04-18T08:42:03Z</time>
      </trkpt>
      <trkpt lat="44.00105" lon="2.25392">
        <ele>368</ele>
        <time>2021-04-18T08:42:04Z</time>
      </trkpt>
      <trkpt lat="44.00106" lon="2.25394">
        <ele>368</ele>
        <time>2021-04-18T08:42:05Z</time>
      </trkpt>
      <trkpt lat="44.00106" lon="2.25396">
        <ele>368</ele>
        <time>2021-04-18T08:42:06Z</time>
      </trkpt>
      <trkpt lat="44.00106" lon="2.25398">
        <ele>368</ele>
        <time>2021-04-18T08:42:07Z</time>
      </trkpt>
      <trkpt lat="44.00106" lon="2.254">
        <ele>367</ele>
        <time>2021-04-18T08:42:08Z</time>
      </trkpt>
      <trkpt lat="44.00106" lon="2.25401">
        <ele>368</ele>
        <time>2021-04-18T08:42:09Z</time>
      </trkpt>
      <trkpt lat="44.00106" lon="2.25403">
        <ele>368</ele>
        <time>2021-04-18T08:42:10Z</time>
      </trkpt>
      <trkpt lat="44.00107" lon="2.25404">
        <ele>369</ele>
        <time>2021-04-18T08:42:11Z</time>
      </trkpt>
      <trkpt lat="44.00107" lon="2.25406">
        <ele>370</ele>
        <time>2021-04-18T08:42:12Z</time>
      </trkpt>
      <trkpt lat="44.00107" lon="2.25407">
        <ele>371</ele>
        <time>2021-04-18T08:42:13Z</time>
      </trkpt>
      <trkpt lat="44.00107" lon="2.25409">
        <ele>371</ele>
        <time>2021-04-18T08:42:14Z</time>
      </trkpt>
      <trkpt lat="44.00107" lon="2.2541">
        <ele>371</ele>
        <time>2021-04-18T08:42:15Z</time>
      </trkpt>
      <trkpt lat="44.00107" lon="2.25411">
        <ele>371</ele>
        <time>2021-04-18T08:42:16Z</time>
      </trkpt>
      <trkpt lat="44.00107" lon="2.25412">
        <ele>371</ele>
        <time>2021-04-18T08:42:17Z</time>
      </trkpt>
      <trkpt lat="44.00107" lon="2.25414">
        <ele>370</ele>
        <time>2021-04-18T08:42:18Z</time>
      </trkpt>
      <trkpt lat="44.00107" lon="2.25416">
        <ele>370</ele>
        <time>2021-04-18T08:42:19Z</time>
      </trkpt>
      <trkpt lat="44.00108" lon="2.25418">
        <ele>370</ele>
        <time>2021-04-18T08:42:20Z</time>
      </trkpt>
      <trkpt lat="44.00108" lon="2.2542">
        <ele>370</ele>
        <time>2021-04-18T08:42:21Z</time>
      </trkpt>
      <trkpt lat="44.00108" lon="2.25421">
        <ele>370</ele>
        <time>2021-04-18T08:42:22Z</time>
      </trkpt>
      <trkpt lat="44.00109" lon="2.25422">
        <ele>370</ele>
        <time>2021-04-18T08:42:23Z</time>
      </trkpt>
      <trkpt lat="44.00109" lon="2.25424">
        <ele>370</ele>
        <time>2021-04-18T08:42:24Z</time>
      </trkpt>
      <trkpt lat="44.00109" lon="2.25426">
        <ele>371</ele>
        <time>2021-04-18T08:42:25Z</time>
      </trkpt>
      <trkpt lat="44.0011" lon="2.25428">
        <ele>371</ele>
        <time>2021-04-18T08:42:26Z</time>
      </trkpt>
      <trkpt lat="44.0011" lon="2.2543">
        <ele>370</ele>
        <time>2021-04-18T08:42:27Z</time>
      </trkpt>
      <trkpt lat="44.0011" lon="2.25432">
        <ele>370</ele>
        <time>2021-04-18T08:42:28Z</time>
      </trkpt>
      <trkpt lat="44.0011" lon="2.25435">
        <ele>370</ele>
        <time>2021-04-18T08:42:29Z</time>
      </trkpt>
      <trkpt lat="44.0011" lon="2.25437">
        <ele>370</ele>
        <time>2021-04-18T08:42:30Z</time>
      </trkpt>
      <trkpt lat="44.0011" lon="2.25439">
        <ele>370</ele>
        <time>2021-04-18T08:42:31Z</time>
      </trkpt>
      <trkpt lat="44.0011" lon="2.25442">
        <ele>370</ele>
        <time>2021-04-18T08:42:32Z</time>
      </trkpt>
      <trkpt lat="44.00109" lon="2.25444">
        <ele>370</ele>
        <time>2021-04-18T08:42:33Z</time>
      </trkpt>
      <trkpt lat="44.00109" lon="2.25447">
        <ele>371</ele>
        <time>2021-04-18T08:42:34Z</time>
      </trkpt>
      <trkpt lat="44.00109" lon="2.25449">
        <ele>370</ele>
        <time>2021-04-18T08:42:35Z</time>
      </trkpt>
      <trkpt lat="44.0011" lon="2.25451">
        <ele>370</ele>
        <time>2021-04-18T08:42:36Z</time>
      </trkpt>
      <trkpt lat="44.0011" lon="2.25453">
        <ele>371</ele>
        <time>2021-04-18T08:42:37Z</time>
      </trkpt>
      <trkpt lat="44.0011" lon="2.25454">
        <ele>372</ele>
        <time>2021-04-18T08:42:38Z</time>
      </trkpt>
      <trkpt lat="44.0011" lon="2.25456">
        <ele>372</ele>
        <time>2021-04-18T08:42:39Z</time>
      </trkpt>
      <trkpt lat="44.0011" lon="2.25458">
        <ele>371</ele>
        <time>2021-04-18T08:42:40Z</time>
      </trkpt>
      <trkpt lat="44.0011" lon="2.25459">
        <ele>371</ele>
        <time>2021-04-18T08:42:41Z</time>
      </trkpt>
      <trkpt lat="44.0011" lon="2.25461">
        <ele>371</ele>
        <time>2021-04-18T08:42:42Z</time>
      </trkpt>
      <trkpt lat="44.0011" lon="2.25464">
        <ele>372</ele>
        <time>2021-04-18T08:42:43Z</time>
      </trkpt>
      <trkpt lat="44.0011" lon="2.25466">
        <ele>372</ele>
        <time>2021-04-18T08:42:44Z</time>
      </trkpt>
      <trkpt lat="44.0011" lon="2.25468">
        <ele>372</ele>
        <time>2021-04-18T08:42:45Z</time>
      </trkpt>
      <trkpt lat="44.0011" lon="2.2547">
        <ele>373</ele>
        <time>2021-04-18T08:42:46Z</time>
      </trkpt>
      <trkpt lat="44.0011" lon="2.25472">
        <ele>373</ele>
        <time>2021-04-18T08:42:47Z</time>
      </trkpt>
      <trkpt lat="44.0011" lon="2.25474">
        <ele>373</ele>
        <time>2021-04-18T08:42:48Z</time>
      </trkpt>
      <trkpt lat="44.0011" lon="2.25476">
        <ele>373</ele>
        <time>2021-04-18T08:42:49Z</time>
      </trkpt>
      <trkpt lat="44.0011" lon="2.25478">
        <ele>373</ele>
        <time>2021-04-18T08:42:50Z</time>
      </trkpt>
      <trkpt lat="44.0011" lon="2.2548">
        <ele>373</ele>
        <time>2021-04-18T08:42:51Z</time>
      </trkpt>
      <trkpt lat="44.0011" lon="2.25481">
        <ele>373</ele>
        <time>2021-04-18T08:42:52Z</time>
      </trkpt>
      <trkpt lat="44.0011" lon="2.25483">
        <ele>372</ele>
        <time>2021-04-18T08:42:53Z</time>
      </trkpt>
      <trkpt lat="44.0011" lon="2.25484">
        <ele>373</ele>
        <time>2021-04-18T08:42:54Z</time>
      </trkpt>
      <trkpt lat="44.0011" lon="2.25486">
        <ele>373</ele>
        <time>2021-04-18T08:42:55Z</time>
      </trkpt>
      <trkpt lat="44.0011" lon="2.25488">
        <ele>373</ele>
        <time>2021-04-18T08:42:56Z</time>
      </trkpt>
      <trkpt lat="44.0011" lon="2.25489">
        <ele>373</ele>
        <time>2021-04-18T08:42:57Z</time>
      </trkpt>
      <trkpt lat="44.0011" lon="2.25491">
        <ele>373</ele>
        <time>2021-04-18T08:42:58Z</time>
      </trkpt>
      <trkpt lat="44.0011" lon="2.25492">
        <ele>373</ele>
        <time>2021-04-18T08:42:59Z</time>
      </trkpt>
      <trkpt lat="44.0011" lon="2.25494">
        <ele>373</ele>
        <time>2021-04-18T08:43:00Z</time>
      </trkpt>
      <trkpt lat="44.0011" lon="2.25496">
        <ele>374</ele>
        <time>2021-04-18T08:43:01Z</time>
      </trkpt>
      <trkpt lat="44.0011" lon="2.25498">
        <ele>375</ele>
        <time>2021-04-18T08:43:02Z</time>
      </trkpt>
      <trkpt lat="44.0011" lon="2.25499">
        <ele>374</ele>
        <time>2021-04-18T08:43:03Z</time>
      </trkpt>
      <trkpt lat="44.00109" lon="2.25502">
        <ele>374</ele>
        <time>2021-04-18T08:43:04Z</time>
      </trkpt>
      <trkpt lat="44.0011" lon="2.25504">
        <ele>374</ele>
        <time>2021-04-18T08:43:05Z</time>
      </trkpt>
      <trkpt lat="44.0011" lon="2.25507">
        <ele>374</ele>
        <time>2021-04-18T08:43:06Z</time>
      </trkpt>
      <trkpt lat="44.00109" lon="2.25509">
        <ele>374</ele>
        <time>2021-04-18T08:43:07Z</time>
      </trkpt>
      <trkpt lat="44.00109" lon="2.25512">
        <ele>374</ele>
        <time>2021-04-18T08:43:08Z</time>
      </trkpt>
      <trkpt lat="44.00108" lon="2.25513">
        <ele>374</ele>
        <time>2021-04-18T08:43:09Z</time>
      </trkpt>
      <trkpt lat="44.00108" lon="2.25515">
        <ele>374</ele>
        <time>2021-04-18T08:43:10Z</time>
      </trkpt>
      <trkpt lat="44.00107" lon="2.25517">
        <ele>375</ele>
        <time>2021-04-18T08:43:11Z</time>
      </trkpt>
      <trkpt lat="44.00107" lon="2.25518">
        <ele>375</ele>
        <time>2021-04-18T08:43:12Z</time>
      </trkpt>
      <trkpt lat="44.00107" lon="2.2552">
        <ele>375</ele>
        <time>2021-04-18T08:43:13Z</time>
      </trkpt>
      <trkpt lat="44.00106" lon="2.25522">
        <ele>376</ele>
        <time>2021-04-18T08:43:14Z</time>
      </trkpt>
      <trkpt lat="44.00106" lon="2.25524">
        <ele>376</ele>
        <time>2021-04-18T08:43:15Z</time>
      </trkpt>
      <trkpt lat="44.00106" lon="2.25526">
        <ele>376</ele>
        <time>2021-04-18T08:43:16Z</time>
      </trkpt>
      <trkpt lat="44.00105" lon="2.25527">
        <ele>376</ele>
        <time>2021-04-18T08:43:17Z</time>
      </trkpt>
      <trkpt lat="44.00105" lon="2.25529">
        <ele>376</ele>
        <time>2021-04-18T08:43:18Z</time>
      </trkpt>
      <trkpt lat="44.00105" lon="2.2553">
        <ele>376</ele>
        <time>2021-04-18T08:43:19Z</time>
      </trkpt>
      <trkpt lat="44.00104" lon="2.25531">
        <ele>376</ele>
        <time>2021-04-18T08:43:20Z</time>
      </trkpt>
      <trkpt lat="44.00104" lon="2.25533">
        <ele>376</ele>
        <time>2021-04-18T08:43:21Z</time>
      </trkpt>
      <trkpt lat="44.00103" lon="2.25535">
        <ele>376</ele>
        <time>2021-04-18T08:43:22Z</time>
      </trkpt>
      <trkpt lat="44.00103" lon="2.25536">
        <ele>376</ele>
        <time>2021-04-18T08:43:23Z</time>
      </trkpt>
      <trkpt lat="44.00102" lon="2.25538">
        <ele>376</ele>
        <time>2021-04-18T08:43:24Z</time>
      </trkpt>
      <trkpt lat="44.00102" lon="2.2554">
        <ele>377</ele>
        <time>2021-04-18T08:43:25Z</time>
      </trkpt>
      <trkpt lat="44.00102" lon="2.25542">
        <ele>378</ele>
        <time>2021-04-18T08:43:26Z</time>
      </trkpt>
      <trkpt lat="44.001" lon="2.25544">
        <ele>378</ele>
        <time>2021-04-18T08:43:27Z</time>
      </trkpt>
      <trkpt lat="44.001" lon="2.25545">
        <ele>378</ele>
        <time>2021-04-18T08:43:28Z</time>
      </trkpt>
      <trkpt lat="44.001" lon="2.25547">
        <ele>378</ele>
        <time>2021-04-18T08:43:29Z</time>
      </trkpt>
      <trkpt lat="44.00099" lon="2.25549">
        <ele>378</ele>
        <time>2021-04-18T08:43:30Z</time>
      </trkpt>
      <trkpt lat="44.00098" lon="2.25551">
        <ele>378</ele>
        <time>2021-04-18T08:43:31Z</time>
      </trkpt>
      <trkpt lat="44.00097" lon="2.25552">
        <ele>378</ele>
        <time>2021-04-18T08:43:32Z</time>
      </trkpt>
      <trkpt lat="44.00097" lon="2.25553">
        <ele>379</ele>
        <time>2021-04-18T08:43:33Z</time>
      </trkpt>
      <trkpt lat="44.00096" lon="2.25554">
        <ele>379</ele>
        <time>2021-04-18T08:43:34Z</time>
      </trkpt>
      <trkpt lat="44.00095" lon="2.25556">
        <ele>379</ele>
        <time>2021-04-18T08:43:35Z</time>
      </trkpt>
      <trkpt lat="44.00094" lon="2.25557">
        <ele>379</ele>
        <time>2021-04-18T08:43:36Z</time>
      </trkpt>
      <trkpt lat="44.00093" lon="2.25559">
        <ele>379</ele>
        <time>2021-04-18T08:43:37Z</time>
      </trkpt>
      <trkpt lat="44.00092" lon="2.2556">
        <ele>379</ele>
        <time>2021-04-18T08:43:38Z</time>
      </trkpt>
      <trkpt lat="44.00092" lon="2.25562">
        <ele>381</ele>
        <time>2021-04-18T08:43:39Z</time>
      </trkpt>
      <trkpt lat="44.00091" lon="2.25564">
        <ele>382</ele>
        <time>2021-04-18T08:43:40Z</time>
      </trkpt>
      <trkpt lat="44.0009" lon="2.25565">
        <ele>382</ele>
        <time>2021-04-18T08:43:41Z</time>
      </trkpt>
      <trkpt lat="44.0009" lon="2.25566">
        <ele>382</ele>
        <time>2021-04-18T08:43:42Z</time>
      </trkpt>
      <trkpt lat="44.00089" lon="2.25567">
        <ele>382</ele>
        <time>2021-04-18T08:43:43Z</time>
      </trkpt>
      <trkpt lat="44.00088" lon="2.25568">
        <ele>382</ele>
        <time>2021-04-18T08:43:44Z</time>
      </trkpt>
      <trkpt lat="44.00087" lon="2.25569">
        <ele>382</ele>
        <time>2021-04-18T08:43:45Z</time>
      </trkpt>
      <trkpt lat="44.00087" lon="2.25571">
        <ele>382</ele>
        <time>2021-04-18T08:43:46Z</time>
      </trkpt>
      <trkpt lat="44.00085" lon="2.25573">
        <ele>381</ele>
        <time>2021-04-18T08:43:47Z</time>
      </trkpt>
      <trkpt lat="44.00085" lon="2.25574">
        <ele>382</ele>
        <time>2021-04-18T08:43:48Z</time>
      </trkpt>
      <trkpt lat="44.00084" lon="2.25576">
        <ele>383</ele>
        <time>2021-04-18T08:43:49Z</time>
      </trkpt>
      <trkpt lat="44.00083" lon="2.25578">
        <ele>383</ele>
        <time>2021-04-18T08:43:50Z</time>
      </trkpt>
      <trkpt lat="44.00083" lon="2.25579">
        <ele>383</ele>
        <time>2021-04-18T08:43:51Z</time>
      </trkpt>
      <trkpt lat="44.00082" lon="2.25581">
        <ele>383</ele>
        <time>2021-04-18T08:43:52Z</time>
      </trkpt>
      <trkpt lat="44.00082" lon="2.25583">
        <ele>383</ele>
        <time>2021-04-18T08:43:53Z</time>
      </trkpt>
      <trkpt lat="44.00082" lon="2.25585">
        <ele>383</ele>
        <time>2021-04-18T08:43:54Z</time>
      </trkpt>
      <trkpt lat="44.00081" lon="2.25586">
        <ele>383</ele>
        <time>2021-04-18T08:43:55Z</time>
      </trkpt>
      <trkpt lat="44.0008" lon="2.25587">
        <ele>383</ele>
        <time>2021-04-18T08:43:56Z</time>
      </trkpt>
      <trkpt lat="44.00079" lon="2.25589">
        <ele>384</ele>
        <time>2021-04-18T08:43:57Z</time>
      </trkpt>
      <trkpt lat="44.00078" lon="2.25591">
        <ele>384</ele>
        <time>2021-04-18T08:43:58Z</time>
      </trkpt>
      <trkpt lat="44.00078" lon="2.25593">
        <ele>385</ele>
        <time>2021-04-18T08:43:59Z</time>
      </trkpt>
      <trkpt lat="44.00077" lon="2.25594">
        <ele>385</ele>
        <time>2021-04-18T08:44:00Z</time>
      </trkpt>
      <trkpt lat="44.00076" lon="2.25596">
        <ele>385</ele>
        <time>2021-04-18T08:44:01Z</time>
      </trkpt>
      <trkpt lat="44.00076" lon="2.25598">
        <ele>386</ele>
        <time>2021-04-18T08:44:02Z</time>
      </trkpt>
      <trkpt lat="44.00075" lon="2.25599">
        <ele>386</ele>
        <time>2021-04-18T08:44:03Z</time>
      </trkpt>
      <trkpt lat="44.00074" lon="2.25601">
        <ele>385</ele>
        <time>2021-04-18T08:44:04Z</time>
      </trkpt>
      <trkpt lat="44.00073" lon="2.25602">
        <ele>386</ele>
        <time>2021-04-18T08:44:05Z</time>
      </trkpt>
      <trkpt lat="44.00073" lon="2.25603">
        <ele>387</ele>
        <time>2021-04-18T08:44:06Z</time>
      </trkpt>
      <trkpt lat="44.00071" lon="2.25605">
        <ele>386</ele>
        <time>2021-04-18T08:44:07Z</time>
      </trkpt>
      <trkpt lat="44.0007" lon="2.25606">
        <ele>386</ele>
        <time>2021-04-18T08:44:08Z</time>
      </trkpt>
      <trkpt lat="44.00069" lon="2.25607">
        <ele>385</ele>
        <time>2021-04-18T08:44:09Z</time>
      </trkpt>
      <trkpt lat="44.00068" lon="2.25609">
        <ele>385</ele>
        <time>2021-04-18T08:44:10Z</time>
      </trkpt>
      <trkpt lat="44.00067" lon="2.2561">
        <ele>385</ele>
        <time>2021-04-18T08:44:11Z</time>
      </trkpt>
      <trkpt lat="44.00067" lon="2.25612">
        <ele>385</ele>
        <time>2021-04-18T08:44:12Z</time>
      </trkpt>
      <trkpt lat="44.00066" lon="2.25613">
        <ele>386</ele>
        <time>2021-04-18T08:44:13Z</time>
      </trkpt>
      <trkpt lat="44.00065" lon="2.25614">
        <ele>386</ele>
        <time>2021-04-18T08:44:14Z</time>
      </trkpt>
      <trkpt lat="44.00064" lon="2.25615">
        <ele>387</ele>
        <time>2021-04-18T08:44:15Z</time>
      </trkpt>
      <trkpt lat="44.00063" lon="2.25616">
        <ele>388</ele>
        <time>2021-04-18T08:44:16Z</time>
      </trkpt>
      <trkpt lat="44.00062" lon="2.25618">
        <ele>388</ele>
        <time>2021-04-18T08:44:17Z</time>
      </trkpt>
      <trkpt lat="44.00061" lon="2.25619">
        <ele>388</ele>
        <time>2021-04-18T08:44:18Z</time>
      </trkpt>
      <trkpt lat="44.00061" lon="2.2562">
        <ele>387</ele>
        <time>2021-04-18T08:44:19Z</time>
      </trkpt>
      <trkpt lat="44.0006" lon="2.25622">
        <ele>388</ele>
        <time>2021-04-18T08:44:20Z</time>
      </trkpt>
      <trkpt lat="44.00059" lon="2.25623">
        <ele>388</ele>
        <time>2021-04-18T08:44:21Z</time>
      </trkpt>
      <trkpt lat="44.00058" lon="2.25624">
        <ele>387</ele>
        <time>2021-04-18T08:44:22Z</time>
      </trkpt>
      <trkpt lat="44.00057" lon="2.25625">
        <ele>387</ele>
        <time>2021-04-18T08:44:23Z</time>
      </trkpt>
      <trkpt lat="44.00057" lon="2.25626">
        <ele>387</ele>
        <time>2021-04-18T08:44:24Z</time>
      </trkpt>
      <trkpt lat="44.00056" lon="2.25627">
        <ele>387</ele>
        <time>2021-04-18T08:44:25Z</time>
      </trkpt>
      <trkpt lat="44.00056" lon="2.25629">
        <ele>387</ele>
        <time>2021-04-18T08:44:26Z</time>
      </trkpt>
      <trkpt lat="44.00055" lon="2.25631">
        <ele>387</ele>
        <time>2021-04-18T08:44:27Z</time>
      </trkpt>
      <trkpt lat="44.00056" lon="2.25632">
        <ele>388</ele>
        <time>2021-04-18T08:44:28Z</time>
      </trkpt>
      <trkpt lat="44.00055" lon="2.25632">
        <ele>388</ele>
        <time>2021-04-18T08:44:29Z</time>
      </trkpt>
      <trkpt lat="44.00055" lon="2.25633">
        <ele>388</ele>
        <time>2021-04-18T08:44:30Z</time>
      </trkpt>
      <trkpt lat="44.00053" lon="2.25633">
        <ele>389</ele>
        <time>2021-04-18T08:44:31Z</time>
      </trkpt>
      <trkpt lat="44.00052" lon="2.25634">
        <ele>389</ele>
        <time>2021-04-18T08:44:32Z</time>
      </trkpt>
      <trkpt lat="44.0005" lon="2.25635">
        <ele>389</ele>
        <time>2021-04-18T08:44:33Z</time>
      </trkpt>
      <trkpt lat="44.0005" lon="2.25636">
        <ele>389</ele>
        <time>2021-04-18T08:44:34Z</time>
      </trkpt>
      <trkpt lat="44.00049" lon="2.25637">
        <ele>390</ele>
        <time>2021-04-18T08:44:35Z</time>
      </trkpt>
      <trkpt lat="44.00048" lon="2.25639">
        <ele>390</ele>
        <time>2021-04-18T08:44:36Z</time>
      </trkpt>
      <trkpt lat="44.00046" lon="2.2564">
        <ele>390</ele>
        <time>2021-04-18T08:44:37Z</time>
      </trkpt>
      <trkpt lat="44.00045" lon="2.25642">
        <ele>391</ele>
        <time>2021-04-18T08:44:38Z</time>
      </trkpt>
      <trkpt lat="44.00044" lon="2.25644">
        <ele>391</ele>
        <time>2021-04-18T08:44:39Z</time>
      </trkpt>
      <trkpt lat="44.00042" lon="2.25645">
        <ele>391</ele>
        <time>2021-04-18T08:44:40Z</time>
      </trkpt>
      <trkpt lat="44.00041" lon="2.25646">
        <ele>391</ele>
        <time>2021-04-18T08:44:41Z</time>
      </trkpt>
      <trkpt lat="44.0004" lon="2.25648">
        <ele>391</ele>
        <time>2021-04-18T08:44:42Z</time>
      </trkpt>
      <trkpt lat="44.0004" lon="2.25649">
        <ele>391</ele>
        <time>2021-04-18T08:44:43Z</time>
      </trkpt>
      <trkpt lat="44.00039" lon="2.25651">
        <ele>391</ele>
        <time>2021-04-18T08:44:44Z</time>
      </trkpt>
      <trkpt lat="44.00038" lon="2.25652">
        <ele>391</ele>
        <time>2021-04-18T08:44:45Z</time>
      </trkpt>
      <trkpt lat="44.00037" lon="2.25652">
        <ele>391</ele>
        <time>2021-04-18T08:44:46Z</time>
      </trkpt>
      <trkpt lat="44.00036" lon="2.25653">
        <ele>392</ele>
        <time>2021-04-18T08:44:47Z</time>
      </trkpt>
      <trkpt lat="44.00035" lon="2.25654">
        <ele>392</ele>
        <time>2021-04-18T08:44:48Z</time>
      </trkpt>
      <trkpt lat="44.00034" lon="2.25655">
        <ele>392</ele>
        <time>2021-04-18T08:44:49Z</time>
      </trkpt>
      <trkpt lat="44.00033" lon="2.25656">
        <ele>392</ele>
        <time>2021-04-18T08:44:50Z</time>
      </trkpt>
      <trkpt lat="44.00032" lon="2.25658">
        <ele>392</ele>
        <time>2021-04-18T08:44:51Z</time>
      </trkpt>
      <trkpt lat="44.0003" lon="2.2566">
        <ele>392</ele>
        <time>2021-04-18T08:44:52Z</time>
      </trkpt>
      <trkpt lat="44.00029" lon="2.25661">
        <ele>392</ele>
        <time>2021-04-18T08:44:53Z</time>
      </trkpt>
      <trkpt lat="44.00028" lon="2.25662">
        <ele>392</ele>
        <time>2021-04-18T08:44:54Z</time>
      </trkpt>
      <trkpt lat="44.00027" lon="2.25663">
        <ele>392</ele>
        <time>2021-04-18T08:44:55Z</time>
      </trkpt>
      <trkpt lat="44.00025" lon="2.25664">
        <ele>392</ele>
        <time>2021-04-18T08:44:56Z</time>
      </trkpt>
      <trkpt lat="44.00024" lon="2.25666">
        <ele>393</ele>
        <time>2021-04-18T08:44:57Z</time>
      </trkpt>
      <trkpt lat="44.00023" lon="2.25667">
        <ele>393</ele>
        <time>2021-04-18T08:44:58Z</time>
      </trkpt>
      <trkpt lat="44.00022" lon="2.25669">
        <ele>393</ele>
        <time>2021-04-18T08:44:59Z</time>
      </trkpt>
      <trkpt lat="44.00021" lon="2.2567">
        <ele>393</ele>
        <time>2021-04-18T08:45:00Z</time>
      </trkpt>
      <trkpt lat="44.0002" lon="2.2567">
        <ele>393</ele>
        <time>2021-04-18T08:45:01Z</time>
      </trkpt>
      <trkpt lat="44.00019" lon="2.25671">
        <ele>394</ele>
        <time>2021-04-18T08:45:02Z</time>
      </trkpt>
      <trkpt lat="44.00018" lon="2.25672">
        <ele>394</ele>
        <time>2021-04-18T08:45:03Z</time>
      </trkpt>
      <trkpt lat="44.00016" lon="2.25672">
        <ele>394</ele>
        <time>2021-04-18T08:45:04Z</time>
      </trkpt>
      <trkpt lat="44.00015" lon="2.25673">
        <ele>393</ele>
        <time>2021-04-18T08:45:05Z</time>
      </trkpt>
      <trkpt lat="44.00013" lon="2.25674">
        <ele>393</ele>
        <time>2021-04-18T08:45:06Z</time>
      </trkpt>
      <trkpt lat="44.00013" lon="2.25674">
        <ele>393</ele>
        <time>2021-04-18T08:45:07Z</time>
      </trkpt>
      <trkpt lat="44.00011" lon="2.25675">
        <ele>393</ele>
        <time>2021-04-18T08:45:08Z</time>
      </trkpt>
      <trkpt lat="44.0001" lon="2.25676">
        <ele>393</ele>
        <time>2021-04-18T08:45:09Z</time>
      </trkpt>
      <trkpt lat="44.00009" lon="2.25677">
        <ele>393</ele>
        <time>2021-04-18T08:45:10Z</time>
      </trkpt>
      <trkpt lat="44.00008" lon="2.25678">
        <ele>394</ele>
        <time>2021-04-18T08:45:11Z</time>
      </trkpt>
      <trkpt lat="44.00007" lon="2.2568">
        <ele>394</ele>
        <time>2021-04-18T08:45:12Z</time>
      </trkpt>
      <trkpt lat="44.00006" lon="2.25681">
        <ele>394</ele>
        <time>2021-04-18T08:45:13Z</time>
      </trkpt>
      <trkpt lat="44.00005" lon="2.25682">
        <ele>394</ele>
        <time>2021-04-18T08:45:14Z</time>
      </trkpt>
      <trkpt lat="44.00003" lon="2.25683">
        <ele>394</ele>
        <time>2021-04-18T08:45:15Z</time>
      </trkpt>
      <trkpt lat="44.00002" lon="2.25684">
        <ele>394</ele>
        <time>2021-04-18T08:45:16Z</time>
      </trkpt>
      <trkpt lat="44.00001" lon="2.25685">
        <ele>394</ele>
        <time>2021-04-18T08:45:17Z</time>
      </trkpt>
      <trkpt lat="44" lon="2.25686">
        <ele>394</ele>
        <time>2021-04-18T08:45:18Z</time>
      </trkpt>
      <trkpt lat="43.99999" lon="2.25688">
        <ele>394</ele>
        <time>2021-04-18T08:45:19Z</time>
      </trkpt>
      <trkpt lat="43.99997" lon="2.25689">
        <ele>394</ele>
        <time>2021-04-18T08:45:20Z</time>
      </trkpt>
      <trkpt lat="43.99996" lon="2.25691">
        <ele>395</ele>
        <time>2021-04-18T08:45:21Z</time>
      </trkpt>
      <trkpt lat="43.99995" lon="2.25692">
        <ele>395</ele>
        <time>2021-04-18T08:45:22Z</time>
      </trkpt>
      <trkpt lat="43.99994" lon="2.25693">
        <ele>395</ele>
        <time>2021-04-18T08:45:23Z</time>
      </trkpt>
      <trkpt lat="43.99993" lon="2.25694">
        <ele>395</ele>
        <time>2021-04-18T08:45:24Z</time>
      </trkpt>
      <trkpt lat="43.99992" lon="2.25695">
        <ele>396</ele>
        <time>2021-04-18T08:45:25Z</time>
      </trkpt>
      <trkpt lat="43.9999" lon="2.25695">
        <ele>396</ele>
        <time>2021-04-18T08:45:26Z</time>
      </trkpt>
      <trkpt lat="43.99989" lon="2.25696">
        <ele>396</ele>
        <time>2021-04-18T08:45:27Z</time>
      </trkpt>
      <trkpt lat="43.99987" lon="2.25697">
        <ele>396</ele>
        <time>2021-04-18T08:45:28Z</time>
      </trkpt>
      <trkpt lat="43.99986" lon="2.25698">
        <ele>396</ele>
        <time>2021-04-18T08:45:29Z</time>
      </trkpt>
      <trkpt lat="43.99985" lon="2.25699">
        <ele>396</ele>
        <time>2021-04-18T08:45:30Z</time>
      </trkpt>
      <trkpt lat="43.99984" lon="2.257">
        <ele>396</ele>
        <time>2021-04-18T08:45:31Z</time>
      </trkpt>
      <trkpt lat="43.99983" lon="2.25702">
        <ele>396</ele>
        <time>2021-04-18T08:45:32Z</time>
      </trkpt>
      <trkpt lat="43.99982" lon="2.25703">
        <ele>395</ele>
        <time>2021-04-18T08:45:33Z</time>
      </trkpt>
      <trkpt lat="43.99981" lon="2.25704">
        <ele>396</ele>
        <time>2021-04-18T08:45:34Z</time>
      </trkpt>
      <trkpt lat="43.99979" lon="2.25705">
        <ele>396</ele>
        <time>2021-04-18T08:45:35Z</time>
      </trkpt>
      <trkpt lat="43.99978" lon="2.25706">
        <ele>396</ele>
        <time>2021-04-18T08:45:36Z</time>
      </trkpt>
      <trkpt lat="43.99976" lon="2.25707">
        <ele>396</ele>
        <time>2021-04-18T08:45:37Z</time>
      </trkpt>
      <trkpt lat="43.99975" lon="2.25708">
        <ele>396</ele>
        <time>2021-04-18T08:45:38Z</time>
      </trkpt>
      <trkpt lat="43.99974" lon="2.2571">
        <ele>397</ele>
        <time>2021-04-18T08:45:39Z</time>
      </trkpt>
      <trkpt lat="43.99973" lon="2.2571">
        <ele>397</ele>
        <time>2021-04-18T08:45:40Z</time>
      </trkpt>
      <trkpt lat="43.99972" lon="2.25711">
        <ele>397</ele>
        <time>2021-04-18T08:45:41Z</time>
      </trkpt>
      <trkpt lat="43.99971" lon="2.25711">
        <ele>397</ele>
        <time>2021-04-18T08:45:42Z</time>
      </trkpt>
      <trkpt lat="43.99969" lon="2.25712">
        <ele>397</ele>
        <time>2021-04-18T08:45:43Z</time>
      </trkpt>
      <trkpt lat="43.99968" lon="2.25713">
        <ele>397</ele>
        <time>2021-04-18T08:45:44Z</time>
      </trkpt>
      <trkpt lat="43.99966" lon="2.25714">
        <ele>397</ele>
        <time>2021-04-18T08:45:45Z</time>
      </trkpt>
      <trkpt lat="43.99965" lon="2.25715">
        <ele>397</ele>
        <time>2021-04-18T08:45:46Z</time>
      </trkpt>
      <trkpt lat="43.99963" lon="2.25716">
        <ele>396</ele>
        <time>2021-04-18T08:45:47Z</time>
      </trkpt>
      <trkpt lat="43.99962" lon="2.25716">
        <ele>396</ele>
        <time>2021-04-18T08:45:48Z</time>
      </trkpt>
      <trkpt lat="43.99961" lon="2.25717">
        <ele>396</ele>
        <time>2021-04-18T08:45:49Z</time>
      </trkpt>
      <trkpt lat="43.9996" lon="2.25718">
        <ele>396</ele>
        <time>2021-04-18T08:45:50Z</time>
      </trkpt>
      <trkpt lat="43.99958" lon="2.25719">
        <ele>396</ele>
        <time>2021-04-18T08:45:51Z</time>
      </trkpt>
      <trkpt lat="43.99957" lon="2.2572">
        <ele>396</ele>
        <time>2021-04-18T08:45:52Z</time>
      </trkpt>
      <trkpt lat="43.99956" lon="2.25721">
        <ele>396</ele>
        <time>2021-04-18T08:45:53Z</time>
      </trkpt>
      <trkpt lat="43.99955" lon="2.25721">
        <ele>397</ele>
        <time>2021-04-18T08:45:54Z</time>
      </trkpt>
      <trkpt lat="43.99953" lon="2.25723">
        <ele>397</ele>
        <time>2021-04-18T08:45:55Z</time>
      </trkpt>
      <trkpt lat="43.99952" lon="2.25724">
        <ele>397</ele>
        <time>2021-04-18T08:45:56Z</time>
      </trkpt>
      <trkpt lat="43.99951" lon="2.25725">
        <ele>397</ele>
        <time>2021-04-18T08:45:57Z</time>
      </trkpt>
      <trkpt lat="43.9995" lon="2.25726">
        <ele>397</ele>
        <time>2021-04-18T08:45:58Z</time>
      </trkpt>
      <trkpt lat="43.99949" lon="2.25727">
        <ele>398</ele>
        <time>2021-04-18T08:45:59Z</time>
      </trkpt>
      <trkpt lat="43.99947" lon="2.25728">
        <ele>398</ele>
        <time>2021-04-18T08:46:00Z</time>
      </trkpt>
      <trkpt lat="43.99946" lon="2.25728">
        <ele>397</ele>
        <time>2021-04-18T08:46:01Z</time>
      </trkpt>
      <trkpt lat="43.99945" lon="2.25729">
        <ele>397</ele>
        <time>2021-04-18T08:46:02Z</time>
      </trkpt>
      <trkpt lat="43.99943" lon="2.25731">
        <ele>397</ele>
        <time>2021-04-18T08:46:03Z</time>
      </trkpt>
      <trkpt lat="43.99942" lon="2.25732">
        <ele>397</ele>
        <time>2021-04-18T08:46:04Z</time>
      </trkpt>
      <trkpt lat="43.9994" lon="2.25733">
        <ele>397</ele>
        <time>2021-04-18T08:46:05Z</time>
      </trkpt>
      <trkpt lat="43.99939" lon="2.25734">
        <ele>398</ele>
        <time>2021-04-18T08:46:06Z</time>
      </trkpt>
      <trkpt lat="43.99937" lon="2.25735">
        <ele>397</ele>
        <time>2021-04-18T08:46:07Z</time>
      </trkpt>
      <trkpt lat="43.99936" lon="2.25736">
        <ele>398</ele>
        <time>2021-04-18T08:46:08Z</time>
      </trkpt>
      <trkpt lat="43.99935" lon="2.25737">
        <ele>398</ele>
        <time>2021-04-18T08:46:09Z</time>
      </trkpt>
      <trkpt lat="43.99933" lon="2.25738">
        <ele>399</ele>
        <time>2021-04-18T08:46:10Z</time>
      </trkpt>
      <trkpt lat="43.99932" lon="2.25739">
        <ele>399</ele>
        <time>2021-04-18T08:46:11Z</time>
      </trkpt>
      <trkpt lat="43.99931" lon="2.2574">
        <ele>398</ele>
        <time>2021-04-18T08:46:12Z</time>
      </trkpt>
      <trkpt lat="43.99929" lon="2.25741">
        <ele>398</ele>
        <time>2021-04-18T08:46:13Z</time>
      </trkpt>
      <trkpt lat="43.99928" lon="2.25742">
        <ele>398</ele>
        <time>2021-04-18T08:46:14Z</time>
      </trkpt>
      <trkpt lat="43.99927" lon="2.25744">
        <ele>398</ele>
        <time>2021-04-18T08:46:15Z</time>
      </trkpt>
      <trkpt lat="43.99926" lon="2.25744">
        <ele>398</ele>
        <time>2021-04-18T08:46:16Z</time>
      </trkpt>
      <trkpt lat="43.99925" lon="2.25746">
        <ele>398</ele>
        <time>2021-04-18T08:46:17Z</time>
      </trkpt>
      <trkpt lat="43.99923" lon="2.25747">
        <ele>398</ele>
        <time>2021-04-18T08:46:18Z</time>
      </trkpt>
      <trkpt lat="43.99922" lon="2.25748">
        <ele>398</ele>
        <time>2021-04-18T08:46:19Z</time>
      </trkpt>
      <trkpt lat="43.9992" lon="2.25749">
        <ele>398</ele>
        <time>2021-04-18T08:46:20Z</time>
      </trkpt>
      <trkpt lat="43.99919" lon="2.2575">
        <ele>398</ele>
        <time>2021-04-18T08:46:21Z</time>
      </trkpt>
      <trkpt lat="43.99917" lon="2.25751">
        <ele>399</ele>
        <time>2021-04-18T08:46:22Z</time>
      </trkpt>
      <trkpt lat="43.99916" lon="2.25752">
        <ele>399</ele>
        <time>2021-04-18T08:46:23Z</time>
      </trkpt>
      <trkpt lat="43.99914" lon="2.25753">
        <ele>399</ele>
        <time>2021-04-18T08:46:24Z</time>
      </trkpt>
      <trkpt lat="43.99912" lon="2.25753">
        <ele>399</ele>
        <time>2021-04-18T08:46:25Z</time>
      </trkpt>
      <trkpt lat="43.99911" lon="2.25755">
        <ele>399</ele>
        <time>2021-04-18T08:46:26Z</time>
      </trkpt>
      <trkpt lat="43.9991" lon="2.25755">
        <ele>399</ele>
        <time>2021-04-18T08:46:27Z</time>
      </trkpt>
      <trkpt lat="43.99908" lon="2.25756">
        <ele>399</ele>
        <time>2021-04-18T08:46:28Z</time>
      </trkpt>
      <trkpt lat="43.99907" lon="2.25757">
        <ele>400</ele>
        <time>2021-04-18T08:46:29Z</time>
      </trkpt>
      <trkpt lat="43.99905" lon="2.25758">
        <ele>400</ele>
        <time>2021-04-18T08:46:30Z</time>
      </trkpt>
      <trkpt lat="43.99904" lon="2.2576">
        <ele>400</ele>
        <time>2021-04-18T08:46:31Z</time>
      </trkpt>
      <trkpt lat="43.99903" lon="2.25761">
        <ele>401</ele>
        <time>2021-04-18T08:46:32Z</time>
      </trkpt>
      <trkpt lat="43.99902" lon="2.25762">
        <ele>400</ele>
        <time>2021-04-18T08:46:33Z</time>
      </trkpt>
      <trkpt lat="43.999" lon="2.25764">
        <ele>400</ele>
        <time>2021-04-18T08:46:34Z</time>
      </trkpt>
      <trkpt lat="43.99899" lon="2.25765">
        <ele>400</ele>
        <time>2021-04-18T08:46:35Z</time>
      </trkpt>
      <trkpt lat="43.99897" lon="2.25766">
        <ele>400</ele>
        <time>2021-04-18T08:46:36Z</time>
      </trkpt>
      <trkpt lat="43.99896" lon="2.25768">
        <ele>400</ele>
        <time>2021-04-18T08:46:37Z</time>
      </trkpt>
      <trkpt lat="43.99895" lon="2.25769">
        <ele>400</ele>
        <time>2021-04-18T08:46:38Z</time>
      </trkpt>
      <trkpt lat="43.99894" lon="2.25771">
        <ele>401</ele>
        <time>2021-04-18T08:46:39Z</time>
      </trkpt>
      <trkpt lat="43.99892" lon="2.25773">
        <ele>401</ele>
        <time>2021-04-18T08:46:40Z</time>
      </trkpt>
      <trkpt lat="43.99891" lon="2.25775">
        <ele>401</ele>
        <time>2021-04-18T08:46:41Z</time>
      </trkpt>
      <trkpt lat="43.9989" lon="2.25776">
        <ele>401</ele>
        <time>2021-04-18T08:46:42Z</time>
      </trkpt>
      <trkpt lat="43.99888" lon="2.25778">
        <ele>400</ele>
        <time>2021-04-18T08:46:43Z</time>
      </trkpt>
      <trkpt lat="43.99887" lon="2.25779">
        <ele>400</ele>
        <time>2021-04-18T08:46:44Z</time>
      </trkpt>
      <trkpt lat="43.99886" lon="2.2578">
        <ele>400</ele>
        <time>2021-04-18T08:46:45Z</time>
      </trkpt>
      <trkpt lat="43.99884" lon="2.25781">
        <ele>400</ele>
        <time>2021-04-18T08:46:46Z</time>
      </trkpt>
      <trkpt lat="43.99883" lon="2.25782">
        <ele>400</ele>
        <time>2021-04-18T08:46:47Z</time>
      </trkpt>
      <trkpt lat="43.99881" lon="2.25784">
        <ele>400</ele>
        <time>2021-04-18T08:46:48Z</time>
      </trkpt>
      <trkpt lat="43.9988" lon="2.25785">
        <ele>400</ele>
        <time>2021-04-18T08:46:49Z</time>
      </trkpt>
      <trkpt lat="43.99879" lon="2.25786">
        <ele>400</ele>
        <time>2021-04-18T08:46:50Z</time>
      </trkpt>
      <trkpt lat="43.99878" lon="2.25787">
        <ele>400</ele>
        <time>2021-04-18T08:46:51Z</time>
      </trkpt>
      <trkpt lat="43.99876" lon="2.25788">
        <ele>400</ele>
        <time>2021-04-18T08:46:52Z</time>
      </trkpt>
      <trkpt lat="43.99875" lon="2.25789">
        <ele>400</ele>
        <time>2021-04-18T08:46:53Z</time>
      </trkpt>
      <trkpt lat="43.99874" lon="2.25791">
        <ele>400</ele>
        <time>2021-04-18T08:46:54Z</time>
      </trkpt>
      <trkpt lat="43.99872" lon="2.25791">
        <ele>400</ele>
        <time>2021-04-18T08:46:55Z</time>
      </trkpt>
      <trkpt lat="43.99871" lon="2.25792">
        <ele>400</ele>
        <time>2021-04-18T08:46:56Z</time>
      </trkpt>
      <trkpt lat="43.9987" lon="2.25793">
        <ele>401</ele>
        <time>2021-04-18T08:46:57Z</time>
      </trkpt>
      <trkpt lat="43.99868" lon="2.25795">
        <ele>401</ele>
        <time>2021-04-18T08:46:58Z</time>
      </trkpt>
      <trkpt lat="43.99867" lon="2.25796">
        <ele>401</ele>
        <time>2021-04-18T08:46:59Z</time>
      </trkpt>
      <trkpt lat="43.99865" lon="2.25797">
        <ele>401</ele>
        <time>2021-04-18T08:47:00Z</time>
      </trkpt>
      <trkpt lat="43.99863" lon="2.25798">
        <ele>401</ele>
        <time>2021-04-18T08:47:01Z</time>
      </trkpt>
      <trkpt lat="43.99862" lon="2.25799">
        <ele>401</ele>
        <time>2021-04-18T08:47:02Z</time>
      </trkpt>
      <trkpt lat="43.99862" lon="2.258">
        <ele>402</ele>
        <time>2021-04-18T08:47:03Z</time>
      </trkpt>
      <trkpt lat="43.9986" lon="2.25801">
        <ele>402</ele>
        <time>2021-04-18T08:47:04Z</time>
      </trkpt>
      <trkpt lat="43.99859" lon="2.25802">
        <ele>403</ele>
        <time>2021-04-18T08:47:05Z</time>
      </trkpt>
      <trkpt lat="43.99858" lon="2.25803">
        <ele>402</ele>
        <time>2021-04-18T08:47:06Z</time>
      </trkpt>
      <trkpt lat="43.99857" lon="2.25804">
        <ele>401</ele>
        <time>2021-04-18T08:47:07Z</time>
      </trkpt>
      <trkpt lat="43.99855" lon="2.25805">
        <ele>401</ele>
        <time>2021-04-18T08:47:08Z</time>
      </trkpt>
      <trkpt lat="43.99854" lon="2.25806">
        <ele>401</ele>
        <time>2021-04-18T08:47:09Z</time>
      </trkpt>
      <trkpt lat="43.99852" lon="2.25807">
        <ele>401</ele>
        <time>2021-04-18T08:47:10Z</time>
      </trkpt>
      <trkpt lat="43.99851" lon="2.25809">
        <ele>401</ele>
        <time>2021-04-18T08:47:11Z</time>
      </trkpt>
      <trkpt lat="43.99849" lon="2.2581">
        <ele>400</ele>
        <time>2021-04-18T08:47:12Z</time>
      </trkpt>
      <trkpt lat="43.99848" lon="2.25812">
        <ele>400</ele>
        <time>2021-04-18T08:47:13Z</time>
      </trkpt>
      <trkpt lat="43.99847" lon="2.25813">
        <ele>400</ele>
        <time>2021-04-18T08:47:14Z</time>
      </trkpt>
      <trkpt lat="43.99846" lon="2.25814">
        <ele>400</ele>
        <time>2021-04-18T08:47:15Z</time>
      </trkpt>
      <trkpt lat="43.99844" lon="2.25815">
        <ele>400</ele>
        <time>2021-04-18T08:47:16Z</time>
      </trkpt>
      <trkpt lat="43.99843" lon="2.25817">
        <ele>400</ele>
        <time>2021-04-18T08:47:17Z</time>
      </trkpt>
      <trkpt lat="43.99841" lon="2.25819">
        <ele>400</ele>
        <time>2021-04-18T08:47:18Z</time>
      </trkpt>
      <trkpt lat="43.9984" lon="2.2582">
        <ele>400</ele>
        <time>2021-04-18T08:47:19Z</time>
      </trkpt>
      <trkpt lat="43.99839" lon="2.25821">
        <ele>399</ele>
        <time>2021-04-18T08:47:20Z</time>
      </trkpt>
      <trkpt lat="43.99838" lon="2.25822">
        <ele>399</ele>
        <time>2021-04-18T08:47:21Z</time>
      </trkpt>
      <trkpt lat="43.99836" lon="2.25823">
        <ele>399</ele>
        <time>2021-04-18T08:47:22Z</time>
      </trkpt>
      <trkpt lat="43.99835" lon="2.25825">
        <ele>399</ele>
        <time>2021-04-18T08:47:23Z</time>
      </trkpt>
      <trkpt lat="43.99833" lon="2.25826">
        <ele>399</ele>
        <time>2021-04-18T08:47:24Z</time>
      </trkpt>
      <trkpt lat="43.99832" lon="2.25827">
        <ele>399</ele>
        <time>2021-04-18T08:47:25Z</time>
      </trkpt>
      <trkpt lat="43.99831" lon="2.25828">
        <ele>399</ele>
        <time>2021-04-18T08:47:26Z</time>
      </trkpt>
      <trkpt lat="43.9983" lon="2.25829">
        <ele>399</ele>
        <time>2021-04-18T08:47:27Z</time>
      </trkpt>
      <trkpt lat="43.99828" lon="2.2583">
        <ele>400</ele>
        <time>2021-04-18T08:47:28Z</time>
      </trkpt>
      <trkpt lat="43.99827" lon="2.25831">
        <ele>400</ele>
        <time>2021-04-18T08:47:29Z</time>
      </trkpt>
      <trkpt lat="43.99825" lon="2.25833">
        <ele>400</ele>
        <time>2021-04-18T08:47:30Z</time>
      </trkpt>
      <trkpt lat="43.99824" lon="2.25835">
        <ele>400</ele>
        <time>2021-04-18T08:47:31Z</time>
      </trkpt>
      <trkpt lat="43.99822" lon="2.25837">
        <ele>400</ele>
        <time>2021-04-18T08:47:32Z</time>
      </trkpt>
      <trkpt lat="43.99821" lon="2.25839">
        <ele>399</ele>
        <time>2021-04-18T08:47:33Z</time>
      </trkpt>
      <trkpt lat="43.9982" lon="2.2584">
        <ele>400</ele>
        <time>2021-04-18T08:47:34Z</time>
      </trkpt>
      <trkpt lat="43.99818" lon="2.25842">
        <ele>400</ele>
        <time>2021-04-18T08:47:35Z</time>
      </trkpt>
      <trkpt lat="43.99817" lon="2.25844">
        <ele>400</ele>
        <time>2021-04-18T08:47:36Z</time>
      </trkpt>
      <trkpt lat="43.99816" lon="2.25845">
        <ele>400</ele>
        <time>2021-04-18T08:47:37Z</time>
      </trkpt>
      <trkpt lat="43.99814" lon="2.25847">
        <ele>400</ele>
        <time>2021-04-18T08:47:38Z</time>
      </trkpt>
      <trkpt lat="43.99813" lon="2.25848">
        <ele>400</ele>
        <time>2021-04-18T08:47:39Z</time>
      </trkpt>
      <trkpt lat="43.99812" lon="2.2585">
        <ele>400</ele>
        <time>2021-04-18T08:47:40Z</time>
      </trkpt>
      <trkpt lat="43.9981" lon="2.25851">
        <ele>400</ele>
        <time>2021-04-18T08:47:41Z</time>
      </trkpt>
      <trkpt lat="43.9981" lon="2.25851">
        <ele>400</ele>
        <time>2021-04-18T08:47:42Z</time>
      </trkpt>
      <trkpt lat="43.9981" lon="2.25852">
        <ele>399</ele>
        <time>2021-04-18T08:47:43Z</time>
      </trkpt>
      <trkpt lat="43.99808" lon="2.25853">
        <ele>399</ele>
        <time>2021-04-18T08:47:44Z</time>
      </trkpt>
      <trkpt lat="43.99807" lon="2.25855">
        <ele>399</ele>
        <time>2021-04-18T08:47:45Z</time>
      </trkpt>
      <trkpt lat="43.99805" lon="2.25857">
        <ele>399</ele>
        <time>2021-04-18T08:47:46Z</time>
      </trkpt>
      <trkpt lat="43.99804" lon="2.25858">
        <ele>399</ele>
        <time>2021-04-18T08:47:47Z</time>
      </trkpt>
      <trkpt lat="43.99802" lon="2.2586">
        <ele>399</ele>
        <time>2021-04-18T08:47:48Z</time>
      </trkpt>
      <trkpt lat="43.99801" lon="2.25861">
        <ele>399</ele>
        <time>2021-04-18T08:47:49Z</time>
      </trkpt>
      <trkpt lat="43.998" lon="2.25863">
        <ele>398</ele>
        <time>2021-04-18T08:47:50Z</time>
      </trkpt>
      <trkpt lat="43.99799" lon="2.25865">
        <ele>398</ele>
        <time>2021-04-18T08:47:51Z</time>
      </trkpt>
      <trkpt lat="43.99797" lon="2.25866">
        <ele>398</ele>
        <time>2021-04-18T08:47:52Z</time>
      </trkpt>
      <trkpt lat="43.99796" lon="2.25868">
        <ele>397</ele>
        <time>2021-04-18T08:47:53Z</time>
      </trkpt>
      <trkpt lat="43.99795" lon="2.25869">
        <ele>398</ele>
        <time>2021-04-18T08:47:54Z</time>
      </trkpt>
      <trkpt lat="43.99794" lon="2.2587">
        <ele>399</ele>
        <time>2021-04-18T08:47:55Z</time>
      </trkpt>
      <trkpt lat="43.99792" lon="2.25872">
        <ele>399</ele>
        <time>2021-04-18T08:47:56Z</time>
      </trkpt>
      <trkpt lat="43.99791" lon="2.25873">
        <ele>399</ele>
        <time>2021-04-18T08:47:57Z</time>
      </trkpt>
      <trkpt lat="43.9979" lon="2.25874">
        <ele>399</ele>
        <time>2021-04-18T08:47:58Z</time>
      </trkpt>
      <trkpt lat="43.99789" lon="2.25876">
        <ele>399</ele>
        <time>2021-04-18T08:47:59Z</time>
      </trkpt>
      <trkpt lat="43.99788" lon="2.25878">
        <ele>399</ele>
        <time>2021-04-18T08:48:00Z</time>
      </trkpt>
      <trkpt lat="43.99786" lon="2.25879">
        <ele>399</ele>
        <time>2021-04-18T08:48:01Z</time>
      </trkpt>
      <trkpt lat="43.99785" lon="2.25881">
        <ele>399</ele>
        <time>2021-04-18T08:48:02Z</time>
      </trkpt>
      <trkpt lat="43.99784" lon="2.25882">
        <ele>398</ele>
        <time>2021-04-18T08:48:03Z</time>
      </trkpt>
      <trkpt lat="43.99783" lon="2.25884">
        <ele>398</ele>
        <time>2021-04-18T08:48:04Z</time>
      </trkpt>
      <trkpt lat="43.99781" lon="2.25885">
        <ele>399</ele>
        <time>2021-04-18T08:48:05Z</time>
      </trkpt>
      <trkpt lat="43.9978" lon="2.25886">
        <ele>399</ele>
        <time>2021-04-18T08:48:06Z</time>
      </trkpt>
      <trkpt lat="43.99779" lon="2.25888">
        <ele>399</ele>
        <time>2021-04-18T08:48:07Z</time>
      </trkpt>
      <trkpt lat="43.99778" lon="2.25889">
        <ele>399</ele>
        <time>2021-04-18T08:48:08Z</time>
      </trkpt>
      <trkpt lat="43.99777" lon="2.2589">
        <ele>399</ele>
        <time>2021-04-18T08:48:09Z</time>
      </trkpt>
      <trkpt lat="43.99776" lon="2.25891">
        <ele>400</ele>
        <time>2021-04-18T08:48:10Z</time>
      </trkpt>
      <trkpt lat="43.99774" lon="2.25892">
        <ele>400</ele>
        <time>2021-04-18T08:48:11Z</time>
      </trkpt>
      <trkpt lat="43.99772" lon="2.25894">
        <ele>400</ele>
        <time>2021-04-18T08:48:12Z</time>
      </trkpt>
      <trkpt lat="43.9977" lon="2.25896">
        <ele>400</ele>
        <time>2021-04-18T08:48:13Z</time>
      </trkpt>
      <trkpt lat="43.99769" lon="2.25898">
        <ele>401</ele>
        <time>2021-04-18T08:48:14Z</time>
      </trkpt>
      <trkpt lat="43.99768" lon="2.259">
        <ele>401</ele>
        <time>2021-04-18T08:48:15Z</time>
      </trkpt>
      <trkpt lat="43.99766" lon="2.25902">
        <ele>401</ele>
        <time>2021-04-18T08:48:16Z</time>
      </trkpt>
      <trkpt lat="43.99765" lon="2.25904">
        <ele>401</ele>
        <time>2021-04-18T08:48:17Z</time>
      </trkpt>
      <trkpt lat="43.99764" lon="2.25905">
        <ele>401</ele>
        <time>2021-04-18T08:48:18Z</time>
      </trkpt>
      <trkpt lat="43.99762" lon="2.25907">
        <ele>401</ele>
        <time>2021-04-18T08:48:19Z</time>
      </trkpt>
      <trkpt lat="43.99761" lon="2.25909">
        <ele>400</ele>
        <time>2021-04-18T08:48:20Z</time>
      </trkpt>
      <trkpt lat="43.9976" lon="2.2591">
        <ele>400</ele>
        <time>2021-04-18T08:48:21Z</time>
      </trkpt>
      <trkpt lat="43.99759" lon="2.25911">
        <ele>400</ele>
        <time>2021-04-18T08:48:22Z</time>
      </trkpt>
      <trkpt lat="43.99757" lon="2.25912">
        <ele>400</ele>
        <time>2021-04-18T08:48:23Z</time>
      </trkpt>
      <trkpt lat="43.99756" lon="2.25914">
        <ele>400</ele>
        <time>2021-04-18T08:48:24Z</time>
      </trkpt>
      <trkpt lat="43.99756" lon="2.25915">
        <ele>400</ele>
        <time>2021-04-18T08:48:25Z</time>
      </trkpt>
      <trkpt lat="43.99754" lon="2.25917">
        <ele>401</ele>
        <time>2021-04-18T08:48:26Z</time>
      </trkpt>
      <trkpt lat="43.99753" lon="2.25919">
        <ele>401</ele>
        <time>2021-04-18T08:48:27Z</time>
      </trkpt>
      <trkpt lat="43.99752" lon="2.2592">
        <ele>402</ele>
        <time>2021-04-18T08:48:28Z</time>
      </trkpt>
      <trkpt lat="43.99751" lon="2.25921">
        <ele>402</ele>
        <time>2021-04-18T08:48:29Z</time>
      </trkpt>
      <trkpt lat="43.99749" lon="2.25922">
        <ele>403</ele>
        <time>2021-04-18T08:48:30Z</time>
      </trkpt>
      <trkpt lat="43.99748" lon="2.25924">
        <ele>403</ele>
        <time>2021-04-18T08:48:31Z</time>
      </trkpt>
      <trkpt lat="43.99747" lon="2.25926">
        <ele>403</ele>
        <time>2021-04-18T08:48:32Z</time>
      </trkpt>
      <trkpt lat="43.99746" lon="2.25927">
        <ele>402</ele>
        <time>2021-04-18T08:48:33Z</time>
      </trkpt>
      <trkpt lat="43.99745" lon="2.25928">
        <ele>402</ele>
        <time>2021-04-18T08:48:34Z</time>
      </trkpt>
      <trkpt lat="43.99744" lon="2.2593">
        <ele>401</ele>
        <time>2021-04-18T08:48:35Z</time>
      </trkpt>
      <trkpt lat="43.99743" lon="2.25932">
        <ele>401</ele>
        <time>2021-04-18T08:48:36Z</time>
      </trkpt>
      <trkpt lat="43.99741" lon="2.25933">
        <ele>400</ele>
        <time>2021-04-18T08:48:37Z</time>
      </trkpt>
      <trkpt lat="43.9974" lon="2.25934">
        <ele>400</ele>
        <time>2021-04-18T08:48:38Z</time>
      </trkpt>
      <trkpt lat="43.99738" lon="2.25936">
        <ele>400</ele>
        <time>2021-04-18T08:48:39Z</time>
      </trkpt>
      <trkpt lat="43.99737" lon="2.25938">
        <ele>400</ele>
        <time>2021-04-18T08:48:40Z</time>
      </trkpt>
      <trkpt lat="43.99736" lon="2.25939">
        <ele>400</ele>
        <time>2021-04-18T08:48:41Z</time>
      </trkpt>
      <trkpt lat="43.99736" lon="2.25941">
        <ele>400</ele>
        <time>2021-04-18T08:48:42Z</time>
      </trkpt>
      <trkpt lat="43.99735" lon="2.25942">
        <ele>401</ele>
        <time>2021-04-18T08:48:43Z</time>
      </trkpt>
      <trkpt lat="43.99734" lon="2.25943">
        <ele>401</ele>
        <time>2021-04-18T08:48:44Z</time>
      </trkpt>
      <trkpt lat="43.99733" lon="2.25944">
        <ele>401</ele>
        <time>2021-04-18T08:48:45Z</time>
      </trkpt>
      <trkpt lat="43.99731" lon="2.25945">
        <ele>402</ele>
        <time>2021-04-18T08:48:46Z</time>
      </trkpt>
      <trkpt lat="43.9973" lon="2.25946">
        <ele>402</ele>
        <time>2021-04-18T08:48:47Z</time>
      </trkpt>
      <trkpt lat="43.99729" lon="2.25947">
        <ele>402</ele>
        <time>2021-04-18T08:48:48Z</time>
      </trkpt>
      <trkpt lat="43.99728" lon="2.25948">
        <ele>402</ele>
        <time>2021-04-18T08:48:49Z</time>
      </trkpt>
      <trkpt lat="43.99726" lon="2.25949">
        <ele>402</ele>
        <time>2021-04-18T08:48:50Z</time>
      </trkpt>
      <trkpt lat="43.99725" lon="2.2595">
        <ele>402</ele>
        <time>2021-04-18T08:48:51Z</time>
      </trkpt>
      <trkpt lat="43.99723" lon="2.25952">
        <ele>402</ele>
        <time>2021-04-18T08:48:52Z</time>
      </trkpt>
      <trkpt lat="43.99722" lon="2.25953">
        <ele>402</ele>
        <time>2021-04-18T08:48:53Z</time>
      </trkpt>
      <trkpt lat="43.99721" lon="2.25955">
        <ele>402</ele>
        <time>2021-04-18T08:48:54Z</time>
      </trkpt>
      <trkpt lat="43.99719" lon="2.25956">
        <ele>402</ele>
        <time>2021-04-18T08:48:55Z</time>
      </trkpt>
      <trkpt lat="43.99719" lon="2.25958">
        <ele>401</ele>
        <time>2021-04-18T08:48:56Z</time>
      </trkpt>
      <trkpt lat="43.99717" lon="2.2596">
        <ele>401</ele>
        <time>2021-04-18T08:48:57Z</time>
      </trkpt>
      <trkpt lat="43.99716" lon="2.25962">
        <ele>401</ele>
        <time>2021-04-18T08:48:58Z</time>
      </trkpt>
      <trkpt lat="43.99715" lon="2.25963">
        <ele>401</ele>
        <time>2021-04-18T08:48:59Z</time>
      </trkpt>
      <trkpt lat="43.99714" lon="2.25964">
        <ele>401</ele>
        <time>2021-04-18T08:49:00Z</time>
      </trkpt>
      <trkpt lat="43.99712" lon="2.25965">
        <ele>401</ele>
        <time>2021-04-18T08:49:01Z</time>
      </trkpt>
      <trkpt lat="43.99711" lon="2.25967">
        <ele>401</ele>
        <time>2021-04-18T08:49:02Z</time>
      </trkpt>
      <trkpt lat="43.99709" lon="2.25968">
        <ele>401</ele>
        <time>2021-04-18T08:49:03Z</time>
      </trkpt>
      <trkpt lat="43.99708" lon="2.2597">
        <ele>401</ele>
        <time>2021-04-18T08:49:04Z</time>
      </trkpt>
      <trkpt lat="43.99706" lon="2.25971">
        <ele>401</ele>
        <time>2021-04-18T08:49:05Z</time>
      </trkpt>
      <trkpt lat="43.99705" lon="2.25972">
        <ele>401</ele>
        <time>2021-04-18T08:49:06Z</time>
      </trkpt>
      <trkpt lat="43.99704" lon="2.25974">
        <ele>401</ele>
        <time>2021-04-18T08:49:07Z</time>
      </trkpt>
      <trkpt lat="43.99702" lon="2.25975">
        <ele>401</ele>
        <time>2021-04-18T08:49:08Z</time>
      </trkpt>
      <trkpt lat="43.99701" lon="2.25977">
        <ele>401</ele>
        <time>2021-04-18T08:49:09Z</time>
      </trkpt>
      <trkpt lat="43.99699" lon="2.25978">
        <ele>401</ele>
        <time>2021-04-18T08:49:10Z</time>
      </trkpt>
      <trkpt lat="43.99698" lon="2.2598">
        <ele>401</ele>
        <time>2021-04-18T08:49:11Z</time>
      </trkpt>
      <trkpt lat="43.99696" lon="2.25981">
        <ele>401</ele>
        <time>2021-04-18T08:49:12Z</time>
      </trkpt>
      <trkpt lat="43.99695" lon="2.25982">
        <ele>401</ele>
        <time>2021-04-18T08:49:13Z</time>
      </trkpt>
      <trkpt lat="43.99694" lon="2.25984">
        <ele>401</ele>
        <time>2021-04-18T08:49:14Z</time>
      </trkpt>
      <trkpt lat="43.99693" lon="2.25985">
        <ele>401</ele>
        <time>2021-04-18T08:49:15Z</time>
      </trkpt>
      <trkpt lat="43.99691" lon="2.25987">
        <ele>401</ele>
        <time>2021-04-18T08:49:16Z</time>
      </trkpt>
      <trkpt lat="43.9969" lon="2.25989">
        <ele>401</ele>
        <time>2021-04-18T08:49:17Z</time>
      </trkpt>
      <trkpt lat="43.99689" lon="2.2599">
        <ele>401</ele>
        <time>2021-04-18T08:49:18Z</time>
      </trkpt>
      <trkpt lat="43.99687" lon="2.25991">
        <ele>401</ele>
        <time>2021-04-18T08:49:19Z</time>
      </trkpt>
      <trkpt lat="43.99686" lon="2.25993">
        <ele>401</ele>
        <time>2021-04-18T08:49:20Z</time>
      </trkpt>
      <trkpt lat="43.99685" lon="2.25994">
        <ele>401</ele>
        <time>2021-04-18T08:49:21Z</time>
      </trkpt>
      <trkpt lat="43.99684" lon="2.25995">
        <ele>401</ele>
        <time>2021-04-18T08:49:22Z</time>
      </trkpt>
      <trkpt lat="43.99682" lon="2.25997">
        <ele>401</ele>
        <time>2021-04-18T08:49:23Z</time>
      </trkpt>
      <trkpt lat="43.99681" lon="2.25998">
        <ele>402</ele>
        <time>2021-04-18T08:49:24Z</time>
      </trkpt>
      <trkpt lat="43.9968" lon="2.25999">
        <ele>402</ele>
        <time>2021-04-18T08:49:25Z</time>
      </trkpt>
      <trkpt lat="43.9968" lon="2.26">
        <ele>402</ele>
        <time>2021-04-18T08:49:26Z</time>
      </trkpt>
      <trkpt lat="43.99678" lon="2.26001">
        <ele>401</ele>
        <time>2021-04-18T08:49:27Z</time>
      </trkpt>
      <trkpt lat="43.99677" lon="2.26002">
        <ele>401</ele>
        <time>2021-04-18T08:49:28Z</time>
      </trkpt>
      <trkpt lat="43.99675" lon="2.26004">
        <ele>400</ele>
        <time>2021-04-18T08:49:29Z</time>
      </trkpt>
      <trkpt lat="43.99674" lon="2.26005">
        <ele>399</ele>
        <time>2021-04-18T08:49:30Z</time>
      </trkpt>
      <trkpt lat="43.99672" lon="2.26006">
        <ele>400</ele>
        <time>2021-04-18T08:49:31Z</time>
      </trkpt>
      <trkpt lat="43.9967" lon="2.26007">
        <ele>400</ele>
        <time>2021-04-18T08:49:32Z</time>
      </trkpt>
      <trkpt lat="43.99669" lon="2.26007">
        <ele>400</ele>
        <time>2021-04-18T08:49:33Z</time>
      </trkpt>
      <trkpt lat="43.99668" lon="2.26008">
        <ele>400</ele>
        <time>2021-04-18T08:49:34Z</time>
      </trkpt>
      <trkpt lat="43.99667" lon="2.2601">
        <ele>399</ele>
        <time>2021-04-18T08:49:35Z</time>
      </trkpt>
      <trkpt lat="43.99665" lon="2.26011">
        <ele>399</ele>
        <time>2021-04-18T08:49:36Z</time>
      </trkpt>
      <trkpt lat="43.99664" lon="2.26012">
        <ele>399</ele>
        <time>2021-04-18T08:49:37Z</time>
      </trkpt>
      <trkpt lat="43.99662" lon="2.26014">
        <ele>399</ele>
        <time>2021-04-18T08:49:38Z</time>
      </trkpt>
      <trkpt lat="43.99661" lon="2.26015">
        <ele>399</ele>
        <time>2021-04-18T08:49:39Z</time>
      </trkpt>
      <trkpt lat="43.9966" lon="2.26017">
        <ele>399</ele>
        <time>2021-04-18T08:49:40Z</time>
      </trkpt>
      <trkpt lat="43.99658" lon="2.26019">
        <ele>399</ele>
        <time>2021-04-18T08:49:41Z</time>
      </trkpt>
      <trkpt lat="43.99657" lon="2.2602">
        <ele>399</ele>
        <time>2021-04-18T08:49:42Z</time>
      </trkpt>
      <trkpt lat="43.99656" lon="2.26021">
        <ele>399</ele>
        <time>2021-04-18T08:49:43Z</time>
      </trkpt>
      <trkpt lat="43.99654" lon="2.26023">
        <ele>399</ele>
        <time>2021-04-18T08:49:44Z</time>
      </trkpt>
      <trkpt lat="43.99653" lon="2.26024">
        <ele>399</ele>
        <time>2021-04-18T08:49:45Z</time>
      </trkpt>
      <trkpt lat="43.99651" lon="2.26025">
        <ele>399</ele>
        <time>2021-04-18T08:49:46Z</time>
      </trkpt>
      <trkpt lat="43.9965" lon="2.26027">
        <ele>399</ele>
        <time>2021-04-18T08:49:47Z</time>
      </trkpt>
      <trkpt lat="43.99649" lon="2.26028">
        <ele>399</ele>
        <time>2021-04-18T08:49:48Z</time>
      </trkpt>
      <trkpt lat="43.99648" lon="2.26029">
        <ele>400</ele>
        <time>2021-04-18T08:49:49Z</time>
      </trkpt>
      <trkpt lat="43.99646" lon="2.2603">
        <ele>400</ele>
        <time>2021-04-18T08:49:50Z</time>
      </trkpt>
      <trkpt lat="43.99645" lon="2.26032">
        <ele>399</ele>
        <time>2021-04-18T08:49:51Z</time>
      </trkpt>
      <trkpt lat="43.99644" lon="2.26033">
        <ele>399</ele>
        <time>2021-04-18T08:49:52Z</time>
      </trkpt>
      <trkpt lat="43.99643" lon="2.26036">
        <ele>399</ele>
        <time>2021-04-18T08:49:53Z</time>
      </trkpt>
      <trkpt lat="43.99642" lon="2.26037">
        <ele>399</ele>
        <time>2021-04-18T08:49:54Z</time>
      </trkpt>
      <trkpt lat="43.9964" lon="2.26038">
        <ele>399</ele>
        <time>2021-04-18T08:49:55Z</time>
      </trkpt>
      <trkpt lat="43.99639" lon="2.2604">
        <ele>400</ele>
        <time>2021-04-18T08:49:56Z</time>
      </trkpt>
      <trkpt lat="43.99638" lon="2.26041">
        <ele>400</ele>
        <time>2021-04-18T08:49:57Z</time>
      </trkpt>
      <trkpt lat="43.99636" lon="2.26042">
        <ele>400</ele>
        <time>2021-04-18T08:49:58Z</time>
      </trkpt>
      <trkpt lat="43.99635" lon="2.26043">
        <ele>400</ele>
        <time>2021-04-18T08:49:59Z</time>
      </trkpt>
      <trkpt lat="43.99633" lon="2.26044">
        <ele>400</ele>
        <time>2021-04-18T08:50:00Z</time>
      </trkpt>
      <trkpt lat="43.99632" lon="2.26045">
        <ele>399</ele>
        <time>2021-04-18T08:50:01Z</time>
      </trkpt>
      <trkpt lat="43.99631" lon="2.26047">
        <ele>400</ele>
        <time>2021-04-18T08:50:02Z</time>
      </trkpt>
      <trkpt lat="43.99629" lon="2.26048">
        <ele>401</ele>
        <time>2021-04-18T08:50:03Z</time>
      </trkpt>
      <trkpt lat="43.99628" lon="2.26049">
        <ele>401</ele>
        <time>2021-04-18T08:50:04Z</time>
      </trkpt>
      <trkpt lat="43.99627" lon="2.2605">
        <ele>401</ele>
        <time>2021-04-18T08:50:05Z</time>
      </trkpt>
      <trkpt lat="43.99625" lon="2.26051">
        <ele>401</ele>
        <time>2021-04-18T08:50:06Z</time>
      </trkpt>
      <trkpt lat="43.99624" lon="2.26053">
        <ele>401</ele>
        <time>2021-04-18T08:50:07Z</time>
      </trkpt>
      <trkpt lat="43.99623" lon="2.26054">
        <ele>401</ele>
        <time>2021-04-18T08:50:08Z</time>
      </trkpt>
      <trkpt lat="43.99622" lon="2.26056">
        <ele>401</ele>
        <time>2021-04-18T08:50:09Z</time>
      </trkpt>
      <trkpt lat="43.9962" lon="2.26057">
        <ele>401</ele>
        <time>2021-04-18T08:50:10Z</time>
      </trkpt>
      <trkpt lat="43.99619" lon="2.26058">
        <ele>401</ele>
        <time>2021-04-18T08:50:11Z</time>
      </trkpt>
      <trkpt lat="43.99618" lon="2.26059">
        <ele>401</ele>
        <time>2021-04-18T08:50:12Z</time>
      </trkpt>
      <trkpt lat="43.99616" lon="2.2606">
        <ele>401</ele>
        <time>2021-04-18T08:50:13Z</time>
      </trkpt>
      <trkpt lat="43.99615" lon="2.26061">
        <ele>400</ele>
        <time>2021-04-18T08:50:14Z</time>
      </trkpt>
      <trkpt lat="43.99613" lon="2.26063">
        <ele>401</ele>
        <time>2021-04-18T08:50:15Z</time>
      </trkpt>
      <trkpt lat="43.99612" lon="2.26065">
        <ele>400</ele>
        <time>2021-04-18T08:50:16Z</time>
      </trkpt>
      <trkpt lat="43.99611" lon="2.26066">
        <ele>400</ele>
        <time>2021-04-18T08:50:17Z</time>
      </trkpt>
      <trkpt lat="43.99609" lon="2.26067">
        <ele>400</ele>
        <time>2021-04-18T08:50:18Z</time>
      </trkpt>
      <trkpt lat="43.99608" lon="2.26068">
        <ele>400</ele>
        <time>2021-04-18T08:50:19Z</time>
      </trkpt>
      <trkpt lat="43.99607" lon="2.2607">
        <ele>400</ele>
        <time>2021-04-18T08:50:20Z</time>
      </trkpt>
      <trkpt lat="43.99605" lon="2.26071">
        <ele>400</ele>
        <time>2021-04-18T08:50:21Z</time>
      </trkpt>
      <trkpt lat="43.99604" lon="2.26072">
        <ele>400</ele>
        <time>2021-04-18T08:50:22Z</time>
      </trkpt>
      <trkpt lat="43.99603" lon="2.26072">
        <ele>400</ele>
        <time>2021-04-18T08:50:23Z</time>
      </trkpt>
      <trkpt lat="43.99601" lon="2.26073">
        <ele>400</ele>
        <time>2021-04-18T08:50:24Z</time>
      </trkpt>
      <trkpt lat="43.996" lon="2.26074">
        <ele>399</ele>
        <time>2021-04-18T08:50:25Z</time>
      </trkpt>
      <trkpt lat="43.99598" lon="2.26074">
        <ele>399</ele>
        <time>2021-04-18T08:50:26Z</time>
      </trkpt>
      <trkpt lat="43.99597" lon="2.26075">
        <ele>400</ele>
        <time>2021-04-18T08:50:27Z</time>
      </trkpt>
      <trkpt lat="43.99595" lon="2.26076">
        <ele>400</ele>
        <time>2021-04-18T08:50:28Z</time>
      </trkpt>
      <trkpt lat="43.99594" lon="2.26077">
        <ele>400</ele>
        <time>2021-04-18T08:50:29Z</time>
      </trkpt>
      <trkpt lat="43.99593" lon="2.26078">
        <ele>400</ele>
        <time>2021-04-18T08:50:30Z</time>
      </trkpt>
      <trkpt lat="43.99591" lon="2.26079">
        <ele>400</ele>
        <time>2021-04-18T08:50:31Z</time>
      </trkpt>
      <trkpt lat="43.99589" lon="2.26081">
        <ele>400</ele>
        <time>2021-04-18T08:50:32Z</time>
      </trkpt>
      <trkpt lat="43.99588" lon="2.26081">
        <ele>400</ele>
        <time>2021-04-18T08:50:33Z</time>
      </trkpt>
      <trkpt lat="43.99586" lon="2.26082">
        <ele>401</ele>
        <time>2021-04-18T08:50:34Z</time>
      </trkpt>
      <trkpt lat="43.99585" lon="2.26083">
        <ele>401</ele>
        <time>2021-04-18T08:50:35Z</time>
      </trkpt>
      <trkpt lat="43.99583" lon="2.26084">
        <ele>402</ele>
        <time>2021-04-18T08:50:36Z</time>
      </trkpt>
      <trkpt lat="43.99582" lon="2.26085">
        <ele>402</ele>
        <time>2021-04-18T08:50:37Z</time>
      </trkpt>
      <trkpt lat="43.99581" lon="2.26085">
        <ele>402</ele>
        <time>2021-04-18T08:50:38Z</time>
      </trkpt>
      <trkpt lat="43.99579" lon="2.26086">
        <ele>402</ele>
        <time>2021-04-18T08:50:39Z</time>
      </trkpt>
      <trkpt lat="43.99578" lon="2.26087">
        <ele>402</ele>
        <time>2021-04-18T08:50:40Z</time>
      </trkpt>
      <trkpt lat="43.99576" lon="2.26087">
        <ele>402</ele>
        <time>2021-04-18T08:50:41Z</time>
      </trkpt>
      <trkpt lat="43.99575" lon="2.26088">
        <ele>402</ele>
        <time>2021-04-18T08:50:42Z</time>
      </trkpt>
      <trkpt lat="43.99573" lon="2.26089">
        <ele>402</ele>
        <time>2021-04-18T08:50:43Z</time>
      </trkpt>
      <trkpt lat="43.99572" lon="2.26089">
        <ele>402</ele>
        <time>2021-04-18T08:50:44Z</time>
      </trkpt>
      <trkpt lat="43.9957" lon="2.2609">
        <ele>402</ele>
        <time>2021-04-18T08:50:45Z</time>
      </trkpt>
      <trkpt lat="43.99568" lon="2.26091">
        <ele>403</ele>
        <time>2021-04-18T08:50:46Z</time>
      </trkpt>
      <trkpt lat="43.99567" lon="2.26091">
        <ele>402</ele>
        <time>2021-04-18T08:50:47Z</time>
      </trkpt>
      <trkpt lat="43.99566" lon="2.26092">
        <ele>402</ele>
        <time>2021-04-18T08:50:48Z</time>
      </trkpt>
      <trkpt lat="43.99564" lon="2.26093">
        <ele>402</ele>
        <time>2021-04-18T08:50:49Z</time>
      </trkpt>
      <trkpt lat="43.99563" lon="2.26093">
        <ele>402</ele>
        <time>2021-04-18T08:50:50Z</time>
      </trkpt>
      <trkpt lat="43.99563" lon="2.26094">
        <ele>402</ele>
        <time>2021-04-18T08:50:51Z</time>
      </trkpt>
      <trkpt lat="43.99561" lon="2.26095">
        <ele>402</ele>
        <time>2021-04-18T08:50:52Z</time>
      </trkpt>
      <trkpt lat="43.99559" lon="2.26096">
        <ele>402</ele>
        <time>2021-04-18T08:50:53Z</time>
      </trkpt>
      <trkpt lat="43.99558" lon="2.26096">
        <ele>402</ele>
        <time>2021-04-18T08:50:54Z</time>
      </trkpt>
      <trkpt lat="43.99556" lon="2.26097">
        <ele>402</ele>
        <time>2021-04-18T08:50:55Z</time>
      </trkpt>
      <trkpt lat="43.99555" lon="2.26097">
        <ele>401</ele>
        <time>2021-04-18T08:50:56Z</time>
      </trkpt>
      <trkpt lat="43.99553" lon="2.26096">
        <ele>401</ele>
        <time>2021-04-18T08:50:57Z</time>
      </trkpt>
      <trkpt lat="43.99552" lon="2.26097">
        <ele>401</ele>
        <time>2021-04-18T08:50:58Z</time>
      </trkpt>
      <trkpt lat="43.9955" lon="2.26097">
        <ele>402</ele>
        <time>2021-04-18T08:50:59Z</time>
      </trkpt>
      <trkpt lat="43.99549" lon="2.26097">
        <ele>402</ele>
        <time>2021-04-18T08:51:00Z</time>
      </trkpt>
      <trkpt lat="43.99547" lon="2.26098">
        <ele>402</ele>
        <time>2021-04-18T08:51:01Z</time>
      </trkpt>
      <trkpt lat="43.99546" lon="2.26098">
        <ele>402</ele>
        <time>2021-04-18T08:51:02Z</time>
      </trkpt>
      <trkpt lat="43.99545" lon="2.26099">
        <ele>401</ele>
        <time>2021-04-18T08:51:03Z</time>
      </trkpt>
      <trkpt lat="43.99543" lon="2.26099">
        <ele>401</ele>
        <time>2021-04-18T08:51:04Z</time>
      </trkpt>
      <trkpt lat="43.99542" lon="2.26099">
        <ele>401</ele>
        <time>2021-04-18T08:51:05Z</time>
      </trkpt>
      <trkpt lat="43.9954" lon="2.26099">
        <ele>401</ele>
        <time>2021-04-18T08:51:06Z</time>
      </trkpt>
      <trkpt lat="43.99539" lon="2.26099">
        <ele>401</ele>
        <time>2021-04-18T08:51:07Z</time>
      </trkpt>
      <trkpt lat="43.99538" lon="2.26099">
        <ele>401</ele>
        <time>2021-04-18T08:51:08Z</time>
      </trkpt>
      <trkpt lat="43.99536" lon="2.26099">
        <ele>402</ele>
        <time>2021-04-18T08:51:09Z</time>
      </trkpt>
      <trkpt lat="43.99534" lon="2.26099">
        <ele>402</ele>
        <time>2021-04-18T08:51:10Z</time>
      </trkpt>
      <trkpt lat="43.99533" lon="2.26098">
        <ele>402</ele>
        <time>2021-04-18T08:51:11Z</time>
      </trkpt>
      <trkpt lat="43.99531" lon="2.26098">
        <ele>402</ele>
        <time>2021-04-18T08:51:12Z</time>
      </trkpt>
      <trkpt lat="43.9953" lon="2.26099">
        <ele>402</ele>
        <time>2021-04-18T08:51:13Z</time>
      </trkpt>
      <trkpt lat="43.99529" lon="2.26099">
        <ele>402</ele>
        <time>2021-04-18T08:51:14Z</time>
      </trkpt>
      <trkpt lat="43.99527" lon="2.26099">
        <ele>402</ele>
        <time>2021-04-18T08:51:15Z</time>
      </trkpt>
      <trkpt lat="43.99526" lon="2.26099">
        <ele>402</ele>
        <time>2021-04-18T08:51:16Z</time>
      </trkpt>
      <trkpt lat="43.99525" lon="2.26099">
        <ele>403</ele>
        <time>2021-04-18T08:51:17Z</time>
      </trkpt>
      <trkpt lat="43.99523" lon="2.26099">
        <ele>403</ele>
        <time>2021-04-18T08:51:18Z</time>
      </trkpt>
      <trkpt lat="43.99521" lon="2.26098">
        <ele>403</ele>
        <time>2021-04-18T08:51:19Z</time>
      </trkpt>
      <trkpt lat="43.99519" lon="2.26098">
        <ele>403</ele>
        <time>2021-04-18T08:51:20Z</time>
      </trkpt>
      <trkpt lat="43.99518" lon="2.26097">
        <ele>404</ele>
        <time>2021-04-18T08:51:21Z</time>
      </trkpt>
      <trkpt lat="43.99516" lon="2.26097">
        <ele>403</ele>
        <time>2021-04-18T08:51:22Z</time>
      </trkpt>
      <trkpt lat="43.99515" lon="2.26097">
        <ele>403</ele>
        <time>2021-04-18T08:51:23Z</time>
      </trkpt>
      <trkpt lat="43.99514" lon="2.26097">
        <ele>404</ele>
        <time>2021-04-18T08:51:24Z</time>
      </trkpt>
      <trkpt lat="43.99513" lon="2.26096">
        <ele>404</ele>
        <time>2021-04-18T08:51:25Z</time>
      </trkpt>
      <trkpt lat="43.99511" lon="2.26096">
        <ele>404</ele>
        <time>2021-04-18T08:51:26Z</time>
      </trkpt>
      <trkpt lat="43.99509" lon="2.26096">
        <ele>404</ele>
        <time>2021-04-18T08:51:27Z</time>
      </trkpt>
      <trkpt lat="43.99508" lon="2.26096">
        <ele>404</ele>
        <time>2021-04-18T08:51:28Z</time>
      </trkpt>
      <trkpt lat="43.99507" lon="2.26096">
        <ele>404</ele>
        <time>2021-04-18T08:51:29Z</time>
      </trkpt>
      <trkpt lat="43.99505" lon="2.26096">
        <ele>404</ele>
        <time>2021-04-18T08:51:30Z</time>
      </trkpt>
      <trkpt lat="43.99504" lon="2.26096">
        <ele>404</ele>
        <time>2021-04-18T08:51:31Z</time>
      </trkpt>
      <trkpt lat="43.99503" lon="2.26096">
        <ele>405</ele>
        <time>2021-04-18T08:51:32Z</time>
      </trkpt>
      <trkpt lat="43.99501" lon="2.26095">
        <ele>405</ele>
        <time>2021-04-18T08:51:33Z</time>
      </trkpt>
      <trkpt lat="43.995" lon="2.26095">
        <ele>405</ele>
        <time>2021-04-18T08:51:34Z</time>
      </trkpt>
      <trkpt lat="43.99498" lon="2.26094">
        <ele>405</ele>
        <time>2021-04-18T08:51:35Z</time>
      </trkpt>
      <trkpt lat="43.99497" lon="2.26094">
        <ele>405</ele>
        <time>2021-04-18T08:51:36Z</time>
      </trkpt>
      <trkpt lat="43.99495" lon="2.26094">
        <ele>405</ele>
        <time>2021-04-18T08:51:37Z</time>
      </trkpt>
      <trkpt lat="43.99493" lon="2.26094">
        <ele>405</ele>
        <time>2021-04-18T08:51:38Z</time>
      </trkpt>
      <trkpt lat="43.99492" lon="2.26094">
        <ele>405</ele>
        <time>2021-04-18T08:51:39Z</time>
      </trkpt>
      <trkpt lat="43.9949" lon="2.26093">
        <ele>406</ele>
        <time>2021-04-18T08:51:40Z</time>
      </trkpt>
      <trkpt lat="43.99489" lon="2.26093">
        <ele>406</ele>
        <time>2021-04-18T08:51:41Z</time>
      </trkpt>
      <trkpt lat="43.99488" lon="2.26093">
        <ele>405</ele>
        <time>2021-04-18T08:51:42Z</time>
      </trkpt>
      <trkpt lat="43.99486" lon="2.26093">
        <ele>405</ele>
        <time>2021-04-18T08:51:43Z</time>
      </trkpt>
      <trkpt lat="43.99485" lon="2.26093">
        <ele>405</ele>
        <time>2021-04-18T08:51:44Z</time>
      </trkpt>
      <trkpt lat="43.99483" lon="2.26092">
        <ele>405</ele>
        <time>2021-04-18T08:51:45Z</time>
      </trkpt>
      <trkpt lat="43.99482" lon="2.26092">
        <ele>405</ele>
        <time>2021-04-18T08:51:46Z</time>
      </trkpt>
      <trkpt lat="43.9948" lon="2.26092">
        <ele>405</ele>
        <time>2021-04-18T08:51:47Z</time>
      </trkpt>
      <trkpt lat="43.99479" lon="2.26092">
        <ele>405</ele>
        <time>2021-04-18T08:51:48Z</time>
      </trkpt>
      <trkpt lat="43.99478" lon="2.26092">
        <ele>405</ele>
        <time>2021-04-18T08:51:49Z</time>
      </trkpt>
      <trkpt lat="43.99477" lon="2.26092">
        <ele>406</ele>
        <time>2021-04-18T08:51:50Z</time>
      </trkpt>
      <trkpt lat="43.99475" lon="2.26092">
        <ele>406</ele>
        <time>2021-04-18T08:51:51Z</time>
      </trkpt>
      <trkpt lat="43.99474" lon="2.26092">
        <ele>406</ele>
        <time>2021-04-18T08:51:52Z</time>
      </trkpt>
      <trkpt lat="43.99472" lon="2.26091">
        <ele>406</ele>
        <time>2021-04-18T08:51:53Z</time>
      </trkpt>
      <trkpt lat="43.99471" lon="2.26091">
        <ele>406</ele>
        <time>2021-04-18T08:51:54Z</time>
      </trkpt>
      <trkpt lat="43.9947" lon="2.26091">
        <ele>406</ele>
        <time>2021-04-18T08:51:55Z</time>
      </trkpt>
      <trkpt lat="43.99469" lon="2.2609">
        <ele>406</ele>
        <time>2021-04-18T08:51:56Z</time>
      </trkpt>
      <trkpt lat="43.99468" lon="2.2609">
        <ele>407</ele>
        <time>2021-04-18T08:51:57Z</time>
      </trkpt>
      <trkpt lat="43.99466" lon="2.2609">
        <ele>407</ele>
        <time>2021-04-18T08:51:58Z</time>
      </trkpt>
      <trkpt lat="43.99465" lon="2.2609">
        <ele>408</ele>
        <time>2021-04-18T08:51:59Z</time>
      </trkpt>
      <trkpt lat="43.99463" lon="2.2609">
        <ele>408</ele>
        <time>2021-04-18T08:52:00Z</time>
      </trkpt>
      <trkpt lat="43.99462" lon="2.2609">
        <ele>408</ele>
        <time>2021-04-18T08:52:01Z</time>
      </trkpt>
      <trkpt lat="43.9946" lon="2.2609">
        <ele>408</ele>
        <time>2021-04-18T08:52:02Z</time>
      </trkpt>
      <trkpt lat="43.99459" lon="2.2609">
        <ele>408</ele>
        <time>2021-04-18T08:52:03Z</time>
      </trkpt>
      <trkpt lat="43.99457" lon="2.2609">
        <ele>408</ele>
        <time>2021-04-18T08:52:04Z</time>
      </trkpt>
      <trkpt lat="43.99456" lon="2.26091">
        <ele>408</ele>
        <time>2021-04-18T08:52:05Z</time>
      </trkpt>
      <trkpt lat="43.99455" lon="2.26091">
        <ele>408</ele>
        <time>2021-04-18T08:52:06Z</time>
      </trkpt>
      <trkpt lat="43.99453" lon="2.26091">
        <ele>409</ele>
        <time>2021-04-18T08:52:07Z</time>
      </trkpt>
      <trkpt lat="43.99452" lon="2.26091">
        <ele>408</ele>
        <time>2021-04-18T08:52:08Z</time>
      </trkpt>
      <trkpt lat="43.99451" lon="2.26091">
        <ele>409</ele>
        <time>2021-04-18T08:52:09Z</time>
      </trkpt>
      <trkpt lat="43.99451" lon="2.2609">
        <ele>409</ele>
        <time>2021-04-18T08:52:10Z</time>
      </trkpt>
      <trkpt lat="43.9945" lon="2.2609">
        <ele>408</ele>
        <time>2021-04-18T08:52:11Z</time>
      </trkpt>
      <trkpt lat="43.99449" lon="2.2609">
        <ele>407</ele>
        <time>2021-04-18T08:52:12Z</time>
      </trkpt>
      <trkpt lat="43.99449" lon="2.2609">
        <ele>407</ele>
        <time>2021-04-18T08:52:13Z</time>
      </trkpt>
      <trkpt lat="43.99449" lon="2.2609">
        <ele>407</ele>
        <time>2021-04-18T08:52:14Z</time>
      </trkpt>
      <trkpt lat="43.99449" lon="2.2609">
        <ele>407</ele>
        <time>2021-04-18T08:52:14Z</time>
      </trkpt>
      <trkpt lat="43.99449" lon="2.2609">
        <ele>407</ele>
        <time>2021-04-18T08:52:14Z</time>
      </trkpt>
      <trkpt lat="43.99445" lon="2.26094">
        <ele>407</ele>
        <time>2021-04-18T08:52:21Z</time>
      </trkpt>
      <trkpt lat="43.99444" lon="2.26095">
        <ele>407</ele>
        <time>2021-04-18T08:52:22Z</time>
      </trkpt>
      <trkpt lat="43.99443" lon="2.26095">
        <ele>407</ele>
        <time>2021-04-18T08:52:23Z</time>
      </trkpt>
      <trkpt lat="43.99443" lon="2.26097">
        <ele>408</ele>
        <time>2021-04-18T08:52:24Z</time>
      </trkpt>
      <trkpt lat="43.99442" lon="2.26098">
        <ele>408</ele>
        <time>2021-04-18T08:52:25Z</time>
      </trkpt>
      <trkpt lat="43.99441" lon="2.26098">
        <ele>408</ele>
        <time>2021-04-18T08:52:26Z</time>
      </trkpt>
      <trkpt lat="43.9944" lon="2.26099">
        <ele>408</ele>
        <time>2021-04-18T08:52:27Z</time>
      </trkpt>
      <trkpt lat="43.99439" lon="2.261">
        <ele>408</ele>
        <time>2021-04-18T08:52:28Z</time>
      </trkpt>
      <trkpt lat="43.99437" lon="2.26102">
        <ele>408</ele>
        <time>2021-04-18T08:52:29Z</time>
      </trkpt>
      <trkpt lat="43.99436" lon="2.26103">
        <ele>408</ele>
        <time>2021-04-18T08:52:30Z</time>
      </trkpt>
      <trkpt lat="43.99435" lon="2.26105">
        <ele>408</ele>
        <time>2021-04-18T08:52:31Z</time>
      </trkpt>
      <trkpt lat="43.99434" lon="2.26106">
        <ele>409</ele>
        <time>2021-04-18T08:52:32Z</time>
      </trkpt>
      <trkpt lat="43.99433" lon="2.26108">
        <ele>408</ele>
        <time>2021-04-18T08:52:33Z</time>
      </trkpt>
      <trkpt lat="43.99432" lon="2.26109">
        <ele>408</ele>
        <time>2021-04-18T08:52:34Z</time>
      </trkpt>
      <trkpt lat="43.99431" lon="2.26111">
        <ele>409</ele>
        <time>2021-04-18T08:52:35Z</time>
      </trkpt>
      <trkpt lat="43.9943" lon="2.26112">
        <ele>409</ele>
        <time>2021-04-18T08:52:36Z</time>
      </trkpt>
      <trkpt lat="43.99429" lon="2.26114">
        <ele>409</ele>
        <time>2021-04-18T08:52:37Z</time>
      </trkpt>
      <trkpt lat="43.99428" lon="2.26116">
        <ele>409</ele>
        <time>2021-04-18T08:52:38Z</time>
      </trkpt>
      <trkpt lat="43.99427" lon="2.26117">
        <ele>409</ele>
        <time>2021-04-18T08:52:39Z</time>
      </trkpt>
      <trkpt lat="43.99427" lon="2.26119">
        <ele>409</ele>
        <time>2021-04-18T08:52:40Z</time>
      </trkpt>
      <trkpt lat="43.99426" lon="2.26121">
        <ele>410</ele>
        <time>2021-04-18T08:52:41Z</time>
      </trkpt>
      <trkpt lat="43.99425" lon="2.26122">
        <ele>410</ele>
        <time>2021-04-18T08:52:42Z</time>
      </trkpt>
      <trkpt lat="43.99424" lon="2.26124">
        <ele>410</ele>
        <time>2021-04-18T08:52:43Z</time>
      </trkpt>
      <trkpt lat="43.99423" lon="2.26126">
        <ele>411</ele>
        <time>2021-04-18T08:52:44Z</time>
      </trkpt>
      <trkpt lat="43.99422" lon="2.26128">
        <ele>411</ele>
        <time>2021-04-18T08:52:45Z</time>
      </trkpt>
      <trkpt lat="43.99421" lon="2.2613">
        <ele>411</ele>
        <time>2021-04-18T08:52:46Z</time>
      </trkpt>
      <trkpt lat="43.9942" lon="2.26131">
        <ele>411</ele>
        <time>2021-04-18T08:52:47Z</time>
      </trkpt>
      <trkpt lat="43.9942" lon="2.26133">
        <ele>411</ele>
        <time>2021-04-18T08:52:48Z</time>
      </trkpt>
      <trkpt lat="43.99419" lon="2.26135">
        <ele>410</ele>
        <time>2021-04-18T08:52:49Z</time>
      </trkpt>
      <trkpt lat="43.99418" lon="2.26136">
        <ele>410</ele>
        <time>2021-04-18T08:52:50Z</time>
      </trkpt>
      <trkpt lat="43.99418" lon="2.26138">
        <ele>410</ele>
        <time>2021-04-18T08:52:51Z</time>
      </trkpt>
      <trkpt lat="43.99417" lon="2.2614">
        <ele>410</ele>
        <time>2021-04-18T08:52:52Z</time>
      </trkpt>
      <trkpt lat="43.99416" lon="2.26142">
        <ele>410</ele>
        <time>2021-04-18T08:52:53Z</time>
      </trkpt>
      <trkpt lat="43.99416" lon="2.26144">
        <ele>410</ele>
        <time>2021-04-18T08:52:54Z</time>
      </trkpt>
      <trkpt lat="43.99416" lon="2.26146">
        <ele>410</ele>
        <time>2021-04-18T08:52:55Z</time>
      </trkpt>
      <trkpt lat="43.99415" lon="2.26148">
        <ele>410</ele>
        <time>2021-04-18T08:52:56Z</time>
      </trkpt>
      <trkpt lat="43.99414" lon="2.2615">
        <ele>410</ele>
        <time>2021-04-18T08:52:57Z</time>
      </trkpt>
      <trkpt lat="43.99414" lon="2.26152">
        <ele>410</ele>
        <time>2021-04-18T08:52:58Z</time>
      </trkpt>
      <trkpt lat="43.99413" lon="2.26154">
        <ele>410</ele>
        <time>2021-04-18T08:52:59Z</time>
      </trkpt>
      <trkpt lat="43.99413" lon="2.26155">
        <ele>410</ele>
        <time>2021-04-18T08:53:00Z</time>
      </trkpt>
      <trkpt lat="43.99412" lon="2.26158">
        <ele>410</ele>
        <time>2021-04-18T08:53:01Z</time>
      </trkpt>
      <trkpt lat="43.99411" lon="2.2616">
        <ele>411</ele>
        <time>2021-04-18T08:53:02Z</time>
      </trkpt>
      <trkpt lat="43.99411" lon="2.26162">
        <ele>411</ele>
        <time>2021-04-18T08:53:03Z</time>
      </trkpt>
      <trkpt lat="43.9941" lon="2.26164">
        <ele>411</ele>
        <time>2021-04-18T08:53:04Z</time>
      </trkpt>
      <trkpt lat="43.9941" lon="2.26167">
        <ele>410</ele>
        <time>2021-04-18T08:53:05Z</time>
      </trkpt>
      <trkpt lat="43.99409" lon="2.26169">
        <ele>411</ele>
        <time>2021-04-18T08:53:06Z</time>
      </trkpt>
      <trkpt lat="43.99408" lon="2.26171">
        <ele>410</ele>
        <time>2021-04-18T08:53:07Z</time>
      </trkpt>
      <trkpt lat="43.99408" lon="2.26173">
        <ele>410</ele>
        <time>2021-04-18T08:53:08Z</time>
      </trkpt>
      <trkpt lat="43.99407" lon="2.26175">
        <ele>411</ele>
        <time>2021-04-18T08:53:09Z</time>
      </trkpt>
      <trkpt lat="43.99407" lon="2.26177">
        <ele>411</ele>
        <time>2021-04-18T08:53:10Z</time>
      </trkpt>
      <trkpt lat="43.99406" lon="2.26179">
        <ele>411</ele>
        <time>2021-04-18T08:53:11Z</time>
      </trkpt>
      <trkpt lat="43.99405" lon="2.26181">
        <ele>411</ele>
        <time>2021-04-18T08:53:12Z</time>
      </trkpt>
      <trkpt lat="43.99405" lon="2.26184">
        <ele>411</ele>
        <time>2021-04-18T08:53:13Z</time>
      </trkpt>
      <trkpt lat="43.99404" lon="2.26186">
        <ele>411</ele>
        <time>2021-04-18T08:53:14Z</time>
      </trkpt>
      <trkpt lat="43.99404" lon="2.26188">
        <ele>411</ele>
        <time>2021-04-18T08:53:15Z</time>
      </trkpt>
      <trkpt lat="43.99403" lon="2.2619">
        <ele>411</ele>
        <time>2021-04-18T08:53:16Z</time>
      </trkpt>
      <trkpt lat="43.99403" lon="2.26192">
        <ele>410</ele>
        <time>2021-04-18T08:53:17Z</time>
      </trkpt>
      <trkpt lat="43.99403" lon="2.26194">
        <ele>410</ele>
        <time>2021-04-18T08:53:18Z</time>
      </trkpt>
      <trkpt lat="43.99402" lon="2.26196">
        <ele>410</ele>
        <time>2021-04-18T08:53:19Z</time>
      </trkpt>
      <trkpt lat="43.99402" lon="2.26198">
        <ele>410</ele>
        <time>2021-04-18T08:53:20Z</time>
      </trkpt>
      <trkpt lat="43.99402" lon="2.262">
        <ele>410</ele>
        <time>2021-04-18T08:53:21Z</time>
      </trkpt>
      <trkpt lat="43.99401" lon="2.26202">
        <ele>411</ele>
        <time>2021-04-18T08:53:22Z</time>
      </trkpt>
      <trkpt lat="43.99401" lon="2.26203">
        <ele>411</ele>
        <time>2021-04-18T08:53:23Z</time>
      </trkpt>
      <trkpt lat="43.99401" lon="2.26206">
        <ele>411</ele>
        <time>2021-04-18T08:53:24Z</time>
      </trkpt>
      <trkpt lat="43.994" lon="2.26208">
        <ele>411</ele>
        <time>2021-04-18T08:53:25Z</time>
      </trkpt>
      <trkpt lat="43.994" lon="2.2621">
        <ele>410</ele>
        <time>2021-04-18T08:53:26Z</time>
      </trkpt>
      <trkpt lat="43.994" lon="2.26212">
        <ele>410</ele>
        <time>2021-04-18T08:53:27Z</time>
      </trkpt>
      <trkpt lat="43.994" lon="2.26214">
        <ele>410</ele>
        <time>2021-04-18T08:53:28Z</time>
      </trkpt>
      <trkpt lat="43.994" lon="2.26216">
        <ele>410</ele>
        <time>2021-04-18T08:53:29Z</time>
      </trkpt>
      <trkpt lat="43.99399" lon="2.26218">
        <ele>411</ele>
        <time>2021-04-18T08:53:30Z</time>
      </trkpt>
      <trkpt lat="43.99398" lon="2.2622">
        <ele>412</ele>
        <time>2021-04-18T08:53:31Z</time>
      </trkpt>
      <trkpt lat="43.99398" lon="2.26222">
        <ele>412</ele>
        <time>2021-04-18T08:53:32Z</time>
      </trkpt>
      <trkpt lat="43.99398" lon="2.26223">
        <ele>411</ele>
        <time>2021-04-18T08:53:33Z</time>
      </trkpt>
      <trkpt lat="43.99397" lon="2.26225">
        <ele>411</ele>
        <time>2021-04-18T08:53:34Z</time>
      </trkpt>
      <trkpt lat="43.99397" lon="2.26227">
        <ele>411</ele>
        <time>2021-04-18T08:53:35Z</time>
      </trkpt>
      <trkpt lat="43.99397" lon="2.26229">
        <ele>411</ele>
        <time>2021-04-18T08:53:36Z</time>
      </trkpt>
      <trkpt lat="43.99396" lon="2.26232">
        <ele>411</ele>
        <time>2021-04-18T08:53:37Z</time>
      </trkpt>
      <trkpt lat="43.99395" lon="2.26233">
        <ele>411</ele>
        <time>2021-04-18T08:53:38Z</time>
      </trkpt>
      <trkpt lat="43.99395" lon="2.26236">
        <ele>412</ele>
        <time>2021-04-18T08:53:39Z</time>
      </trkpt>
      <trkpt lat="43.99394" lon="2.26238">
        <ele>412</ele>
        <time>2021-04-18T08:53:40Z</time>
      </trkpt>
      <trkpt lat="43.99394" lon="2.2624">
        <ele>412</ele>
        <time>2021-04-18T08:53:41Z</time>
      </trkpt>
      <trkpt lat="43.99393" lon="2.26242">
        <ele>412</ele>
        <time>2021-04-18T08:53:42Z</time>
      </trkpt>
      <trkpt lat="43.99392" lon="2.26244">
        <ele>412</ele>
        <time>2021-04-18T08:53:43Z</time>
      </trkpt>
      <trkpt lat="43.99392" lon="2.26247">
        <ele>413</ele>
        <time>2021-04-18T08:53:44Z</time>
      </trkpt>
      <trkpt lat="43.99392" lon="2.26249">
        <ele>414</ele>
        <time>2021-04-18T08:53:45Z</time>
      </trkpt>
      <trkpt lat="43.99391" lon="2.26252">
        <ele>414</ele>
        <time>2021-04-18T08:53:46Z</time>
      </trkpt>
      <trkpt lat="43.9939" lon="2.26254">
        <ele>414</ele>
        <time>2021-04-18T08:53:47Z</time>
      </trkpt>
      <trkpt lat="43.9939" lon="2.26257">
        <ele>414</ele>
        <time>2021-04-18T08:53:48Z</time>
      </trkpt>
      <trkpt lat="43.99389" lon="2.26259">
        <ele>414</ele>
        <time>2021-04-18T08:53:49Z</time>
      </trkpt>
      <trkpt lat="43.99389" lon="2.26262">
        <ele>414</ele>
        <time>2021-04-18T08:53:50Z</time>
      </trkpt>
      <trkpt lat="43.99388" lon="2.26264">
        <ele>414</ele>
        <time>2021-04-18T08:53:51Z</time>
      </trkpt>
      <trkpt lat="43.99387" lon="2.26266">
        <ele>413</ele>
        <time>2021-04-18T08:53:52Z</time>
      </trkpt>
      <trkpt lat="43.99387" lon="2.26268">
        <ele>413</ele>
        <time>2021-04-18T08:53:53Z</time>
      </trkpt>
      <trkpt lat="43.99386" lon="2.26271">
        <ele>413</ele>
        <time>2021-04-18T08:53:54Z</time>
      </trkpt>
      <trkpt lat="43.99386" lon="2.26273">
        <ele>413</ele>
        <time>2021-04-18T08:53:55Z</time>
      </trkpt>
      <trkpt lat="43.99385" lon="2.26275">
        <ele>413</ele>
        <time>2021-04-18T08:53:56Z</time>
      </trkpt>
      <trkpt lat="43.99385" lon="2.26277">
        <ele>413</ele>
        <time>2021-04-18T08:53:57Z</time>
      </trkpt>
      <trkpt lat="43.99384" lon="2.26279">
        <ele>413</ele>
        <time>2021-04-18T08:53:58Z</time>
      </trkpt>
      <trkpt lat="43.99384" lon="2.26281">
        <ele>414</ele>
        <time>2021-04-18T08:53:59Z</time>
      </trkpt>
      <trkpt lat="43.99383" lon="2.26283">
        <ele>414</ele>
        <time>2021-04-18T08:54:00Z</time>
      </trkpt>
      <trkpt lat="43.99382" lon="2.26285">
        <ele>414</ele>
        <time>2021-04-18T08:54:01Z</time>
      </trkpt>
      <trkpt lat="43.99382" lon="2.26287">
        <ele>414</ele>
        <time>2021-04-18T08:54:02Z</time>
      </trkpt>
      <trkpt lat="43.99382" lon="2.26288">
        <ele>414</ele>
        <time>2021-04-18T08:54:03Z</time>
      </trkpt>
      <trkpt lat="43.99381" lon="2.26291">
        <ele>414</ele>
        <time>2021-04-18T08:54:04Z</time>
      </trkpt>
      <trkpt lat="43.99381" lon="2.26293">
        <ele>414</ele>
        <time>2021-04-18T08:54:05Z</time>
      </trkpt>
      <trkpt lat="43.99381" lon="2.26294">
        <ele>415</ele>
        <time>2021-04-18T08:54:06Z</time>
      </trkpt>
      <trkpt lat="43.9938" lon="2.26296">
        <ele>415</ele>
        <time>2021-04-18T08:54:07Z</time>
      </trkpt>
      <trkpt lat="43.99379" lon="2.26298">
        <ele>414</ele>
        <time>2021-04-18T08:54:08Z</time>
      </trkpt>
      <trkpt lat="43.99379" lon="2.263">
        <ele>414</ele>
        <time>2021-04-18T08:54:09Z</time>
      </trkpt>
      <trkpt lat="43.99378" lon="2.26302">
        <ele>414</ele>
        <time>2021-04-18T08:54:10Z</time>
      </trkpt>
      <trkpt lat="43.99377" lon="2.26304">
        <ele>414</ele>
        <time>2021-04-18T08:54:11Z</time>
      </trkpt>
      <trkpt lat="43.99377" lon="2.26307">
        <ele>414</ele>
        <time>2021-04-18T08:54:12Z</time>
      </trkpt>
      <trkpt lat="43.99377" lon="2.26309">
        <ele>414</ele>
        <time>2021-04-18T08:54:13Z</time>
      </trkpt>
      <trkpt lat="43.99376" lon="2.26311">
        <ele>414</ele>
        <time>2021-04-18T08:54:14Z</time>
      </trkpt>
      <trkpt lat="43.99376" lon="2.26313">
        <ele>414</ele>
        <time>2021-04-18T08:54:15Z</time>
      </trkpt>
      <trkpt lat="43.99376" lon="2.26315">
        <ele>414</ele>
        <time>2021-04-18T08:54:16Z</time>
      </trkpt>
      <trkpt lat="43.99375" lon="2.26317">
        <ele>414</ele>
        <time>2021-04-18T08:54:17Z</time>
      </trkpt>
      <trkpt lat="43.99375" lon="2.26319">
        <ele>413</ele>
        <time>2021-04-18T08:54:18Z</time>
      </trkpt>
      <trkpt lat="43.99374" lon="2.26322">
        <ele>413</ele>
        <time>2021-04-18T08:54:19Z</time>
      </trkpt>
      <trkpt lat="43.99374" lon="2.26324">
        <ele>413</ele>
        <time>2021-04-18T08:54:20Z</time>
      </trkpt>
      <trkpt lat="43.99374" lon="2.26327">
        <ele>414</ele>
        <time>2021-04-18T08:54:21Z</time>
      </trkpt>
      <trkpt lat="43.99374" lon="2.26329">
        <ele>414</ele>
        <time>2021-04-18T08:54:22Z</time>
      </trkpt>
      <trkpt lat="43.99373" lon="2.26331">
        <ele>415</ele>
        <time>2021-04-18T08:54:23Z</time>
      </trkpt>
      <trkpt lat="43.99373" lon="2.26334">
        <ele>415</ele>
        <time>2021-04-18T08:54:24Z</time>
      </trkpt>
      <trkpt lat="43.99373" lon="2.26336">
        <ele>414</ele>
        <time>2021-04-18T08:54:25Z</time>
      </trkpt>
      <trkpt lat="43.99372" lon="2.26338">
        <ele>415</ele>
        <time>2021-04-18T08:54:26Z</time>
      </trkpt>
      <trkpt lat="43.99372" lon="2.2634">
        <ele>414</ele>
        <time>2021-04-18T08:54:27Z</time>
      </trkpt>
      <trkpt lat="43.99371" lon="2.26342">
        <ele>414</ele>
        <time>2021-04-18T08:54:28Z</time>
      </trkpt>
      <trkpt lat="43.99371" lon="2.26345">
        <ele>414</ele>
        <time>2021-04-18T08:54:29Z</time>
      </trkpt>
      <trkpt lat="43.9937" lon="2.26347">
        <ele>414</ele>
        <time>2021-04-18T08:54:30Z</time>
      </trkpt>
      <trkpt lat="43.9937" lon="2.26349">
        <ele>415</ele>
        <time>2021-04-18T08:54:31Z</time>
      </trkpt>
      <trkpt lat="43.9937" lon="2.26351">
        <ele>415</ele>
        <time>2021-04-18T08:54:32Z</time>
      </trkpt>
      <trkpt lat="43.9937" lon="2.26354">
        <ele>415</ele>
        <time>2021-04-18T08:54:33Z</time>
      </trkpt>
      <trkpt lat="43.99369" lon="2.26356">
        <ele>415</ele>
        <time>2021-04-18T08:54:34Z</time>
      </trkpt>
      <trkpt lat="43.99369" lon="2.26358">
        <ele>414</ele>
        <time>2021-04-18T08:54:35Z</time>
      </trkpt>
      <trkpt lat="43.99369" lon="2.26361">
        <ele>414</ele>
        <time>2021-04-18T08:54:36Z</time>
      </trkpt>
      <trkpt lat="43.99369" lon="2.26363">
        <ele>414</ele>
        <time>2021-04-18T08:54:37Z</time>
      </trkpt>
      <trkpt lat="43.99368" lon="2.26365">
        <ele>414</ele>
        <time>2021-04-18T08:54:38Z</time>
      </trkpt>
      <trkpt lat="43.99368" lon="2.26367">
        <ele>414</ele>
        <time>2021-04-18T08:54:39Z</time>
      </trkpt>
      <trkpt lat="43.99368" lon="2.26369">
        <ele>414</ele>
        <time>2021-04-18T08:54:40Z</time>
      </trkpt>
      <trkpt lat="43.99367" lon="2.26371">
        <ele>414</ele>
        <time>2021-04-18T08:54:41Z</time>
      </trkpt>
      <trkpt lat="43.99367" lon="2.26373">
        <ele>414</ele>
        <time>2021-04-18T08:54:42Z</time>
      </trkpt>
      <trkpt lat="43.99367" lon="2.26376">
        <ele>414</ele>
        <time>2021-04-18T08:54:43Z</time>
      </trkpt>
      <trkpt lat="43.99366" lon="2.26378">
        <ele>414</ele>
        <time>2021-04-18T08:54:44Z</time>
      </trkpt>
      <trkpt lat="43.99366" lon="2.2638">
        <ele>414</ele>
        <time>2021-04-18T08:54:45Z</time>
      </trkpt>
      <trkpt lat="43.99365" lon="2.26382">
        <ele>414</ele>
        <time>2021-04-18T08:54:46Z</time>
      </trkpt>
      <trkpt lat="43.99365" lon="2.26384">
        <ele>414</ele>
        <time>2021-04-18T08:54:47Z</time>
      </trkpt>
      <trkpt lat="43.99365" lon="2.26386">
        <ele>414</ele>
        <time>2021-04-18T08:54:48Z</time>
      </trkpt>
      <trkpt lat="43.99365" lon="2.26388">
        <ele>414</ele>
        <time>2021-04-18T08:54:49Z</time>
      </trkpt>
      <trkpt lat="43.99365" lon="2.2639">
        <ele>414</ele>
        <time>2021-04-18T08:54:50Z</time>
      </trkpt>
      <trkpt lat="43.99365" lon="2.26392">
        <ele>413</ele>
        <time>2021-04-18T08:54:51Z</time>
      </trkpt>
      <trkpt lat="43.99365" lon="2.26394">
        <ele>413</ele>
        <time>2021-04-18T08:54:52Z</time>
      </trkpt>
      <trkpt lat="43.99364" lon="2.26396">
        <ele>413</ele>
        <time>2021-04-18T08:54:53Z</time>
      </trkpt>
      <trkpt lat="43.99364" lon="2.26399">
        <ele>413</ele>
        <time>2021-04-18T08:54:54Z</time>
      </trkpt>
      <trkpt lat="43.99363" lon="2.26401">
        <ele>413</ele>
        <time>2021-04-18T08:54:55Z</time>
      </trkpt>
      <trkpt lat="43.99363" lon="2.26403">
        <ele>413</ele>
        <time>2021-04-18T08:54:56Z</time>
      </trkpt>
      <trkpt lat="43.99363" lon="2.26405">
        <ele>413</ele>
        <time>2021-04-18T08:54:57Z</time>
      </trkpt>
      <trkpt lat="43.99362" lon="2.26409">
        <ele>414</ele>
        <time>2021-04-18T08:54:58Z</time>
      </trkpt>
      <trkpt lat="43.99362" lon="2.26409">
        <ele>414</ele>
        <time>2021-04-18T08:54:58Z</time>
      </trkpt>
      <trkpt lat="43.99362" lon="2.26411">
        <ele>415</ele>
        <time>2021-04-18T08:55:00Z</time>
      </trkpt>
      <trkpt lat="43.99362" lon="2.26414">
        <ele>415</ele>
        <time>2021-04-18T08:55:01Z</time>
      </trkpt>
      <trkpt lat="43.99362" lon="2.26416">
        <ele>415</ele>
        <time>2021-04-18T08:55:02Z</time>
      </trkpt>
      <trkpt lat="43.99363" lon="2.26418">
        <ele>414</ele>
        <time>2021-04-18T08:55:03Z</time>
      </trkpt>
      <trkpt lat="43.99363" lon="2.26418">
        <ele>414</ele>
        <time>2021-04-18T08:55:03Z</time>
      </trkpt>
      <trkpt lat="43.99363" lon="2.26417">
        <ele>414</ele>
        <time>2021-04-18T08:55:05Z</time>
      </trkpt>
      <trkpt lat="43.99363" lon="2.26417">
        <ele>414</ele>
        <time>2021-04-18T08:55:06Z</time>
      </trkpt>
      <trkpt lat="43.99363" lon="2.26417">
        <ele>414</ele>
        <time>2021-04-18T08:55:07Z</time>
      </trkpt>
      <trkpt lat="43.99363" lon="2.26417">
        <ele>414</ele>
        <time>2021-04-18T08:55:07Z</time>
      </trkpt>
      <trkpt lat="43.99363" lon="2.26417">
        <ele>414</ele>
        <time>2021-04-18T08:55:07Z</time>
      </trkpt>
      <trkpt lat="43.99361" lon="2.26423">
        <ele>415</ele>
        <time>2021-04-18T08:55:14Z</time>
      </trkpt>
      <trkpt lat="43.99361" lon="2.26424">
        <ele>414</ele>
        <time>2021-04-18T08:55:15Z</time>
      </trkpt>
      <trkpt lat="43.99361" lon="2.26425">
        <ele>414</ele>
        <time>2021-04-18T08:55:16Z</time>
      </trkpt>
      <trkpt lat="43.99361" lon="2.26426">
        <ele>414</ele>
        <time>2021-04-18T08:55:17Z</time>
      </trkpt>
      <trkpt lat="43.9936" lon="2.26428">
        <ele>414</ele>
        <time>2021-04-18T08:55:18Z</time>
      </trkpt>
      <trkpt lat="43.9936" lon="2.26429">
        <ele>414</ele>
        <time>2021-04-18T08:55:19Z</time>
      </trkpt>
      <trkpt lat="43.99361" lon="2.2643">
        <ele>414</ele>
        <time>2021-04-18T08:55:20Z</time>
      </trkpt>
      <trkpt lat="43.99361" lon="2.26432">
        <ele>414</ele>
        <time>2021-04-18T08:55:21Z</time>
      </trkpt>
      <trkpt lat="43.99361" lon="2.26433">
        <ele>413</ele>
        <time>2021-04-18T08:55:22Z</time>
      </trkpt>
      <trkpt lat="43.9936" lon="2.26435">
        <ele>414</ele>
        <time>2021-04-18T08:55:23Z</time>
      </trkpt>
      <trkpt lat="43.9936" lon="2.26437">
        <ele>414</ele>
        <time>2021-04-18T08:55:24Z</time>
      </trkpt>
      <trkpt lat="43.99359" lon="2.26439">
        <ele>414</ele>
        <time>2021-04-18T08:55:25Z</time>
      </trkpt>
      <trkpt lat="43.99359" lon="2.2644">
        <ele>414</ele>
        <time>2021-04-18T08:55:26Z</time>
      </trkpt>
      <trkpt lat="43.99358" lon="2.26442">
        <ele>414</ele>
        <time>2021-04-18T08:55:27Z</time>
      </trkpt>
      <trkpt lat="43.99358" lon="2.26445">
        <ele>413</ele>
        <time>2021-04-18T08:55:28Z</time>
      </trkpt>
      <trkpt lat="43.99357" lon="2.26447">
        <ele>413</ele>
        <time>2021-04-18T08:55:29Z</time>
      </trkpt>
      <trkpt lat="43.99357" lon="2.26451">
        <ele>414</ele>
        <time>2021-04-18T08:55:30Z</time>
      </trkpt>
      <trkpt lat="43.99356" lon="2.26453">
        <ele>414</ele>
        <time>2021-04-18T08:55:31Z</time>
      </trkpt>
      <trkpt lat="43.99356" lon="2.26453">
        <ele>414</ele>
        <time>2021-04-18T08:55:31Z</time>
      </trkpt>
      <trkpt lat="43.99355" lon="2.26456">
        <ele>415</ele>
        <time>2021-04-18T08:55:33Z</time>
      </trkpt>
      <trkpt lat="43.99355" lon="2.26456">
        <ele>415</ele>
        <time>2021-04-18T08:55:33Z</time>
      </trkpt>
      <trkpt lat="43.99355" lon="2.26461">
        <ele>415</ele>
        <time>2021-04-18T08:55:35Z</time>
      </trkpt>
      <trkpt lat="43.99355" lon="2.26463">
        <ele>414</ele>
        <time>2021-04-18T08:55:36Z</time>
      </trkpt>
      <trkpt lat="43.99354" lon="2.26465">
        <ele>414</ele>
        <time>2021-04-18T08:55:37Z</time>
      </trkpt>
      <trkpt lat="43.99354" lon="2.26466">
        <ele>415</ele>
        <time>2021-04-18T08:55:38Z</time>
      </trkpt>
      <trkpt lat="43.99354" lon="2.26468">
        <ele>416</ele>
        <time>2021-04-18T08:55:39Z</time>
      </trkpt>
      <trkpt lat="43.99354" lon="2.2647">
        <ele>416</ele>
        <time>2021-04-18T08:55:40Z</time>
      </trkpt>
      <trkpt lat="43.99354" lon="2.2647">
        <ele>416</ele>
        <time>2021-04-18T08:55:40Z</time>
      </trkpt>
      <trkpt lat="43.99353" lon="2.26472">
        <ele>416</ele>
        <time>2021-04-18T08:55:42Z</time>
      </trkpt>
      <trkpt lat="43.99353" lon="2.26475">
        <ele>416</ele>
        <time>2021-04-18T08:55:43Z</time>
      </trkpt>
      <trkpt lat="43.99353" lon="2.26479">
        <ele>415</ele>
        <time>2021-04-18T08:55:44Z</time>
      </trkpt>
      <trkpt lat="43.99353" lon="2.26481">
        <ele>415</ele>
        <time>2021-04-18T08:55:45Z</time>
      </trkpt>
      <trkpt lat="43.99353" lon="2.26481">
        <ele>415</ele>
        <time>2021-04-18T08:55:45Z</time>
      </trkpt>
      <trkpt lat="43.99352" lon="2.26485">
        <ele>414</ele>
        <time>2021-04-18T08:55:47Z</time>
      </trkpt>
      <trkpt lat="43.99352" lon="2.26487">
        <ele>415</ele>
        <time>2021-04-18T08:55:48Z</time>
      </trkpt>
      <trkpt lat="43.99352" lon="2.2649">
        <ele>415</ele>
        <time>2021-04-18T08:55:49Z</time>
      </trkpt>
      <trkpt lat="43.99351" lon="2.26492">
        <ele>415</ele>
        <time>2021-04-18T08:55:50Z</time>
      </trkpt>
      <trkpt lat="43.99351" lon="2.26494">
        <ele>416</ele>
        <time>2021-04-18T08:55:51Z</time>
      </trkpt>
      <trkpt lat="43.99351" lon="2.26496">
        <ele>417</ele>
        <time>2021-04-18T08:55:52Z</time>
      </trkpt>
      <trkpt lat="43.99351" lon="2.26499">
        <ele>417</ele>
        <time>2021-04-18T08:55:53Z</time>
      </trkpt>
      <trkpt lat="43.9935" lon="2.26501">
        <ele>417</ele>
        <time>2021-04-18T08:55:54Z</time>
      </trkpt>
      <trkpt lat="43.9935" lon="2.26503">
        <ele>417</ele>
        <time>2021-04-18T08:55:55Z</time>
      </trkpt>
      <trkpt lat="43.9935" lon="2.26505">
        <ele>417</ele>
        <time>2021-04-18T08:55:56Z</time>
      </trkpt>
      <trkpt lat="43.9935" lon="2.26507">
        <ele>417</ele>
        <time>2021-04-18T08:55:57Z</time>
      </trkpt>
      <trkpt lat="43.9935" lon="2.26509">
        <ele>417</ele>
        <time>2021-04-18T08:55:58Z</time>
      </trkpt>
      <trkpt lat="43.99349" lon="2.26511">
        <ele>417</ele>
        <time>2021-04-18T08:55:59Z</time>
      </trkpt>
      <trkpt lat="43.99349" lon="2.26513">
        <ele>417</ele>
        <time>2021-04-18T08:56:00Z</time>
      </trkpt>
      <trkpt lat="43.99348" lon="2.26515">
        <ele>417</ele>
        <time>2021-04-18T08:56:01Z</time>
      </trkpt>
      <trkpt lat="43.99348" lon="2.26517">
        <ele>417</ele>
        <time>2021-04-18T08:56:02Z</time>
      </trkpt>
      <trkpt lat="43.99348" lon="2.26518">
        <ele>416</ele>
        <time>2021-04-18T08:56:03Z</time>
      </trkpt>
      <trkpt lat="43.99348" lon="2.2652">
        <ele>416</ele>
        <time>2021-04-18T08:56:04Z</time>
      </trkpt>
      <trkpt lat="43.99348" lon="2.26522">
        <ele>416</ele>
        <time>2021-04-18T08:56:05Z</time>
      </trkpt>
      <trkpt lat="43.99348" lon="2.26525">
        <ele>416</ele>
        <time>2021-04-18T08:56:06Z</time>
      </trkpt>
      <trkpt lat="43.99348" lon="2.26527">
        <ele>416</ele>
        <time>2021-04-18T08:56:07Z</time>
      </trkpt>
      <trkpt lat="43.99348" lon="2.26529">
        <ele>416</ele>
        <time>2021-04-18T08:56:08Z</time>
      </trkpt>
      <trkpt lat="43.99348" lon="2.26531">
        <ele>416</ele>
        <time>2021-04-18T08:56:09Z</time>
      </trkpt>
      <trkpt lat="43.99348" lon="2.26533">
        <ele>416</ele>
        <time>2021-04-18T08:56:10Z</time>
      </trkpt>
      <trkpt lat="43.99349" lon="2.26535">
        <ele>416</ele>
        <time>2021-04-18T08:56:11Z</time>
      </trkpt>
      <trkpt lat="43.99349" lon="2.26538">
        <ele>416</ele>
        <time>2021-04-18T08:56:12Z</time>
      </trkpt>
      <trkpt lat="43.9935" lon="2.2654">
        <ele>415</ele>
        <time>2021-04-18T08:56:13Z</time>
      </trkpt>
      <trkpt lat="43.9935" lon="2.26542">
        <ele>415</ele>
        <time>2021-04-18T08:56:14Z</time>
      </trkpt>
      <trkpt lat="43.9935" lon="2.26544">
        <ele>416</ele>
        <time>2021-04-18T08:56:15Z</time>
      </trkpt>
      <trkpt lat="43.9935" lon="2.26546">
        <ele>416</ele>
        <time>2021-04-18T08:56:16Z</time>
      </trkpt>
      <trkpt lat="43.99349" lon="2.26548">
        <ele>417</ele>
        <time>2021-04-18T08:56:17Z</time>
      </trkpt>
      <trkpt lat="43.99349" lon="2.2655">
        <ele>417</ele>
        <time>2021-04-18T08:56:18Z</time>
      </trkpt>
      <trkpt lat="43.9935" lon="2.26552">
        <ele>417</ele>
        <time>2021-04-18T08:56:19Z</time>
      </trkpt>
      <trkpt lat="43.9935" lon="2.26554">
        <ele>417</ele>
        <time>2021-04-18T08:56:20Z</time>
      </trkpt>
      <trkpt lat="43.9935" lon="2.26556">
        <ele>417</ele>
        <time>2021-04-18T08:56:21Z</time>
      </trkpt>
      <trkpt lat="43.9935" lon="2.26558">
        <ele>417</ele>
        <time>2021-04-18T08:56:22Z</time>
      </trkpt>
      <trkpt lat="43.99351" lon="2.2656">
        <ele>417</ele>
        <time>2021-04-18T08:56:23Z</time>
      </trkpt>
      <trkpt lat="43.99352" lon="2.26563">
        <ele>417</ele>
        <time>2021-04-18T08:56:24Z</time>
      </trkpt>
      <trkpt lat="43.99352" lon="2.26565">
        <ele>416</ele>
        <time>2021-04-18T08:56:25Z</time>
      </trkpt>
      <trkpt lat="43.99352" lon="2.26566">
        <ele>417</ele>
        <time>2021-04-18T08:56:26Z</time>
      </trkpt>
      <trkpt lat="43.99352" lon="2.26568">
        <ele>417</ele>
        <time>2021-04-18T08:56:27Z</time>
      </trkpt>
      <trkpt lat="43.99351" lon="2.2657">
        <ele>417</ele>
        <time>2021-04-18T08:56:28Z</time>
      </trkpt>
      <trkpt lat="43.99351" lon="2.26572">
        <ele>417</ele>
        <time>2021-04-18T08:56:29Z</time>
      </trkpt>
      <trkpt lat="43.99352" lon="2.26574">
        <ele>418</ele>
        <time>2021-04-18T08:56:30Z</time>
      </trkpt>
      <trkpt lat="43.99352" lon="2.26577">
        <ele>418</ele>
        <time>2021-04-18T08:56:31Z</time>
      </trkpt>
      <trkpt lat="43.99352" lon="2.26579">
        <ele>418</ele>
        <time>2021-04-18T08:56:32Z</time>
      </trkpt>
      <trkpt lat="43.99353" lon="2.26581">
        <ele>419</ele>
        <time>2021-04-18T08:56:33Z</time>
      </trkpt>
      <trkpt lat="43.99353" lon="2.26583">
        <ele>419</ele>
        <time>2021-04-18T08:56:34Z</time>
      </trkpt>
      <trkpt lat="43.99353" lon="2.26585">
        <ele>419</ele>
        <time>2021-04-18T08:56:35Z</time>
      </trkpt>
      <trkpt lat="43.99353" lon="2.26587">
        <ele>419</ele>
        <time>2021-04-18T08:56:36Z</time>
      </trkpt>
      <trkpt lat="43.99353" lon="2.26589">
        <ele>419</ele>
        <time>2021-04-18T08:56:37Z</time>
      </trkpt>
      <trkpt lat="43.99353" lon="2.26592">
        <ele>419</ele>
        <time>2021-04-18T08:56:38Z</time>
      </trkpt>
      <trkpt lat="43.99353" lon="2.26595">
        <ele>419</ele>
        <time>2021-04-18T08:56:39Z</time>
      </trkpt>
      <trkpt lat="43.99353" lon="2.26597">
        <ele>419</ele>
        <time>2021-04-18T08:56:40Z</time>
      </trkpt>
      <trkpt lat="43.99353" lon="2.26599">
        <ele>419</ele>
        <time>2021-04-18T08:56:41Z</time>
      </trkpt>
      <trkpt lat="43.99353" lon="2.26601">
        <ele>419</ele>
        <time>2021-04-18T08:56:42Z</time>
      </trkpt>
      <trkpt lat="43.99353" lon="2.26603">
        <ele>419</ele>
        <time>2021-04-18T08:56:43Z</time>
      </trkpt>
      <trkpt lat="43.99354" lon="2.26605">
        <ele>419</ele>
        <time>2021-04-18T08:56:44Z</time>
      </trkpt>
      <trkpt lat="43.99354" lon="2.26607">
        <ele>420</ele>
        <time>2021-04-18T08:56:45Z</time>
      </trkpt>
      <trkpt lat="43.99355" lon="2.26609">
        <ele>421</ele>
        <time>2021-04-18T08:56:46Z</time>
      </trkpt>
      <trkpt lat="43.99355" lon="2.26611">
        <ele>421</ele>
        <time>2021-04-18T08:56:47Z</time>
      </trkpt>
      <trkpt lat="43.99355" lon="2.26613">
        <ele>421</ele>
        <time>2021-04-18T08:56:48Z</time>
      </trkpt>
      <trkpt lat="43.99354" lon="2.26614">
        <ele>421</ele>
        <time>2021-04-18T08:56:49Z</time>
      </trkpt>
      <trkpt lat="43.99354" lon="2.26616">
        <ele>421</ele>
        <time>2021-04-18T08:56:50Z</time>
      </trkpt>
      <trkpt lat="43.99355" lon="2.26618">
        <ele>421</ele>
        <time>2021-04-18T08:56:51Z</time>
      </trkpt>
      <trkpt lat="43.99355" lon="2.2662">
        <ele>421</ele>
        <time>2021-04-18T08:56:52Z</time>
      </trkpt>
      <trkpt lat="43.99355" lon="2.26622">
        <ele>422</ele>
        <time>2021-04-18T08:56:53Z</time>
      </trkpt>
      <trkpt lat="43.99355" lon="2.26623">
        <ele>422</ele>
        <time>2021-04-18T08:56:54Z</time>
      </trkpt>
      <trkpt lat="43.99354" lon="2.26625">
        <ele>422</ele>
        <time>2021-04-18T08:56:55Z</time>
      </trkpt>
      <trkpt lat="43.99355" lon="2.26627">
        <ele>422</ele>
        <time>2021-04-18T08:56:56Z</time>
      </trkpt>
      <trkpt lat="43.99354" lon="2.26629">
        <ele>422</ele>
        <time>2021-04-18T08:56:57Z</time>
      </trkpt>
      <trkpt lat="43.99354" lon="2.26631">
        <ele>423</ele>
        <time>2021-04-18T08:56:58Z</time>
      </trkpt>
      <trkpt lat="43.99354" lon="2.26634">
        <ele>423</ele>
        <time>2021-04-18T08:56:59Z</time>
      </trkpt>
      <trkpt lat="43.99354" lon="2.26636">
        <ele>423</ele>
        <time>2021-04-18T08:57:00Z</time>
      </trkpt>
      <trkpt lat="43.99354" lon="2.26638">
        <ele>423</ele>
        <time>2021-04-18T08:57:01Z</time>
      </trkpt>
      <trkpt lat="43.99354" lon="2.2664">
        <ele>423</ele>
        <time>2021-04-18T08:57:02Z</time>
      </trkpt>
      <trkpt lat="43.99354" lon="2.26641">
        <ele>424</ele>
        <time>2021-04-18T08:57:03Z</time>
      </trkpt>
      <trkpt lat="43.99354" lon="2.26644">
        <ele>423</ele>
        <time>2021-04-18T08:57:04Z</time>
      </trkpt>
      <trkpt lat="43.99354" lon="2.26646">
        <ele>423</ele>
        <time>2021-04-18T08:57:05Z</time>
      </trkpt>
      <trkpt lat="43.99354" lon="2.26648">
        <ele>423</ele>
        <time>2021-04-18T08:57:06Z</time>
      </trkpt>
      <trkpt lat="43.99354" lon="2.2665">
        <ele>424</ele>
        <time>2021-04-18T08:57:07Z</time>
      </trkpt>
      <trkpt lat="43.99354" lon="2.26652">
        <ele>423</ele>
        <time>2021-04-18T08:57:08Z</time>
      </trkpt>
      <trkpt lat="43.99355" lon="2.26653">
        <ele>423</ele>
        <time>2021-04-18T08:57:09Z</time>
      </trkpt>
      <trkpt lat="43.99355" lon="2.26655">
        <ele>423</ele>
        <time>2021-04-18T08:57:10Z</time>
      </trkpt>
      <trkpt lat="43.99355" lon="2.26657">
        <ele>423</ele>
        <time>2021-04-18T08:57:11Z</time>
      </trkpt>
      <trkpt lat="43.99355" lon="2.26659">
        <ele>423</ele>
        <time>2021-04-18T08:57:12Z</time>
      </trkpt>
      <trkpt lat="43.99355" lon="2.26661">
        <ele>423</ele>
        <time>2021-04-18T08:57:13Z</time>
      </trkpt>
      <trkpt lat="43.99356" lon="2.26664">
        <ele>423</ele>
        <time>2021-04-18T08:57:14Z</time>
      </trkpt>
      <trkpt lat="43.99356" lon="2.26665">
        <ele>423</ele>
        <time>2021-04-18T08:57:15Z</time>
      </trkpt>
      <trkpt lat="43.99356" lon="2.26667">
        <ele>423</ele>
        <time>2021-04-18T08:57:16Z</time>
      </trkpt>
      <trkpt lat="43.99357" lon="2.26669">
        <ele>422</ele>
        <time>2021-04-18T08:57:17Z</time>
      </trkpt>
      <trkpt lat="43.99357" lon="2.26671">
        <ele>422</ele>
        <time>2021-04-18T08:57:18Z</time>
      </trkpt>
      <trkpt lat="43.99357" lon="2.26674">
        <ele>422</ele>
        <time>2021-04-18T08:57:19Z</time>
      </trkpt>
      <trkpt lat="43.99357" lon="2.26676">
        <ele>422</ele>
        <time>2021-04-18T08:57:20Z</time>
      </trkpt>
      <trkpt lat="43.99358" lon="2.26678">
        <ele>422</ele>
        <time>2021-04-18T08:57:21Z</time>
      </trkpt>
      <trkpt lat="43.99358" lon="2.26681">
        <ele>422</ele>
        <time>2021-04-18T08:57:22Z</time>
      </trkpt>
      <trkpt lat="43.99358" lon="2.26683">
        <ele>421</ele>
        <time>2021-04-18T08:57:23Z</time>
      </trkpt>
      <trkpt lat="43.99358" lon="2.26685">
        <ele>421</ele>
        <time>2021-04-18T08:57:24Z</time>
      </trkpt>
      <trkpt lat="43.99359" lon="2.26687">
        <ele>422</ele>
        <time>2021-04-18T08:57:25Z</time>
      </trkpt>
      <trkpt lat="43.9936" lon="2.2669">
        <ele>422</ele>
        <time>2021-04-18T08:57:26Z</time>
      </trkpt>
      <trkpt lat="43.9936" lon="2.26692">
        <ele>422</ele>
        <time>2021-04-18T08:57:27Z</time>
      </trkpt>
      <trkpt lat="43.9936" lon="2.26693">
        <ele>422</ele>
        <time>2021-04-18T08:57:28Z</time>
      </trkpt>
      <trkpt lat="43.99361" lon="2.26696">
        <ele>422</ele>
        <time>2021-04-18T08:57:29Z</time>
      </trkpt>
      <trkpt lat="43.99361" lon="2.26698">
        <ele>423</ele>
        <time>2021-04-18T08:57:30Z</time>
      </trkpt>
      <trkpt lat="43.99361" lon="2.267">
        <ele>423</ele>
        <time>2021-04-18T08:57:31Z</time>
      </trkpt>
      <trkpt lat="43.99361" lon="2.26702">
        <ele>423</ele>
        <time>2021-04-18T08:57:32Z</time>
      </trkpt>
      <trkpt lat="43.99362" lon="2.26704">
        <ele>423</ele>
        <time>2021-04-18T08:57:33Z</time>
      </trkpt>
      <trkpt lat="43.99362" lon="2.26706">
        <ele>423</ele>
        <time>2021-04-18T08:57:34Z</time>
      </trkpt>
      <trkpt lat="43.99363" lon="2.26708">
        <ele>424</ele>
        <time>2021-04-18T08:57:35Z</time>
      </trkpt>
      <trkpt lat="43.99363" lon="2.2671">
        <ele>424</ele>
        <time>2021-04-18T08:57:36Z</time>
      </trkpt>
      <trkpt lat="43.99364" lon="2.26713">
        <ele>424</ele>
        <time>2021-04-18T08:57:37Z</time>
      </trkpt>
      <trkpt lat="43.99364" lon="2.26714">
        <ele>424</ele>
        <time>2021-04-18T08:57:38Z</time>
      </trkpt>
      <trkpt lat="43.99365" lon="2.26717">
        <ele>424</ele>
        <time>2021-04-18T08:57:39Z</time>
      </trkpt>
      <trkpt lat="43.99365" lon="2.26719">
        <ele>424</ele>
        <time>2021-04-18T08:57:40Z</time>
      </trkpt>
      <trkpt lat="43.99366" lon="2.26721">
        <ele>423</ele>
        <time>2021-04-18T08:57:41Z</time>
      </trkpt>
      <trkpt lat="43.99366" lon="2.26723">
        <ele>423</ele>
        <time>2021-04-18T08:57:42Z</time>
      </trkpt>
      <trkpt lat="43.99366" lon="2.26726">
        <ele>423</ele>
        <time>2021-04-18T08:57:43Z</time>
      </trkpt>
      <trkpt lat="43.99367" lon="2.26728">
        <ele>423</ele>
        <time>2021-04-18T08:57:44Z</time>
      </trkpt>
      <trkpt lat="43.99367" lon="2.2673">
        <ele>424</ele>
        <time>2021-04-18T08:57:45Z</time>
      </trkpt>
      <trkpt lat="43.99368" lon="2.26732">
        <ele>424</ele>
        <time>2021-04-18T08:57:46Z</time>
      </trkpt>
      <trkpt lat="43.99368" lon="2.26734">
        <ele>424</ele>
        <time>2021-04-18T08:57:47Z</time>
      </trkpt>
      <trkpt lat="43.99368" lon="2.26736">
        <ele>423</ele>
        <time>2021-04-18T08:57:48Z</time>
      </trkpt>
      <trkpt lat="43.99369" lon="2.26738">
        <ele>423</ele>
        <time>2021-04-18T08:57:49Z</time>
      </trkpt>
      <trkpt lat="43.99369" lon="2.2674">
        <ele>423</ele>
        <time>2021-04-18T08:57:50Z</time>
      </trkpt>
      <trkpt lat="43.99369" lon="2.26742">
        <ele>423</ele>
        <time>2021-04-18T08:57:51Z</time>
      </trkpt>
      <trkpt lat="43.99369" lon="2.26744">
        <ele>423</ele>
        <time>2021-04-18T08:57:52Z</time>
      </trkpt>
      <trkpt lat="43.99369" lon="2.26746">
        <ele>423</ele>
        <time>2021-04-18T08:57:53Z</time>
      </trkpt>
      <trkpt lat="43.99369" lon="2.26748">
        <ele>423</ele>
        <time>2021-04-18T08:57:54Z</time>
      </trkpt>
      <trkpt lat="43.99369" lon="2.2675">
        <ele>423</ele>
        <time>2021-04-18T08:57:55Z</time>
      </trkpt>
      <trkpt lat="43.9937" lon="2.26752">
        <ele>422</ele>
        <time>2021-04-18T08:57:56Z</time>
      </trkpt>
      <trkpt lat="43.99371" lon="2.26755">
        <ele>422</ele>
        <time>2021-04-18T08:57:57Z</time>
      </trkpt>
      <trkpt lat="43.99371" lon="2.26757">
        <ele>422</ele>
        <time>2021-04-18T08:57:58Z</time>
      </trkpt>
      <trkpt lat="43.99371" lon="2.26759">
        <ele>422</ele>
        <time>2021-04-18T08:57:59Z</time>
      </trkpt>
      <trkpt lat="43.99372" lon="2.26761">
        <ele>422</ele>
        <time>2021-04-18T08:58:00Z</time>
      </trkpt>
      <trkpt lat="43.99372" lon="2.26763">
        <ele>422</ele>
        <time>2021-04-18T08:58:01Z</time>
      </trkpt>
      <trkpt lat="43.99373" lon="2.26766">
        <ele>422</ele>
        <time>2021-04-18T08:58:02Z</time>
      </trkpt>
      <trkpt lat="43.99373" lon="2.26768">
        <ele>422</ele>
        <time>2021-04-18T08:58:03Z</time>
      </trkpt>
      <trkpt lat="43.99373" lon="2.2677">
        <ele>421</ele>
        <time>2021-04-18T08:58:04Z</time>
      </trkpt>
      <trkpt lat="43.99374" lon="2.26773">
        <ele>421</ele>
        <time>2021-04-18T08:58:05Z</time>
      </trkpt>
      <trkpt lat="43.99374" lon="2.26775">
        <ele>421</ele>
        <time>2021-04-18T08:58:06Z</time>
      </trkpt>
      <trkpt lat="43.99374" lon="2.26777">
        <ele>421</ele>
        <time>2021-04-18T08:58:07Z</time>
      </trkpt>
      <trkpt lat="43.99375" lon="2.26779">
        <ele>422</ele>
        <time>2021-04-18T08:58:08Z</time>
      </trkpt>
      <trkpt lat="43.99375" lon="2.26781">
        <ele>422</ele>
        <time>2021-04-18T08:58:09Z</time>
      </trkpt>
      <trkpt lat="43.99376" lon="2.26784">
        <ele>423</ele>
        <time>2021-04-18T08:58:10Z</time>
      </trkpt>
      <trkpt lat="43.99376" lon="2.26786">
        <ele>423</ele>
        <time>2021-04-18T08:58:11Z</time>
      </trkpt>
      <trkpt lat="43.99376" lon="2.26788">
        <ele>423</ele>
        <time>2021-04-18T08:58:12Z</time>
      </trkpt>
      <trkpt lat="43.99375" lon="2.2679">
        <ele>423</ele>
        <time>2021-04-18T08:58:13Z</time>
      </trkpt>
      <trkpt lat="43.99376" lon="2.26792">
        <ele>423</ele>
        <time>2021-04-18T08:58:14Z</time>
      </trkpt>
      <trkpt lat="43.99376" lon="2.26794">
        <ele>423</ele>
        <time>2021-04-18T08:58:15Z</time>
      </trkpt>
      <trkpt lat="43.99376" lon="2.26797">
        <ele>423</ele>
        <time>2021-04-18T08:58:16Z</time>
      </trkpt>
      <trkpt lat="43.99376" lon="2.26799">
        <ele>423</ele>
        <time>2021-04-18T08:58:17Z</time>
      </trkpt>
      <trkpt lat="43.99376" lon="2.26801">
        <ele>423</ele>
        <time>2021-04-18T08:58:18Z</time>
      </trkpt>
      <trkpt lat="43.99375" lon="2.26803">
        <ele>423</ele>
        <time>2021-04-18T08:58:19Z</time>
      </trkpt>
      <trkpt lat="43.99375" lon="2.26805">
        <ele>423</ele>
        <time>2021-04-18T08:58:20Z</time>
      </trkpt>
      <trkpt lat="43.99375" lon="2.26807">
        <ele>422</ele>
        <time>2021-04-18T08:58:21Z</time>
      </trkpt>
      <trkpt lat="43.99375" lon="2.26809">
        <ele>423</ele>
        <time>2021-04-18T08:58:22Z</time>
      </trkpt>
      <trkpt lat="43.99375" lon="2.26811">
        <ele>423</ele>
        <time>2021-04-18T08:58:23Z</time>
      </trkpt>
      <trkpt lat="43.99375" lon="2.26813">
        <ele>423</ele>
        <time>2021-04-18T08:58:24Z</time>
      </trkpt>
      <trkpt lat="43.99374" lon="2.26815">
        <ele>423</ele>
        <time>2021-04-18T08:58:25Z</time>
      </trkpt>
      <trkpt lat="43.99374" lon="2.26818">
        <ele>423</ele>
        <time>2021-04-18T08:58:26Z</time>
      </trkpt>
      <trkpt lat="43.99373" lon="2.2682">
        <ele>424</ele>
        <time>2021-04-18T08:58:27Z</time>
      </trkpt>
      <trkpt lat="43.99373" lon="2.26823">
        <ele>424</ele>
        <time>2021-04-18T08:58:28Z</time>
      </trkpt>
      <trkpt lat="43.99373" lon="2.26825">
        <ele>424</ele>
        <time>2021-04-18T08:58:29Z</time>
      </trkpt>
      <trkpt lat="43.99373" lon="2.26828">
        <ele>425</ele>
        <time>2021-04-18T08:58:30Z</time>
      </trkpt>
      <trkpt lat="43.99373" lon="2.2683">
        <ele>425</ele>
        <time>2021-04-18T08:58:31Z</time>
      </trkpt>
      <trkpt lat="43.99372" lon="2.26833">
        <ele>426</ele>
        <time>2021-04-18T08:58:32Z</time>
      </trkpt>
      <trkpt lat="43.99372" lon="2.26835">
        <ele>427</ele>
        <time>2021-04-18T08:58:33Z</time>
      </trkpt>
      <trkpt lat="43.99372" lon="2.26837">
        <ele>427</ele>
        <time>2021-04-18T08:58:34Z</time>
      </trkpt>
      <trkpt lat="43.99371" lon="2.2684">
        <ele>427</ele>
        <time>2021-04-18T08:58:35Z</time>
      </trkpt>
      <trkpt lat="43.99371" lon="2.26842">
        <ele>427</ele>
        <time>2021-04-18T08:58:36Z</time>
      </trkpt>
      <trkpt lat="43.99371" lon="2.26844">
        <ele>427</ele>
        <time>2021-04-18T08:58:37Z</time>
      </trkpt>
      <trkpt lat="43.99371" lon="2.26846">
        <ele>426</ele>
        <time>2021-04-18T08:58:38Z</time>
      </trkpt>
      <trkpt lat="43.99371" lon="2.26848">
        <ele>426</ele>
        <time>2021-04-18T08:58:39Z</time>
      </trkpt>
      <trkpt lat="43.9937" lon="2.2685">
        <ele>426</ele>
        <time>2021-04-18T08:58:40Z</time>
      </trkpt>
      <trkpt lat="43.9937" lon="2.26853">
        <ele>426</ele>
        <time>2021-04-18T08:58:41Z</time>
      </trkpt>
      <trkpt lat="43.9937" lon="2.26855">
        <ele>426</ele>
        <time>2021-04-18T08:58:42Z</time>
      </trkpt>
      <trkpt lat="43.99369" lon="2.26857">
        <ele>426</ele>
        <time>2021-04-18T08:58:43Z</time>
      </trkpt>
      <trkpt lat="43.99369" lon="2.26859">
        <ele>426</ele>
        <time>2021-04-18T08:58:44Z</time>
      </trkpt>
      <trkpt lat="43.99369" lon="2.26861">
        <ele>426</ele>
        <time>2021-04-18T08:58:45Z</time>
      </trkpt>
      <trkpt lat="43.99369" lon="2.26863">
        <ele>427</ele>
        <time>2021-04-18T08:58:46Z</time>
      </trkpt>
      <trkpt lat="43.99369" lon="2.26865">
        <ele>427</ele>
        <time>2021-04-18T08:58:47Z</time>
      </trkpt>
      <trkpt lat="43.99368" lon="2.26868">
        <ele>426</ele>
        <time>2021-04-18T08:58:48Z</time>
      </trkpt>
      <trkpt lat="43.99368" lon="2.26869">
        <ele>426</ele>
        <time>2021-04-18T08:58:49Z</time>
      </trkpt>
      <trkpt lat="43.99367" lon="2.26872">
        <ele>427</ele>
        <time>2021-04-18T08:58:50Z</time>
      </trkpt>
      <trkpt lat="43.99367" lon="2.26874">
        <ele>427</ele>
        <time>2021-04-18T08:58:51Z</time>
      </trkpt>
      <trkpt lat="43.99367" lon="2.26876">
        <ele>427</ele>
        <time>2021-04-18T08:58:52Z</time>
      </trkpt>
      <trkpt lat="43.99367" lon="2.26878">
        <ele>426</ele>
        <time>2021-04-18T08:58:53Z</time>
      </trkpt>
      <trkpt lat="43.99366" lon="2.26881">
        <ele>426</ele>
        <time>2021-04-18T08:58:54Z</time>
      </trkpt>
      <trkpt lat="43.99366" lon="2.26883">
        <ele>427</ele>
        <time>2021-04-18T08:58:55Z</time>
      </trkpt>
      <trkpt lat="43.99366" lon="2.26885">
        <ele>427</ele>
        <time>2021-04-18T08:58:56Z</time>
      </trkpt>
      <trkpt lat="43.99366" lon="2.26888">
        <ele>427</ele>
        <time>2021-04-18T08:58:57Z</time>
      </trkpt>
      <trkpt lat="43.99366" lon="2.2689">
        <ele>427</ele>
        <time>2021-04-18T08:58:58Z</time>
      </trkpt>
      <trkpt lat="43.99365" lon="2.26892">
        <ele>427</ele>
        <time>2021-04-18T08:58:59Z</time>
      </trkpt>
      <trkpt lat="43.99365" lon="2.26894">
        <ele>427</ele>
        <time>2021-04-18T08:59:00Z</time>
      </trkpt>
      <trkpt lat="43.99365" lon="2.26896">
        <ele>427</ele>
        <time>2021-04-18T08:59:01Z</time>
      </trkpt>
      <trkpt lat="43.99365" lon="2.26898">
        <ele>427</ele>
        <time>2021-04-18T08:59:02Z</time>
      </trkpt>
      <trkpt lat="43.99364" lon="2.269">
        <ele>427</ele>
        <time>2021-04-18T08:59:03Z</time>
      </trkpt>
      <trkpt lat="43.99363" lon="2.26902">
        <ele>427</ele>
        <time>2021-04-18T08:59:04Z</time>
      </trkpt>
      <trkpt lat="43.99363" lon="2.26903">
        <ele>427</ele>
        <time>2021-04-18T08:59:05Z</time>
      </trkpt>
      <trkpt lat="43.99363" lon="2.26904">
        <ele>426</ele>
        <time>2021-04-18T08:59:06Z</time>
      </trkpt>
      <trkpt lat="43.99363" lon="2.26905">
        <ele>426</ele>
        <time>2021-04-18T08:59:07Z</time>
      </trkpt>
      <trkpt lat="43.99362" lon="2.26906">
        <ele>426</ele>
        <time>2021-04-18T08:59:08Z</time>
      </trkpt>
      <trkpt lat="43.99362" lon="2.26907">
        <ele>426</ele>
        <time>2021-04-18T08:59:09Z</time>
      </trkpt>
      <trkpt lat="43.99362" lon="2.26907">
        <ele>426</ele>
        <time>2021-04-18T08:59:10Z</time>
      </trkpt>
      <trkpt lat="43.99363" lon="2.26907">
        <ele>426</ele>
        <time>2021-04-18T08:59:11Z</time>
      </trkpt>
      <trkpt lat="43.99362" lon="2.26908">
        <ele>426</ele>
        <time>2021-04-18T08:59:12Z</time>
      </trkpt>
      <trkpt lat="43.99362" lon="2.26909">
        <ele>427</ele>
        <time>2021-04-18T08:59:13Z</time>
      </trkpt>
      <trkpt lat="43.99362" lon="2.2691">
        <ele>427</ele>
        <time>2021-04-18T08:59:14Z</time>
      </trkpt>
      <trkpt lat="43.99361" lon="2.26911">
        <ele>426</ele>
        <time>2021-04-18T08:59:15Z</time>
      </trkpt>
      <trkpt lat="43.9936" lon="2.26912">
        <ele>426</ele>
        <time>2021-04-18T08:59:16Z</time>
      </trkpt>
      <trkpt lat="43.9936" lon="2.26913">
        <ele>427</ele>
        <time>2021-04-18T08:59:17Z</time>
      </trkpt>
      <trkpt lat="43.99359" lon="2.26914">
        <ele>427</ele>
        <time>2021-04-18T08:59:18Z</time>
      </trkpt>
      <trkpt lat="43.99358" lon="2.26914">
        <ele>427</ele>
        <time>2021-04-18T08:59:19Z</time>
      </trkpt>
      <trkpt lat="43.99357" lon="2.26914">
        <ele>427</ele>
        <time>2021-04-18T08:59:20Z</time>
      </trkpt>
      <trkpt lat="43.99355" lon="2.26914">
        <ele>427</ele>
        <time>2021-04-18T08:59:21Z</time>
      </trkpt>
      <trkpt lat="43.99355" lon="2.26914">
        <ele>427</ele>
        <time>2021-04-18T08:59:22Z</time>
      </trkpt>
      <trkpt lat="43.99353" lon="2.26915">
        <ele>427</ele>
        <time>2021-04-18T08:59:23Z</time>
      </trkpt>
      <trkpt lat="43.99352" lon="2.26915">
        <ele>427</ele>
        <time>2021-04-18T08:59:24Z</time>
      </trkpt>
      <trkpt lat="43.9935" lon="2.26916">
        <ele>427</ele>
        <time>2021-04-18T08:59:25Z</time>
      </trkpt>
      <trkpt lat="43.99349" lon="2.26916">
        <ele>427</ele>
        <time>2021-04-18T08:59:26Z</time>
      </trkpt>
      <trkpt lat="43.99348" lon="2.26916">
        <ele>427</ele>
        <time>2021-04-18T08:59:27Z</time>
      </trkpt>
      <trkpt lat="43.99347" lon="2.26916">
        <ele>427</ele>
        <time>2021-04-18T08:59:28Z</time>
      </trkpt>
      <trkpt lat="43.99346" lon="2.26917">
        <ele>427</ele>
        <time>2021-04-18T08:59:29Z</time>
      </trkpt>
      <trkpt lat="43.99345" lon="2.26917">
        <ele>427</ele>
        <time>2021-04-18T08:59:30Z</time>
      </trkpt>
      <trkpt lat="43.99344" lon="2.26917">
        <ele>427</ele>
        <time>2021-04-18T08:59:31Z</time>
      </trkpt>
      <trkpt lat="43.99342" lon="2.26917">
        <ele>427</ele>
        <time>2021-04-18T08:59:32Z</time>
      </trkpt>
      <trkpt lat="43.99341" lon="2.26918">
        <ele>428</ele>
        <time>2021-04-18T08:59:33Z</time>
      </trkpt>
      <trkpt lat="43.99339" lon="2.26918">
        <ele>428</ele>
        <time>2021-04-18T08:59:34Z</time>
      </trkpt>
      <trkpt lat="43.99338" lon="2.26918">
        <ele>428</ele>
        <time>2021-04-18T08:59:35Z</time>
      </trkpt>
      <trkpt lat="43.99337" lon="2.26918">
        <ele>428</ele>
        <time>2021-04-18T08:59:36Z</time>
      </trkpt>
      <trkpt lat="43.99336" lon="2.26919">
        <ele>428</ele>
        <time>2021-04-18T08:59:37Z</time>
      </trkpt>
      <trkpt lat="43.99334" lon="2.26919">
        <ele>428</ele>
        <time>2021-04-18T08:59:38Z</time>
      </trkpt>
      <trkpt lat="43.99332" lon="2.26919">
        <ele>428</ele>
        <time>2021-04-18T08:59:39Z</time>
      </trkpt>
      <trkpt lat="43.99331" lon="2.2692">
        <ele>428</ele>
        <time>2021-04-18T08:59:40Z</time>
      </trkpt>
      <trkpt lat="43.99329" lon="2.2692">
        <ele>427</ele>
        <time>2021-04-18T08:59:41Z</time>
      </trkpt>
      <trkpt lat="43.99328" lon="2.26921">
        <ele>427</ele>
        <time>2021-04-18T08:59:42Z</time>
      </trkpt>
      <trkpt lat="43.99326" lon="2.26921">
        <ele>427</ele>
        <time>2021-04-18T08:59:43Z</time>
      </trkpt>
      <trkpt lat="43.99325" lon="2.26922">
        <ele>427</ele>
        <time>2021-04-18T08:59:44Z</time>
      </trkpt>
      <trkpt lat="43.99324" lon="2.26923">
        <ele>427</ele>
        <time>2021-04-18T08:59:45Z</time>
      </trkpt>
      <trkpt lat="43.99323" lon="2.26924">
        <ele>427</ele>
        <time>2021-04-18T08:59:46Z</time>
      </trkpt>
      <trkpt lat="43.99321" lon="2.26925">
        <ele>427</ele>
        <time>2021-04-18T08:59:47Z</time>
      </trkpt>
      <trkpt lat="43.9932" lon="2.26926">
        <ele>428</ele>
        <time>2021-04-18T08:59:48Z</time>
      </trkpt>
      <trkpt lat="43.99319" lon="2.26927">
        <ele>429</ele>
        <time>2021-04-18T08:59:49Z</time>
      </trkpt>
      <trkpt lat="43.99318" lon="2.26928">
        <ele>429</ele>
        <time>2021-04-18T08:59:50Z</time>
      </trkpt>
      <trkpt lat="43.99316" lon="2.26929">
        <ele>428</ele>
        <time>2021-04-18T08:59:51Z</time>
      </trkpt>
      <trkpt lat="43.99316" lon="2.2693">
        <ele>427</ele>
        <time>2021-04-18T08:59:52Z</time>
      </trkpt>
      <trkpt lat="43.99315" lon="2.26932">
        <ele>427</ele>
        <time>2021-04-18T08:59:53Z</time>
      </trkpt>
      <trkpt lat="43.99314" lon="2.26933">
        <ele>426</ele>
        <time>2021-04-18T08:59:54Z</time>
      </trkpt>
      <trkpt lat="43.99313" lon="2.26935">
        <ele>425</ele>
        <time>2021-04-18T08:59:55Z</time>
      </trkpt>
      <trkpt lat="43.99312" lon="2.26937">
        <ele>425</ele>
        <time>2021-04-18T08:59:56Z</time>
      </trkpt>
      <trkpt lat="43.99311" lon="2.26938">
        <ele>424</ele>
        <time>2021-04-18T08:59:57Z</time>
      </trkpt>
      <trkpt lat="43.9931" lon="2.2694">
        <ele>424</ele>
        <time>2021-04-18T08:59:58Z</time>
      </trkpt>
      <trkpt lat="43.9931" lon="2.26942">
        <ele>423</ele>
        <time>2021-04-18T08:59:59Z</time>
      </trkpt>
      <trkpt lat="43.9931" lon="2.26944">
        <ele>423</ele>
        <time>2021-04-18T09:00:00Z</time>
      </trkpt>
      <trkpt lat="43.9931" lon="2.26946">
        <ele>423</ele>
        <time>2021-04-18T09:00:01Z</time>
      </trkpt>
      <trkpt lat="43.99309" lon="2.26947">
        <ele>423</ele>
        <time>2021-04-18T09:00:02Z</time>
      </trkpt>
      <trkpt lat="43.99309" lon="2.26949">
        <ele>423</ele>
        <time>2021-04-18T09:00:03Z</time>
      </trkpt>
      <trkpt lat="43.99308" lon="2.2695">
        <ele>422</ele>
        <time>2021-04-18T09:00:04Z</time>
      </trkpt>
      <trkpt lat="43.99308" lon="2.26951">
        <ele>422</ele>
        <time>2021-04-18T09:00:05Z</time>
      </trkpt>
      <trkpt lat="43.99308" lon="2.26952">
        <ele>423</ele>
        <time>2021-04-18T09:00:06Z</time>
      </trkpt>
      <trkpt lat="43.99307" lon="2.26953">
        <ele>423</ele>
        <time>2021-04-18T09:00:07Z</time>
      </trkpt>
      <trkpt lat="43.99306" lon="2.26954">
        <ele>422</ele>
        <time>2021-04-18T09:00:08Z</time>
      </trkpt>
      <trkpt lat="43.99305" lon="2.26955">
        <ele>422</ele>
        <time>2021-04-18T09:00:09Z</time>
      </trkpt>
      <trkpt lat="43.99303" lon="2.26956">
        <ele>422</ele>
        <time>2021-04-18T09:00:10Z</time>
      </trkpt>
      <trkpt lat="43.99302" lon="2.26957">
        <ele>423</ele>
        <time>2021-04-18T09:00:11Z</time>
      </trkpt>
      <trkpt lat="43.99301" lon="2.26959">
        <ele>423</ele>
        <time>2021-04-18T09:00:12Z</time>
      </trkpt>
      <trkpt lat="43.993" lon="2.2696">
        <ele>422</ele>
        <time>2021-04-18T09:00:13Z</time>
      </trkpt>
      <trkpt lat="43.99299" lon="2.26961">
        <ele>422</ele>
        <time>2021-04-18T09:00:14Z</time>
      </trkpt>
      <trkpt lat="43.99297" lon="2.26962">
        <ele>422</ele>
        <time>2021-04-18T09:00:15Z</time>
      </trkpt>
      <trkpt lat="43.99295" lon="2.26963">
        <ele>422</ele>
        <time>2021-04-18T09:00:16Z</time>
      </trkpt>
      <trkpt lat="43.99294" lon="2.26964">
        <ele>422</ele>
        <time>2021-04-18T09:00:17Z</time>
      </trkpt>
      <trkpt lat="43.99292" lon="2.26965">
        <ele>422</ele>
        <time>2021-04-18T09:00:18Z</time>
      </trkpt>
      <trkpt lat="43.99291" lon="2.26966">
        <ele>422</ele>
        <time>2021-04-18T09:00:19Z</time>
      </trkpt>
      <trkpt lat="43.99289" lon="2.26968">
        <ele>422</ele>
        <time>2021-04-18T09:00:20Z</time>
      </trkpt>
      <trkpt lat="43.99287" lon="2.26969">
        <ele>422</ele>
        <time>2021-04-18T09:00:21Z</time>
      </trkpt>
      <trkpt lat="43.99286" lon="2.2697">
        <ele>422</ele>
        <time>2021-04-18T09:00:22Z</time>
      </trkpt>
      <trkpt lat="43.99284" lon="2.26971">
        <ele>422</ele>
        <time>2021-04-18T09:00:23Z</time>
      </trkpt>
      <trkpt lat="43.99283" lon="2.26973">
        <ele>422</ele>
        <time>2021-04-18T09:00:24Z</time>
      </trkpt>
      <trkpt lat="43.99282" lon="2.26974">
        <ele>421</ele>
        <time>2021-04-18T09:00:25Z</time>
      </trkpt>
      <trkpt lat="43.9928" lon="2.26976">
        <ele>421</ele>
        <time>2021-04-18T09:00:26Z</time>
      </trkpt>
      <trkpt lat="43.99279" lon="2.26977">
        <ele>421</ele>
        <time>2021-04-18T09:00:27Z</time>
      </trkpt>
      <trkpt lat="43.99278" lon="2.26978">
        <ele>421</ele>
        <time>2021-04-18T09:00:28Z</time>
      </trkpt>
      <trkpt lat="43.99277" lon="2.26979">
        <ele>421</ele>
        <time>2021-04-18T09:00:29Z</time>
      </trkpt>
      <trkpt lat="43.99276" lon="2.2698">
        <ele>421</ele>
        <time>2021-04-18T09:00:30Z</time>
      </trkpt>
      <trkpt lat="43.99274" lon="2.26982">
        <ele>421</ele>
        <time>2021-04-18T09:00:31Z</time>
      </trkpt>
      <trkpt lat="43.99273" lon="2.26984">
        <ele>421</ele>
        <time>2021-04-18T09:00:32Z</time>
      </trkpt>
      <trkpt lat="43.99272" lon="2.26985">
        <ele>421</ele>
        <time>2021-04-18T09:00:33Z</time>
      </trkpt>
      <trkpt lat="43.99271" lon="2.26987">
        <ele>421</ele>
        <time>2021-04-18T09:00:34Z</time>
      </trkpt>
      <trkpt lat="43.9927" lon="2.26988">
        <ele>422</ele>
        <time>2021-04-18T09:00:35Z</time>
      </trkpt>
      <trkpt lat="43.99268" lon="2.26989">
        <ele>422</ele>
        <time>2021-04-18T09:00:36Z</time>
      </trkpt>
      <trkpt lat="43.99267" lon="2.2699">
        <ele>421</ele>
        <time>2021-04-18T09:00:37Z</time>
      </trkpt>
      <trkpt lat="43.99265" lon="2.26991">
        <ele>421</ele>
        <time>2021-04-18T09:00:38Z</time>
      </trkpt>
      <trkpt lat="43.99264" lon="2.26992">
        <ele>421</ele>
        <time>2021-04-18T09:00:39Z</time>
      </trkpt>
      <trkpt lat="43.99262" lon="2.26993">
        <ele>420</ele>
        <time>2021-04-18T09:00:40Z</time>
      </trkpt>
      <trkpt lat="43.99261" lon="2.26994">
        <ele>421</ele>
        <time>2021-04-18T09:00:41Z</time>
      </trkpt>
      <trkpt lat="43.9926" lon="2.26995">
        <ele>420</ele>
        <time>2021-04-18T09:00:42Z</time>
      </trkpt>
      <trkpt lat="43.99258" lon="2.26996">
        <ele>420</ele>
        <time>2021-04-18T09:00:43Z</time>
      </trkpt>
      <trkpt lat="43.99257" lon="2.26998">
        <ele>420</ele>
        <time>2021-04-18T09:00:44Z</time>
      </trkpt>
      <trkpt lat="43.99256" lon="2.26999">
        <ele>420</ele>
        <time>2021-04-18T09:00:45Z</time>
      </trkpt>
      <trkpt lat="43.99254" lon="2.27">
        <ele>419</ele>
        <time>2021-04-18T09:00:46Z</time>
      </trkpt>
      <trkpt lat="43.99253" lon="2.27001">
        <ele>420</ele>
        <time>2021-04-18T09:00:47Z</time>
      </trkpt>
      <trkpt lat="43.99252" lon="2.27003">
        <ele>420</ele>
        <time>2021-04-18T09:00:48Z</time>
      </trkpt>
      <trkpt lat="43.99251" lon="2.27004">
        <ele>420</ele>
        <time>2021-04-18T09:00:49Z</time>
      </trkpt>
      <trkpt lat="43.9925" lon="2.27006">
        <ele>419</ele>
        <time>2021-04-18T09:00:50Z</time>
      </trkpt>
      <trkpt lat="43.99248" lon="2.27007">
        <ele>419</ele>
        <time>2021-04-18T09:00:51Z</time>
      </trkpt>
      <trkpt lat="43.99246" lon="2.27008">
        <ele>419</ele>
        <time>2021-04-18T09:00:52Z</time>
      </trkpt>
      <trkpt lat="43.99245" lon="2.2701">
        <ele>419</ele>
        <time>2021-04-18T09:00:53Z</time>
      </trkpt>
      <trkpt lat="43.99243" lon="2.27011">
        <ele>419</ele>
        <time>2021-04-18T09:00:54Z</time>
      </trkpt>
      <trkpt lat="43.99242" lon="2.27012">
        <ele>419</ele>
        <time>2021-04-18T09:00:55Z</time>
      </trkpt>
      <trkpt lat="43.99241" lon="2.27013">
        <ele>419</ele>
        <time>2021-04-18T09:00:56Z</time>
      </trkpt>
      <trkpt lat="43.99239" lon="2.27014">
        <ele>418</ele>
        <time>2021-04-18T09:00:57Z</time>
      </trkpt>
      <trkpt lat="43.99238" lon="2.27015">
        <ele>418</ele>
        <time>2021-04-18T09:00:58Z</time>
      </trkpt>
      <trkpt lat="43.99237" lon="2.27017">
        <ele>418</ele>
        <time>2021-04-18T09:00:59Z</time>
      </trkpt>
      <trkpt lat="43.99237" lon="2.27019">
        <ele>417</ele>
        <time>2021-04-18T09:01:00Z</time>
      </trkpt>
      <trkpt lat="43.99237" lon="2.2702">
        <ele>417</ele>
        <time>2021-04-18T09:01:01Z</time>
      </trkpt>
      <trkpt lat="43.99237" lon="2.27024">
        <ele>417</ele>
        <time>2021-04-18T09:01:02Z</time>
      </trkpt>
      <trkpt lat="43.99237" lon="2.27026">
        <ele>416</ele>
        <time>2021-04-18T09:01:03Z</time>
      </trkpt>
      <trkpt lat="43.99235" lon="2.27029">
        <ele>415</ele>
        <time>2021-04-18T09:01:05Z</time>
      </trkpt>
      <trkpt lat="43.99234" lon="2.27031">
        <ele>416</ele>
        <time>2021-04-18T09:01:06Z</time>
      </trkpt>
      <trkpt lat="43.99234" lon="2.27032">
        <ele>416</ele>
        <time>2021-04-18T09:01:07Z</time>
      </trkpt>
      <trkpt lat="43.99233" lon="2.27034">
        <ele>417</ele>
        <time>2021-04-18T09:01:08Z</time>
      </trkpt>
      <trkpt lat="43.99232" lon="2.27036">
        <ele>417</ele>
        <time>2021-04-18T09:01:09Z</time>
      </trkpt>
      <trkpt lat="43.99232" lon="2.27038">
        <ele>418</ele>
        <time>2021-04-18T09:01:10Z</time>
      </trkpt>
      <trkpt lat="43.99232" lon="2.2704">
        <ele>417</ele>
        <time>2021-04-18T09:01:11Z</time>
      </trkpt>
      <trkpt lat="43.99232" lon="2.27041">
        <ele>417</ele>
        <time>2021-04-18T09:01:12Z</time>
      </trkpt>
      <trkpt lat="43.99231" lon="2.27044">
        <ele>417</ele>
        <time>2021-04-18T09:01:13Z</time>
      </trkpt>
      <trkpt lat="43.99232" lon="2.27046">
        <ele>418</ele>
        <time>2021-04-18T09:01:14Z</time>
      </trkpt>
      <trkpt lat="43.99231" lon="2.27048">
        <ele>419</ele>
        <time>2021-04-18T09:01:15Z</time>
      </trkpt>
      <trkpt lat="43.99231" lon="2.2705">
        <ele>419</ele>
        <time>2021-04-18T09:01:16Z</time>
      </trkpt>
      <trkpt lat="43.9923" lon="2.27051">
        <ele>418</ele>
        <time>2021-04-18T09:01:17Z</time>
      </trkpt>
      <trkpt lat="43.9923" lon="2.27053">
        <ele>418</ele>
        <time>2021-04-18T09:01:18Z</time>
      </trkpt>
      <trkpt lat="43.9923" lon="2.27054">
        <ele>418</ele>
        <time>2021-04-18T09:01:19Z</time>
      </trkpt>
      <trkpt lat="43.9923" lon="2.27056">
        <ele>418</ele>
        <time>2021-04-18T09:01:20Z</time>
      </trkpt>
      <trkpt lat="43.9923" lon="2.27057">
        <ele>418</ele>
        <time>2021-04-18T09:01:21Z</time>
      </trkpt>
      <trkpt lat="43.99229" lon="2.27059">
        <ele>418</ele>
        <time>2021-04-18T09:01:22Z</time>
      </trkpt>
      <trkpt lat="43.99229" lon="2.2706">
        <ele>418</ele>
        <time>2021-04-18T09:01:23Z</time>
      </trkpt>
      <trkpt lat="43.99228" lon="2.27061">
        <ele>418</ele>
        <time>2021-04-18T09:01:24Z</time>
      </trkpt>
      <trkpt lat="43.99228" lon="2.27062">
        <ele>417</ele>
        <time>2021-04-18T09:01:25Z</time>
      </trkpt>
      <trkpt lat="43.99227" lon="2.27064">
        <ele>418</ele>
        <time>2021-04-18T09:01:26Z</time>
      </trkpt>
      <trkpt lat="43.99226" lon="2.27065">
        <ele>417</ele>
        <time>2021-04-18T09:01:27Z</time>
      </trkpt>
      <trkpt lat="43.99226" lon="2.27067">
        <ele>418</ele>
        <time>2021-04-18T09:01:28Z</time>
      </trkpt>
      <trkpt lat="43.99225" lon="2.27069">
        <ele>418</ele>
        <time>2021-04-18T09:01:29Z</time>
      </trkpt>
      <trkpt lat="43.99225" lon="2.27071">
        <ele>418</ele>
        <time>2021-04-18T09:01:30Z</time>
      </trkpt>
      <trkpt lat="43.99225" lon="2.27072">
        <ele>418</ele>
        <time>2021-04-18T09:01:31Z</time>
      </trkpt>
      <trkpt lat="43.99225" lon="2.27074">
        <ele>418</ele>
        <time>2021-04-18T09:01:32Z</time>
      </trkpt>
      <trkpt lat="43.99225" lon="2.27076">
        <ele>419</ele>
        <time>2021-04-18T09:01:33Z</time>
      </trkpt>
      <trkpt lat="43.99225" lon="2.27078">
        <ele>419</ele>
        <time>2021-04-18T09:01:34Z</time>
      </trkpt>
      <trkpt lat="43.99225" lon="2.2708">
        <ele>420</ele>
        <time>2021-04-18T09:01:35Z</time>
      </trkpt>
      <trkpt lat="43.99226" lon="2.27081">
        <ele>419</ele>
        <time>2021-04-18T09:01:36Z</time>
      </trkpt>
      <trkpt lat="43.99226" lon="2.27083">
        <ele>420</ele>
        <time>2021-04-18T09:01:37Z</time>
      </trkpt>
      <trkpt lat="43.99226" lon="2.27085">
        <ele>420</ele>
        <time>2021-04-18T09:01:38Z</time>
      </trkpt>
      <trkpt lat="43.99226" lon="2.27087">
        <ele>420</ele>
        <time>2021-04-18T09:01:39Z</time>
      </trkpt>
      <trkpt lat="43.99226" lon="2.27089">
        <ele>420</ele>
        <time>2021-04-18T09:01:40Z</time>
      </trkpt>
      <trkpt lat="43.99226" lon="2.27091">
        <ele>420</ele>
        <time>2021-04-18T09:01:41Z</time>
      </trkpt>
      <trkpt lat="43.99226" lon="2.27092">
        <ele>420</ele>
        <time>2021-04-18T09:01:42Z</time>
      </trkpt>
      <trkpt lat="43.99226" lon="2.27094">
        <ele>421</ele>
        <time>2021-04-18T09:01:43Z</time>
      </trkpt>
      <trkpt lat="43.99226" lon="2.27096">
        <ele>420</ele>
        <time>2021-04-18T09:01:45Z</time>
      </trkpt>
      <trkpt lat="43.99226" lon="2.27097">
        <ele>420</ele>
        <time>2021-04-18T09:01:45Z</time>
      </trkpt>
      <trkpt lat="43.99226" lon="2.27099">
        <ele>420</ele>
        <time>2021-04-18T09:01:47Z</time>
      </trkpt>
      <trkpt lat="43.99225" lon="2.27101">
        <ele>420</ele>
        <time>2021-04-18T09:01:48Z</time>
      </trkpt>
      <trkpt lat="43.99225" lon="2.27103">
        <ele>421</ele>
        <time>2021-04-18T09:01:49Z</time>
      </trkpt>
      <trkpt lat="43.99225" lon="2.27105">
        <ele>421</ele>
        <time>2021-04-18T09:01:50Z</time>
      </trkpt>
      <trkpt lat="43.99225" lon="2.27107">
        <ele>422</ele>
        <time>2021-04-18T09:01:51Z</time>
      </trkpt>
      <trkpt lat="43.99225" lon="2.27109">
        <ele>422</ele>
        <time>2021-04-18T09:01:52Z</time>
      </trkpt>
      <trkpt lat="43.99224" lon="2.27111">
        <ele>422</ele>
        <time>2021-04-18T09:01:53Z</time>
      </trkpt>
      <trkpt lat="43.99224" lon="2.27113">
        <ele>422</ele>
        <time>2021-04-18T09:01:54Z</time>
      </trkpt>
      <trkpt lat="43.99223" lon="2.27115">
        <ele>422</ele>
        <time>2021-04-18T09:01:55Z</time>
      </trkpt>
      <trkpt lat="43.99222" lon="2.27118">
        <ele>422</ele>
        <time>2021-04-18T09:01:56Z</time>
      </trkpt>
      <trkpt lat="43.99222" lon="2.27119">
        <ele>422</ele>
        <time>2021-04-18T09:01:57Z</time>
      </trkpt>
      <trkpt lat="43.99221" lon="2.27121">
        <ele>422</ele>
        <time>2021-04-18T09:01:58Z</time>
      </trkpt>
      <trkpt lat="43.99221" lon="2.27123">
        <ele>422</ele>
        <time>2021-04-18T09:01:59Z</time>
      </trkpt>
      <trkpt lat="43.9922" lon="2.27124">
        <ele>422</ele>
        <time>2021-04-18T09:02:00Z</time>
      </trkpt>
      <trkpt lat="43.9922" lon="2.27126">
        <ele>423</ele>
        <time>2021-04-18T09:02:01Z</time>
      </trkpt>
      <trkpt lat="43.9922" lon="2.27128">
        <ele>423</ele>
        <time>2021-04-18T09:02:02Z</time>
      </trkpt>
      <trkpt lat="43.99219" lon="2.2713">
        <ele>423</ele>
        <time>2021-04-18T09:02:03Z</time>
      </trkpt>
      <trkpt lat="43.99219" lon="2.27132">
        <ele>424</ele>
        <time>2021-04-18T09:02:04Z</time>
      </trkpt>
      <trkpt lat="43.99218" lon="2.27134">
        <ele>424</ele>
        <time>2021-04-18T09:02:05Z</time>
      </trkpt>
      <trkpt lat="43.99218" lon="2.27136">
        <ele>424</ele>
        <time>2021-04-18T09:02:06Z</time>
      </trkpt>
      <trkpt lat="43.99217" lon="2.27137">
        <ele>423</ele>
        <time>2021-04-18T09:02:07Z</time>
      </trkpt>
      <trkpt lat="43.99217" lon="2.27139">
        <ele>424</ele>
        <time>2021-04-18T09:02:08Z</time>
      </trkpt>
      <trkpt lat="43.99216" lon="2.2714">
        <ele>424</ele>
        <time>2021-04-18T09:02:09Z</time>
      </trkpt>
      <trkpt lat="43.99215" lon="2.27142">
        <ele>424</ele>
        <time>2021-04-18T09:02:10Z</time>
      </trkpt>
      <trkpt lat="43.99214" lon="2.27145">
        <ele>424</ele>
        <time>2021-04-18T09:02:11Z</time>
      </trkpt>
      <trkpt lat="43.99213" lon="2.27146">
        <ele>424</ele>
        <time>2021-04-18T09:02:12Z</time>
      </trkpt>
      <trkpt lat="43.99213" lon="2.27149">
        <ele>425</ele>
        <time>2021-04-18T09:02:13Z</time>
      </trkpt>
      <trkpt lat="43.99212" lon="2.27151">
        <ele>425</ele>
        <time>2021-04-18T09:02:14Z</time>
      </trkpt>
      <trkpt lat="43.99212" lon="2.27153">
        <ele>425</ele>
        <time>2021-04-18T09:02:15Z</time>
      </trkpt>
      <trkpt lat="43.99211" lon="2.27155">
        <ele>425</ele>
        <time>2021-04-18T09:02:16Z</time>
      </trkpt>
      <trkpt lat="43.9921" lon="2.27157">
        <ele>425</ele>
        <time>2021-04-18T09:02:17Z</time>
      </trkpt>
      <trkpt lat="43.99209" lon="2.27159">
        <ele>424</ele>
        <time>2021-04-18T09:02:18Z</time>
      </trkpt>
      <trkpt lat="43.99209" lon="2.2716">
        <ele>425</ele>
        <time>2021-04-18T09:02:19Z</time>
      </trkpt>
      <trkpt lat="43.99208" lon="2.27162">
        <ele>425</ele>
        <time>2021-04-18T09:02:20Z</time>
      </trkpt>
      <trkpt lat="43.99207" lon="2.27163">
        <ele>425</ele>
        <time>2021-04-18T09:02:21Z</time>
      </trkpt>
      <trkpt lat="43.99207" lon="2.27165">
        <ele>425</ele>
        <time>2021-04-18T09:02:22Z</time>
      </trkpt>
      <trkpt lat="43.99207" lon="2.27167">
        <ele>425</ele>
        <time>2021-04-18T09:02:23Z</time>
      </trkpt>
      <trkpt lat="43.99207" lon="2.27168">
        <ele>425</ele>
        <time>2021-04-18T09:02:24Z</time>
      </trkpt>
      <trkpt lat="43.99207" lon="2.2717">
        <ele>425</ele>
        <time>2021-04-18T09:02:25Z</time>
      </trkpt>
      <trkpt lat="43.99206" lon="2.27171">
        <ele>425</ele>
        <time>2021-04-18T09:02:26Z</time>
      </trkpt>
      <trkpt lat="43.99205" lon="2.27173">
        <ele>425</ele>
        <time>2021-04-18T09:02:27Z</time>
      </trkpt>
      <trkpt lat="43.99205" lon="2.27174">
        <ele>425</ele>
        <time>2021-04-18T09:02:28Z</time>
      </trkpt>
      <trkpt lat="43.99204" lon="2.27176">
        <ele>424</ele>
        <time>2021-04-18T09:02:29Z</time>
      </trkpt>
      <trkpt lat="43.99203" lon="2.27177">
        <ele>424</ele>
        <time>2021-04-18T09:02:30Z</time>
      </trkpt>
      <trkpt lat="43.99202" lon="2.27179">
        <ele>424</ele>
        <time>2021-04-18T09:02:31Z</time>
      </trkpt>
      <trkpt lat="43.99201" lon="2.27181">
        <ele>424</ele>
        <time>2021-04-18T09:02:32Z</time>
      </trkpt>
      <trkpt lat="43.99201" lon="2.27183">
        <ele>425</ele>
        <time>2021-04-18T09:02:33Z</time>
      </trkpt>
      <trkpt lat="43.992" lon="2.27185">
        <ele>424</ele>
        <time>2021-04-18T09:02:34Z</time>
      </trkpt>
      <trkpt lat="43.992" lon="2.27186">
        <ele>424</ele>
        <time>2021-04-18T09:02:35Z</time>
      </trkpt>
      <trkpt lat="43.992" lon="2.27188">
        <ele>424</ele>
        <time>2021-04-18T09:02:36Z</time>
      </trkpt>
      <trkpt lat="43.992" lon="2.27189">
        <ele>425</ele>
        <time>2021-04-18T09:02:37Z</time>
      </trkpt>
      <trkpt lat="43.99199" lon="2.27191">
        <ele>425</ele>
        <time>2021-04-18T09:02:38Z</time>
      </trkpt>
      <trkpt lat="43.99199" lon="2.27192">
        <ele>426</ele>
        <time>2021-04-18T09:02:39Z</time>
      </trkpt>
      <trkpt lat="43.99199" lon="2.27194">
        <ele>426</ele>
        <time>2021-04-18T09:02:40Z</time>
      </trkpt>
      <trkpt lat="43.99198" lon="2.27195">
        <ele>426</ele>
        <time>2021-04-18T09:02:41Z</time>
      </trkpt>
      <trkpt lat="43.99197" lon="2.27196">
        <ele>426</ele>
        <time>2021-04-18T09:02:42Z</time>
      </trkpt>
      <trkpt lat="43.99197" lon="2.27198">
        <ele>426</ele>
        <time>2021-04-18T09:02:43Z</time>
      </trkpt>
      <trkpt lat="43.99196" lon="2.27199">
        <ele>426</ele>
        <time>2021-04-18T09:02:44Z</time>
      </trkpt>
      <trkpt lat="43.99194" lon="2.272">
        <ele>426</ele>
        <time>2021-04-18T09:02:45Z</time>
      </trkpt>
      <trkpt lat="43.99193" lon="2.27202">
        <ele>426</ele>
        <time>2021-04-18T09:02:46Z</time>
      </trkpt>
      <trkpt lat="43.99192" lon="2.27203">
        <ele>427</ele>
        <time>2021-04-18T09:02:47Z</time>
      </trkpt>
      <trkpt lat="43.99191" lon="2.27204">
        <ele>428</ele>
        <time>2021-04-18T09:02:48Z</time>
      </trkpt>
      <trkpt lat="43.9919" lon="2.27206">
        <ele>428</ele>
        <time>2021-04-18T09:02:49Z</time>
      </trkpt>
      <trkpt lat="43.99189" lon="2.27207">
        <ele>428</ele>
        <time>2021-04-18T09:02:50Z</time>
      </trkpt>
      <trkpt lat="43.99188" lon="2.27208">
        <ele>428</ele>
        <time>2021-04-18T09:02:51Z</time>
      </trkpt>
      <trkpt lat="43.99186" lon="2.2721">
        <ele>428</ele>
        <time>2021-04-18T09:02:52Z</time>
      </trkpt>
      <trkpt lat="43.99185" lon="2.27211">
        <ele>428</ele>
        <time>2021-04-18T09:02:53Z</time>
      </trkpt>
      <trkpt lat="43.99184" lon="2.27213">
        <ele>428</ele>
        <time>2021-04-18T09:02:54Z</time>
      </trkpt>
      <trkpt lat="43.99183" lon="2.27215">
        <ele>428</ele>
        <time>2021-04-18T09:02:55Z</time>
      </trkpt>
      <trkpt lat="43.99181" lon="2.27216">
        <ele>428</ele>
        <time>2021-04-18T09:02:56Z</time>
      </trkpt>
      <trkpt lat="43.9918" lon="2.27217">
        <ele>428</ele>
        <time>2021-04-18T09:02:57Z</time>
      </trkpt>
      <trkpt lat="43.99178" lon="2.27218">
        <ele>429</ele>
        <time>2021-04-18T09:02:58Z</time>
      </trkpt>
      <trkpt lat="43.99177" lon="2.27219">
        <ele>429</ele>
        <time>2021-04-18T09:02:59Z</time>
      </trkpt>
      <trkpt lat="43.99176" lon="2.2722">
        <ele>429</ele>
        <time>2021-04-18T09:03:00Z</time>
      </trkpt>
      <trkpt lat="43.99175" lon="2.27221">
        <ele>429</ele>
        <time>2021-04-18T09:03:01Z</time>
      </trkpt>
      <trkpt lat="43.99173" lon="2.27222">
        <ele>428</ele>
        <time>2021-04-18T09:03:02Z</time>
      </trkpt>
      <trkpt lat="43.99173" lon="2.27222">
        <ele>428</ele>
        <time>2021-04-18T09:03:03Z</time>
      </trkpt>
      <trkpt lat="43.99171" lon="2.27223">
        <ele>428</ele>
        <time>2021-04-18T09:03:04Z</time>
      </trkpt>
      <trkpt lat="43.9917" lon="2.27224">
        <ele>428</ele>
        <time>2021-04-18T09:03:05Z</time>
      </trkpt>
      <trkpt lat="43.99169" lon="2.27225">
        <ele>429</ele>
        <time>2021-04-18T09:03:06Z</time>
      </trkpt>
      <trkpt lat="43.99168" lon="2.27226">
        <ele>429</ele>
        <time>2021-04-18T09:03:07Z</time>
      </trkpt>
      <trkpt lat="43.99167" lon="2.27227">
        <ele>429</ele>
        <time>2021-04-18T09:03:08Z</time>
      </trkpt>
      <trkpt lat="43.99166" lon="2.27228">
        <ele>430</ele>
        <time>2021-04-18T09:03:09Z</time>
      </trkpt>
      <trkpt lat="43.99165" lon="2.27229">
        <ele>430</ele>
        <time>2021-04-18T09:03:10Z</time>
      </trkpt>
      <trkpt lat="43.99163" lon="2.2723">
        <ele>430</ele>
        <time>2021-04-18T09:03:11Z</time>
      </trkpt>
      <trkpt lat="43.99162" lon="2.27231">
        <ele>430</ele>
        <time>2021-04-18T09:03:12Z</time>
      </trkpt>
      <trkpt lat="43.99161" lon="2.27232">
        <ele>430</ele>
        <time>2021-04-18T09:03:13Z</time>
      </trkpt>
      <trkpt lat="43.9916" lon="2.27232">
        <ele>429</ele>
        <time>2021-04-18T09:03:14Z</time>
      </trkpt>
      <trkpt lat="43.99159" lon="2.27234">
        <ele>430</ele>
        <time>2021-04-18T09:03:15Z</time>
      </trkpt>
      <trkpt lat="43.99158" lon="2.27235">
        <ele>430</ele>
        <time>2021-04-18T09:03:16Z</time>
      </trkpt>
      <trkpt lat="43.99157" lon="2.27236">
        <ele>430</ele>
        <time>2021-04-18T09:03:17Z</time>
      </trkpt>
      <trkpt lat="43.99156" lon="2.27238">
        <ele>430</ele>
        <time>2021-04-18T09:03:18Z</time>
      </trkpt>
      <trkpt lat="43.99155" lon="2.27239">
        <ele>430</ele>
        <time>2021-04-18T09:03:19Z</time>
      </trkpt>
      <trkpt lat="43.99154" lon="2.2724">
        <ele>430</ele>
        <time>2021-04-18T09:03:20Z</time>
      </trkpt>
      <trkpt lat="43.99154" lon="2.27241">
        <ele>431</ele>
        <time>2021-04-18T09:03:21Z</time>
      </trkpt>
      <trkpt lat="43.99154" lon="2.27241">
        <ele>431</ele>
        <time>2021-04-18T09:03:22Z</time>
      </trkpt>
      <trkpt lat="43.99153" lon="2.27241">
        <ele>430</ele>
        <time>2021-04-18T09:03:23Z</time>
      </trkpt>
      <trkpt lat="43.99153" lon="2.27241">
        <ele>430</ele>
        <time>2021-04-18T09:03:24Z</time>
      </trkpt>
      <trkpt lat="43.99153" lon="2.27241">
        <ele>430</ele>
        <time>2021-04-18T09:03:25Z</time>
      </trkpt>
      <trkpt lat="43.99153" lon="2.27241">
        <ele>430</ele>
        <time>2021-04-18T09:03:26Z</time>
      </trkpt>
      <trkpt lat="43.99153" lon="2.27241">
        <ele>430</ele>
        <time>2021-04-18T09:03:27Z</time>
      </trkpt>
      <trkpt lat="43.99153" lon="2.27241">
        <ele>430</ele>
        <time>2021-04-18T09:03:27Z</time>
      </trkpt>
      <trkpt lat="43.99153" lon="2.27241">
        <ele>430</ele>
        <time>2021-04-18T09:03:27Z</time>
      </trkpt>
      <trkpt lat="43.99149" lon="2.27246">
        <ele>429</ele>
        <time>2021-04-18T09:04:00Z</time>
      </trkpt>
      <trkpt lat="43.99148" lon="2.27247">
        <ele>429</ele>
        <time>2021-04-18T09:04:01Z</time>
      </trkpt>
      <trkpt lat="43.99146" lon="2.27247">
        <ele>429</ele>
        <time>2021-04-18T09:04:02Z</time>
      </trkpt>
      <trkpt lat="43.99145" lon="2.27248">
        <ele>429</ele>
        <time>2021-04-18T09:04:03Z</time>
      </trkpt>
      <trkpt lat="43.99144" lon="2.2725">
        <ele>430</ele>
        <time>2021-04-18T09:04:04Z</time>
      </trkpt>
      <trkpt lat="43.99143" lon="2.27251">
        <ele>430</ele>
        <time>2021-04-18T09:04:05Z</time>
      </trkpt>
      <trkpt lat="43.99141" lon="2.27251">
        <ele>430</ele>
        <time>2021-04-18T09:04:06Z</time>
      </trkpt>
      <trkpt lat="43.99141" lon="2.27252">
        <ele>430</ele>
        <time>2021-04-18T09:04:07Z</time>
      </trkpt>
      <trkpt lat="43.9914" lon="2.27253">
        <ele>430</ele>
        <time>2021-04-18T09:04:08Z</time>
      </trkpt>
      <trkpt lat="43.99138" lon="2.27253">
        <ele>430</ele>
        <time>2021-04-18T09:04:09Z</time>
      </trkpt>
      <trkpt lat="43.99137" lon="2.27255">
        <ele>429</ele>
        <time>2021-04-18T09:04:10Z</time>
      </trkpt>
      <trkpt lat="43.99136" lon="2.27256">
        <ele>429</ele>
        <time>2021-04-18T09:04:11Z</time>
      </trkpt>
      <trkpt lat="43.99135" lon="2.27257">
        <ele>429</ele>
        <time>2021-04-18T09:04:12Z</time>
      </trkpt>
      <trkpt lat="43.99133" lon="2.27258">
        <ele>429</ele>
        <time>2021-04-18T09:04:13Z</time>
      </trkpt>
      <trkpt lat="43.99133" lon="2.27259">
        <ele>429</ele>
        <time>2021-04-18T09:04:14Z</time>
      </trkpt>
      <trkpt lat="43.99131" lon="2.2726">
        <ele>429</ele>
        <time>2021-04-18T09:04:15Z</time>
      </trkpt>
      <trkpt lat="43.9913" lon="2.27261">
        <ele>429</ele>
        <time>2021-04-18T09:04:16Z</time>
      </trkpt>
      <trkpt lat="43.99129" lon="2.27261">
        <ele>429</ele>
        <time>2021-04-18T09:04:17Z</time>
      </trkpt>
      <trkpt lat="43.99127" lon="2.27262">
        <ele>429</ele>
        <time>2021-04-18T09:04:18Z</time>
      </trkpt>
      <trkpt lat="43.99126" lon="2.27263">
        <ele>429</ele>
        <time>2021-04-18T09:04:19Z</time>
      </trkpt>
      <trkpt lat="43.99125" lon="2.27264">
        <ele>428</ele>
        <time>2021-04-18T09:04:20Z</time>
      </trkpt>
      <trkpt lat="43.99125" lon="2.27264">
        <ele>428</ele>
        <time>2021-04-18T09:04:21Z</time>
      </trkpt>
      <trkpt lat="43.99125" lon="2.27264">
        <ele>428</ele>
        <time>2021-04-18T09:04:22Z</time>
      </trkpt>
      <trkpt lat="43.99125" lon="2.27264">
        <ele>428</ele>
        <time>2021-04-18T09:04:23Z</time>
      </trkpt>
      <trkpt lat="43.99125" lon="2.27265">
        <ele>429</ele>
        <time>2021-04-18T09:04:24Z</time>
      </trkpt>
      <trkpt lat="43.99124" lon="2.27265">
        <ele>429</ele>
        <time>2021-04-18T09:04:25Z</time>
      </trkpt>
      <trkpt lat="43.99123" lon="2.27266">
        <ele>429</ele>
        <time>2021-04-18T09:04:26Z</time>
      </trkpt>
      <trkpt lat="43.99122" lon="2.27268">
        <ele>429</ele>
        <time>2021-04-18T09:04:27Z</time>
      </trkpt>
      <trkpt lat="43.99121" lon="2.27269">
        <ele>429</ele>
        <time>2021-04-18T09:04:28Z</time>
      </trkpt>
      <trkpt lat="43.9912" lon="2.2727">
        <ele>429</ele>
        <time>2021-04-18T09:04:29Z</time>
      </trkpt>
      <trkpt lat="43.99118" lon="2.27272">
        <ele>429</ele>
        <time>2021-04-18T09:04:30Z</time>
      </trkpt>
      <trkpt lat="43.99118" lon="2.27273">
        <ele>430</ele>
        <time>2021-04-18T09:04:31Z</time>
      </trkpt>
      <trkpt lat="43.99117" lon="2.27274">
        <ele>429</ele>
        <time>2021-04-18T09:04:32Z</time>
      </trkpt>
      <trkpt lat="43.99115" lon="2.27275">
        <ele>429</ele>
        <time>2021-04-18T09:04:33Z</time>
      </trkpt>
      <trkpt lat="43.99114" lon="2.27276">
        <ele>429</ele>
        <time>2021-04-18T09:04:34Z</time>
      </trkpt>
      <trkpt lat="43.99112" lon="2.27277">
        <ele>429</ele>
        <time>2021-04-18T09:04:35Z</time>
      </trkpt>
      <trkpt lat="43.99111" lon="2.27277">
        <ele>429</ele>
        <time>2021-04-18T09:04:36Z</time>
      </trkpt>
      <trkpt lat="43.9911" lon="2.27278">
        <ele>430</ele>
        <time>2021-04-18T09:04:37Z</time>
      </trkpt>
      <trkpt lat="43.99109" lon="2.27279">
        <ele>430</ele>
        <time>2021-04-18T09:04:38Z</time>
      </trkpt>
      <trkpt lat="43.99107" lon="2.2728">
        <ele>429</ele>
        <time>2021-04-18T09:04:39Z</time>
      </trkpt>
      <trkpt lat="43.99107" lon="2.27281">
        <ele>429</ele>
        <time>2021-04-18T09:04:40Z</time>
      </trkpt>
      <trkpt lat="43.99106" lon="2.27282">
        <ele>429</ele>
        <time>2021-04-18T09:04:41Z</time>
      </trkpt>
      <trkpt lat="43.99104" lon="2.27283">
        <ele>429</ele>
        <time>2021-04-18T09:04:42Z</time>
      </trkpt>
      <trkpt lat="43.99104" lon="2.27285">
        <ele>429</ele>
        <time>2021-04-18T09:04:43Z</time>
      </trkpt>
      <trkpt lat="43.99102" lon="2.27286">
        <ele>429</ele>
        <time>2021-04-18T09:04:44Z</time>
      </trkpt>
      <trkpt lat="43.99101" lon="2.27288">
        <ele>430</ele>
        <time>2021-04-18T09:04:45Z</time>
      </trkpt>
      <trkpt lat="43.99099" lon="2.27289">
        <ele>430</ele>
        <time>2021-04-18T09:04:46Z</time>
      </trkpt>
      <trkpt lat="43.99098" lon="2.2729">
        <ele>431</ele>
        <time>2021-04-18T09:04:47Z</time>
      </trkpt>
      <trkpt lat="43.99097" lon="2.27291">
        <ele>431</ele>
        <time>2021-04-18T09:04:48Z</time>
      </trkpt>
      <trkpt lat="43.99095" lon="2.27292">
        <ele>432</ele>
        <time>2021-04-18T09:04:49Z</time>
      </trkpt>
      <trkpt lat="43.99094" lon="2.27294">
        <ele>432</ele>
        <time>2021-04-18T09:04:50Z</time>
      </trkpt>
      <trkpt lat="43.99093" lon="2.27295">
        <ele>432</ele>
        <time>2021-04-18T09:04:51Z</time>
      </trkpt>
      <trkpt lat="43.99093" lon="2.27297">
        <ele>432</ele>
        <time>2021-04-18T09:04:52Z</time>
      </trkpt>
      <trkpt lat="43.99092" lon="2.27299">
        <ele>433</ele>
        <time>2021-04-18T09:04:53Z</time>
      </trkpt>
      <trkpt lat="43.99091" lon="2.27301">
        <ele>432</ele>
        <time>2021-04-18T09:04:54Z</time>
      </trkpt>
      <trkpt lat="43.99089" lon="2.27302">
        <ele>432</ele>
        <time>2021-04-18T09:04:55Z</time>
      </trkpt>
      <trkpt lat="43.99088" lon="2.27303">
        <ele>432</ele>
        <time>2021-04-18T09:04:56Z</time>
      </trkpt>
      <trkpt lat="43.99087" lon="2.27304">
        <ele>431</ele>
        <time>2021-04-18T09:04:57Z</time>
      </trkpt>
      <trkpt lat="43.99086" lon="2.27305">
        <ele>431</ele>
        <time>2021-04-18T09:04:58Z</time>
      </trkpt>
      <trkpt lat="43.99084" lon="2.27306">
        <ele>431</ele>
        <time>2021-04-18T09:04:59Z</time>
      </trkpt>
      <trkpt lat="43.99083" lon="2.27308">
        <ele>431</ele>
        <time>2021-04-18T09:05:00Z</time>
      </trkpt>
      <trkpt lat="43.99082" lon="2.27309">
        <ele>431</ele>
        <time>2021-04-18T09:05:01Z</time>
      </trkpt>
      <trkpt lat="43.99081" lon="2.2731">
        <ele>431</ele>
        <time>2021-04-18T09:05:02Z</time>
      </trkpt>
      <trkpt lat="43.99079" lon="2.27311">
        <ele>431</ele>
        <time>2021-04-18T09:05:03Z</time>
      </trkpt>
      <trkpt lat="43.99078" lon="2.27312">
        <ele>430</ele>
        <time>2021-04-18T09:05:04Z</time>
      </trkpt>
      <trkpt lat="43.99077" lon="2.27314">
        <ele>430</ele>
        <time>2021-04-18T09:05:05Z</time>
      </trkpt>
      <trkpt lat="43.99075" lon="2.27315">
        <ele>430</ele>
        <time>2021-04-18T09:05:06Z</time>
      </trkpt>
      <trkpt lat="43.99074" lon="2.27316">
        <ele>430</ele>
        <time>2021-04-18T09:05:07Z</time>
      </trkpt>
      <trkpt lat="43.99073" lon="2.27318">
        <ele>431</ele>
        <time>2021-04-18T09:05:08Z</time>
      </trkpt>
      <trkpt lat="43.99072" lon="2.27319">
        <ele>431</ele>
        <time>2021-04-18T09:05:09Z</time>
      </trkpt>
      <trkpt lat="43.9907" lon="2.27321">
        <ele>431</ele>
        <time>2021-04-18T09:05:10Z</time>
      </trkpt>
      <trkpt lat="43.99069" lon="2.27322">
        <ele>430</ele>
        <time>2021-04-18T09:05:11Z</time>
      </trkpt>
      <trkpt lat="43.99068" lon="2.27323">
        <ele>430</ele>
        <time>2021-04-18T09:05:12Z</time>
      </trkpt>
      <trkpt lat="43.99067" lon="2.27325">
        <ele>429</ele>
        <time>2021-04-18T09:05:13Z</time>
      </trkpt>
      <trkpt lat="43.99065" lon="2.27327">
        <ele>429</ele>
        <time>2021-04-18T09:05:14Z</time>
      </trkpt>
      <trkpt lat="43.99064" lon="2.27328">
        <ele>430</ele>
        <time>2021-04-18T09:05:15Z</time>
      </trkpt>
      <trkpt lat="43.99063" lon="2.27329">
        <ele>431</ele>
        <time>2021-04-18T09:05:16Z</time>
      </trkpt>
      <trkpt lat="43.99062" lon="2.2733">
        <ele>432</ele>
        <time>2021-04-18T09:05:17Z</time>
      </trkpt>
      <trkpt lat="43.99062" lon="2.27331">
        <ele>431</ele>
        <time>2021-04-18T09:05:18Z</time>
      </trkpt>
      <trkpt lat="43.99062" lon="2.2733">
        <ele>431</ele>
        <time>2021-04-18T09:05:19Z</time>
      </trkpt>
      <trkpt lat="43.99062" lon="2.2733">
        <ele>431</ele>
        <time>2021-04-18T09:05:20Z</time>
      </trkpt>
      <trkpt lat="43.99062" lon="2.2733">
        <ele>431</ele>
        <time>2021-04-18T09:05:20Z</time>
      </trkpt>
      <trkpt lat="43.99062" lon="2.2733">
        <ele>431</ele>
        <time>2021-04-18T09:05:20Z</time>
      </trkpt>
      <trkpt lat="43.99059" lon="2.27336">
        <ele>431</ele>
        <time>2021-04-18T09:05:29Z</time>
      </trkpt>
      <trkpt lat="43.99057" lon="2.27337">
        <ele>431</ele>
        <time>2021-04-18T09:05:30Z</time>
      </trkpt>
      <trkpt lat="43.99056" lon="2.27338">
        <ele>431</ele>
        <time>2021-04-18T09:05:31Z</time>
      </trkpt>
      <trkpt lat="43.99056" lon="2.2734">
        <ele>431</ele>
        <time>2021-04-18T09:05:32Z</time>
      </trkpt>
      <trkpt lat="43.99055" lon="2.27341">
        <ele>431</ele>
        <time>2021-04-18T09:05:33Z</time>
      </trkpt>
      <trkpt lat="43.99054" lon="2.27342">
        <ele>431</ele>
        <time>2021-04-18T09:05:34Z</time>
      </trkpt>
      <trkpt lat="43.99053" lon="2.27343">
        <ele>430</ele>
        <time>2021-04-18T09:05:35Z</time>
      </trkpt>
      <trkpt lat="43.99052" lon="2.27345">
        <ele>429</ele>
        <time>2021-04-18T09:05:36Z</time>
      </trkpt>
      <trkpt lat="43.99051" lon="2.27347">
        <ele>429</ele>
        <time>2021-04-18T09:05:37Z</time>
      </trkpt>
      <trkpt lat="43.9905" lon="2.27348">
        <ele>429</ele>
        <time>2021-04-18T09:05:38Z</time>
      </trkpt>
      <trkpt lat="43.99049" lon="2.27349">
        <ele>429</ele>
        <time>2021-04-18T09:05:39Z</time>
      </trkpt>
      <trkpt lat="43.99048" lon="2.2735">
        <ele>429</ele>
        <time>2021-04-18T09:05:40Z</time>
      </trkpt>
      <trkpt lat="43.99046" lon="2.27351">
        <ele>429</ele>
        <time>2021-04-18T09:05:41Z</time>
      </trkpt>
      <trkpt lat="43.99045" lon="2.27352">
        <ele>429</ele>
        <time>2021-04-18T09:05:42Z</time>
      </trkpt>
      <trkpt lat="43.99045" lon="2.27353">
        <ele>429</ele>
        <time>2021-04-18T09:05:43Z</time>
      </trkpt>
      <trkpt lat="43.99044" lon="2.27355">
        <ele>430</ele>
        <time>2021-04-18T09:05:44Z</time>
      </trkpt>
      <trkpt lat="43.99043" lon="2.27357">
        <ele>430</ele>
        <time>2021-04-18T09:05:45Z</time>
      </trkpt>
      <trkpt lat="43.99043" lon="2.27359">
        <ele>430</ele>
        <time>2021-04-18T09:05:46Z</time>
      </trkpt>
      <trkpt lat="43.99041" lon="2.27361">
        <ele>430</ele>
        <time>2021-04-18T09:05:47Z</time>
      </trkpt>
      <trkpt lat="43.99041" lon="2.27363">
        <ele>430</ele>
        <time>2021-04-18T09:05:48Z</time>
      </trkpt>
      <trkpt lat="43.9904" lon="2.27365">
        <ele>429</ele>
        <time>2021-04-18T09:05:49Z</time>
      </trkpt>
      <trkpt lat="43.99039" lon="2.27366">
        <ele>428</ele>
        <time>2021-04-18T09:05:50Z</time>
      </trkpt>
      <trkpt lat="43.99038" lon="2.27368">
        <ele>428</ele>
        <time>2021-04-18T09:05:51Z</time>
      </trkpt>
      <trkpt lat="43.99037" lon="2.2737">
        <ele>429</ele>
        <time>2021-04-18T09:05:52Z</time>
      </trkpt>
      <trkpt lat="43.99036" lon="2.27372">
        <ele>429</ele>
        <time>2021-04-18T09:05:53Z</time>
      </trkpt>
      <trkpt lat="43.99035" lon="2.27374">
        <ele>429</ele>
        <time>2021-04-18T09:05:54Z</time>
      </trkpt>
      <trkpt lat="43.99034" lon="2.27375">
        <ele>429</ele>
        <time>2021-04-18T09:05:55Z</time>
      </trkpt>
      <trkpt lat="43.99033" lon="2.27377">
        <ele>429</ele>
        <time>2021-04-18T09:05:56Z</time>
      </trkpt>
      <trkpt lat="43.99032" lon="2.27379">
        <ele>429</ele>
        <time>2021-04-18T09:05:57Z</time>
      </trkpt>
      <trkpt lat="43.99031" lon="2.27381">
        <ele>429</ele>
        <time>2021-04-18T09:05:58Z</time>
      </trkpt>
      <trkpt lat="43.99031" lon="2.27382">
        <ele>430</ele>
        <time>2021-04-18T09:05:59Z</time>
      </trkpt>
      <trkpt lat="43.9903" lon="2.27384">
        <ele>431</ele>
        <time>2021-04-18T09:06:00Z</time>
      </trkpt>
      <trkpt lat="43.9903" lon="2.27386">
        <ele>430</ele>
        <time>2021-04-18T09:06:01Z</time>
      </trkpt>
      <trkpt lat="43.99029" lon="2.27387">
        <ele>430</ele>
        <time>2021-04-18T09:06:02Z</time>
      </trkpt>
      <trkpt lat="43.99029" lon="2.27389">
        <ele>429</ele>
        <time>2021-04-18T09:06:03Z</time>
      </trkpt>
      <trkpt lat="43.99028" lon="2.27391">
        <ele>429</ele>
        <time>2021-04-18T09:06:04Z</time>
      </trkpt>
      <trkpt lat="43.99027" lon="2.27393">
        <ele>429</ele>
        <time>2021-04-18T09:06:05Z</time>
      </trkpt>
      <trkpt lat="43.99027" lon="2.27395">
        <ele>429</ele>
        <time>2021-04-18T09:06:06Z</time>
      </trkpt>
      <trkpt lat="43.99026" lon="2.27397">
        <ele>429</ele>
        <time>2021-04-18T09:06:07Z</time>
      </trkpt>
      <trkpt lat="43.99025" lon="2.27399">
        <ele>429</ele>
        <time>2021-04-18T09:06:08Z</time>
      </trkpt>
      <trkpt lat="43.99024" lon="2.27401">
        <ele>429</ele>
        <time>2021-04-18T09:06:09Z</time>
      </trkpt>
      <trkpt lat="43.99023" lon="2.27402">
        <ele>429</ele>
        <time>2021-04-18T09:06:10Z</time>
      </trkpt>
      <trkpt lat="43.99023" lon="2.27404">
        <ele>430</ele>
        <time>2021-04-18T09:06:11Z</time>
      </trkpt>
      <trkpt lat="43.99022" lon="2.27406">
        <ele>430</ele>
        <time>2021-04-18T09:06:12Z</time>
      </trkpt>
      <trkpt lat="43.99022" lon="2.27408">
        <ele>430</ele>
        <time>2021-04-18T09:06:13Z</time>
      </trkpt>
      <trkpt lat="43.99021" lon="2.2741">
        <ele>430</ele>
        <time>2021-04-18T09:06:14Z</time>
      </trkpt>
      <trkpt lat="43.9902" lon="2.27411">
        <ele>429</ele>
        <time>2021-04-18T09:06:15Z</time>
      </trkpt>
      <trkpt lat="43.99019" lon="2.27412">
        <ele>429</ele>
        <time>2021-04-18T09:06:16Z</time>
      </trkpt>
      <trkpt lat="43.99019" lon="2.27414">
        <ele>429</ele>
        <time>2021-04-18T09:06:17Z</time>
      </trkpt>
      <trkpt lat="43.99019" lon="2.27417">
        <ele>429</ele>
        <time>2021-04-18T09:06:18Z</time>
      </trkpt>
      <trkpt lat="43.99018" lon="2.27419">
        <ele>430</ele>
        <time>2021-04-18T09:06:19Z</time>
      </trkpt>
      <trkpt lat="43.99016" lon="2.27425">
        <ele>430</ele>
        <time>2021-04-18T09:06:21Z</time>
      </trkpt>
      <trkpt lat="43.99015" lon="2.27427">
        <ele>430</ele>
        <time>2021-04-18T09:06:22Z</time>
      </trkpt>
      <trkpt lat="43.99015" lon="2.27429">
        <ele>430</ele>
        <time>2021-04-18T09:06:23Z</time>
      </trkpt>
      <trkpt lat="43.99014" lon="2.27431">
        <ele>429</ele>
        <time>2021-04-18T09:06:24Z</time>
      </trkpt>
      <trkpt lat="43.99013" lon="2.27433">
        <ele>429</ele>
        <time>2021-04-18T09:06:25Z</time>
      </trkpt>
      <trkpt lat="43.99012" lon="2.27435">
        <ele>429</ele>
        <time>2021-04-18T09:06:26Z</time>
      </trkpt>
      <trkpt lat="43.99012" lon="2.27437">
        <ele>430</ele>
        <time>2021-04-18T09:06:27Z</time>
      </trkpt>
      <trkpt lat="43.99011" lon="2.27439">
        <ele>429</ele>
        <time>2021-04-18T09:06:28Z</time>
      </trkpt>
      <trkpt lat="43.99011" lon="2.27442">
        <ele>430</ele>
        <time>2021-04-18T09:06:29Z</time>
      </trkpt>
      <trkpt lat="43.9901" lon="2.27444">
        <ele>430</ele>
        <time>2021-04-18T09:06:30Z</time>
      </trkpt>
      <trkpt lat="43.99009" lon="2.27446">
        <ele>430</ele>
        <time>2021-04-18T09:06:31Z</time>
      </trkpt>
      <trkpt lat="43.99008" lon="2.27448">
        <ele>429</ele>
        <time>2021-04-18T09:06:32Z</time>
      </trkpt>
      <trkpt lat="43.99008" lon="2.2745">
        <ele>429</ele>
        <time>2021-04-18T09:06:33Z</time>
      </trkpt>
      <trkpt lat="43.99007" lon="2.27452">
        <ele>429</ele>
        <time>2021-04-18T09:06:34Z</time>
      </trkpt>
      <trkpt lat="43.99007" lon="2.27454">
        <ele>429</ele>
        <time>2021-04-18T09:06:35Z</time>
      </trkpt>
      <trkpt lat="43.99006" lon="2.27456">
        <ele>429</ele>
        <time>2021-04-18T09:06:36Z</time>
      </trkpt>
      <trkpt lat="43.99006" lon="2.27459">
        <ele>429</ele>
        <time>2021-04-18T09:06:37Z</time>
      </trkpt>
      <trkpt lat="43.99006" lon="2.27461">
        <ele>428</ele>
        <time>2021-04-18T09:06:38Z</time>
      </trkpt>
      <trkpt lat="43.99005" lon="2.27463">
        <ele>428</ele>
        <time>2021-04-18T09:06:39Z</time>
      </trkpt>
      <trkpt lat="43.99005" lon="2.27465">
        <ele>428</ele>
        <time>2021-04-18T09:06:40Z</time>
      </trkpt>
      <trkpt lat="43.99005" lon="2.27467">
        <ele>428</ele>
        <time>2021-04-18T09:06:41Z</time>
      </trkpt>
      <trkpt lat="43.99004" lon="2.2747">
        <ele>428</ele>
        <time>2021-04-18T09:06:42Z</time>
      </trkpt>
      <trkpt lat="43.99004" lon="2.27472">
        <ele>427</ele>
        <time>2021-04-18T09:06:43Z</time>
      </trkpt>
      <trkpt lat="43.99004" lon="2.27474">
        <ele>427</ele>
        <time>2021-04-18T09:06:44Z</time>
      </trkpt>
      <trkpt lat="43.99003" lon="2.27476">
        <ele>427</ele>
        <time>2021-04-18T09:06:45Z</time>
      </trkpt>
      <trkpt lat="43.99003" lon="2.27479">
        <ele>427</ele>
        <time>2021-04-18T09:06:46Z</time>
      </trkpt>
      <trkpt lat="43.99002" lon="2.27481">
        <ele>427</ele>
        <time>2021-04-18T09:06:47Z</time>
      </trkpt>
      <trkpt lat="43.99001" lon="2.27483">
        <ele>427</ele>
        <time>2021-04-18T09:06:48Z</time>
      </trkpt>
      <trkpt lat="43.99001" lon="2.27485">
        <ele>427</ele>
        <time>2021-04-18T09:06:49Z</time>
      </trkpt>
      <trkpt lat="43.99" lon="2.27488">
        <ele>427</ele>
        <time>2021-04-18T09:06:50Z</time>
      </trkpt>
      <trkpt lat="43.99" lon="2.2749">
        <ele>427</ele>
        <time>2021-04-18T09:06:51Z</time>
      </trkpt>
      <trkpt lat="43.99" lon="2.27492">
        <ele>428</ele>
        <time>2021-04-18T09:06:52Z</time>
      </trkpt>
      <trkpt lat="43.98999" lon="2.27495">
        <ele>428</ele>
        <time>2021-04-18T09:06:53Z</time>
      </trkpt>
      <trkpt lat="43.98999" lon="2.27497">
        <ele>428</ele>
        <time>2021-04-18T09:06:54Z</time>
      </trkpt>
      <trkpt lat="43.98999" lon="2.275">
        <ele>428</ele>
        <time>2021-04-18T09:06:55Z</time>
      </trkpt>
      <trkpt lat="43.98999" lon="2.27502">
        <ele>428</ele>
        <time>2021-04-18T09:06:56Z</time>
      </trkpt>
      <trkpt lat="43.98999" lon="2.27504">
        <ele>427</ele>
        <time>2021-04-18T09:06:57Z</time>
      </trkpt>
      <trkpt lat="43.98998" lon="2.27506">
        <ele>427</ele>
        <time>2021-04-18T09:06:58Z</time>
      </trkpt>
      <trkpt lat="43.98998" lon="2.27508">
        <ele>427</ele>
        <time>2021-04-18T09:06:59Z</time>
      </trkpt>
      <trkpt lat="43.98998" lon="2.2751">
        <ele>427</ele>
        <time>2021-04-18T09:07:00Z</time>
      </trkpt>
      <trkpt lat="43.98997" lon="2.27512">
        <ele>427</ele>
        <time>2021-04-18T09:07:01Z</time>
      </trkpt>
      <trkpt lat="43.98997" lon="2.27514">
        <ele>428</ele>
        <time>2021-04-18T09:07:02Z</time>
      </trkpt>
      <trkpt lat="43.98997" lon="2.27516">
        <ele>428</ele>
        <time>2021-04-18T09:07:03Z</time>
      </trkpt>
      <trkpt lat="43.98996" lon="2.27518">
        <ele>429</ele>
        <time>2021-04-18T09:07:04Z</time>
      </trkpt>
      <trkpt lat="43.98996" lon="2.27521">
        <ele>429</ele>
        <time>2021-04-18T09:07:05Z</time>
      </trkpt>
      <trkpt lat="43.98996" lon="2.27523">
        <ele>429</ele>
        <time>2021-04-18T09:07:06Z</time>
      </trkpt>
      <trkpt lat="43.98995" lon="2.27525">
        <ele>429</ele>
        <time>2021-04-18T09:07:07Z</time>
      </trkpt>
      <trkpt lat="43.98994" lon="2.27528">
        <ele>429</ele>
        <time>2021-04-18T09:07:08Z</time>
      </trkpt>
      <trkpt lat="43.98994" lon="2.2753">
        <ele>429</ele>
        <time>2021-04-18T09:07:09Z</time>
      </trkpt>
      <trkpt lat="43.98994" lon="2.27532">
        <ele>429</ele>
        <time>2021-04-18T09:07:10Z</time>
      </trkpt>
      <trkpt lat="43.98993" lon="2.27534">
        <ele>428</ele>
        <time>2021-04-18T09:07:11Z</time>
      </trkpt>
      <trkpt lat="43.98992" lon="2.27536">
        <ele>429</ele>
        <time>2021-04-18T09:07:12Z</time>
      </trkpt>
      <trkpt lat="43.98991" lon="2.27539">
        <ele>429</ele>
        <time>2021-04-18T09:07:13Z</time>
      </trkpt>
      <trkpt lat="43.98991" lon="2.2754">
        <ele>429</ele>
        <time>2021-04-18T09:07:14Z</time>
      </trkpt>
      <trkpt lat="43.9899" lon="2.27542">
        <ele>428</ele>
        <time>2021-04-18T09:07:15Z</time>
      </trkpt>
      <trkpt lat="43.9899" lon="2.27544">
        <ele>428</ele>
        <time>2021-04-18T09:07:16Z</time>
      </trkpt>
      <trkpt lat="43.98989" lon="2.27546">
        <ele>427</ele>
        <time>2021-04-18T09:07:17Z</time>
      </trkpt>
      <trkpt lat="43.98989" lon="2.27548">
        <ele>427</ele>
        <time>2021-04-18T09:07:18Z</time>
      </trkpt>
      <trkpt lat="43.98988" lon="2.2755">
        <ele>427</ele>
        <time>2021-04-18T09:07:19Z</time>
      </trkpt>
      <trkpt lat="43.98988" lon="2.27552">
        <ele>426</ele>
        <time>2021-04-18T09:07:20Z</time>
      </trkpt>
      <trkpt lat="43.98988" lon="2.27554">
        <ele>426</ele>
        <time>2021-04-18T09:07:21Z</time>
      </trkpt>
      <trkpt lat="43.98987" lon="2.27556">
        <ele>426</ele>
        <time>2021-04-18T09:07:22Z</time>
      </trkpt>
      <trkpt lat="43.98987" lon="2.27558">
        <ele>427</ele>
        <time>2021-04-18T09:07:23Z</time>
      </trkpt>
      <trkpt lat="43.98986" lon="2.27561">
        <ele>427</ele>
        <time>2021-04-18T09:07:24Z</time>
      </trkpt>
      <trkpt lat="43.98986" lon="2.27563">
        <ele>427</ele>
        <time>2021-04-18T09:07:25Z</time>
      </trkpt>
      <trkpt lat="43.98985" lon="2.27566">
        <ele>427</ele>
        <time>2021-04-18T09:07:26Z</time>
      </trkpt>
      <trkpt lat="43.98985" lon="2.27568">
        <ele>426</ele>
        <time>2021-04-18T09:07:27Z</time>
      </trkpt>
      <trkpt lat="43.98985" lon="2.2757">
        <ele>426</ele>
        <time>2021-04-18T09:07:28Z</time>
      </trkpt>
      <trkpt lat="43.98984" lon="2.27573">
        <ele>426</ele>
        <time>2021-04-18T09:07:29Z</time>
      </trkpt>
      <trkpt lat="43.98983" lon="2.27575">
        <ele>427</ele>
        <time>2021-04-18T09:07:30Z</time>
      </trkpt>
      <trkpt lat="43.98983" lon="2.27577">
        <ele>426</ele>
        <time>2021-04-18T09:07:31Z</time>
      </trkpt>
      <trkpt lat="43.98982" lon="2.27579">
        <ele>426</ele>
        <time>2021-04-18T09:07:32Z</time>
      </trkpt>
      <trkpt lat="43.98982" lon="2.27581">
        <ele>426</ele>
        <time>2021-04-18T09:07:33Z</time>
      </trkpt>
      <trkpt lat="43.98981" lon="2.27583">
        <ele>426</ele>
        <time>2021-04-18T09:07:34Z</time>
      </trkpt>
      <trkpt lat="43.9898" lon="2.27585">
        <ele>426</ele>
        <time>2021-04-18T09:07:35Z</time>
      </trkpt>
      <trkpt lat="43.9898" lon="2.27587">
        <ele>426</ele>
        <time>2021-04-18T09:07:36Z</time>
      </trkpt>
      <trkpt lat="43.98979" lon="2.27589">
        <ele>426</ele>
        <time>2021-04-18T09:07:37Z</time>
      </trkpt>
      <trkpt lat="43.98978" lon="2.27591">
        <ele>426</ele>
        <time>2021-04-18T09:07:38Z</time>
      </trkpt>
      <trkpt lat="43.98977" lon="2.27593">
        <ele>426</ele>
        <time>2021-04-18T09:07:39Z</time>
      </trkpt>
      <trkpt lat="43.98977" lon="2.27595">
        <ele>426</ele>
        <time>2021-04-18T09:07:40Z</time>
      </trkpt>
      <trkpt lat="43.98976" lon="2.27597">
        <ele>427</ele>
        <time>2021-04-18T09:07:41Z</time>
      </trkpt>
      <trkpt lat="43.98975" lon="2.276">
        <ele>427</ele>
        <time>2021-04-18T09:07:42Z</time>
      </trkpt>
      <trkpt lat="43.98975" lon="2.27602">
        <ele>427</ele>
        <time>2021-04-18T09:07:43Z</time>
      </trkpt>
      <trkpt lat="43.98974" lon="2.27604">
        <ele>426</ele>
        <time>2021-04-18T09:07:44Z</time>
      </trkpt>
      <trkpt lat="43.98973" lon="2.27606">
        <ele>426</ele>
        <time>2021-04-18T09:07:45Z</time>
      </trkpt>
      <trkpt lat="43.98972" lon="2.27608">
        <ele>426</ele>
        <time>2021-04-18T09:07:46Z</time>
      </trkpt>
      <trkpt lat="43.98971" lon="2.2761">
        <ele>426</ele>
        <time>2021-04-18T09:07:47Z</time>
      </trkpt>
      <trkpt lat="43.9897" lon="2.27612">
        <ele>427</ele>
        <time>2021-04-18T09:07:48Z</time>
      </trkpt>
      <trkpt lat="43.9897" lon="2.27614">
        <ele>427</ele>
        <time>2021-04-18T09:07:49Z</time>
      </trkpt>
      <trkpt lat="43.98969" lon="2.27615">
        <ele>427</ele>
        <time>2021-04-18T09:07:50Z</time>
      </trkpt>
      <trkpt lat="43.98968" lon="2.27617">
        <ele>427</ele>
        <time>2021-04-18T09:07:51Z</time>
      </trkpt>
      <trkpt lat="43.98968" lon="2.27619">
        <ele>427</ele>
        <time>2021-04-18T09:07:52Z</time>
      </trkpt>
      <trkpt lat="43.98967" lon="2.27621">
        <ele>427</ele>
        <time>2021-04-18T09:07:53Z</time>
      </trkpt>
      <trkpt lat="43.98966" lon="2.27623">
        <ele>427</ele>
        <time>2021-04-18T09:07:54Z</time>
      </trkpt>
      <trkpt lat="43.98965" lon="2.27625">
        <ele>427</ele>
        <time>2021-04-18T09:07:55Z</time>
      </trkpt>
      <trkpt lat="43.98964" lon="2.27627">
        <ele>427</ele>
        <time>2021-04-18T09:07:56Z</time>
      </trkpt>
      <trkpt lat="43.98963" lon="2.27629">
        <ele>428</ele>
        <time>2021-04-18T09:07:57Z</time>
      </trkpt>
      <trkpt lat="43.98962" lon="2.27632">
        <ele>428</ele>
        <time>2021-04-18T09:07:58Z</time>
      </trkpt>
      <trkpt lat="43.98961" lon="2.27634">
        <ele>427</ele>
        <time>2021-04-18T09:07:59Z</time>
      </trkpt>
      <trkpt lat="43.98961" lon="2.27636">
        <ele>427</ele>
        <time>2021-04-18T09:08:00Z</time>
      </trkpt>
      <trkpt lat="43.98959" lon="2.27638">
        <ele>428</ele>
        <time>2021-04-18T09:08:01Z</time>
      </trkpt>
      <trkpt lat="43.98958" lon="2.2764">
        <ele>428</ele>
        <time>2021-04-18T09:08:02Z</time>
      </trkpt>
      <trkpt lat="43.98957" lon="2.27643">
        <ele>428</ele>
        <time>2021-04-18T09:08:03Z</time>
      </trkpt>
      <trkpt lat="43.98956" lon="2.27645">
        <ele>428</ele>
        <time>2021-04-18T09:08:04Z</time>
      </trkpt>
      <trkpt lat="43.98956" lon="2.27647">
        <ele>428</ele>
        <time>2021-04-18T09:08:05Z</time>
      </trkpt>
      <trkpt lat="43.98955" lon="2.27649">
        <ele>427</ele>
        <time>2021-04-18T09:08:06Z</time>
      </trkpt>
      <trkpt lat="43.98955" lon="2.27651">
        <ele>427</ele>
        <time>2021-04-18T09:08:07Z</time>
      </trkpt>
      <trkpt lat="43.98954" lon="2.27653">
        <ele>428</ele>
        <time>2021-04-18T09:08:08Z</time>
      </trkpt>
      <trkpt lat="43.98953" lon="2.27655">
        <ele>428</ele>
        <time>2021-04-18T09:08:09Z</time>
      </trkpt>
      <trkpt lat="43.98953" lon="2.27657">
        <ele>428</ele>
        <time>2021-04-18T09:08:10Z</time>
      </trkpt>
      <trkpt lat="43.98952" lon="2.27659">
        <ele>429</ele>
        <time>2021-04-18T09:08:11Z</time>
      </trkpt>
      <trkpt lat="43.98952" lon="2.27661">
        <ele>429</ele>
        <time>2021-04-18T09:08:12Z</time>
      </trkpt>
      <trkpt lat="43.98951" lon="2.27663">
        <ele>428</ele>
        <time>2021-04-18T09:08:13Z</time>
      </trkpt>
      <trkpt lat="43.98951" lon="2.27664">
        <ele>428</ele>
        <time>2021-04-18T09:08:14Z</time>
      </trkpt>
      <trkpt lat="43.9895" lon="2.27666">
        <ele>428</ele>
        <time>2021-04-18T09:08:15Z</time>
      </trkpt>
      <trkpt lat="43.9895" lon="2.27668">
        <ele>428</ele>
        <time>2021-04-18T09:08:16Z</time>
      </trkpt>
      <trkpt lat="43.9895" lon="2.2767">
        <ele>428</ele>
        <time>2021-04-18T09:08:17Z</time>
      </trkpt>
      <trkpt lat="43.9895" lon="2.27672">
        <ele>427</ele>
        <time>2021-04-18T09:08:18Z</time>
      </trkpt>
      <trkpt lat="43.98949" lon="2.27673">
        <ele>427</ele>
        <time>2021-04-18T09:08:19Z</time>
      </trkpt>
      <trkpt lat="43.98949" lon="2.27675">
        <ele>428</ele>
        <time>2021-04-18T09:08:20Z</time>
      </trkpt>
      <trkpt lat="43.98949" lon="2.27677">
        <ele>428</ele>
        <time>2021-04-18T09:08:21Z</time>
      </trkpt>
      <trkpt lat="43.98948" lon="2.2768">
        <ele>427</ele>
        <time>2021-04-18T09:08:22Z</time>
      </trkpt>
      <trkpt lat="43.98947" lon="2.27682">
        <ele>427</ele>
        <time>2021-04-18T09:08:23Z</time>
      </trkpt>
      <trkpt lat="43.98946" lon="2.27685">
        <ele>427</ele>
        <time>2021-04-18T09:08:24Z</time>
      </trkpt>
      <trkpt lat="43.98945" lon="2.27687">
        <ele>427</ele>
        <time>2021-04-18T09:08:25Z</time>
      </trkpt>
      <trkpt lat="43.98945" lon="2.27689">
        <ele>426</ele>
        <time>2021-04-18T09:08:26Z</time>
      </trkpt>
      <trkpt lat="43.98944" lon="2.27691">
        <ele>426</ele>
        <time>2021-04-18T09:08:27Z</time>
      </trkpt>
      <trkpt lat="43.98943" lon="2.27694">
        <ele>426</ele>
        <time>2021-04-18T09:08:28Z</time>
      </trkpt>
      <trkpt lat="43.98942" lon="2.27696">
        <ele>426</ele>
        <time>2021-04-18T09:08:29Z</time>
      </trkpt>
      <trkpt lat="43.98941" lon="2.27698">
        <ele>425</ele>
        <time>2021-04-18T09:08:30Z</time>
      </trkpt>
      <trkpt lat="43.9894" lon="2.277">
        <ele>426</ele>
        <time>2021-04-18T09:08:31Z</time>
      </trkpt>
      <trkpt lat="43.9894" lon="2.27702">
        <ele>426</ele>
        <time>2021-04-18T09:08:32Z</time>
      </trkpt>
      <trkpt lat="43.98939" lon="2.27705">
        <ele>427</ele>
        <time>2021-04-18T09:08:33Z</time>
      </trkpt>
      <trkpt lat="43.98938" lon="2.27707">
        <ele>427</ele>
        <time>2021-04-18T09:08:34Z</time>
      </trkpt>
      <trkpt lat="43.98937" lon="2.27709">
        <ele>427</ele>
        <time>2021-04-18T09:08:35Z</time>
      </trkpt>
      <trkpt lat="43.98935" lon="2.27711">
        <ele>427</ele>
        <time>2021-04-18T09:08:36Z</time>
      </trkpt>
      <trkpt lat="43.98935" lon="2.27713">
        <ele>426</ele>
        <time>2021-04-18T09:08:37Z</time>
      </trkpt>
      <trkpt lat="43.98935" lon="2.27715">
        <ele>426</ele>
        <time>2021-04-18T09:08:38Z</time>
      </trkpt>
      <trkpt lat="43.98934" lon="2.27717">
        <ele>426</ele>
        <time>2021-04-18T09:08:39Z</time>
      </trkpt>
      <trkpt lat="43.98934" lon="2.27719">
        <ele>425</ele>
        <time>2021-04-18T09:08:40Z</time>
      </trkpt>
      <trkpt lat="43.98933" lon="2.27721">
        <ele>425</ele>
        <time>2021-04-18T09:08:41Z</time>
      </trkpt>
      <trkpt lat="43.98932" lon="2.27723">
        <ele>425</ele>
        <time>2021-04-18T09:08:42Z</time>
      </trkpt>
      <trkpt lat="43.98932" lon="2.27725">
        <ele>425</ele>
        <time>2021-04-18T09:08:43Z</time>
      </trkpt>
      <trkpt lat="43.98931" lon="2.27727">
        <ele>425</ele>
        <time>2021-04-18T09:08:44Z</time>
      </trkpt>
      <trkpt lat="43.98931" lon="2.27729">
        <ele>426</ele>
        <time>2021-04-18T09:08:45Z</time>
      </trkpt>
      <trkpt lat="43.9893" lon="2.27731">
        <ele>425</ele>
        <time>2021-04-18T09:08:46Z</time>
      </trkpt>
      <trkpt lat="43.98929" lon="2.27733">
        <ele>425</ele>
        <time>2021-04-18T09:08:47Z</time>
      </trkpt>
      <trkpt lat="43.98929" lon="2.27735">
        <ele>425</ele>
        <time>2021-04-18T09:08:48Z</time>
      </trkpt>
      <trkpt lat="43.98929" lon="2.27737">
        <ele>425</ele>
        <time>2021-04-18T09:08:49Z</time>
      </trkpt>
      <trkpt lat="43.98928" lon="2.27739">
        <ele>424</ele>
        <time>2021-04-18T09:08:50Z</time>
      </trkpt>
      <trkpt lat="43.98928" lon="2.27741">
        <ele>424</ele>
        <time>2021-04-18T09:08:51Z</time>
      </trkpt>
      <trkpt lat="43.98927" lon="2.27744">
        <ele>424</ele>
        <time>2021-04-18T09:08:52Z</time>
      </trkpt>
      <trkpt lat="43.98927" lon="2.27746">
        <ele>425</ele>
        <time>2021-04-18T09:08:53Z</time>
      </trkpt>
      <trkpt lat="43.98926" lon="2.27747">
        <ele>425</ele>
        <time>2021-04-18T09:08:54Z</time>
      </trkpt>
      <trkpt lat="43.98926" lon="2.27749">
        <ele>425</ele>
        <time>2021-04-18T09:08:55Z</time>
      </trkpt>
      <trkpt lat="43.98925" lon="2.27751">
        <ele>425</ele>
        <time>2021-04-18T09:08:56Z</time>
      </trkpt>
      <trkpt lat="43.98925" lon="2.27753">
        <ele>425</ele>
        <time>2021-04-18T09:08:57Z</time>
      </trkpt>
      <trkpt lat="43.98924" lon="2.27754">
        <ele>425</ele>
        <time>2021-04-18T09:08:58Z</time>
      </trkpt>
      <trkpt lat="43.98923" lon="2.27756">
        <ele>425</ele>
        <time>2021-04-18T09:08:59Z</time>
      </trkpt>
      <trkpt lat="43.98922" lon="2.27757">
        <ele>426</ele>
        <time>2021-04-18T09:09:00Z</time>
      </trkpt>
      <trkpt lat="43.9892" lon="2.27758">
        <ele>426</ele>
        <time>2021-04-18T09:09:01Z</time>
      </trkpt>
      <trkpt lat="43.98919" lon="2.27759">
        <ele>426</ele>
        <time>2021-04-18T09:09:02Z</time>
      </trkpt>
      <trkpt lat="43.98919" lon="2.2776">
        <ele>426</ele>
        <time>2021-04-18T09:09:03Z</time>
      </trkpt>
      <trkpt lat="43.98917" lon="2.27761">
        <ele>427</ele>
        <time>2021-04-18T09:09:04Z</time>
      </trkpt>
      <trkpt lat="43.98916" lon="2.27762">
        <ele>427</ele>
        <time>2021-04-18T09:09:05Z</time>
      </trkpt>
      <trkpt lat="43.98915" lon="2.27763">
        <ele>427</ele>
        <time>2021-04-18T09:09:06Z</time>
      </trkpt>
      <trkpt lat="43.98914" lon="2.27764">
        <ele>427</ele>
        <time>2021-04-18T09:09:07Z</time>
      </trkpt>
      <trkpt lat="43.98912" lon="2.27766">
        <ele>427</ele>
        <time>2021-04-18T09:09:08Z</time>
      </trkpt>
      <trkpt lat="43.98911" lon="2.27767">
        <ele>428</ele>
        <time>2021-04-18T09:09:09Z</time>
      </trkpt>
      <trkpt lat="43.98909" lon="2.27768">
        <ele>428</ele>
        <time>2021-04-18T09:09:10Z</time>
      </trkpt>
      <trkpt lat="43.98908" lon="2.27769">
        <ele>428</ele>
        <time>2021-04-18T09:09:11Z</time>
      </trkpt>
      <trkpt lat="43.98907" lon="2.27769">
        <ele>428</ele>
        <time>2021-04-18T09:09:12Z</time>
      </trkpt>
      <trkpt lat="43.98906" lon="2.2777">
        <ele>428</ele>
        <time>2021-04-18T09:09:13Z</time>
      </trkpt>
      <trkpt lat="43.98904" lon="2.2777">
        <ele>429</ele>
        <time>2021-04-18T09:09:14Z</time>
      </trkpt>
      <trkpt lat="43.98903" lon="2.27771">
        <ele>429</ele>
        <time>2021-04-18T09:09:15Z</time>
      </trkpt>
      <trkpt lat="43.98901" lon="2.27772">
        <ele>429</ele>
        <time>2021-04-18T09:09:16Z</time>
      </trkpt>
      <trkpt lat="43.989" lon="2.27773">
        <ele>429</ele>
        <time>2021-04-18T09:09:17Z</time>
      </trkpt>
      <trkpt lat="43.98899" lon="2.27774">
        <ele>429</ele>
        <time>2021-04-18T09:09:18Z</time>
      </trkpt>
      <trkpt lat="43.98897" lon="2.27775">
        <ele>428</ele>
        <time>2021-04-18T09:09:19Z</time>
      </trkpt>
      <trkpt lat="43.98896" lon="2.27777">
        <ele>428</ele>
        <time>2021-04-18T09:09:20Z</time>
      </trkpt>
      <trkpt lat="43.98894" lon="2.27778">
        <ele>428</ele>
        <time>2021-04-18T09:09:21Z</time>
      </trkpt>
      <trkpt lat="43.98893" lon="2.2778">
        <ele>428</ele>
        <time>2021-04-18T09:09:22Z</time>
      </trkpt>
      <trkpt lat="43.98891" lon="2.27781">
        <ele>428</ele>
        <time>2021-04-18T09:09:23Z</time>
      </trkpt>
      <trkpt lat="43.9889" lon="2.27783">
        <ele>428</ele>
        <time>2021-04-18T09:09:24Z</time>
      </trkpt>
      <trkpt lat="43.98888" lon="2.27784">
        <ele>428</ele>
        <time>2021-04-18T09:09:25Z</time>
      </trkpt>
      <trkpt lat="43.98887" lon="2.27784">
        <ele>428</ele>
        <time>2021-04-18T09:09:26Z</time>
      </trkpt>
      <trkpt lat="43.98885" lon="2.27785">
        <ele>428</ele>
        <time>2021-04-18T09:09:27Z</time>
      </trkpt>
      <trkpt lat="43.98884" lon="2.27786">
        <ele>428</ele>
        <time>2021-04-18T09:09:28Z</time>
      </trkpt>
      <trkpt lat="43.98883" lon="2.27788">
        <ele>428</ele>
        <time>2021-04-18T09:09:29Z</time>
      </trkpt>
      <trkpt lat="43.98881" lon="2.27789">
        <ele>429</ele>
        <time>2021-04-18T09:09:30Z</time>
      </trkpt>
      <trkpt lat="43.9888" lon="2.2779">
        <ele>429</ele>
        <time>2021-04-18T09:09:31Z</time>
      </trkpt>
      <trkpt lat="43.98879" lon="2.27791">
        <ele>429</ele>
        <time>2021-04-18T09:09:32Z</time>
      </trkpt>
      <trkpt lat="43.98878" lon="2.27793">
        <ele>430</ele>
        <time>2021-04-18T09:09:33Z</time>
      </trkpt>
      <trkpt lat="43.98877" lon="2.27795">
        <ele>430</ele>
        <time>2021-04-18T09:09:34Z</time>
      </trkpt>
      <trkpt lat="43.98875" lon="2.27796">
        <ele>430</ele>
        <time>2021-04-18T09:09:35Z</time>
      </trkpt>
      <trkpt lat="43.98875" lon="2.27798">
        <ele>431</ele>
        <time>2021-04-18T09:09:36Z</time>
      </trkpt>
      <trkpt lat="43.98874" lon="2.27799">
        <ele>431</ele>
        <time>2021-04-18T09:09:37Z</time>
      </trkpt>
      <trkpt lat="43.98872" lon="2.278">
        <ele>431</ele>
        <time>2021-04-18T09:09:38Z</time>
      </trkpt>
      <trkpt lat="43.98871" lon="2.278">
        <ele>431</ele>
        <time>2021-04-18T09:09:39Z</time>
      </trkpt>
      <trkpt lat="43.9887" lon="2.27801">
        <ele>430</ele>
        <time>2021-04-18T09:09:40Z</time>
      </trkpt>
      <trkpt lat="43.98869" lon="2.27802">
        <ele>430</ele>
        <time>2021-04-18T09:09:41Z</time>
      </trkpt>
      <trkpt lat="43.98867" lon="2.27803">
        <ele>431</ele>
        <time>2021-04-18T09:09:42Z</time>
      </trkpt>
      <trkpt lat="43.98866" lon="2.27804">
        <ele>432</ele>
        <time>2021-04-18T09:09:43Z</time>
      </trkpt>
      <trkpt lat="43.98865" lon="2.27804">
        <ele>432</ele>
        <time>2021-04-18T09:09:44Z</time>
      </trkpt>
      <trkpt lat="43.98864" lon="2.27805">
        <ele>432</ele>
        <time>2021-04-18T09:09:45Z</time>
      </trkpt>
      <trkpt lat="43.98863" lon="2.27806">
        <ele>432</ele>
        <time>2021-04-18T09:09:46Z</time>
      </trkpt>
      <trkpt lat="43.98862" lon="2.27807">
        <ele>431</ele>
        <time>2021-04-18T09:09:47Z</time>
      </trkpt>
      <trkpt lat="43.9886" lon="2.27808">
        <ele>431</ele>
        <time>2021-04-18T09:09:48Z</time>
      </trkpt>
      <trkpt lat="43.98859" lon="2.2781">
        <ele>431</ele>
        <time>2021-04-18T09:09:49Z</time>
      </trkpt>
      <trkpt lat="43.98858" lon="2.27811">
        <ele>431</ele>
        <time>2021-04-18T09:09:50Z</time>
      </trkpt>
      <trkpt lat="43.98857" lon="2.27812">
        <ele>432</ele>
        <time>2021-04-18T09:09:51Z</time>
      </trkpt>
      <trkpt lat="43.98855" lon="2.27812">
        <ele>432</ele>
        <time>2021-04-18T09:09:52Z</time>
      </trkpt>
      <trkpt lat="43.98853" lon="2.27813">
        <ele>432</ele>
        <time>2021-04-18T09:09:53Z</time>
      </trkpt>
      <trkpt lat="43.98852" lon="2.27814">
        <ele>432</ele>
        <time>2021-04-18T09:09:54Z</time>
      </trkpt>
      <trkpt lat="43.9885" lon="2.27815">
        <ele>433</ele>
        <time>2021-04-18T09:09:55Z</time>
      </trkpt>
      <trkpt lat="43.98849" lon="2.27816">
        <ele>433</ele>
        <time>2021-04-18T09:09:56Z</time>
      </trkpt>
      <trkpt lat="43.98848" lon="2.27818">
        <ele>433</ele>
        <time>2021-04-18T09:09:57Z</time>
      </trkpt>
      <trkpt lat="43.98847" lon="2.2782">
        <ele>433</ele>
        <time>2021-04-18T09:09:58Z</time>
      </trkpt>
      <trkpt lat="43.98845" lon="2.27821">
        <ele>433</ele>
        <time>2021-04-18T09:09:59Z</time>
      </trkpt>
      <trkpt lat="43.98844" lon="2.27823">
        <ele>433</ele>
        <time>2021-04-18T09:10:00Z</time>
      </trkpt>
      <trkpt lat="43.98843" lon="2.27824">
        <ele>434</ele>
        <time>2021-04-18T09:10:01Z</time>
      </trkpt>
      <trkpt lat="43.98842" lon="2.27825">
        <ele>434</ele>
        <time>2021-04-18T09:10:02Z</time>
      </trkpt>
      <trkpt lat="43.98841" lon="2.27827">
        <ele>433</ele>
        <time>2021-04-18T09:10:03Z</time>
      </trkpt>
      <trkpt lat="43.9884" lon="2.27828">
        <ele>433</ele>
        <time>2021-04-18T09:10:04Z</time>
      </trkpt>
      <trkpt lat="43.98838" lon="2.2783">
        <ele>433</ele>
        <time>2021-04-18T09:10:05Z</time>
      </trkpt>
      <trkpt lat="43.98836" lon="2.27832">
        <ele>432</ele>
        <time>2021-04-18T09:10:06Z</time>
      </trkpt>
      <trkpt lat="43.98835" lon="2.27833">
        <ele>432</ele>
        <time>2021-04-18T09:10:07Z</time>
      </trkpt>
      <trkpt lat="43.98833" lon="2.27834">
        <ele>432</ele>
        <time>2021-04-18T09:10:08Z</time>
      </trkpt>
      <trkpt lat="43.98831" lon="2.27835">
        <ele>432</ele>
        <time>2021-04-18T09:10:09Z</time>
      </trkpt>
      <trkpt lat="43.9883" lon="2.27836">
        <ele>432</ele>
        <time>2021-04-18T09:10:10Z</time>
      </trkpt>
      <trkpt lat="43.98829" lon="2.27837">
        <ele>432</ele>
        <time>2021-04-18T09:10:11Z</time>
      </trkpt>
      <trkpt lat="43.98827" lon="2.27838">
        <ele>432</ele>
        <time>2021-04-18T09:10:12Z</time>
      </trkpt>
      <trkpt lat="43.98826" lon="2.27839">
        <ele>431</ele>
        <time>2021-04-18T09:10:13Z</time>
      </trkpt>
      <trkpt lat="43.98825" lon="2.27841">
        <ele>431</ele>
        <time>2021-04-18T09:10:14Z</time>
      </trkpt>
      <trkpt lat="43.98824" lon="2.27842">
        <ele>431</ele>
        <time>2021-04-18T09:10:15Z</time>
      </trkpt>
      <trkpt lat="43.98823" lon="2.27843">
        <ele>431</ele>
        <time>2021-04-18T09:10:16Z</time>
      </trkpt>
      <trkpt lat="43.98822" lon="2.27844">
        <ele>431</ele>
        <time>2021-04-18T09:10:17Z</time>
      </trkpt>
      <trkpt lat="43.98821" lon="2.27845">
        <ele>431</ele>
        <time>2021-04-18T09:10:18Z</time>
      </trkpt>
      <trkpt lat="43.98819" lon="2.27846">
        <ele>431</ele>
        <time>2021-04-18T09:10:19Z</time>
      </trkpt>
      <trkpt lat="43.98817" lon="2.27847">
        <ele>431</ele>
        <time>2021-04-18T09:10:20Z</time>
      </trkpt>
      <trkpt lat="43.98816" lon="2.27849">
        <ele>430</ele>
        <time>2021-04-18T09:10:21Z</time>
      </trkpt>
      <trkpt lat="43.98814" lon="2.2785">
        <ele>431</ele>
        <time>2021-04-18T09:10:22Z</time>
      </trkpt>
      <trkpt lat="43.98813" lon="2.27851">
        <ele>430</ele>
        <time>2021-04-18T09:10:23Z</time>
      </trkpt>
      <trkpt lat="43.98811" lon="2.27852">
        <ele>430</ele>
        <time>2021-04-18T09:10:24Z</time>
      </trkpt>
      <trkpt lat="43.9881" lon="2.27853">
        <ele>430</ele>
        <time>2021-04-18T09:10:25Z</time>
      </trkpt>
      <trkpt lat="43.98809" lon="2.27854">
        <ele>430</ele>
        <time>2021-04-18T09:10:26Z</time>
      </trkpt>
      <trkpt lat="43.98808" lon="2.27855">
        <ele>430</ele>
        <time>2021-04-18T09:10:27Z</time>
      </trkpt>
      <trkpt lat="43.98806" lon="2.27856">
        <ele>430</ele>
        <time>2021-04-18T09:10:28Z</time>
      </trkpt>
      <trkpt lat="43.98806" lon="2.27858">
        <ele>431</ele>
        <time>2021-04-18T09:10:29Z</time>
      </trkpt>
      <trkpt lat="43.98805" lon="2.27859">
        <ele>432</ele>
        <time>2021-04-18T09:10:30Z</time>
      </trkpt>
      <trkpt lat="43.98804" lon="2.2786">
        <ele>432</ele>
        <time>2021-04-18T09:10:31Z</time>
      </trkpt>
      <trkpt lat="43.98803" lon="2.27861">
        <ele>432</ele>
        <time>2021-04-18T09:10:32Z</time>
      </trkpt>
      <trkpt lat="43.98802" lon="2.27862">
        <ele>432</ele>
        <time>2021-04-18T09:10:33Z</time>
      </trkpt>
      <trkpt lat="43.988" lon="2.27862">
        <ele>432</ele>
        <time>2021-04-18T09:10:34Z</time>
      </trkpt>
      <trkpt lat="43.98799" lon="2.27863">
        <ele>432</ele>
        <time>2021-04-18T09:10:35Z</time>
      </trkpt>
      <trkpt lat="43.98798" lon="2.27863">
        <ele>432</ele>
        <time>2021-04-18T09:10:36Z</time>
      </trkpt>
      <trkpt lat="43.98797" lon="2.27865">
        <ele>432</ele>
        <time>2021-04-18T09:10:37Z</time>
      </trkpt>
      <trkpt lat="43.98796" lon="2.27865">
        <ele>431</ele>
        <time>2021-04-18T09:10:38Z</time>
      </trkpt>
      <trkpt lat="43.98795" lon="2.27866">
        <ele>431</ele>
        <time>2021-04-18T09:10:39Z</time>
      </trkpt>
      <trkpt lat="43.98795" lon="2.27867">
        <ele>431</ele>
        <time>2021-04-18T09:10:40Z</time>
      </trkpt>
      <trkpt lat="43.98794" lon="2.27868">
        <ele>431</ele>
        <time>2021-04-18T09:10:41Z</time>
      </trkpt>
      <trkpt lat="43.98793" lon="2.27869">
        <ele>431</ele>
        <time>2021-04-18T09:10:42Z</time>
      </trkpt>
      <trkpt lat="43.98792" lon="2.27871">
        <ele>431</ele>
        <time>2021-04-18T09:10:43Z</time>
      </trkpt>
      <trkpt lat="43.98791" lon="2.27872">
        <ele>431</ele>
        <time>2021-04-18T09:10:44Z</time>
      </trkpt>
      <trkpt lat="43.9879" lon="2.27872">
        <ele>431</ele>
        <time>2021-04-18T09:10:45Z</time>
      </trkpt>
      <trkpt lat="43.98788" lon="2.27873">
        <ele>431</ele>
        <time>2021-04-18T09:10:46Z</time>
      </trkpt>
      <trkpt lat="43.98787" lon="2.27874">
        <ele>430</ele>
        <time>2021-04-18T09:10:47Z</time>
      </trkpt>
      <trkpt lat="43.98785" lon="2.27876">
        <ele>431</ele>
        <time>2021-04-18T09:10:48Z</time>
      </trkpt>
      <trkpt lat="43.98784" lon="2.27877">
        <ele>431</ele>
        <time>2021-04-18T09:10:49Z</time>
      </trkpt>
      <trkpt lat="43.98784" lon="2.27878">
        <ele>432</ele>
        <time>2021-04-18T09:10:50Z</time>
      </trkpt>
      <trkpt lat="43.98782" lon="2.27879">
        <ele>433</ele>
        <time>2021-04-18T09:10:51Z</time>
      </trkpt>
      <trkpt lat="43.98781" lon="2.27879">
        <ele>433</ele>
        <time>2021-04-18T09:10:52Z</time>
      </trkpt>
      <trkpt lat="43.9878" lon="2.2788">
        <ele>433</ele>
        <time>2021-04-18T09:10:53Z</time>
      </trkpt>
      <trkpt lat="43.98779" lon="2.27881">
        <ele>433</ele>
        <time>2021-04-18T09:10:54Z</time>
      </trkpt>
      <trkpt lat="43.98778" lon="2.27882">
        <ele>433</ele>
        <time>2021-04-18T09:10:55Z</time>
      </trkpt>
      <trkpt lat="43.98777" lon="2.27882">
        <ele>432</ele>
        <time>2021-04-18T09:10:56Z</time>
      </trkpt>
      <trkpt lat="43.98777" lon="2.27882">
        <ele>432</ele>
        <time>2021-04-18T09:10:57Z</time>
      </trkpt>
      <trkpt lat="43.98777" lon="2.27883">
        <ele>432</ele>
        <time>2021-04-18T09:10:58Z</time>
      </trkpt>
      <trkpt lat="43.98777" lon="2.27883">
        <ele>432</ele>
        <time>2021-04-18T09:10:58Z</time>
      </trkpt>
      <trkpt lat="43.98777" lon="2.27883">
        <ele>432</ele>
        <time>2021-04-18T09:10:58Z</time>
      </trkpt>
      <trkpt lat="43.98768" lon="2.27888">
        <ele>431</ele>
        <time>2021-04-18T09:12:16Z</time>
      </trkpt>
      <trkpt lat="43.98767" lon="2.2789">
        <ele>430</ele>
        <time>2021-04-18T09:12:17Z</time>
      </trkpt>
      <trkpt lat="43.98766" lon="2.27891">
        <ele>430</ele>
        <time>2021-04-18T09:12:18Z</time>
      </trkpt>
      <trkpt lat="43.98764" lon="2.27892">
        <ele>430</ele>
        <time>2021-04-18T09:12:19Z</time>
      </trkpt>
      <trkpt lat="43.98763" lon="2.27893">
        <ele>430</ele>
        <time>2021-04-18T09:12:20Z</time>
      </trkpt>
      <trkpt lat="43.98762" lon="2.27894">
        <ele>430</ele>
        <time>2021-04-18T09:12:21Z</time>
      </trkpt>
      <trkpt lat="43.98761" lon="2.27895">
        <ele>430</ele>
        <time>2021-04-18T09:12:22Z</time>
      </trkpt>
      <trkpt lat="43.9876" lon="2.27896">
        <ele>430</ele>
        <time>2021-04-18T09:12:23Z</time>
      </trkpt>
      <trkpt lat="43.98758" lon="2.27897">
        <ele>430</ele>
        <time>2021-04-18T09:12:24Z</time>
      </trkpt>
      <trkpt lat="43.98757" lon="2.27899">
        <ele>430</ele>
        <time>2021-04-18T09:12:25Z</time>
      </trkpt>
      <trkpt lat="43.98755" lon="2.279">
        <ele>430</ele>
        <time>2021-04-18T09:12:26Z</time>
      </trkpt>
      <trkpt lat="43.98754" lon="2.27902">
        <ele>430</ele>
        <time>2021-04-18T09:12:27Z</time>
      </trkpt>
      <trkpt lat="43.98753" lon="2.27903">
        <ele>431</ele>
        <time>2021-04-18T09:12:28Z</time>
      </trkpt>
      <trkpt lat="43.98751" lon="2.27904">
        <ele>431</ele>
        <time>2021-04-18T09:12:29Z</time>
      </trkpt>
      <trkpt lat="43.9875" lon="2.27905">
        <ele>431</ele>
        <time>2021-04-18T09:12:30Z</time>
      </trkpt>
      <trkpt lat="43.98749" lon="2.27906">
        <ele>431</ele>
        <time>2021-04-18T09:12:31Z</time>
      </trkpt>
      <trkpt lat="43.98748" lon="2.27907">
        <ele>430</ele>
        <time>2021-04-18T09:12:32Z</time>
      </trkpt>
      <trkpt lat="43.98746" lon="2.27908">
        <ele>431</ele>
        <time>2021-04-18T09:12:33Z</time>
      </trkpt>
      <trkpt lat="43.98745" lon="2.27909">
        <ele>431</ele>
        <time>2021-04-18T09:12:34Z</time>
      </trkpt>
      <trkpt lat="43.98743" lon="2.27909">
        <ele>431</ele>
        <time>2021-04-18T09:12:35Z</time>
      </trkpt>
      <trkpt lat="43.98742" lon="2.2791">
        <ele>431</ele>
        <time>2021-04-18T09:12:36Z</time>
      </trkpt>
      <trkpt lat="43.98741" lon="2.27911">
        <ele>430</ele>
        <time>2021-04-18T09:12:37Z</time>
      </trkpt>
      <trkpt lat="43.98739" lon="2.27913">
        <ele>431</ele>
        <time>2021-04-18T09:12:38Z</time>
      </trkpt>
      <trkpt lat="43.98738" lon="2.27914">
        <ele>430</ele>
        <time>2021-04-18T09:12:39Z</time>
      </trkpt>
      <trkpt lat="43.98737" lon="2.27915">
        <ele>430</ele>
        <time>2021-04-18T09:12:40Z</time>
      </trkpt>
      <trkpt lat="43.98735" lon="2.27916">
        <ele>430</ele>
        <time>2021-04-18T09:12:41Z</time>
      </trkpt>
      <trkpt lat="43.98734" lon="2.27918">
        <ele>431</ele>
        <time>2021-04-18T09:12:42Z</time>
      </trkpt>
      <trkpt lat="43.98732" lon="2.27919">
        <ele>430</ele>
        <time>2021-04-18T09:12:43Z</time>
      </trkpt>
      <trkpt lat="43.98731" lon="2.2792">
        <ele>430</ele>
        <time>2021-04-18T09:12:44Z</time>
      </trkpt>
      <trkpt lat="43.9873" lon="2.27921">
        <ele>430</ele>
        <time>2021-04-18T09:12:45Z</time>
      </trkpt>
      <trkpt lat="43.98729" lon="2.27922">
        <ele>430</ele>
        <time>2021-04-18T09:12:46Z</time>
      </trkpt>
      <trkpt lat="43.98727" lon="2.27923">
        <ele>430</ele>
        <time>2021-04-18T09:12:47Z</time>
      </trkpt>
      <trkpt lat="43.98726" lon="2.27924">
        <ele>431</ele>
        <time>2021-04-18T09:12:48Z</time>
      </trkpt>
      <trkpt lat="43.98725" lon="2.27926">
        <ele>431</ele>
        <time>2021-04-18T09:12:49Z</time>
      </trkpt>
      <trkpt lat="43.98723" lon="2.27927">
        <ele>431</ele>
        <time>2021-04-18T09:12:50Z</time>
      </trkpt>
      <trkpt lat="43.98722" lon="2.27928">
        <ele>431</ele>
        <time>2021-04-18T09:12:51Z</time>
      </trkpt>
      <trkpt lat="43.9872" lon="2.2793">
        <ele>431</ele>
        <time>2021-04-18T09:12:52Z</time>
      </trkpt>
      <trkpt lat="43.98719" lon="2.27931">
        <ele>432</ele>
        <time>2021-04-18T09:12:53Z</time>
      </trkpt>
      <trkpt lat="43.98718" lon="2.27933">
        <ele>432</ele>
        <time>2021-04-18T09:12:54Z</time>
      </trkpt>
      <trkpt lat="43.98717" lon="2.27934">
        <ele>432</ele>
        <time>2021-04-18T09:12:55Z</time>
      </trkpt>
      <trkpt lat="43.98715" lon="2.27936">
        <ele>432</ele>
        <time>2021-04-18T09:12:56Z</time>
      </trkpt>
      <trkpt lat="43.98714" lon="2.27937">
        <ele>432</ele>
        <time>2021-04-18T09:12:57Z</time>
      </trkpt>
      <trkpt lat="43.98713" lon="2.27938">
        <ele>432</ele>
        <time>2021-04-18T09:12:58Z</time>
      </trkpt>
      <trkpt lat="43.98712" lon="2.27939">
        <ele>432</ele>
        <time>2021-04-18T09:12:59Z</time>
      </trkpt>
      <trkpt lat="43.98711" lon="2.2794">
        <ele>433</ele>
        <time>2021-04-18T09:13:00Z</time>
      </trkpt>
      <trkpt lat="43.98709" lon="2.27941">
        <ele>433</ele>
        <time>2021-04-18T09:13:01Z</time>
      </trkpt>
      <trkpt lat="43.98708" lon="2.27942">
        <ele>433</ele>
        <time>2021-04-18T09:13:02Z</time>
      </trkpt>
      <trkpt lat="43.98706" lon="2.27944">
        <ele>433</ele>
        <time>2021-04-18T09:13:03Z</time>
      </trkpt>
      <trkpt lat="43.98705" lon="2.27944">
        <ele>433</ele>
        <time>2021-04-18T09:13:04Z</time>
      </trkpt>
      <trkpt lat="43.98704" lon="2.27945">
        <ele>433</ele>
        <time>2021-04-18T09:13:05Z</time>
      </trkpt>
      <trkpt lat="43.98702" lon="2.27946">
        <ele>433</ele>
        <time>2021-04-18T09:13:06Z</time>
      </trkpt>
      <trkpt lat="43.98701" lon="2.27947">
        <ele>433</ele>
        <time>2021-04-18T09:13:07Z</time>
      </trkpt>
      <trkpt lat="43.987" lon="2.27948">
        <ele>433</ele>
        <time>2021-04-18T09:13:08Z</time>
      </trkpt>
      <trkpt lat="43.98698" lon="2.27949">
        <ele>433</ele>
        <time>2021-04-18T09:13:09Z</time>
      </trkpt>
      <trkpt lat="43.98697" lon="2.27951">
        <ele>434</ele>
        <time>2021-04-18T09:13:10Z</time>
      </trkpt>
      <trkpt lat="43.98695" lon="2.27951">
        <ele>434</ele>
        <time>2021-04-18T09:13:11Z</time>
      </trkpt>
      <trkpt lat="43.98694" lon="2.27952">
        <ele>435</ele>
        <time>2021-04-18T09:13:12Z</time>
      </trkpt>
      <trkpt lat="43.98693" lon="2.27953">
        <ele>435</ele>
        <time>2021-04-18T09:13:13Z</time>
      </trkpt>
      <trkpt lat="43.98691" lon="2.27954">
        <ele>435</ele>
        <time>2021-04-18T09:13:14Z</time>
      </trkpt>
      <trkpt lat="43.9869" lon="2.27955">
        <ele>434</ele>
        <time>2021-04-18T09:13:15Z</time>
      </trkpt>
      <trkpt lat="43.98689" lon="2.27955">
        <ele>434</ele>
        <time>2021-04-18T09:13:16Z</time>
      </trkpt>
      <trkpt lat="43.98688" lon="2.27956">
        <ele>435</ele>
        <time>2021-04-18T09:13:17Z</time>
      </trkpt>
      <trkpt lat="43.98687" lon="2.27957">
        <ele>435</ele>
        <time>2021-04-18T09:13:18Z</time>
      </trkpt>
      <trkpt lat="43.98686" lon="2.27959">
        <ele>435</ele>
        <time>2021-04-18T09:13:19Z</time>
      </trkpt>
      <trkpt lat="43.98684" lon="2.2796">
        <ele>435</ele>
        <time>2021-04-18T09:13:20Z</time>
      </trkpt>
      <trkpt lat="43.98682" lon="2.27961">
        <ele>435</ele>
        <time>2021-04-18T09:13:21Z</time>
      </trkpt>
      <trkpt lat="43.98681" lon="2.27962">
        <ele>435</ele>
        <time>2021-04-18T09:13:22Z</time>
      </trkpt>
      <trkpt lat="43.9868" lon="2.27964">
        <ele>436</ele>
        <time>2021-04-18T09:13:23Z</time>
      </trkpt>
      <trkpt lat="43.98678" lon="2.27965">
        <ele>436</ele>
        <time>2021-04-18T09:13:24Z</time>
      </trkpt>
      <trkpt lat="43.98677" lon="2.27967">
        <ele>435</ele>
        <time>2021-04-18T09:13:25Z</time>
      </trkpt>
      <trkpt lat="43.98676" lon="2.27968">
        <ele>435</ele>
        <time>2021-04-18T09:13:26Z</time>
      </trkpt>
      <trkpt lat="43.98674" lon="2.27968">
        <ele>436</ele>
        <time>2021-04-18T09:13:27Z</time>
      </trkpt>
      <trkpt lat="43.98673" lon="2.27969">
        <ele>436</ele>
        <time>2021-04-18T09:13:28Z</time>
      </trkpt>
      <trkpt lat="43.98672" lon="2.27971">
        <ele>436</ele>
        <time>2021-04-18T09:13:29Z</time>
      </trkpt>
      <trkpt lat="43.98671" lon="2.27972">
        <ele>437</ele>
        <time>2021-04-18T09:13:30Z</time>
      </trkpt>
      <trkpt lat="43.9867" lon="2.27974">
        <ele>437</ele>
        <time>2021-04-18T09:13:31Z</time>
      </trkpt>
      <trkpt lat="43.98668" lon="2.27975">
        <ele>437</ele>
        <time>2021-04-18T09:13:32Z</time>
      </trkpt>
      <trkpt lat="43.98666" lon="2.27976">
        <ele>437</ele>
        <time>2021-04-18T09:13:33Z</time>
      </trkpt>
      <trkpt lat="43.98665" lon="2.27977">
        <ele>437</ele>
        <time>2021-04-18T09:13:34Z</time>
      </trkpt>
      <trkpt lat="43.98664" lon="2.27978">
        <ele>438</ele>
        <time>2021-04-18T09:13:35Z</time>
      </trkpt>
      <trkpt lat="43.98662" lon="2.27979">
        <ele>437</ele>
        <time>2021-04-18T09:13:36Z</time>
      </trkpt>
      <trkpt lat="43.98661" lon="2.2798">
        <ele>438</ele>
        <time>2021-04-18T09:13:37Z</time>
      </trkpt>
      <trkpt lat="43.9866" lon="2.27981">
        <ele>438</ele>
        <time>2021-04-18T09:13:38Z</time>
      </trkpt>
      <trkpt lat="43.98658" lon="2.27982">
        <ele>437</ele>
        <time>2021-04-18T09:13:39Z</time>
      </trkpt>
      <trkpt lat="43.98657" lon="2.27983">
        <ele>438</ele>
        <time>2021-04-18T09:13:40Z</time>
      </trkpt>
      <trkpt lat="43.98655" lon="2.27984">
        <ele>438</ele>
        <time>2021-04-18T09:13:41Z</time>
      </trkpt>
      <trkpt lat="43.98654" lon="2.27985">
        <ele>438</ele>
        <time>2021-04-18T09:13:42Z</time>
      </trkpt>
      <trkpt lat="43.98652" lon="2.27986">
        <ele>438</ele>
        <time>2021-04-18T09:13:43Z</time>
      </trkpt>
      <trkpt lat="43.98651" lon="2.27986">
        <ele>438</ele>
        <time>2021-04-18T09:13:44Z</time>
      </trkpt>
      <trkpt lat="43.9865" lon="2.27987">
        <ele>438</ele>
        <time>2021-04-18T09:13:45Z</time>
      </trkpt>
      <trkpt lat="43.98649" lon="2.27988">
        <ele>437</ele>
        <time>2021-04-18T09:13:46Z</time>
      </trkpt>
      <trkpt lat="43.98648" lon="2.27989">
        <ele>438</ele>
        <time>2021-04-18T09:13:47Z</time>
      </trkpt>
      <trkpt lat="43.98646" lon="2.2799">
        <ele>438</ele>
        <time>2021-04-18T09:13:48Z</time>
      </trkpt>
      <trkpt lat="43.98645" lon="2.2799">
        <ele>438</ele>
        <time>2021-04-18T09:13:49Z</time>
      </trkpt>
      <trkpt lat="43.98644" lon="2.27991">
        <ele>438</ele>
        <time>2021-04-18T09:13:50Z</time>
      </trkpt>
      <trkpt lat="43.98642" lon="2.27991">
        <ele>438</ele>
        <time>2021-04-18T09:13:51Z</time>
      </trkpt>
      <trkpt lat="43.98641" lon="2.27993">
        <ele>439</ele>
        <time>2021-04-18T09:13:52Z</time>
      </trkpt>
      <trkpt lat="43.9864" lon="2.27993">
        <ele>438</ele>
        <time>2021-04-18T09:13:53Z</time>
      </trkpt>
      <trkpt lat="43.98639" lon="2.27994">
        <ele>438</ele>
        <time>2021-04-18T09:13:54Z</time>
      </trkpt>
      <trkpt lat="43.98637" lon="2.27995">
        <ele>438</ele>
        <time>2021-04-18T09:13:55Z</time>
      </trkpt>
      <trkpt lat="43.98636" lon="2.27996">
        <ele>439</ele>
        <time>2021-04-18T09:13:56Z</time>
      </trkpt>
      <trkpt lat="43.98636" lon="2.27998">
        <ele>439</ele>
        <time>2021-04-18T09:13:57Z</time>
      </trkpt>
      <trkpt lat="43.98635" lon="2.28">
        <ele>439</ele>
        <time>2021-04-18T09:13:58Z</time>
      </trkpt>
      <trkpt lat="43.98635" lon="2.28002">
        <ele>439</ele>
        <time>2021-04-18T09:13:59Z</time>
      </trkpt>
      <trkpt lat="43.98635" lon="2.28004">
        <ele>439</ele>
        <time>2021-04-18T09:14:00Z</time>
      </trkpt>
      <trkpt lat="43.98635" lon="2.28006">
        <ele>439</ele>
        <time>2021-04-18T09:14:01Z</time>
      </trkpt>
      <trkpt lat="43.98635" lon="2.28008">
        <ele>439</ele>
        <time>2021-04-18T09:14:02Z</time>
      </trkpt>
      <trkpt lat="43.98634" lon="2.2801">
        <ele>439</ele>
        <time>2021-04-18T09:14:03Z</time>
      </trkpt>
      <trkpt lat="43.98634" lon="2.28012">
        <ele>439</ele>
        <time>2021-04-18T09:14:04Z</time>
      </trkpt>
      <trkpt lat="43.98634" lon="2.28015">
        <ele>439</ele>
        <time>2021-04-18T09:14:05Z</time>
      </trkpt>
      <trkpt lat="43.98633" lon="2.28017">
        <ele>439</ele>
        <time>2021-04-18T09:14:06Z</time>
      </trkpt>
      <trkpt lat="43.98632" lon="2.28019">
        <ele>439</ele>
        <time>2021-04-18T09:14:07Z</time>
      </trkpt>
      <trkpt lat="43.98632" lon="2.28022">
        <ele>438</ele>
        <time>2021-04-18T09:14:08Z</time>
      </trkpt>
      <trkpt lat="43.98631" lon="2.28024">
        <ele>438</ele>
        <time>2021-04-18T09:14:09Z</time>
      </trkpt>
      <trkpt lat="43.98629" lon="2.28026">
        <ele>437</ele>
        <time>2021-04-18T09:14:10Z</time>
      </trkpt>
      <trkpt lat="43.98628" lon="2.28028">
        <ele>437</ele>
        <time>2021-04-18T09:14:11Z</time>
      </trkpt>
      <trkpt lat="43.98627" lon="2.28031">
        <ele>437</ele>
        <time>2021-04-18T09:14:12Z</time>
      </trkpt>
      <trkpt lat="43.98626" lon="2.28033">
        <ele>437</ele>
        <time>2021-04-18T09:14:13Z</time>
      </trkpt>
      <trkpt lat="43.98626" lon="2.28035">
        <ele>437</ele>
        <time>2021-04-18T09:14:14Z</time>
      </trkpt>
      <trkpt lat="43.98625" lon="2.28037">
        <ele>437</ele>
        <time>2021-04-18T09:14:15Z</time>
      </trkpt>
      <trkpt lat="43.98624" lon="2.28039">
        <ele>437</ele>
        <time>2021-04-18T09:14:16Z</time>
      </trkpt>
      <trkpt lat="43.98624" lon="2.28041">
        <ele>437</ele>
        <time>2021-04-18T09:14:17Z</time>
      </trkpt>
      <trkpt lat="43.98624" lon="2.28042">
        <ele>437</ele>
        <time>2021-04-18T09:14:18Z</time>
      </trkpt>
      <trkpt lat="43.98624" lon="2.28043">
        <ele>436</ele>
        <time>2021-04-18T09:14:19Z</time>
      </trkpt>
      <trkpt lat="43.98624" lon="2.28044">
        <ele>436</ele>
        <time>2021-04-18T09:14:20Z</time>
      </trkpt>
      <trkpt lat="43.98623" lon="2.28046">
        <ele>437</ele>
        <time>2021-04-18T09:14:21Z</time>
      </trkpt>
      <trkpt lat="43.98623" lon="2.28047">
        <ele>437</ele>
        <time>2021-04-18T09:14:22Z</time>
      </trkpt>
      <trkpt lat="43.98623" lon="2.28048">
        <ele>437</ele>
        <time>2021-04-18T09:14:23Z</time>
      </trkpt>
      <trkpt lat="43.98622" lon="2.28048">
        <ele>437</ele>
        <time>2021-04-18T09:14:24Z</time>
      </trkpt>
      <trkpt lat="43.98621" lon="2.28047">
        <ele>437</ele>
        <time>2021-04-18T09:14:25Z</time>
      </trkpt>
      <trkpt lat="43.9862" lon="2.28047">
        <ele>437</ele>
        <time>2021-04-18T09:14:26Z</time>
      </trkpt>
      <trkpt lat="43.9862" lon="2.28046">
        <ele>437</ele>
        <time>2021-04-18T09:14:27Z</time>
      </trkpt>
      <trkpt lat="43.98619" lon="2.28046">
        <ele>438</ele>
        <time>2021-04-18T09:14:28Z</time>
      </trkpt>
      <trkpt lat="43.98618" lon="2.28046">
        <ele>438</ele>
        <time>2021-04-18T09:14:29Z</time>
      </trkpt>
      <trkpt lat="43.98617" lon="2.28047">
        <ele>438</ele>
        <time>2021-04-18T09:14:30Z</time>
      </trkpt>
      <trkpt lat="43.98615" lon="2.28047">
        <ele>437</ele>
        <time>2021-04-18T09:14:31Z</time>
      </trkpt>
      <trkpt lat="43.98613" lon="2.28047">
        <ele>437</ele>
        <time>2021-04-18T09:14:32Z</time>
      </trkpt>
      <trkpt lat="43.98612" lon="2.28047">
        <ele>437</ele>
        <time>2021-04-18T09:14:33Z</time>
      </trkpt>
      <trkpt lat="43.9861" lon="2.28048">
        <ele>437</ele>
        <time>2021-04-18T09:14:34Z</time>
      </trkpt>
      <trkpt lat="43.98608" lon="2.2805">
        <ele>437</ele>
        <time>2021-04-18T09:14:35Z</time>
      </trkpt>
      <trkpt lat="43.98606" lon="2.28051">
        <ele>437</ele>
        <time>2021-04-18T09:14:36Z</time>
      </trkpt>
      <trkpt lat="43.98604" lon="2.28053">
        <ele>438</ele>
        <time>2021-04-18T09:14:37Z</time>
      </trkpt>
      <trkpt lat="43.98602" lon="2.28054">
        <ele>437</ele>
        <time>2021-04-18T09:14:38Z</time>
      </trkpt>
      <trkpt lat="43.986" lon="2.28056">
        <ele>437</ele>
        <time>2021-04-18T09:14:39Z</time>
      </trkpt>
      <trkpt lat="43.98599" lon="2.28057">
        <ele>436</ele>
        <time>2021-04-18T09:14:40Z</time>
      </trkpt>
      <trkpt lat="43.98597" lon="2.28059">
        <ele>436</ele>
        <time>2021-04-18T09:14:41Z</time>
      </trkpt>
      <trkpt lat="43.98596" lon="2.28061">
        <ele>436</ele>
        <time>2021-04-18T09:14:42Z</time>
      </trkpt>
      <trkpt lat="43.98594" lon="2.28063">
        <ele>436</ele>
        <time>2021-04-18T09:14:43Z</time>
      </trkpt>
      <trkpt lat="43.98593" lon="2.28064">
        <ele>436</ele>
        <time>2021-04-18T09:14:44Z</time>
      </trkpt>
      <trkpt lat="43.98592" lon="2.28065">
        <ele>436</ele>
        <time>2021-04-18T09:14:45Z</time>
      </trkpt>
      <trkpt lat="43.98591" lon="2.28067">
        <ele>436</ele>
        <time>2021-04-18T09:14:46Z</time>
      </trkpt>
      <trkpt lat="43.98589" lon="2.28068">
        <ele>437</ele>
        <time>2021-04-18T09:14:47Z</time>
      </trkpt>
      <trkpt lat="43.98588" lon="2.28069">
        <ele>437</ele>
        <time>2021-04-18T09:14:48Z</time>
      </trkpt>
      <trkpt lat="43.98586" lon="2.2807">
        <ele>437</ele>
        <time>2021-04-18T09:14:49Z</time>
      </trkpt>
      <trkpt lat="43.98585" lon="2.28071">
        <ele>437</ele>
        <time>2021-04-18T09:14:50Z</time>
      </trkpt>
      <trkpt lat="43.98584" lon="2.28072">
        <ele>437</ele>
        <time>2021-04-18T09:14:51Z</time>
      </trkpt>
      <trkpt lat="43.98583" lon="2.28075">
        <ele>438</ele>
        <time>2021-04-18T09:14:52Z</time>
      </trkpt>
      <trkpt lat="43.98581" lon="2.28076">
        <ele>438</ele>
        <time>2021-04-18T09:14:53Z</time>
      </trkpt>
      <trkpt lat="43.98579" lon="2.28077">
        <ele>437</ele>
        <time>2021-04-18T09:14:54Z</time>
      </trkpt>
      <trkpt lat="43.98578" lon="2.28078">
        <ele>437</ele>
        <time>2021-04-18T09:14:55Z</time>
      </trkpt>
      <trkpt lat="43.98577" lon="2.2808">
        <ele>437</ele>
        <time>2021-04-18T09:14:56Z</time>
      </trkpt>
      <trkpt lat="43.98575" lon="2.28081">
        <ele>437</ele>
        <time>2021-04-18T09:14:57Z</time>
      </trkpt>
      <trkpt lat="43.98574" lon="2.28083">
        <ele>437</ele>
        <time>2021-04-18T09:14:58Z</time>
      </trkpt>
      <trkpt lat="43.98573" lon="2.28084">
        <ele>437</ele>
        <time>2021-04-18T09:14:59Z</time>
      </trkpt>
      <trkpt lat="43.98572" lon="2.28086">
        <ele>437</ele>
        <time>2021-04-18T09:15:00Z</time>
      </trkpt>
      <trkpt lat="43.98572" lon="2.28087">
        <ele>438</ele>
        <time>2021-04-18T09:15:01Z</time>
      </trkpt>
      <trkpt lat="43.98572" lon="2.28088">
        <ele>437</ele>
        <time>2021-04-18T09:15:02Z</time>
      </trkpt>
      <trkpt lat="43.98573" lon="2.28089">
        <ele>436</ele>
        <time>2021-04-18T09:15:03Z</time>
      </trkpt>
      <trkpt lat="43.98573" lon="2.28089">
        <ele>435</ele>
        <time>2021-04-18T09:15:04Z</time>
      </trkpt>
      <trkpt lat="43.98573" lon="2.28089">
        <ele>436</ele>
        <time>2021-04-18T09:15:05Z</time>
      </trkpt>
      <trkpt lat="43.98573" lon="2.28089">
        <ele>436</ele>
        <time>2021-04-18T09:15:06Z</time>
      </trkpt>
      <trkpt lat="43.98573" lon="2.28089">
        <ele>436</ele>
        <time>2021-04-18T09:15:07Z</time>
      </trkpt>
      <trkpt lat="43.98573" lon="2.28089">
        <ele>436</ele>
        <time>2021-04-18T09:15:08Z</time>
      </trkpt>
      <trkpt lat="43.98573" lon="2.28089">
        <ele>436</ele>
        <time>2021-04-18T09:15:09Z</time>
      </trkpt>
      <trkpt lat="43.98573" lon="2.28089">
        <ele>436</ele>
        <time>2021-04-18T09:15:09Z</time>
      </trkpt>
      <trkpt lat="43.98573" lon="2.28089">
        <ele>436</ele>
        <time>2021-04-18T09:15:09Z</time>
      </trkpt>
      <trkpt lat="43.98576" lon="2.28085">
        <ele>438</ele>
        <time>2021-04-18T09:15:35Z</time>
      </trkpt>
      <trkpt lat="43.98578" lon="2.28083">
        <ele>438</ele>
        <time>2021-04-18T09:15:36Z</time>
      </trkpt>
      <trkpt lat="43.98579" lon="2.28083">
        <ele>438</ele>
        <time>2021-04-18T09:15:37Z</time>
      </trkpt>
      <trkpt lat="43.9858" lon="2.28082">
        <ele>438</ele>
        <time>2021-04-18T09:15:38Z</time>
      </trkpt>
      <trkpt lat="43.98581" lon="2.28081">
        <ele>439</ele>
        <time>2021-04-18T09:15:39Z</time>
      </trkpt>
      <trkpt lat="43.98583" lon="2.28079">
        <ele>439</ele>
        <time>2021-04-18T09:15:40Z</time>
      </trkpt>
      <trkpt lat="43.98584" lon="2.28079">
        <ele>439</ele>
        <time>2021-04-18T09:15:41Z</time>
      </trkpt>
      <trkpt lat="43.98585" lon="2.28078">
        <ele>439</ele>
        <time>2021-04-18T09:15:42Z</time>
      </trkpt>
      <trkpt lat="43.98586" lon="2.28077">
        <ele>439</ele>
        <time>2021-04-18T09:15:43Z</time>
      </trkpt>
      <trkpt lat="43.98588" lon="2.28076">
        <ele>439</ele>
        <time>2021-04-18T09:15:44Z</time>
      </trkpt>
      <trkpt lat="43.98589" lon="2.28076">
        <ele>438</ele>
        <time>2021-04-18T09:15:45Z</time>
      </trkpt>
      <trkpt lat="43.98591" lon="2.28075">
        <ele>437</ele>
        <time>2021-04-18T09:15:46Z</time>
      </trkpt>
      <trkpt lat="43.98593" lon="2.28074">
        <ele>437</ele>
        <time>2021-04-18T09:15:47Z</time>
      </trkpt>
      <trkpt lat="43.98594" lon="2.28073">
        <ele>437</ele>
        <time>2021-04-18T09:15:48Z</time>
      </trkpt>
      <trkpt lat="43.98595" lon="2.28071">
        <ele>437</ele>
        <time>2021-04-18T09:15:49Z</time>
      </trkpt>
      <trkpt lat="43.98597" lon="2.2807">
        <ele>437</ele>
        <time>2021-04-18T09:15:50Z</time>
      </trkpt>
      <trkpt lat="43.98598" lon="2.28069">
        <ele>437</ele>
        <time>2021-04-18T09:15:51Z</time>
      </trkpt>
      <trkpt lat="43.986" lon="2.28068">
        <ele>436</ele>
        <time>2021-04-18T09:15:52Z</time>
      </trkpt>
      <trkpt lat="43.98601" lon="2.28066">
        <ele>437</ele>
        <time>2021-04-18T09:15:53Z</time>
      </trkpt>
      <trkpt lat="43.98603" lon="2.28064">
        <ele>437</ele>
        <time>2021-04-18T09:15:54Z</time>
      </trkpt>
      <trkpt lat="43.98604" lon="2.28062">
        <ele>437</ele>
        <time>2021-04-18T09:15:55Z</time>
      </trkpt>
      <trkpt lat="43.98605" lon="2.28061">
        <ele>437</ele>
        <time>2021-04-18T09:15:56Z</time>
      </trkpt>
      <trkpt lat="43.98606" lon="2.28059">
        <ele>437</ele>
        <time>2021-04-18T09:15:57Z</time>
      </trkpt>
      <trkpt lat="43.98607" lon="2.28058">
        <ele>437</ele>
        <time>2021-04-18T09:15:58Z</time>
      </trkpt>
      <trkpt lat="43.98608" lon="2.28057">
        <ele>437</ele>
        <time>2021-04-18T09:15:59Z</time>
      </trkpt>
      <trkpt lat="43.98609" lon="2.28056">
        <ele>437</ele>
        <time>2021-04-18T09:16:00Z</time>
      </trkpt>
      <trkpt lat="43.98611" lon="2.28055">
        <ele>437</ele>
        <time>2021-04-18T09:16:01Z</time>
      </trkpt>
      <trkpt lat="43.98613" lon="2.28055">
        <ele>437</ele>
        <time>2021-04-18T09:16:02Z</time>
      </trkpt>
      <trkpt lat="43.98614" lon="2.28055">
        <ele>437</ele>
        <time>2021-04-18T09:16:03Z</time>
      </trkpt>
      <trkpt lat="43.98616" lon="2.28055">
        <ele>438</ele>
        <time>2021-04-18T09:16:04Z</time>
      </trkpt>
      <trkpt lat="43.98617" lon="2.28054">
        <ele>438</ele>
        <time>2021-04-18T09:16:05Z</time>
      </trkpt>
      <trkpt lat="43.98619" lon="2.28054">
        <ele>438</ele>
        <time>2021-04-18T09:16:06Z</time>
      </trkpt>
      <trkpt lat="43.9862" lon="2.28053">
        <ele>438</ele>
        <time>2021-04-18T09:16:07Z</time>
      </trkpt>
      <trkpt lat="43.98621" lon="2.28053">
        <ele>437</ele>
        <time>2021-04-18T09:16:08Z</time>
      </trkpt>
      <trkpt lat="43.98623" lon="2.28052">
        <ele>438</ele>
        <time>2021-04-18T09:16:09Z</time>
      </trkpt>
      <trkpt lat="43.98624" lon="2.28052">
        <ele>438</ele>
        <time>2021-04-18T09:16:10Z</time>
      </trkpt>
      <trkpt lat="43.98625" lon="2.28051">
        <ele>439</ele>
        <time>2021-04-18T09:16:11Z</time>
      </trkpt>
      <trkpt lat="43.98626" lon="2.2805">
        <ele>439</ele>
        <time>2021-04-18T09:16:12Z</time>
      </trkpt>
      <trkpt lat="43.98628" lon="2.28049">
        <ele>439</ele>
        <time>2021-04-18T09:16:13Z</time>
      </trkpt>
      <trkpt lat="43.98629" lon="2.28047">
        <ele>439</ele>
        <time>2021-04-18T09:16:14Z</time>
      </trkpt>
      <trkpt lat="43.98629" lon="2.28046">
        <ele>438</ele>
        <time>2021-04-18T09:16:15Z</time>
      </trkpt>
      <trkpt lat="43.9863" lon="2.28044">
        <ele>438</ele>
        <time>2021-04-18T09:16:16Z</time>
      </trkpt>
      <trkpt lat="43.98631" lon="2.28043">
        <ele>437</ele>
        <time>2021-04-18T09:16:17Z</time>
      </trkpt>
      <trkpt lat="43.98631" lon="2.28043">
        <ele>438</ele>
        <time>2021-04-18T09:16:18Z</time>
      </trkpt>
      <trkpt lat="43.98631" lon="2.28042">
        <ele>438</ele>
        <time>2021-04-18T09:16:19Z</time>
      </trkpt>
      <trkpt lat="43.98632" lon="2.28042">
        <ele>439</ele>
        <time>2021-04-18T09:16:20Z</time>
      </trkpt>
      <trkpt lat="43.98632" lon="2.2804">
        <ele>439</ele>
        <time>2021-04-18T09:16:21Z</time>
      </trkpt>
      <trkpt lat="43.98633" lon="2.28039">
        <ele>439</ele>
        <time>2021-04-18T09:16:22Z</time>
      </trkpt>
      <trkpt lat="43.98633" lon="2.28038">
        <ele>439</ele>
        <time>2021-04-18T09:16:23Z</time>
      </trkpt>
      <trkpt lat="43.98634" lon="2.28036">
        <ele>439</ele>
        <time>2021-04-18T09:16:24Z</time>
      </trkpt>
      <trkpt lat="43.98635" lon="2.28036">
        <ele>439</ele>
        <time>2021-04-18T09:16:25Z</time>
      </trkpt>
      <trkpt lat="43.98635" lon="2.28034">
        <ele>438</ele>
        <time>2021-04-18T09:16:26Z</time>
      </trkpt>
      <trkpt lat="43.98636" lon="2.28033">
        <ele>438</ele>
        <time>2021-04-18T09:16:27Z</time>
      </trkpt>
      <trkpt lat="43.98637" lon="2.28032">
        <ele>438</ele>
        <time>2021-04-18T09:16:28Z</time>
      </trkpt>
      <trkpt lat="43.98637" lon="2.28032">
        <ele>438</ele>
        <time>2021-04-18T09:16:29Z</time>
      </trkpt>
      <trkpt lat="43.98638" lon="2.28031">
        <ele>438</ele>
        <time>2021-04-18T09:16:30Z</time>
      </trkpt>
      <trkpt lat="43.98639" lon="2.28031">
        <ele>438</ele>
        <time>2021-04-18T09:16:31Z</time>
      </trkpt>
      <trkpt lat="43.9864" lon="2.28032">
        <ele>438</ele>
        <time>2021-04-18T09:16:32Z</time>
      </trkpt>
      <trkpt lat="43.9864" lon="2.28032">
        <ele>438</ele>
        <time>2021-04-18T09:16:33Z</time>
      </trkpt>
      <trkpt lat="43.98642" lon="2.28033">
        <ele>439</ele>
        <time>2021-04-18T09:16:34Z</time>
      </trkpt>
      <trkpt lat="43.98643" lon="2.28034">
        <ele>440</ele>
        <time>2021-04-18T09:16:35Z</time>
      </trkpt>
      <trkpt lat="43.98644" lon="2.28035">
        <ele>440</ele>
        <time>2021-04-18T09:16:36Z</time>
      </trkpt>
      <trkpt lat="43.98646" lon="2.28037">
        <ele>441</ele>
        <time>2021-04-18T09:16:37Z</time>
      </trkpt>
      <trkpt lat="43.98647" lon="2.28038">
        <ele>441</ele>
        <time>2021-04-18T09:16:38Z</time>
      </trkpt>
      <trkpt lat="43.98649" lon="2.2804">
        <ele>440</ele>
        <time>2021-04-18T09:16:39Z</time>
      </trkpt>
      <trkpt lat="43.9865" lon="2.28041">
        <ele>439</ele>
        <time>2021-04-18T09:16:40Z</time>
      </trkpt>
      <trkpt lat="43.98652" lon="2.28042">
        <ele>439</ele>
        <time>2021-04-18T09:16:41Z</time>
      </trkpt>
      <trkpt lat="43.98653" lon="2.28043">
        <ele>439</ele>
        <time>2021-04-18T09:16:42Z</time>
      </trkpt>
      <trkpt lat="43.98655" lon="2.28044">
        <ele>439</ele>
        <time>2021-04-18T09:16:43Z</time>
      </trkpt>
      <trkpt lat="43.98657" lon="2.28044">
        <ele>439</ele>
        <time>2021-04-18T09:16:44Z</time>
      </trkpt>
      <trkpt lat="43.98658" lon="2.28045">
        <ele>440</ele>
        <time>2021-04-18T09:16:45Z</time>
      </trkpt>
      <trkpt lat="43.98658" lon="2.28045">
        <ele>439</ele>
        <time>2021-04-18T09:16:46Z</time>
      </trkpt>
      <trkpt lat="43.9866" lon="2.28045">
        <ele>439</ele>
        <time>2021-04-18T09:16:47Z</time>
      </trkpt>
      <trkpt lat="43.9866" lon="2.28045">
        <ele>438</ele>
        <time>2021-04-18T09:16:48Z</time>
      </trkpt>
      <trkpt lat="43.98661" lon="2.28046">
        <ele>438</ele>
        <time>2021-04-18T09:16:49Z</time>
      </trkpt>
      <trkpt lat="43.98663" lon="2.28046">
        <ele>438</ele>
        <time>2021-04-18T09:16:50Z</time>
      </trkpt>
      <trkpt lat="43.98664" lon="2.28047">
        <ele>438</ele>
        <time>2021-04-18T09:16:51Z</time>
      </trkpt>
      <trkpt lat="43.98665" lon="2.28047">
        <ele>437</ele>
        <time>2021-04-18T09:16:52Z</time>
      </trkpt>
      <trkpt lat="43.98666" lon="2.28048">
        <ele>437</ele>
        <time>2021-04-18T09:16:53Z</time>
      </trkpt>
      <trkpt lat="43.98666" lon="2.28048">
        <ele>437</ele>
        <time>2021-04-18T09:16:54Z</time>
      </trkpt>
      <trkpt lat="43.98667" lon="2.28049">
        <ele>437</ele>
        <time>2021-04-18T09:16:55Z</time>
      </trkpt>
      <trkpt lat="43.98668" lon="2.28049">
        <ele>436</ele>
        <time>2021-04-18T09:16:56Z</time>
      </trkpt>
      <trkpt lat="43.98669" lon="2.28048">
        <ele>435</ele>
        <time>2021-04-18T09:16:57Z</time>
      </trkpt>
      <trkpt lat="43.9867" lon="2.28049">
        <ele>434</ele>
        <time>2021-04-18T09:16:58Z</time>
      </trkpt>
      <trkpt lat="43.98671" lon="2.2805">
        <ele>433</ele>
        <time>2021-04-18T09:16:59Z</time>
      </trkpt>
      <trkpt lat="43.98673" lon="2.28051">
        <ele>434</ele>
        <time>2021-04-18T09:17:00Z</time>
      </trkpt>
      <trkpt lat="43.98674" lon="2.28051">
        <ele>433</ele>
        <time>2021-04-18T09:17:01Z</time>
      </trkpt>
      <trkpt lat="43.98676" lon="2.28052">
        <ele>433</ele>
        <time>2021-04-18T09:17:02Z</time>
      </trkpt>
      <trkpt lat="43.98677" lon="2.28052">
        <ele>433</ele>
        <time>2021-04-18T09:17:03Z</time>
      </trkpt>
      <trkpt lat="43.98678" lon="2.28052">
        <ele>434</ele>
        <time>2021-04-18T09:17:04Z</time>
      </trkpt>
      <trkpt lat="43.98679" lon="2.28052">
        <ele>434</ele>
        <time>2021-04-18T09:17:05Z</time>
      </trkpt>
      <trkpt lat="43.9868" lon="2.28051">
        <ele>434</ele>
        <time>2021-04-18T09:17:06Z</time>
      </trkpt>
      <trkpt lat="43.98681" lon="2.28051">
        <ele>434</ele>
        <time>2021-04-18T09:17:07Z</time>
      </trkpt>
      <trkpt lat="43.98682" lon="2.28052">
        <ele>434</ele>
        <time>2021-04-18T09:17:08Z</time>
      </trkpt>
      <trkpt lat="43.98684" lon="2.28051">
        <ele>434</ele>
        <time>2021-04-18T09:17:09Z</time>
      </trkpt>
      <trkpt lat="43.98685" lon="2.28051">
        <ele>434</ele>
        <time>2021-04-18T09:17:10Z</time>
      </trkpt>
      <trkpt lat="43.98686" lon="2.28052">
        <ele>434</ele>
        <time>2021-04-18T09:17:11Z</time>
      </trkpt>
      <trkpt lat="43.98687" lon="2.28052">
        <ele>434</ele>
        <time>2021-04-18T09:17:12Z</time>
      </trkpt>
      <trkpt lat="43.98688" lon="2.28052">
        <ele>434</ele>
        <time>2021-04-18T09:17:13Z</time>
      </trkpt>
      <trkpt lat="43.98689" lon="2.28052">
        <ele>434</ele>
        <time>2021-04-18T09:17:14Z</time>
      </trkpt>
      <trkpt lat="43.9869" lon="2.28051">
        <ele>434</ele>
        <time>2021-04-18T09:17:15Z</time>
      </trkpt>
      <trkpt lat="43.98691" lon="2.28051">
        <ele>434</ele>
        <time>2021-04-18T09:17:16Z</time>
      </trkpt>
      <trkpt lat="43.98692" lon="2.28051">
        <ele>434</ele>
        <time>2021-04-18T09:17:17Z</time>
      </trkpt>
      <trkpt lat="43.98694" lon="2.28052">
        <ele>433</ele>
        <time>2021-04-18T09:17:18Z</time>
      </trkpt>
      <trkpt lat="43.98695" lon="2.28052">
        <ele>432</ele>
        <time>2021-04-18T09:17:19Z</time>
      </trkpt>
      <trkpt lat="43.98697" lon="2.28052">
        <ele>432</ele>
        <time>2021-04-18T09:17:20Z</time>
      </trkpt>
      <trkpt lat="43.98697" lon="2.28051">
        <ele>430</ele>
        <time>2021-04-18T09:17:21Z</time>
      </trkpt>
      <trkpt lat="43.98698" lon="2.28051">
        <ele>429</ele>
        <time>2021-04-18T09:17:22Z</time>
      </trkpt>
      <trkpt lat="43.98699" lon="2.28051">
        <ele>429</ele>
        <time>2021-04-18T09:17:23Z</time>
      </trkpt>
      <trkpt lat="43.987" lon="2.2805">
        <ele>428</ele>
        <time>2021-04-18T09:17:24Z</time>
      </trkpt>
      <trkpt lat="43.98702" lon="2.28051">
        <ele>427</ele>
        <time>2021-04-18T09:17:25Z</time>
      </trkpt>
      <trkpt lat="43.98703" lon="2.2805">
        <ele>427</ele>
        <time>2021-04-18T09:17:26Z</time>
      </trkpt>
      <trkpt lat="43.98705" lon="2.2805">
        <ele>426</ele>
        <time>2021-04-18T09:17:27Z</time>
      </trkpt>
      <trkpt lat="43.98706" lon="2.2805">
        <ele>426</ele>
        <time>2021-04-18T09:17:28Z</time>
      </trkpt>
      <trkpt lat="43.98707" lon="2.2805">
        <ele>425</ele>
        <time>2021-04-18T09:17:29Z</time>
      </trkpt>
      <trkpt lat="43.98708" lon="2.2805">
        <ele>425</ele>
        <time>2021-04-18T09:17:30Z</time>
      </trkpt>
      <trkpt lat="43.9871" lon="2.2805">
        <ele>425</ele>
        <time>2021-04-18T09:17:31Z</time>
      </trkpt>
      <trkpt lat="43.9871" lon="2.2805">
        <ele>425</ele>
        <time>2021-04-18T09:17:31Z</time>
      </trkpt>
      <trkpt lat="43.98711" lon="2.28049">
        <ele>425</ele>
        <time>2021-04-18T09:17:33Z</time>
      </trkpt>
      <trkpt lat="43.98712" lon="2.28048">
        <ele>425</ele>
        <time>2021-04-18T09:17:34Z</time>
      </trkpt>
      <trkpt lat="43.98714" lon="2.28049">
        <ele>424</ele>
        <time>2021-04-18T09:17:35Z</time>
      </trkpt>
      <trkpt lat="43.98714" lon="2.28048">
        <ele>424</ele>
        <time>2021-04-18T09:17:36Z</time>
      </trkpt>
      <trkpt lat="43.98717" lon="2.28049">
        <ele>425</ele>
        <time>2021-04-18T09:17:37Z</time>
      </trkpt>
      <trkpt lat="43.98718" lon="2.28049">
        <ele>425</ele>
        <time>2021-04-18T09:17:38Z</time>
      </trkpt>
      <trkpt lat="43.98719" lon="2.2805">
        <ele>424</ele>
        <time>2021-04-18T09:17:39Z</time>
      </trkpt>
      <trkpt lat="43.98721" lon="2.2805">
        <ele>424</ele>
        <time>2021-04-18T09:17:40Z</time>
      </trkpt>
      <trkpt lat="43.98722" lon="2.28051">
        <ele>425</ele>
        <time>2021-04-18T09:17:41Z</time>
      </trkpt>
      <trkpt lat="43.98723" lon="2.28052">
        <ele>424</ele>
        <time>2021-04-18T09:17:42Z</time>
      </trkpt>
      <trkpt lat="43.98723" lon="2.28052">
        <ele>424</ele>
        <time>2021-04-18T09:17:42Z</time>
      </trkpt>
      <trkpt lat="43.98725" lon="2.28054">
        <ele>423</ele>
        <time>2021-04-18T09:17:44Z</time>
      </trkpt>
      <trkpt lat="43.98725" lon="2.28054">
        <ele>423</ele>
        <time>2021-04-18T09:17:44Z</time>
      </trkpt>
      <trkpt lat="43.98726" lon="2.28055">
        <ele>423</ele>
        <time>2021-04-18T09:17:46Z</time>
      </trkpt>
      <trkpt lat="43.98727" lon="2.28055">
        <ele>423</ele>
        <time>2021-04-18T09:17:47Z</time>
      </trkpt>
      <trkpt lat="43.9873" lon="2.28056">
        <ele>422</ele>
        <time>2021-04-18T09:17:48Z</time>
      </trkpt>
      <trkpt lat="43.98731" lon="2.28055">
        <ele>422</ele>
        <time>2021-04-18T09:17:49Z</time>
      </trkpt>
      <trkpt lat="43.98731" lon="2.28055">
        <ele>422</ele>
        <time>2021-04-18T09:17:49Z</time>
      </trkpt>
      <trkpt lat="43.98731" lon="2.28055">
        <ele>422</ele>
        <time>2021-04-18T09:17:51Z</time>
      </trkpt>
      <trkpt lat="43.98731" lon="2.28055">
        <ele>422</ele>
        <time>2021-04-18T09:17:52Z</time>
      </trkpt>
      <trkpt lat="43.98732" lon="2.28056">
        <ele>422</ele>
        <time>2021-04-18T09:17:53Z</time>
      </trkpt>
      <trkpt lat="43.98733" lon="2.28057">
        <ele>422</ele>
        <time>2021-04-18T09:17:54Z</time>
      </trkpt>
      <trkpt lat="43.98735" lon="2.28057">
        <ele>422</ele>
        <time>2021-04-18T09:17:55Z</time>
      </trkpt>
      <trkpt lat="43.98736" lon="2.28058">
        <ele>422</ele>
        <time>2021-04-18T09:17:56Z</time>
      </trkpt>
      <trkpt lat="43.98737" lon="2.28059">
        <ele>422</ele>
        <time>2021-04-18T09:17:57Z</time>
      </trkpt>
      <trkpt lat="43.98738" lon="2.2806">
        <ele>421</ele>
        <time>2021-04-18T09:17:58Z</time>
      </trkpt>
      <trkpt lat="43.98739" lon="2.2806">
        <ele>421</ele>
        <time>2021-04-18T09:17:59Z</time>
      </trkpt>
      <trkpt lat="43.9874" lon="2.2806">
        <ele>421</ele>
        <time>2021-04-18T09:18:00Z</time>
      </trkpt>
      <trkpt lat="43.98741" lon="2.28061">
        <ele>420</ele>
        <time>2021-04-18T09:18:01Z</time>
      </trkpt>
      <trkpt lat="43.98742" lon="2.28061">
        <ele>419</ele>
        <time>2021-04-18T09:18:02Z</time>
      </trkpt>
      <trkpt lat="43.98745" lon="2.28063">
        <ele>419</ele>
        <time>2021-04-18T09:18:03Z</time>
      </trkpt>
      <trkpt lat="43.98746" lon="2.28064">
        <ele>420</ele>
        <time>2021-04-18T09:18:04Z</time>
      </trkpt>
      <trkpt lat="43.98746" lon="2.28064">
        <ele>420</ele>
        <time>2021-04-18T09:18:04Z</time>
      </trkpt>
      <trkpt lat="43.98748" lon="2.28065">
        <ele>420</ele>
        <time>2021-04-18T09:18:06Z</time>
      </trkpt>
      <trkpt lat="43.98748" lon="2.28065">
        <ele>420</ele>
        <time>2021-04-18T09:18:06Z</time>
      </trkpt>
      <trkpt lat="43.9875" lon="2.28066">
        <ele>420</ele>
        <time>2021-04-18T09:18:08Z</time>
      </trkpt>
      <trkpt lat="43.98751" lon="2.28066">
        <ele>419</ele>
        <time>2021-04-18T09:18:09Z</time>
      </trkpt>
      <trkpt lat="43.98753" lon="2.28067">
        <ele>420</ele>
        <time>2021-04-18T09:18:10Z</time>
      </trkpt>
      <trkpt lat="43.98754" lon="2.28068">
        <ele>420</ele>
        <time>2021-04-18T09:18:11Z</time>
      </trkpt>
      <trkpt lat="43.98755" lon="2.2807">
        <ele>420</ele>
        <time>2021-04-18T09:18:12Z</time>
      </trkpt>
      <trkpt lat="43.98756" lon="2.2807">
        <ele>420</ele>
        <time>2021-04-18T09:18:13Z</time>
      </trkpt>
      <trkpt lat="43.98757" lon="2.28071">
        <ele>420</ele>
        <time>2021-04-18T09:18:14Z</time>
      </trkpt>
      <trkpt lat="43.98758" lon="2.28072">
        <ele>419</ele>
        <time>2021-04-18T09:18:15Z</time>
      </trkpt>
      <trkpt lat="43.98758" lon="2.28072">
        <ele>419</ele>
        <time>2021-04-18T09:18:16Z</time>
      </trkpt>
      <trkpt lat="43.98758" lon="2.28073">
        <ele>418</ele>
        <time>2021-04-18T09:18:17Z</time>
      </trkpt>
      <trkpt lat="43.98758" lon="2.28075">
        <ele>418</ele>
        <time>2021-04-18T09:18:18Z</time>
      </trkpt>
      <trkpt lat="43.98758" lon="2.28076">
        <ele>419</ele>
        <time>2021-04-18T09:18:19Z</time>
      </trkpt>
      <trkpt lat="43.98758" lon="2.28077">
        <ele>418</ele>
        <time>2021-04-18T09:18:20Z</time>
      </trkpt>
      <trkpt lat="43.98758" lon="2.28078">
        <ele>419</ele>
        <time>2021-04-18T09:18:21Z</time>
      </trkpt>
      <trkpt lat="43.98758" lon="2.28079">
        <ele>419</ele>
        <time>2021-04-18T09:18:22Z</time>
      </trkpt>
      <trkpt lat="43.98758" lon="2.2808">
        <ele>418</ele>
        <time>2021-04-18T09:18:23Z</time>
      </trkpt>
      <trkpt lat="43.98757" lon="2.28081">
        <ele>418</ele>
        <time>2021-04-18T09:18:24Z</time>
      </trkpt>
      <trkpt lat="43.98757" lon="2.28083">
        <ele>418</ele>
        <time>2021-04-18T09:18:25Z</time>
      </trkpt>
      <trkpt lat="43.98757" lon="2.28084">
        <ele>418</ele>
        <time>2021-04-18T09:18:26Z</time>
      </trkpt>
      <trkpt lat="43.98757" lon="2.28086">
        <ele>418</ele>
        <time>2021-04-18T09:18:27Z</time>
      </trkpt>
      <trkpt lat="43.98756" lon="2.28087">
        <ele>418</ele>
        <time>2021-04-18T09:18:28Z</time>
      </trkpt>
      <trkpt lat="43.98756" lon="2.28088">
        <ele>419</ele>
        <time>2021-04-18T09:18:29Z</time>
      </trkpt>
      <trkpt lat="43.98756" lon="2.28089">
        <ele>420</ele>
        <time>2021-04-18T09:18:30Z</time>
      </trkpt>
      <trkpt lat="43.98756" lon="2.28091">
        <ele>420</ele>
        <time>2021-04-18T09:18:31Z</time>
      </trkpt>
      <trkpt lat="43.98756" lon="2.28093">
        <ele>420</ele>
        <time>2021-04-18T09:18:32Z</time>
      </trkpt>
      <trkpt lat="43.98756" lon="2.28095">
        <ele>421</ele>
        <time>2021-04-18T09:18:33Z</time>
      </trkpt>
      <trkpt lat="43.98756" lon="2.28097">
        <ele>421</ele>
        <time>2021-04-18T09:18:34Z</time>
      </trkpt>
      <trkpt lat="43.98755" lon="2.281">
        <ele>421</ele>
        <time>2021-04-18T09:18:35Z</time>
      </trkpt>
      <trkpt lat="43.98754" lon="2.28102">
        <ele>420</ele>
        <time>2021-04-18T09:18:36Z</time>
      </trkpt>
      <trkpt lat="43.98753" lon="2.28103">
        <ele>420</ele>
        <time>2021-04-18T09:18:37Z</time>
      </trkpt>
      <trkpt lat="43.98753" lon="2.28105">
        <ele>420</ele>
        <time>2021-04-18T09:18:38Z</time>
      </trkpt>
      <trkpt lat="43.98753" lon="2.28106">
        <ele>419</ele>
        <time>2021-04-18T09:18:39Z</time>
      </trkpt>
      <trkpt lat="43.98752" lon="2.28108">
        <ele>419</ele>
        <time>2021-04-18T09:18:40Z</time>
      </trkpt>
      <trkpt lat="43.98752" lon="2.2811">
        <ele>419</ele>
        <time>2021-04-18T09:18:41Z</time>
      </trkpt>
      <trkpt lat="43.98752" lon="2.28112">
        <ele>419</ele>
        <time>2021-04-18T09:18:42Z</time>
      </trkpt>
      <trkpt lat="43.98751" lon="2.28116">
        <ele>420</ele>
        <time>2021-04-18T09:18:43Z</time>
      </trkpt>
      <trkpt lat="43.98751" lon="2.28116">
        <ele>420</ele>
        <time>2021-04-18T09:18:43Z</time>
      </trkpt>
      <trkpt lat="43.9875" lon="2.28119">
        <ele>420</ele>
        <time>2021-04-18T09:18:45Z</time>
      </trkpt>
      <trkpt lat="43.9875" lon="2.28119">
        <ele>420</ele>
        <time>2021-04-18T09:18:45Z</time>
      </trkpt>
      <trkpt lat="43.9875" lon="2.28121">
        <ele>419</ele>
        <time>2021-04-18T09:18:47Z</time>
      </trkpt>
      <trkpt lat="43.98749" lon="2.28125">
        <ele>419</ele>
        <time>2021-04-18T09:18:48Z</time>
      </trkpt>
      <trkpt lat="43.98748" lon="2.28126">
        <ele>418</ele>
        <time>2021-04-18T09:18:49Z</time>
      </trkpt>
      <trkpt lat="43.98748" lon="2.28128">
        <ele>418</ele>
        <time>2021-04-18T09:18:50Z</time>
      </trkpt>
      <trkpt lat="43.98747" lon="2.2813">
        <ele>418</ele>
        <time>2021-04-18T09:18:51Z</time>
      </trkpt>
      <trkpt lat="43.98747" lon="2.28132">
        <ele>417</ele>
        <time>2021-04-18T09:18:52Z</time>
      </trkpt>
      <trkpt lat="43.98746" lon="2.28133">
        <ele>417</ele>
        <time>2021-04-18T09:18:53Z</time>
      </trkpt>
      <trkpt lat="43.98746" lon="2.28135">
        <ele>416</ele>
        <time>2021-04-18T09:18:54Z</time>
      </trkpt>
      <trkpt lat="43.98745" lon="2.28137">
        <ele>416</ele>
        <time>2021-04-18T09:18:55Z</time>
      </trkpt>
      <trkpt lat="43.98745" lon="2.28139">
        <ele>416</ele>
        <time>2021-04-18T09:18:56Z</time>
      </trkpt>
      <trkpt lat="43.98744" lon="2.28141">
        <ele>416</ele>
        <time>2021-04-18T09:18:57Z</time>
      </trkpt>
      <trkpt lat="43.98744" lon="2.28142">
        <ele>416</ele>
        <time>2021-04-18T09:18:58Z</time>
      </trkpt>
      <trkpt lat="43.98743" lon="2.28144">
        <ele>417</ele>
        <time>2021-04-18T09:18:59Z</time>
      </trkpt>
      <trkpt lat="43.98743" lon="2.28146">
        <ele>416</ele>
        <time>2021-04-18T09:19:00Z</time>
      </trkpt>
      <trkpt lat="43.98742" lon="2.28148">
        <ele>416</ele>
        <time>2021-04-18T09:19:01Z</time>
      </trkpt>
      <trkpt lat="43.98742" lon="2.28149">
        <ele>416</ele>
        <time>2021-04-18T09:19:02Z</time>
      </trkpt>
      <trkpt lat="43.98741" lon="2.28151">
        <ele>415</ele>
        <time>2021-04-18T09:19:03Z</time>
      </trkpt>
      <trkpt lat="43.98741" lon="2.28152">
        <ele>415</ele>
        <time>2021-04-18T09:19:04Z</time>
      </trkpt>
      <trkpt lat="43.98741" lon="2.28155">
        <ele>415</ele>
        <time>2021-04-18T09:19:05Z</time>
      </trkpt>
      <trkpt lat="43.9874" lon="2.28157">
        <ele>414</ele>
        <time>2021-04-18T09:19:06Z</time>
      </trkpt>
      <trkpt lat="43.9874" lon="2.28158">
        <ele>414</ele>
        <time>2021-04-18T09:19:07Z</time>
      </trkpt>
      <trkpt lat="43.98739" lon="2.2816">
        <ele>413</ele>
        <time>2021-04-18T09:19:08Z</time>
      </trkpt>
      <trkpt lat="43.98739" lon="2.28161">
        <ele>413</ele>
        <time>2021-04-18T09:19:09Z</time>
      </trkpt>
      <trkpt lat="43.98738" lon="2.28163">
        <ele>414</ele>
        <time>2021-04-18T09:19:10Z</time>
      </trkpt>
      <trkpt lat="43.98738" lon="2.28165">
        <ele>414</ele>
        <time>2021-04-18T09:19:11Z</time>
      </trkpt>
      <trkpt lat="43.98737" lon="2.28167">
        <ele>414</ele>
        <time>2021-04-18T09:19:12Z</time>
      </trkpt>
      <trkpt lat="43.98737" lon="2.28169">
        <ele>413</ele>
        <time>2021-04-18T09:19:13Z</time>
      </trkpt>
      <trkpt lat="43.98737" lon="2.28171">
        <ele>413</ele>
        <time>2021-04-18T09:19:14Z</time>
      </trkpt>
      <trkpt lat="43.98736" lon="2.28173">
        <ele>413</ele>
        <time>2021-04-18T09:19:15Z</time>
      </trkpt>
      <trkpt lat="43.98736" lon="2.28175">
        <ele>413</ele>
        <time>2021-04-18T09:19:16Z</time>
      </trkpt>
      <trkpt lat="43.98736" lon="2.28177">
        <ele>413</ele>
        <time>2021-04-18T09:19:17Z</time>
      </trkpt>
      <trkpt lat="43.98736" lon="2.28178">
        <ele>414</ele>
        <time>2021-04-18T09:19:18Z</time>
      </trkpt>
      <trkpt lat="43.98735" lon="2.2818">
        <ele>413</ele>
        <time>2021-04-18T09:19:19Z</time>
      </trkpt>
      <trkpt lat="43.98735" lon="2.28181">
        <ele>414</ele>
        <time>2021-04-18T09:19:20Z</time>
      </trkpt>
      <trkpt lat="43.98734" lon="2.28183">
        <ele>413</ele>
        <time>2021-04-18T09:19:21Z</time>
      </trkpt>
      <trkpt lat="43.98734" lon="2.28185">
        <ele>413</ele>
        <time>2021-04-18T09:19:22Z</time>
      </trkpt>
      <trkpt lat="43.98734" lon="2.28186">
        <ele>413</ele>
        <time>2021-04-18T09:19:23Z</time>
      </trkpt>
      <trkpt lat="43.98733" lon="2.28188">
        <ele>413</ele>
        <time>2021-04-18T09:19:24Z</time>
      </trkpt>
      <trkpt lat="43.98734" lon="2.28189">
        <ele>413</ele>
        <time>2021-04-18T09:19:25Z</time>
      </trkpt>
      <trkpt lat="43.98734" lon="2.2819">
        <ele>413</ele>
        <time>2021-04-18T09:19:26Z</time>
      </trkpt>
      <trkpt lat="43.98734" lon="2.28191">
        <ele>413</ele>
        <time>2021-04-18T09:19:27Z</time>
      </trkpt>
      <trkpt lat="43.98734" lon="2.28192">
        <ele>412</ele>
        <time>2021-04-18T09:19:28Z</time>
      </trkpt>
      <trkpt lat="43.98733" lon="2.28193">
        <ele>413</ele>
        <time>2021-04-18T09:19:29Z</time>
      </trkpt>
      <trkpt lat="43.98733" lon="2.28194">
        <ele>412</ele>
        <time>2021-04-18T09:19:30Z</time>
      </trkpt>
      <trkpt lat="43.98733" lon="2.28195">
        <ele>412</ele>
        <time>2021-04-18T09:19:31Z</time>
      </trkpt>
      <trkpt lat="43.98733" lon="2.28196">
        <ele>411</ele>
        <time>2021-04-18T09:19:32Z</time>
      </trkpt>
      <trkpt lat="43.98733" lon="2.28197">
        <ele>411</ele>
        <time>2021-04-18T09:19:33Z</time>
      </trkpt>
      <trkpt lat="43.98733" lon="2.28199">
        <ele>412</ele>
        <time>2021-04-18T09:19:34Z</time>
      </trkpt>
      <trkpt lat="43.98732" lon="2.282">
        <ele>413</ele>
        <time>2021-04-18T09:19:35Z</time>
      </trkpt>
      <trkpt lat="43.98732" lon="2.28202">
        <ele>413</ele>
        <time>2021-04-18T09:19:36Z</time>
      </trkpt>
      <trkpt lat="43.98731" lon="2.28203">
        <ele>413</ele>
        <time>2021-04-18T09:19:37Z</time>
      </trkpt>
      <trkpt lat="43.98731" lon="2.28204">
        <ele>413</ele>
        <time>2021-04-18T09:19:38Z</time>
      </trkpt>
      <trkpt lat="43.98731" lon="2.28204">
        <ele>413</ele>
        <time>2021-04-18T09:19:39Z</time>
      </trkpt>
      <trkpt lat="43.98731" lon="2.28205">
        <ele>412</ele>
        <time>2021-04-18T09:19:40Z</time>
      </trkpt>
      <trkpt lat="43.98731" lon="2.28205">
        <ele>412</ele>
        <time>2021-04-18T09:19:41Z</time>
      </trkpt>
      <trkpt lat="43.9873" lon="2.28206">
        <ele>412</ele>
        <time>2021-04-18T09:19:42Z</time>
      </trkpt>
      <trkpt lat="43.9873" lon="2.28206">
        <ele>412</ele>
        <time>2021-04-18T09:19:43Z</time>
      </trkpt>
      <trkpt lat="43.98729" lon="2.28208">
        <ele>411</ele>
        <time>2021-04-18T09:19:44Z</time>
      </trkpt>
      <trkpt lat="43.98729" lon="2.2821">
        <ele>411</ele>
        <time>2021-04-18T09:19:45Z</time>
      </trkpt>
      <trkpt lat="43.98729" lon="2.28211">
        <ele>411</ele>
        <time>2021-04-18T09:19:46Z</time>
      </trkpt>
      <trkpt lat="43.98728" lon="2.28212">
        <ele>411</ele>
        <time>2021-04-18T09:19:47Z</time>
      </trkpt>
      <trkpt lat="43.98728" lon="2.28214">
        <ele>411</ele>
        <time>2021-04-18T09:19:48Z</time>
      </trkpt>
      <trkpt lat="43.98729" lon="2.28216">
        <ele>410</ele>
        <time>2021-04-18T09:19:49Z</time>
      </trkpt>
      <trkpt lat="43.98729" lon="2.28217">
        <ele>409</ele>
        <time>2021-04-18T09:19:50Z</time>
      </trkpt>
      <trkpt lat="43.98729" lon="2.28218">
        <ele>409</ele>
        <time>2021-04-18T09:19:51Z</time>
      </trkpt>
      <trkpt lat="43.98729" lon="2.28218">
        <ele>409</ele>
        <time>2021-04-18T09:19:52Z</time>
      </trkpt>
      <trkpt lat="43.98729" lon="2.28218">
        <ele>409</ele>
        <time>2021-04-18T09:19:53Z</time>
      </trkpt>
      <trkpt lat="43.98729" lon="2.2822">
        <ele>408</ele>
        <time>2021-04-18T09:19:54Z</time>
      </trkpt>
      <trkpt lat="43.98729" lon="2.28222">
        <ele>409</ele>
        <time>2021-04-18T09:19:55Z</time>
      </trkpt>
      <trkpt lat="43.9873" lon="2.28223">
        <ele>409</ele>
        <time>2021-04-18T09:19:56Z</time>
      </trkpt>
      <trkpt lat="43.9873" lon="2.28225">
        <ele>408</ele>
        <time>2021-04-18T09:19:57Z</time>
      </trkpt>
      <trkpt lat="43.9873" lon="2.28225">
        <ele>408</ele>
        <time>2021-04-18T09:19:58Z</time>
      </trkpt>
      <trkpt lat="43.9873" lon="2.28225">
        <ele>408</ele>
        <time>2021-04-18T09:19:59Z</time>
      </trkpt>
      <trkpt lat="43.9873" lon="2.28225">
        <ele>408</ele>
        <time>2021-04-18T09:19:59Z</time>
      </trkpt>
      <trkpt lat="43.9873" lon="2.28225">
        <ele>408</ele>
        <time>2021-04-18T09:19:59Z</time>
      </trkpt>
      <trkpt lat="43.98729" lon="2.2823">
        <ele>407</ele>
        <time>2021-04-18T09:20:05Z</time>
      </trkpt>
      <trkpt lat="43.98729" lon="2.28231">
        <ele>407</ele>
        <time>2021-04-18T09:20:06Z</time>
      </trkpt>
      <trkpt lat="43.98728" lon="2.28232">
        <ele>406</ele>
        <time>2021-04-18T09:20:07Z</time>
      </trkpt>
      <trkpt lat="43.98728" lon="2.28232">
        <ele>406</ele>
        <time>2021-04-18T09:20:08Z</time>
      </trkpt>
      <trkpt lat="43.98727" lon="2.28233">
        <ele>405</ele>
        <time>2021-04-18T09:20:09Z</time>
      </trkpt>
      <trkpt lat="43.98727" lon="2.28235">
        <ele>405</ele>
        <time>2021-04-18T09:20:10Z</time>
      </trkpt>
      <trkpt lat="43.98726" lon="2.28236">
        <ele>404</ele>
        <time>2021-04-18T09:20:11Z</time>
      </trkpt>
      <trkpt lat="43.98726" lon="2.28237">
        <ele>404</ele>
        <time>2021-04-18T09:20:12Z</time>
      </trkpt>
      <trkpt lat="43.98726" lon="2.28238">
        <ele>405</ele>
        <time>2021-04-18T09:20:13Z</time>
      </trkpt>
      <trkpt lat="43.98726" lon="2.28239">
        <ele>404</ele>
        <time>2021-04-18T09:20:14Z</time>
      </trkpt>
      <trkpt lat="43.98726" lon="2.2824">
        <ele>404</ele>
        <time>2021-04-18T09:20:15Z</time>
      </trkpt>
      <trkpt lat="43.98726" lon="2.28242">
        <ele>404</ele>
        <time>2021-04-18T09:20:16Z</time>
      </trkpt>
      <trkpt lat="43.98726" lon="2.28243">
        <ele>403</ele>
        <time>2021-04-18T09:20:17Z</time>
      </trkpt>
      <trkpt lat="43.98725" lon="2.28245">
        <ele>403</ele>
        <time>2021-04-18T09:20:18Z</time>
      </trkpt>
      <trkpt lat="43.98725" lon="2.28246">
        <ele>403</ele>
        <time>2021-04-18T09:20:19Z</time>
      </trkpt>
      <trkpt lat="43.98725" lon="2.28247">
        <ele>403</ele>
        <time>2021-04-18T09:20:20Z</time>
      </trkpt>
      <trkpt lat="43.98724" lon="2.28248">
        <ele>404</ele>
        <time>2021-04-18T09:20:21Z</time>
      </trkpt>
      <trkpt lat="43.98724" lon="2.2825">
        <ele>403</ele>
        <time>2021-04-18T09:20:22Z</time>
      </trkpt>
      <trkpt lat="43.98723" lon="2.2825">
        <ele>403</ele>
        <time>2021-04-18T09:20:23Z</time>
      </trkpt>
      <trkpt lat="43.98723" lon="2.28251">
        <ele>403</ele>
        <time>2021-04-18T09:20:24Z</time>
      </trkpt>
      <trkpt lat="43.98722" lon="2.28253">
        <ele>403</ele>
        <time>2021-04-18T09:20:25Z</time>
      </trkpt>
      <trkpt lat="43.98722" lon="2.28254">
        <ele>402</ele>
        <time>2021-04-18T09:20:26Z</time>
      </trkpt>
      <trkpt lat="43.98721" lon="2.28255">
        <ele>403</ele>
        <time>2021-04-18T09:20:27Z</time>
      </trkpt>
      <trkpt lat="43.98721" lon="2.28256">
        <ele>402</ele>
        <time>2021-04-18T09:20:28Z</time>
      </trkpt>
      <trkpt lat="43.98721" lon="2.28258">
        <ele>402</ele>
        <time>2021-04-18T09:20:29Z</time>
      </trkpt>
      <trkpt lat="43.98721" lon="2.2826">
        <ele>403</ele>
        <time>2021-04-18T09:20:30Z</time>
      </trkpt>
      <trkpt lat="43.9872" lon="2.28262">
        <ele>403</ele>
        <time>2021-04-18T09:20:31Z</time>
      </trkpt>
      <trkpt lat="43.9872" lon="2.28264">
        <ele>403</ele>
        <time>2021-04-18T09:20:32Z</time>
      </trkpt>
      <trkpt lat="43.98719" lon="2.28266">
        <ele>403</ele>
        <time>2021-04-18T09:20:33Z</time>
      </trkpt>
      <trkpt lat="43.98719" lon="2.28268">
        <ele>403</ele>
        <time>2021-04-18T09:20:34Z</time>
      </trkpt>
      <trkpt lat="43.98719" lon="2.28269">
        <ele>403</ele>
        <time>2021-04-18T09:20:35Z</time>
      </trkpt>
      <trkpt lat="43.98719" lon="2.2827">
        <ele>403</ele>
        <time>2021-04-18T09:20:36Z</time>
      </trkpt>
      <trkpt lat="43.98718" lon="2.28271">
        <ele>402</ele>
        <time>2021-04-18T09:20:37Z</time>
      </trkpt>
      <trkpt lat="43.98718" lon="2.28272">
        <ele>403</ele>
        <time>2021-04-18T09:20:38Z</time>
      </trkpt>
      <trkpt lat="43.98718" lon="2.28273">
        <ele>401</ele>
        <time>2021-04-18T09:20:39Z</time>
      </trkpt>
      <trkpt lat="43.98718" lon="2.28274">
        <ele>401</ele>
        <time>2021-04-18T09:20:40Z</time>
      </trkpt>
      <trkpt lat="43.98717" lon="2.28275">
        <ele>400</ele>
        <time>2021-04-18T09:20:41Z</time>
      </trkpt>
      <trkpt lat="43.98716" lon="2.28276">
        <ele>399</ele>
        <time>2021-04-18T09:20:42Z</time>
      </trkpt>
      <trkpt lat="43.98716" lon="2.28277">
        <ele>400</ele>
        <time>2021-04-18T09:20:43Z</time>
      </trkpt>
      <trkpt lat="43.98715" lon="2.28278">
        <ele>401</ele>
        <time>2021-04-18T09:20:44Z</time>
      </trkpt>
      <trkpt lat="43.98715" lon="2.28279">
        <ele>402</ele>
        <time>2021-04-18T09:20:45Z</time>
      </trkpt>
      <trkpt lat="43.98714" lon="2.28281">
        <ele>402</ele>
        <time>2021-04-18T09:20:46Z</time>
      </trkpt>
      <trkpt lat="43.98714" lon="2.28282">
        <ele>401</ele>
        <time>2021-04-18T09:20:47Z</time>
      </trkpt>
      <trkpt lat="43.98714" lon="2.28282">
        <ele>401</ele>
        <time>2021-04-18T09:20:48Z</time>
      </trkpt>
      <trkpt lat="43.98714" lon="2.28282">
        <ele>401</ele>
        <time>2021-04-18T09:20:49Z</time>
      </trkpt>
      <trkpt lat="43.98713" lon="2.28285">
        <ele>399</ele>
        <time>2021-04-18T09:20:50Z</time>
      </trkpt>
      <trkpt lat="43.98713" lon="2.28285">
        <ele>398</ele>
        <time>2021-04-18T09:20:51Z</time>
      </trkpt>
      <trkpt lat="43.98713" lon="2.28285">
        <ele>397</ele>
        <time>2021-04-18T09:20:52Z</time>
      </trkpt>
      <trkpt lat="43.98713" lon="2.28286">
        <ele>396</ele>
        <time>2021-04-18T09:20:53Z</time>
      </trkpt>
      <trkpt lat="43.98713" lon="2.28286">
        <ele>396</ele>
        <time>2021-04-18T09:20:54Z</time>
      </trkpt>
      <trkpt lat="43.98713" lon="2.28286">
        <ele>396</ele>
        <time>2021-04-18T09:20:55Z</time>
      </trkpt>
      <trkpt lat="43.98712" lon="2.28287">
        <ele>395</ele>
        <time>2021-04-18T09:20:56Z</time>
      </trkpt>
      <trkpt lat="43.98711" lon="2.28288">
        <ele>395</ele>
        <time>2021-04-18T09:20:57Z</time>
      </trkpt>
      <trkpt lat="43.98711" lon="2.28289">
        <ele>395</ele>
        <time>2021-04-18T09:20:58Z</time>
      </trkpt>
      <trkpt lat="43.9871" lon="2.2829">
        <ele>395</ele>
        <time>2021-04-18T09:20:59Z</time>
      </trkpt>
      <trkpt lat="43.9871" lon="2.2829">
        <ele>395</ele>
        <time>2021-04-18T09:21:00Z</time>
      </trkpt>
      <trkpt lat="43.9871" lon="2.2829">
        <ele>395</ele>
        <time>2021-04-18T09:21:01Z</time>
      </trkpt>
      <trkpt lat="43.98708" lon="2.28292">
        <ele>394</ele>
        <time>2021-04-18T09:21:02Z</time>
      </trkpt>
      <trkpt lat="43.98708" lon="2.28292">
        <ele>394</ele>
        <time>2021-04-18T09:21:03Z</time>
      </trkpt>
      <trkpt lat="43.98707" lon="2.28293">
        <ele>393</ele>
        <time>2021-04-18T09:21:04Z</time>
      </trkpt>
      <trkpt lat="43.98706" lon="2.28295">
        <ele>393</ele>
        <time>2021-04-18T09:21:05Z</time>
      </trkpt>
      <trkpt lat="43.98706" lon="2.28295">
        <ele>393</ele>
        <time>2021-04-18T09:21:05Z</time>
      </trkpt>
      <trkpt lat="43.98706" lon="2.28295">
        <ele>393</ele>
        <time>2021-04-18T09:21:05Z</time>
      </trkpt>
      <trkpt lat="43.98708" lon="2.28303">
        <ele>392</ele>
        <time>2021-04-18T09:21:13Z</time>
      </trkpt>
      <trkpt lat="43.98706" lon="2.28303">
        <ele>392</ele>
        <time>2021-04-18T09:21:14Z</time>
      </trkpt>
      <trkpt lat="43.98705" lon="2.28303">
        <ele>392</ele>
        <time>2021-04-18T09:21:15Z</time>
      </trkpt>
      <trkpt lat="43.98703" lon="2.28304">
        <ele>392</ele>
        <time>2021-04-18T09:21:16Z</time>
      </trkpt>
      <trkpt lat="43.98702" lon="2.28305">
        <ele>392</ele>
        <time>2021-04-18T09:21:17Z</time>
      </trkpt>
      <trkpt lat="43.98701" lon="2.28306">
        <ele>392</ele>
        <time>2021-04-18T09:21:18Z</time>
      </trkpt>
      <trkpt lat="43.987" lon="2.28307">
        <ele>392</ele>
        <time>2021-04-18T09:21:19Z</time>
      </trkpt>
      <trkpt lat="43.98698" lon="2.28308">
        <ele>391</ele>
        <time>2021-04-18T09:21:20Z</time>
      </trkpt>
      <trkpt lat="43.98697" lon="2.2831">
        <ele>392</ele>
        <time>2021-04-18T09:21:21Z</time>
      </trkpt>
      <trkpt lat="43.98696" lon="2.28311">
        <ele>393</ele>
        <time>2021-04-18T09:21:22Z</time>
      </trkpt>
      <trkpt lat="43.98695" lon="2.28312">
        <ele>393</ele>
        <time>2021-04-18T09:21:23Z</time>
      </trkpt>
      <trkpt lat="43.98694" lon="2.28313">
        <ele>393</ele>
        <time>2021-04-18T09:21:24Z</time>
      </trkpt>
      <trkpt lat="43.98693" lon="2.28315">
        <ele>393</ele>
        <time>2021-04-18T09:21:25Z</time>
      </trkpt>
      <trkpt lat="43.98693" lon="2.28316">
        <ele>393</ele>
        <time>2021-04-18T09:21:26Z</time>
      </trkpt>
      <trkpt lat="43.98692" lon="2.28316">
        <ele>392</ele>
        <time>2021-04-18T09:21:27Z</time>
      </trkpt>
      <trkpt lat="43.98692" lon="2.28316">
        <ele>392</ele>
        <time>2021-04-18T09:21:28Z</time>
      </trkpt>
      <trkpt lat="43.9869" lon="2.28318">
        <ele>392</ele>
        <time>2021-04-18T09:21:29Z</time>
      </trkpt>
      <trkpt lat="43.98689" lon="2.28319">
        <ele>391</ele>
        <time>2021-04-18T09:21:30Z</time>
      </trkpt>
      <trkpt lat="43.98687" lon="2.2832">
        <ele>390</ele>
        <time>2021-04-18T09:21:31Z</time>
      </trkpt>
      <trkpt lat="43.98686" lon="2.28321">
        <ele>390</ele>
        <time>2021-04-18T09:21:32Z</time>
      </trkpt>
      <trkpt lat="43.98684" lon="2.28322">
        <ele>390</ele>
        <time>2021-04-18T09:21:33Z</time>
      </trkpt>
      <trkpt lat="43.98683" lon="2.28322">
        <ele>390</ele>
        <time>2021-04-18T09:21:34Z</time>
      </trkpt>
      <trkpt lat="43.98682" lon="2.28322">
        <ele>391</ele>
        <time>2021-04-18T09:21:35Z</time>
      </trkpt>
      <trkpt lat="43.98681" lon="2.28322">
        <ele>390</ele>
        <time>2021-04-18T09:21:36Z</time>
      </trkpt>
      <trkpt lat="43.98679" lon="2.28322">
        <ele>391</ele>
        <time>2021-04-18T09:21:37Z</time>
      </trkpt>
      <trkpt lat="43.98679" lon="2.28323">
        <ele>391</ele>
        <time>2021-04-18T09:21:38Z</time>
      </trkpt>
      <trkpt lat="43.98678" lon="2.28324">
        <ele>391</ele>
        <time>2021-04-18T09:21:39Z</time>
      </trkpt>
      <trkpt lat="43.98678" lon="2.28325">
        <ele>391</ele>
        <time>2021-04-18T09:21:40Z</time>
      </trkpt>
      <trkpt lat="43.98678" lon="2.28325">
        <ele>391</ele>
        <time>2021-04-18T09:21:41Z</time>
      </trkpt>
      <trkpt lat="43.98676" lon="2.28326">
        <ele>390</ele>
        <time>2021-04-18T09:21:42Z</time>
      </trkpt>
      <trkpt lat="43.98676" lon="2.28326">
        <ele>390</ele>
        <time>2021-04-18T09:21:43Z</time>
      </trkpt>
      <trkpt lat="43.98674" lon="2.28327">
        <ele>389</ele>
        <time>2021-04-18T09:21:44Z</time>
      </trkpt>
      <trkpt lat="43.98673" lon="2.28327">
        <ele>390</ele>
        <time>2021-04-18T09:21:45Z</time>
      </trkpt>
      <trkpt lat="43.98673" lon="2.28328">
        <ele>389</ele>
        <time>2021-04-18T09:21:46Z</time>
      </trkpt>
      <trkpt lat="43.98671" lon="2.28327">
        <ele>390</ele>
        <time>2021-04-18T09:21:47Z</time>
      </trkpt>
      <trkpt lat="43.98669" lon="2.28327">
        <ele>389</ele>
        <time>2021-04-18T09:21:48Z</time>
      </trkpt>
      <trkpt lat="43.98668" lon="2.28327">
        <ele>389</ele>
        <time>2021-04-18T09:21:49Z</time>
      </trkpt>
      <trkpt lat="43.98666" lon="2.28328">
        <ele>390</ele>
        <time>2021-04-18T09:21:50Z</time>
      </trkpt>
      <trkpt lat="43.98665" lon="2.28328">
        <ele>390</ele>
        <time>2021-04-18T09:21:51Z</time>
      </trkpt>
      <trkpt lat="43.98663" lon="2.28329">
        <ele>390</ele>
        <time>2021-04-18T09:21:52Z</time>
      </trkpt>
      <trkpt lat="43.98661" lon="2.2833">
        <ele>390</ele>
        <time>2021-04-18T09:21:53Z</time>
      </trkpt>
      <trkpt lat="43.98659" lon="2.2833">
        <ele>389</ele>
        <time>2021-04-18T09:21:54Z</time>
      </trkpt>
      <trkpt lat="43.98658" lon="2.2833">
        <ele>389</ele>
        <time>2021-04-18T09:21:55Z</time>
      </trkpt>
      <trkpt lat="43.98657" lon="2.28331">
        <ele>389</ele>
        <time>2021-04-18T09:21:56Z</time>
      </trkpt>
      <trkpt lat="43.98655" lon="2.28332">
        <ele>388</ele>
        <time>2021-04-18T09:21:57Z</time>
      </trkpt>
      <trkpt lat="43.98654" lon="2.28332">
        <ele>389</ele>
        <time>2021-04-18T09:21:58Z</time>
      </trkpt>
      <trkpt lat="43.98653" lon="2.28333">
        <ele>388</ele>
        <time>2021-04-18T09:21:59Z</time>
      </trkpt>
      <trkpt lat="43.98652" lon="2.28334">
        <ele>389</ele>
        <time>2021-04-18T09:22:00Z</time>
      </trkpt>
      <trkpt lat="43.9865" lon="2.28334">
        <ele>389</ele>
        <time>2021-04-18T09:22:01Z</time>
      </trkpt>
      <trkpt lat="43.98649" lon="2.28334">
        <ele>389</ele>
        <time>2021-04-18T09:22:02Z</time>
      </trkpt>
      <trkpt lat="43.98647" lon="2.28334">
        <ele>388</ele>
        <time>2021-04-18T09:22:03Z</time>
      </trkpt>
      <trkpt lat="43.98645" lon="2.28334">
        <ele>388</ele>
        <time>2021-04-18T09:22:04Z</time>
      </trkpt>
      <trkpt lat="43.98644" lon="2.28334">
        <ele>388</ele>
        <time>2021-04-18T09:22:05Z</time>
      </trkpt>
      <trkpt lat="43.98643" lon="2.28335">
        <ele>387</ele>
        <time>2021-04-18T09:22:06Z</time>
      </trkpt>
      <trkpt lat="43.98641" lon="2.28336">
        <ele>387</ele>
        <time>2021-04-18T09:22:07Z</time>
      </trkpt>
      <trkpt lat="43.9864" lon="2.28336">
        <ele>387</ele>
        <time>2021-04-18T09:22:08Z</time>
      </trkpt>
      <trkpt lat="43.98639" lon="2.28336">
        <ele>387</ele>
        <time>2021-04-18T09:22:09Z</time>
      </trkpt>
      <trkpt lat="43.98638" lon="2.28337">
        <ele>386</ele>
        <time>2021-04-18T09:22:10Z</time>
      </trkpt>
      <trkpt lat="43.98637" lon="2.28338">
        <ele>386</ele>
        <time>2021-04-18T09:22:11Z</time>
      </trkpt>
      <trkpt lat="43.98636" lon="2.2834">
        <ele>386</ele>
        <time>2021-04-18T09:22:12Z</time>
      </trkpt>
      <trkpt lat="43.98635" lon="2.28341">
        <ele>386</ele>
        <time>2021-04-18T09:22:13Z</time>
      </trkpt>
      <trkpt lat="43.98634" lon="2.28342">
        <ele>386</ele>
        <time>2021-04-18T09:22:14Z</time>
      </trkpt>
      <trkpt lat="43.98633" lon="2.28342">
        <ele>386</ele>
        <time>2021-04-18T09:22:15Z</time>
      </trkpt>
      <trkpt lat="43.98632" lon="2.28343">
        <ele>386</ele>
        <time>2021-04-18T09:22:16Z</time>
      </trkpt>
      <trkpt lat="43.98631" lon="2.28343">
        <ele>386</ele>
        <time>2021-04-18T09:22:17Z</time>
      </trkpt>
      <trkpt lat="43.98629" lon="2.28343">
        <ele>386</ele>
        <time>2021-04-18T09:22:18Z</time>
      </trkpt>
      <trkpt lat="43.98628" lon="2.28343">
        <ele>386</ele>
        <time>2021-04-18T09:22:19Z</time>
      </trkpt>
      <trkpt lat="43.98626" lon="2.28343">
        <ele>386</ele>
        <time>2021-04-18T09:22:20Z</time>
      </trkpt>
      <trkpt lat="43.98625" lon="2.28344">
        <ele>386</ele>
        <time>2021-04-18T09:22:21Z</time>
      </trkpt>
      <trkpt lat="43.98624" lon="2.28345">
        <ele>385</ele>
        <time>2021-04-18T09:22:22Z</time>
      </trkpt>
      <trkpt lat="43.98623" lon="2.28346">
        <ele>385</ele>
        <time>2021-04-18T09:22:23Z</time>
      </trkpt>
      <trkpt lat="43.98622" lon="2.28347">
        <ele>385</ele>
        <time>2021-04-18T09:22:24Z</time>
      </trkpt>
      <trkpt lat="43.98621" lon="2.28348">
        <ele>385</ele>
        <time>2021-04-18T09:22:25Z</time>
      </trkpt>
      <trkpt lat="43.9862" lon="2.2835">
        <ele>384</ele>
        <time>2021-04-18T09:22:26Z</time>
      </trkpt>
      <trkpt lat="43.98619" lon="2.2835">
        <ele>384</ele>
        <time>2021-04-18T09:22:27Z</time>
      </trkpt>
      <trkpt lat="43.98618" lon="2.28353">
        <ele>384</ele>
        <time>2021-04-18T09:22:28Z</time>
      </trkpt>
      <trkpt lat="43.98616" lon="2.28354">
        <ele>384</ele>
        <time>2021-04-18T09:22:29Z</time>
      </trkpt>
      <trkpt lat="43.98615" lon="2.28355">
        <ele>384</ele>
        <time>2021-04-18T09:22:30Z</time>
      </trkpt>
      <trkpt lat="43.98614" lon="2.28356">
        <ele>383</ele>
        <time>2021-04-18T09:22:31Z</time>
      </trkpt>
      <trkpt lat="43.98613" lon="2.28357">
        <ele>382</ele>
        <time>2021-04-18T09:22:32Z</time>
      </trkpt>
      <trkpt lat="43.98612" lon="2.2836">
        <ele>381</ele>
        <time>2021-04-18T09:22:33Z</time>
      </trkpt>
      <trkpt lat="43.98612" lon="2.28361">
        <ele>381</ele>
        <time>2021-04-18T09:22:34Z</time>
      </trkpt>
      <trkpt lat="43.98611" lon="2.28363">
        <ele>381</ele>
        <time>2021-04-18T09:22:35Z</time>
      </trkpt>
      <trkpt lat="43.9861" lon="2.28365">
        <ele>381</ele>
        <time>2021-04-18T09:22:36Z</time>
      </trkpt>
      <trkpt lat="43.98608" lon="2.28367">
        <ele>381</ele>
        <time>2021-04-18T09:22:37Z</time>
      </trkpt>
      <trkpt lat="43.98608" lon="2.28368">
        <ele>382</ele>
        <time>2021-04-18T09:22:38Z</time>
      </trkpt>
      <trkpt lat="43.98606" lon="2.28369">
        <ele>382</ele>
        <time>2021-04-18T09:22:39Z</time>
      </trkpt>
      <trkpt lat="43.98604" lon="2.28369">
        <ele>381</ele>
        <time>2021-04-18T09:22:40Z</time>
      </trkpt>
      <trkpt lat="43.98603" lon="2.28371">
        <ele>381</ele>
        <time>2021-04-18T09:22:41Z</time>
      </trkpt>
      <trkpt lat="43.98602" lon="2.28372">
        <ele>382</ele>
        <time>2021-04-18T09:22:42Z</time>
      </trkpt>
      <trkpt lat="43.98601" lon="2.28373">
        <ele>381</ele>
        <time>2021-04-18T09:22:43Z</time>
      </trkpt>
      <trkpt lat="43.98599" lon="2.28374">
        <ele>381</ele>
        <time>2021-04-18T09:22:44Z</time>
      </trkpt>
      <trkpt lat="43.98597" lon="2.28376">
        <ele>380</ele>
        <time>2021-04-18T09:22:45Z</time>
      </trkpt>
      <trkpt lat="43.98596" lon="2.28377">
        <ele>380</ele>
        <time>2021-04-18T09:22:46Z</time>
      </trkpt>
      <trkpt lat="43.98595" lon="2.28378">
        <ele>380</ele>
        <time>2021-04-18T09:22:47Z</time>
      </trkpt>
      <trkpt lat="43.98594" lon="2.28379">
        <ele>379</ele>
        <time>2021-04-18T09:22:48Z</time>
      </trkpt>
      <trkpt lat="43.98593" lon="2.2838">
        <ele>379</ele>
        <time>2021-04-18T09:22:49Z</time>
      </trkpt>
      <trkpt lat="43.98592" lon="2.28381">
        <ele>379</ele>
        <time>2021-04-18T09:22:50Z</time>
      </trkpt>
      <trkpt lat="43.98591" lon="2.28382">
        <ele>379</ele>
        <time>2021-04-18T09:22:51Z</time>
      </trkpt>
      <trkpt lat="43.9859" lon="2.28383">
        <ele>379</ele>
        <time>2021-04-18T09:22:52Z</time>
      </trkpt>
      <trkpt lat="43.98589" lon="2.28384">
        <ele>379</ele>
        <time>2021-04-18T09:22:53Z</time>
      </trkpt>
      <trkpt lat="43.98587" lon="2.28385">
        <ele>379</ele>
        <time>2021-04-18T09:22:54Z</time>
      </trkpt>
      <trkpt lat="43.98587" lon="2.28387">
        <ele>379</ele>
        <time>2021-04-18T09:22:55Z</time>
      </trkpt>
      <trkpt lat="43.98585" lon="2.28388">
        <ele>379</ele>
        <time>2021-04-18T09:22:56Z</time>
      </trkpt>
      <trkpt lat="43.98584" lon="2.28389">
        <ele>379</ele>
        <time>2021-04-18T09:22:57Z</time>
      </trkpt>
      <trkpt lat="43.98583" lon="2.2839">
        <ele>379</ele>
        <time>2021-04-18T09:22:58Z</time>
      </trkpt>
      <trkpt lat="43.98581" lon="2.28392">
        <ele>380</ele>
        <time>2021-04-18T09:22:59Z</time>
      </trkpt>
      <trkpt lat="43.98581" lon="2.28393">
        <ele>380</ele>
        <time>2021-04-18T09:23:00Z</time>
      </trkpt>
      <trkpt lat="43.98579" lon="2.28394">
        <ele>379</ele>
        <time>2021-04-18T09:23:01Z</time>
      </trkpt>
      <trkpt lat="43.98578" lon="2.28395">
        <ele>379</ele>
        <time>2021-04-18T09:23:02Z</time>
      </trkpt>
      <trkpt lat="43.98577" lon="2.28397">
        <ele>379</ele>
        <time>2021-04-18T09:23:03Z</time>
      </trkpt>
      <trkpt lat="43.98576" lon="2.28398">
        <ele>379</ele>
        <time>2021-04-18T09:23:04Z</time>
      </trkpt>
      <trkpt lat="43.98574" lon="2.28399">
        <ele>379</ele>
        <time>2021-04-18T09:23:05Z</time>
      </trkpt>
      <trkpt lat="43.98574" lon="2.284">
        <ele>379</ele>
        <time>2021-04-18T09:23:06Z</time>
      </trkpt>
      <trkpt lat="43.98573" lon="2.28401">
        <ele>379</ele>
        <time>2021-04-18T09:23:07Z</time>
      </trkpt>
      <trkpt lat="43.98572" lon="2.28401">
        <ele>379</ele>
        <time>2021-04-18T09:23:08Z</time>
      </trkpt>
      <trkpt lat="43.9857" lon="2.28402">
        <ele>378</ele>
        <time>2021-04-18T09:23:09Z</time>
      </trkpt>
      <trkpt lat="43.98569" lon="2.28403">
        <ele>378</ele>
        <time>2021-04-18T09:23:10Z</time>
      </trkpt>
      <trkpt lat="43.98568" lon="2.28404">
        <ele>377</ele>
        <time>2021-04-18T09:23:11Z</time>
      </trkpt>
      <trkpt lat="43.98566" lon="2.28405">
        <ele>377</ele>
        <time>2021-04-18T09:23:12Z</time>
      </trkpt>
      <trkpt lat="43.98564" lon="2.28406">
        <ele>377</ele>
        <time>2021-04-18T09:23:13Z</time>
      </trkpt>
      <trkpt lat="43.98563" lon="2.28406">
        <ele>377</ele>
        <time>2021-04-18T09:23:14Z</time>
      </trkpt>
      <trkpt lat="43.98562" lon="2.28407">
        <ele>376</ele>
        <time>2021-04-18T09:23:15Z</time>
      </trkpt>
      <trkpt lat="43.9856" lon="2.28407">
        <ele>376</ele>
        <time>2021-04-18T09:23:16Z</time>
      </trkpt>
      <trkpt lat="43.98558" lon="2.28406">
        <ele>375</ele>
        <time>2021-04-18T09:23:17Z</time>
      </trkpt>
      <trkpt lat="43.98557" lon="2.28407">
        <ele>375</ele>
        <time>2021-04-18T09:23:18Z</time>
      </trkpt>
      <trkpt lat="43.98555" lon="2.28407">
        <ele>375</ele>
        <time>2021-04-18T09:23:19Z</time>
      </trkpt>
      <trkpt lat="43.98554" lon="2.28406">
        <ele>375</ele>
        <time>2021-04-18T09:23:20Z</time>
      </trkpt>
      <trkpt lat="43.98554" lon="2.28405">
        <ele>375</ele>
        <time>2021-04-18T09:23:21Z</time>
      </trkpt>
      <trkpt lat="43.98553" lon="2.28404">
        <ele>374</ele>
        <time>2021-04-18T09:23:22Z</time>
      </trkpt>
      <trkpt lat="43.98552" lon="2.28402">
        <ele>375</ele>
        <time>2021-04-18T09:23:23Z</time>
      </trkpt>
      <trkpt lat="43.98551" lon="2.28401">
        <ele>375</ele>
        <time>2021-04-18T09:23:24Z</time>
      </trkpt>
      <trkpt lat="43.9855" lon="2.28401">
        <ele>375</ele>
        <time>2021-04-18T09:23:25Z</time>
      </trkpt>
      <trkpt lat="43.98549" lon="2.284">
        <ele>374</ele>
        <time>2021-04-18T09:23:26Z</time>
      </trkpt>
      <trkpt lat="43.98549" lon="2.284">
        <ele>374</ele>
        <time>2021-04-18T09:23:27Z</time>
      </trkpt>
      <trkpt lat="43.98547" lon="2.28399">
        <ele>374</ele>
        <time>2021-04-18T09:23:28Z</time>
      </trkpt>
      <trkpt lat="43.98547" lon="2.28399">
        <ele>375</ele>
        <time>2021-04-18T09:23:29Z</time>
      </trkpt>
      <trkpt lat="43.98546" lon="2.28398">
        <ele>375</ele>
        <time>2021-04-18T09:23:30Z</time>
      </trkpt>
      <trkpt lat="43.98545" lon="2.28397">
        <ele>374</ele>
        <time>2021-04-18T09:23:31Z</time>
      </trkpt>
      <trkpt lat="43.98544" lon="2.28395">
        <ele>374</ele>
        <time>2021-04-18T09:23:32Z</time>
      </trkpt>
      <trkpt lat="43.98543" lon="2.28394">
        <ele>374</ele>
        <time>2021-04-18T09:23:33Z</time>
      </trkpt>
      <trkpt lat="43.98542" lon="2.28394">
        <ele>374</ele>
        <time>2021-04-18T09:23:34Z</time>
      </trkpt>
      <trkpt lat="43.98541" lon="2.28392">
        <ele>373</ele>
        <time>2021-04-18T09:23:35Z</time>
      </trkpt>
      <trkpt lat="43.98541" lon="2.28391">
        <ele>373</ele>
        <time>2021-04-18T09:23:36Z</time>
      </trkpt>
      <trkpt lat="43.9854" lon="2.2839">
        <ele>373</ele>
        <time>2021-04-18T09:23:37Z</time>
      </trkpt>
      <trkpt lat="43.98539" lon="2.28388">
        <ele>373</ele>
        <time>2021-04-18T09:23:38Z</time>
      </trkpt>
      <trkpt lat="43.98538" lon="2.28386">
        <ele>373</ele>
        <time>2021-04-18T09:23:39Z</time>
      </trkpt>
      <trkpt lat="43.98538" lon="2.28385">
        <ele>373</ele>
        <time>2021-04-18T09:23:40Z</time>
      </trkpt>
      <trkpt lat="43.98537" lon="2.28383">
        <ele>373</ele>
        <time>2021-04-18T09:23:41Z</time>
      </trkpt>
      <trkpt lat="43.98536" lon="2.28382">
        <ele>372</ele>
        <time>2021-04-18T09:23:42Z</time>
      </trkpt>
      <trkpt lat="43.98536" lon="2.28381">
        <ele>373</ele>
        <time>2021-04-18T09:23:43Z</time>
      </trkpt>
      <trkpt lat="43.98535" lon="2.2838">
        <ele>373</ele>
        <time>2021-04-18T09:23:44Z</time>
      </trkpt>
      <trkpt lat="43.98534" lon="2.28378">
        <ele>373</ele>
        <time>2021-04-18T09:23:45Z</time>
      </trkpt>
      <trkpt lat="43.98534" lon="2.28376">
        <ele>373</ele>
        <time>2021-04-18T09:23:46Z</time>
      </trkpt>
      <trkpt lat="43.98534" lon="2.28374">
        <ele>373</ele>
        <time>2021-04-18T09:23:47Z</time>
      </trkpt>
      <trkpt lat="43.98534" lon="2.28372">
        <ele>373</ele>
        <time>2021-04-18T09:23:48Z</time>
      </trkpt>
      <trkpt lat="43.98533" lon="2.2837">
        <ele>372</ele>
        <time>2021-04-18T09:23:49Z</time>
      </trkpt>
      <trkpt lat="43.98532" lon="2.28367">
        <ele>373</ele>
        <time>2021-04-18T09:23:50Z</time>
      </trkpt>
      <trkpt lat="43.98532" lon="2.28366">
        <ele>372</ele>
        <time>2021-04-18T09:23:51Z</time>
      </trkpt>
      <trkpt lat="43.98531" lon="2.28363">
        <ele>372</ele>
        <time>2021-04-18T09:23:52Z</time>
      </trkpt>
      <trkpt lat="43.98529" lon="2.28361">
        <ele>372</ele>
        <time>2021-04-18T09:23:53Z</time>
      </trkpt>
      <trkpt lat="43.98529" lon="2.2836">
        <ele>372</ele>
        <time>2021-04-18T09:23:54Z</time>
      </trkpt>
      <trkpt lat="43.98528" lon="2.28358">
        <ele>372</ele>
        <time>2021-04-18T09:23:55Z</time>
      </trkpt>
      <trkpt lat="43.98527" lon="2.28356">
        <ele>372</ele>
        <time>2021-04-18T09:23:56Z</time>
      </trkpt>
      <trkpt lat="43.98526" lon="2.28354">
        <ele>372</ele>
        <time>2021-04-18T09:23:57Z</time>
      </trkpt>
      <trkpt lat="43.98525" lon="2.28353">
        <ele>373</ele>
        <time>2021-04-18T09:23:58Z</time>
      </trkpt>
      <trkpt lat="43.98523" lon="2.28351">
        <ele>372</ele>
        <time>2021-04-18T09:23:59Z</time>
      </trkpt>
      <trkpt lat="43.98522" lon="2.28349">
        <ele>372</ele>
        <time>2021-04-18T09:24:00Z</time>
      </trkpt>
      <trkpt lat="43.9852" lon="2.28348">
        <ele>372</ele>
        <time>2021-04-18T09:24:01Z</time>
      </trkpt>
      <trkpt lat="43.98519" lon="2.28347">
        <ele>371</ele>
        <time>2021-04-18T09:24:02Z</time>
      </trkpt>
      <trkpt lat="43.98517" lon="2.28346">
        <ele>371</ele>
        <time>2021-04-18T09:24:03Z</time>
      </trkpt>
      <trkpt lat="43.98515" lon="2.28345">
        <ele>370</ele>
        <time>2021-04-18T09:24:04Z</time>
      </trkpt>
      <trkpt lat="43.98514" lon="2.28343">
        <ele>370</ele>
        <time>2021-04-18T09:24:05Z</time>
      </trkpt>
      <trkpt lat="43.98512" lon="2.28341">
        <ele>370</ele>
        <time>2021-04-18T09:24:06Z</time>
      </trkpt>
      <trkpt lat="43.98511" lon="2.2834">
        <ele>370</ele>
        <time>2021-04-18T09:24:07Z</time>
      </trkpt>
      <trkpt lat="43.98509" lon="2.28339">
        <ele>370</ele>
        <time>2021-04-18T09:24:08Z</time>
      </trkpt>
      <trkpt lat="43.98507" lon="2.28339">
        <ele>369</ele>
        <time>2021-04-18T09:24:09Z</time>
      </trkpt>
      <trkpt lat="43.98505" lon="2.28339">
        <ele>369</ele>
        <time>2021-04-18T09:24:10Z</time>
      </trkpt>
      <trkpt lat="43.98503" lon="2.2834">
        <ele>368</ele>
        <time>2021-04-18T09:24:11Z</time>
      </trkpt>
      <trkpt lat="43.98502" lon="2.28339">
        <ele>368</ele>
        <time>2021-04-18T09:24:12Z</time>
      </trkpt>
      <trkpt lat="43.98502" lon="2.2834">
        <ele>367</ele>
        <time>2021-04-18T09:24:13Z</time>
      </trkpt>
      <trkpt lat="43.98504" lon="2.28342">
        <ele>366</ele>
        <time>2021-04-18T09:24:14Z</time>
      </trkpt>
      <trkpt lat="43.98504" lon="2.28343">
        <ele>366</ele>
        <time>2021-04-18T09:24:15Z</time>
      </trkpt>
      <trkpt lat="43.98504" lon="2.28345">
        <ele>365</ele>
        <time>2021-04-18T09:24:16Z</time>
      </trkpt>
      <trkpt lat="43.98504" lon="2.28345">
        <ele>365</ele>
        <time>2021-04-18T09:24:17Z</time>
      </trkpt>
      <trkpt lat="43.98504" lon="2.28345">
        <ele>365</ele>
        <time>2021-04-18T09:24:18Z</time>
      </trkpt>
      <trkpt lat="43.98505" lon="2.28345">
        <ele>363</ele>
        <time>2021-04-18T09:24:19Z</time>
      </trkpt>
      <trkpt lat="43.98505" lon="2.28345">
        <ele>363</ele>
        <time>2021-04-18T09:24:19Z</time>
      </trkpt>
      <trkpt lat="43.98505" lon="2.28345">
        <ele>363</ele>
        <time>2021-04-18T09:24:19Z</time>
      </trkpt>
      <trkpt lat="43.98497" lon="2.28345">
        <ele>363</ele>
        <time>2021-04-18T09:24:33Z</time>
      </trkpt>
      <trkpt lat="43.98496" lon="2.28344">
        <ele>364</ele>
        <time>2021-04-18T09:24:34Z</time>
      </trkpt>
      <trkpt lat="43.98496" lon="2.28343">
        <ele>364</ele>
        <time>2021-04-18T09:24:35Z</time>
      </trkpt>
      <trkpt lat="43.98496" lon="2.28343">
        <ele>364</ele>
        <time>2021-04-18T09:24:36Z</time>
      </trkpt>
      <trkpt lat="43.98496" lon="2.28343">
        <ele>364</ele>
        <time>2021-04-18T09:24:37Z</time>
      </trkpt>
      <trkpt lat="43.98496" lon="2.28343">
        <ele>364</ele>
        <time>2021-04-18T09:24:37Z</time>
      </trkpt>
      <trkpt lat="43.98496" lon="2.28343">
        <ele>364</ele>
        <time>2021-04-18T09:24:37Z</time>
      </trkpt>
      <trkpt lat="43.98491" lon="2.28341">
        <ele>363</ele>
        <time>2021-04-18T09:24:47Z</time>
      </trkpt>
      <trkpt lat="43.9849" lon="2.2834">
        <ele>363</ele>
        <time>2021-04-18T09:24:48Z</time>
      </trkpt>
      <trkpt lat="43.98489" lon="2.2834">
        <ele>364</ele>
        <time>2021-04-18T09:24:49Z</time>
      </trkpt>
      <trkpt lat="43.98488" lon="2.28339">
        <ele>364</ele>
        <time>2021-04-18T09:24:50Z</time>
      </trkpt>
      <trkpt lat="43.98487" lon="2.28339">
        <ele>365</ele>
        <time>2021-04-18T09:24:51Z</time>
      </trkpt>
      <trkpt lat="43.98486" lon="2.28338">
        <ele>365</ele>
        <time>2021-04-18T09:24:52Z</time>
      </trkpt>
      <trkpt lat="43.98484" lon="2.28337">
        <ele>365</ele>
        <time>2021-04-18T09:24:53Z</time>
      </trkpt>
      <trkpt lat="43.98483" lon="2.28337">
        <ele>365</ele>
        <time>2021-04-18T09:24:54Z</time>
      </trkpt>
      <trkpt lat="43.98482" lon="2.28336">
        <ele>366</ele>
        <time>2021-04-18T09:24:55Z</time>
      </trkpt>
      <trkpt lat="43.98481" lon="2.28336">
        <ele>366</ele>
        <time>2021-04-18T09:24:56Z</time>
      </trkpt>
      <trkpt lat="43.9848" lon="2.28335">
        <ele>366</ele>
        <time>2021-04-18T09:24:57Z</time>
      </trkpt>
      <trkpt lat="43.98479" lon="2.28334">
        <ele>366</ele>
        <time>2021-04-18T09:24:58Z</time>
      </trkpt>
      <trkpt lat="43.98478" lon="2.28334">
        <ele>365</ele>
        <time>2021-04-18T09:24:59Z</time>
      </trkpt>
      <trkpt lat="43.98476" lon="2.28333">
        <ele>365</ele>
        <time>2021-04-18T09:25:00Z</time>
      </trkpt>
      <trkpt lat="43.98476" lon="2.28332">
        <ele>364</ele>
        <time>2021-04-18T09:25:01Z</time>
      </trkpt>
      <trkpt lat="43.98475" lon="2.28332">
        <ele>364</ele>
        <time>2021-04-18T09:25:02Z</time>
      </trkpt>
      <trkpt lat="43.98474" lon="2.28331">
        <ele>363</ele>
        <time>2021-04-18T09:25:03Z</time>
      </trkpt>
      <trkpt lat="43.98473" lon="2.2833">
        <ele>363</ele>
        <time>2021-04-18T09:25:04Z</time>
      </trkpt>
      <trkpt lat="43.98472" lon="2.28329">
        <ele>363</ele>
        <time>2021-04-18T09:25:05Z</time>
      </trkpt>
      <trkpt lat="43.98472" lon="2.28328">
        <ele>363</ele>
        <time>2021-04-18T09:25:06Z</time>
      </trkpt>
      <trkpt lat="43.98471" lon="2.28328">
        <ele>363</ele>
        <time>2021-04-18T09:25:07Z</time>
      </trkpt>
      <trkpt lat="43.9847" lon="2.28328">
        <ele>362</ele>
        <time>2021-04-18T09:25:08Z</time>
      </trkpt>
      <trkpt lat="43.98468" lon="2.28327">
        <ele>362</ele>
        <time>2021-04-18T09:25:09Z</time>
      </trkpt>
      <trkpt lat="43.98467" lon="2.28326">
        <ele>362</ele>
        <time>2021-04-18T09:25:10Z</time>
      </trkpt>
      <trkpt lat="43.98466" lon="2.28325">
        <ele>362</ele>
        <time>2021-04-18T09:25:11Z</time>
      </trkpt>
      <trkpt lat="43.98465" lon="2.28325">
        <ele>362</ele>
        <time>2021-04-18T09:25:12Z</time>
      </trkpt>
      <trkpt lat="43.98464" lon="2.28324">
        <ele>362</ele>
        <time>2021-04-18T09:25:13Z</time>
      </trkpt>
      <trkpt lat="43.98462" lon="2.28324">
        <ele>361</ele>
        <time>2021-04-18T09:25:14Z</time>
      </trkpt>
      <trkpt lat="43.98461" lon="2.28323">
        <ele>361</ele>
        <time>2021-04-18T09:25:15Z</time>
      </trkpt>
      <trkpt lat="43.9846" lon="2.28323">
        <ele>360</ele>
        <time>2021-04-18T09:25:16Z</time>
      </trkpt>
      <trkpt lat="43.98459" lon="2.28322">
        <ele>360</ele>
        <time>2021-04-18T09:25:17Z</time>
      </trkpt>
      <trkpt lat="43.98457" lon="2.28321">
        <ele>360</ele>
        <time>2021-04-18T09:25:18Z</time>
      </trkpt>
      <trkpt lat="43.98457" lon="2.2832">
        <ele>360</ele>
        <time>2021-04-18T09:25:19Z</time>
      </trkpt>
      <trkpt lat="43.98455" lon="2.28319">
        <ele>360</ele>
        <time>2021-04-18T09:25:20Z</time>
      </trkpt>
      <trkpt lat="43.98454" lon="2.28319">
        <ele>360</ele>
        <time>2021-04-18T09:25:21Z</time>
      </trkpt>
      <trkpt lat="43.98453" lon="2.28318">
        <ele>360</ele>
        <time>2021-04-18T09:25:22Z</time>
      </trkpt>
      <trkpt lat="43.98451" lon="2.28317">
        <ele>360</ele>
        <time>2021-04-18T09:25:23Z</time>
      </trkpt>
      <trkpt lat="43.9845" lon="2.28316">
        <ele>359</ele>
        <time>2021-04-18T09:25:24Z</time>
      </trkpt>
      <trkpt lat="43.98449" lon="2.28315">
        <ele>359</ele>
        <time>2021-04-18T09:25:25Z</time>
      </trkpt>
      <trkpt lat="43.98448" lon="2.28314">
        <ele>359</ele>
        <time>2021-04-18T09:25:26Z</time>
      </trkpt>
      <trkpt lat="43.98447" lon="2.28313">
        <ele>359</ele>
        <time>2021-04-18T09:25:27Z</time>
      </trkpt>
      <trkpt lat="43.98446" lon="2.28313">
        <ele>359</ele>
        <time>2021-04-18T09:25:28Z</time>
      </trkpt>
      <trkpt lat="43.98445" lon="2.28312">
        <ele>360</ele>
        <time>2021-04-18T09:25:29Z</time>
      </trkpt>
      <trkpt lat="43.98444" lon="2.28311">
        <ele>359</ele>
        <time>2021-04-18T09:25:30Z</time>
      </trkpt>
      <trkpt lat="43.98443" lon="2.28311">
        <ele>359</ele>
        <time>2021-04-18T09:25:31Z</time>
      </trkpt>
      <trkpt lat="43.98442" lon="2.2831">
        <ele>359</ele>
        <time>2021-04-18T09:25:32Z</time>
      </trkpt>
      <trkpt lat="43.98441" lon="2.28309">
        <ele>358</ele>
        <time>2021-04-18T09:25:33Z</time>
      </trkpt>
      <trkpt lat="43.98439" lon="2.28309">
        <ele>358</ele>
        <time>2021-04-18T09:25:34Z</time>
      </trkpt>
      <trkpt lat="43.98438" lon="2.28308">
        <ele>358</ele>
        <time>2021-04-18T09:25:35Z</time>
      </trkpt>
      <trkpt lat="43.98437" lon="2.28307">
        <ele>358</ele>
        <time>2021-04-18T09:25:36Z</time>
      </trkpt>
      <trkpt lat="43.98436" lon="2.28307">
        <ele>358</ele>
        <time>2021-04-18T09:25:37Z</time>
      </trkpt>
      <trkpt lat="43.98434" lon="2.28307">
        <ele>358</ele>
        <time>2021-04-18T09:25:38Z</time>
      </trkpt>
      <trkpt lat="43.98433" lon="2.28307">
        <ele>359</ele>
        <time>2021-04-18T09:25:39Z</time>
      </trkpt>
      <trkpt lat="43.98433" lon="2.28306">
        <ele>359</ele>
        <time>2021-04-18T09:25:40Z</time>
      </trkpt>
      <trkpt lat="43.98431" lon="2.28306">
        <ele>359</ele>
        <time>2021-04-18T09:25:41Z</time>
      </trkpt>
      <trkpt lat="43.9843" lon="2.28306">
        <ele>359</ele>
        <time>2021-04-18T09:25:42Z</time>
      </trkpt>
      <trkpt lat="43.98429" lon="2.28305">
        <ele>360</ele>
        <time>2021-04-18T09:25:43Z</time>
      </trkpt>
      <trkpt lat="43.98428" lon="2.28305">
        <ele>361</ele>
        <time>2021-04-18T09:25:44Z</time>
      </trkpt>
      <trkpt lat="43.98426" lon="2.28304">
        <ele>360</ele>
        <time>2021-04-18T09:25:45Z</time>
      </trkpt>
      <trkpt lat="43.98425" lon="2.28304">
        <ele>361</ele>
        <time>2021-04-18T09:25:46Z</time>
      </trkpt>
      <trkpt lat="43.98424" lon="2.28305">
        <ele>361</ele>
        <time>2021-04-18T09:25:47Z</time>
      </trkpt>
      <trkpt lat="43.98422" lon="2.28305">
        <ele>361</ele>
        <time>2021-04-18T09:25:48Z</time>
      </trkpt>
      <trkpt lat="43.98421" lon="2.28306">
        <ele>362</ele>
        <time>2021-04-18T09:25:49Z</time>
      </trkpt>
      <trkpt lat="43.98419" lon="2.28307">
        <ele>362</ele>
        <time>2021-04-18T09:25:50Z</time>
      </trkpt>
      <trkpt lat="43.98418" lon="2.28307">
        <ele>362</ele>
        <time>2021-04-18T09:25:51Z</time>
      </trkpt>
      <trkpt lat="43.98417" lon="2.28308">
        <ele>362</ele>
        <time>2021-04-18T09:25:52Z</time>
      </trkpt>
      <trkpt lat="43.98416" lon="2.28309">
        <ele>362</ele>
        <time>2021-04-18T09:25:53Z</time>
      </trkpt>
      <trkpt lat="43.98415" lon="2.28311">
        <ele>363</ele>
        <time>2021-04-18T09:25:54Z</time>
      </trkpt>
      <trkpt lat="43.98414" lon="2.28312">
        <ele>363</ele>
        <time>2021-04-18T09:25:55Z</time>
      </trkpt>
      <trkpt lat="43.98412" lon="2.28313">
        <ele>362</ele>
        <time>2021-04-18T09:25:56Z</time>
      </trkpt>
      <trkpt lat="43.98412" lon="2.28315">
        <ele>362</ele>
        <time>2021-04-18T09:25:57Z</time>
      </trkpt>
      <trkpt lat="43.98411" lon="2.28316">
        <ele>362</ele>
        <time>2021-04-18T09:25:58Z</time>
      </trkpt>
      <trkpt lat="43.98411" lon="2.28317">
        <ele>362</ele>
        <time>2021-04-18T09:25:59Z</time>
      </trkpt>
      <trkpt lat="43.9841" lon="2.28319">
        <ele>362</ele>
        <time>2021-04-18T09:26:00Z</time>
      </trkpt>
      <trkpt lat="43.98409" lon="2.2832">
        <ele>361</ele>
        <time>2021-04-18T09:26:01Z</time>
      </trkpt>
      <trkpt lat="43.98408" lon="2.28321">
        <ele>361</ele>
        <time>2021-04-18T09:26:02Z</time>
      </trkpt>
      <trkpt lat="43.98407" lon="2.28322">
        <ele>361</ele>
        <time>2021-04-18T09:26:03Z</time>
      </trkpt>
      <trkpt lat="43.98406" lon="2.28323">
        <ele>361</ele>
        <time>2021-04-18T09:26:04Z</time>
      </trkpt>
      <trkpt lat="43.98406" lon="2.28325">
        <ele>361</ele>
        <time>2021-04-18T09:26:05Z</time>
      </trkpt>
      <trkpt lat="43.98404" lon="2.28326">
        <ele>360</ele>
        <time>2021-04-18T09:26:06Z</time>
      </trkpt>
      <trkpt lat="43.98404" lon="2.28327">
        <ele>360</ele>
        <time>2021-04-18T09:26:07Z</time>
      </trkpt>
      <trkpt lat="43.98403" lon="2.2833">
        <ele>360</ele>
        <time>2021-04-18T09:26:08Z</time>
      </trkpt>
      <trkpt lat="43.98402" lon="2.28331">
        <ele>359</ele>
        <time>2021-04-18T09:26:09Z</time>
      </trkpt>
      <trkpt lat="43.98401" lon="2.28333">
        <ele>358</ele>
        <time>2021-04-18T09:26:10Z</time>
      </trkpt>
      <trkpt lat="43.98401" lon="2.28335">
        <ele>358</ele>
        <time>2021-04-18T09:26:11Z</time>
      </trkpt>
      <trkpt lat="43.98401" lon="2.28336">
        <ele>358</ele>
        <time>2021-04-18T09:26:12Z</time>
      </trkpt>
      <trkpt lat="43.984" lon="2.28338">
        <ele>358</ele>
        <time>2021-04-18T09:26:13Z</time>
      </trkpt>
      <trkpt lat="43.98399" lon="2.2834">
        <ele>357</ele>
        <time>2021-04-18T09:26:14Z</time>
      </trkpt>
      <trkpt lat="43.98399" lon="2.28342">
        <ele>357</ele>
        <time>2021-04-18T09:26:15Z</time>
      </trkpt>
      <trkpt lat="43.98399" lon="2.28344">
        <ele>357</ele>
        <time>2021-04-18T09:26:16Z</time>
      </trkpt>
      <trkpt lat="43.98399" lon="2.28347">
        <ele>357</ele>
        <time>2021-04-18T09:26:17Z</time>
      </trkpt>
      <trkpt lat="43.98399" lon="2.28349">
        <ele>357</ele>
        <time>2021-04-18T09:26:18Z</time>
      </trkpt>
      <trkpt lat="43.98401" lon="2.28351">
        <ele>357</ele>
        <time>2021-04-18T09:26:19Z</time>
      </trkpt>
      <trkpt lat="43.98401" lon="2.28354">
        <ele>356</ele>
        <time>2021-04-18T09:26:20Z</time>
      </trkpt>
      <trkpt lat="43.98401" lon="2.28355">
        <ele>356</ele>
        <time>2021-04-18T09:26:21Z</time>
      </trkpt>
      <trkpt lat="43.98402" lon="2.28357">
        <ele>356</ele>
        <time>2021-04-18T09:26:22Z</time>
      </trkpt>
      <trkpt lat="43.98403" lon="2.28359">
        <ele>356</ele>
        <time>2021-04-18T09:26:23Z</time>
      </trkpt>
      <trkpt lat="43.98404" lon="2.28361">
        <ele>356</ele>
        <time>2021-04-18T09:26:24Z</time>
      </trkpt>
      <trkpt lat="43.98405" lon="2.28362">
        <ele>356</ele>
        <time>2021-04-18T09:26:25Z</time>
      </trkpt>
      <trkpt lat="43.98406" lon="2.28364">
        <ele>357</ele>
        <time>2021-04-18T09:26:26Z</time>
      </trkpt>
      <trkpt lat="43.98407" lon="2.28366">
        <ele>357</ele>
        <time>2021-04-18T09:26:27Z</time>
      </trkpt>
      <trkpt lat="43.98408" lon="2.28368">
        <ele>358</ele>
        <time>2021-04-18T09:26:28Z</time>
      </trkpt>
      <trkpt lat="43.98409" lon="2.28368">
        <ele>358</ele>
        <time>2021-04-18T09:26:29Z</time>
      </trkpt>
      <trkpt lat="43.9841" lon="2.2837">
        <ele>359</ele>
        <time>2021-04-18T09:26:31Z</time>
      </trkpt>
      <trkpt lat="43.9841" lon="2.2837">
        <ele>360</ele>
        <time>2021-04-18T09:26:31Z</time>
      </trkpt>
      <trkpt lat="43.98412" lon="2.28372">
        <ele>361</ele>
        <time>2021-04-18T09:26:32Z</time>
      </trkpt>
      <trkpt lat="43.98413" lon="2.28374">
        <ele>361</ele>
        <time>2021-04-18T09:26:34Z</time>
      </trkpt>
      <trkpt lat="43.98414" lon="2.28375">
        <ele>362</ele>
        <time>2021-04-18T09:26:35Z</time>
      </trkpt>
      <trkpt lat="43.98416" lon="2.28376">
        <ele>362</ele>
        <time>2021-04-18T09:26:36Z</time>
      </trkpt>
      <trkpt lat="43.98417" lon="2.28376">
        <ele>362</ele>
        <time>2021-04-18T09:26:37Z</time>
      </trkpt>
      <trkpt lat="43.98418" lon="2.28377">
        <ele>362</ele>
        <time>2021-04-18T09:26:38Z</time>
      </trkpt>
      <trkpt lat="43.98419" lon="2.28378">
        <ele>362</ele>
        <time>2021-04-18T09:26:39Z</time>
      </trkpt>
      <trkpt lat="43.98421" lon="2.28379">
        <ele>362</ele>
        <time>2021-04-18T09:26:40Z</time>
      </trkpt>
      <trkpt lat="43.98422" lon="2.2838">
        <ele>362</ele>
        <time>2021-04-18T09:26:41Z</time>
      </trkpt>
      <trkpt lat="43.98423" lon="2.2838">
        <ele>363</ele>
        <time>2021-04-18T09:26:42Z</time>
      </trkpt>
      <trkpt lat="43.98425" lon="2.28381">
        <ele>363</ele>
        <time>2021-04-18T09:26:43Z</time>
      </trkpt>
      <trkpt lat="43.98426" lon="2.28382">
        <ele>363</ele>
        <time>2021-04-18T09:26:44Z</time>
      </trkpt>
      <trkpt lat="43.98428" lon="2.28382">
        <ele>363</ele>
        <time>2021-04-18T09:26:45Z</time>
      </trkpt>
      <trkpt lat="43.98429" lon="2.28384">
        <ele>363</ele>
        <time>2021-04-18T09:26:46Z</time>
      </trkpt>
      <trkpt lat="43.9843" lon="2.28385">
        <ele>364</ele>
        <time>2021-04-18T09:26:47Z</time>
      </trkpt>
      <trkpt lat="43.98431" lon="2.28386">
        <ele>363</ele>
        <time>2021-04-18T09:26:48Z</time>
      </trkpt>
      <trkpt lat="43.98433" lon="2.28387">
        <ele>363</ele>
        <time>2021-04-18T09:26:49Z</time>
      </trkpt>
      <trkpt lat="43.98434" lon="2.28388">
        <ele>363</ele>
        <time>2021-04-18T09:26:50Z</time>
      </trkpt>
      <trkpt lat="43.98436" lon="2.2839">
        <ele>364</ele>
        <time>2021-04-18T09:26:51Z</time>
      </trkpt>
      <trkpt lat="43.98437" lon="2.28391">
        <ele>364</ele>
        <time>2021-04-18T09:26:52Z</time>
      </trkpt>
      <trkpt lat="43.98438" lon="2.28392">
        <ele>364</ele>
        <time>2021-04-18T09:26:53Z</time>
      </trkpt>
      <trkpt lat="43.98439" lon="2.28394">
        <ele>365</ele>
        <time>2021-04-18T09:26:54Z</time>
      </trkpt>
      <trkpt lat="43.98441" lon="2.28395">
        <ele>365</ele>
        <time>2021-04-18T09:26:55Z</time>
      </trkpt>
      <trkpt lat="43.98443" lon="2.28397">
        <ele>365</ele>
        <time>2021-04-18T09:26:56Z</time>
      </trkpt>
      <trkpt lat="43.98444" lon="2.28398">
        <ele>364</ele>
        <time>2021-04-18T09:26:57Z</time>
      </trkpt>
      <trkpt lat="43.98446" lon="2.28399">
        <ele>364</ele>
        <time>2021-04-18T09:26:58Z</time>
      </trkpt>
      <trkpt lat="43.98447" lon="2.28401">
        <ele>364</ele>
        <time>2021-04-18T09:26:59Z</time>
      </trkpt>
      <trkpt lat="43.98447" lon="2.28402">
        <ele>364</ele>
        <time>2021-04-18T09:27:00Z</time>
      </trkpt>
      <trkpt lat="43.98449" lon="2.28403">
        <ele>364</ele>
        <time>2021-04-18T09:27:01Z</time>
      </trkpt>
      <trkpt lat="43.9845" lon="2.28404">
        <ele>364</ele>
        <time>2021-04-18T09:27:02Z</time>
      </trkpt>
      <trkpt lat="43.98451" lon="2.28405">
        <ele>364</ele>
        <time>2021-04-18T09:27:03Z</time>
      </trkpt>
      <trkpt lat="43.98452" lon="2.28406">
        <ele>364</ele>
        <time>2021-04-18T09:27:04Z</time>
      </trkpt>
      <trkpt lat="43.98453" lon="2.28407">
        <ele>365</ele>
        <time>2021-04-18T09:27:05Z</time>
      </trkpt>
      <trkpt lat="43.98454" lon="2.28408">
        <ele>365</ele>
        <time>2021-04-18T09:27:06Z</time>
      </trkpt>
      <trkpt lat="43.98455" lon="2.28409">
        <ele>365</ele>
        <time>2021-04-18T09:27:07Z</time>
      </trkpt>
      <trkpt lat="43.98457" lon="2.28409">
        <ele>365</ele>
        <time>2021-04-18T09:27:08Z</time>
      </trkpt>
      <trkpt lat="43.98458" lon="2.28408">
        <ele>365</ele>
        <time>2021-04-18T09:27:09Z</time>
      </trkpt>
      <trkpt lat="43.98458" lon="2.28408">
        <ele>364</ele>
        <time>2021-04-18T09:27:10Z</time>
      </trkpt>
      <trkpt lat="43.98459" lon="2.28408">
        <ele>363</ele>
        <time>2021-04-18T09:27:11Z</time>
      </trkpt>
      <trkpt lat="43.98459" lon="2.28408">
        <ele>361</ele>
        <time>2021-04-18T09:27:12Z</time>
      </trkpt>
      <trkpt lat="43.98459" lon="2.28408">
        <ele>360</ele>
        <time>2021-04-18T09:27:13Z</time>
      </trkpt>
      <trkpt lat="43.98459" lon="2.28409">
        <ele>360</ele>
        <time>2021-04-18T09:27:14Z</time>
      </trkpt>
      <trkpt lat="43.98459" lon="2.2841">
        <ele>360</ele>
        <time>2021-04-18T09:27:15Z</time>
      </trkpt>
      <trkpt lat="43.9846" lon="2.28412">
        <ele>360</ele>
        <time>2021-04-18T09:27:16Z</time>
      </trkpt>
      <trkpt lat="43.98461" lon="2.28413">
        <ele>360</ele>
        <time>2021-04-18T09:27:17Z</time>
      </trkpt>
      <trkpt lat="43.98462" lon="2.28414">
        <ele>360</ele>
        <time>2021-04-18T09:27:18Z</time>
      </trkpt>
      <trkpt lat="43.98463" lon="2.28416">
        <ele>360</ele>
        <time>2021-04-18T09:27:19Z</time>
      </trkpt>
      <trkpt lat="43.98464" lon="2.28418">
        <ele>361</ele>
        <time>2021-04-18T09:27:20Z</time>
      </trkpt>
      <trkpt lat="43.98465" lon="2.28419">
        <ele>361</ele>
        <time>2021-04-18T09:27:21Z</time>
      </trkpt>
      <trkpt lat="43.98465" lon="2.28421">
        <ele>361</ele>
        <time>2021-04-18T09:27:22Z</time>
      </trkpt>
      <trkpt lat="43.98467" lon="2.28423">
        <ele>361</ele>
        <time>2021-04-18T09:27:23Z</time>
      </trkpt>
      <trkpt lat="43.98468" lon="2.28425">
        <ele>361</ele>
        <time>2021-04-18T09:27:24Z</time>
      </trkpt>
      <trkpt lat="43.98469" lon="2.28427">
        <ele>361</ele>
        <time>2021-04-18T09:27:25Z</time>
      </trkpt>
      <trkpt lat="43.9847" lon="2.28429">
        <ele>361</ele>
        <time>2021-04-18T09:27:26Z</time>
      </trkpt>
      <trkpt lat="43.98471" lon="2.2843">
        <ele>362</ele>
        <time>2021-04-18T09:27:27Z</time>
      </trkpt>
      <trkpt lat="43.98472" lon="2.28431">
        <ele>362</ele>
        <time>2021-04-18T09:27:28Z</time>
      </trkpt>
      <trkpt lat="43.98473" lon="2.28432">
        <ele>362</ele>
        <time>2021-04-18T09:27:29Z</time>
      </trkpt>
      <trkpt lat="43.98474" lon="2.28434">
        <ele>362</ele>
        <time>2021-04-18T09:27:30Z</time>
      </trkpt>
      <trkpt lat="43.98475" lon="2.28435">
        <ele>362</ele>
        <time>2021-04-18T09:27:31Z</time>
      </trkpt>
      <trkpt lat="43.98476" lon="2.28437">
        <ele>363</ele>
        <time>2021-04-18T09:27:32Z</time>
      </trkpt>
      <trkpt lat="43.98476" lon="2.28439">
        <ele>363</ele>
        <time>2021-04-18T09:27:33Z</time>
      </trkpt>
      <trkpt lat="43.98477" lon="2.2844">
        <ele>363</ele>
        <time>2021-04-18T09:27:34Z</time>
      </trkpt>
      <trkpt lat="43.98477" lon="2.28441">
        <ele>364</ele>
        <time>2021-04-18T09:27:35Z</time>
      </trkpt>
      <trkpt lat="43.98478" lon="2.28443">
        <ele>364</ele>
        <time>2021-04-18T09:27:36Z</time>
      </trkpt>
      <trkpt lat="43.98478" lon="2.28444">
        <ele>364</ele>
        <time>2021-04-18T09:27:37Z</time>
      </trkpt>
      <trkpt lat="43.98479" lon="2.28445">
        <ele>364</ele>
        <time>2021-04-18T09:27:38Z</time>
      </trkpt>
      <trkpt lat="43.9848" lon="2.28447">
        <ele>365</ele>
        <time>2021-04-18T09:27:39Z</time>
      </trkpt>
      <trkpt lat="43.9848" lon="2.28448">
        <ele>366</ele>
        <time>2021-04-18T09:27:40Z</time>
      </trkpt>
      <trkpt lat="43.98481" lon="2.28449">
        <ele>366</ele>
        <time>2021-04-18T09:27:41Z</time>
      </trkpt>
      <trkpt lat="43.98482" lon="2.28451">
        <ele>367</ele>
        <time>2021-04-18T09:27:42Z</time>
      </trkpt>
      <trkpt lat="43.98483" lon="2.28453">
        <ele>367</ele>
        <time>2021-04-18T09:27:43Z</time>
      </trkpt>
      <trkpt lat="43.98483" lon="2.28455">
        <ele>368</ele>
        <time>2021-04-18T09:27:44Z</time>
      </trkpt>
      <trkpt lat="43.98484" lon="2.28456">
        <ele>368</ele>
        <time>2021-04-18T09:27:45Z</time>
      </trkpt>
      <trkpt lat="43.98485" lon="2.28458">
        <ele>368</ele>
        <time>2021-04-18T09:27:46Z</time>
      </trkpt>
      <trkpt lat="43.98486" lon="2.2846">
        <ele>368</ele>
        <time>2021-04-18T09:27:47Z</time>
      </trkpt>
      <trkpt lat="43.98486" lon="2.28461">
        <ele>369</ele>
        <time>2021-04-18T09:27:48Z</time>
      </trkpt>
      <trkpt lat="43.98487" lon="2.28463">
        <ele>369</ele>
        <time>2021-04-18T09:27:49Z</time>
      </trkpt>
      <trkpt lat="43.98488" lon="2.28465">
        <ele>370</ele>
        <time>2021-04-18T09:27:50Z</time>
      </trkpt>
      <trkpt lat="43.98489" lon="2.28467">
        <ele>369</ele>
        <time>2021-04-18T09:27:51Z</time>
      </trkpt>
      <trkpt lat="43.98489" lon="2.28469">
        <ele>369</ele>
        <time>2021-04-18T09:27:52Z</time>
      </trkpt>
      <trkpt lat="43.9849" lon="2.28471">
        <ele>369</ele>
        <time>2021-04-18T09:27:53Z</time>
      </trkpt>
      <trkpt lat="43.9849" lon="2.28472">
        <ele>369</ele>
        <time>2021-04-18T09:27:54Z</time>
      </trkpt>
      <trkpt lat="43.98491" lon="2.28473">
        <ele>369</ele>
        <time>2021-04-18T09:27:55Z</time>
      </trkpt>
      <trkpt lat="43.98492" lon="2.28475">
        <ele>369</ele>
        <time>2021-04-18T09:27:56Z</time>
      </trkpt>
      <trkpt lat="43.98492" lon="2.28476">
        <ele>369</ele>
        <time>2021-04-18T09:27:57Z</time>
      </trkpt>
      <trkpt lat="43.98493" lon="2.28477">
        <ele>369</ele>
        <time>2021-04-18T09:27:58Z</time>
      </trkpt>
      <trkpt lat="43.98494" lon="2.28479">
        <ele>369</ele>
        <time>2021-04-18T09:27:59Z</time>
      </trkpt>
      <trkpt lat="43.98495" lon="2.2848">
        <ele>369</ele>
        <time>2021-04-18T09:28:00Z</time>
      </trkpt>
      <trkpt lat="43.98496" lon="2.28482">
        <ele>370</ele>
        <time>2021-04-18T09:28:01Z</time>
      </trkpt>
      <trkpt lat="43.98497" lon="2.28484">
        <ele>371</ele>
        <time>2021-04-18T09:28:02Z</time>
      </trkpt>
      <trkpt lat="43.98497" lon="2.28485">
        <ele>371</ele>
        <time>2021-04-18T09:28:03Z</time>
      </trkpt>
      <trkpt lat="43.98498" lon="2.28487">
        <ele>371</ele>
        <time>2021-04-18T09:28:04Z</time>
      </trkpt>
      <trkpt lat="43.98499" lon="2.28489">
        <ele>371</ele>
        <time>2021-04-18T09:28:05Z</time>
      </trkpt>
      <trkpt lat="43.98499" lon="2.28491">
        <ele>371</ele>
        <time>2021-04-18T09:28:06Z</time>
      </trkpt>
      <trkpt lat="43.985" lon="2.28493">
        <ele>371</ele>
        <time>2021-04-18T09:28:07Z</time>
      </trkpt>
      <trkpt lat="43.985" lon="2.28495">
        <ele>371</ele>
        <time>2021-04-18T09:28:08Z</time>
      </trkpt>
      <trkpt lat="43.98502" lon="2.28497">
        <ele>371</ele>
        <time>2021-04-18T09:28:09Z</time>
      </trkpt>
      <trkpt lat="43.98503" lon="2.28499">
        <ele>371</ele>
        <time>2021-04-18T09:28:10Z</time>
      </trkpt>
      <trkpt lat="43.98504" lon="2.28501">
        <ele>371</ele>
        <time>2021-04-18T09:28:11Z</time>
      </trkpt>
      <trkpt lat="43.98505" lon="2.28502">
        <ele>372</ele>
        <time>2021-04-18T09:28:12Z</time>
      </trkpt>
      <trkpt lat="43.98507" lon="2.28503">
        <ele>372</ele>
        <time>2021-04-18T09:28:13Z</time>
      </trkpt>
      <trkpt lat="43.98508" lon="2.28504">
        <ele>373</ele>
        <time>2021-04-18T09:28:14Z</time>
      </trkpt>
      <trkpt lat="43.98509" lon="2.28505">
        <ele>373</ele>
        <time>2021-04-18T09:28:15Z</time>
      </trkpt>
      <trkpt lat="43.9851" lon="2.28506">
        <ele>373</ele>
        <time>2021-04-18T09:28:16Z</time>
      </trkpt>
      <trkpt lat="43.98512" lon="2.28507">
        <ele>374</ele>
        <time>2021-04-18T09:28:17Z</time>
      </trkpt>
      <trkpt lat="43.98513" lon="2.28508">
        <ele>374</ele>
        <time>2021-04-18T09:28:18Z</time>
      </trkpt>
      <trkpt lat="43.98514" lon="2.28509">
        <ele>373</ele>
        <time>2021-04-18T09:28:19Z</time>
      </trkpt>
      <trkpt lat="43.98515" lon="2.2851">
        <ele>374</ele>
        <time>2021-04-18T09:28:20Z</time>
      </trkpt>
      <trkpt lat="43.98517" lon="2.28511">
        <ele>374</ele>
        <time>2021-04-18T09:28:21Z</time>
      </trkpt>
      <trkpt lat="43.98518" lon="2.28512">
        <ele>375</ele>
        <time>2021-04-18T09:28:22Z</time>
      </trkpt>
      <trkpt lat="43.98519" lon="2.28513">
        <ele>375</ele>
        <time>2021-04-18T09:28:23Z</time>
      </trkpt>
      <trkpt lat="43.9852" lon="2.28514">
        <ele>375</ele>
        <time>2021-04-18T09:28:24Z</time>
      </trkpt>
      <trkpt lat="43.98521" lon="2.28516">
        <ele>375</ele>
        <time>2021-04-18T09:28:25Z</time>
      </trkpt>
      <trkpt lat="43.98523" lon="2.28517">
        <ele>375</ele>
        <time>2021-04-18T09:28:26Z</time>
      </trkpt>
      <trkpt lat="43.98524" lon="2.28519">
        <ele>375</ele>
        <time>2021-04-18T09:28:27Z</time>
      </trkpt>
      <trkpt lat="43.98525" lon="2.2852">
        <ele>375</ele>
        <time>2021-04-18T09:28:28Z</time>
      </trkpt>
      <trkpt lat="43.98526" lon="2.28521">
        <ele>375</ele>
        <time>2021-04-18T09:28:29Z</time>
      </trkpt>
      <trkpt lat="43.98526" lon="2.28523">
        <ele>375</ele>
        <time>2021-04-18T09:28:30Z</time>
      </trkpt>
      <trkpt lat="43.98527" lon="2.28524">
        <ele>375</ele>
        <time>2021-04-18T09:28:31Z</time>
      </trkpt>
      <trkpt lat="43.98528" lon="2.28526">
        <ele>375</ele>
        <time>2021-04-18T09:28:32Z</time>
      </trkpt>
      <trkpt lat="43.98529" lon="2.28528">
        <ele>375</ele>
        <time>2021-04-18T09:28:33Z</time>
      </trkpt>
      <trkpt lat="43.98529" lon="2.28529">
        <ele>375</ele>
        <time>2021-04-18T09:28:34Z</time>
      </trkpt>
      <trkpt lat="43.98531" lon="2.28531">
        <ele>374</ele>
        <time>2021-04-18T09:28:35Z</time>
      </trkpt>
      <trkpt lat="43.98532" lon="2.28533">
        <ele>374</ele>
        <time>2021-04-18T09:28:36Z</time>
      </trkpt>
      <trkpt lat="43.98533" lon="2.28534">
        <ele>374</ele>
        <time>2021-04-18T09:28:37Z</time>
      </trkpt>
      <trkpt lat="43.98535" lon="2.28536">
        <ele>374</ele>
        <time>2021-04-18T09:28:38Z</time>
      </trkpt>
      <trkpt lat="43.98536" lon="2.28537">
        <ele>374</ele>
        <time>2021-04-18T09:28:39Z</time>
      </trkpt>
      <trkpt lat="43.98538" lon="2.28539">
        <ele>375</ele>
        <time>2021-04-18T09:28:40Z</time>
      </trkpt>
      <trkpt lat="43.9854" lon="2.2854">
        <ele>375</ele>
        <time>2021-04-18T09:28:41Z</time>
      </trkpt>
      <trkpt lat="43.98541" lon="2.28541">
        <ele>375</ele>
        <time>2021-04-18T09:28:42Z</time>
      </trkpt>
      <trkpt lat="43.98542" lon="2.28543">
        <ele>375</ele>
        <time>2021-04-18T09:28:43Z</time>
      </trkpt>
      <trkpt lat="43.98544" lon="2.28544">
        <ele>375</ele>
        <time>2021-04-18T09:28:44Z</time>
      </trkpt>
      <trkpt lat="43.98545" lon="2.28544">
        <ele>376</ele>
        <time>2021-04-18T09:28:45Z</time>
      </trkpt>
      <trkpt lat="43.98546" lon="2.28545">
        <ele>376</ele>
        <time>2021-04-18T09:28:46Z</time>
      </trkpt>
      <trkpt lat="43.98548" lon="2.28545">
        <ele>376</ele>
        <time>2021-04-18T09:28:47Z</time>
      </trkpt>
      <trkpt lat="43.9855" lon="2.28546">
        <ele>376</ele>
        <time>2021-04-18T09:28:48Z</time>
      </trkpt>
      <trkpt lat="43.98551" lon="2.28546">
        <ele>377</ele>
        <time>2021-04-18T09:28:49Z</time>
      </trkpt>
      <trkpt lat="43.98552" lon="2.28547">
        <ele>377</ele>
        <time>2021-04-18T09:28:50Z</time>
      </trkpt>
      <trkpt lat="43.98554" lon="2.28548">
        <ele>378</ele>
        <time>2021-04-18T09:28:51Z</time>
      </trkpt>
      <trkpt lat="43.98555" lon="2.28548">
        <ele>378</ele>
        <time>2021-04-18T09:28:52Z</time>
      </trkpt>
      <trkpt lat="43.98556" lon="2.28549">
        <ele>378</ele>
        <time>2021-04-18T09:28:53Z</time>
      </trkpt>
      <trkpt lat="43.98558" lon="2.28549">
        <ele>379</ele>
        <time>2021-04-18T09:28:54Z</time>
      </trkpt>
      <trkpt lat="43.98559" lon="2.28549">
        <ele>380</ele>
        <time>2021-04-18T09:28:55Z</time>
      </trkpt>
      <trkpt lat="43.9856" lon="2.28548">
        <ele>381</ele>
        <time>2021-04-18T09:28:56Z</time>
      </trkpt>
      <trkpt lat="43.98562" lon="2.28547">
        <ele>381</ele>
        <time>2021-04-18T09:28:57Z</time>
      </trkpt>
      <trkpt lat="43.98563" lon="2.28547">
        <ele>381</ele>
        <time>2021-04-18T09:28:58Z</time>
      </trkpt>
      <trkpt lat="43.98565" lon="2.28547">
        <ele>381</ele>
        <time>2021-04-18T09:28:59Z</time>
      </trkpt>
      <trkpt lat="43.98566" lon="2.28547">
        <ele>381</ele>
        <time>2021-04-18T09:29:00Z</time>
      </trkpt>
      <trkpt lat="43.98568" lon="2.28546">
        <ele>382</ele>
        <time>2021-04-18T09:29:01Z</time>
      </trkpt>
      <trkpt lat="43.9857" lon="2.28546">
        <ele>382</ele>
        <time>2021-04-18T09:29:02Z</time>
      </trkpt>
      <trkpt lat="43.98571" lon="2.28547">
        <ele>382</ele>
        <time>2021-04-18T09:29:03Z</time>
      </trkpt>
      <trkpt lat="43.98573" lon="2.28547">
        <ele>382</ele>
        <time>2021-04-18T09:29:04Z</time>
      </trkpt>
      <trkpt lat="43.98574" lon="2.28547">
        <ele>382</ele>
        <time>2021-04-18T09:29:05Z</time>
      </trkpt>
      <trkpt lat="43.98576" lon="2.28546">
        <ele>382</ele>
        <time>2021-04-18T09:29:06Z</time>
      </trkpt>
      <trkpt lat="43.98578" lon="2.28547">
        <ele>382</ele>
        <time>2021-04-18T09:29:07Z</time>
      </trkpt>
      <trkpt lat="43.9858" lon="2.28546">
        <ele>382</ele>
        <time>2021-04-18T09:29:08Z</time>
      </trkpt>
      <trkpt lat="43.98582" lon="2.28546">
        <ele>383</ele>
        <time>2021-04-18T09:29:09Z</time>
      </trkpt>
      <trkpt lat="43.98584" lon="2.28545">
        <ele>383</ele>
        <time>2021-04-18T09:29:10Z</time>
      </trkpt>
      <trkpt lat="43.98586" lon="2.28544">
        <ele>383</ele>
        <time>2021-04-18T09:29:11Z</time>
      </trkpt>
      <trkpt lat="43.98587" lon="2.28544">
        <ele>383</ele>
        <time>2021-04-18T09:29:12Z</time>
      </trkpt>
      <trkpt lat="43.98589" lon="2.28544">
        <ele>383</ele>
        <time>2021-04-18T09:29:13Z</time>
      </trkpt>
      <trkpt lat="43.9859" lon="2.28544">
        <ele>383</ele>
        <time>2021-04-18T09:29:14Z</time>
      </trkpt>
      <trkpt lat="43.98592" lon="2.28543">
        <ele>382</ele>
        <time>2021-04-18T09:29:15Z</time>
      </trkpt>
      <trkpt lat="43.98593" lon="2.28543">
        <ele>381</ele>
        <time>2021-04-18T09:29:16Z</time>
      </trkpt>
      <trkpt lat="43.98595" lon="2.28543">
        <ele>381</ele>
        <time>2021-04-18T09:29:17Z</time>
      </trkpt>
      <trkpt lat="43.98596" lon="2.28544">
        <ele>382</ele>
        <time>2021-04-18T09:29:18Z</time>
      </trkpt>
      <trkpt lat="43.98598" lon="2.28544">
        <ele>382</ele>
        <time>2021-04-18T09:29:19Z</time>
      </trkpt>
      <trkpt lat="43.98599" lon="2.28544">
        <ele>381</ele>
        <time>2021-04-18T09:29:20Z</time>
      </trkpt>
      <trkpt lat="43.986" lon="2.28545">
        <ele>381</ele>
        <time>2021-04-18T09:29:21Z</time>
      </trkpt>
      <trkpt lat="43.98601" lon="2.28545">
        <ele>381</ele>
        <time>2021-04-18T09:29:22Z</time>
      </trkpt>
      <trkpt lat="43.98603" lon="2.28546">
        <ele>381</ele>
        <time>2021-04-18T09:29:23Z</time>
      </trkpt>
      <trkpt lat="43.98604" lon="2.28546">
        <ele>381</ele>
        <time>2021-04-18T09:29:24Z</time>
      </trkpt>
      <trkpt lat="43.98606" lon="2.28546">
        <ele>381</ele>
        <time>2021-04-18T09:29:25Z</time>
      </trkpt>
      <trkpt lat="43.98607" lon="2.28547">
        <ele>381</ele>
        <time>2021-04-18T09:29:26Z</time>
      </trkpt>
      <trkpt lat="43.98609" lon="2.28548">
        <ele>381</ele>
        <time>2021-04-18T09:29:27Z</time>
      </trkpt>
      <trkpt lat="43.9861" lon="2.28549">
        <ele>381</ele>
        <time>2021-04-18T09:29:28Z</time>
      </trkpt>
      <trkpt lat="43.9861" lon="2.2855">
        <ele>381</ele>
        <time>2021-04-18T09:29:29Z</time>
      </trkpt>
      <trkpt lat="43.98611" lon="2.28551">
        <ele>381</ele>
        <time>2021-04-18T09:29:30Z</time>
      </trkpt>
      <trkpt lat="43.98612" lon="2.28552">
        <ele>381</ele>
        <time>2021-04-18T09:29:31Z</time>
      </trkpt>
      <trkpt lat="43.98612" lon="2.28553">
        <ele>381</ele>
        <time>2021-04-18T09:29:32Z</time>
      </trkpt>
      <trkpt lat="43.98613" lon="2.28554">
        <ele>380</ele>
        <time>2021-04-18T09:29:33Z</time>
      </trkpt>
      <trkpt lat="43.98613" lon="2.28555">
        <ele>380</ele>
        <time>2021-04-18T09:29:34Z</time>
      </trkpt>
      <trkpt lat="43.98613" lon="2.28557">
        <ele>379</ele>
        <time>2021-04-18T09:29:35Z</time>
      </trkpt>
      <trkpt lat="43.98613" lon="2.28559">
        <ele>379</ele>
        <time>2021-04-18T09:29:36Z</time>
      </trkpt>
      <trkpt lat="43.98613" lon="2.2856">
        <ele>378</ele>
        <time>2021-04-18T09:29:37Z</time>
      </trkpt>
      <trkpt lat="43.98613" lon="2.28562">
        <ele>377</ele>
        <time>2021-04-18T09:29:38Z</time>
      </trkpt>
      <trkpt lat="43.98613" lon="2.28563">
        <ele>377</ele>
        <time>2021-04-18T09:29:39Z</time>
      </trkpt>
      <trkpt lat="43.98613" lon="2.28565">
        <ele>377</ele>
        <time>2021-04-18T09:29:40Z</time>
      </trkpt>
      <trkpt lat="43.98613" lon="2.28568">
        <ele>377</ele>
        <time>2021-04-18T09:29:41Z</time>
      </trkpt>
      <trkpt lat="43.98614" lon="2.2857">
        <ele>378</ele>
        <time>2021-04-18T09:29:42Z</time>
      </trkpt>
      <trkpt lat="43.98614" lon="2.28572">
        <ele>377</ele>
        <time>2021-04-18T09:29:43Z</time>
      </trkpt>
      <trkpt lat="43.98614" lon="2.28572">
        <ele>377</ele>
        <time>2021-04-18T09:29:44Z</time>
      </trkpt>
      <trkpt lat="43.98614" lon="2.28573">
        <ele>378</ele>
        <time>2021-04-18T09:29:45Z</time>
      </trkpt>
      <trkpt lat="43.98614" lon="2.28574">
        <ele>379</ele>
        <time>2021-04-18T09:29:46Z</time>
      </trkpt>
      <trkpt lat="43.98614" lon="2.28576">
        <ele>379</ele>
        <time>2021-04-18T09:29:47Z</time>
      </trkpt>
      <trkpt lat="43.98614" lon="2.28577">
        <ele>378</ele>
        <time>2021-04-18T09:29:48Z</time>
      </trkpt>
      <trkpt lat="43.98614" lon="2.28578">
        <ele>378</ele>
        <time>2021-04-18T09:29:49Z</time>
      </trkpt>
      <trkpt lat="43.98614" lon="2.2858">
        <ele>378</ele>
        <time>2021-04-18T09:29:50Z</time>
      </trkpt>
      <trkpt lat="43.98615" lon="2.28583">
        <ele>379</ele>
        <time>2021-04-18T09:29:51Z</time>
      </trkpt>
      <trkpt lat="43.98615" lon="2.28585">
        <ele>379</ele>
        <time>2021-04-18T09:29:52Z</time>
      </trkpt>
      <trkpt lat="43.98615" lon="2.28587">
        <ele>379</ele>
        <time>2021-04-18T09:29:53Z</time>
      </trkpt>
      <trkpt lat="43.98616" lon="2.28589">
        <ele>378</ele>
        <time>2021-04-18T09:29:54Z</time>
      </trkpt>
      <trkpt lat="43.98616" lon="2.28591">
        <ele>378</ele>
        <time>2021-04-18T09:29:55Z</time>
      </trkpt>
      <trkpt lat="43.98616" lon="2.28592">
        <ele>378</ele>
        <time>2021-04-18T09:29:56Z</time>
      </trkpt>
      <trkpt lat="43.98616" lon="2.28593">
        <ele>378</ele>
        <time>2021-04-18T09:29:57Z</time>
      </trkpt>
      <trkpt lat="43.98616" lon="2.28594">
        <ele>378</ele>
        <time>2021-04-18T09:29:58Z</time>
      </trkpt>
      <trkpt lat="43.98616" lon="2.28594">
        <ele>378</ele>
        <time>2021-04-18T09:29:59Z</time>
      </trkpt>
      <trkpt lat="43.98616" lon="2.28594">
        <ele>378</ele>
        <time>2021-04-18T09:30:00Z</time>
      </trkpt>
      <trkpt lat="43.98616" lon="2.28594">
        <ele>378</ele>
        <time>2021-04-18T09:30:00Z</time>
      </trkpt>
      <trkpt lat="43.98616" lon="2.28594">
        <ele>378</ele>
        <time>2021-04-18T09:30:00Z</time>
      </trkpt>
      <trkpt lat="43.98618" lon="2.28603">
        <ele>373</ele>
        <time>2021-04-18T09:30:10Z</time>
      </trkpt>
      <trkpt lat="43.98618" lon="2.28604">
        <ele>374</ele>
        <time>2021-04-18T09:30:11Z</time>
      </trkpt>
      <trkpt lat="43.98618" lon="2.28605">
        <ele>374</ele>
        <time>2021-04-18T09:30:12Z</time>
      </trkpt>
      <trkpt lat="43.98619" lon="2.28606">
        <ele>375</ele>
        <time>2021-04-18T09:30:13Z</time>
      </trkpt>
      <trkpt lat="43.9862" lon="2.28607">
        <ele>375</ele>
        <time>2021-04-18T09:30:14Z</time>
      </trkpt>
      <trkpt lat="43.9862" lon="2.28609">
        <ele>375</ele>
        <time>2021-04-18T09:30:15Z</time>
      </trkpt>
      <trkpt lat="43.9862" lon="2.28611">
        <ele>374</ele>
        <time>2021-04-18T09:30:16Z</time>
      </trkpt>
      <trkpt lat="43.9862" lon="2.28611">
        <ele>374</ele>
        <time>2021-04-18T09:30:17Z</time>
      </trkpt>
      <trkpt lat="43.9862" lon="2.28611">
        <ele>374</ele>
        <time>2021-04-18T09:30:18Z</time>
      </trkpt>
      <trkpt lat="43.9862" lon="2.28611">
        <ele>374</ele>
        <time>2021-04-18T09:30:19Z</time>
      </trkpt>
      <trkpt lat="43.98621" lon="2.28613">
        <ele>373</ele>
        <time>2021-04-18T09:30:20Z</time>
      </trkpt>
      <trkpt lat="43.98621" lon="2.28614">
        <ele>373</ele>
        <time>2021-04-18T09:30:21Z</time>
      </trkpt>
      <trkpt lat="43.98621" lon="2.28616">
        <ele>373</ele>
        <time>2021-04-18T09:30:22Z</time>
      </trkpt>
      <trkpt lat="43.98623" lon="2.28616">
        <ele>374</ele>
        <time>2021-04-18T09:30:23Z</time>
      </trkpt>
      <trkpt lat="43.98623" lon="2.28617">
        <ele>374</ele>
        <time>2021-04-18T09:30:24Z</time>
      </trkpt>
      <trkpt lat="43.98623" lon="2.28617">
        <ele>373</ele>
        <time>2021-04-18T09:30:25Z</time>
      </trkpt>
      <trkpt lat="43.98623" lon="2.28617">
        <ele>373</ele>
        <time>2021-04-18T09:30:26Z</time>
      </trkpt>
      <trkpt lat="43.98623" lon="2.28617">
        <ele>373</ele>
        <time>2021-04-18T09:30:26Z</time>
      </trkpt>
      <trkpt lat="43.98623" lon="2.28617">
        <ele>373</ele>
        <time>2021-04-18T09:30:26Z</time>
      </trkpt>
      <trkpt lat="43.98626" lon="2.28627">
        <ele>374</ele>
        <time>2021-04-18T09:31:23Z</time>
      </trkpt>
      <trkpt lat="43.98626" lon="2.28629">
        <ele>373</ele>
        <time>2021-04-18T09:31:24Z</time>
      </trkpt>
      <trkpt lat="43.98627" lon="2.2863">
        <ele>373</ele>
        <time>2021-04-18T09:31:25Z</time>
      </trkpt>
      <trkpt lat="43.98628" lon="2.28631">
        <ele>373</ele>
        <time>2021-04-18T09:31:26Z</time>
      </trkpt>
      <trkpt lat="43.98628" lon="2.28632">
        <ele>373</ele>
        <time>2021-04-18T09:31:27Z</time>
      </trkpt>
      <trkpt lat="43.98628" lon="2.28633">
        <ele>373</ele>
        <time>2021-04-18T09:31:28Z</time>
      </trkpt>
      <trkpt lat="43.98628" lon="2.28636">
        <ele>373</ele>
        <time>2021-04-18T09:31:29Z</time>
      </trkpt>
      <trkpt lat="43.98627" lon="2.28637">
        <ele>372</ele>
        <time>2021-04-18T09:31:30Z</time>
      </trkpt>
      <trkpt lat="43.98626" lon="2.28639">
        <ele>372</ele>
        <time>2021-04-18T09:31:31Z</time>
      </trkpt>
      <trkpt lat="43.98626" lon="2.2864">
        <ele>372</ele>
        <time>2021-04-18T09:31:32Z</time>
      </trkpt>
      <trkpt lat="43.98627" lon="2.28641">
        <ele>372</ele>
        <time>2021-04-18T09:31:33Z</time>
      </trkpt>
      <trkpt lat="43.98628" lon="2.28641">
        <ele>372</ele>
        <time>2021-04-18T09:31:34Z</time>
      </trkpt>
      <trkpt lat="43.98629" lon="2.2864">
        <ele>372</ele>
        <time>2021-04-18T09:31:35Z</time>
      </trkpt>
      <trkpt lat="43.98629" lon="2.28638">
        <ele>371</ele>
        <time>2021-04-18T09:31:36Z</time>
      </trkpt>
      <trkpt lat="43.98631" lon="2.28637">
        <ele>372</ele>
        <time>2021-04-18T09:31:37Z</time>
      </trkpt>
      <trkpt lat="43.98631" lon="2.28636">
        <ele>372</ele>
        <time>2021-04-18T09:31:38Z</time>
      </trkpt>
      <trkpt lat="43.98632" lon="2.28635">
        <ele>372</ele>
        <time>2021-04-18T09:31:39Z</time>
      </trkpt>
      <trkpt lat="43.98632" lon="2.28633">
        <ele>372</ele>
        <time>2021-04-18T09:31:40Z</time>
      </trkpt>
      <trkpt lat="43.98633" lon="2.28632">
        <ele>372</ele>
        <time>2021-04-18T09:31:41Z</time>
      </trkpt>
      <trkpt lat="43.98633" lon="2.2863">
        <ele>372</ele>
        <time>2021-04-18T09:31:42Z</time>
      </trkpt>
      <trkpt lat="43.98634" lon="2.28628">
        <ele>371</ele>
        <time>2021-04-18T09:31:43Z</time>
      </trkpt>
      <trkpt lat="43.98634" lon="2.28628">
        <ele>371</ele>
        <time>2021-04-18T09:31:44Z</time>
      </trkpt>
      <trkpt lat="43.98634" lon="2.28626">
        <ele>370</ele>
        <time>2021-04-18T09:31:45Z</time>
      </trkpt>
      <trkpt lat="43.98634" lon="2.28625">
        <ele>370</ele>
        <time>2021-04-18T09:31:46Z</time>
      </trkpt>
      <trkpt lat="43.98635" lon="2.28623">
        <ele>369</ele>
        <time>2021-04-18T09:31:47Z</time>
      </trkpt>
      <trkpt lat="43.98636" lon="2.28622">
        <ele>369</ele>
        <time>2021-04-18T09:31:48Z</time>
      </trkpt>
      <trkpt lat="43.98636" lon="2.2862">
        <ele>369</ele>
        <time>2021-04-18T09:31:49Z</time>
      </trkpt>
      <trkpt lat="43.98637" lon="2.28619">
        <ele>369</ele>
        <time>2021-04-18T09:31:50Z</time>
      </trkpt>
      <trkpt lat="43.98637" lon="2.28617">
        <ele>369</ele>
        <time>2021-04-18T09:31:51Z</time>
      </trkpt>
      <trkpt lat="43.98638" lon="2.28616">
        <ele>369</ele>
        <time>2021-04-18T09:31:52Z</time>
      </trkpt>
      <trkpt lat="43.98639" lon="2.28614">
        <ele>368</ele>
        <time>2021-04-18T09:31:53Z</time>
      </trkpt>
      <trkpt lat="43.9864" lon="2.28612">
        <ele>368</ele>
        <time>2021-04-18T09:31:54Z</time>
      </trkpt>
      <trkpt lat="43.9864" lon="2.28611">
        <ele>368</ele>
        <time>2021-04-18T09:31:55Z</time>
      </trkpt>
      <trkpt lat="43.98641" lon="2.2861">
        <ele>368</ele>
        <time>2021-04-18T09:31:56Z</time>
      </trkpt>
      <trkpt lat="43.98642" lon="2.28609">
        <ele>368</ele>
        <time>2021-04-18T09:31:57Z</time>
      </trkpt>
      <trkpt lat="43.98642" lon="2.28607">
        <ele>368</ele>
        <time>2021-04-18T09:31:58Z</time>
      </trkpt>
      <trkpt lat="43.98643" lon="2.28606">
        <ele>368</ele>
        <time>2021-04-18T09:31:59Z</time>
      </trkpt>
      <trkpt lat="43.98644" lon="2.28604">
        <ele>368</ele>
        <time>2021-04-18T09:32:00Z</time>
      </trkpt>
      <trkpt lat="43.98644" lon="2.28603">
        <ele>369</ele>
        <time>2021-04-18T09:32:01Z</time>
      </trkpt>
      <trkpt lat="43.98644" lon="2.286">
        <ele>369</ele>
        <time>2021-04-18T09:32:02Z</time>
      </trkpt>
      <trkpt lat="43.98645" lon="2.28599">
        <ele>368</ele>
        <time>2021-04-18T09:32:03Z</time>
      </trkpt>
      <trkpt lat="43.98645" lon="2.28597">
        <ele>368</ele>
        <time>2021-04-18T09:32:04Z</time>
      </trkpt>
      <trkpt lat="43.98645" lon="2.28595">
        <ele>368</ele>
        <time>2021-04-18T09:32:05Z</time>
      </trkpt>
      <trkpt lat="43.98645" lon="2.28593">
        <ele>368</ele>
        <time>2021-04-18T09:32:06Z</time>
      </trkpt>
      <trkpt lat="43.98645" lon="2.28591">
        <ele>368</ele>
        <time>2021-04-18T09:32:07Z</time>
      </trkpt>
      <trkpt lat="43.98645" lon="2.28588">
        <ele>368</ele>
        <time>2021-04-18T09:32:08Z</time>
      </trkpt>
      <trkpt lat="43.98645" lon="2.28586">
        <ele>368</ele>
        <time>2021-04-18T09:32:09Z</time>
      </trkpt>
      <trkpt lat="43.98645" lon="2.28584">
        <ele>368</ele>
        <time>2021-04-18T09:32:10Z</time>
      </trkpt>
      <trkpt lat="43.98645" lon="2.28582">
        <ele>367</ele>
        <time>2021-04-18T09:32:11Z</time>
      </trkpt>
      <trkpt lat="43.98646" lon="2.2858">
        <ele>367</ele>
        <time>2021-04-18T09:32:12Z</time>
      </trkpt>
      <trkpt lat="43.98646" lon="2.28578">
        <ele>367</ele>
        <time>2021-04-18T09:32:13Z</time>
      </trkpt>
      <trkpt lat="43.98647" lon="2.28577">
        <ele>366</ele>
        <time>2021-04-18T09:32:14Z</time>
      </trkpt>
      <trkpt lat="43.98647" lon="2.28575">
        <ele>366</ele>
        <time>2021-04-18T09:32:15Z</time>
      </trkpt>
      <trkpt lat="43.98648" lon="2.28573">
        <ele>365</ele>
        <time>2021-04-18T09:32:16Z</time>
      </trkpt>
      <trkpt lat="43.98649" lon="2.2857">
        <ele>365</ele>
        <time>2021-04-18T09:32:17Z</time>
      </trkpt>
      <trkpt lat="43.98649" lon="2.28568">
        <ele>364</ele>
        <time>2021-04-18T09:32:18Z</time>
      </trkpt>
      <trkpt lat="43.98649" lon="2.28566">
        <ele>364</ele>
        <time>2021-04-18T09:32:19Z</time>
      </trkpt>
      <trkpt lat="43.98649" lon="2.28564">
        <ele>364</ele>
        <time>2021-04-18T09:32:20Z</time>
      </trkpt>
      <trkpt lat="43.98649" lon="2.28562">
        <ele>364</ele>
        <time>2021-04-18T09:32:21Z</time>
      </trkpt>
      <trkpt lat="43.98649" lon="2.2856">
        <ele>364</ele>
        <time>2021-04-18T09:32:22Z</time>
      </trkpt>
      <trkpt lat="43.98649" lon="2.28558">
        <ele>364</ele>
        <time>2021-04-18T09:32:23Z</time>
      </trkpt>
      <trkpt lat="43.98648" lon="2.28556">
        <ele>364</ele>
        <time>2021-04-18T09:32:24Z</time>
      </trkpt>
      <trkpt lat="43.98648" lon="2.28554">
        <ele>364</ele>
        <time>2021-04-18T09:32:25Z</time>
      </trkpt>
      <trkpt lat="43.98647" lon="2.28552">
        <ele>363</ele>
        <time>2021-04-18T09:32:26Z</time>
      </trkpt>
      <trkpt lat="43.98647" lon="2.28549">
        <ele>363</ele>
        <time>2021-04-18T09:32:27Z</time>
      </trkpt>
      <trkpt lat="43.98648" lon="2.28547">
        <ele>363</ele>
        <time>2021-04-18T09:32:28Z</time>
      </trkpt>
      <trkpt lat="43.98648" lon="2.28546">
        <ele>363</ele>
        <time>2021-04-18T09:32:29Z</time>
      </trkpt>
      <trkpt lat="43.98648" lon="2.28543">
        <ele>363</ele>
        <time>2021-04-18T09:32:30Z</time>
      </trkpt>
      <trkpt lat="43.98649" lon="2.28541">
        <ele>363</ele>
        <time>2021-04-18T09:32:31Z</time>
      </trkpt>
      <trkpt lat="43.98649" lon="2.28538">
        <ele>363</ele>
        <time>2021-04-18T09:32:32Z</time>
      </trkpt>
      <trkpt lat="43.9865" lon="2.28536">
        <ele>363</ele>
        <time>2021-04-18T09:32:33Z</time>
      </trkpt>
      <trkpt lat="43.9865" lon="2.28534">
        <ele>363</ele>
        <time>2021-04-18T09:32:34Z</time>
      </trkpt>
      <trkpt lat="43.9865" lon="2.28533">
        <ele>363</ele>
        <time>2021-04-18T09:32:35Z</time>
      </trkpt>
      <trkpt lat="43.9865" lon="2.2853">
        <ele>363</ele>
        <time>2021-04-18T09:32:36Z</time>
      </trkpt>
      <trkpt lat="43.98651" lon="2.28528">
        <ele>363</ele>
        <time>2021-04-18T09:32:37Z</time>
      </trkpt>
      <trkpt lat="43.9865" lon="2.28526">
        <ele>363</ele>
        <time>2021-04-18T09:32:38Z</time>
      </trkpt>
      <trkpt lat="43.98649" lon="2.28523">
        <ele>363</ele>
        <time>2021-04-18T09:32:39Z</time>
      </trkpt>
      <trkpt lat="43.98649" lon="2.28521">
        <ele>363</ele>
        <time>2021-04-18T09:32:40Z</time>
      </trkpt>
      <trkpt lat="43.98648" lon="2.28519">
        <ele>363</ele>
        <time>2021-04-18T09:32:41Z</time>
      </trkpt>
      <trkpt lat="43.98647" lon="2.28517">
        <ele>363</ele>
        <time>2021-04-18T09:32:42Z</time>
      </trkpt>
      <trkpt lat="43.98646" lon="2.28516">
        <ele>363</ele>
        <time>2021-04-18T09:32:43Z</time>
      </trkpt>
      <trkpt lat="43.98645" lon="2.28514">
        <ele>363</ele>
        <time>2021-04-18T09:32:44Z</time>
      </trkpt>
      <trkpt lat="43.98645" lon="2.28512">
        <ele>362</ele>
        <time>2021-04-18T09:32:45Z</time>
      </trkpt>
      <trkpt lat="43.98644" lon="2.28511">
        <ele>362</ele>
        <time>2021-04-18T09:32:46Z</time>
      </trkpt>
      <trkpt lat="43.98644" lon="2.28509">
        <ele>362</ele>
        <time>2021-04-18T09:32:47Z</time>
      </trkpt>
      <trkpt lat="43.98644" lon="2.28508">
        <ele>362</ele>
        <time>2021-04-18T09:32:48Z</time>
      </trkpt>
      <trkpt lat="43.98643" lon="2.28506">
        <ele>361</ele>
        <time>2021-04-18T09:32:49Z</time>
      </trkpt>
      <trkpt lat="43.98642" lon="2.28504">
        <ele>361</ele>
        <time>2021-04-18T09:32:50Z</time>
      </trkpt>
      <trkpt lat="43.98642" lon="2.28503">
        <ele>361</ele>
        <time>2021-04-18T09:32:51Z</time>
      </trkpt>
      <trkpt lat="43.9864" lon="2.28502">
        <ele>361</ele>
        <time>2021-04-18T09:32:52Z</time>
      </trkpt>
      <trkpt lat="43.98639" lon="2.285">
        <ele>361</ele>
        <time>2021-04-18T09:32:53Z</time>
      </trkpt>
      <trkpt lat="43.98638" lon="2.28498">
        <ele>361</ele>
        <time>2021-04-18T09:32:54Z</time>
      </trkpt>
      <trkpt lat="43.98637" lon="2.28496">
        <ele>360</ele>
        <time>2021-04-18T09:32:55Z</time>
      </trkpt>
      <trkpt lat="43.98636" lon="2.28494">
        <ele>360</ele>
        <time>2021-04-18T09:32:56Z</time>
      </trkpt>
      <trkpt lat="43.98635" lon="2.28492">
        <ele>360</ele>
        <time>2021-04-18T09:32:57Z</time>
      </trkpt>
      <trkpt lat="43.98634" lon="2.2849">
        <ele>361</ele>
        <time>2021-04-18T09:32:58Z</time>
      </trkpt>
      <trkpt lat="43.98632" lon="2.28489">
        <ele>360</ele>
        <time>2021-04-18T09:32:59Z</time>
      </trkpt>
      <trkpt lat="43.98632" lon="2.28488">
        <ele>360</ele>
        <time>2021-04-18T09:33:00Z</time>
      </trkpt>
      <trkpt lat="43.98631" lon="2.28486">
        <ele>360</ele>
        <time>2021-04-18T09:33:01Z</time>
      </trkpt>
      <trkpt lat="43.98631" lon="2.28486">
        <ele>360</ele>
        <time>2021-04-18T09:33:02Z</time>
      </trkpt>
      <trkpt lat="43.9863" lon="2.28484">
        <ele>359</ele>
        <time>2021-04-18T09:33:03Z</time>
      </trkpt>
      <trkpt lat="43.9863" lon="2.28483">
        <ele>359</ele>
        <time>2021-04-18T09:33:04Z</time>
      </trkpt>
      <trkpt lat="43.98629" lon="2.28481">
        <ele>359</ele>
        <time>2021-04-18T09:33:05Z</time>
      </trkpt>
      <trkpt lat="43.98628" lon="2.28479">
        <ele>359</ele>
        <time>2021-04-18T09:33:06Z</time>
      </trkpt>
      <trkpt lat="43.98626" lon="2.28477">
        <ele>358</ele>
        <time>2021-04-18T09:33:07Z</time>
      </trkpt>
      <trkpt lat="43.98625" lon="2.28475">
        <ele>358</ele>
        <time>2021-04-18T09:33:08Z</time>
      </trkpt>
      <trkpt lat="43.98624" lon="2.28474">
        <ele>359</ele>
        <time>2021-04-18T09:33:09Z</time>
      </trkpt>
      <trkpt lat="43.98623" lon="2.28473">
        <ele>359</ele>
        <time>2021-04-18T09:33:10Z</time>
      </trkpt>
      <trkpt lat="43.98623" lon="2.28472">
        <ele>359</ele>
        <time>2021-04-18T09:33:11Z</time>
      </trkpt>
      <trkpt lat="43.98621" lon="2.28471">
        <ele>358</ele>
        <time>2021-04-18T09:33:12Z</time>
      </trkpt>
      <trkpt lat="43.98621" lon="2.2847">
        <ele>358</ele>
        <time>2021-04-18T09:33:13Z</time>
      </trkpt>
      <trkpt lat="43.9862" lon="2.28469">
        <ele>358</ele>
        <time>2021-04-18T09:33:14Z</time>
      </trkpt>
      <trkpt lat="43.9862" lon="2.28468">
        <ele>358</ele>
        <time>2021-04-18T09:33:15Z</time>
      </trkpt>
      <trkpt lat="43.98619" lon="2.28467">
        <ele>359</ele>
        <time>2021-04-18T09:33:16Z</time>
      </trkpt>
      <trkpt lat="43.98618" lon="2.28465">
        <ele>359</ele>
        <time>2021-04-18T09:33:17Z</time>
      </trkpt>
      <trkpt lat="43.98617" lon="2.28465">
        <ele>358</ele>
        <time>2021-04-18T09:33:18Z</time>
      </trkpt>
      <trkpt lat="43.98616" lon="2.28464">
        <ele>358</ele>
        <time>2021-04-18T09:33:19Z</time>
      </trkpt>
      <trkpt lat="43.98616" lon="2.28464">
        <ele>358</ele>
        <time>2021-04-18T09:33:20Z</time>
      </trkpt>
      <trkpt lat="43.98615" lon="2.28463">
        <ele>356</ele>
        <time>2021-04-18T09:33:21Z</time>
      </trkpt>
      <trkpt lat="43.98614" lon="2.28463">
        <ele>356</ele>
        <time>2021-04-18T09:33:22Z</time>
      </trkpt>
      <trkpt lat="43.98614" lon="2.28462">
        <ele>356</ele>
        <time>2021-04-18T09:33:23Z</time>
      </trkpt>
      <trkpt lat="43.98613" lon="2.28462">
        <ele>355</ele>
        <time>2021-04-18T09:33:24Z</time>
      </trkpt>
      <trkpt lat="43.98612" lon="2.28461">
        <ele>355</ele>
        <time>2021-04-18T09:33:25Z</time>
      </trkpt>
      <trkpt lat="43.98612" lon="2.28461">
        <ele>354</ele>
        <time>2021-04-18T09:33:26Z</time>
      </trkpt>
      <trkpt lat="43.98611" lon="2.2846">
        <ele>354</ele>
        <time>2021-04-18T09:33:27Z</time>
      </trkpt>
      <trkpt lat="43.98611" lon="2.28459">
        <ele>354</ele>
        <time>2021-04-18T09:33:28Z</time>
      </trkpt>
      <trkpt lat="43.98611" lon="2.28459">
        <ele>354</ele>
        <time>2021-04-18T09:33:29Z</time>
      </trkpt>
      <trkpt lat="43.98611" lon="2.28458">
        <ele>354</ele>
        <time>2021-04-18T09:33:30Z</time>
      </trkpt>
      <trkpt lat="43.98611" lon="2.28459">
        <ele>354</ele>
        <time>2021-04-18T09:33:31Z</time>
      </trkpt>
      <trkpt lat="43.98611" lon="2.2846">
        <ele>354</ele>
        <time>2021-04-18T09:33:32Z</time>
      </trkpt>
      <trkpt lat="43.98611" lon="2.2846">
        <ele>354</ele>
        <time>2021-04-18T09:33:33Z</time>
      </trkpt>
      <trkpt lat="43.98612" lon="2.2846">
        <ele>354</ele>
        <time>2021-04-18T09:33:34Z</time>
      </trkpt>
      <trkpt lat="43.98612" lon="2.2846">
        <ele>353</ele>
        <time>2021-04-18T09:33:35Z</time>
      </trkpt>
      <trkpt lat="43.98612" lon="2.28461">
        <ele>353</ele>
        <time>2021-04-18T09:33:36Z</time>
      </trkpt>
      <trkpt lat="43.98613" lon="2.28461">
        <ele>353</ele>
        <time>2021-04-18T09:33:37Z</time>
      </trkpt>
      <trkpt lat="43.98613" lon="2.28462">
        <ele>354</ele>
        <time>2021-04-18T09:33:38Z</time>
      </trkpt>
      <trkpt lat="43.98614" lon="2.28462">
        <ele>354</ele>
        <time>2021-04-18T09:33:39Z</time>
      </trkpt>
      <trkpt lat="43.98614" lon="2.28462">
        <ele>354</ele>
        <time>2021-04-18T09:33:40Z</time>
      </trkpt>
      <trkpt lat="43.98615" lon="2.28463">
        <ele>355</ele>
        <time>2021-04-18T09:33:41Z</time>
      </trkpt>
      <trkpt lat="43.98615" lon="2.28463">
        <ele>355</ele>
        <time>2021-04-18T09:33:42Z</time>
      </trkpt>
      <trkpt lat="43.98616" lon="2.28463">
        <ele>355</ele>
        <time>2021-04-18T09:33:43Z</time>
      </trkpt>
      <trkpt lat="43.98617" lon="2.28462">
        <ele>356</ele>
        <time>2021-04-18T09:33:44Z</time>
      </trkpt>
      <trkpt lat="43.98618" lon="2.28462">
        <ele>356</ele>
        <time>2021-04-18T09:33:45Z</time>
      </trkpt>
      <trkpt lat="43.98618" lon="2.28461">
        <ele>356</ele>
        <time>2021-04-18T09:33:46Z</time>
      </trkpt>
      <trkpt lat="43.98619" lon="2.28461">
        <ele>355</ele>
        <time>2021-04-18T09:33:47Z</time>
      </trkpt>
      <trkpt lat="43.9862" lon="2.2846">
        <ele>356</ele>
        <time>2021-04-18T09:33:48Z</time>
      </trkpt>
      <trkpt lat="43.98621" lon="2.2846">
        <ele>356</ele>
        <time>2021-04-18T09:33:49Z</time>
      </trkpt>
      <trkpt lat="43.98622" lon="2.2846">
        <ele>357</ele>
        <time>2021-04-18T09:33:50Z</time>
      </trkpt>
      <trkpt lat="43.98623" lon="2.2846">
        <ele>358</ele>
        <time>2021-04-18T09:33:51Z</time>
      </trkpt>
      <trkpt lat="43.98624" lon="2.28459">
        <ele>358</ele>
        <time>2021-04-18T09:33:52Z</time>
      </trkpt>
      <trkpt lat="43.98625" lon="2.28458">
        <ele>359</ele>
        <time>2021-04-18T09:33:53Z</time>
      </trkpt>
      <trkpt lat="43.98626" lon="2.28458">
        <ele>359</ele>
        <time>2021-04-18T09:33:54Z</time>
      </trkpt>
      <trkpt lat="43.98626" lon="2.28458">
        <ele>359</ele>
        <time>2021-04-18T09:33:55Z</time>
      </trkpt>
      <trkpt lat="43.98627" lon="2.28458">
        <ele>359</ele>
        <time>2021-04-18T09:33:56Z</time>
      </trkpt>
      <trkpt lat="43.98628" lon="2.28458">
        <ele>359</ele>
        <time>2021-04-18T09:33:57Z</time>
      </trkpt>
      <trkpt lat="43.98629" lon="2.28458">
        <ele>358</ele>
        <time>2021-04-18T09:33:58Z</time>
      </trkpt>
      <trkpt lat="43.9863" lon="2.28458">
        <ele>358</ele>
        <time>2021-04-18T09:33:59Z</time>
      </trkpt>
      <trkpt lat="43.98631" lon="2.28459">
        <ele>358</ele>
        <time>2021-04-18T09:34:00Z</time>
      </trkpt>
      <trkpt lat="43.98632" lon="2.28458">
        <ele>359</ele>
        <time>2021-04-18T09:34:01Z</time>
      </trkpt>
      <trkpt lat="43.98634" lon="2.28458">
        <ele>360</ele>
        <time>2021-04-18T09:34:02Z</time>
      </trkpt>
      <trkpt lat="43.98635" lon="2.28458">
        <ele>361</ele>
        <time>2021-04-18T09:34:03Z</time>
      </trkpt>
      <trkpt lat="43.98636" lon="2.28458">
        <ele>361</ele>
        <time>2021-04-18T09:34:04Z</time>
      </trkpt>
      <trkpt lat="43.98637" lon="2.28458">
        <ele>361</ele>
        <time>2021-04-18T09:34:05Z</time>
      </trkpt>
      <trkpt lat="43.98638" lon="2.28458">
        <ele>362</ele>
        <time>2021-04-18T09:34:06Z</time>
      </trkpt>
      <trkpt lat="43.98639" lon="2.28458">
        <ele>362</ele>
        <time>2021-04-18T09:34:07Z</time>
      </trkpt>
      <trkpt lat="43.98639" lon="2.28457">
        <ele>362</ele>
        <time>2021-04-18T09:34:08Z</time>
      </trkpt>
      <trkpt lat="43.9864" lon="2.28458">
        <ele>362</ele>
        <time>2021-04-18T09:34:09Z</time>
      </trkpt>
      <trkpt lat="43.98641" lon="2.28457">
        <ele>362</ele>
        <time>2021-04-18T09:34:10Z</time>
      </trkpt>
      <trkpt lat="43.98642" lon="2.28458">
        <ele>361</ele>
        <time>2021-04-18T09:34:11Z</time>
      </trkpt>
      <trkpt lat="43.98643" lon="2.28459">
        <ele>360</ele>
        <time>2021-04-18T09:34:12Z</time>
      </trkpt>
      <trkpt lat="43.98644" lon="2.28459">
        <ele>360</ele>
        <time>2021-04-18T09:34:13Z</time>
      </trkpt>
      <trkpt lat="43.98644" lon="2.28459">
        <ele>359</ele>
        <time>2021-04-18T09:34:14Z</time>
      </trkpt>
      <trkpt lat="43.98646" lon="2.28459">
        <ele>359</ele>
        <time>2021-04-18T09:34:15Z</time>
      </trkpt>
      <trkpt lat="43.98647" lon="2.28459">
        <ele>360</ele>
        <time>2021-04-18T09:34:16Z</time>
      </trkpt>
      <trkpt lat="43.98648" lon="2.28458">
        <ele>361</ele>
        <time>2021-04-18T09:34:17Z</time>
      </trkpt>
      <trkpt lat="43.98649" lon="2.28458">
        <ele>362</ele>
        <time>2021-04-18T09:34:18Z</time>
      </trkpt>
      <trkpt lat="43.9865" lon="2.28459">
        <ele>362</ele>
        <time>2021-04-18T09:34:19Z</time>
      </trkpt>
      <trkpt lat="43.98651" lon="2.28459">
        <ele>362</ele>
        <time>2021-04-18T09:34:20Z</time>
      </trkpt>
      <trkpt lat="43.98652" lon="2.28458">
        <ele>362</ele>
        <time>2021-04-18T09:34:21Z</time>
      </trkpt>
      <trkpt lat="43.98653" lon="2.28458">
        <ele>362</ele>
        <time>2021-04-18T09:34:22Z</time>
      </trkpt>
      <trkpt lat="43.98654" lon="2.28458">
        <ele>362</ele>
        <time>2021-04-18T09:34:23Z</time>
      </trkpt>
      <trkpt lat="43.98655" lon="2.28458">
        <ele>361</ele>
        <time>2021-04-18T09:34:24Z</time>
      </trkpt>
      <trkpt lat="43.98656" lon="2.28458">
        <ele>361</ele>
        <time>2021-04-18T09:34:25Z</time>
      </trkpt>
      <trkpt lat="43.98657" lon="2.28458">
        <ele>361</ele>
        <time>2021-04-18T09:34:26Z</time>
      </trkpt>
      <trkpt lat="43.98657" lon="2.28458">
        <ele>360</ele>
        <time>2021-04-18T09:34:27Z</time>
      </trkpt>
      <trkpt lat="43.98658" lon="2.28458">
        <ele>360</ele>
        <time>2021-04-18T09:34:28Z</time>
      </trkpt>
      <trkpt lat="43.98659" lon="2.28458">
        <ele>360</ele>
        <time>2021-04-18T09:34:29Z</time>
      </trkpt>
      <trkpt lat="43.9866" lon="2.28458">
        <ele>361</ele>
        <time>2021-04-18T09:34:30Z</time>
      </trkpt>
      <trkpt lat="43.98661" lon="2.28459">
        <ele>362</ele>
        <time>2021-04-18T09:34:31Z</time>
      </trkpt>
      <trkpt lat="43.98661" lon="2.28459">
        <ele>361</ele>
        <time>2021-04-18T09:34:32Z</time>
      </trkpt>
      <trkpt lat="43.98661" lon="2.28459">
        <ele>361</ele>
        <time>2021-04-18T09:34:33Z</time>
      </trkpt>
      <trkpt lat="43.98663" lon="2.28459">
        <ele>362</ele>
        <time>2021-04-18T09:34:34Z</time>
      </trkpt>
      <trkpt lat="43.98664" lon="2.28459">
        <ele>363</ele>
        <time>2021-04-18T09:34:35Z</time>
      </trkpt>
      <trkpt lat="43.98665" lon="2.28459">
        <ele>362</ele>
        <time>2021-04-18T09:34:36Z</time>
      </trkpt>
      <trkpt lat="43.98666" lon="2.28459">
        <ele>362</ele>
        <time>2021-04-18T09:34:37Z</time>
      </trkpt>
      <trkpt lat="43.98667" lon="2.28459">
        <ele>363</ele>
        <time>2021-04-18T09:34:38Z</time>
      </trkpt>
      <trkpt lat="43.98668" lon="2.28459">
        <ele>363</ele>
        <time>2021-04-18T09:34:39Z</time>
      </trkpt>
      <trkpt lat="43.98669" lon="2.28459">
        <ele>362</ele>
        <time>2021-04-18T09:34:40Z</time>
      </trkpt>
      <trkpt lat="43.98669" lon="2.2846">
        <ele>362</ele>
        <time>2021-04-18T09:34:41Z</time>
      </trkpt>
      <trkpt lat="43.9867" lon="2.2846">
        <ele>363</ele>
        <time>2021-04-18T09:34:42Z</time>
      </trkpt>
      <trkpt lat="43.98671" lon="2.28461">
        <ele>363</ele>
        <time>2021-04-18T09:34:43Z</time>
      </trkpt>
      <trkpt lat="43.98672" lon="2.28462">
        <ele>364</ele>
        <time>2021-04-18T09:34:44Z</time>
      </trkpt>
      <trkpt lat="43.98673" lon="2.28462">
        <ele>364</ele>
        <time>2021-04-18T09:34:45Z</time>
      </trkpt>
      <trkpt lat="43.98673" lon="2.28462">
        <ele>364</ele>
        <time>2021-04-18T09:34:46Z</time>
      </trkpt>
      <trkpt lat="43.98674" lon="2.28463">
        <ele>364</ele>
        <time>2021-04-18T09:34:47Z</time>
      </trkpt>
      <trkpt lat="43.98674" lon="2.28464">
        <ele>364</ele>
        <time>2021-04-18T09:34:48Z</time>
      </trkpt>
      <trkpt lat="43.98675" lon="2.28464">
        <ele>365</ele>
        <time>2021-04-18T09:34:49Z</time>
      </trkpt>
      <trkpt lat="43.98676" lon="2.28464">
        <ele>365</ele>
        <time>2021-04-18T09:34:50Z</time>
      </trkpt>
      <trkpt lat="43.98676" lon="2.28464">
        <ele>365</ele>
        <time>2021-04-18T09:34:51Z</time>
      </trkpt>
      <trkpt lat="43.98676" lon="2.28465">
        <ele>365</ele>
        <time>2021-04-18T09:34:52Z</time>
      </trkpt>
      <trkpt lat="43.98677" lon="2.28466">
        <ele>365</ele>
        <time>2021-04-18T09:34:53Z</time>
      </trkpt>
      <trkpt lat="43.98677" lon="2.28467">
        <ele>365</ele>
        <time>2021-04-18T09:34:54Z</time>
      </trkpt>
      <trkpt lat="43.98677" lon="2.28468">
        <ele>365</ele>
        <time>2021-04-18T09:34:55Z</time>
      </trkpt>
      <trkpt lat="43.98679" lon="2.2847">
        <ele>366</ele>
        <time>2021-04-18T09:34:56Z</time>
      </trkpt>
      <trkpt lat="43.98679" lon="2.28471">
        <ele>366</ele>
        <time>2021-04-18T09:34:57Z</time>
      </trkpt>
      <trkpt lat="43.98681" lon="2.28471">
        <ele>366</ele>
        <time>2021-04-18T09:34:58Z</time>
      </trkpt>
      <trkpt lat="43.98681" lon="2.28471">
        <ele>365</ele>
        <time>2021-04-18T09:34:59Z</time>
      </trkpt>
      <trkpt lat="43.98682" lon="2.28472">
        <ele>365</ele>
        <time>2021-04-18T09:35:00Z</time>
      </trkpt>
      <trkpt lat="43.98683" lon="2.28472">
        <ele>365</ele>
        <time>2021-04-18T09:35:01Z</time>
      </trkpt>
      <trkpt lat="43.98684" lon="2.28472">
        <ele>365</ele>
        <time>2021-04-18T09:35:02Z</time>
      </trkpt>
      <trkpt lat="43.98685" lon="2.28472">
        <ele>365</ele>
        <time>2021-04-18T09:35:03Z</time>
      </trkpt>
      <trkpt lat="43.98686" lon="2.2847">
        <ele>365</ele>
        <time>2021-04-18T09:35:04Z</time>
      </trkpt>
      <trkpt lat="43.98686" lon="2.2847">
        <ele>365</ele>
        <time>2021-04-18T09:35:05Z</time>
      </trkpt>
      <trkpt lat="43.98686" lon="2.2847">
        <ele>365</ele>
        <time>2021-04-18T09:35:06Z</time>
      </trkpt>
      <trkpt lat="43.98686" lon="2.2847">
        <ele>365</ele>
        <time>2021-04-18T09:35:06Z</time>
      </trkpt>
      <trkpt lat="43.98686" lon="2.2847">
        <ele>365</ele>
        <time>2021-04-18T09:35:06Z</time>
      </trkpt>
      <trkpt lat="43.98689" lon="2.28472">
        <ele>363</ele>
        <time>2021-04-18T09:35:13Z</time>
      </trkpt>
      <trkpt lat="43.98689" lon="2.28473">
        <ele>363</ele>
        <time>2021-04-18T09:35:14Z</time>
      </trkpt>
      <trkpt lat="43.9869" lon="2.28474">
        <ele>363</ele>
        <time>2021-04-18T09:35:15Z</time>
      </trkpt>
      <trkpt lat="43.9869" lon="2.28475">
        <ele>363</ele>
        <time>2021-04-18T09:35:16Z</time>
      </trkpt>
      <trkpt lat="43.9869" lon="2.28476">
        <ele>363</ele>
        <time>2021-04-18T09:35:17Z</time>
      </trkpt>
      <trkpt lat="43.98691" lon="2.28477">
        <ele>363</ele>
        <time>2021-04-18T09:35:18Z</time>
      </trkpt>
      <trkpt lat="43.98692" lon="2.28478">
        <ele>363</ele>
        <time>2021-04-18T09:35:19Z</time>
      </trkpt>
      <trkpt lat="43.98693" lon="2.28478">
        <ele>363</ele>
        <time>2021-04-18T09:35:20Z</time>
      </trkpt>
      <trkpt lat="43.98694" lon="2.28478">
        <ele>363</ele>
        <time>2021-04-18T09:35:21Z</time>
      </trkpt>
      <trkpt lat="43.98694" lon="2.28479">
        <ele>363</ele>
        <time>2021-04-18T09:35:22Z</time>
      </trkpt>
      <trkpt lat="43.98695" lon="2.2848">
        <ele>363</ele>
        <time>2021-04-18T09:35:23Z</time>
      </trkpt>
      <trkpt lat="43.98695" lon="2.28481">
        <ele>364</ele>
        <time>2021-04-18T09:35:24Z</time>
      </trkpt>
      <trkpt lat="43.98696" lon="2.28482">
        <ele>364</ele>
        <time>2021-04-18T09:35:25Z</time>
      </trkpt>
      <trkpt lat="43.98697" lon="2.28483">
        <ele>365</ele>
        <time>2021-04-18T09:35:26Z</time>
      </trkpt>
      <trkpt lat="43.98697" lon="2.28484">
        <ele>365</ele>
        <time>2021-04-18T09:35:27Z</time>
      </trkpt>
      <trkpt lat="43.98697" lon="2.28485">
        <ele>365</ele>
        <time>2021-04-18T09:35:28Z</time>
      </trkpt>
      <trkpt lat="43.98697" lon="2.28485">
        <ele>365</ele>
        <time>2021-04-18T09:35:29Z</time>
      </trkpt>
      <trkpt lat="43.98697" lon="2.28486">
        <ele>365</ele>
        <time>2021-04-18T09:35:30Z</time>
      </trkpt>
      <trkpt lat="43.98697" lon="2.28486">
        <ele>366</ele>
        <time>2021-04-18T09:35:31Z</time>
      </trkpt>
      <trkpt lat="43.98697" lon="2.28486">
        <ele>366</ele>
        <time>2021-04-18T09:35:31Z</time>
      </trkpt>
      <trkpt lat="43.98697" lon="2.28486">
        <ele>366</ele>
        <time>2021-04-18T09:35:31Z</time>
      </trkpt>
      <trkpt lat="43.987" lon="2.28492">
        <ele>370</ele>
        <time>2021-04-18T09:35:39Z</time>
      </trkpt>
      <trkpt lat="43.987" lon="2.28493">
        <ele>370</ele>
        <time>2021-04-18T09:35:40Z</time>
      </trkpt>
      <trkpt lat="43.98702" lon="2.28494">
        <ele>370</ele>
        <time>2021-04-18T09:35:41Z</time>
      </trkpt>
      <trkpt lat="43.98702" lon="2.28495">
        <ele>370</ele>
        <time>2021-04-18T09:35:42Z</time>
      </trkpt>
      <trkpt lat="43.98703" lon="2.28497">
        <ele>370</ele>
        <time>2021-04-18T09:35:43Z</time>
      </trkpt>
      <trkpt lat="43.98703" lon="2.28498">
        <ele>371</ele>
        <time>2021-04-18T09:35:44Z</time>
      </trkpt>
      <trkpt lat="43.98704" lon="2.285">
        <ele>371</ele>
        <time>2021-04-18T09:35:45Z</time>
      </trkpt>
      <trkpt lat="43.98705" lon="2.28501">
        <ele>371</ele>
        <time>2021-04-18T09:35:46Z</time>
      </trkpt>
      <trkpt lat="43.98705" lon="2.28502">
        <ele>371</ele>
        <time>2021-04-18T09:35:47Z</time>
      </trkpt>
      <trkpt lat="43.98706" lon="2.28503">
        <ele>371</ele>
        <time>2021-04-18T09:35:48Z</time>
      </trkpt>
      <trkpt lat="43.98707" lon="2.28504">
        <ele>372</ele>
        <time>2021-04-18T09:35:49Z</time>
      </trkpt>
      <trkpt lat="43.98708" lon="2.28505">
        <ele>371</ele>
        <time>2021-04-18T09:35:50Z</time>
      </trkpt>
      <trkpt lat="43.98708" lon="2.28506">
        <ele>371</ele>
        <time>2021-04-18T09:35:51Z</time>
      </trkpt>
      <trkpt lat="43.98709" lon="2.28507">
        <ele>371</ele>
        <time>2021-04-18T09:35:52Z</time>
      </trkpt>
      <trkpt lat="43.98709" lon="2.28507">
        <ele>371</ele>
        <time>2021-04-18T09:35:53Z</time>
      </trkpt>
      <trkpt lat="43.9871" lon="2.28509">
        <ele>371</ele>
        <time>2021-04-18T09:35:54Z</time>
      </trkpt>
      <trkpt lat="43.98711" lon="2.2851">
        <ele>371</ele>
        <time>2021-04-18T09:35:55Z</time>
      </trkpt>
      <trkpt lat="43.98711" lon="2.28511">
        <ele>372</ele>
        <time>2021-04-18T09:35:56Z</time>
      </trkpt>
      <trkpt lat="43.98712" lon="2.28512">
        <ele>372</ele>
        <time>2021-04-18T09:35:57Z</time>
      </trkpt>
      <trkpt lat="43.98713" lon="2.28513">
        <ele>371</ele>
        <time>2021-04-18T09:35:58Z</time>
      </trkpt>
      <trkpt lat="43.98713" lon="2.28514">
        <ele>371</ele>
        <time>2021-04-18T09:35:59Z</time>
      </trkpt>
      <trkpt lat="43.98714" lon="2.28515">
        <ele>371</ele>
        <time>2021-04-18T09:36:00Z</time>
      </trkpt>
      <trkpt lat="43.98714" lon="2.28516">
        <ele>371</ele>
        <time>2021-04-18T09:36:01Z</time>
      </trkpt>
      <trkpt lat="43.98715" lon="2.28517">
        <ele>371</ele>
        <time>2021-04-18T09:36:02Z</time>
      </trkpt>
      <trkpt lat="43.98716" lon="2.28518">
        <ele>372</ele>
        <time>2021-04-18T09:36:03Z</time>
      </trkpt>
      <trkpt lat="43.98716" lon="2.28519">
        <ele>372</ele>
        <time>2021-04-18T09:36:04Z</time>
      </trkpt>
      <trkpt lat="43.98717" lon="2.2852">
        <ele>372</ele>
        <time>2021-04-18T09:36:05Z</time>
      </trkpt>
      <trkpt lat="43.98717" lon="2.28522">
        <ele>372</ele>
        <time>2021-04-18T09:36:06Z</time>
      </trkpt>
      <trkpt lat="43.98717" lon="2.28523">
        <ele>372</ele>
        <time>2021-04-18T09:36:07Z</time>
      </trkpt>
      <trkpt lat="43.98717" lon="2.28525">
        <ele>372</ele>
        <time>2021-04-18T09:36:08Z</time>
      </trkpt>
      <trkpt lat="43.98717" lon="2.28527">
        <ele>373</ele>
        <time>2021-04-18T09:36:09Z</time>
      </trkpt>
      <trkpt lat="43.98716" lon="2.28528">
        <ele>373</ele>
        <time>2021-04-18T09:36:10Z</time>
      </trkpt>
      <trkpt lat="43.98716" lon="2.28529">
        <ele>373</ele>
        <time>2021-04-18T09:36:11Z</time>
      </trkpt>
      <trkpt lat="43.98716" lon="2.2853">
        <ele>374</ele>
        <time>2021-04-18T09:36:12Z</time>
      </trkpt>
      <trkpt lat="43.98716" lon="2.2853">
        <ele>374</ele>
        <time>2021-04-18T09:36:13Z</time>
      </trkpt>
      <trkpt lat="43.98716" lon="2.28531">
        <ele>374</ele>
        <time>2021-04-18T09:36:14Z</time>
      </trkpt>
      <trkpt lat="43.98716" lon="2.28532">
        <ele>374</ele>
        <time>2021-04-18T09:36:15Z</time>
      </trkpt>
      <trkpt lat="43.98716" lon="2.28533">
        <ele>375</ele>
        <time>2021-04-18T09:36:16Z</time>
      </trkpt>
      <trkpt lat="43.98716" lon="2.28534">
        <ele>375</ele>
        <time>2021-04-18T09:36:17Z</time>
      </trkpt>
      <trkpt lat="43.98716" lon="2.28535">
        <ele>375</ele>
        <time>2021-04-18T09:36:18Z</time>
      </trkpt>
      <trkpt lat="43.98716" lon="2.28537">
        <ele>375</ele>
        <time>2021-04-18T09:36:19Z</time>
      </trkpt>
      <trkpt lat="43.98716" lon="2.28538">
        <ele>375</ele>
        <time>2021-04-18T09:36:20Z</time>
      </trkpt>
      <trkpt lat="43.98716" lon="2.28539">
        <ele>376</ele>
        <time>2021-04-18T09:36:21Z</time>
      </trkpt>
      <trkpt lat="43.98715" lon="2.2854">
        <ele>376</ele>
        <time>2021-04-18T09:36:22Z</time>
      </trkpt>
      <trkpt lat="43.98715" lon="2.28542">
        <ele>377</ele>
        <time>2021-04-18T09:36:23Z</time>
      </trkpt>
      <trkpt lat="43.98715" lon="2.28544">
        <ele>377</ele>
        <time>2021-04-18T09:36:24Z</time>
      </trkpt>
      <trkpt lat="43.98715" lon="2.28545">
        <ele>377</ele>
        <time>2021-04-18T09:36:25Z</time>
      </trkpt>
      <trkpt lat="43.98716" lon="2.28547">
        <ele>377</ele>
        <time>2021-04-18T09:36:26Z</time>
      </trkpt>
      <trkpt lat="43.98716" lon="2.28548">
        <ele>377</ele>
        <time>2021-04-18T09:36:27Z</time>
      </trkpt>
      <trkpt lat="43.98716" lon="2.28549">
        <ele>377</ele>
        <time>2021-04-18T09:36:28Z</time>
      </trkpt>
      <trkpt lat="43.98716" lon="2.28551">
        <ele>376</ele>
        <time>2021-04-18T09:36:29Z</time>
      </trkpt>
      <trkpt lat="43.98716" lon="2.28552">
        <ele>376</ele>
        <time>2021-04-18T09:36:30Z</time>
      </trkpt>
      <trkpt lat="43.98717" lon="2.28554">
        <ele>377</ele>
        <time>2021-04-18T09:36:31Z</time>
      </trkpt>
      <trkpt lat="43.98718" lon="2.28555">
        <ele>377</ele>
        <time>2021-04-18T09:36:32Z</time>
      </trkpt>
      <trkpt lat="43.98718" lon="2.28557">
        <ele>378</ele>
        <time>2021-04-18T09:36:33Z</time>
      </trkpt>
      <trkpt lat="43.98719" lon="2.28558">
        <ele>378</ele>
        <time>2021-04-18T09:36:34Z</time>
      </trkpt>
      <trkpt lat="43.9872" lon="2.2856">
        <ele>378</ele>
        <time>2021-04-18T09:36:35Z</time>
      </trkpt>
      <trkpt lat="43.98721" lon="2.28561">
        <ele>379</ele>
        <time>2021-04-18T09:36:36Z</time>
      </trkpt>
      <trkpt lat="43.98721" lon="2.28562">
        <ele>379</ele>
        <time>2021-04-18T09:36:37Z</time>
      </trkpt>
      <trkpt lat="43.98721" lon="2.28563">
        <ele>380</ele>
        <time>2021-04-18T09:36:38Z</time>
      </trkpt>
      <trkpt lat="43.98722" lon="2.28565">
        <ele>379</ele>
        <time>2021-04-18T09:36:39Z</time>
      </trkpt>
      <trkpt lat="43.98722" lon="2.28566">
        <ele>380</ele>
        <time>2021-04-18T09:36:40Z</time>
      </trkpt>
      <trkpt lat="43.98722" lon="2.28567">
        <ele>380</ele>
        <time>2021-04-18T09:36:41Z</time>
      </trkpt>
      <trkpt lat="43.98722" lon="2.28569">
        <ele>380</ele>
        <time>2021-04-18T09:36:42Z</time>
      </trkpt>
      <trkpt lat="43.98723" lon="2.2857">
        <ele>380</ele>
        <time>2021-04-18T09:36:43Z</time>
      </trkpt>
      <trkpt lat="43.98723" lon="2.28572">
        <ele>380</ele>
        <time>2021-04-18T09:36:44Z</time>
      </trkpt>
      <trkpt lat="43.98723" lon="2.28574">
        <ele>380</ele>
        <time>2021-04-18T09:36:45Z</time>
      </trkpt>
      <trkpt lat="43.98723" lon="2.28576">
        <ele>380</ele>
        <time>2021-04-18T09:36:46Z</time>
      </trkpt>
      <trkpt lat="43.98723" lon="2.28577">
        <ele>380</ele>
        <time>2021-04-18T09:36:47Z</time>
      </trkpt>
      <trkpt lat="43.98724" lon="2.28578">
        <ele>381</ele>
        <time>2021-04-18T09:36:48Z</time>
      </trkpt>
      <trkpt lat="43.98724" lon="2.2858">
        <ele>381</ele>
        <time>2021-04-18T09:36:49Z</time>
      </trkpt>
      <trkpt lat="43.98724" lon="2.28582">
        <ele>381</ele>
        <time>2021-04-18T09:36:50Z</time>
      </trkpt>
      <trkpt lat="43.98724" lon="2.28583">
        <ele>381</ele>
        <time>2021-04-18T09:36:51Z</time>
      </trkpt>
      <trkpt lat="43.98724" lon="2.28584">
        <ele>381</ele>
        <time>2021-04-18T09:36:52Z</time>
      </trkpt>
      <trkpt lat="43.98724" lon="2.28586">
        <ele>383</ele>
        <time>2021-04-18T09:36:53Z</time>
      </trkpt>
      <trkpt lat="43.98724" lon="2.28586">
        <ele>383</ele>
        <time>2021-04-18T09:36:54Z</time>
      </trkpt>
      <trkpt lat="43.98723" lon="2.28585">
        <ele>385</ele>
        <time>2021-04-18T09:36:55Z</time>
      </trkpt>
      <trkpt lat="43.98723" lon="2.28585">
        <ele>385</ele>
        <time>2021-04-18T09:36:55Z</time>
      </trkpt>
      <trkpt lat="43.98723" lon="2.28585">
        <ele>385</ele>
        <time>2021-04-18T09:36:55Z</time>
      </trkpt>
      <trkpt lat="43.98724" lon="2.28593">
        <ele>387</ele>
        <time>2021-04-18T09:37:04Z</time>
      </trkpt>
      <trkpt lat="43.98724" lon="2.28594">
        <ele>387</ele>
        <time>2021-04-18T09:37:05Z</time>
      </trkpt>
      <trkpt lat="43.98725" lon="2.28595">
        <ele>388</ele>
        <time>2021-04-18T09:37:06Z</time>
      </trkpt>
      <trkpt lat="43.98726" lon="2.28597">
        <ele>388</ele>
        <time>2021-04-18T09:37:07Z</time>
      </trkpt>
      <trkpt lat="43.98726" lon="2.28598">
        <ele>388</ele>
        <time>2021-04-18T09:37:08Z</time>
      </trkpt>
      <trkpt lat="43.98727" lon="2.286">
        <ele>388</ele>
        <time>2021-04-18T09:37:09Z</time>
      </trkpt>
      <trkpt lat="43.98727" lon="2.28601">
        <ele>389</ele>
        <time>2021-04-18T09:37:10Z</time>
      </trkpt>
      <trkpt lat="43.98727" lon="2.28603">
        <ele>389</ele>
        <time>2021-04-18T09:37:11Z</time>
      </trkpt>
      <trkpt lat="43.98728" lon="2.28604">
        <ele>389</ele>
        <time>2021-04-18T09:37:12Z</time>
      </trkpt>
      <trkpt lat="43.98729" lon="2.28605">
        <ele>389</ele>
        <time>2021-04-18T09:37:13Z</time>
      </trkpt>
      <trkpt lat="43.98729" lon="2.28606">
        <ele>389</ele>
        <time>2021-04-18T09:37:14Z</time>
      </trkpt>
      <trkpt lat="43.98729" lon="2.28607">
        <ele>389</ele>
        <time>2021-04-18T09:37:15Z</time>
      </trkpt>
      <trkpt lat="43.9873" lon="2.28609">
        <ele>389</ele>
        <time>2021-04-18T09:37:16Z</time>
      </trkpt>
      <trkpt lat="43.9873" lon="2.28611">
        <ele>389</ele>
        <time>2021-04-18T09:37:17Z</time>
      </trkpt>
      <trkpt lat="43.98731" lon="2.28612">
        <ele>389</ele>
        <time>2021-04-18T09:37:18Z</time>
      </trkpt>
      <trkpt lat="43.98731" lon="2.28614">
        <ele>390</ele>
        <time>2021-04-18T09:37:19Z</time>
      </trkpt>
      <trkpt lat="43.98732" lon="2.28615">
        <ele>390</ele>
        <time>2021-04-18T09:37:20Z</time>
      </trkpt>
      <trkpt lat="43.98732" lon="2.28616">
        <ele>390</ele>
        <time>2021-04-18T09:37:21Z</time>
      </trkpt>
      <trkpt lat="43.98732" lon="2.28618">
        <ele>390</ele>
        <time>2021-04-18T09:37:22Z</time>
      </trkpt>
      <trkpt lat="43.98733" lon="2.2862">
        <ele>390</ele>
        <time>2021-04-18T09:37:23Z</time>
      </trkpt>
      <trkpt lat="43.98733" lon="2.28621">
        <ele>390</ele>
        <time>2021-04-18T09:37:24Z</time>
      </trkpt>
      <trkpt lat="43.98734" lon="2.28622">
        <ele>391</ele>
        <time>2021-04-18T09:37:25Z</time>
      </trkpt>
      <trkpt lat="43.98734" lon="2.28624">
        <ele>391</ele>
        <time>2021-04-18T09:37:26Z</time>
      </trkpt>
      <trkpt lat="43.98734" lon="2.28625">
        <ele>391</ele>
        <time>2021-04-18T09:37:27Z</time>
      </trkpt>
      <trkpt lat="43.98735" lon="2.28627">
        <ele>391</ele>
        <time>2021-04-18T09:37:28Z</time>
      </trkpt>
      <trkpt lat="43.98735" lon="2.28628">
        <ele>391</ele>
        <time>2021-04-18T09:37:29Z</time>
      </trkpt>
      <trkpt lat="43.98736" lon="2.2863">
        <ele>392</ele>
        <time>2021-04-18T09:37:30Z</time>
      </trkpt>
      <trkpt lat="43.98737" lon="2.28631">
        <ele>392</ele>
        <time>2021-04-18T09:37:31Z</time>
      </trkpt>
      <trkpt lat="43.98737" lon="2.28633">
        <ele>392</ele>
        <time>2021-04-18T09:37:32Z</time>
      </trkpt>
      <trkpt lat="43.98738" lon="2.28635">
        <ele>393</ele>
        <time>2021-04-18T09:37:33Z</time>
      </trkpt>
      <trkpt lat="43.98738" lon="2.28636">
        <ele>393</ele>
        <time>2021-04-18T09:37:34Z</time>
      </trkpt>
      <trkpt lat="43.98739" lon="2.28637">
        <ele>394</ele>
        <time>2021-04-18T09:37:35Z</time>
      </trkpt>
      <trkpt lat="43.98739" lon="2.28639">
        <ele>394</ele>
        <time>2021-04-18T09:37:36Z</time>
      </trkpt>
      <trkpt lat="43.98739" lon="2.2864">
        <ele>393</ele>
        <time>2021-04-18T09:37:37Z</time>
      </trkpt>
      <trkpt lat="43.9874" lon="2.28642">
        <ele>393</ele>
        <time>2021-04-18T09:37:38Z</time>
      </trkpt>
      <trkpt lat="43.9874" lon="2.28643">
        <ele>393</ele>
        <time>2021-04-18T09:37:39Z</time>
      </trkpt>
      <trkpt lat="43.9874" lon="2.28644">
        <ele>393</ele>
        <time>2021-04-18T09:37:40Z</time>
      </trkpt>
      <trkpt lat="43.98741" lon="2.28646">
        <ele>393</ele>
        <time>2021-04-18T09:37:41Z</time>
      </trkpt>
      <trkpt lat="43.98742" lon="2.28647">
        <ele>393</ele>
        <time>2021-04-18T09:37:42Z</time>
      </trkpt>
      <trkpt lat="43.98742" lon="2.28648">
        <ele>393</ele>
        <time>2021-04-18T09:37:43Z</time>
      </trkpt>
      <trkpt lat="43.98743" lon="2.2865">
        <ele>393</ele>
        <time>2021-04-18T09:37:44Z</time>
      </trkpt>
      <trkpt lat="43.98743" lon="2.28651">
        <ele>393</ele>
        <time>2021-04-18T09:37:45Z</time>
      </trkpt>
      <trkpt lat="43.98743" lon="2.28652">
        <ele>393</ele>
        <time>2021-04-18T09:37:46Z</time>
      </trkpt>
      <trkpt lat="43.98743" lon="2.28654">
        <ele>393</ele>
        <time>2021-04-18T09:37:47Z</time>
      </trkpt>
      <trkpt lat="43.98743" lon="2.28656">
        <ele>393</ele>
        <time>2021-04-18T09:37:48Z</time>
      </trkpt>
      <trkpt lat="43.98744" lon="2.28658">
        <ele>393</ele>
        <time>2021-04-18T09:37:49Z</time>
      </trkpt>
      <trkpt lat="43.98744" lon="2.28659">
        <ele>393</ele>
        <time>2021-04-18T09:37:50Z</time>
      </trkpt>
      <trkpt lat="43.98745" lon="2.28661">
        <ele>394</ele>
        <time>2021-04-18T09:37:51Z</time>
      </trkpt>
      <trkpt lat="43.98745" lon="2.28662">
        <ele>394</ele>
        <time>2021-04-18T09:37:52Z</time>
      </trkpt>
      <trkpt lat="43.98745" lon="2.28664">
        <ele>393</ele>
        <time>2021-04-18T09:37:53Z</time>
      </trkpt>
      <trkpt lat="43.98745" lon="2.28665">
        <ele>394</ele>
        <time>2021-04-18T09:37:54Z</time>
      </trkpt>
      <trkpt lat="43.98745" lon="2.28667">
        <ele>395</ele>
        <time>2021-04-18T09:37:55Z</time>
      </trkpt>
      <trkpt lat="43.98746" lon="2.28668">
        <ele>396</ele>
        <time>2021-04-18T09:37:56Z</time>
      </trkpt>
      <trkpt lat="43.98746" lon="2.28669">
        <ele>396</ele>
        <time>2021-04-18T09:37:57Z</time>
      </trkpt>
      <trkpt lat="43.98746" lon="2.2867">
        <ele>396</ele>
        <time>2021-04-18T09:37:58Z</time>
      </trkpt>
      <trkpt lat="43.98747" lon="2.28672">
        <ele>396</ele>
        <time>2021-04-18T09:37:59Z</time>
      </trkpt>
      <trkpt lat="43.98747" lon="2.28674">
        <ele>397</ele>
        <time>2021-04-18T09:38:00Z</time>
      </trkpt>
      <trkpt lat="43.98747" lon="2.28675">
        <ele>397</ele>
        <time>2021-04-18T09:38:01Z</time>
      </trkpt>
      <trkpt lat="43.98746" lon="2.28677">
        <ele>398</ele>
        <time>2021-04-18T09:38:02Z</time>
      </trkpt>
      <trkpt lat="43.98746" lon="2.28679">
        <ele>398</ele>
        <time>2021-04-18T09:38:03Z</time>
      </trkpt>
      <trkpt lat="43.98746" lon="2.2868">
        <ele>399</ele>
        <time>2021-04-18T09:38:04Z</time>
      </trkpt>
      <trkpt lat="43.98746" lon="2.28683">
        <ele>398</ele>
        <time>2021-04-18T09:38:05Z</time>
      </trkpt>
      <trkpt lat="43.98746" lon="2.28684">
        <ele>398</ele>
        <time>2021-04-18T09:38:06Z</time>
      </trkpt>
      <trkpt lat="43.98746" lon="2.28686">
        <ele>399</ele>
        <time>2021-04-18T09:38:07Z</time>
      </trkpt>
      <trkpt lat="43.98745" lon="2.28688">
        <ele>399</ele>
        <time>2021-04-18T09:38:08Z</time>
      </trkpt>
      <trkpt lat="43.98746" lon="2.2869">
        <ele>398</ele>
        <time>2021-04-18T09:38:09Z</time>
      </trkpt>
      <trkpt lat="43.98745" lon="2.28692">
        <ele>398</ele>
        <time>2021-04-18T09:38:10Z</time>
      </trkpt>
      <trkpt lat="43.98746" lon="2.28694">
        <ele>398</ele>
        <time>2021-04-18T09:38:11Z</time>
      </trkpt>
      <trkpt lat="43.98746" lon="2.28696">
        <ele>398</ele>
        <time>2021-04-18T09:38:12Z</time>
      </trkpt>
      <trkpt lat="43.98745" lon="2.28697">
        <ele>397</ele>
        <time>2021-04-18T09:38:13Z</time>
      </trkpt>
      <trkpt lat="43.98745" lon="2.28699">
        <ele>397</ele>
        <time>2021-04-18T09:38:14Z</time>
      </trkpt>
      <trkpt lat="43.98746" lon="2.28699">
        <ele>398</ele>
        <time>2021-04-18T09:38:15Z</time>
      </trkpt>
      <trkpt lat="43.98745" lon="2.287">
        <ele>400</ele>
        <time>2021-04-18T09:38:16Z</time>
      </trkpt>
      <trkpt lat="43.98745" lon="2.287">
        <ele>400</ele>
        <time>2021-04-18T09:38:17Z</time>
      </trkpt>
      <trkpt lat="43.98745" lon="2.287">
        <ele>401</ele>
        <time>2021-04-18T09:38:18Z</time>
      </trkpt>
      <trkpt lat="43.98745" lon="2.287">
        <ele>401</ele>
        <time>2021-04-18T09:38:18Z</time>
      </trkpt>
      <trkpt lat="43.98745" lon="2.287">
        <ele>401</ele>
        <time>2021-04-18T09:38:18Z</time>
      </trkpt>
      <trkpt lat="43.98744" lon="2.28705">
        <ele>402</ele>
        <time>2021-04-18T09:38:53Z</time>
      </trkpt>
      <trkpt lat="43.98744" lon="2.28704">
        <ele>403</ele>
        <time>2021-04-18T09:38:54Z</time>
      </trkpt>
      <trkpt lat="43.98744" lon="2.28704">
        <ele>403</ele>
        <time>2021-04-18T09:38:55Z</time>
      </trkpt>
      <trkpt lat="43.98744" lon="2.28704">
        <ele>403</ele>
        <time>2021-04-18T09:38:55Z</time>
      </trkpt>
      <trkpt lat="43.98744" lon="2.28704">
        <ele>403</ele>
        <time>2021-04-18T09:38:55Z</time>
      </trkpt>
      <trkpt lat="43.98745" lon="2.28716">
        <ele>402</ele>
        <time>2021-04-18T09:39:09Z</time>
      </trkpt>
      <trkpt lat="43.98745" lon="2.28717">
        <ele>403</ele>
        <time>2021-04-18T09:39:10Z</time>
      </trkpt>
      <trkpt lat="43.98745" lon="2.28718">
        <ele>403</ele>
        <time>2021-04-18T09:39:11Z</time>
      </trkpt>
      <trkpt lat="43.98746" lon="2.28719">
        <ele>403</ele>
        <time>2021-04-18T09:39:12Z</time>
      </trkpt>
      <trkpt lat="43.98746" lon="2.28721">
        <ele>403</ele>
        <time>2021-04-18T09:39:13Z</time>
      </trkpt>
      <trkpt lat="43.98747" lon="2.28723">
        <ele>403</ele>
        <time>2021-04-18T09:39:14Z</time>
      </trkpt>
      <trkpt lat="43.98747" lon="2.28725">
        <ele>402</ele>
        <time>2021-04-18T09:39:15Z</time>
      </trkpt>
      <trkpt lat="43.98747" lon="2.28726">
        <ele>403</ele>
        <time>2021-04-18T09:39:16Z</time>
      </trkpt>
      <trkpt lat="43.98748" lon="2.28728">
        <ele>402</ele>
        <time>2021-04-18T09:39:17Z</time>
      </trkpt>
      <trkpt lat="43.98748" lon="2.2873">
        <ele>402</ele>
        <time>2021-04-18T09:39:18Z</time>
      </trkpt>
      <trkpt lat="43.98747" lon="2.28731">
        <ele>402</ele>
        <time>2021-04-18T09:39:19Z</time>
      </trkpt>
      <trkpt lat="43.98748" lon="2.28733">
        <ele>402</ele>
        <time>2021-04-18T09:39:20Z</time>
      </trkpt>
      <trkpt lat="43.98748" lon="2.28735">
        <ele>403</ele>
        <time>2021-04-18T09:39:21Z</time>
      </trkpt>
      <trkpt lat="43.98748" lon="2.28737">
        <ele>403</ele>
        <time>2021-04-18T09:39:22Z</time>
      </trkpt>
      <trkpt lat="43.98747" lon="2.2874">
        <ele>403</ele>
        <time>2021-04-18T09:39:23Z</time>
      </trkpt>
      <trkpt lat="43.98747" lon="2.28742">
        <ele>403</ele>
        <time>2021-04-18T09:39:24Z</time>
      </trkpt>
      <trkpt lat="43.98747" lon="2.28744">
        <ele>403</ele>
        <time>2021-04-18T09:39:25Z</time>
      </trkpt>
      <trkpt lat="43.98747" lon="2.28746">
        <ele>403</ele>
        <time>2021-04-18T09:39:26Z</time>
      </trkpt>
      <trkpt lat="43.98747" lon="2.28748">
        <ele>403</ele>
        <time>2021-04-18T09:39:27Z</time>
      </trkpt>
      <trkpt lat="43.98747" lon="2.2875">
        <ele>403</ele>
        <time>2021-04-18T09:39:28Z</time>
      </trkpt>
      <trkpt lat="43.98748" lon="2.28752">
        <ele>403</ele>
        <time>2021-04-18T09:39:29Z</time>
      </trkpt>
      <trkpt lat="43.98748" lon="2.28754">
        <ele>403</ele>
        <time>2021-04-18T09:39:30Z</time>
      </trkpt>
      <trkpt lat="43.98748" lon="2.28756">
        <ele>403</ele>
        <time>2021-04-18T09:39:31Z</time>
      </trkpt>
      <trkpt lat="43.98748" lon="2.28758">
        <ele>402</ele>
        <time>2021-04-18T09:39:32Z</time>
      </trkpt>
      <trkpt lat="43.98748" lon="2.2876">
        <ele>402</ele>
        <time>2021-04-18T09:39:33Z</time>
      </trkpt>
      <trkpt lat="43.98748" lon="2.28762">
        <ele>402</ele>
        <time>2021-04-18T09:39:34Z</time>
      </trkpt>
      <trkpt lat="43.98747" lon="2.28764">
        <ele>403</ele>
        <time>2021-04-18T09:39:35Z</time>
      </trkpt>
      <trkpt lat="43.98747" lon="2.28766">
        <ele>402</ele>
        <time>2021-04-18T09:39:36Z</time>
      </trkpt>
      <trkpt lat="43.98747" lon="2.28768">
        <ele>403</ele>
        <time>2021-04-18T09:39:37Z</time>
      </trkpt>
      <trkpt lat="43.98747" lon="2.2877">
        <ele>403</ele>
        <time>2021-04-18T09:39:38Z</time>
      </trkpt>
      <trkpt lat="43.98748" lon="2.28772">
        <ele>403</ele>
        <time>2021-04-18T09:39:39Z</time>
      </trkpt>
      <trkpt lat="43.98748" lon="2.28774">
        <ele>402</ele>
        <time>2021-04-18T09:39:40Z</time>
      </trkpt>
      <trkpt lat="43.98748" lon="2.28776">
        <ele>403</ele>
        <time>2021-04-18T09:39:41Z</time>
      </trkpt>
      <trkpt lat="43.98749" lon="2.28778">
        <ele>403</ele>
        <time>2021-04-18T09:39:42Z</time>
      </trkpt>
      <trkpt lat="43.98749" lon="2.2878">
        <ele>403</ele>
        <time>2021-04-18T09:39:43Z</time>
      </trkpt>
      <trkpt lat="43.9875" lon="2.28782">
        <ele>403</ele>
        <time>2021-04-18T09:39:44Z</time>
      </trkpt>
      <trkpt lat="43.9875" lon="2.28784">
        <ele>402</ele>
        <time>2021-04-18T09:39:45Z</time>
      </trkpt>
      <trkpt lat="43.98749" lon="2.28786">
        <ele>402</ele>
        <time>2021-04-18T09:39:46Z</time>
      </trkpt>
      <trkpt lat="43.98748" lon="2.28787">
        <ele>402</ele>
        <time>2021-04-18T09:39:47Z</time>
      </trkpt>
      <trkpt lat="43.98748" lon="2.2879">
        <ele>402</ele>
        <time>2021-04-18T09:39:48Z</time>
      </trkpt>
      <trkpt lat="43.98748" lon="2.28792">
        <ele>402</ele>
        <time>2021-04-18T09:39:49Z</time>
      </trkpt>
      <trkpt lat="43.98748" lon="2.28794">
        <ele>402</ele>
        <time>2021-04-18T09:39:50Z</time>
      </trkpt>
      <trkpt lat="43.98747" lon="2.28795">
        <ele>401</ele>
        <time>2021-04-18T09:39:51Z</time>
      </trkpt>
      <trkpt lat="43.98747" lon="2.28797">
        <ele>401</ele>
        <time>2021-04-18T09:39:52Z</time>
      </trkpt>
      <trkpt lat="43.98747" lon="2.28797">
        <ele>401</ele>
        <time>2021-04-18T09:39:53Z</time>
      </trkpt>
      <trkpt lat="43.98746" lon="2.28799">
        <ele>401</ele>
        <time>2021-04-18T09:39:54Z</time>
      </trkpt>
      <trkpt lat="43.98745" lon="2.288">
        <ele>400</ele>
        <time>2021-04-18T09:39:55Z</time>
      </trkpt>
      <trkpt lat="43.98744" lon="2.28801">
        <ele>400</ele>
        <time>2021-04-18T09:39:56Z</time>
      </trkpt>
      <trkpt lat="43.98743" lon="2.28802">
        <ele>399</ele>
        <time>2021-04-18T09:39:57Z</time>
      </trkpt>
      <trkpt lat="43.98743" lon="2.28804">
        <ele>399</ele>
        <time>2021-04-18T09:39:58Z</time>
      </trkpt>
      <trkpt lat="43.98742" lon="2.28805">
        <ele>399</ele>
        <time>2021-04-18T09:39:59Z</time>
      </trkpt>
      <trkpt lat="43.98741" lon="2.28807">
        <ele>399</ele>
        <time>2021-04-18T09:40:00Z</time>
      </trkpt>
      <trkpt lat="43.9874" lon="2.28808">
        <ele>398</ele>
        <time>2021-04-18T09:40:01Z</time>
      </trkpt>
      <trkpt lat="43.98739" lon="2.28809">
        <ele>398</ele>
        <time>2021-04-18T09:40:02Z</time>
      </trkpt>
      <trkpt lat="43.98738" lon="2.28811">
        <ele>397</ele>
        <time>2021-04-18T09:40:03Z</time>
      </trkpt>
      <trkpt lat="43.98736" lon="2.28812">
        <ele>397</ele>
        <time>2021-04-18T09:40:04Z</time>
      </trkpt>
      <trkpt lat="43.98736" lon="2.28813">
        <ele>397</ele>
        <time>2021-04-18T09:40:05Z</time>
      </trkpt>
      <trkpt lat="43.98735" lon="2.28815">
        <ele>397</ele>
        <time>2021-04-18T09:40:06Z</time>
      </trkpt>
      <trkpt lat="43.98734" lon="2.28816">
        <ele>397</ele>
        <time>2021-04-18T09:40:07Z</time>
      </trkpt>
      <trkpt lat="43.98734" lon="2.28818">
        <ele>397</ele>
        <time>2021-04-18T09:40:08Z</time>
      </trkpt>
      <trkpt lat="43.98733" lon="2.2882">
        <ele>397</ele>
        <time>2021-04-18T09:40:09Z</time>
      </trkpt>
      <trkpt lat="43.98732" lon="2.28821">
        <ele>397</ele>
        <time>2021-04-18T09:40:10Z</time>
      </trkpt>
      <trkpt lat="43.98731" lon="2.28823">
        <ele>397</ele>
        <time>2021-04-18T09:40:11Z</time>
      </trkpt>
      <trkpt lat="43.98731" lon="2.28825">
        <ele>398</ele>
        <time>2021-04-18T09:40:12Z</time>
      </trkpt>
      <trkpt lat="43.9873" lon="2.28827">
        <ele>398</ele>
        <time>2021-04-18T09:40:13Z</time>
      </trkpt>
      <trkpt lat="43.98729" lon="2.28829">
        <ele>398</ele>
        <time>2021-04-18T09:40:14Z</time>
      </trkpt>
      <trkpt lat="43.98728" lon="2.28831">
        <ele>398</ele>
        <time>2021-04-18T09:40:15Z</time>
      </trkpt>
      <trkpt lat="43.98727" lon="2.28832">
        <ele>397</ele>
        <time>2021-04-18T09:40:16Z</time>
      </trkpt>
      <trkpt lat="43.98727" lon="2.28834">
        <ele>397</ele>
        <time>2021-04-18T09:40:17Z</time>
      </trkpt>
      <trkpt lat="43.98726" lon="2.28835">
        <ele>397</ele>
        <time>2021-04-18T09:40:18Z</time>
      </trkpt>
      <trkpt lat="43.98725" lon="2.28837">
        <ele>396</ele>
        <time>2021-04-18T09:40:19Z</time>
      </trkpt>
      <trkpt lat="43.98724" lon="2.28838">
        <ele>396</ele>
        <time>2021-04-18T09:40:20Z</time>
      </trkpt>
      <trkpt lat="43.98724" lon="2.2884">
        <ele>396</ele>
        <time>2021-04-18T09:40:21Z</time>
      </trkpt>
      <trkpt lat="43.98724" lon="2.28842">
        <ele>396</ele>
        <time>2021-04-18T09:40:22Z</time>
      </trkpt>
      <trkpt lat="43.98724" lon="2.28844">
        <ele>396</ele>
        <time>2021-04-18T09:40:23Z</time>
      </trkpt>
      <trkpt lat="43.98724" lon="2.28846">
        <ele>395</ele>
        <time>2021-04-18T09:40:24Z</time>
      </trkpt>
      <trkpt lat="43.98723" lon="2.28848">
        <ele>395</ele>
        <time>2021-04-18T09:40:25Z</time>
      </trkpt>
      <trkpt lat="43.98723" lon="2.28851">
        <ele>394</ele>
        <time>2021-04-18T09:40:26Z</time>
      </trkpt>
      <trkpt lat="43.98723" lon="2.28853">
        <ele>394</ele>
        <time>2021-04-18T09:40:27Z</time>
      </trkpt>
      <trkpt lat="43.98723" lon="2.28855">
        <ele>394</ele>
        <time>2021-04-18T09:40:28Z</time>
      </trkpt>
      <trkpt lat="43.98723" lon="2.28857">
        <ele>394</ele>
        <time>2021-04-18T09:40:29Z</time>
      </trkpt>
      <trkpt lat="43.98724" lon="2.28859">
        <ele>394</ele>
        <time>2021-04-18T09:40:30Z</time>
      </trkpt>
      <trkpt lat="43.98724" lon="2.2886">
        <ele>393</ele>
        <time>2021-04-18T09:40:31Z</time>
      </trkpt>
      <trkpt lat="43.98723" lon="2.28862">
        <ele>393</ele>
        <time>2021-04-18T09:40:32Z</time>
      </trkpt>
      <trkpt lat="43.98723" lon="2.28864">
        <ele>392</ele>
        <time>2021-04-18T09:40:33Z</time>
      </trkpt>
      <trkpt lat="43.98723" lon="2.28866">
        <ele>392</ele>
        <time>2021-04-18T09:40:34Z</time>
      </trkpt>
      <trkpt lat="43.98724" lon="2.28867">
        <ele>391</ele>
        <time>2021-04-18T09:40:35Z</time>
      </trkpt>
      <trkpt lat="43.98724" lon="2.28869">
        <ele>391</ele>
        <time>2021-04-18T09:40:36Z</time>
      </trkpt>
      <trkpt lat="43.98724" lon="2.2887">
        <ele>391</ele>
        <time>2021-04-18T09:40:37Z</time>
      </trkpt>
      <trkpt lat="43.98724" lon="2.28873">
        <ele>390</ele>
        <time>2021-04-18T09:40:38Z</time>
      </trkpt>
      <trkpt lat="43.98724" lon="2.28874">
        <ele>390</ele>
        <time>2021-04-18T09:40:39Z</time>
      </trkpt>
      <trkpt lat="43.98724" lon="2.28875">
        <ele>390</ele>
        <time>2021-04-18T09:40:40Z</time>
      </trkpt>
      <trkpt lat="43.98724" lon="2.28877">
        <ele>390</ele>
        <time>2021-04-18T09:40:41Z</time>
      </trkpt>
      <trkpt lat="43.98725" lon="2.28878">
        <ele>389</ele>
        <time>2021-04-18T09:40:42Z</time>
      </trkpt>
      <trkpt lat="43.98725" lon="2.2888">
        <ele>388</ele>
        <time>2021-04-18T09:40:43Z</time>
      </trkpt>
      <trkpt lat="43.98725" lon="2.28882">
        <ele>388</ele>
        <time>2021-04-18T09:40:44Z</time>
      </trkpt>
      <trkpt lat="43.98726" lon="2.28884">
        <ele>388</ele>
        <time>2021-04-18T09:40:45Z</time>
      </trkpt>
      <trkpt lat="43.98727" lon="2.28886">
        <ele>387</ele>
        <time>2021-04-18T09:40:46Z</time>
      </trkpt>
      <trkpt lat="43.98727" lon="2.28887">
        <ele>387</ele>
        <time>2021-04-18T09:40:47Z</time>
      </trkpt>
      <trkpt lat="43.98727" lon="2.28889">
        <ele>387</ele>
        <time>2021-04-18T09:40:48Z</time>
      </trkpt>
      <trkpt lat="43.98727" lon="2.28891">
        <ele>386</ele>
        <time>2021-04-18T09:40:49Z</time>
      </trkpt>
      <trkpt lat="43.98728" lon="2.28892">
        <ele>386</ele>
        <time>2021-04-18T09:40:50Z</time>
      </trkpt>
      <trkpt lat="43.98729" lon="2.28893">
        <ele>386</ele>
        <time>2021-04-18T09:40:51Z</time>
      </trkpt>
      <trkpt lat="43.98729" lon="2.28895">
        <ele>386</ele>
        <time>2021-04-18T09:40:52Z</time>
      </trkpt>
      <trkpt lat="43.9873" lon="2.28897">
        <ele>385</ele>
        <time>2021-04-18T09:40:53Z</time>
      </trkpt>
      <trkpt lat="43.98731" lon="2.28898">
        <ele>385</ele>
        <time>2021-04-18T09:40:54Z</time>
      </trkpt>
      <trkpt lat="43.98732" lon="2.289">
        <ele>384</ele>
        <time>2021-04-18T09:40:55Z</time>
      </trkpt>
      <trkpt lat="43.98732" lon="2.28902">
        <ele>384</ele>
        <time>2021-04-18T09:40:56Z</time>
      </trkpt>
      <trkpt lat="43.98732" lon="2.28904">
        <ele>383</ele>
        <time>2021-04-18T09:40:57Z</time>
      </trkpt>
      <trkpt lat="43.98733" lon="2.28906">
        <ele>383</ele>
        <time>2021-04-18T09:40:58Z</time>
      </trkpt>
      <trkpt lat="43.98733" lon="2.28908">
        <ele>382</ele>
        <time>2021-04-18T09:40:59Z</time>
      </trkpt>
      <trkpt lat="43.98734" lon="2.28909">
        <ele>382</ele>
        <time>2021-04-18T09:41:00Z</time>
      </trkpt>
      <trkpt lat="43.98734" lon="2.28911">
        <ele>381</ele>
        <time>2021-04-18T09:41:01Z</time>
      </trkpt>
      <trkpt lat="43.98735" lon="2.28912">
        <ele>381</ele>
        <time>2021-04-18T09:41:02Z</time>
      </trkpt>
      <trkpt lat="43.98735" lon="2.28914">
        <ele>381</ele>
        <time>2021-04-18T09:41:03Z</time>
      </trkpt>
      <trkpt lat="43.98736" lon="2.28915">
        <ele>381</ele>
        <time>2021-04-18T09:41:04Z</time>
      </trkpt>
      <trkpt lat="43.98737" lon="2.28917">
        <ele>380</ele>
        <time>2021-04-18T09:41:05Z</time>
      </trkpt>
      <trkpt lat="43.98738" lon="2.28919">
        <ele>379</ele>
        <time>2021-04-18T09:41:06Z</time>
      </trkpt>
      <trkpt lat="43.98738" lon="2.2892">
        <ele>379</ele>
        <time>2021-04-18T09:41:07Z</time>
      </trkpt>
      <trkpt lat="43.98739" lon="2.28923">
        <ele>378</ele>
        <time>2021-04-18T09:41:08Z</time>
      </trkpt>
      <trkpt lat="43.98739" lon="2.28925">
        <ele>378</ele>
        <time>2021-04-18T09:41:09Z</time>
      </trkpt>
      <trkpt lat="43.98739" lon="2.28926">
        <ele>377</ele>
        <time>2021-04-18T09:41:10Z</time>
      </trkpt>
      <trkpt lat="43.98739" lon="2.28927">
        <ele>377</ele>
        <time>2021-04-18T09:41:11Z</time>
      </trkpt>
      <trkpt lat="43.98739" lon="2.28929">
        <ele>377</ele>
        <time>2021-04-18T09:41:12Z</time>
      </trkpt>
      <trkpt lat="43.98739" lon="2.2893">
        <ele>377</ele>
        <time>2021-04-18T09:41:13Z</time>
      </trkpt>
      <trkpt lat="43.98739" lon="2.28932">
        <ele>376</ele>
        <time>2021-04-18T09:41:14Z</time>
      </trkpt>
      <trkpt lat="43.98739" lon="2.28934">
        <ele>377</ele>
        <time>2021-04-18T09:41:15Z</time>
      </trkpt>
      <trkpt lat="43.98739" lon="2.28935">
        <ele>376</ele>
        <time>2021-04-18T09:41:16Z</time>
      </trkpt>
      <trkpt lat="43.98739" lon="2.28937">
        <ele>376</ele>
        <time>2021-04-18T09:41:17Z</time>
      </trkpt>
      <trkpt lat="43.98739" lon="2.28938">
        <ele>376</ele>
        <time>2021-04-18T09:41:18Z</time>
      </trkpt>
      <trkpt lat="43.98738" lon="2.28939">
        <ele>377</ele>
        <time>2021-04-18T09:41:19Z</time>
      </trkpt>
      <trkpt lat="43.98737" lon="2.28941">
        <ele>377</ele>
        <time>2021-04-18T09:41:20Z</time>
      </trkpt>
      <trkpt lat="43.98737" lon="2.28943">
        <ele>377</ele>
        <time>2021-04-18T09:41:21Z</time>
      </trkpt>
      <trkpt lat="43.98737" lon="2.28945">
        <ele>376</ele>
        <time>2021-04-18T09:41:22Z</time>
      </trkpt>
      <trkpt lat="43.98737" lon="2.28947">
        <ele>376</ele>
        <time>2021-04-18T09:41:23Z</time>
      </trkpt>
      <trkpt lat="43.98736" lon="2.28948">
        <ele>376</ele>
        <time>2021-04-18T09:41:24Z</time>
      </trkpt>
      <trkpt lat="43.98736" lon="2.2895">
        <ele>375</ele>
        <time>2021-04-18T09:41:25Z</time>
      </trkpt>
      <trkpt lat="43.98735" lon="2.28951">
        <ele>375</ele>
        <time>2021-04-18T09:41:26Z</time>
      </trkpt>
      <trkpt lat="43.98735" lon="2.28953">
        <ele>375</ele>
        <time>2021-04-18T09:41:27Z</time>
      </trkpt>
      <trkpt lat="43.98734" lon="2.28954">
        <ele>375</ele>
        <time>2021-04-18T09:41:28Z</time>
      </trkpt>
      <trkpt lat="43.98734" lon="2.28956">
        <ele>375</ele>
        <time>2021-04-18T09:41:29Z</time>
      </trkpt>
      <trkpt lat="43.98733" lon="2.28957">
        <ele>375</ele>
        <time>2021-04-18T09:41:30Z</time>
      </trkpt>
      <trkpt lat="43.98732" lon="2.28959">
        <ele>375</ele>
        <time>2021-04-18T09:41:31Z</time>
      </trkpt>
      <trkpt lat="43.98731" lon="2.28961">
        <ele>375</ele>
        <time>2021-04-18T09:41:32Z</time>
      </trkpt>
      <trkpt lat="43.9873" lon="2.28962">
        <ele>375</ele>
        <time>2021-04-18T09:41:33Z</time>
      </trkpt>
      <trkpt lat="43.98729" lon="2.28964">
        <ele>376</ele>
        <time>2021-04-18T09:41:34Z</time>
      </trkpt>
      <trkpt lat="43.98729" lon="2.28965">
        <ele>376</ele>
        <time>2021-04-18T09:41:35Z</time>
      </trkpt>
      <trkpt lat="43.98729" lon="2.28967">
        <ele>376</ele>
        <time>2021-04-18T09:41:36Z</time>
      </trkpt>
      <trkpt lat="43.98729" lon="2.28968">
        <ele>375</ele>
        <time>2021-04-18T09:41:37Z</time>
      </trkpt>
      <trkpt lat="43.98728" lon="2.2897">
        <ele>375</ele>
        <time>2021-04-18T09:41:38Z</time>
      </trkpt>
      <trkpt lat="43.98728" lon="2.28971">
        <ele>375</ele>
        <time>2021-04-18T09:41:39Z</time>
      </trkpt>
      <trkpt lat="43.98727" lon="2.28973">
        <ele>375</ele>
        <time>2021-04-18T09:41:40Z</time>
      </trkpt>
      <trkpt lat="43.98727" lon="2.28975">
        <ele>375</ele>
        <time>2021-04-18T09:41:41Z</time>
      </trkpt>
      <trkpt lat="43.98728" lon="2.28976">
        <ele>374</ele>
        <time>2021-04-18T09:41:42Z</time>
      </trkpt>
      <trkpt lat="43.98729" lon="2.28977">
        <ele>373</ele>
        <time>2021-04-18T09:41:43Z</time>
      </trkpt>
      <trkpt lat="43.9873" lon="2.28977">
        <ele>372</ele>
        <time>2021-04-18T09:41:44Z</time>
      </trkpt>
      <trkpt lat="43.9873" lon="2.28977">
        <ele>372</ele>
        <time>2021-04-18T09:41:44Z</time>
      </trkpt>
      <trkpt lat="43.9873" lon="2.28977">
        <ele>372</ele>
        <time>2021-04-18T09:41:44Z</time>
      </trkpt>
      <trkpt lat="43.98728" lon="2.28983">
        <ele>371</ele>
        <time>2021-04-18T09:42:52Z</time>
      </trkpt>
      <trkpt lat="43.98727" lon="2.28984">
        <ele>371</ele>
        <time>2021-04-18T09:42:53Z</time>
      </trkpt>
      <trkpt lat="43.98727" lon="2.28985">
        <ele>371</ele>
        <time>2021-04-18T09:42:54Z</time>
      </trkpt>
      <trkpt lat="43.98726" lon="2.28986">
        <ele>371</ele>
        <time>2021-04-18T09:42:55Z</time>
      </trkpt>
      <trkpt lat="43.98725" lon="2.28988">
        <ele>371</ele>
        <time>2021-04-18T09:42:56Z</time>
      </trkpt>
      <trkpt lat="43.98725" lon="2.28989">
        <ele>372</ele>
        <time>2021-04-18T09:42:57Z</time>
      </trkpt>
      <trkpt lat="43.98724" lon="2.2899">
        <ele>372</ele>
        <time>2021-04-18T09:42:58Z</time>
      </trkpt>
      <trkpt lat="43.98724" lon="2.28991">
        <ele>372</ele>
        <time>2021-04-18T09:42:59Z</time>
      </trkpt>
      <trkpt lat="43.98724" lon="2.28992">
        <ele>372</ele>
        <time>2021-04-18T09:43:00Z</time>
      </trkpt>
      <trkpt lat="43.98724" lon="2.28993">
        <ele>373</ele>
        <time>2021-04-18T09:43:01Z</time>
      </trkpt>
      <trkpt lat="43.98723" lon="2.28994">
        <ele>373</ele>
        <time>2021-04-18T09:43:02Z</time>
      </trkpt>
      <trkpt lat="43.98723" lon="2.28995">
        <ele>373</ele>
        <time>2021-04-18T09:43:03Z</time>
      </trkpt>
      <trkpt lat="43.98722" lon="2.28996">
        <ele>373</ele>
        <time>2021-04-18T09:43:04Z</time>
      </trkpt>
      <trkpt lat="43.98721" lon="2.28997">
        <ele>373</ele>
        <time>2021-04-18T09:43:05Z</time>
      </trkpt>
      <trkpt lat="43.98721" lon="2.28998">
        <ele>373</ele>
        <time>2021-04-18T09:43:06Z</time>
      </trkpt>
      <trkpt lat="43.9872" lon="2.28999">
        <ele>373</ele>
        <time>2021-04-18T09:43:07Z</time>
      </trkpt>
      <trkpt lat="43.9872" lon="2.29">
        <ele>373</ele>
        <time>2021-04-18T09:43:08Z</time>
      </trkpt>
      <trkpt lat="43.98721" lon="2.29002">
        <ele>373</ele>
        <time>2021-04-18T09:43:09Z</time>
      </trkpt>
      <trkpt lat="43.98721" lon="2.29004">
        <ele>373</ele>
        <time>2021-04-18T09:43:10Z</time>
      </trkpt>
      <trkpt lat="43.98722" lon="2.29006">
        <ele>373</ele>
        <time>2021-04-18T09:43:11Z</time>
      </trkpt>
      <trkpt lat="43.98722" lon="2.29008">
        <ele>373</ele>
        <time>2021-04-18T09:43:12Z</time>
      </trkpt>
      <trkpt lat="43.98723" lon="2.29009">
        <ele>372</ele>
        <time>2021-04-18T09:43:13Z</time>
      </trkpt>
      <trkpt lat="43.98724" lon="2.29011">
        <ele>372</ele>
        <time>2021-04-18T09:43:14Z</time>
      </trkpt>
      <trkpt lat="43.98726" lon="2.29013">
        <ele>372</ele>
        <time>2021-04-18T09:43:15Z</time>
      </trkpt>
      <trkpt lat="43.98727" lon="2.29014">
        <ele>373</ele>
        <time>2021-04-18T09:43:16Z</time>
      </trkpt>
      <trkpt lat="43.98728" lon="2.29016">
        <ele>373</ele>
        <time>2021-04-18T09:43:17Z</time>
      </trkpt>
      <trkpt lat="43.98729" lon="2.29017">
        <ele>373</ele>
        <time>2021-04-18T09:43:18Z</time>
      </trkpt>
      <trkpt lat="43.9873" lon="2.29018">
        <ele>373</ele>
        <time>2021-04-18T09:43:19Z</time>
      </trkpt>
      <trkpt lat="43.98731" lon="2.29019">
        <ele>373</ele>
        <time>2021-04-18T09:43:20Z</time>
      </trkpt>
      <trkpt lat="43.98731" lon="2.29021">
        <ele>373</ele>
        <time>2021-04-18T09:43:21Z</time>
      </trkpt>
      <trkpt lat="43.98732" lon="2.29022">
        <ele>373</ele>
        <time>2021-04-18T09:43:22Z</time>
      </trkpt>
      <trkpt lat="43.98733" lon="2.29023">
        <ele>373</ele>
        <time>2021-04-18T09:43:23Z</time>
      </trkpt>
      <trkpt lat="43.98734" lon="2.29024">
        <ele>373</ele>
        <time>2021-04-18T09:43:24Z</time>
      </trkpt>
      <trkpt lat="43.98734" lon="2.29026">
        <ele>373</ele>
        <time>2021-04-18T09:43:25Z</time>
      </trkpt>
      <trkpt lat="43.98735" lon="2.29027">
        <ele>373</ele>
        <time>2021-04-18T09:43:26Z</time>
      </trkpt>
      <trkpt lat="43.98736" lon="2.29028">
        <ele>373</ele>
        <time>2021-04-18T09:43:27Z</time>
      </trkpt>
      <trkpt lat="43.98737" lon="2.29028">
        <ele>373</ele>
        <time>2021-04-18T09:43:28Z</time>
      </trkpt>
      <trkpt lat="43.98737" lon="2.29029">
        <ele>373</ele>
        <time>2021-04-18T09:43:29Z</time>
      </trkpt>
      <trkpt lat="43.98737" lon="2.2903">
        <ele>373</ele>
        <time>2021-04-18T09:43:30Z</time>
      </trkpt>
      <trkpt lat="43.98738" lon="2.29031">
        <ele>374</ele>
        <time>2021-04-18T09:43:31Z</time>
      </trkpt>
      <trkpt lat="43.98738" lon="2.29032">
        <ele>374</ele>
        <time>2021-04-18T09:43:32Z</time>
      </trkpt>
      <trkpt lat="43.98739" lon="2.29033">
        <ele>374</ele>
        <time>2021-04-18T09:43:33Z</time>
      </trkpt>
      <trkpt lat="43.9874" lon="2.29035">
        <ele>374</ele>
        <time>2021-04-18T09:43:34Z</time>
      </trkpt>
      <trkpt lat="43.9874" lon="2.29036">
        <ele>374</ele>
        <time>2021-04-18T09:43:35Z</time>
      </trkpt>
      <trkpt lat="43.98741" lon="2.29037">
        <ele>373</ele>
        <time>2021-04-18T09:43:36Z</time>
      </trkpt>
      <trkpt lat="43.98742" lon="2.29038">
        <ele>373</ele>
        <time>2021-04-18T09:43:37Z</time>
      </trkpt>
      <trkpt lat="43.98742" lon="2.2904">
        <ele>373</ele>
        <time>2021-04-18T09:43:38Z</time>
      </trkpt>
      <trkpt lat="43.98743" lon="2.29041">
        <ele>373</ele>
        <time>2021-04-18T09:43:39Z</time>
      </trkpt>
      <trkpt lat="43.98743" lon="2.29043">
        <ele>372</ele>
        <time>2021-04-18T09:43:40Z</time>
      </trkpt>
      <trkpt lat="43.98743" lon="2.29044">
        <ele>372</ele>
        <time>2021-04-18T09:43:41Z</time>
      </trkpt>
      <trkpt lat="43.98744" lon="2.29046">
        <ele>372</ele>
        <time>2021-04-18T09:43:42Z</time>
      </trkpt>
      <trkpt lat="43.98745" lon="2.29048">
        <ele>371</ele>
        <time>2021-04-18T09:43:43Z</time>
      </trkpt>
      <trkpt lat="43.98745" lon="2.29049">
        <ele>371</ele>
        <time>2021-04-18T09:43:44Z</time>
      </trkpt>
      <trkpt lat="43.98745" lon="2.2905">
        <ele>371</ele>
        <time>2021-04-18T09:43:45Z</time>
      </trkpt>
      <trkpt lat="43.98745" lon="2.29051">
        <ele>371</ele>
        <time>2021-04-18T09:43:46Z</time>
      </trkpt>
      <trkpt lat="43.98745" lon="2.29052">
        <ele>372</ele>
        <time>2021-04-18T09:43:47Z</time>
      </trkpt>
      <trkpt lat="43.98745" lon="2.29054">
        <ele>372</ele>
        <time>2021-04-18T09:43:48Z</time>
      </trkpt>
      <trkpt lat="43.98745" lon="2.29055">
        <ele>372</ele>
        <time>2021-04-18T09:43:49Z</time>
      </trkpt>
      <trkpt lat="43.98745" lon="2.29057">
        <ele>373</ele>
        <time>2021-04-18T09:43:50Z</time>
      </trkpt>
      <trkpt lat="43.98745" lon="2.29058">
        <ele>373</ele>
        <time>2021-04-18T09:43:51Z</time>
      </trkpt>
      <trkpt lat="43.98744" lon="2.29059">
        <ele>373</ele>
        <time>2021-04-18T09:43:52Z</time>
      </trkpt>
      <trkpt lat="43.98743" lon="2.29061">
        <ele>373</ele>
        <time>2021-04-18T09:43:53Z</time>
      </trkpt>
      <trkpt lat="43.98743" lon="2.29063">
        <ele>372</ele>
        <time>2021-04-18T09:43:54Z</time>
      </trkpt>
      <trkpt lat="43.98743" lon="2.29065">
        <ele>373</ele>
        <time>2021-04-18T09:43:55Z</time>
      </trkpt>
      <trkpt lat="43.98743" lon="2.29067">
        <ele>373</ele>
        <time>2021-04-18T09:43:56Z</time>
      </trkpt>
      <trkpt lat="43.98743" lon="2.29069">
        <ele>373</ele>
        <time>2021-04-18T09:43:57Z</time>
      </trkpt>
      <trkpt lat="43.98743" lon="2.29071">
        <ele>373</ele>
        <time>2021-04-18T09:43:58Z</time>
      </trkpt>
      <trkpt lat="43.98743" lon="2.29073">
        <ele>373</ele>
        <time>2021-04-18T09:43:59Z</time>
      </trkpt>
      <trkpt lat="43.98743" lon="2.29074">
        <ele>373</ele>
        <time>2021-04-18T09:44:00Z</time>
      </trkpt>
      <trkpt lat="43.98743" lon="2.29077">
        <ele>373</ele>
        <time>2021-04-18T09:44:01Z</time>
      </trkpt>
      <trkpt lat="43.98743" lon="2.29079">
        <ele>372</ele>
        <time>2021-04-18T09:44:02Z</time>
      </trkpt>
      <trkpt lat="43.98743" lon="2.2908">
        <ele>373</ele>
        <time>2021-04-18T09:44:03Z</time>
      </trkpt>
      <trkpt lat="43.98743" lon="2.29082">
        <ele>373</ele>
        <time>2021-04-18T09:44:04Z</time>
      </trkpt>
      <trkpt lat="43.98743" lon="2.29084">
        <ele>374</ele>
        <time>2021-04-18T09:44:05Z</time>
      </trkpt>
      <trkpt lat="43.98743" lon="2.29086">
        <ele>374</ele>
        <time>2021-04-18T09:44:06Z</time>
      </trkpt>
      <trkpt lat="43.98742" lon="2.29088">
        <ele>374</ele>
        <time>2021-04-18T09:44:07Z</time>
      </trkpt>
      <trkpt lat="43.98742" lon="2.29089">
        <ele>374</ele>
        <time>2021-04-18T09:44:08Z</time>
      </trkpt>
      <trkpt lat="43.98741" lon="2.2909">
        <ele>374</ele>
        <time>2021-04-18T09:44:09Z</time>
      </trkpt>
      <trkpt lat="43.98741" lon="2.29091">
        <ele>375</ele>
        <time>2021-04-18T09:44:10Z</time>
      </trkpt>
      <trkpt lat="43.98741" lon="2.29092">
        <ele>375</ele>
        <time>2021-04-18T09:44:11Z</time>
      </trkpt>
      <trkpt lat="43.98741" lon="2.29093">
        <ele>375</ele>
        <time>2021-04-18T09:44:12Z</time>
      </trkpt>
      <trkpt lat="43.98741" lon="2.29093">
        <ele>375</ele>
        <time>2021-04-18T09:44:13Z</time>
      </trkpt>
      <trkpt lat="43.98741" lon="2.29093">
        <ele>375</ele>
        <time>2021-04-18T09:44:14Z</time>
      </trkpt>
      <trkpt lat="43.9874" lon="2.29096">
        <ele>375</ele>
        <time>2021-04-18T09:44:15Z</time>
      </trkpt>
      <trkpt lat="43.9874" lon="2.29097">
        <ele>376</ele>
        <time>2021-04-18T09:44:16Z</time>
      </trkpt>
      <trkpt lat="43.9874" lon="2.29098">
        <ele>375</ele>
        <time>2021-04-18T09:44:17Z</time>
      </trkpt>
      <trkpt lat="43.9874" lon="2.29098">
        <ele>376</ele>
        <time>2021-04-18T09:44:18Z</time>
      </trkpt>
      <trkpt lat="43.9874" lon="2.29099">
        <ele>377</ele>
        <time>2021-04-18T09:44:19Z</time>
      </trkpt>
      <trkpt lat="43.9874" lon="2.291">
        <ele>377</ele>
        <time>2021-04-18T09:44:20Z</time>
      </trkpt>
      <trkpt lat="43.9874" lon="2.29103">
        <ele>377</ele>
        <time>2021-04-18T09:44:21Z</time>
      </trkpt>
      <trkpt lat="43.98741" lon="2.29104">
        <ele>378</ele>
        <time>2021-04-18T09:44:22Z</time>
      </trkpt>
      <trkpt lat="43.9874" lon="2.29105">
        <ele>378</ele>
        <time>2021-04-18T09:44:23Z</time>
      </trkpt>
      <trkpt lat="43.9874" lon="2.29105">
        <ele>379</ele>
        <time>2021-04-18T09:44:24Z</time>
      </trkpt>
      <trkpt lat="43.9874" lon="2.29105">
        <ele>379</ele>
        <time>2021-04-18T09:44:25Z</time>
      </trkpt>
      <trkpt lat="43.9874" lon="2.29106">
        <ele>379</ele>
        <time>2021-04-18T09:44:26Z</time>
      </trkpt>
      <trkpt lat="43.9874" lon="2.29106">
        <ele>380</ele>
        <time>2021-04-18T09:44:27Z</time>
      </trkpt>
      <trkpt lat="43.9874" lon="2.29106">
        <ele>380</ele>
        <time>2021-04-18T09:44:28Z</time>
      </trkpt>
      <trkpt lat="43.98741" lon="2.29106">
        <ele>381</ele>
        <time>2021-04-18T09:44:29Z</time>
      </trkpt>
      <trkpt lat="43.98741" lon="2.29106">
        <ele>381</ele>
        <time>2021-04-18T09:44:29Z</time>
      </trkpt>
      <trkpt lat="43.98741" lon="2.29106">
        <ele>381</ele>
        <time>2021-04-18T09:44:29Z</time>
      </trkpt>
      <trkpt lat="43.9874" lon="2.29116">
        <ele>381</ele>
        <time>2021-04-18T09:44:41Z</time>
      </trkpt>
      <trkpt lat="43.9874" lon="2.29117">
        <ele>381</ele>
        <time>2021-04-18T09:44:42Z</time>
      </trkpt>
      <trkpt lat="43.9874" lon="2.29119">
        <ele>381</ele>
        <time>2021-04-18T09:44:43Z</time>
      </trkpt>
      <trkpt lat="43.98741" lon="2.29121">
        <ele>381</ele>
        <time>2021-04-18T09:44:44Z</time>
      </trkpt>
      <trkpt lat="43.98742" lon="2.29123">
        <ele>381</ele>
        <time>2021-04-18T09:44:45Z</time>
      </trkpt>
      <trkpt lat="43.98743" lon="2.29124">
        <ele>381</ele>
        <time>2021-04-18T09:44:46Z</time>
      </trkpt>
      <trkpt lat="43.98745" lon="2.29126">
        <ele>382</ele>
        <time>2021-04-18T09:44:47Z</time>
      </trkpt>
      <trkpt lat="43.98746" lon="2.29127">
        <ele>381</ele>
        <time>2021-04-18T09:44:48Z</time>
      </trkpt>
      <trkpt lat="43.98747" lon="2.29129">
        <ele>381</ele>
        <time>2021-04-18T09:44:49Z</time>
      </trkpt>
      <trkpt lat="43.98748" lon="2.29131">
        <ele>380</ele>
        <time>2021-04-18T09:44:50Z</time>
      </trkpt>
      <trkpt lat="43.98749" lon="2.29132">
        <ele>380</ele>
        <time>2021-04-18T09:44:51Z</time>
      </trkpt>
      <trkpt lat="43.9875" lon="2.29134">
        <ele>379</ele>
        <time>2021-04-18T09:44:52Z</time>
      </trkpt>
      <trkpt lat="43.98751" lon="2.29136">
        <ele>379</ele>
        <time>2021-04-18T09:44:53Z</time>
      </trkpt>
      <trkpt lat="43.98753" lon="2.29138">
        <ele>379</ele>
        <time>2021-04-18T09:44:54Z</time>
      </trkpt>
      <trkpt lat="43.98754" lon="2.2914">
        <ele>380</ele>
        <time>2021-04-18T09:44:55Z</time>
      </trkpt>
      <trkpt lat="43.98755" lon="2.29141">
        <ele>379</ele>
        <time>2021-04-18T09:44:56Z</time>
      </trkpt>
      <trkpt lat="43.98756" lon="2.29142">
        <ele>379</ele>
        <time>2021-04-18T09:44:57Z</time>
      </trkpt>
      <trkpt lat="43.98756" lon="2.29144">
        <ele>379</ele>
        <time>2021-04-18T09:44:58Z</time>
      </trkpt>
      <trkpt lat="43.98758" lon="2.29145">
        <ele>378</ele>
        <time>2021-04-18T09:44:59Z</time>
      </trkpt>
      <trkpt lat="43.98758" lon="2.29147">
        <ele>378</ele>
        <time>2021-04-18T09:45:00Z</time>
      </trkpt>
      <trkpt lat="43.9876" lon="2.29148">
        <ele>378</ele>
        <time>2021-04-18T09:45:01Z</time>
      </trkpt>
      <trkpt lat="43.98761" lon="2.2915">
        <ele>378</ele>
        <time>2021-04-18T09:45:02Z</time>
      </trkpt>
      <trkpt lat="43.98762" lon="2.29152">
        <ele>378</ele>
        <time>2021-04-18T09:45:03Z</time>
      </trkpt>
      <trkpt lat="43.98763" lon="2.29154">
        <ele>378</ele>
        <time>2021-04-18T09:45:04Z</time>
      </trkpt>
      <trkpt lat="43.98763" lon="2.29155">
        <ele>378</ele>
        <time>2021-04-18T09:45:05Z</time>
      </trkpt>
      <trkpt lat="43.98763" lon="2.29156">
        <ele>378</ele>
        <time>2021-04-18T09:45:06Z</time>
      </trkpt>
      <trkpt lat="43.98764" lon="2.29158">
        <ele>379</ele>
        <time>2021-04-18T09:45:07Z</time>
      </trkpt>
      <trkpt lat="43.98764" lon="2.29159">
        <ele>379</ele>
        <time>2021-04-18T09:45:08Z</time>
      </trkpt>
      <trkpt lat="43.98765" lon="2.29161">
        <ele>379</ele>
        <time>2021-04-18T09:45:09Z</time>
      </trkpt>
      <trkpt lat="43.98765" lon="2.29162">
        <ele>379</ele>
        <time>2021-04-18T09:45:10Z</time>
      </trkpt>
      <trkpt lat="43.98766" lon="2.29164">
        <ele>379</ele>
        <time>2021-04-18T09:45:11Z</time>
      </trkpt>
      <trkpt lat="43.98766" lon="2.29165">
        <ele>378</ele>
        <time>2021-04-18T09:45:12Z</time>
      </trkpt>
      <trkpt lat="43.98767" lon="2.29167">
        <ele>378</ele>
        <time>2021-04-18T09:45:13Z</time>
      </trkpt>
      <trkpt lat="43.98768" lon="2.29168">
        <ele>379</ele>
        <time>2021-04-18T09:45:14Z</time>
      </trkpt>
      <trkpt lat="43.98768" lon="2.2917">
        <ele>379</ele>
        <time>2021-04-18T09:45:15Z</time>
      </trkpt>
      <trkpt lat="43.98768" lon="2.29171">
        <ele>379</ele>
        <time>2021-04-18T09:45:16Z</time>
      </trkpt>
      <trkpt lat="43.98769" lon="2.29172">
        <ele>380</ele>
        <time>2021-04-18T09:45:17Z</time>
      </trkpt>
      <trkpt lat="43.98769" lon="2.29173">
        <ele>380</ele>
        <time>2021-04-18T09:45:18Z</time>
      </trkpt>
      <trkpt lat="43.9877" lon="2.29174">
        <ele>380</ele>
        <time>2021-04-18T09:45:19Z</time>
      </trkpt>
      <trkpt lat="43.9877" lon="2.29176">
        <ele>379</ele>
        <time>2021-04-18T09:45:20Z</time>
      </trkpt>
      <trkpt lat="43.98771" lon="2.29177">
        <ele>380</ele>
        <time>2021-04-18T09:45:21Z</time>
      </trkpt>
      <trkpt lat="43.98771" lon="2.29178">
        <ele>380</ele>
        <time>2021-04-18T09:45:22Z</time>
      </trkpt>
      <trkpt lat="43.98772" lon="2.2918">
        <ele>380</ele>
        <time>2021-04-18T09:45:23Z</time>
      </trkpt>
      <trkpt lat="43.98772" lon="2.29182">
        <ele>380</ele>
        <time>2021-04-18T09:45:24Z</time>
      </trkpt>
      <trkpt lat="43.98773" lon="2.29183">
        <ele>381</ele>
        <time>2021-04-18T09:45:25Z</time>
      </trkpt>
      <trkpt lat="43.98773" lon="2.29184">
        <ele>381</ele>
        <time>2021-04-18T09:45:26Z</time>
      </trkpt>
      <trkpt lat="43.98773" lon="2.29185">
        <ele>381</ele>
        <time>2021-04-18T09:45:27Z</time>
      </trkpt>
      <trkpt lat="43.98774" lon="2.29187">
        <ele>382</ele>
        <time>2021-04-18T09:45:28Z</time>
      </trkpt>
      <trkpt lat="43.98774" lon="2.29189">
        <ele>382</ele>
        <time>2021-04-18T09:45:29Z</time>
      </trkpt>
      <trkpt lat="43.98775" lon="2.2919">
        <ele>382</ele>
        <time>2021-04-18T09:45:30Z</time>
      </trkpt>
      <trkpt lat="43.98776" lon="2.29192">
        <ele>382</ele>
        <time>2021-04-18T09:45:31Z</time>
      </trkpt>
      <trkpt lat="43.98776" lon="2.29193">
        <ele>382</ele>
        <time>2021-04-18T09:45:32Z</time>
      </trkpt>
      <trkpt lat="43.98777" lon="2.29195">
        <ele>383</ele>
        <time>2021-04-18T09:45:33Z</time>
      </trkpt>
      <trkpt lat="43.98777" lon="2.29197">
        <ele>383</ele>
        <time>2021-04-18T09:45:34Z</time>
      </trkpt>
      <trkpt lat="43.98779" lon="2.29198">
        <ele>383</ele>
        <time>2021-04-18T09:45:35Z</time>
      </trkpt>
      <trkpt lat="43.98779" lon="2.292">
        <ele>384</ele>
        <time>2021-04-18T09:45:36Z</time>
      </trkpt>
      <trkpt lat="43.9878" lon="2.29203">
        <ele>384</ele>
        <time>2021-04-18T09:45:37Z</time>
      </trkpt>
      <trkpt lat="43.9878" lon="2.29204">
        <ele>384</ele>
        <time>2021-04-18T09:45:38Z</time>
      </trkpt>
      <trkpt lat="43.98781" lon="2.29205">
        <ele>384</ele>
        <time>2021-04-18T09:45:39Z</time>
      </trkpt>
      <trkpt lat="43.98781" lon="2.29206">
        <ele>384</ele>
        <time>2021-04-18T09:45:40Z</time>
      </trkpt>
      <trkpt lat="43.98782" lon="2.29207">
        <ele>384</ele>
        <time>2021-04-18T09:45:41Z</time>
      </trkpt>
      <trkpt lat="43.98782" lon="2.29209">
        <ele>384</ele>
        <time>2021-04-18T09:45:42Z</time>
      </trkpt>
      <trkpt lat="43.98783" lon="2.2921">
        <ele>384</ele>
        <time>2021-04-18T09:45:43Z</time>
      </trkpt>
      <trkpt lat="43.98784" lon="2.29212">
        <ele>384</ele>
        <time>2021-04-18T09:45:44Z</time>
      </trkpt>
      <trkpt lat="43.98785" lon="2.29214">
        <ele>383</ele>
        <time>2021-04-18T09:45:45Z</time>
      </trkpt>
      <trkpt lat="43.98786" lon="2.29216">
        <ele>384</ele>
        <time>2021-04-18T09:45:46Z</time>
      </trkpt>
      <trkpt lat="43.98787" lon="2.29217">
        <ele>384</ele>
        <time>2021-04-18T09:45:47Z</time>
      </trkpt>
      <trkpt lat="43.98787" lon="2.29217">
        <ele>384</ele>
        <time>2021-04-18T09:45:48Z</time>
      </trkpt>
      <trkpt lat="43.98787" lon="2.29219">
        <ele>384</ele>
        <time>2021-04-18T09:45:49Z</time>
      </trkpt>
      <trkpt lat="43.98787" lon="2.29221">
        <ele>385</ele>
        <time>2021-04-18T09:45:50Z</time>
      </trkpt>
      <trkpt lat="43.98788" lon="2.29222">
        <ele>385</ele>
        <time>2021-04-18T09:45:51Z</time>
      </trkpt>
      <trkpt lat="43.98789" lon="2.29223">
        <ele>385</ele>
        <time>2021-04-18T09:45:52Z</time>
      </trkpt>
      <trkpt lat="43.98789" lon="2.29224">
        <ele>385</ele>
        <time>2021-04-18T09:45:53Z</time>
      </trkpt>
      <trkpt lat="43.9879" lon="2.29226">
        <ele>385</ele>
        <time>2021-04-18T09:45:54Z</time>
      </trkpt>
      <trkpt lat="43.98792" lon="2.29228">
        <ele>385</ele>
        <time>2021-04-18T09:45:55Z</time>
      </trkpt>
      <trkpt lat="43.98792" lon="2.2923">
        <ele>385</ele>
        <time>2021-04-18T09:45:56Z</time>
      </trkpt>
      <trkpt lat="43.98792" lon="2.29232">
        <ele>386</ele>
        <time>2021-04-18T09:45:57Z</time>
      </trkpt>
      <trkpt lat="43.98793" lon="2.29233">
        <ele>386</ele>
        <time>2021-04-18T09:45:58Z</time>
      </trkpt>
      <trkpt lat="43.98794" lon="2.29235">
        <ele>385</ele>
        <time>2021-04-18T09:45:59Z</time>
      </trkpt>
      <trkpt lat="43.98795" lon="2.29236">
        <ele>385</ele>
        <time>2021-04-18T09:46:00Z</time>
      </trkpt>
      <trkpt lat="43.98797" lon="2.29237">
        <ele>385</ele>
        <time>2021-04-18T09:46:01Z</time>
      </trkpt>
      <trkpt lat="43.98798" lon="2.29239">
        <ele>386</ele>
        <time>2021-04-18T09:46:02Z</time>
      </trkpt>
      <trkpt lat="43.98798" lon="2.2924">
        <ele>387</ele>
        <time>2021-04-18T09:46:03Z</time>
      </trkpt>
      <trkpt lat="43.98799" lon="2.29241">
        <ele>387</ele>
        <time>2021-04-18T09:46:04Z</time>
      </trkpt>
      <trkpt lat="43.988" lon="2.29243">
        <ele>387</ele>
        <time>2021-04-18T09:46:05Z</time>
      </trkpt>
      <trkpt lat="43.988" lon="2.29245">
        <ele>387</ele>
        <time>2021-04-18T09:46:06Z</time>
      </trkpt>
      <trkpt lat="43.988" lon="2.29246">
        <ele>387</ele>
        <time>2021-04-18T09:46:07Z</time>
      </trkpt>
      <trkpt lat="43.98801" lon="2.29247">
        <ele>387</ele>
        <time>2021-04-18T09:46:08Z</time>
      </trkpt>
      <trkpt lat="43.98801" lon="2.29248">
        <ele>387</ele>
        <time>2021-04-18T09:46:09Z</time>
      </trkpt>
      <trkpt lat="43.98802" lon="2.29249">
        <ele>387</ele>
        <time>2021-04-18T09:46:10Z</time>
      </trkpt>
      <trkpt lat="43.98802" lon="2.2925">
        <ele>387</ele>
        <time>2021-04-18T09:46:11Z</time>
      </trkpt>
      <trkpt lat="43.98802" lon="2.2925">
        <ele>387</ele>
        <time>2021-04-18T09:46:12Z</time>
      </trkpt>
      <trkpt lat="43.98802" lon="2.2925">
        <ele>387</ele>
        <time>2021-04-18T09:46:13Z</time>
      </trkpt>
      <trkpt lat="43.98803" lon="2.29253">
        <ele>388</ele>
        <time>2021-04-18T09:46:14Z</time>
      </trkpt>
      <trkpt lat="43.98804" lon="2.29254">
        <ele>388</ele>
        <time>2021-04-18T09:46:15Z</time>
      </trkpt>
      <trkpt lat="43.98804" lon="2.29255">
        <ele>389</ele>
        <time>2021-04-18T09:46:16Z</time>
      </trkpt>
      <trkpt lat="43.98804" lon="2.29256">
        <ele>389</ele>
        <time>2021-04-18T09:46:17Z</time>
      </trkpt>
      <trkpt lat="43.98805" lon="2.29258">
        <ele>389</ele>
        <time>2021-04-18T09:46:18Z</time>
      </trkpt>
      <trkpt lat="43.98805" lon="2.2926">
        <ele>389</ele>
        <time>2021-04-18T09:46:19Z</time>
      </trkpt>
      <trkpt lat="43.98805" lon="2.2926">
        <ele>390</ele>
        <time>2021-04-18T09:46:20Z</time>
      </trkpt>
      <trkpt lat="43.98805" lon="2.2926">
        <ele>390</ele>
        <time>2021-04-18T09:46:21Z</time>
      </trkpt>
      <trkpt lat="43.98805" lon="2.2926">
        <ele>390</ele>
        <time>2021-04-18T09:46:22Z</time>
      </trkpt>
      <trkpt lat="43.98805" lon="2.2926">
        <ele>391</ele>
        <time>2021-04-18T09:46:23Z</time>
      </trkpt>
      <trkpt lat="43.98805" lon="2.29259">
        <ele>391</ele>
        <time>2021-04-18T09:46:24Z</time>
      </trkpt>
      <trkpt lat="43.98805" lon="2.29259">
        <ele>391</ele>
        <time>2021-04-18T09:46:24Z</time>
      </trkpt>
      <trkpt lat="43.98805" lon="2.29259">
        <ele>391</ele>
        <time>2021-04-18T09:46:24Z</time>
      </trkpt>
      <trkpt lat="43.98806" lon="2.29268">
        <ele>392</ele>
        <time>2021-04-18T09:46:32Z</time>
      </trkpt>
      <trkpt lat="43.98806" lon="2.29269">
        <ele>393</ele>
        <time>2021-04-18T09:46:33Z</time>
      </trkpt>
      <trkpt lat="43.98806" lon="2.29269">
        <ele>393</ele>
        <time>2021-04-18T09:46:34Z</time>
      </trkpt>
      <trkpt lat="43.98806" lon="2.29269">
        <ele>393</ele>
        <time>2021-04-18T09:46:35Z</time>
      </trkpt>
      <trkpt lat="43.98806" lon="2.29269">
        <ele>393</ele>
        <time>2021-04-18T09:46:35Z</time>
      </trkpt>
      <trkpt lat="43.98806" lon="2.29269">
        <ele>393</ele>
        <time>2021-04-18T09:46:35Z</time>
      </trkpt>
      <trkpt lat="43.98807" lon="2.29276">
        <ele>394</ele>
        <time>2021-04-18T09:46:44Z</time>
      </trkpt>
      <trkpt lat="43.98808" lon="2.29277">
        <ele>394</ele>
        <time>2021-04-18T09:46:45Z</time>
      </trkpt>
      <trkpt lat="43.98808" lon="2.29278">
        <ele>394</ele>
        <time>2021-04-18T09:46:46Z</time>
      </trkpt>
      <trkpt lat="43.98808" lon="2.29279">
        <ele>394</ele>
        <time>2021-04-18T09:46:47Z</time>
      </trkpt>
      <trkpt lat="43.98808" lon="2.29279">
        <ele>394</ele>
        <time>2021-04-18T09:46:48Z</time>
      </trkpt>
      <trkpt lat="43.98808" lon="2.29279">
        <ele>394</ele>
        <time>2021-04-18T09:46:49Z</time>
      </trkpt>
      <trkpt lat="43.98808" lon="2.29282">
        <ele>395</ele>
        <time>2021-04-18T09:46:50Z</time>
      </trkpt>
      <trkpt lat="43.98808" lon="2.29284">
        <ele>395</ele>
        <time>2021-04-18T09:46:51Z</time>
      </trkpt>
      <trkpt lat="43.98808" lon="2.29285">
        <ele>395</ele>
        <time>2021-04-18T09:46:52Z</time>
      </trkpt>
      <trkpt lat="43.98809" lon="2.29286">
        <ele>395</ele>
        <time>2021-04-18T09:46:53Z</time>
      </trkpt>
      <trkpt lat="43.98809" lon="2.29288">
        <ele>396</ele>
        <time>2021-04-18T09:46:54Z</time>
      </trkpt>
      <trkpt lat="43.98809" lon="2.29289">
        <ele>396</ele>
        <time>2021-04-18T09:46:55Z</time>
      </trkpt>
      <trkpt lat="43.98809" lon="2.29291">
        <ele>396</ele>
        <time>2021-04-18T09:46:56Z</time>
      </trkpt>
      <trkpt lat="43.98809" lon="2.29292">
        <ele>396</ele>
        <time>2021-04-18T09:46:57Z</time>
      </trkpt>
      <trkpt lat="43.9881" lon="2.29294">
        <ele>397</ele>
        <time>2021-04-18T09:46:58Z</time>
      </trkpt>
      <trkpt lat="43.98811" lon="2.29296">
        <ele>397</ele>
        <time>2021-04-18T09:46:59Z</time>
      </trkpt>
      <trkpt lat="43.98813" lon="2.29297">
        <ele>397</ele>
        <time>2021-04-18T09:47:00Z</time>
      </trkpt>
      <trkpt lat="43.98814" lon="2.29299">
        <ele>397</ele>
        <time>2021-04-18T09:47:01Z</time>
      </trkpt>
      <trkpt lat="43.98814" lon="2.29301">
        <ele>397</ele>
        <time>2021-04-18T09:47:02Z</time>
      </trkpt>
      <trkpt lat="43.98815" lon="2.29302">
        <ele>397</ele>
        <time>2021-04-18T09:47:03Z</time>
      </trkpt>
      <trkpt lat="43.98815" lon="2.29303">
        <ele>397</ele>
        <time>2021-04-18T09:47:04Z</time>
      </trkpt>
      <trkpt lat="43.98815" lon="2.29305">
        <ele>398</ele>
        <time>2021-04-18T09:47:05Z</time>
      </trkpt>
      <trkpt lat="43.98816" lon="2.29306">
        <ele>398</ele>
        <time>2021-04-18T09:47:06Z</time>
      </trkpt>
      <trkpt lat="43.98817" lon="2.29307">
        <ele>398</ele>
        <time>2021-04-18T09:47:07Z</time>
      </trkpt>
      <trkpt lat="43.98817" lon="2.29308">
        <ele>399</ele>
        <time>2021-04-18T09:47:08Z</time>
      </trkpt>
      <trkpt lat="43.98817" lon="2.29309">
        <ele>399</ele>
        <time>2021-04-18T09:47:09Z</time>
      </trkpt>
      <trkpt lat="43.98817" lon="2.29311">
        <ele>400</ele>
        <time>2021-04-18T09:47:10Z</time>
      </trkpt>
      <trkpt lat="43.98817" lon="2.29311">
        <ele>400</ele>
        <time>2021-04-18T09:47:11Z</time>
      </trkpt>
      <trkpt lat="43.98817" lon="2.29311">
        <ele>400</ele>
        <time>2021-04-18T09:47:12Z</time>
      </trkpt>
      <trkpt lat="43.98818" lon="2.29315">
        <ele>401</ele>
        <time>2021-04-18T09:47:13Z</time>
      </trkpt>
      <trkpt lat="43.98818" lon="2.29317">
        <ele>401</ele>
        <time>2021-04-18T09:47:14Z</time>
      </trkpt>
      <trkpt lat="43.98818" lon="2.29319">
        <ele>401</ele>
        <time>2021-04-18T09:47:15Z</time>
      </trkpt>
      <trkpt lat="43.98819" lon="2.2932">
        <ele>401</ele>
        <time>2021-04-18T09:47:16Z</time>
      </trkpt>
      <trkpt lat="43.9882" lon="2.29323">
        <ele>401</ele>
        <time>2021-04-18T09:47:17Z</time>
      </trkpt>
      <trkpt lat="43.9882" lon="2.29324">
        <ele>401</ele>
        <time>2021-04-18T09:47:18Z</time>
      </trkpt>
      <trkpt lat="43.98821" lon="2.29325">
        <ele>402</ele>
        <time>2021-04-18T09:47:19Z</time>
      </trkpt>
      <trkpt lat="43.98822" lon="2.29326">
        <ele>402</ele>
        <time>2021-04-18T09:47:20Z</time>
      </trkpt>
      <trkpt lat="43.98822" lon="2.29327">
        <ele>402</ele>
        <time>2021-04-18T09:47:21Z</time>
      </trkpt>
      <trkpt lat="43.98823" lon="2.29329">
        <ele>402</ele>
        <time>2021-04-18T09:47:22Z</time>
      </trkpt>
      <trkpt lat="43.98824" lon="2.29331">
        <ele>403</ele>
        <time>2021-04-18T09:47:23Z</time>
      </trkpt>
      <trkpt lat="43.98824" lon="2.29332">
        <ele>403</ele>
        <time>2021-04-18T09:47:24Z</time>
      </trkpt>
      <trkpt lat="43.98824" lon="2.29333">
        <ele>403</ele>
        <time>2021-04-18T09:47:25Z</time>
      </trkpt>
      <trkpt lat="43.98824" lon="2.29335">
        <ele>403</ele>
        <time>2021-04-18T09:47:26Z</time>
      </trkpt>
      <trkpt lat="43.98824" lon="2.29337">
        <ele>403</ele>
        <time>2021-04-18T09:47:27Z</time>
      </trkpt>
      <trkpt lat="43.98824" lon="2.29338">
        <ele>403</ele>
        <time>2021-04-18T09:47:28Z</time>
      </trkpt>
      <trkpt lat="43.98824" lon="2.2934">
        <ele>402</ele>
        <time>2021-04-18T09:47:29Z</time>
      </trkpt>
      <trkpt lat="43.98824" lon="2.29342">
        <ele>403</ele>
        <time>2021-04-18T09:47:30Z</time>
      </trkpt>
      <trkpt lat="43.98824" lon="2.29343">
        <ele>403</ele>
        <time>2021-04-18T09:47:31Z</time>
      </trkpt>
      <trkpt lat="43.98824" lon="2.29344">
        <ele>403</ele>
        <time>2021-04-18T09:47:32Z</time>
      </trkpt>
      <trkpt lat="43.98825" lon="2.29346">
        <ele>403</ele>
        <time>2021-04-18T09:47:33Z</time>
      </trkpt>
      <trkpt lat="43.98826" lon="2.29347">
        <ele>403</ele>
        <time>2021-04-18T09:47:34Z</time>
      </trkpt>
      <trkpt lat="43.98826" lon="2.29348">
        <ele>403</ele>
        <time>2021-04-18T09:47:35Z</time>
      </trkpt>
      <trkpt lat="43.98826" lon="2.2935">
        <ele>403</ele>
        <time>2021-04-18T09:47:36Z</time>
      </trkpt>
      <trkpt lat="43.98826" lon="2.2935">
        <ele>404</ele>
        <time>2021-04-18T09:47:37Z</time>
      </trkpt>
      <trkpt lat="43.98826" lon="2.2935">
        <ele>404</ele>
        <time>2021-04-18T09:47:38Z</time>
      </trkpt>
      <trkpt lat="43.98826" lon="2.2935">
        <ele>404</ele>
        <time>2021-04-18T09:47:39Z</time>
      </trkpt>
      <trkpt lat="43.98827" lon="2.29353">
        <ele>404</ele>
        <time>2021-04-18T09:47:40Z</time>
      </trkpt>
      <trkpt lat="43.98827" lon="2.29355">
        <ele>405</ele>
        <time>2021-04-18T09:47:41Z</time>
      </trkpt>
      <trkpt lat="43.98827" lon="2.29357">
        <ele>405</ele>
        <time>2021-04-18T09:47:42Z</time>
      </trkpt>
      <trkpt lat="43.98827" lon="2.29358">
        <ele>406</ele>
        <time>2021-04-18T09:47:43Z</time>
      </trkpt>
      <trkpt lat="43.98827" lon="2.29359">
        <ele>406</ele>
        <time>2021-04-18T09:47:44Z</time>
      </trkpt>
      <trkpt lat="43.98827" lon="2.29361">
        <ele>406</ele>
        <time>2021-04-18T09:47:45Z</time>
      </trkpt>
      <trkpt lat="43.98827" lon="2.29362">
        <ele>407</ele>
        <time>2021-04-18T09:47:46Z</time>
      </trkpt>
      <trkpt lat="43.98828" lon="2.29363">
        <ele>408</ele>
        <time>2021-04-18T09:47:47Z</time>
      </trkpt>
      <trkpt lat="43.98829" lon="2.29364">
        <ele>408</ele>
        <time>2021-04-18T09:47:48Z</time>
      </trkpt>
      <trkpt lat="43.98829" lon="2.29364">
        <ele>408</ele>
        <time>2021-04-18T09:47:49Z</time>
      </trkpt>
      <trkpt lat="43.98829" lon="2.29364">
        <ele>408</ele>
        <time>2021-04-18T09:47:50Z</time>
      </trkpt>
      <trkpt lat="43.98829" lon="2.29367">
        <ele>408</ele>
        <time>2021-04-18T09:47:51Z</time>
      </trkpt>
      <trkpt lat="43.98829" lon="2.29369">
        <ele>409</ele>
        <time>2021-04-18T09:47:52Z</time>
      </trkpt>
      <trkpt lat="43.98829" lon="2.29371">
        <ele>409</ele>
        <time>2021-04-18T09:47:53Z</time>
      </trkpt>
      <trkpt lat="43.98829" lon="2.29373">
        <ele>410</ele>
        <time>2021-04-18T09:47:54Z</time>
      </trkpt>
      <trkpt lat="43.98829" lon="2.29374">
        <ele>410</ele>
        <time>2021-04-18T09:47:55Z</time>
      </trkpt>
      <trkpt lat="43.98829" lon="2.29376">
        <ele>410</ele>
        <time>2021-04-18T09:47:56Z</time>
      </trkpt>
      <trkpt lat="43.9883" lon="2.29378">
        <ele>410</ele>
        <time>2021-04-18T09:47:57Z</time>
      </trkpt>
      <trkpt lat="43.98831" lon="2.29381">
        <ele>410</ele>
        <time>2021-04-18T09:47:58Z</time>
      </trkpt>
      <trkpt lat="43.98832" lon="2.29382">
        <ele>411</ele>
        <time>2021-04-18T09:47:59Z</time>
      </trkpt>
      <trkpt lat="43.98832" lon="2.29383">
        <ele>411</ele>
        <time>2021-04-18T09:48:00Z</time>
      </trkpt>
      <trkpt lat="43.98832" lon="2.29385">
        <ele>411</ele>
        <time>2021-04-18T09:48:01Z</time>
      </trkpt>
      <trkpt lat="43.98832" lon="2.29387">
        <ele>411</ele>
        <time>2021-04-18T09:48:02Z</time>
      </trkpt>
      <trkpt lat="43.98832" lon="2.29388">
        <ele>411</ele>
        <time>2021-04-18T09:48:03Z</time>
      </trkpt>
      <trkpt lat="43.98832" lon="2.29388">
        <ele>412</ele>
        <time>2021-04-18T09:48:04Z</time>
      </trkpt>
      <trkpt lat="43.98832" lon="2.29389">
        <ele>412</ele>
        <time>2021-04-18T09:48:05Z</time>
      </trkpt>
      <trkpt lat="43.98831" lon="2.2939">
        <ele>412</ele>
        <time>2021-04-18T09:48:06Z</time>
      </trkpt>
      <trkpt lat="43.98831" lon="2.2939">
        <ele>412</ele>
        <time>2021-04-18T09:48:07Z</time>
      </trkpt>
      <trkpt lat="43.98831" lon="2.2939">
        <ele>412</ele>
        <time>2021-04-18T09:48:07Z</time>
      </trkpt>
      <trkpt lat="43.98831" lon="2.2939">
        <ele>412</ele>
        <time>2021-04-18T09:48:07Z</time>
      </trkpt>
      <trkpt lat="43.98831" lon="2.29396">
        <ele>414</ele>
        <time>2021-04-18T09:48:16Z</time>
      </trkpt>
      <trkpt lat="43.98831" lon="2.29398">
        <ele>415</ele>
        <time>2021-04-18T09:48:17Z</time>
      </trkpt>
      <trkpt lat="43.98832" lon="2.29399">
        <ele>415</ele>
        <time>2021-04-18T09:48:18Z</time>
      </trkpt>
      <trkpt lat="43.98832" lon="2.29401">
        <ele>415</ele>
        <time>2021-04-18T09:48:19Z</time>
      </trkpt>
      <trkpt lat="43.98832" lon="2.29402">
        <ele>416</ele>
        <time>2021-04-18T09:48:20Z</time>
      </trkpt>
      <trkpt lat="43.98832" lon="2.29404">
        <ele>416</ele>
        <time>2021-04-18T09:48:21Z</time>
      </trkpt>
      <trkpt lat="43.98832" lon="2.29406">
        <ele>416</ele>
        <time>2021-04-18T09:48:22Z</time>
      </trkpt>
      <trkpt lat="43.98832" lon="2.29407">
        <ele>416</ele>
        <time>2021-04-18T09:48:23Z</time>
      </trkpt>
      <trkpt lat="43.98832" lon="2.29409">
        <ele>416</ele>
        <time>2021-04-18T09:48:24Z</time>
      </trkpt>
      <trkpt lat="43.98833" lon="2.29411">
        <ele>416</ele>
        <time>2021-04-18T09:48:25Z</time>
      </trkpt>
      <trkpt lat="43.98833" lon="2.29413">
        <ele>416</ele>
        <time>2021-04-18T09:48:26Z</time>
      </trkpt>
      <trkpt lat="43.98833" lon="2.29415">
        <ele>416</ele>
        <time>2021-04-18T09:48:27Z</time>
      </trkpt>
      <trkpt lat="43.98833" lon="2.29417">
        <ele>416</ele>
        <time>2021-04-18T09:48:28Z</time>
      </trkpt>
      <trkpt lat="43.98834" lon="2.29419">
        <ele>416</ele>
        <time>2021-04-18T09:48:29Z</time>
      </trkpt>
      <trkpt lat="43.98833" lon="2.2942">
        <ele>416</ele>
        <time>2021-04-18T09:48:30Z</time>
      </trkpt>
      <trkpt lat="43.98833" lon="2.29421">
        <ele>417</ele>
        <time>2021-04-18T09:48:31Z</time>
      </trkpt>
      <trkpt lat="43.98833" lon="2.29422">
        <ele>417</ele>
        <time>2021-04-18T09:48:32Z</time>
      </trkpt>
      <trkpt lat="43.98833" lon="2.29422">
        <ele>417</ele>
        <time>2021-04-18T09:48:33Z</time>
      </trkpt>
      <trkpt lat="43.98832" lon="2.29423">
        <ele>418</ele>
        <time>2021-04-18T09:48:34Z</time>
      </trkpt>
      <trkpt lat="43.98832" lon="2.29423">
        <ele>418</ele>
        <time>2021-04-18T09:48:35Z</time>
      </trkpt>
      <trkpt lat="43.98832" lon="2.29423">
        <ele>418</ele>
        <time>2021-04-18T09:48:36Z</time>
      </trkpt>
      <trkpt lat="43.98832" lon="2.29423">
        <ele>418</ele>
        <time>2021-04-18T09:48:37Z</time>
      </trkpt>
      <trkpt lat="43.98833" lon="2.29423">
        <ele>420</ele>
        <time>2021-04-18T09:48:38Z</time>
      </trkpt>
      <trkpt lat="43.98833" lon="2.29423">
        <ele>420</ele>
        <time>2021-04-18T09:48:38Z</time>
      </trkpt>
      <trkpt lat="43.98833" lon="2.29423">
        <ele>420</ele>
        <time>2021-04-18T09:48:38Z</time>
      </trkpt>
      <trkpt lat="43.98829" lon="2.29424">
        <ele>421</ele>
        <time>2021-04-18T09:48:47Z</time>
      </trkpt>
      <trkpt lat="43.98828" lon="2.29424">
        <ele>422</ele>
        <time>2021-04-18T09:48:48Z</time>
      </trkpt>
      <trkpt lat="43.98827" lon="2.29423">
        <ele>423</ele>
        <time>2021-04-18T09:48:49Z</time>
      </trkpt>
      <trkpt lat="43.98826" lon="2.29423">
        <ele>423</ele>
        <time>2021-04-18T09:48:50Z</time>
      </trkpt>
      <trkpt lat="43.98825" lon="2.29423">
        <ele>423</ele>
        <time>2021-04-18T09:48:51Z</time>
      </trkpt>
      <trkpt lat="43.98824" lon="2.29422">
        <ele>423</ele>
        <time>2021-04-18T09:48:52Z</time>
      </trkpt>
      <trkpt lat="43.98822" lon="2.29422">
        <ele>423</ele>
        <time>2021-04-18T09:48:53Z</time>
      </trkpt>
      <trkpt lat="43.98822" lon="2.29422">
        <ele>423</ele>
        <time>2021-04-18T09:48:54Z</time>
      </trkpt>
      <trkpt lat="43.98821" lon="2.29422">
        <ele>422</ele>
        <time>2021-04-18T09:48:55Z</time>
      </trkpt>
      <trkpt lat="43.98821" lon="2.29421">
        <ele>422</ele>
        <time>2021-04-18T09:48:56Z</time>
      </trkpt>
      <trkpt lat="43.9882" lon="2.2942">
        <ele>422</ele>
        <time>2021-04-18T09:48:57Z</time>
      </trkpt>
      <trkpt lat="43.98819" lon="2.2942">
        <ele>422</ele>
        <time>2021-04-18T09:48:58Z</time>
      </trkpt>
      <trkpt lat="43.98818" lon="2.2942">
        <ele>422</ele>
        <time>2021-04-18T09:48:59Z</time>
      </trkpt>
      <trkpt lat="43.98817" lon="2.29419">
        <ele>422</ele>
        <time>2021-04-18T09:49:00Z</time>
      </trkpt>
      <trkpt lat="43.98816" lon="2.29418">
        <ele>422</ele>
        <time>2021-04-18T09:49:01Z</time>
      </trkpt>
      <trkpt lat="43.98815" lon="2.29418">
        <ele>423</ele>
        <time>2021-04-18T09:49:02Z</time>
      </trkpt>
      <trkpt lat="43.98814" lon="2.29419">
        <ele>423</ele>
        <time>2021-04-18T09:49:03Z</time>
      </trkpt>
      <trkpt lat="43.98813" lon="2.29418">
        <ele>423</ele>
        <time>2021-04-18T09:49:04Z</time>
      </trkpt>
      <trkpt lat="43.98811" lon="2.29418">
        <ele>423</ele>
        <time>2021-04-18T09:49:05Z</time>
      </trkpt>
      <trkpt lat="43.9881" lon="2.29418">
        <ele>423</ele>
        <time>2021-04-18T09:49:06Z</time>
      </trkpt>
      <trkpt lat="43.98809" lon="2.29418">
        <ele>423</ele>
        <time>2021-04-18T09:49:07Z</time>
      </trkpt>
      <trkpt lat="43.98809" lon="2.29418">
        <ele>422</ele>
        <time>2021-04-18T09:49:08Z</time>
      </trkpt>
      <trkpt lat="43.98807" lon="2.29418">
        <ele>423</ele>
        <time>2021-04-18T09:49:09Z</time>
      </trkpt>
      <trkpt lat="43.98806" lon="2.29417">
        <ele>423</ele>
        <time>2021-04-18T09:49:10Z</time>
      </trkpt>
      <trkpt lat="43.98805" lon="2.29417">
        <ele>423</ele>
        <time>2021-04-18T09:49:11Z</time>
      </trkpt>
      <trkpt lat="43.98805" lon="2.29416">
        <ele>423</ele>
        <time>2021-04-18T09:49:12Z</time>
      </trkpt>
      <trkpt lat="43.98803" lon="2.29416">
        <ele>423</ele>
        <time>2021-04-18T09:49:13Z</time>
      </trkpt>
      <trkpt lat="43.98802" lon="2.29416">
        <ele>423</ele>
        <time>2021-04-18T09:49:14Z</time>
      </trkpt>
      <trkpt lat="43.988" lon="2.29416">
        <ele>423</ele>
        <time>2021-04-18T09:49:15Z</time>
      </trkpt>
      <trkpt lat="43.98799" lon="2.29415">
        <ele>423</ele>
        <time>2021-04-18T09:49:16Z</time>
      </trkpt>
      <trkpt lat="43.98798" lon="2.29415">
        <ele>423</ele>
        <time>2021-04-18T09:49:17Z</time>
      </trkpt>
      <trkpt lat="43.98797" lon="2.29415">
        <ele>423</ele>
        <time>2021-04-18T09:49:18Z</time>
      </trkpt>
      <trkpt lat="43.98795" lon="2.29414">
        <ele>423</ele>
        <time>2021-04-18T09:49:19Z</time>
      </trkpt>
      <trkpt lat="43.98793" lon="2.29414">
        <ele>423</ele>
        <time>2021-04-18T09:49:20Z</time>
      </trkpt>
      <trkpt lat="43.98792" lon="2.29414">
        <ele>423</ele>
        <time>2021-04-18T09:49:21Z</time>
      </trkpt>
      <trkpt lat="43.98791" lon="2.29414">
        <ele>423</ele>
        <time>2021-04-18T09:49:22Z</time>
      </trkpt>
      <trkpt lat="43.9879" lon="2.29413">
        <ele>423</ele>
        <time>2021-04-18T09:49:23Z</time>
      </trkpt>
      <trkpt lat="43.98789" lon="2.29413">
        <ele>423</ele>
        <time>2021-04-18T09:49:24Z</time>
      </trkpt>
      <trkpt lat="43.98787" lon="2.29413">
        <ele>423</ele>
        <time>2021-04-18T09:49:25Z</time>
      </trkpt>
      <trkpt lat="43.98785" lon="2.29413">
        <ele>424</ele>
        <time>2021-04-18T09:49:26Z</time>
      </trkpt>
      <trkpt lat="43.98784" lon="2.29414">
        <ele>424</ele>
        <time>2021-04-18T09:49:27Z</time>
      </trkpt>
      <trkpt lat="43.98783" lon="2.29415">
        <ele>424</ele>
        <time>2021-04-18T09:49:28Z</time>
      </trkpt>
      <trkpt lat="43.98782" lon="2.29416">
        <ele>424</ele>
        <time>2021-04-18T09:49:29Z</time>
      </trkpt>
      <trkpt lat="43.9878" lon="2.29416">
        <ele>425</ele>
        <time>2021-04-18T09:49:30Z</time>
      </trkpt>
      <trkpt lat="43.9878" lon="2.29416">
        <ele>425</ele>
        <time>2021-04-18T09:49:31Z</time>
      </trkpt>
      <trkpt lat="43.9878" lon="2.29416">
        <ele>425</ele>
        <time>2021-04-18T09:49:32Z</time>
      </trkpt>
      <trkpt lat="43.9878" lon="2.29416">
        <ele>425</ele>
        <time>2021-04-18T09:49:33Z</time>
      </trkpt>
      <trkpt lat="43.9878" lon="2.29416">
        <ele>425</ele>
        <time>2021-04-18T09:49:34Z</time>
      </trkpt>
      <trkpt lat="43.9878" lon="2.29416">
        <ele>425</ele>
        <time>2021-04-18T09:49:35Z</time>
      </trkpt>
      <trkpt lat="43.9878" lon="2.29416">
        <ele>425</ele>
        <time>2021-04-18T09:49:36Z</time>
      </trkpt>
      <trkpt lat="43.9878" lon="2.29416">
        <ele>425</ele>
        <time>2021-04-18T09:49:36Z</time>
      </trkpt>
      <trkpt lat="43.9878" lon="2.29416">
        <ele>425</ele>
        <time>2021-04-18T09:49:36Z</time>
      </trkpt>
      <trkpt lat="43.98776" lon="2.29425">
        <ele>428</ele>
        <time>2021-04-18T09:50:32Z</time>
      </trkpt>
      <trkpt lat="43.98775" lon="2.29426">
        <ele>428</ele>
        <time>2021-04-18T09:50:33Z</time>
      </trkpt>
      <trkpt lat="43.98774" lon="2.29427">
        <ele>428</ele>
        <time>2021-04-18T09:50:34Z</time>
      </trkpt>
      <trkpt lat="43.98773" lon="2.29428">
        <ele>427</ele>
        <time>2021-04-18T09:50:35Z</time>
      </trkpt>
      <trkpt lat="43.98772" lon="2.2943">
        <ele>428</ele>
        <time>2021-04-18T09:50:36Z</time>
      </trkpt>
      <trkpt lat="43.98772" lon="2.29432">
        <ele>428</ele>
        <time>2021-04-18T09:50:37Z</time>
      </trkpt>
      <trkpt lat="43.98772" lon="2.29434">
        <ele>428</ele>
        <time>2021-04-18T09:50:38Z</time>
      </trkpt>
      <trkpt lat="43.98773" lon="2.29436">
        <ele>428</ele>
        <time>2021-04-18T09:50:39Z</time>
      </trkpt>
      <trkpt lat="43.98773" lon="2.29436">
        <ele>428</ele>
        <time>2021-04-18T09:50:40Z</time>
      </trkpt>
      <trkpt lat="43.98773" lon="2.29436">
        <ele>428</ele>
        <time>2021-04-18T09:50:41Z</time>
      </trkpt>
      <trkpt lat="43.98773" lon="2.29436">
        <ele>428</ele>
        <time>2021-04-18T09:50:41Z</time>
      </trkpt>
      <trkpt lat="43.98773" lon="2.29436">
        <ele>428</ele>
        <time>2021-04-18T09:50:41Z</time>
      </trkpt>
      <trkpt lat="43.9877" lon="2.29442">
        <ele>427</ele>
        <time>2021-04-18T09:50:49Z</time>
      </trkpt>
      <trkpt lat="43.98769" lon="2.29443">
        <ele>427</ele>
        <time>2021-04-18T09:50:50Z</time>
      </trkpt>
      <trkpt lat="43.98768" lon="2.29445">
        <ele>427</ele>
        <time>2021-04-18T09:50:51Z</time>
      </trkpt>
      <trkpt lat="43.98767" lon="2.29447">
        <ele>426</ele>
        <time>2021-04-18T09:50:52Z</time>
      </trkpt>
      <trkpt lat="43.98766" lon="2.29449">
        <ele>426</ele>
        <time>2021-04-18T09:50:53Z</time>
      </trkpt>
      <trkpt lat="43.98765" lon="2.2945">
        <ele>426</ele>
        <time>2021-04-18T09:50:54Z</time>
      </trkpt>
      <trkpt lat="43.98764" lon="2.29452">
        <ele>426</ele>
        <time>2021-04-18T09:50:55Z</time>
      </trkpt>
      <trkpt lat="43.98764" lon="2.29453">
        <ele>426</ele>
        <time>2021-04-18T09:50:56Z</time>
      </trkpt>
      <trkpt lat="43.98764" lon="2.29454">
        <ele>426</ele>
        <time>2021-04-18T09:50:57Z</time>
      </trkpt>
      <trkpt lat="43.98763" lon="2.29456">
        <ele>427</ele>
        <time>2021-04-18T09:50:58Z</time>
      </trkpt>
      <trkpt lat="43.98763" lon="2.29458">
        <ele>428</ele>
        <time>2021-04-18T09:50:59Z</time>
      </trkpt>
      <trkpt lat="43.98762" lon="2.29459">
        <ele>428</ele>
        <time>2021-04-18T09:51:00Z</time>
      </trkpt>
      <trkpt lat="43.98762" lon="2.29461">
        <ele>428</ele>
        <time>2021-04-18T09:51:01Z</time>
      </trkpt>
      <trkpt lat="43.98761" lon="2.29462">
        <ele>428</ele>
        <time>2021-04-18T09:51:02Z</time>
      </trkpt>
      <trkpt lat="43.98761" lon="2.29462">
        <ele>427</ele>
        <time>2021-04-18T09:51:03Z</time>
      </trkpt>
      <trkpt lat="43.9876" lon="2.29464">
        <ele>427</ele>
        <time>2021-04-18T09:51:04Z</time>
      </trkpt>
      <trkpt lat="43.9876" lon="2.29466">
        <ele>427</ele>
        <time>2021-04-18T09:51:05Z</time>
      </trkpt>
      <trkpt lat="43.9876" lon="2.29468">
        <ele>427</ele>
        <time>2021-04-18T09:51:06Z</time>
      </trkpt>
      <trkpt lat="43.9876" lon="2.29469">
        <ele>428</ele>
        <time>2021-04-18T09:51:07Z</time>
      </trkpt>
      <trkpt lat="43.9876" lon="2.29469">
        <ele>428</ele>
        <time>2021-04-18T09:51:08Z</time>
      </trkpt>
      <trkpt lat="43.98759" lon="2.2947">
        <ele>429</ele>
        <time>2021-04-18T09:51:09Z</time>
      </trkpt>
      <trkpt lat="43.98758" lon="2.29472">
        <ele>428</ele>
        <time>2021-04-18T09:51:10Z</time>
      </trkpt>
      <trkpt lat="43.98757" lon="2.29473">
        <ele>427</ele>
        <time>2021-04-18T09:51:11Z</time>
      </trkpt>
      <trkpt lat="43.98757" lon="2.29475">
        <ele>427</ele>
        <time>2021-04-18T09:51:12Z</time>
      </trkpt>
      <trkpt lat="43.98757" lon="2.29478">
        <ele>427</ele>
        <time>2021-04-18T09:51:13Z</time>
      </trkpt>
      <trkpt lat="43.98756" lon="2.29479">
        <ele>427</ele>
        <time>2021-04-18T09:51:14Z</time>
      </trkpt>
      <trkpt lat="43.98756" lon="2.2948">
        <ele>427</ele>
        <time>2021-04-18T09:51:15Z</time>
      </trkpt>
      <trkpt lat="43.98755" lon="2.29481">
        <ele>427</ele>
        <time>2021-04-18T09:51:16Z</time>
      </trkpt>
      <trkpt lat="43.98755" lon="2.29482">
        <ele>427</ele>
        <time>2021-04-18T09:51:17Z</time>
      </trkpt>
      <trkpt lat="43.98754" lon="2.29484">
        <ele>427</ele>
        <time>2021-04-18T09:51:18Z</time>
      </trkpt>
      <trkpt lat="43.98753" lon="2.29485">
        <ele>427</ele>
        <time>2021-04-18T09:51:19Z</time>
      </trkpt>
      <trkpt lat="43.98753" lon="2.29487">
        <ele>428</ele>
        <time>2021-04-18T09:51:20Z</time>
      </trkpt>
      <trkpt lat="43.98751" lon="2.29489">
        <ele>428</ele>
        <time>2021-04-18T09:51:21Z</time>
      </trkpt>
      <trkpt lat="43.98751" lon="2.29491">
        <ele>428</ele>
        <time>2021-04-18T09:51:22Z</time>
      </trkpt>
      <trkpt lat="43.98751" lon="2.29492">
        <ele>428</ele>
        <time>2021-04-18T09:51:23Z</time>
      </trkpt>
      <trkpt lat="43.9875" lon="2.29493">
        <ele>427</ele>
        <time>2021-04-18T09:51:24Z</time>
      </trkpt>
      <trkpt lat="43.9875" lon="2.29494">
        <ele>427</ele>
        <time>2021-04-18T09:51:25Z</time>
      </trkpt>
      <trkpt lat="43.98749" lon="2.29494">
        <ele>427</ele>
        <time>2021-04-18T09:51:26Z</time>
      </trkpt>
      <trkpt lat="43.98749" lon="2.29497">
        <ele>428</ele>
        <time>2021-04-18T09:51:27Z</time>
      </trkpt>
      <trkpt lat="43.98749" lon="2.29498">
        <ele>428</ele>
        <time>2021-04-18T09:51:28Z</time>
      </trkpt>
      <trkpt lat="43.98748" lon="2.29499">
        <ele>428</ele>
        <time>2021-04-18T09:51:29Z</time>
      </trkpt>
      <trkpt lat="43.98747" lon="2.295">
        <ele>428</ele>
        <time>2021-04-18T09:51:30Z</time>
      </trkpt>
      <trkpt lat="43.98747" lon="2.29502">
        <ele>428</ele>
        <time>2021-04-18T09:51:31Z</time>
      </trkpt>
      <trkpt lat="43.98747" lon="2.29503">
        <ele>428</ele>
        <time>2021-04-18T09:51:32Z</time>
      </trkpt>
      <trkpt lat="43.98747" lon="2.29504">
        <ele>429</ele>
        <time>2021-04-18T09:51:33Z</time>
      </trkpt>
      <trkpt lat="43.98747" lon="2.29505">
        <ele>429</ele>
        <time>2021-04-18T09:51:34Z</time>
      </trkpt>
      <trkpt lat="43.98747" lon="2.29505">
        <ele>430</ele>
        <time>2021-04-18T09:51:35Z</time>
      </trkpt>
      <trkpt lat="43.98746" lon="2.29505">
        <ele>430</ele>
        <time>2021-04-18T09:51:36Z</time>
      </trkpt>
      <trkpt lat="43.98745" lon="2.29506">
        <ele>430</ele>
        <time>2021-04-18T09:51:37Z</time>
      </trkpt>
      <trkpt lat="43.98745" lon="2.29508">
        <ele>430</ele>
        <time>2021-04-18T09:51:38Z</time>
      </trkpt>
      <trkpt lat="43.98744" lon="2.2951">
        <ele>430</ele>
        <time>2021-04-18T09:51:39Z</time>
      </trkpt>
      <trkpt lat="43.98743" lon="2.29511">
        <ele>431</ele>
        <time>2021-04-18T09:51:40Z</time>
      </trkpt>
      <trkpt lat="43.98742" lon="2.29512">
        <ele>431</ele>
        <time>2021-04-18T09:51:41Z</time>
      </trkpt>
      <trkpt lat="43.98742" lon="2.29514">
        <ele>431</ele>
        <time>2021-04-18T09:51:42Z</time>
      </trkpt>
      <trkpt lat="43.98741" lon="2.29516">
        <ele>431</ele>
        <time>2021-04-18T09:51:43Z</time>
      </trkpt>
      <trkpt lat="43.9874" lon="2.29518">
        <ele>431</ele>
        <time>2021-04-18T09:51:44Z</time>
      </trkpt>
      <trkpt lat="43.9874" lon="2.2952">
        <ele>431</ele>
        <time>2021-04-18T09:51:45Z</time>
      </trkpt>
      <trkpt lat="43.98739" lon="2.29522">
        <ele>431</ele>
        <time>2021-04-18T09:51:46Z</time>
      </trkpt>
      <trkpt lat="43.98739" lon="2.29524">
        <ele>432</ele>
        <time>2021-04-18T09:51:47Z</time>
      </trkpt>
      <trkpt lat="43.98739" lon="2.29526">
        <ele>431</ele>
        <time>2021-04-18T09:51:48Z</time>
      </trkpt>
      <trkpt lat="43.98738" lon="2.29527">
        <ele>432</ele>
        <time>2021-04-18T09:51:49Z</time>
      </trkpt>
      <trkpt lat="43.98738" lon="2.29528">
        <ele>432</ele>
        <time>2021-04-18T09:51:50Z</time>
      </trkpt>
      <trkpt lat="43.98738" lon="2.29529">
        <ele>431</ele>
        <time>2021-04-18T09:51:51Z</time>
      </trkpt>
      <trkpt lat="43.98737" lon="2.29531">
        <ele>431</ele>
        <time>2021-04-18T09:51:52Z</time>
      </trkpt>
      <trkpt lat="43.98736" lon="2.29532">
        <ele>430</ele>
        <time>2021-04-18T09:51:53Z</time>
      </trkpt>
      <trkpt lat="43.98736" lon="2.29534">
        <ele>431</ele>
        <time>2021-04-18T09:51:54Z</time>
      </trkpt>
      <trkpt lat="43.98735" lon="2.29536">
        <ele>431</ele>
        <time>2021-04-18T09:51:55Z</time>
      </trkpt>
      <trkpt lat="43.98735" lon="2.29538">
        <ele>431</ele>
        <time>2021-04-18T09:51:56Z</time>
      </trkpt>
      <trkpt lat="43.98735" lon="2.2954">
        <ele>431</ele>
        <time>2021-04-18T09:51:57Z</time>
      </trkpt>
      <trkpt lat="43.98734" lon="2.29541">
        <ele>431</ele>
        <time>2021-04-18T09:51:58Z</time>
      </trkpt>
      <trkpt lat="43.98733" lon="2.29543">
        <ele>431</ele>
        <time>2021-04-18T09:51:59Z</time>
      </trkpt>
      <trkpt lat="43.98733" lon="2.29544">
        <ele>431</ele>
        <time>2021-04-18T09:52:00Z</time>
      </trkpt>
      <trkpt lat="43.98732" lon="2.29547">
        <ele>431</ele>
        <time>2021-04-18T09:52:01Z</time>
      </trkpt>
      <trkpt lat="43.98731" lon="2.29548">
        <ele>432</ele>
        <time>2021-04-18T09:52:02Z</time>
      </trkpt>
      <trkpt lat="43.98731" lon="2.29551">
        <ele>431</ele>
        <time>2021-04-18T09:52:03Z</time>
      </trkpt>
      <trkpt lat="43.98731" lon="2.29553">
        <ele>431</ele>
        <time>2021-04-18T09:52:04Z</time>
      </trkpt>
      <trkpt lat="43.9873" lon="2.29554">
        <ele>431</ele>
        <time>2021-04-18T09:52:05Z</time>
      </trkpt>
      <trkpt lat="43.9873" lon="2.29555">
        <ele>430</ele>
        <time>2021-04-18T09:52:06Z</time>
      </trkpt>
      <trkpt lat="43.98729" lon="2.29557">
        <ele>430</ele>
        <time>2021-04-18T09:52:07Z</time>
      </trkpt>
      <trkpt lat="43.98728" lon="2.29558">
        <ele>431</ele>
        <time>2021-04-18T09:52:08Z</time>
      </trkpt>
      <trkpt lat="43.98727" lon="2.2956">
        <ele>430</ele>
        <time>2021-04-18T09:52:09Z</time>
      </trkpt>
      <trkpt lat="43.98726" lon="2.29561">
        <ele>430</ele>
        <time>2021-04-18T09:52:10Z</time>
      </trkpt>
      <trkpt lat="43.98725" lon="2.29563">
        <ele>430</ele>
        <time>2021-04-18T09:52:11Z</time>
      </trkpt>
      <trkpt lat="43.98724" lon="2.29565">
        <ele>430</ele>
        <time>2021-04-18T09:52:12Z</time>
      </trkpt>
      <trkpt lat="43.98724" lon="2.29566">
        <ele>429</ele>
        <time>2021-04-18T09:52:13Z</time>
      </trkpt>
      <trkpt lat="43.98723" lon="2.29568">
        <ele>429</ele>
        <time>2021-04-18T09:52:14Z</time>
      </trkpt>
      <trkpt lat="43.98723" lon="2.29569">
        <ele>429</ele>
        <time>2021-04-18T09:52:15Z</time>
      </trkpt>
      <trkpt lat="43.98722" lon="2.2957">
        <ele>429</ele>
        <time>2021-04-18T09:52:16Z</time>
      </trkpt>
      <trkpt lat="43.98721" lon="2.29571">
        <ele>430</ele>
        <time>2021-04-18T09:52:17Z</time>
      </trkpt>
      <trkpt lat="43.98721" lon="2.29572">
        <ele>430</ele>
        <time>2021-04-18T09:52:18Z</time>
      </trkpt>
      <trkpt lat="43.9872" lon="2.29573">
        <ele>430</ele>
        <time>2021-04-18T09:52:19Z</time>
      </trkpt>
      <trkpt lat="43.98719" lon="2.29574">
        <ele>430</ele>
        <time>2021-04-18T09:52:20Z</time>
      </trkpt>
      <trkpt lat="43.98718" lon="2.29576">
        <ele>429</ele>
        <time>2021-04-18T09:52:21Z</time>
      </trkpt>
      <trkpt lat="43.98717" lon="2.29577">
        <ele>429</ele>
        <time>2021-04-18T09:52:22Z</time>
      </trkpt>
      <trkpt lat="43.98717" lon="2.29579">
        <ele>429</ele>
        <time>2021-04-18T09:52:23Z</time>
      </trkpt>
      <trkpt lat="43.98716" lon="2.29581">
        <ele>429</ele>
        <time>2021-04-18T09:52:24Z</time>
      </trkpt>
      <trkpt lat="43.98716" lon="2.29583">
        <ele>429</ele>
        <time>2021-04-18T09:52:25Z</time>
      </trkpt>
      <trkpt lat="43.98715" lon="2.29585">
        <ele>429</ele>
        <time>2021-04-18T09:52:26Z</time>
      </trkpt>
      <trkpt lat="43.98714" lon="2.29586">
        <ele>429</ele>
        <time>2021-04-18T09:52:27Z</time>
      </trkpt>
      <trkpt lat="43.98713" lon="2.29588">
        <ele>429</ele>
        <time>2021-04-18T09:52:28Z</time>
      </trkpt>
      <trkpt lat="43.98713" lon="2.29589">
        <ele>429</ele>
        <time>2021-04-18T09:52:29Z</time>
      </trkpt>
      <trkpt lat="43.98711" lon="2.2959">
        <ele>429</ele>
        <time>2021-04-18T09:52:30Z</time>
      </trkpt>
      <trkpt lat="43.98711" lon="2.29592">
        <ele>428</ele>
        <time>2021-04-18T09:52:31Z</time>
      </trkpt>
      <trkpt lat="43.9871" lon="2.29594">
        <ele>428</ele>
        <time>2021-04-18T09:52:32Z</time>
      </trkpt>
      <trkpt lat="43.98709" lon="2.29595">
        <ele>428</ele>
        <time>2021-04-18T09:52:33Z</time>
      </trkpt>
      <trkpt lat="43.98708" lon="2.29597">
        <ele>428</ele>
        <time>2021-04-18T09:52:34Z</time>
      </trkpt>
      <trkpt lat="43.98707" lon="2.29599">
        <ele>428</ele>
        <time>2021-04-18T09:52:35Z</time>
      </trkpt>
      <trkpt lat="43.98706" lon="2.29601">
        <ele>428</ele>
        <time>2021-04-18T09:52:36Z</time>
      </trkpt>
      <trkpt lat="43.98706" lon="2.29603">
        <ele>428</ele>
        <time>2021-04-18T09:52:37Z</time>
      </trkpt>
      <trkpt lat="43.98705" lon="2.29604">
        <ele>428</ele>
        <time>2021-04-18T09:52:38Z</time>
      </trkpt>
      <trkpt lat="43.98705" lon="2.29607">
        <ele>428</ele>
        <time>2021-04-18T09:52:39Z</time>
      </trkpt>
      <trkpt lat="43.98704" lon="2.29609">
        <ele>428</ele>
        <time>2021-04-18T09:52:40Z</time>
      </trkpt>
      <trkpt lat="43.98703" lon="2.29611">
        <ele>428</ele>
        <time>2021-04-18T09:52:41Z</time>
      </trkpt>
      <trkpt lat="43.98703" lon="2.29613">
        <ele>428</ele>
        <time>2021-04-18T09:52:42Z</time>
      </trkpt>
      <trkpt lat="43.98703" lon="2.29615">
        <ele>428</ele>
        <time>2021-04-18T09:52:43Z</time>
      </trkpt>
      <trkpt lat="43.98702" lon="2.29618">
        <ele>428</ele>
        <time>2021-04-18T09:52:44Z</time>
      </trkpt>
      <trkpt lat="43.98702" lon="2.2962">
        <ele>428</ele>
        <time>2021-04-18T09:52:45Z</time>
      </trkpt>
      <trkpt lat="43.98702" lon="2.29623">
        <ele>429</ele>
        <time>2021-04-18T09:52:46Z</time>
      </trkpt>
      <trkpt lat="43.98701" lon="2.29625">
        <ele>428</ele>
        <time>2021-04-18T09:52:47Z</time>
      </trkpt>
      <trkpt lat="43.98701" lon="2.29627">
        <ele>428</ele>
        <time>2021-04-18T09:52:48Z</time>
      </trkpt>
      <trkpt lat="43.987" lon="2.29628">
        <ele>428</ele>
        <time>2021-04-18T09:52:49Z</time>
      </trkpt>
      <trkpt lat="43.98699" lon="2.2963">
        <ele>429</ele>
        <time>2021-04-18T09:52:50Z</time>
      </trkpt>
      <trkpt lat="43.98698" lon="2.29632">
        <ele>429</ele>
        <time>2021-04-18T09:52:51Z</time>
      </trkpt>
      <trkpt lat="43.98698" lon="2.29633">
        <ele>430</ele>
        <time>2021-04-18T09:52:52Z</time>
      </trkpt>
      <trkpt lat="43.98697" lon="2.29635">
        <ele>431</ele>
        <time>2021-04-18T09:52:53Z</time>
      </trkpt>
      <trkpt lat="43.98697" lon="2.29638">
        <ele>430</ele>
        <time>2021-04-18T09:52:54Z</time>
      </trkpt>
      <trkpt lat="43.98696" lon="2.2964">
        <ele>430</ele>
        <time>2021-04-18T09:52:55Z</time>
      </trkpt>
      <trkpt lat="43.98695" lon="2.29642">
        <ele>430</ele>
        <time>2021-04-18T09:52:56Z</time>
      </trkpt>
      <trkpt lat="43.98694" lon="2.29644">
        <ele>430</ele>
        <time>2021-04-18T09:52:57Z</time>
      </trkpt>
      <trkpt lat="43.98694" lon="2.29646">
        <ele>430</ele>
        <time>2021-04-18T09:52:58Z</time>
      </trkpt>
      <trkpt lat="43.98693" lon="2.29648">
        <ele>430</ele>
        <time>2021-04-18T09:52:59Z</time>
      </trkpt>
      <trkpt lat="43.98692" lon="2.2965">
        <ele>430</ele>
        <time>2021-04-18T09:53:00Z</time>
      </trkpt>
      <trkpt lat="43.98692" lon="2.29651">
        <ele>430</ele>
        <time>2021-04-18T09:53:01Z</time>
      </trkpt>
      <trkpt lat="43.98691" lon="2.29652">
        <ele>431</ele>
        <time>2021-04-18T09:53:02Z</time>
      </trkpt>
      <trkpt lat="43.9869" lon="2.29654">
        <ele>431</ele>
        <time>2021-04-18T09:53:03Z</time>
      </trkpt>
      <trkpt lat="43.98689" lon="2.29656">
        <ele>431</ele>
        <time>2021-04-18T09:53:04Z</time>
      </trkpt>
      <trkpt lat="43.98688" lon="2.29659">
        <ele>431</ele>
        <time>2021-04-18T09:53:05Z</time>
      </trkpt>
      <trkpt lat="43.98687" lon="2.29661">
        <ele>432</ele>
        <time>2021-04-18T09:53:06Z</time>
      </trkpt>
      <trkpt lat="43.98687" lon="2.29663">
        <ele>431</ele>
        <time>2021-04-18T09:53:07Z</time>
      </trkpt>
      <trkpt lat="43.98687" lon="2.29665">
        <ele>431</ele>
        <time>2021-04-18T09:53:08Z</time>
      </trkpt>
      <trkpt lat="43.98686" lon="2.29667">
        <ele>431</ele>
        <time>2021-04-18T09:53:09Z</time>
      </trkpt>
      <trkpt lat="43.98686" lon="2.29669">
        <ele>431</ele>
        <time>2021-04-18T09:53:10Z</time>
      </trkpt>
      <trkpt lat="43.98685" lon="2.29671">
        <ele>431</ele>
        <time>2021-04-18T09:53:11Z</time>
      </trkpt>
      <trkpt lat="43.98685" lon="2.29673">
        <ele>431</ele>
        <time>2021-04-18T09:53:12Z</time>
      </trkpt>
      <trkpt lat="43.98684" lon="2.29675">
        <ele>431</ele>
        <time>2021-04-18T09:53:13Z</time>
      </trkpt>
      <trkpt lat="43.98683" lon="2.29678">
        <ele>431</ele>
        <time>2021-04-18T09:53:14Z</time>
      </trkpt>
      <trkpt lat="43.98683" lon="2.2968">
        <ele>431</ele>
        <time>2021-04-18T09:53:15Z</time>
      </trkpt>
      <trkpt lat="43.98682" lon="2.29682">
        <ele>431</ele>
        <time>2021-04-18T09:53:16Z</time>
      </trkpt>
      <trkpt lat="43.98681" lon="2.29684">
        <ele>432</ele>
        <time>2021-04-18T09:53:17Z</time>
      </trkpt>
      <trkpt lat="43.98681" lon="2.29686">
        <ele>432</ele>
        <time>2021-04-18T09:53:18Z</time>
      </trkpt>
      <trkpt lat="43.9868" lon="2.29688">
        <ele>432</ele>
        <time>2021-04-18T09:53:19Z</time>
      </trkpt>
      <trkpt lat="43.98679" lon="2.29691">
        <ele>433</ele>
        <time>2021-04-18T09:53:20Z</time>
      </trkpt>
      <trkpt lat="43.98679" lon="2.29693">
        <ele>433</ele>
        <time>2021-04-18T09:53:21Z</time>
      </trkpt>
      <trkpt lat="43.98678" lon="2.29695">
        <ele>433</ele>
        <time>2021-04-18T09:53:22Z</time>
      </trkpt>
      <trkpt lat="43.98678" lon="2.29697">
        <ele>433</ele>
        <time>2021-04-18T09:53:23Z</time>
      </trkpt>
      <trkpt lat="43.98677" lon="2.29699">
        <ele>433</ele>
        <time>2021-04-18T09:53:24Z</time>
      </trkpt>
      <trkpt lat="43.98677" lon="2.29701">
        <ele>433</ele>
        <time>2021-04-18T09:53:25Z</time>
      </trkpt>
      <trkpt lat="43.98676" lon="2.29703">
        <ele>433</ele>
        <time>2021-04-18T09:53:26Z</time>
      </trkpt>
      <trkpt lat="43.98676" lon="2.29705">
        <ele>433</ele>
        <time>2021-04-18T09:53:27Z</time>
      </trkpt>
      <trkpt lat="43.98676" lon="2.29707">
        <ele>433</ele>
        <time>2021-04-18T09:53:28Z</time>
      </trkpt>
      <trkpt lat="43.98675" lon="2.29708">
        <ele>434</ele>
        <time>2021-04-18T09:53:29Z</time>
      </trkpt>
      <trkpt lat="43.98675" lon="2.29709">
        <ele>434</ele>
        <time>2021-04-18T09:53:30Z</time>
      </trkpt>
      <trkpt lat="43.98676" lon="2.2971">
        <ele>434</ele>
        <time>2021-04-18T09:53:31Z</time>
      </trkpt>
      <trkpt lat="43.98676" lon="2.29711">
        <ele>435</ele>
        <time>2021-04-18T09:53:32Z</time>
      </trkpt>
      <trkpt lat="43.98676" lon="2.29711">
        <ele>435</ele>
        <time>2021-04-18T09:53:33Z</time>
      </trkpt>
      <trkpt lat="43.98675" lon="2.29712">
        <ele>436</ele>
        <time>2021-04-18T09:53:34Z</time>
      </trkpt>
      <trkpt lat="43.98675" lon="2.29714">
        <ele>436</ele>
        <time>2021-04-18T09:53:35Z</time>
      </trkpt>
      <trkpt lat="43.98674" lon="2.29715">
        <ele>436</ele>
        <time>2021-04-18T09:53:36Z</time>
      </trkpt>
      <trkpt lat="43.98674" lon="2.29717">
        <ele>436</ele>
        <time>2021-04-18T09:53:37Z</time>
      </trkpt>
      <trkpt lat="43.98674" lon="2.29719">
        <ele>435</ele>
        <time>2021-04-18T09:53:38Z</time>
      </trkpt>
      <trkpt lat="43.98673" lon="2.29721">
        <ele>435</ele>
        <time>2021-04-18T09:53:39Z</time>
      </trkpt>
      <trkpt lat="43.98673" lon="2.29723">
        <ele>436</ele>
        <time>2021-04-18T09:53:40Z</time>
      </trkpt>
      <trkpt lat="43.98673" lon="2.29725">
        <ele>436</ele>
        <time>2021-04-18T09:53:41Z</time>
      </trkpt>
      <trkpt lat="43.98672" lon="2.29727">
        <ele>436</ele>
        <time>2021-04-18T09:53:42Z</time>
      </trkpt>
      <trkpt lat="43.98671" lon="2.29729">
        <ele>436</ele>
        <time>2021-04-18T09:53:43Z</time>
      </trkpt>
      <trkpt lat="43.98671" lon="2.29731">
        <ele>436</ele>
        <time>2021-04-18T09:53:44Z</time>
      </trkpt>
      <trkpt lat="43.9867" lon="2.29733">
        <ele>436</ele>
        <time>2021-04-18T09:53:45Z</time>
      </trkpt>
      <trkpt lat="43.98669" lon="2.29734">
        <ele>436</ele>
        <time>2021-04-18T09:53:46Z</time>
      </trkpt>
      <trkpt lat="43.98669" lon="2.29736">
        <ele>436</ele>
        <time>2021-04-18T09:53:47Z</time>
      </trkpt>
      <trkpt lat="43.98668" lon="2.29737">
        <ele>436</ele>
        <time>2021-04-18T09:53:48Z</time>
      </trkpt>
      <trkpt lat="43.98668" lon="2.29739">
        <ele>436</ele>
        <time>2021-04-18T09:53:49Z</time>
      </trkpt>
      <trkpt lat="43.98667" lon="2.2974">
        <ele>435</ele>
        <time>2021-04-18T09:53:50Z</time>
      </trkpt>
      <trkpt lat="43.98667" lon="2.29742">
        <ele>436</ele>
        <time>2021-04-18T09:53:51Z</time>
      </trkpt>
      <trkpt lat="43.98666" lon="2.29744">
        <ele>436</ele>
        <time>2021-04-18T09:53:52Z</time>
      </trkpt>
      <trkpt lat="43.98666" lon="2.29746">
        <ele>436</ele>
        <time>2021-04-18T09:53:53Z</time>
      </trkpt>
      <trkpt lat="43.98666" lon="2.29748">
        <ele>436</ele>
        <time>2021-04-18T09:53:54Z</time>
      </trkpt>
      <trkpt lat="43.98666" lon="2.2975">
        <ele>436</ele>
        <time>2021-04-18T09:53:55Z</time>
      </trkpt>
      <trkpt lat="43.98665" lon="2.29752">
        <ele>436</ele>
        <time>2021-04-18T09:53:56Z</time>
      </trkpt>
      <trkpt lat="43.98665" lon="2.29754">
        <ele>435</ele>
        <time>2021-04-18T09:53:57Z</time>
      </trkpt>
      <trkpt lat="43.98665" lon="2.29756">
        <ele>435</ele>
        <time>2021-04-18T09:53:58Z</time>
      </trkpt>
      <trkpt lat="43.98665" lon="2.29758">
        <ele>436</ele>
        <time>2021-04-18T09:53:59Z</time>
      </trkpt>
      <trkpt lat="43.98664" lon="2.29759">
        <ele>437</ele>
        <time>2021-04-18T09:54:00Z</time>
      </trkpt>
      <trkpt lat="43.98663" lon="2.29761">
        <ele>437</ele>
        <time>2021-04-18T09:54:01Z</time>
      </trkpt>
      <trkpt lat="43.98663" lon="2.29763">
        <ele>436</ele>
        <time>2021-04-18T09:54:02Z</time>
      </trkpt>
      <trkpt lat="43.98663" lon="2.29765">
        <ele>437</ele>
        <time>2021-04-18T09:54:03Z</time>
      </trkpt>
      <trkpt lat="43.98662" lon="2.29767">
        <ele>437</ele>
        <time>2021-04-18T09:54:04Z</time>
      </trkpt>
      <trkpt lat="43.98661" lon="2.29769">
        <ele>436</ele>
        <time>2021-04-18T09:54:05Z</time>
      </trkpt>
      <trkpt lat="43.9866" lon="2.29771">
        <ele>436</ele>
        <time>2021-04-18T09:54:06Z</time>
      </trkpt>
      <trkpt lat="43.98658" lon="2.29772">
        <ele>435</ele>
        <time>2021-04-18T09:54:07Z</time>
      </trkpt>
      <trkpt lat="43.98658" lon="2.29774">
        <ele>436</ele>
        <time>2021-04-18T09:54:08Z</time>
      </trkpt>
      <trkpt lat="43.98657" lon="2.29776">
        <ele>435</ele>
        <time>2021-04-18T09:54:09Z</time>
      </trkpt>
      <trkpt lat="43.98657" lon="2.29778">
        <ele>435</ele>
        <time>2021-04-18T09:54:10Z</time>
      </trkpt>
      <trkpt lat="43.98655" lon="2.29779">
        <ele>435</ele>
        <time>2021-04-18T09:54:11Z</time>
      </trkpt>
      <trkpt lat="43.98654" lon="2.29781">
        <ele>435</ele>
        <time>2021-04-18T09:54:12Z</time>
      </trkpt>
      <trkpt lat="43.98653" lon="2.29782">
        <ele>435</ele>
        <time>2021-04-18T09:54:13Z</time>
      </trkpt>
      <trkpt lat="43.98653" lon="2.29784">
        <ele>436</ele>
        <time>2021-04-18T09:54:14Z</time>
      </trkpt>
      <trkpt lat="43.98652" lon="2.29786">
        <ele>436</ele>
        <time>2021-04-18T09:54:15Z</time>
      </trkpt>
      <trkpt lat="43.9865" lon="2.29787">
        <ele>436</ele>
        <time>2021-04-18T09:54:16Z</time>
      </trkpt>
      <trkpt lat="43.9865" lon="2.29789">
        <ele>436</ele>
        <time>2021-04-18T09:54:17Z</time>
      </trkpt>
      <trkpt lat="43.98649" lon="2.29791">
        <ele>436</ele>
        <time>2021-04-18T09:54:18Z</time>
      </trkpt>
      <trkpt lat="43.98649" lon="2.29793">
        <ele>436</ele>
        <time>2021-04-18T09:54:19Z</time>
      </trkpt>
      <trkpt lat="43.98649" lon="2.29795">
        <ele>436</ele>
        <time>2021-04-18T09:54:20Z</time>
      </trkpt>
      <trkpt lat="43.98648" lon="2.29796">
        <ele>436</ele>
        <time>2021-04-18T09:54:21Z</time>
      </trkpt>
      <trkpt lat="43.98647" lon="2.29799">
        <ele>436</ele>
        <time>2021-04-18T09:54:22Z</time>
      </trkpt>
      <trkpt lat="43.98647" lon="2.29801">
        <ele>436</ele>
        <time>2021-04-18T09:54:23Z</time>
      </trkpt>
      <trkpt lat="43.98646" lon="2.29804">
        <ele>436</ele>
        <time>2021-04-18T09:54:24Z</time>
      </trkpt>
      <trkpt lat="43.98645" lon="2.29805">
        <ele>436</ele>
        <time>2021-04-18T09:54:25Z</time>
      </trkpt>
      <trkpt lat="43.98645" lon="2.29807">
        <ele>437</ele>
        <time>2021-04-18T09:54:26Z</time>
      </trkpt>
      <trkpt lat="43.98646" lon="2.29809">
        <ele>436</ele>
        <time>2021-04-18T09:54:27Z</time>
      </trkpt>
      <trkpt lat="43.98646" lon="2.29812">
        <ele>436</ele>
        <time>2021-04-18T09:54:28Z</time>
      </trkpt>
      <trkpt lat="43.98646" lon="2.29815">
        <ele>437</ele>
        <time>2021-04-18T09:54:29Z</time>
      </trkpt>
      <trkpt lat="43.98647" lon="2.29817">
        <ele>436</ele>
        <time>2021-04-18T09:54:30Z</time>
      </trkpt>
      <trkpt lat="43.98647" lon="2.29819">
        <ele>436</ele>
        <time>2021-04-18T09:54:31Z</time>
      </trkpt>
      <trkpt lat="43.98648" lon="2.29822">
        <ele>436</ele>
        <time>2021-04-18T09:54:32Z</time>
      </trkpt>
      <trkpt lat="43.98648" lon="2.29824">
        <ele>436</ele>
        <time>2021-04-18T09:54:33Z</time>
      </trkpt>
      <trkpt lat="43.98649" lon="2.29827">
        <ele>437</ele>
        <time>2021-04-18T09:54:34Z</time>
      </trkpt>
      <trkpt lat="43.98649" lon="2.29829">
        <ele>436</ele>
        <time>2021-04-18T09:54:35Z</time>
      </trkpt>
      <trkpt lat="43.9865" lon="2.2983">
        <ele>436</ele>
        <time>2021-04-18T09:54:36Z</time>
      </trkpt>
      <trkpt lat="43.9865" lon="2.29832">
        <ele>436</ele>
        <time>2021-04-18T09:54:37Z</time>
      </trkpt>
      <trkpt lat="43.98651" lon="2.29833">
        <ele>436</ele>
        <time>2021-04-18T09:54:38Z</time>
      </trkpt>
      <trkpt lat="43.98651" lon="2.29835">
        <ele>437</ele>
        <time>2021-04-18T09:54:39Z</time>
      </trkpt>
      <trkpt lat="43.98651" lon="2.29837">
        <ele>437</ele>
        <time>2021-04-18T09:54:40Z</time>
      </trkpt>
      <trkpt lat="43.9865" lon="2.29839">
        <ele>437</ele>
        <time>2021-04-18T09:54:41Z</time>
      </trkpt>
      <trkpt lat="43.9865" lon="2.29841">
        <ele>437</ele>
        <time>2021-04-18T09:54:42Z</time>
      </trkpt>
      <trkpt lat="43.98649" lon="2.29843">
        <ele>437</ele>
        <time>2021-04-18T09:54:43Z</time>
      </trkpt>
      <trkpt lat="43.98649" lon="2.29845">
        <ele>437</ele>
        <time>2021-04-18T09:54:44Z</time>
      </trkpt>
      <trkpt lat="43.98648" lon="2.29846">
        <ele>437</ele>
        <time>2021-04-18T09:54:45Z</time>
      </trkpt>
      <trkpt lat="43.98647" lon="2.29848">
        <ele>437</ele>
        <time>2021-04-18T09:54:46Z</time>
      </trkpt>
      <trkpt lat="43.98646" lon="2.29849">
        <ele>437</ele>
        <time>2021-04-18T09:54:47Z</time>
      </trkpt>
      <trkpt lat="43.98645" lon="2.2985">
        <ele>437</ele>
        <time>2021-04-18T09:54:48Z</time>
      </trkpt>
      <trkpt lat="43.98644" lon="2.29852">
        <ele>437</ele>
        <time>2021-04-18T09:54:49Z</time>
      </trkpt>
      <trkpt lat="43.98643" lon="2.29854">
        <ele>437</ele>
        <time>2021-04-18T09:54:50Z</time>
      </trkpt>
      <trkpt lat="43.98642" lon="2.29855">
        <ele>438</ele>
        <time>2021-04-18T09:54:51Z</time>
      </trkpt>
      <trkpt lat="43.98642" lon="2.29857">
        <ele>438</ele>
        <time>2021-04-18T09:54:52Z</time>
      </trkpt>
      <trkpt lat="43.98641" lon="2.29859">
        <ele>438</ele>
        <time>2021-04-18T09:54:53Z</time>
      </trkpt>
      <trkpt lat="43.9864" lon="2.2986">
        <ele>438</ele>
        <time>2021-04-18T09:54:54Z</time>
      </trkpt>
      <trkpt lat="43.9864" lon="2.29862">
        <ele>438</ele>
        <time>2021-04-18T09:54:55Z</time>
      </trkpt>
      <trkpt lat="43.98639" lon="2.29863">
        <ele>438</ele>
        <time>2021-04-18T09:54:56Z</time>
      </trkpt>
      <trkpt lat="43.98638" lon="2.29865">
        <ele>438</ele>
        <time>2021-04-18T09:54:57Z</time>
      </trkpt>
      <trkpt lat="43.98637" lon="2.29867">
        <ele>438</ele>
        <time>2021-04-18T09:54:58Z</time>
      </trkpt>
      <trkpt lat="43.98637" lon="2.29868">
        <ele>438</ele>
        <time>2021-04-18T09:54:59Z</time>
      </trkpt>
      <trkpt lat="43.98636" lon="2.2987">
        <ele>438</ele>
        <time>2021-04-18T09:55:00Z</time>
      </trkpt>
      <trkpt lat="43.98636" lon="2.29872">
        <ele>438</ele>
        <time>2021-04-18T09:55:01Z</time>
      </trkpt>
      <trkpt lat="43.98635" lon="2.29873">
        <ele>438</ele>
        <time>2021-04-18T09:55:02Z</time>
      </trkpt>
      <trkpt lat="43.98634" lon="2.29875">
        <ele>438</ele>
        <time>2021-04-18T09:55:03Z</time>
      </trkpt>
      <trkpt lat="43.98633" lon="2.29876">
        <ele>438</ele>
        <time>2021-04-18T09:55:04Z</time>
      </trkpt>
      <trkpt lat="43.98632" lon="2.29878">
        <ele>438</ele>
        <time>2021-04-18T09:55:05Z</time>
      </trkpt>
      <trkpt lat="43.98632" lon="2.29879">
        <ele>438</ele>
        <time>2021-04-18T09:55:06Z</time>
      </trkpt>
      <trkpt lat="43.98631" lon="2.2988">
        <ele>437</ele>
        <time>2021-04-18T09:55:07Z</time>
      </trkpt>
      <trkpt lat="43.9863" lon="2.29881">
        <ele>437</ele>
        <time>2021-04-18T09:55:08Z</time>
      </trkpt>
      <trkpt lat="43.98629" lon="2.29882">
        <ele>437</ele>
        <time>2021-04-18T09:55:09Z</time>
      </trkpt>
      <trkpt lat="43.98628" lon="2.29883">
        <ele>437</ele>
        <time>2021-04-18T09:55:10Z</time>
      </trkpt>
      <trkpt lat="43.98628" lon="2.29884">
        <ele>436</ele>
        <time>2021-04-18T09:55:11Z</time>
      </trkpt>
      <trkpt lat="43.98628" lon="2.29886">
        <ele>436</ele>
        <time>2021-04-18T09:55:12Z</time>
      </trkpt>
      <trkpt lat="43.98629" lon="2.29886">
        <ele>436</ele>
        <time>2021-04-18T09:55:13Z</time>
      </trkpt>
      <trkpt lat="43.9863" lon="2.29887">
        <ele>435</ele>
        <time>2021-04-18T09:55:14Z</time>
      </trkpt>
      <trkpt lat="43.98631" lon="2.29888">
        <ele>435</ele>
        <time>2021-04-18T09:55:15Z</time>
      </trkpt>
      <trkpt lat="43.98632" lon="2.29889">
        <ele>434</ele>
        <time>2021-04-18T09:55:16Z</time>
      </trkpt>
      <trkpt lat="43.98634" lon="2.29891">
        <ele>435</ele>
        <time>2021-04-18T09:55:17Z</time>
      </trkpt>
      <trkpt lat="43.98635" lon="2.29892">
        <ele>435</ele>
        <time>2021-04-18T09:55:18Z</time>
      </trkpt>
      <trkpt lat="43.98637" lon="2.29893">
        <ele>435</ele>
        <time>2021-04-18T09:55:19Z</time>
      </trkpt>
      <trkpt lat="43.98638" lon="2.29893">
        <ele>435</ele>
        <time>2021-04-18T09:55:20Z</time>
      </trkpt>
      <trkpt lat="43.98639" lon="2.29894">
        <ele>435</ele>
        <time>2021-04-18T09:55:21Z</time>
      </trkpt>
      <trkpt lat="43.9864" lon="2.29895">
        <ele>435</ele>
        <time>2021-04-18T09:55:22Z</time>
      </trkpt>
      <trkpt lat="43.98641" lon="2.29895">
        <ele>435</ele>
        <time>2021-04-18T09:55:23Z</time>
      </trkpt>
      <trkpt lat="43.98643" lon="2.29895">
        <ele>434</ele>
        <time>2021-04-18T09:55:24Z</time>
      </trkpt>
      <trkpt lat="43.98644" lon="2.29895">
        <ele>434</ele>
        <time>2021-04-18T09:55:25Z</time>
      </trkpt>
      <trkpt lat="43.98645" lon="2.29896">
        <ele>435</ele>
        <time>2021-04-18T09:55:26Z</time>
      </trkpt>
      <trkpt lat="43.98647" lon="2.29896">
        <ele>435</ele>
        <time>2021-04-18T09:55:27Z</time>
      </trkpt>
      <trkpt lat="43.98648" lon="2.29897">
        <ele>435</ele>
        <time>2021-04-18T09:55:28Z</time>
      </trkpt>
      <trkpt lat="43.9865" lon="2.29898">
        <ele>435</ele>
        <time>2021-04-18T09:55:29Z</time>
      </trkpt>
      <trkpt lat="43.98651" lon="2.29899">
        <ele>435</ele>
        <time>2021-04-18T09:55:30Z</time>
      </trkpt>
      <trkpt lat="43.98652" lon="2.29899">
        <ele>435</ele>
        <time>2021-04-18T09:55:31Z</time>
      </trkpt>
      <trkpt lat="43.98653" lon="2.299">
        <ele>435</ele>
        <time>2021-04-18T09:55:32Z</time>
      </trkpt>
      <trkpt lat="43.98655" lon="2.299">
        <ele>435</ele>
        <time>2021-04-18T09:55:33Z</time>
      </trkpt>
      <trkpt lat="43.98656" lon="2.29901">
        <ele>436</ele>
        <time>2021-04-18T09:55:34Z</time>
      </trkpt>
      <trkpt lat="43.98657" lon="2.29902">
        <ele>436</ele>
        <time>2021-04-18T09:55:35Z</time>
      </trkpt>
      <trkpt lat="43.98659" lon="2.29903">
        <ele>437</ele>
        <time>2021-04-18T09:55:36Z</time>
      </trkpt>
      <trkpt lat="43.9866" lon="2.29904">
        <ele>437</ele>
        <time>2021-04-18T09:55:37Z</time>
      </trkpt>
      <trkpt lat="43.98661" lon="2.29905">
        <ele>437</ele>
        <time>2021-04-18T09:55:38Z</time>
      </trkpt>
      <trkpt lat="43.98663" lon="2.29905">
        <ele>438</ele>
        <time>2021-04-18T09:55:39Z</time>
      </trkpt>
      <trkpt lat="43.98665" lon="2.29906">
        <ele>438</ele>
        <time>2021-04-18T09:55:40Z</time>
      </trkpt>
      <trkpt lat="43.98666" lon="2.29906">
        <ele>438</ele>
        <time>2021-04-18T09:55:41Z</time>
      </trkpt>
      <trkpt lat="43.98667" lon="2.29907">
        <ele>439</ele>
        <time>2021-04-18T09:55:42Z</time>
      </trkpt>
      <trkpt lat="43.98668" lon="2.29908">
        <ele>440</ele>
        <time>2021-04-18T09:55:43Z</time>
      </trkpt>
      <trkpt lat="43.9867" lon="2.29909">
        <ele>440</ele>
        <time>2021-04-18T09:55:44Z</time>
      </trkpt>
      <trkpt lat="43.98671" lon="2.29909">
        <ele>440</ele>
        <time>2021-04-18T09:55:45Z</time>
      </trkpt>
      <trkpt lat="43.98672" lon="2.2991">
        <ele>440</ele>
        <time>2021-04-18T09:55:46Z</time>
      </trkpt>
      <trkpt lat="43.98673" lon="2.2991">
        <ele>440</ele>
        <time>2021-04-18T09:55:47Z</time>
      </trkpt>
      <trkpt lat="43.98674" lon="2.2991">
        <ele>440</ele>
        <time>2021-04-18T09:55:48Z</time>
      </trkpt>
      <trkpt lat="43.98674" lon="2.2991">
        <ele>440</ele>
        <time>2021-04-18T09:55:49Z</time>
      </trkpt>
      <trkpt lat="43.98674" lon="2.2991">
        <ele>440</ele>
        <time>2021-04-18T09:55:50Z</time>
      </trkpt>
      <trkpt lat="43.98674" lon="2.2991">
        <ele>440</ele>
        <time>2021-04-18T09:55:51Z</time>
      </trkpt>
      <trkpt lat="43.98674" lon="2.2991">
        <ele>440</ele>
        <time>2021-04-18T09:55:52Z</time>
      </trkpt>
      <trkpt lat="43.98674" lon="2.2991">
        <ele>440</ele>
        <time>2021-04-18T09:55:52Z</time>
      </trkpt>
      <trkpt lat="43.98674" lon="2.2991">
        <ele>440</ele>
        <time>2021-04-18T09:55:52Z</time>
      </trkpt>
      <trkpt lat="43.98677" lon="2.29911">
        <ele>440</ele>
        <time>2021-04-18T09:56:08Z</time>
      </trkpt>
      <trkpt lat="43.98678" lon="2.29912">
        <ele>440</ele>
        <time>2021-04-18T09:56:09Z</time>
      </trkpt>
      <trkpt lat="43.98679" lon="2.29912">
        <ele>440</ele>
        <time>2021-04-18T09:56:10Z</time>
      </trkpt>
      <trkpt lat="43.9868" lon="2.29913">
        <ele>440</ele>
        <time>2021-04-18T09:56:11Z</time>
      </trkpt>
      <trkpt lat="43.98681" lon="2.29914">
        <ele>440</ele>
        <time>2021-04-18T09:56:12Z</time>
      </trkpt>
      <trkpt lat="43.98682" lon="2.29914">
        <ele>440</ele>
        <time>2021-04-18T09:56:13Z</time>
      </trkpt>
      <trkpt lat="43.98682" lon="2.29914">
        <ele>439</ele>
        <time>2021-04-18T09:56:14Z</time>
      </trkpt>
      <trkpt lat="43.98682" lon="2.29914">
        <ele>439</ele>
        <time>2021-04-18T09:56:15Z</time>
      </trkpt>
      <trkpt lat="43.98683" lon="2.29915">
        <ele>439</ele>
        <time>2021-04-18T09:56:16Z</time>
      </trkpt>
      <trkpt lat="43.98684" lon="2.29915">
        <ele>439</ele>
        <time>2021-04-18T09:56:17Z</time>
      </trkpt>
      <trkpt lat="43.98685" lon="2.29916">
        <ele>439</ele>
        <time>2021-04-18T09:56:18Z</time>
      </trkpt>
      <trkpt lat="43.98686" lon="2.29916">
        <ele>439</ele>
        <time>2021-04-18T09:56:19Z</time>
      </trkpt>
      <trkpt lat="43.98687" lon="2.29917">
        <ele>439</ele>
        <time>2021-04-18T09:56:20Z</time>
      </trkpt>
      <trkpt lat="43.98689" lon="2.29917">
        <ele>439</ele>
        <time>2021-04-18T09:56:21Z</time>
      </trkpt>
      <trkpt lat="43.9869" lon="2.29918">
        <ele>439</ele>
        <time>2021-04-18T09:56:22Z</time>
      </trkpt>
      <trkpt lat="43.98691" lon="2.29919">
        <ele>438</ele>
        <time>2021-04-18T09:56:23Z</time>
      </trkpt>
      <trkpt lat="43.98693" lon="2.2992">
        <ele>439</ele>
        <time>2021-04-18T09:56:24Z</time>
      </trkpt>
      <trkpt lat="43.98694" lon="2.2992">
        <ele>438</ele>
        <time>2021-04-18T09:56:25Z</time>
      </trkpt>
      <trkpt lat="43.98695" lon="2.2992">
        <ele>438</ele>
        <time>2021-04-18T09:56:26Z</time>
      </trkpt>
      <trkpt lat="43.98697" lon="2.29921">
        <ele>439</ele>
        <time>2021-04-18T09:56:27Z</time>
      </trkpt>
      <trkpt lat="43.98699" lon="2.29921">
        <ele>438</ele>
        <time>2021-04-18T09:56:28Z</time>
      </trkpt>
      <trkpt lat="43.987" lon="2.29922">
        <ele>438</ele>
        <time>2021-04-18T09:56:29Z</time>
      </trkpt>
      <trkpt lat="43.98701" lon="2.29922">
        <ele>438</ele>
        <time>2021-04-18T09:56:30Z</time>
      </trkpt>
      <trkpt lat="43.98702" lon="2.29923">
        <ele>438</ele>
        <time>2021-04-18T09:56:31Z</time>
      </trkpt>
      <trkpt lat="43.98704" lon="2.29923">
        <ele>438</ele>
        <time>2021-04-18T09:56:32Z</time>
      </trkpt>
      <trkpt lat="43.98705" lon="2.29923">
        <ele>438</ele>
        <time>2021-04-18T09:56:33Z</time>
      </trkpt>
      <trkpt lat="43.98707" lon="2.29923">
        <ele>438</ele>
        <time>2021-04-18T09:56:34Z</time>
      </trkpt>
      <trkpt lat="43.98708" lon="2.29924">
        <ele>438</ele>
        <time>2021-04-18T09:56:35Z</time>
      </trkpt>
      <trkpt lat="43.9871" lon="2.29925">
        <ele>438</ele>
        <time>2021-04-18T09:56:36Z</time>
      </trkpt>
      <trkpt lat="43.98711" lon="2.29926">
        <ele>438</ele>
        <time>2021-04-18T09:56:37Z</time>
      </trkpt>
      <trkpt lat="43.98712" lon="2.29927">
        <ele>437</ele>
        <time>2021-04-18T09:56:38Z</time>
      </trkpt>
      <trkpt lat="43.98714" lon="2.29928">
        <ele>437</ele>
        <time>2021-04-18T09:56:39Z</time>
      </trkpt>
      <trkpt lat="43.98715" lon="2.29929">
        <ele>437</ele>
        <time>2021-04-18T09:56:40Z</time>
      </trkpt>
      <trkpt lat="43.98716" lon="2.29929">
        <ele>437</ele>
        <time>2021-04-18T09:56:41Z</time>
      </trkpt>
      <trkpt lat="43.98718" lon="2.29929">
        <ele>436</ele>
        <time>2021-04-18T09:56:42Z</time>
      </trkpt>
      <trkpt lat="43.98719" lon="2.2993">
        <ele>436</ele>
        <time>2021-04-18T09:56:43Z</time>
      </trkpt>
      <trkpt lat="43.9872" lon="2.29931">
        <ele>436</ele>
        <time>2021-04-18T09:56:44Z</time>
      </trkpt>
      <trkpt lat="43.98721" lon="2.29932">
        <ele>436</ele>
        <time>2021-04-18T09:56:45Z</time>
      </trkpt>
      <trkpt lat="43.98723" lon="2.29933">
        <ele>437</ele>
        <time>2021-04-18T09:56:46Z</time>
      </trkpt>
      <trkpt lat="43.98723" lon="2.29933">
        <ele>437</ele>
        <time>2021-04-18T09:56:47Z</time>
      </trkpt>
      <trkpt lat="43.98723" lon="2.29933">
        <ele>437</ele>
        <time>2021-04-18T09:56:48Z</time>
      </trkpt>
      <trkpt lat="43.98723" lon="2.29933">
        <ele>437</ele>
        <time>2021-04-18T09:56:49Z</time>
      </trkpt>
      <trkpt lat="43.98723" lon="2.29933">
        <ele>437</ele>
        <time>2021-04-18T09:56:50Z</time>
      </trkpt>
      <trkpt lat="43.98723" lon="2.29933">
        <ele>437</ele>
        <time>2021-04-18T09:56:50Z</time>
      </trkpt>
      <trkpt lat="43.98723" lon="2.29933">
        <ele>437</ele>
        <time>2021-04-18T09:56:50Z</time>
      </trkpt>
      <trkpt lat="43.98729" lon="2.29933">
        <ele>436</ele>
        <time>2021-04-18T09:56:58Z</time>
      </trkpt>
      <trkpt lat="43.9873" lon="2.29934">
        <ele>436</ele>
        <time>2021-04-18T09:56:59Z</time>
      </trkpt>
      <trkpt lat="43.98731" lon="2.29934">
        <ele>435</ele>
        <time>2021-04-18T09:57:00Z</time>
      </trkpt>
      <trkpt lat="43.98732" lon="2.29935">
        <ele>435</ele>
        <time>2021-04-18T09:57:01Z</time>
      </trkpt>
      <trkpt lat="43.98733" lon="2.29936">
        <ele>435</ele>
        <time>2021-04-18T09:57:02Z</time>
      </trkpt>
      <trkpt lat="43.98735" lon="2.29937">
        <ele>435</ele>
        <time>2021-04-18T09:57:03Z</time>
      </trkpt>
      <trkpt lat="43.98736" lon="2.29937">
        <ele>434</ele>
        <time>2021-04-18T09:57:04Z</time>
      </trkpt>
      <trkpt lat="43.98737" lon="2.29938">
        <ele>434</ele>
        <time>2021-04-18T09:57:05Z</time>
      </trkpt>
      <trkpt lat="43.98739" lon="2.29939">
        <ele>434</ele>
        <time>2021-04-18T09:57:06Z</time>
      </trkpt>
      <trkpt lat="43.9874" lon="2.2994">
        <ele>434</ele>
        <time>2021-04-18T09:57:07Z</time>
      </trkpt>
      <trkpt lat="43.98741" lon="2.2994">
        <ele>434</ele>
        <time>2021-04-18T09:57:08Z</time>
      </trkpt>
      <trkpt lat="43.98743" lon="2.29941">
        <ele>434</ele>
        <time>2021-04-18T09:57:09Z</time>
      </trkpt>
      <trkpt lat="43.98744" lon="2.29941">
        <ele>434</ele>
        <time>2021-04-18T09:57:10Z</time>
      </trkpt>
      <trkpt lat="43.98746" lon="2.29942">
        <ele>434</ele>
        <time>2021-04-18T09:57:11Z</time>
      </trkpt>
      <trkpt lat="43.98747" lon="2.29943">
        <ele>434</ele>
        <time>2021-04-18T09:57:12Z</time>
      </trkpt>
      <trkpt lat="43.98749" lon="2.29943">
        <ele>434</ele>
        <time>2021-04-18T09:57:13Z</time>
      </trkpt>
      <trkpt lat="43.9875" lon="2.29944">
        <ele>434</ele>
        <time>2021-04-18T09:57:14Z</time>
      </trkpt>
      <trkpt lat="43.98751" lon="2.29945">
        <ele>434</ele>
        <time>2021-04-18T09:57:15Z</time>
      </trkpt>
      <trkpt lat="43.98753" lon="2.29945">
        <ele>434</ele>
        <time>2021-04-18T09:57:16Z</time>
      </trkpt>
      <trkpt lat="43.98755" lon="2.29946">
        <ele>435</ele>
        <time>2021-04-18T09:57:17Z</time>
      </trkpt>
      <trkpt lat="43.98756" lon="2.29947">
        <ele>435</ele>
        <time>2021-04-18T09:57:18Z</time>
      </trkpt>
      <trkpt lat="43.98758" lon="2.29947">
        <ele>436</ele>
        <time>2021-04-18T09:57:19Z</time>
      </trkpt>
      <trkpt lat="43.9876" lon="2.29948">
        <ele>436</ele>
        <time>2021-04-18T09:57:20Z</time>
      </trkpt>
      <trkpt lat="43.98761" lon="2.29948">
        <ele>436</ele>
        <time>2021-04-18T09:57:21Z</time>
      </trkpt>
      <trkpt lat="43.98762" lon="2.29949">
        <ele>436</ele>
        <time>2021-04-18T09:57:22Z</time>
      </trkpt>
      <trkpt lat="43.98764" lon="2.29949">
        <ele>437</ele>
        <time>2021-04-18T09:57:23Z</time>
      </trkpt>
      <trkpt lat="43.98765" lon="2.2995">
        <ele>437</ele>
        <time>2021-04-18T09:57:24Z</time>
      </trkpt>
      <trkpt lat="43.98766" lon="2.29951">
        <ele>437</ele>
        <time>2021-04-18T09:57:25Z</time>
      </trkpt>
      <trkpt lat="43.98768" lon="2.29951">
        <ele>437</ele>
        <time>2021-04-18T09:57:26Z</time>
      </trkpt>
      <trkpt lat="43.98769" lon="2.29952">
        <ele>437</ele>
        <time>2021-04-18T09:57:27Z</time>
      </trkpt>
      <trkpt lat="43.98771" lon="2.29952">
        <ele>437</ele>
        <time>2021-04-18T09:57:28Z</time>
      </trkpt>
      <trkpt lat="43.98772" lon="2.29953">
        <ele>437</ele>
        <time>2021-04-18T09:57:29Z</time>
      </trkpt>
      <trkpt lat="43.98774" lon="2.29953">
        <ele>437</ele>
        <time>2021-04-18T09:57:30Z</time>
      </trkpt>
      <trkpt lat="43.98776" lon="2.29954">
        <ele>437</ele>
        <time>2021-04-18T09:57:31Z</time>
      </trkpt>
      <trkpt lat="43.98777" lon="2.29955">
        <ele>436</ele>
        <time>2021-04-18T09:57:32Z</time>
      </trkpt>
      <trkpt lat="43.98778" lon="2.29956">
        <ele>436</ele>
        <time>2021-04-18T09:57:33Z</time>
      </trkpt>
      <trkpt lat="43.98779" lon="2.29958">
        <ele>437</ele>
        <time>2021-04-18T09:57:34Z</time>
      </trkpt>
      <trkpt lat="43.98781" lon="2.29959">
        <ele>437</ele>
        <time>2021-04-18T09:57:35Z</time>
      </trkpt>
      <trkpt lat="43.98782" lon="2.2996">
        <ele>436</ele>
        <time>2021-04-18T09:57:36Z</time>
      </trkpt>
      <trkpt lat="43.98784" lon="2.2996">
        <ele>437</ele>
        <time>2021-04-18T09:57:37Z</time>
      </trkpt>
      <trkpt lat="43.98785" lon="2.29961">
        <ele>437</ele>
        <time>2021-04-18T09:57:38Z</time>
      </trkpt>
      <trkpt lat="43.98786" lon="2.29961">
        <ele>437</ele>
        <time>2021-04-18T09:57:39Z</time>
      </trkpt>
      <trkpt lat="43.98787" lon="2.29962">
        <ele>437</ele>
        <time>2021-04-18T09:57:40Z</time>
      </trkpt>
      <trkpt lat="43.98789" lon="2.29962">
        <ele>438</ele>
        <time>2021-04-18T09:57:41Z</time>
      </trkpt>
      <trkpt lat="43.9879" lon="2.29962">
        <ele>438</ele>
        <time>2021-04-18T09:57:42Z</time>
      </trkpt>
      <trkpt lat="43.98792" lon="2.29963">
        <ele>438</ele>
        <time>2021-04-18T09:57:43Z</time>
      </trkpt>
      <trkpt lat="43.98793" lon="2.29963">
        <ele>438</ele>
        <time>2021-04-18T09:57:44Z</time>
      </trkpt>
      <trkpt lat="43.98795" lon="2.29965">
        <ele>439</ele>
        <time>2021-04-18T09:57:45Z</time>
      </trkpt>
      <trkpt lat="43.98797" lon="2.29966">
        <ele>439</ele>
        <time>2021-04-18T09:57:46Z</time>
      </trkpt>
      <trkpt lat="43.98798" lon="2.29966">
        <ele>440</ele>
        <time>2021-04-18T09:57:47Z</time>
      </trkpt>
      <trkpt lat="43.988" lon="2.29967">
        <ele>440</ele>
        <time>2021-04-18T09:57:48Z</time>
      </trkpt>
      <trkpt lat="43.98801" lon="2.29968">
        <ele>440</ele>
        <time>2021-04-18T09:57:49Z</time>
      </trkpt>
      <trkpt lat="43.98803" lon="2.29969">
        <ele>440</ele>
        <time>2021-04-18T09:57:50Z</time>
      </trkpt>
      <trkpt lat="43.98804" lon="2.2997">
        <ele>440</ele>
        <time>2021-04-18T09:57:51Z</time>
      </trkpt>
      <trkpt lat="43.98806" lon="2.29971">
        <ele>441</ele>
        <time>2021-04-18T09:57:52Z</time>
      </trkpt>
      <trkpt lat="43.98807" lon="2.29971">
        <ele>441</ele>
        <time>2021-04-18T09:57:53Z</time>
      </trkpt>
      <trkpt lat="43.98809" lon="2.29972">
        <ele>441</ele>
        <time>2021-04-18T09:57:54Z</time>
      </trkpt>
      <trkpt lat="43.9881" lon="2.29972">
        <ele>441</ele>
        <time>2021-04-18T09:57:55Z</time>
      </trkpt>
      <trkpt lat="43.98811" lon="2.29972">
        <ele>441</ele>
        <time>2021-04-18T09:57:56Z</time>
      </trkpt>
      <trkpt lat="43.98813" lon="2.29973">
        <ele>441</ele>
        <time>2021-04-18T09:57:57Z</time>
      </trkpt>
      <trkpt lat="43.98814" lon="2.29973">
        <ele>441</ele>
        <time>2021-04-18T09:57:58Z</time>
      </trkpt>
      <trkpt lat="43.98816" lon="2.29974">
        <ele>441</ele>
        <time>2021-04-18T09:57:59Z</time>
      </trkpt>
      <trkpt lat="43.98817" lon="2.29974">
        <ele>441</ele>
        <time>2021-04-18T09:58:00Z</time>
      </trkpt>
      <trkpt lat="43.98818" lon="2.29975">
        <ele>441</ele>
        <time>2021-04-18T09:58:01Z</time>
      </trkpt>
      <trkpt lat="43.9882" lon="2.29976">
        <ele>441</ele>
        <time>2021-04-18T09:58:02Z</time>
      </trkpt>
      <trkpt lat="43.98821" lon="2.29976">
        <ele>441</ele>
        <time>2021-04-18T09:58:03Z</time>
      </trkpt>
      <trkpt lat="43.98823" lon="2.29977">
        <ele>441</ele>
        <time>2021-04-18T09:58:04Z</time>
      </trkpt>
      <trkpt lat="43.98825" lon="2.29978">
        <ele>441</ele>
        <time>2021-04-18T09:58:05Z</time>
      </trkpt>
      <trkpt lat="43.98827" lon="2.29979">
        <ele>441</ele>
        <time>2021-04-18T09:58:06Z</time>
      </trkpt>
      <trkpt lat="43.98828" lon="2.2998">
        <ele>441</ele>
        <time>2021-04-18T09:58:07Z</time>
      </trkpt>
      <trkpt lat="43.98829" lon="2.29981">
        <ele>441</ele>
        <time>2021-04-18T09:58:08Z</time>
      </trkpt>
      <trkpt lat="43.98831" lon="2.29982">
        <ele>441</ele>
        <time>2021-04-18T09:58:09Z</time>
      </trkpt>
      <trkpt lat="43.98833" lon="2.29982">
        <ele>442</ele>
        <time>2021-04-18T09:58:10Z</time>
      </trkpt>
      <trkpt lat="43.98835" lon="2.29983">
        <ele>441</ele>
        <time>2021-04-18T09:58:11Z</time>
      </trkpt>
      <trkpt lat="43.98836" lon="2.29984">
        <ele>441</ele>
        <time>2021-04-18T09:58:12Z</time>
      </trkpt>
      <trkpt lat="43.98838" lon="2.29984">
        <ele>441</ele>
        <time>2021-04-18T09:58:13Z</time>
      </trkpt>
      <trkpt lat="43.9884" lon="2.29985">
        <ele>441</ele>
        <time>2021-04-18T09:58:14Z</time>
      </trkpt>
      <trkpt lat="43.98842" lon="2.29985">
        <ele>441</ele>
        <time>2021-04-18T09:58:15Z</time>
      </trkpt>
      <trkpt lat="43.98844" lon="2.29986">
        <ele>441</ele>
        <time>2021-04-18T09:58:16Z</time>
      </trkpt>
      <trkpt lat="43.98846" lon="2.29987">
        <ele>442</ele>
        <time>2021-04-18T09:58:17Z</time>
      </trkpt>
      <trkpt lat="43.98848" lon="2.29988">
        <ele>442</ele>
        <time>2021-04-18T09:58:18Z</time>
      </trkpt>
      <trkpt lat="43.98849" lon="2.29989">
        <ele>442</ele>
        <time>2021-04-18T09:58:19Z</time>
      </trkpt>
      <trkpt lat="43.98851" lon="2.29989">
        <ele>441</ele>
        <time>2021-04-18T09:58:20Z</time>
      </trkpt>
      <trkpt lat="43.98852" lon="2.29989">
        <ele>441</ele>
        <time>2021-04-18T09:58:21Z</time>
      </trkpt>
      <trkpt lat="43.98853" lon="2.2999">
        <ele>441</ele>
        <time>2021-04-18T09:58:22Z</time>
      </trkpt>
      <trkpt lat="43.98855" lon="2.2999">
        <ele>441</ele>
        <time>2021-04-18T09:58:23Z</time>
      </trkpt>
      <trkpt lat="43.98857" lon="2.29991">
        <ele>441</ele>
        <time>2021-04-18T09:58:24Z</time>
      </trkpt>
      <trkpt lat="43.98858" lon="2.29992">
        <ele>441</ele>
        <time>2021-04-18T09:58:25Z</time>
      </trkpt>
      <trkpt lat="43.98859" lon="2.29992">
        <ele>441</ele>
        <time>2021-04-18T09:58:26Z</time>
      </trkpt>
      <trkpt lat="43.98861" lon="2.29993">
        <ele>442</ele>
        <time>2021-04-18T09:58:27Z</time>
      </trkpt>
      <trkpt lat="43.98863" lon="2.29994">
        <ele>442</ele>
        <time>2021-04-18T09:58:28Z</time>
      </trkpt>
      <trkpt lat="43.98864" lon="2.29994">
        <ele>442</ele>
        <time>2021-04-18T09:58:29Z</time>
      </trkpt>
      <trkpt lat="43.98866" lon="2.29994">
        <ele>442</ele>
        <time>2021-04-18T09:58:30Z</time>
      </trkpt>
      <trkpt lat="43.98867" lon="2.29994">
        <ele>441</ele>
        <time>2021-04-18T09:58:31Z</time>
      </trkpt>
      <trkpt lat="43.98869" lon="2.29995">
        <ele>442</ele>
        <time>2021-04-18T09:58:32Z</time>
      </trkpt>
      <trkpt lat="43.98871" lon="2.29995">
        <ele>441</ele>
        <time>2021-04-18T09:58:33Z</time>
      </trkpt>
      <trkpt lat="43.98873" lon="2.29996">
        <ele>441</ele>
        <time>2021-04-18T09:58:34Z</time>
      </trkpt>
      <trkpt lat="43.98874" lon="2.29997">
        <ele>441</ele>
        <time>2021-04-18T09:58:35Z</time>
      </trkpt>
      <trkpt lat="43.98875" lon="2.29997">
        <ele>441</ele>
        <time>2021-04-18T09:58:36Z</time>
      </trkpt>
      <trkpt lat="43.98877" lon="2.29998">
        <ele>440</ele>
        <time>2021-04-18T09:58:37Z</time>
      </trkpt>
      <trkpt lat="43.98878" lon="2.29999">
        <ele>440</ele>
        <time>2021-04-18T09:58:38Z</time>
      </trkpt>
      <trkpt lat="43.9888" lon="2.3">
        <ele>441</ele>
        <time>2021-04-18T09:58:39Z</time>
      </trkpt>
      <trkpt lat="43.98882" lon="2.30001">
        <ele>441</ele>
        <time>2021-04-18T09:58:40Z</time>
      </trkpt>
      <trkpt lat="43.98883" lon="2.30002">
        <ele>441</ele>
        <time>2021-04-18T09:58:41Z</time>
      </trkpt>
      <trkpt lat="43.98885" lon="2.30002">
        <ele>441</ele>
        <time>2021-04-18T09:58:42Z</time>
      </trkpt>
      <trkpt lat="43.98886" lon="2.30003">
        <ele>441</ele>
        <time>2021-04-18T09:58:43Z</time>
      </trkpt>
      <trkpt lat="43.98887" lon="2.30003">
        <ele>441</ele>
        <time>2021-04-18T09:58:44Z</time>
      </trkpt>
      <trkpt lat="43.98888" lon="2.30004">
        <ele>441</ele>
        <time>2021-04-18T09:58:45Z</time>
      </trkpt>
      <trkpt lat="43.9889" lon="2.30005">
        <ele>441</ele>
        <time>2021-04-18T09:58:46Z</time>
      </trkpt>
      <trkpt lat="43.98891" lon="2.30005">
        <ele>441</ele>
        <time>2021-04-18T09:58:47Z</time>
      </trkpt>
      <trkpt lat="43.98893" lon="2.30006">
        <ele>441</ele>
        <time>2021-04-18T09:58:48Z</time>
      </trkpt>
      <trkpt lat="43.98895" lon="2.30006">
        <ele>441</ele>
        <time>2021-04-18T09:58:49Z</time>
      </trkpt>
      <trkpt lat="43.98896" lon="2.30007">
        <ele>441</ele>
        <time>2021-04-18T09:58:50Z</time>
      </trkpt>
      <trkpt lat="43.98898" lon="2.30007">
        <ele>441</ele>
        <time>2021-04-18T09:58:51Z</time>
      </trkpt>
      <trkpt lat="43.989" lon="2.30007">
        <ele>441</ele>
        <time>2021-04-18T09:58:52Z</time>
      </trkpt>
      <trkpt lat="43.98902" lon="2.30008">
        <ele>441</ele>
        <time>2021-04-18T09:58:53Z</time>
      </trkpt>
      <trkpt lat="43.98903" lon="2.30009">
        <ele>441</ele>
        <time>2021-04-18T09:58:54Z</time>
      </trkpt>
      <trkpt lat="43.98904" lon="2.30009">
        <ele>442</ele>
        <time>2021-04-18T09:58:55Z</time>
      </trkpt>
      <trkpt lat="43.98905" lon="2.3001">
        <ele>442</ele>
        <time>2021-04-18T09:58:56Z</time>
      </trkpt>
      <trkpt lat="43.98907" lon="2.3001">
        <ele>442</ele>
        <time>2021-04-18T09:58:57Z</time>
      </trkpt>
      <trkpt lat="43.98908" lon="2.30011">
        <ele>442</ele>
        <time>2021-04-18T09:58:58Z</time>
      </trkpt>
      <trkpt lat="43.98909" lon="2.30011">
        <ele>442</ele>
        <time>2021-04-18T09:58:59Z</time>
      </trkpt>
      <trkpt lat="43.98911" lon="2.30012">
        <ele>442</ele>
        <time>2021-04-18T09:59:00Z</time>
      </trkpt>
      <trkpt lat="43.98912" lon="2.30013">
        <ele>441</ele>
        <time>2021-04-18T09:59:01Z</time>
      </trkpt>
      <trkpt lat="43.98914" lon="2.30014">
        <ele>441</ele>
        <time>2021-04-18T09:59:02Z</time>
      </trkpt>
      <trkpt lat="43.98915" lon="2.30015">
        <ele>441</ele>
        <time>2021-04-18T09:59:03Z</time>
      </trkpt>
      <trkpt lat="43.98917" lon="2.30016">
        <ele>440</ele>
        <time>2021-04-18T09:59:04Z</time>
      </trkpt>
      <trkpt lat="43.98919" lon="2.30017">
        <ele>440</ele>
        <time>2021-04-18T09:59:05Z</time>
      </trkpt>
      <trkpt lat="43.9892" lon="2.30018">
        <ele>440</ele>
        <time>2021-04-18T09:59:06Z</time>
      </trkpt>
      <trkpt lat="43.98922" lon="2.30018">
        <ele>440</ele>
        <time>2021-04-18T09:59:07Z</time>
      </trkpt>
      <trkpt lat="43.98923" lon="2.30019">
        <ele>440</ele>
        <time>2021-04-18T09:59:08Z</time>
      </trkpt>
      <trkpt lat="43.98925" lon="2.30019">
        <ele>439</ele>
        <time>2021-04-18T09:59:09Z</time>
      </trkpt>
      <trkpt lat="43.98927" lon="2.30019">
        <ele>439</ele>
        <time>2021-04-18T09:59:10Z</time>
      </trkpt>
      <trkpt lat="43.98928" lon="2.3002">
        <ele>439</ele>
        <time>2021-04-18T09:59:11Z</time>
      </trkpt>
      <trkpt lat="43.98929" lon="2.3002">
        <ele>439</ele>
        <time>2021-04-18T09:59:12Z</time>
      </trkpt>
      <trkpt lat="43.98931" lon="2.30021">
        <ele>440</ele>
        <time>2021-04-18T09:59:13Z</time>
      </trkpt>
      <trkpt lat="43.98933" lon="2.30022">
        <ele>440</ele>
        <time>2021-04-18T09:59:14Z</time>
      </trkpt>
      <trkpt lat="43.98934" lon="2.30022">
        <ele>440</ele>
        <time>2021-04-18T09:59:15Z</time>
      </trkpt>
      <trkpt lat="43.98936" lon="2.30022">
        <ele>440</ele>
        <time>2021-04-18T09:59:16Z</time>
      </trkpt>
      <trkpt lat="43.98937" lon="2.30023">
        <ele>440</ele>
        <time>2021-04-18T09:59:17Z</time>
      </trkpt>
      <trkpt lat="43.98939" lon="2.30023">
        <ele>440</ele>
        <time>2021-04-18T09:59:18Z</time>
      </trkpt>
      <trkpt lat="43.98941" lon="2.30024">
        <ele>440</ele>
        <time>2021-04-18T09:59:19Z</time>
      </trkpt>
      <trkpt lat="43.98942" lon="2.30024">
        <ele>440</ele>
        <time>2021-04-18T09:59:20Z</time>
      </trkpt>
      <trkpt lat="43.98944" lon="2.30025">
        <ele>441</ele>
        <time>2021-04-18T09:59:21Z</time>
      </trkpt>
      <trkpt lat="43.98945" lon="2.30025">
        <ele>440</ele>
        <time>2021-04-18T09:59:22Z</time>
      </trkpt>
      <trkpt lat="43.98947" lon="2.30026">
        <ele>441</ele>
        <time>2021-04-18T09:59:23Z</time>
      </trkpt>
      <trkpt lat="43.98948" lon="2.30027">
        <ele>441</ele>
        <time>2021-04-18T09:59:24Z</time>
      </trkpt>
      <trkpt lat="43.9895" lon="2.30027">
        <ele>441</ele>
        <time>2021-04-18T09:59:25Z</time>
      </trkpt>
      <trkpt lat="43.98951" lon="2.30027">
        <ele>441</ele>
        <time>2021-04-18T09:59:26Z</time>
      </trkpt>
      <trkpt lat="43.98953" lon="2.30027">
        <ele>441</ele>
        <time>2021-04-18T09:59:27Z</time>
      </trkpt>
      <trkpt lat="43.98954" lon="2.30027">
        <ele>441</ele>
        <time>2021-04-18T09:59:28Z</time>
      </trkpt>
      <trkpt lat="43.98956" lon="2.30027">
        <ele>441</ele>
        <time>2021-04-18T09:59:29Z</time>
      </trkpt>
      <trkpt lat="43.98957" lon="2.30028">
        <ele>441</ele>
        <time>2021-04-18T09:59:30Z</time>
      </trkpt>
      <trkpt lat="43.98958" lon="2.30028">
        <ele>441</ele>
        <time>2021-04-18T09:59:31Z</time>
      </trkpt>
      <trkpt lat="43.98959" lon="2.30028">
        <ele>441</ele>
        <time>2021-04-18T09:59:32Z</time>
      </trkpt>
      <trkpt lat="43.98961" lon="2.30028">
        <ele>441</ele>
        <time>2021-04-18T09:59:33Z</time>
      </trkpt>
      <trkpt lat="43.98963" lon="2.30028">
        <ele>441</ele>
        <time>2021-04-18T09:59:34Z</time>
      </trkpt>
      <trkpt lat="43.98964" lon="2.30029">
        <ele>442</ele>
        <time>2021-04-18T09:59:35Z</time>
      </trkpt>
      <trkpt lat="43.98966" lon="2.30029">
        <ele>442</ele>
        <time>2021-04-18T09:59:36Z</time>
      </trkpt>
      <trkpt lat="43.98967" lon="2.3003">
        <ele>442</ele>
        <time>2021-04-18T09:59:37Z</time>
      </trkpt>
      <trkpt lat="43.98969" lon="2.3003">
        <ele>442</ele>
        <time>2021-04-18T09:59:38Z</time>
      </trkpt>
      <trkpt lat="43.9897" lon="2.3003">
        <ele>442</ele>
        <time>2021-04-18T09:59:39Z</time>
      </trkpt>
      <trkpt lat="43.98972" lon="2.3003">
        <ele>442</ele>
        <time>2021-04-18T09:59:40Z</time>
      </trkpt>
      <trkpt lat="43.98973" lon="2.30031">
        <ele>442</ele>
        <time>2021-04-18T09:59:41Z</time>
      </trkpt>
      <trkpt lat="43.98974" lon="2.30032">
        <ele>442</ele>
        <time>2021-04-18T09:59:42Z</time>
      </trkpt>
      <trkpt lat="43.98976" lon="2.30033">
        <ele>443</ele>
        <time>2021-04-18T09:59:43Z</time>
      </trkpt>
      <trkpt lat="43.98977" lon="2.30035">
        <ele>442</ele>
        <time>2021-04-18T09:59:44Z</time>
      </trkpt>
      <trkpt lat="43.98978" lon="2.30037">
        <ele>442</ele>
        <time>2021-04-18T09:59:45Z</time>
      </trkpt>
      <trkpt lat="43.98978" lon="2.30039">
        <ele>442</ele>
        <time>2021-04-18T09:59:46Z</time>
      </trkpt>
      <trkpt lat="43.98979" lon="2.30041">
        <ele>442</ele>
        <time>2021-04-18T09:59:47Z</time>
      </trkpt>
      <trkpt lat="43.98978" lon="2.30043">
        <ele>442</ele>
        <time>2021-04-18T09:59:48Z</time>
      </trkpt>
      <trkpt lat="43.98978" lon="2.30044">
        <ele>442</ele>
        <time>2021-04-18T09:59:49Z</time>
      </trkpt>
      <trkpt lat="43.98978" lon="2.30046">
        <ele>442</ele>
        <time>2021-04-18T09:59:50Z</time>
      </trkpt>
      <trkpt lat="43.98978" lon="2.30047">
        <ele>443</ele>
        <time>2021-04-18T09:59:51Z</time>
      </trkpt>
      <trkpt lat="43.98977" lon="2.30049">
        <ele>443</ele>
        <time>2021-04-18T09:59:52Z</time>
      </trkpt>
      <trkpt lat="43.98976" lon="2.30051">
        <ele>443</ele>
        <time>2021-04-18T09:59:53Z</time>
      </trkpt>
      <trkpt lat="43.98975" lon="2.30052">
        <ele>443</ele>
        <time>2021-04-18T09:59:54Z</time>
      </trkpt>
      <trkpt lat="43.98974" lon="2.30054">
        <ele>443</ele>
        <time>2021-04-18T09:59:55Z</time>
      </trkpt>
      <trkpt lat="43.98974" lon="2.30056">
        <ele>443</ele>
        <time>2021-04-18T09:59:56Z</time>
      </trkpt>
      <trkpt lat="43.98974" lon="2.30058">
        <ele>443</ele>
        <time>2021-04-18T09:59:57Z</time>
      </trkpt>
      <trkpt lat="43.98973" lon="2.30059">
        <ele>443</ele>
        <time>2021-04-18T09:59:58Z</time>
      </trkpt>
      <trkpt lat="43.98972" lon="2.3006">
        <ele>444</ele>
        <time>2021-04-18T09:59:59Z</time>
      </trkpt>
      <trkpt lat="43.98971" lon="2.30061">
        <ele>443</ele>
        <time>2021-04-18T10:00:00Z</time>
      </trkpt>
      <trkpt lat="43.9897" lon="2.30063">
        <ele>443</ele>
        <time>2021-04-18T10:00:01Z</time>
      </trkpt>
      <trkpt lat="43.98969" lon="2.30063">
        <ele>443</ele>
        <time>2021-04-18T10:00:02Z</time>
      </trkpt>
      <trkpt lat="43.98968" lon="2.30064">
        <ele>443</ele>
        <time>2021-04-18T10:00:03Z</time>
      </trkpt>
      <trkpt lat="43.98966" lon="2.30064">
        <ele>443</ele>
        <time>2021-04-18T10:00:04Z</time>
      </trkpt>
      <trkpt lat="43.98965" lon="2.30065">
        <ele>443</ele>
        <time>2021-04-18T10:00:05Z</time>
      </trkpt>
      <trkpt lat="43.98964" lon="2.30066">
        <ele>443</ele>
        <time>2021-04-18T10:00:06Z</time>
      </trkpt>
      <trkpt lat="43.98962" lon="2.30067">
        <ele>443</ele>
        <time>2021-04-18T10:00:07Z</time>
      </trkpt>
      <trkpt lat="43.98961" lon="2.30069">
        <ele>442</ele>
        <time>2021-04-18T10:00:08Z</time>
      </trkpt>
      <trkpt lat="43.98959" lon="2.3007">
        <ele>442</ele>
        <time>2021-04-18T10:00:09Z</time>
      </trkpt>
      <trkpt lat="43.98958" lon="2.30071">
        <ele>443</ele>
        <time>2021-04-18T10:00:10Z</time>
      </trkpt>
      <trkpt lat="43.98957" lon="2.30073">
        <ele>443</ele>
        <time>2021-04-18T10:00:11Z</time>
      </trkpt>
      <trkpt lat="43.98956" lon="2.30074">
        <ele>442</ele>
        <time>2021-04-18T10:00:12Z</time>
      </trkpt>
      <trkpt lat="43.98956" lon="2.30076">
        <ele>442</ele>
        <time>2021-04-18T10:00:13Z</time>
      </trkpt>
      <trkpt lat="43.98954" lon="2.30079">
        <ele>442</ele>
        <time>2021-04-18T10:00:14Z</time>
      </trkpt>
      <trkpt lat="43.98953" lon="2.30081">
        <ele>442</ele>
        <time>2021-04-18T10:00:15Z</time>
      </trkpt>
      <trkpt lat="43.98952" lon="2.30084">
        <ele>442</ele>
        <time>2021-04-18T10:00:16Z</time>
      </trkpt>
      <trkpt lat="43.98951" lon="2.30086">
        <ele>441</ele>
        <time>2021-04-18T10:00:17Z</time>
      </trkpt>
      <trkpt lat="43.9895" lon="2.30087">
        <ele>442</ele>
        <time>2021-04-18T10:00:18Z</time>
      </trkpt>
      <trkpt lat="43.98949" lon="2.30089">
        <ele>441</ele>
        <time>2021-04-18T10:00:19Z</time>
      </trkpt>
      <trkpt lat="43.98947" lon="2.30091">
        <ele>441</ele>
        <time>2021-04-18T10:00:20Z</time>
      </trkpt>
      <trkpt lat="43.98946" lon="2.30093">
        <ele>441</ele>
        <time>2021-04-18T10:00:21Z</time>
      </trkpt>
      <trkpt lat="43.98945" lon="2.30094">
        <ele>441</ele>
        <time>2021-04-18T10:00:22Z</time>
      </trkpt>
      <trkpt lat="43.98944" lon="2.30096">
        <ele>441</ele>
        <time>2021-04-18T10:00:23Z</time>
      </trkpt>
      <trkpt lat="43.98943" lon="2.30098">
        <ele>441</ele>
        <time>2021-04-18T10:00:24Z</time>
      </trkpt>
      <trkpt lat="43.98942" lon="2.30099">
        <ele>440</ele>
        <time>2021-04-18T10:00:25Z</time>
      </trkpt>
      <trkpt lat="43.98941" lon="2.30101">
        <ele>440</ele>
        <time>2021-04-18T10:00:26Z</time>
      </trkpt>
      <trkpt lat="43.9894" lon="2.30103">
        <ele>440</ele>
        <time>2021-04-18T10:00:27Z</time>
      </trkpt>
      <trkpt lat="43.9894" lon="2.30105">
        <ele>441</ele>
        <time>2021-04-18T10:00:28Z</time>
      </trkpt>
      <trkpt lat="43.98938" lon="2.30106">
        <ele>441</ele>
        <time>2021-04-18T10:00:29Z</time>
      </trkpt>
      <trkpt lat="43.98938" lon="2.30108">
        <ele>441</ele>
        <time>2021-04-18T10:00:30Z</time>
      </trkpt>
      <trkpt lat="43.98937" lon="2.30109">
        <ele>440</ele>
        <time>2021-04-18T10:00:31Z</time>
      </trkpt>
      <trkpt lat="43.98936" lon="2.30111">
        <ele>440</ele>
        <time>2021-04-18T10:00:32Z</time>
      </trkpt>
      <trkpt lat="43.98935" lon="2.30112">
        <ele>440</ele>
        <time>2021-04-18T10:00:33Z</time>
      </trkpt>
      <trkpt lat="43.98933" lon="2.30115">
        <ele>441</ele>
        <time>2021-04-18T10:00:34Z</time>
      </trkpt>
      <trkpt lat="43.98932" lon="2.30116">
        <ele>441</ele>
        <time>2021-04-18T10:00:35Z</time>
      </trkpt>
      <trkpt lat="43.98931" lon="2.30118">
        <ele>441</ele>
        <time>2021-04-18T10:00:36Z</time>
      </trkpt>
      <trkpt lat="43.9893" lon="2.30119">
        <ele>440</ele>
        <time>2021-04-18T10:00:37Z</time>
      </trkpt>
      <trkpt lat="43.98929" lon="2.30122">
        <ele>440</ele>
        <time>2021-04-18T10:00:38Z</time>
      </trkpt>
      <trkpt lat="43.98928" lon="2.30124">
        <ele>440</ele>
        <time>2021-04-18T10:00:39Z</time>
      </trkpt>
      <trkpt lat="43.98927" lon="2.30125">
        <ele>440</ele>
        <time>2021-04-18T10:00:40Z</time>
      </trkpt>
      <trkpt lat="43.98927" lon="2.30127">
        <ele>440</ele>
        <time>2021-04-18T10:00:41Z</time>
      </trkpt>
      <trkpt lat="43.98926" lon="2.30128">
        <ele>440</ele>
        <time>2021-04-18T10:00:42Z</time>
      </trkpt>
      <trkpt lat="43.98925" lon="2.3013">
        <ele>440</ele>
        <time>2021-04-18T10:00:43Z</time>
      </trkpt>
      <trkpt lat="43.98924" lon="2.30131">
        <ele>440</ele>
        <time>2021-04-18T10:00:44Z</time>
      </trkpt>
      <trkpt lat="43.98924" lon="2.30133">
        <ele>441</ele>
        <time>2021-04-18T10:00:45Z</time>
      </trkpt>
      <trkpt lat="43.98923" lon="2.30135">
        <ele>440</ele>
        <time>2021-04-18T10:00:46Z</time>
      </trkpt>
      <trkpt lat="43.98922" lon="2.30137">
        <ele>440</ele>
        <time>2021-04-18T10:00:47Z</time>
      </trkpt>
      <trkpt lat="43.98921" lon="2.30138">
        <ele>441</ele>
        <time>2021-04-18T10:00:48Z</time>
      </trkpt>
      <trkpt lat="43.9892" lon="2.3014">
        <ele>440</ele>
        <time>2021-04-18T10:00:49Z</time>
      </trkpt>
      <trkpt lat="43.9892" lon="2.30142">
        <ele>440</ele>
        <time>2021-04-18T10:00:50Z</time>
      </trkpt>
      <trkpt lat="43.98919" lon="2.30144">
        <ele>440</ele>
        <time>2021-04-18T10:00:51Z</time>
      </trkpt>
      <trkpt lat="43.98918" lon="2.30146">
        <ele>441</ele>
        <time>2021-04-18T10:00:52Z</time>
      </trkpt>
      <trkpt lat="43.98917" lon="2.30147">
        <ele>441</ele>
        <time>2021-04-18T10:00:53Z</time>
      </trkpt>
      <trkpt lat="43.98917" lon="2.30149">
        <ele>441</ele>
        <time>2021-04-18T10:00:54Z</time>
      </trkpt>
      <trkpt lat="43.98916" lon="2.30151">
        <ele>441</ele>
        <time>2021-04-18T10:00:55Z</time>
      </trkpt>
      <trkpt lat="43.98916" lon="2.30153">
        <ele>440</ele>
        <time>2021-04-18T10:00:56Z</time>
      </trkpt>
      <trkpt lat="43.98915" lon="2.30155">
        <ele>440</ele>
        <time>2021-04-18T10:00:57Z</time>
      </trkpt>
      <trkpt lat="43.98914" lon="2.30157">
        <ele>440</ele>
        <time>2021-04-18T10:00:58Z</time>
      </trkpt>
      <trkpt lat="43.98914" lon="2.30159">
        <ele>440</ele>
        <time>2021-04-18T10:00:59Z</time>
      </trkpt>
      <trkpt lat="43.98912" lon="2.30161">
        <ele>440</ele>
        <time>2021-04-18T10:01:00Z</time>
      </trkpt>
      <trkpt lat="43.98911" lon="2.30162">
        <ele>440</ele>
        <time>2021-04-18T10:01:01Z</time>
      </trkpt>
      <trkpt lat="43.9891" lon="2.30164">
        <ele>439</ele>
        <time>2021-04-18T10:01:02Z</time>
      </trkpt>
      <trkpt lat="43.98909" lon="2.30165">
        <ele>439</ele>
        <time>2021-04-18T10:01:03Z</time>
      </trkpt>
      <trkpt lat="43.98908" lon="2.30167">
        <ele>439</ele>
        <time>2021-04-18T10:01:04Z</time>
      </trkpt>
      <trkpt lat="43.98907" lon="2.30168">
        <ele>439</ele>
        <time>2021-04-18T10:01:05Z</time>
      </trkpt>
      <trkpt lat="43.98906" lon="2.3017">
        <ele>439</ele>
        <time>2021-04-18T10:01:06Z</time>
      </trkpt>
      <trkpt lat="43.98904" lon="2.30171">
        <ele>439</ele>
        <time>2021-04-18T10:01:07Z</time>
      </trkpt>
      <trkpt lat="43.98904" lon="2.30172">
        <ele>439</ele>
        <time>2021-04-18T10:01:08Z</time>
      </trkpt>
      <trkpt lat="43.98903" lon="2.30174">
        <ele>439</ele>
        <time>2021-04-18T10:01:09Z</time>
      </trkpt>
      <trkpt lat="43.98903" lon="2.30176">
        <ele>439</ele>
        <time>2021-04-18T10:01:10Z</time>
      </trkpt>
      <trkpt lat="43.98901" lon="2.30178">
        <ele>439</ele>
        <time>2021-04-18T10:01:11Z</time>
      </trkpt>
      <trkpt lat="43.98901" lon="2.30179">
        <ele>439</ele>
        <time>2021-04-18T10:01:12Z</time>
      </trkpt>
      <trkpt lat="43.98899" lon="2.30181">
        <ele>438</ele>
        <time>2021-04-18T10:01:13Z</time>
      </trkpt>
      <trkpt lat="43.98898" lon="2.30183">
        <ele>438</ele>
        <time>2021-04-18T10:01:14Z</time>
      </trkpt>
      <trkpt lat="43.98898" lon="2.30184">
        <ele>438</ele>
        <time>2021-04-18T10:01:15Z</time>
      </trkpt>
      <trkpt lat="43.98896" lon="2.30185">
        <ele>438</ele>
        <time>2021-04-18T10:01:16Z</time>
      </trkpt>
      <trkpt lat="43.98896" lon="2.30187">
        <ele>438</ele>
        <time>2021-04-18T10:01:17Z</time>
      </trkpt>
      <trkpt lat="43.98895" lon="2.30189">
        <ele>438</ele>
        <time>2021-04-18T10:01:18Z</time>
      </trkpt>
      <trkpt lat="43.98894" lon="2.3019">
        <ele>438</ele>
        <time>2021-04-18T10:01:19Z</time>
      </trkpt>
      <trkpt lat="43.98893" lon="2.30192">
        <ele>438</ele>
        <time>2021-04-18T10:01:20Z</time>
      </trkpt>
      <trkpt lat="43.98892" lon="2.30194">
        <ele>437</ele>
        <time>2021-04-18T10:01:21Z</time>
      </trkpt>
      <trkpt lat="43.98891" lon="2.30196">
        <ele>437</ele>
        <time>2021-04-18T10:01:22Z</time>
      </trkpt>
      <trkpt lat="43.9889" lon="2.30198">
        <ele>437</ele>
        <time>2021-04-18T10:01:23Z</time>
      </trkpt>
      <trkpt lat="43.98888" lon="2.30199">
        <ele>437</ele>
        <time>2021-04-18T10:01:24Z</time>
      </trkpt>
      <trkpt lat="43.98888" lon="2.30201">
        <ele>437</ele>
        <time>2021-04-18T10:01:25Z</time>
      </trkpt>
      <trkpt lat="43.98887" lon="2.30203">
        <ele>437</ele>
        <time>2021-04-18T10:01:26Z</time>
      </trkpt>
      <trkpt lat="43.98886" lon="2.30204">
        <ele>438</ele>
        <time>2021-04-18T10:01:27Z</time>
      </trkpt>
      <trkpt lat="43.98885" lon="2.30205">
        <ele>438</ele>
        <time>2021-04-18T10:01:28Z</time>
      </trkpt>
      <trkpt lat="43.98884" lon="2.30207">
        <ele>438</ele>
        <time>2021-04-18T10:01:29Z</time>
      </trkpt>
      <trkpt lat="43.98883" lon="2.30208">
        <ele>438</ele>
        <time>2021-04-18T10:01:30Z</time>
      </trkpt>
      <trkpt lat="43.98882" lon="2.3021">
        <ele>438</ele>
        <time>2021-04-18T10:01:31Z</time>
      </trkpt>
      <trkpt lat="43.98881" lon="2.30211">
        <ele>438</ele>
        <time>2021-04-18T10:01:32Z</time>
      </trkpt>
      <trkpt lat="43.9888" lon="2.30212">
        <ele>438</ele>
        <time>2021-04-18T10:01:33Z</time>
      </trkpt>
      <trkpt lat="43.98879" lon="2.30214">
        <ele>438</ele>
        <time>2021-04-18T10:01:34Z</time>
      </trkpt>
      <trkpt lat="43.98878" lon="2.30215">
        <ele>438</ele>
        <time>2021-04-18T10:01:35Z</time>
      </trkpt>
      <trkpt lat="43.98877" lon="2.30216">
        <ele>438</ele>
        <time>2021-04-18T10:01:36Z</time>
      </trkpt>
      <trkpt lat="43.98876" lon="2.30218">
        <ele>438</ele>
        <time>2021-04-18T10:01:37Z</time>
      </trkpt>
      <trkpt lat="43.98875" lon="2.30219">
        <ele>438</ele>
        <time>2021-04-18T10:01:38Z</time>
      </trkpt>
      <trkpt lat="43.98874" lon="2.30221">
        <ele>437</ele>
        <time>2021-04-18T10:01:39Z</time>
      </trkpt>
      <trkpt lat="43.98873" lon="2.30222">
        <ele>437</ele>
        <time>2021-04-18T10:01:40Z</time>
      </trkpt>
      <trkpt lat="43.98872" lon="2.30224">
        <ele>437</ele>
        <time>2021-04-18T10:01:41Z</time>
      </trkpt>
      <trkpt lat="43.98871" lon="2.30226">
        <ele>437</ele>
        <time>2021-04-18T10:01:42Z</time>
      </trkpt>
      <trkpt lat="43.9887" lon="2.30227">
        <ele>437</ele>
        <time>2021-04-18T10:01:43Z</time>
      </trkpt>
      <trkpt lat="43.98869" lon="2.30228">
        <ele>437</ele>
        <time>2021-04-18T10:01:44Z</time>
      </trkpt>
      <trkpt lat="43.98868" lon="2.3023">
        <ele>437</ele>
        <time>2021-04-18T10:01:45Z</time>
      </trkpt>
      <trkpt lat="43.98867" lon="2.30232">
        <ele>437</ele>
        <time>2021-04-18T10:01:46Z</time>
      </trkpt>
      <trkpt lat="43.98867" lon="2.30233">
        <ele>437</ele>
        <time>2021-04-18T10:01:47Z</time>
      </trkpt>
      <trkpt lat="43.98865" lon="2.30235">
        <ele>437</ele>
        <time>2021-04-18T10:01:48Z</time>
      </trkpt>
      <trkpt lat="43.98864" lon="2.30236">
        <ele>437</ele>
        <time>2021-04-18T10:01:49Z</time>
      </trkpt>
      <trkpt lat="43.98863" lon="2.30238">
        <ele>437</ele>
        <time>2021-04-18T10:01:50Z</time>
      </trkpt>
      <trkpt lat="43.98862" lon="2.3024">
        <ele>437</ele>
        <time>2021-04-18T10:01:51Z</time>
      </trkpt>
      <trkpt lat="43.98861" lon="2.30242">
        <ele>437</ele>
        <time>2021-04-18T10:01:52Z</time>
      </trkpt>
      <trkpt lat="43.98859" lon="2.30244">
        <ele>437</ele>
        <time>2021-04-18T10:01:53Z</time>
      </trkpt>
      <trkpt lat="43.98859" lon="2.30246">
        <ele>436</ele>
        <time>2021-04-18T10:01:54Z</time>
      </trkpt>
      <trkpt lat="43.98857" lon="2.30248">
        <ele>436</ele>
        <time>2021-04-18T10:01:55Z</time>
      </trkpt>
      <trkpt lat="43.98856" lon="2.30249">
        <ele>437</ele>
        <time>2021-04-18T10:01:56Z</time>
      </trkpt>
      <trkpt lat="43.98854" lon="2.3025">
        <ele>436</ele>
        <time>2021-04-18T10:01:57Z</time>
      </trkpt>
      <trkpt lat="43.98853" lon="2.30252">
        <ele>436</ele>
        <time>2021-04-18T10:01:58Z</time>
      </trkpt>
      <trkpt lat="43.98852" lon="2.30254">
        <ele>436</ele>
        <time>2021-04-18T10:01:59Z</time>
      </trkpt>
      <trkpt lat="43.98851" lon="2.30255">
        <ele>436</ele>
        <time>2021-04-18T10:02:00Z</time>
      </trkpt>
      <trkpt lat="43.9885" lon="2.30256">
        <ele>435</ele>
        <time>2021-04-18T10:02:01Z</time>
      </trkpt>
      <trkpt lat="43.98848" lon="2.30258">
        <ele>436</ele>
        <time>2021-04-18T10:02:02Z</time>
      </trkpt>
      <trkpt lat="43.98847" lon="2.3026">
        <ele>435</ele>
        <time>2021-04-18T10:02:03Z</time>
      </trkpt>
      <trkpt lat="43.98846" lon="2.30261">
        <ele>436</ele>
        <time>2021-04-18T10:02:04Z</time>
      </trkpt>
      <trkpt lat="43.98845" lon="2.30263">
        <ele>436</ele>
        <time>2021-04-18T10:02:05Z</time>
      </trkpt>
      <trkpt lat="43.98844" lon="2.30264">
        <ele>435</ele>
        <time>2021-04-18T10:02:06Z</time>
      </trkpt>
      <trkpt lat="43.98843" lon="2.30266">
        <ele>435</ele>
        <time>2021-04-18T10:02:07Z</time>
      </trkpt>
      <trkpt lat="43.98842" lon="2.30268">
        <ele>435</ele>
        <time>2021-04-18T10:02:08Z</time>
      </trkpt>
      <trkpt lat="43.98841" lon="2.30269">
        <ele>435</ele>
        <time>2021-04-18T10:02:09Z</time>
      </trkpt>
      <trkpt lat="43.9884" lon="2.3027">
        <ele>435</ele>
        <time>2021-04-18T10:02:10Z</time>
      </trkpt>
      <trkpt lat="43.98838" lon="2.30271">
        <ele>436</ele>
        <time>2021-04-18T10:02:11Z</time>
      </trkpt>
      <trkpt lat="43.98837" lon="2.30272">
        <ele>436</ele>
        <time>2021-04-18T10:02:12Z</time>
      </trkpt>
      <trkpt lat="43.98836" lon="2.30273">
        <ele>436</ele>
        <time>2021-04-18T10:02:13Z</time>
      </trkpt>
      <trkpt lat="43.98835" lon="2.30274">
        <ele>436</ele>
        <time>2021-04-18T10:02:14Z</time>
      </trkpt>
      <trkpt lat="43.98834" lon="2.30276">
        <ele>436</ele>
        <time>2021-04-18T10:02:15Z</time>
      </trkpt>
      <trkpt lat="43.98832" lon="2.30278">
        <ele>435</ele>
        <time>2021-04-18T10:02:16Z</time>
      </trkpt>
      <trkpt lat="43.98831" lon="2.3028">
        <ele>435</ele>
        <time>2021-04-18T10:02:17Z</time>
      </trkpt>
      <trkpt lat="43.98831" lon="2.30281">
        <ele>435</ele>
        <time>2021-04-18T10:02:18Z</time>
      </trkpt>
      <trkpt lat="43.9883" lon="2.30282">
        <ele>436</ele>
        <time>2021-04-18T10:02:19Z</time>
      </trkpt>
      <trkpt lat="43.9883" lon="2.30282">
        <ele>435</ele>
        <time>2021-04-18T10:02:20Z</time>
      </trkpt>
      <trkpt lat="43.9883" lon="2.30282">
        <ele>435</ele>
        <time>2021-04-18T10:02:21Z</time>
      </trkpt>
      <trkpt lat="43.98829" lon="2.30282">
        <ele>435</ele>
        <time>2021-04-18T10:02:22Z</time>
      </trkpt>
      <trkpt lat="43.98828" lon="2.30283">
        <ele>435</ele>
        <time>2021-04-18T10:02:23Z</time>
      </trkpt>
      <trkpt lat="43.98826" lon="2.30284">
        <ele>435</ele>
        <time>2021-04-18T10:02:24Z</time>
      </trkpt>
      <trkpt lat="43.98825" lon="2.30286">
        <ele>435</ele>
        <time>2021-04-18T10:02:25Z</time>
      </trkpt>
      <trkpt lat="43.98824" lon="2.30288">
        <ele>435</ele>
        <time>2021-04-18T10:02:26Z</time>
      </trkpt>
      <trkpt lat="43.98822" lon="2.30289">
        <ele>435</ele>
        <time>2021-04-18T10:02:27Z</time>
      </trkpt>
      <trkpt lat="43.98822" lon="2.30291">
        <ele>434</ele>
        <time>2021-04-18T10:02:28Z</time>
      </trkpt>
      <trkpt lat="43.98821" lon="2.30293">
        <ele>434</ele>
        <time>2021-04-18T10:02:29Z</time>
      </trkpt>
      <trkpt lat="43.98819" lon="2.30295">
        <ele>434</ele>
        <time>2021-04-18T10:02:30Z</time>
      </trkpt>
      <trkpt lat="43.98817" lon="2.30296">
        <ele>434</ele>
        <time>2021-04-18T10:02:31Z</time>
      </trkpt>
      <trkpt lat="43.98816" lon="2.30297">
        <ele>434</ele>
        <time>2021-04-18T10:02:32Z</time>
      </trkpt>
      <trkpt lat="43.98816" lon="2.30298">
        <ele>433</ele>
        <time>2021-04-18T10:02:33Z</time>
      </trkpt>
      <trkpt lat="43.98814" lon="2.30299">
        <ele>433</ele>
        <time>2021-04-18T10:02:34Z</time>
      </trkpt>
      <trkpt lat="43.98813" lon="2.30301">
        <ele>433</ele>
        <time>2021-04-18T10:02:35Z</time>
      </trkpt>
      <trkpt lat="43.98812" lon="2.30302">
        <ele>433</ele>
        <time>2021-04-18T10:02:36Z</time>
      </trkpt>
      <trkpt lat="43.98811" lon="2.30303">
        <ele>433</ele>
        <time>2021-04-18T10:02:37Z</time>
      </trkpt>
      <trkpt lat="43.98809" lon="2.30305">
        <ele>433</ele>
        <time>2021-04-18T10:02:38Z</time>
      </trkpt>
      <trkpt lat="43.98808" lon="2.30306">
        <ele>433</ele>
        <time>2021-04-18T10:02:39Z</time>
      </trkpt>
      <trkpt lat="43.98807" lon="2.30308">
        <ele>433</ele>
        <time>2021-04-18T10:02:40Z</time>
      </trkpt>
      <trkpt lat="43.98806" lon="2.30309">
        <ele>432</ele>
        <time>2021-04-18T10:02:41Z</time>
      </trkpt>
      <trkpt lat="43.98805" lon="2.30311">
        <ele>432</ele>
        <time>2021-04-18T10:02:42Z</time>
      </trkpt>
      <trkpt lat="43.98804" lon="2.30313">
        <ele>432</ele>
        <time>2021-04-18T10:02:43Z</time>
      </trkpt>
      <trkpt lat="43.98803" lon="2.30314">
        <ele>432</ele>
        <time>2021-04-18T10:02:44Z</time>
      </trkpt>
      <trkpt lat="43.98802" lon="2.30316">
        <ele>431</ele>
        <time>2021-04-18T10:02:45Z</time>
      </trkpt>
      <trkpt lat="43.98801" lon="2.30317">
        <ele>431</ele>
        <time>2021-04-18T10:02:46Z</time>
      </trkpt>
      <trkpt lat="43.988" lon="2.30318">
        <ele>432</ele>
        <time>2021-04-18T10:02:47Z</time>
      </trkpt>
      <trkpt lat="43.98798" lon="2.30319">
        <ele>431</ele>
        <time>2021-04-18T10:02:48Z</time>
      </trkpt>
      <trkpt lat="43.98798" lon="2.30321">
        <ele>431</ele>
        <time>2021-04-18T10:02:49Z</time>
      </trkpt>
      <trkpt lat="43.98796" lon="2.30322">
        <ele>431</ele>
        <time>2021-04-18T10:02:50Z</time>
      </trkpt>
      <trkpt lat="43.98795" lon="2.30323">
        <ele>431</ele>
        <time>2021-04-18T10:02:51Z</time>
      </trkpt>
      <trkpt lat="43.98794" lon="2.30325">
        <ele>431</ele>
        <time>2021-04-18T10:02:52Z</time>
      </trkpt>
      <trkpt lat="43.98793" lon="2.30327">
        <ele>431</ele>
        <time>2021-04-18T10:02:53Z</time>
      </trkpt>
      <trkpt lat="43.98792" lon="2.30329">
        <ele>431</ele>
        <time>2021-04-18T10:02:54Z</time>
      </trkpt>
      <trkpt lat="43.98791" lon="2.3033">
        <ele>431</ele>
        <time>2021-04-18T10:02:55Z</time>
      </trkpt>
      <trkpt lat="43.9879" lon="2.30332">
        <ele>431</ele>
        <time>2021-04-18T10:02:56Z</time>
      </trkpt>
      <trkpt lat="43.9879" lon="2.30334">
        <ele>432</ele>
        <time>2021-04-18T10:02:57Z</time>
      </trkpt>
      <trkpt lat="43.98789" lon="2.30335">
        <ele>432</ele>
        <time>2021-04-18T10:02:58Z</time>
      </trkpt>
      <trkpt lat="43.98788" lon="2.30337">
        <ele>433</ele>
        <time>2021-04-18T10:02:59Z</time>
      </trkpt>
      <trkpt lat="43.98787" lon="2.30339">
        <ele>433</ele>
        <time>2021-04-18T10:03:00Z</time>
      </trkpt>
      <trkpt lat="43.98786" lon="2.3034">
        <ele>433</ele>
        <time>2021-04-18T10:03:01Z</time>
      </trkpt>
      <trkpt lat="43.98785" lon="2.30342">
        <ele>432</ele>
        <time>2021-04-18T10:03:02Z</time>
      </trkpt>
      <trkpt lat="43.98784" lon="2.30344">
        <ele>432</ele>
        <time>2021-04-18T10:03:03Z</time>
      </trkpt>
      <trkpt lat="43.98783" lon="2.30346">
        <ele>432</ele>
        <time>2021-04-18T10:03:04Z</time>
      </trkpt>
      <trkpt lat="43.98782" lon="2.30347">
        <ele>433</ele>
        <time>2021-04-18T10:03:05Z</time>
      </trkpt>
      <trkpt lat="43.98781" lon="2.30349">
        <ele>433</ele>
        <time>2021-04-18T10:03:06Z</time>
      </trkpt>
      <trkpt lat="43.9878" lon="2.3035">
        <ele>433</ele>
        <time>2021-04-18T10:03:07Z</time>
      </trkpt>
      <trkpt lat="43.98779" lon="2.30351">
        <ele>432</ele>
        <time>2021-04-18T10:03:08Z</time>
      </trkpt>
      <trkpt lat="43.98778" lon="2.30353">
        <ele>432</ele>
        <time>2021-04-18T10:03:09Z</time>
      </trkpt>
      <trkpt lat="43.98777" lon="2.30355">
        <ele>432</ele>
        <time>2021-04-18T10:03:10Z</time>
      </trkpt>
      <trkpt lat="43.98776" lon="2.30357">
        <ele>432</ele>
        <time>2021-04-18T10:03:11Z</time>
      </trkpt>
      <trkpt lat="43.98775" lon="2.30358">
        <ele>432</ele>
        <time>2021-04-18T10:03:12Z</time>
      </trkpt>
      <trkpt lat="43.98774" lon="2.3036">
        <ele>432</ele>
        <time>2021-04-18T10:03:13Z</time>
      </trkpt>
      <trkpt lat="43.98774" lon="2.30363">
        <ele>432</ele>
        <time>2021-04-18T10:03:14Z</time>
      </trkpt>
      <trkpt lat="43.98772" lon="2.30364">
        <ele>432</ele>
        <time>2021-04-18T10:03:15Z</time>
      </trkpt>
      <trkpt lat="43.98772" lon="2.30366">
        <ele>431</ele>
        <time>2021-04-18T10:03:16Z</time>
      </trkpt>
      <trkpt lat="43.98771" lon="2.30369">
        <ele>431</ele>
        <time>2021-04-18T10:03:17Z</time>
      </trkpt>
      <trkpt lat="43.9877" lon="2.30371">
        <ele>431</ele>
        <time>2021-04-18T10:03:18Z</time>
      </trkpt>
      <trkpt lat="43.98769" lon="2.30372">
        <ele>431</ele>
        <time>2021-04-18T10:03:19Z</time>
      </trkpt>
      <trkpt lat="43.98768" lon="2.30374">
        <ele>432</ele>
        <time>2021-04-18T10:03:20Z</time>
      </trkpt>
      <trkpt lat="43.98767" lon="2.30375">
        <ele>432</ele>
        <time>2021-04-18T10:03:21Z</time>
      </trkpt>
      <trkpt lat="43.98766" lon="2.30377">
        <ele>433</ele>
        <time>2021-04-18T10:03:22Z</time>
      </trkpt>
      <trkpt lat="43.98766" lon="2.30379">
        <ele>433</ele>
        <time>2021-04-18T10:03:23Z</time>
      </trkpt>
      <trkpt lat="43.98764" lon="2.30381">
        <ele>433</ele>
        <time>2021-04-18T10:03:24Z</time>
      </trkpt>
      <trkpt lat="43.98763" lon="2.30382">
        <ele>432</ele>
        <time>2021-04-18T10:03:25Z</time>
      </trkpt>
      <trkpt lat="43.98762" lon="2.30384">
        <ele>432</ele>
        <time>2021-04-18T10:03:26Z</time>
      </trkpt>
      <trkpt lat="43.98761" lon="2.30385">
        <ele>432</ele>
        <time>2021-04-18T10:03:27Z</time>
      </trkpt>
      <trkpt lat="43.9876" lon="2.30387">
        <ele>432</ele>
        <time>2021-04-18T10:03:28Z</time>
      </trkpt>
      <trkpt lat="43.98759" lon="2.30388">
        <ele>432</ele>
        <time>2021-04-18T10:03:29Z</time>
      </trkpt>
      <trkpt lat="43.98758" lon="2.30391">
        <ele>432</ele>
        <time>2021-04-18T10:03:30Z</time>
      </trkpt>
      <trkpt lat="43.98757" lon="2.30392">
        <ele>432</ele>
        <time>2021-04-18T10:03:31Z</time>
      </trkpt>
      <trkpt lat="43.98756" lon="2.30394">
        <ele>432</ele>
        <time>2021-04-18T10:03:32Z</time>
      </trkpt>
      <trkpt lat="43.98756" lon="2.30396">
        <ele>432</ele>
        <time>2021-04-18T10:03:33Z</time>
      </trkpt>
      <trkpt lat="43.98755" lon="2.30398">
        <ele>432</ele>
        <time>2021-04-18T10:03:34Z</time>
      </trkpt>
      <trkpt lat="43.98755" lon="2.304">
        <ele>432</ele>
        <time>2021-04-18T10:03:35Z</time>
      </trkpt>
      <trkpt lat="43.98754" lon="2.30402">
        <ele>433</ele>
        <time>2021-04-18T10:03:36Z</time>
      </trkpt>
      <trkpt lat="43.98753" lon="2.30404">
        <ele>433</ele>
        <time>2021-04-18T10:03:37Z</time>
      </trkpt>
      <trkpt lat="43.98753" lon="2.30405">
        <ele>433</ele>
        <time>2021-04-18T10:03:38Z</time>
      </trkpt>
      <trkpt lat="43.98752" lon="2.30407">
        <ele>433</ele>
        <time>2021-04-18T10:03:39Z</time>
      </trkpt>
      <trkpt lat="43.98751" lon="2.30408">
        <ele>434</ele>
        <time>2021-04-18T10:03:40Z</time>
      </trkpt>
      <trkpt lat="43.9875" lon="2.30409">
        <ele>434</ele>
        <time>2021-04-18T10:03:41Z</time>
      </trkpt>
      <trkpt lat="43.9875" lon="2.30411">
        <ele>435</ele>
        <time>2021-04-18T10:03:42Z</time>
      </trkpt>
      <trkpt lat="43.98748" lon="2.30412">
        <ele>435</ele>
        <time>2021-04-18T10:03:43Z</time>
      </trkpt>
      <trkpt lat="43.98748" lon="2.30413">
        <ele>435</ele>
        <time>2021-04-18T10:03:44Z</time>
      </trkpt>
      <trkpt lat="43.98747" lon="2.30415">
        <ele>435</ele>
        <time>2021-04-18T10:03:45Z</time>
      </trkpt>
      <trkpt lat="43.98745" lon="2.30417">
        <ele>435</ele>
        <time>2021-04-18T10:03:46Z</time>
      </trkpt>
      <trkpt lat="43.98745" lon="2.30418">
        <ele>435</ele>
        <time>2021-04-18T10:03:47Z</time>
      </trkpt>
      <trkpt lat="43.98744" lon="2.3042">
        <ele>435</ele>
        <time>2021-04-18T10:03:48Z</time>
      </trkpt>
      <trkpt lat="43.98743" lon="2.30422">
        <ele>435</ele>
        <time>2021-04-18T10:03:49Z</time>
      </trkpt>
      <trkpt lat="43.98742" lon="2.30424">
        <ele>434</ele>
        <time>2021-04-18T10:03:50Z</time>
      </trkpt>
      <trkpt lat="43.98741" lon="2.30425">
        <ele>434</ele>
        <time>2021-04-18T10:03:51Z</time>
      </trkpt>
      <trkpt lat="43.9874" lon="2.30426">
        <ele>434</ele>
        <time>2021-04-18T10:03:52Z</time>
      </trkpt>
      <trkpt lat="43.98739" lon="2.30428">
        <ele>434</ele>
        <time>2021-04-18T10:03:53Z</time>
      </trkpt>
      <trkpt lat="43.98739" lon="2.30429">
        <ele>434</ele>
        <time>2021-04-18T10:03:54Z</time>
      </trkpt>
      <trkpt lat="43.98738" lon="2.30431">
        <ele>434</ele>
        <time>2021-04-18T10:03:55Z</time>
      </trkpt>
      <trkpt lat="43.98737" lon="2.30432">
        <ele>434</ele>
        <time>2021-04-18T10:03:56Z</time>
      </trkpt>
      <trkpt lat="43.98736" lon="2.30434">
        <ele>434</ele>
        <time>2021-04-18T10:03:57Z</time>
      </trkpt>
      <trkpt lat="43.98735" lon="2.30435">
        <ele>434</ele>
        <time>2021-04-18T10:03:58Z</time>
      </trkpt>
      <trkpt lat="43.98735" lon="2.30436">
        <ele>433</ele>
        <time>2021-04-18T10:03:59Z</time>
      </trkpt>
      <trkpt lat="43.98734" lon="2.30438">
        <ele>433</ele>
        <time>2021-04-18T10:04:00Z</time>
      </trkpt>
      <trkpt lat="43.98733" lon="2.30439">
        <ele>433</ele>
        <time>2021-04-18T10:04:01Z</time>
      </trkpt>
      <trkpt lat="43.98732" lon="2.30441">
        <ele>433</ele>
        <time>2021-04-18T10:04:02Z</time>
      </trkpt>
      <trkpt lat="43.98731" lon="2.30442">
        <ele>433</ele>
        <time>2021-04-18T10:04:03Z</time>
      </trkpt>
      <trkpt lat="43.98731" lon="2.30444">
        <ele>433</ele>
        <time>2021-04-18T10:04:04Z</time>
      </trkpt>
      <trkpt lat="43.9873" lon="2.30445">
        <ele>433</ele>
        <time>2021-04-18T10:04:05Z</time>
      </trkpt>
      <trkpt lat="43.98729" lon="2.30446">
        <ele>433</ele>
        <time>2021-04-18T10:04:06Z</time>
      </trkpt>
      <trkpt lat="43.98728" lon="2.30448">
        <ele>433</ele>
        <time>2021-04-18T10:04:07Z</time>
      </trkpt>
      <trkpt lat="43.98727" lon="2.3045">
        <ele>433</ele>
        <time>2021-04-18T10:04:08Z</time>
      </trkpt>
      <trkpt lat="43.98726" lon="2.30451">
        <ele>433</ele>
        <time>2021-04-18T10:04:09Z</time>
      </trkpt>
      <trkpt lat="43.98725" lon="2.30453">
        <ele>433</ele>
        <time>2021-04-18T10:04:10Z</time>
      </trkpt>
      <trkpt lat="43.98724" lon="2.30454">
        <ele>433</ele>
        <time>2021-04-18T10:04:11Z</time>
      </trkpt>
      <trkpt lat="43.98723" lon="2.30456">
        <ele>433</ele>
        <time>2021-04-18T10:04:12Z</time>
      </trkpt>
      <trkpt lat="43.98722" lon="2.30457">
        <ele>433</ele>
        <time>2021-04-18T10:04:13Z</time>
      </trkpt>
      <trkpt lat="43.98721" lon="2.30459">
        <ele>432</ele>
        <time>2021-04-18T10:04:14Z</time>
      </trkpt>
      <trkpt lat="43.98721" lon="2.30461">
        <ele>432</ele>
        <time>2021-04-18T10:04:15Z</time>
      </trkpt>
      <trkpt lat="43.9872" lon="2.30463">
        <ele>432</ele>
        <time>2021-04-18T10:04:16Z</time>
      </trkpt>
      <trkpt lat="43.9872" lon="2.30465">
        <ele>432</ele>
        <time>2021-04-18T10:04:17Z</time>
      </trkpt>
      <trkpt lat="43.98719" lon="2.30466">
        <ele>432</ele>
        <time>2021-04-18T10:04:18Z</time>
      </trkpt>
      <trkpt lat="43.98718" lon="2.30468">
        <ele>431</ele>
        <time>2021-04-18T10:04:19Z</time>
      </trkpt>
      <trkpt lat="43.98718" lon="2.3047">
        <ele>431</ele>
        <time>2021-04-18T10:04:20Z</time>
      </trkpt>
      <trkpt lat="43.98716" lon="2.30471">
        <ele>431</ele>
        <time>2021-04-18T10:04:21Z</time>
      </trkpt>
      <trkpt lat="43.98716" lon="2.30473">
        <ele>431</ele>
        <time>2021-04-18T10:04:22Z</time>
      </trkpt>
      <trkpt lat="43.98715" lon="2.30474">
        <ele>431</ele>
        <time>2021-04-18T10:04:23Z</time>
      </trkpt>
      <trkpt lat="43.98714" lon="2.30476">
        <ele>430</ele>
        <time>2021-04-18T10:04:24Z</time>
      </trkpt>
      <trkpt lat="43.98713" lon="2.30477">
        <ele>431</ele>
        <time>2021-04-18T10:04:25Z</time>
      </trkpt>
      <trkpt lat="43.98713" lon="2.30479">
        <ele>431</ele>
        <time>2021-04-18T10:04:26Z</time>
      </trkpt>
      <trkpt lat="43.98712" lon="2.3048">
        <ele>431</ele>
        <time>2021-04-18T10:04:27Z</time>
      </trkpt>
      <trkpt lat="43.98711" lon="2.30481">
        <ele>431</ele>
        <time>2021-04-18T10:04:28Z</time>
      </trkpt>
      <trkpt lat="43.9871" lon="2.30482">
        <ele>431</ele>
        <time>2021-04-18T10:04:29Z</time>
      </trkpt>
      <trkpt lat="43.98709" lon="2.30483">
        <ele>431</ele>
        <time>2021-04-18T10:04:30Z</time>
      </trkpt>
      <trkpt lat="43.98708" lon="2.30484">
        <ele>432</ele>
        <time>2021-04-18T10:04:31Z</time>
      </trkpt>
      <trkpt lat="43.98707" lon="2.30486">
        <ele>432</ele>
        <time>2021-04-18T10:04:32Z</time>
      </trkpt>
      <trkpt lat="43.98705" lon="2.30488">
        <ele>432</ele>
        <time>2021-04-18T10:04:33Z</time>
      </trkpt>
      <trkpt lat="43.98705" lon="2.30489">
        <ele>431</ele>
        <time>2021-04-18T10:04:34Z</time>
      </trkpt>
      <trkpt lat="43.98703" lon="2.3049">
        <ele>432</ele>
        <time>2021-04-18T10:04:35Z</time>
      </trkpt>
      <trkpt lat="43.98702" lon="2.30492">
        <ele>431</ele>
        <time>2021-04-18T10:04:36Z</time>
      </trkpt>
      <trkpt lat="43.98702" lon="2.30494">
        <ele>431</ele>
        <time>2021-04-18T10:04:37Z</time>
      </trkpt>
      <trkpt lat="43.987" lon="2.30495">
        <ele>431</ele>
        <time>2021-04-18T10:04:38Z</time>
      </trkpt>
      <trkpt lat="43.987" lon="2.30497">
        <ele>430</ele>
        <time>2021-04-18T10:04:39Z</time>
      </trkpt>
      <trkpt lat="43.98699" lon="2.30498">
        <ele>430</ele>
        <time>2021-04-18T10:04:40Z</time>
      </trkpt>
      <trkpt lat="43.98698" lon="2.30499">
        <ele>430</ele>
        <time>2021-04-18T10:04:41Z</time>
      </trkpt>
      <trkpt lat="43.98697" lon="2.305">
        <ele>430</ele>
        <time>2021-04-18T10:04:42Z</time>
      </trkpt>
      <trkpt lat="43.98696" lon="2.30502">
        <ele>430</ele>
        <time>2021-04-18T10:04:43Z</time>
      </trkpt>
      <trkpt lat="43.98695" lon="2.30503">
        <ele>430</ele>
        <time>2021-04-18T10:04:44Z</time>
      </trkpt>
      <trkpt lat="43.98694" lon="2.30504">
        <ele>430</ele>
        <time>2021-04-18T10:04:45Z</time>
      </trkpt>
      <trkpt lat="43.98693" lon="2.30505">
        <ele>430</ele>
        <time>2021-04-18T10:04:46Z</time>
      </trkpt>
      <trkpt lat="43.98692" lon="2.30506">
        <ele>430</ele>
        <time>2021-04-18T10:04:47Z</time>
      </trkpt>
      <trkpt lat="43.98691" lon="2.30508">
        <ele>429</ele>
        <time>2021-04-18T10:04:48Z</time>
      </trkpt>
      <trkpt lat="43.9869" lon="2.3051">
        <ele>429</ele>
        <time>2021-04-18T10:04:49Z</time>
      </trkpt>
      <trkpt lat="43.98689" lon="2.30511">
        <ele>429</ele>
        <time>2021-04-18T10:04:50Z</time>
      </trkpt>
      <trkpt lat="43.98688" lon="2.30513">
        <ele>429</ele>
        <time>2021-04-18T10:04:51Z</time>
      </trkpt>
      <trkpt lat="43.98687" lon="2.30515">
        <ele>429</ele>
        <time>2021-04-18T10:04:52Z</time>
      </trkpt>
      <trkpt lat="43.98686" lon="2.30516">
        <ele>429</ele>
        <time>2021-04-18T10:04:53Z</time>
      </trkpt>
      <trkpt lat="43.98686" lon="2.30517">
        <ele>429</ele>
        <time>2021-04-18T10:04:54Z</time>
      </trkpt>
      <trkpt lat="43.98685" lon="2.30519">
        <ele>429</ele>
        <time>2021-04-18T10:04:55Z</time>
      </trkpt>
      <trkpt lat="43.98684" lon="2.3052">
        <ele>429</ele>
        <time>2021-04-18T10:04:56Z</time>
      </trkpt>
      <trkpt lat="43.98684" lon="2.30521">
        <ele>429</ele>
        <time>2021-04-18T10:04:57Z</time>
      </trkpt>
      <trkpt lat="43.98683" lon="2.30522">
        <ele>429</ele>
        <time>2021-04-18T10:04:58Z</time>
      </trkpt>
      <trkpt lat="43.98682" lon="2.30524">
        <ele>429</ele>
        <time>2021-04-18T10:04:59Z</time>
      </trkpt>
      <trkpt lat="43.98682" lon="2.30525">
        <ele>429</ele>
        <time>2021-04-18T10:05:00Z</time>
      </trkpt>
      <trkpt lat="43.98682" lon="2.30526">
        <ele>429</ele>
        <time>2021-04-18T10:05:01Z</time>
      </trkpt>
      <trkpt lat="43.98681" lon="2.30528">
        <ele>429</ele>
        <time>2021-04-18T10:05:02Z</time>
      </trkpt>
      <trkpt lat="43.98681" lon="2.30529">
        <ele>428</ele>
        <time>2021-04-18T10:05:03Z</time>
      </trkpt>
      <trkpt lat="43.9868" lon="2.3053">
        <ele>429</ele>
        <time>2021-04-18T10:05:04Z</time>
      </trkpt>
      <trkpt lat="43.98679" lon="2.30532">
        <ele>428</ele>
        <time>2021-04-18T10:05:05Z</time>
      </trkpt>
      <trkpt lat="43.98679" lon="2.30533">
        <ele>428</ele>
        <time>2021-04-18T10:05:06Z</time>
      </trkpt>
      <trkpt lat="43.98678" lon="2.30535">
        <ele>428</ele>
        <time>2021-04-18T10:05:07Z</time>
      </trkpt>
      <trkpt lat="43.98677" lon="2.30537">
        <ele>427</ele>
        <time>2021-04-18T10:05:08Z</time>
      </trkpt>
      <trkpt lat="43.98677" lon="2.30538">
        <ele>428</ele>
        <time>2021-04-18T10:05:09Z</time>
      </trkpt>
      <trkpt lat="43.98676" lon="2.30539">
        <ele>427</ele>
        <time>2021-04-18T10:05:10Z</time>
      </trkpt>
      <trkpt lat="43.98676" lon="2.30541">
        <ele>427</ele>
        <time>2021-04-18T10:05:11Z</time>
      </trkpt>
      <trkpt lat="43.98676" lon="2.30542">
        <ele>427</ele>
        <time>2021-04-18T10:05:12Z</time>
      </trkpt>
      <trkpt lat="43.98676" lon="2.30543">
        <ele>427</ele>
        <time>2021-04-18T10:05:13Z</time>
      </trkpt>
      <trkpt lat="43.98675" lon="2.30545">
        <ele>427</ele>
        <time>2021-04-18T10:05:14Z</time>
      </trkpt>
      <trkpt lat="43.98674" lon="2.30547">
        <ele>427</ele>
        <time>2021-04-18T10:05:15Z</time>
      </trkpt>
      <trkpt lat="43.98674" lon="2.30549">
        <ele>428</ele>
        <time>2021-04-18T10:05:16Z</time>
      </trkpt>
      <trkpt lat="43.98674" lon="2.30551">
        <ele>428</ele>
        <time>2021-04-18T10:05:17Z</time>
      </trkpt>
      <trkpt lat="43.98673" lon="2.30552">
        <ele>428</ele>
        <time>2021-04-18T10:05:18Z</time>
      </trkpt>
      <trkpt lat="43.98673" lon="2.30554">
        <ele>428</ele>
        <time>2021-04-18T10:05:19Z</time>
      </trkpt>
      <trkpt lat="43.98671" lon="2.30555">
        <ele>428</ele>
        <time>2021-04-18T10:05:20Z</time>
      </trkpt>
      <trkpt lat="43.98671" lon="2.30557">
        <ele>427</ele>
        <time>2021-04-18T10:05:21Z</time>
      </trkpt>
      <trkpt lat="43.9867" lon="2.30558">
        <ele>427</ele>
        <time>2021-04-18T10:05:22Z</time>
      </trkpt>
      <trkpt lat="43.98669" lon="2.3056">
        <ele>426</ele>
        <time>2021-04-18T10:05:23Z</time>
      </trkpt>
      <trkpt lat="43.98669" lon="2.30561">
        <ele>426</ele>
        <time>2021-04-18T10:05:24Z</time>
      </trkpt>
      <trkpt lat="43.98667" lon="2.30564">
        <ele>425</ele>
        <time>2021-04-18T10:05:25Z</time>
      </trkpt>
      <trkpt lat="43.98667" lon="2.30564">
        <ele>425</ele>
        <time>2021-04-18T10:05:25Z</time>
      </trkpt>
      <trkpt lat="43.98666" lon="2.30566">
        <ele>426</ele>
        <time>2021-04-18T10:05:27Z</time>
      </trkpt>
      <trkpt lat="43.98665" lon="2.30568">
        <ele>425</ele>
        <time>2021-04-18T10:05:28Z</time>
      </trkpt>
      <trkpt lat="43.98665" lon="2.30569">
        <ele>425</ele>
        <time>2021-04-18T10:05:29Z</time>
      </trkpt>
      <trkpt lat="43.98665" lon="2.3057">
        <ele>425</ele>
        <time>2021-04-18T10:05:30Z</time>
      </trkpt>
      <trkpt lat="43.98665" lon="2.30571">
        <ele>425</ele>
        <time>2021-04-18T10:05:31Z</time>
      </trkpt>
      <trkpt lat="43.98664" lon="2.30573">
        <ele>425</ele>
        <time>2021-04-18T10:05:32Z</time>
      </trkpt>
      <trkpt lat="43.98664" lon="2.30574">
        <ele>425</ele>
        <time>2021-04-18T10:05:33Z</time>
      </trkpt>
      <trkpt lat="43.98663" lon="2.30576">
        <ele>426</ele>
        <time>2021-04-18T10:05:34Z</time>
      </trkpt>
      <trkpt lat="43.98663" lon="2.30577">
        <ele>426</ele>
        <time>2021-04-18T10:05:35Z</time>
      </trkpt>
      <trkpt lat="43.98662" lon="2.30578">
        <ele>426</ele>
        <time>2021-04-18T10:05:36Z</time>
      </trkpt>
      <trkpt lat="43.98661" lon="2.30579">
        <ele>426</ele>
        <time>2021-04-18T10:05:37Z</time>
      </trkpt>
      <trkpt lat="43.9866" lon="2.30581">
        <ele>426</ele>
        <time>2021-04-18T10:05:38Z</time>
      </trkpt>
      <trkpt lat="43.9866" lon="2.30584">
        <ele>426</ele>
        <time>2021-04-18T10:05:39Z</time>
      </trkpt>
      <trkpt lat="43.98659" lon="2.30587">
        <ele>427</ele>
        <time>2021-04-18T10:05:40Z</time>
      </trkpt>
      <trkpt lat="43.98658" lon="2.30589">
        <ele>426</ele>
        <time>2021-04-18T10:05:41Z</time>
      </trkpt>
      <trkpt lat="43.98658" lon="2.3059">
        <ele>426</ele>
        <time>2021-04-18T10:05:42Z</time>
      </trkpt>
      <trkpt lat="43.98658" lon="2.3059">
        <ele>426</ele>
        <time>2021-04-18T10:05:42Z</time>
      </trkpt>
      <trkpt lat="43.98657" lon="2.30591">
        <ele>426</ele>
        <time>2021-04-18T10:05:44Z</time>
      </trkpt>
      <trkpt lat="43.98655" lon="2.30595">
        <ele>426</ele>
        <time>2021-04-18T10:05:45Z</time>
      </trkpt>
      <trkpt lat="43.98655" lon="2.30596">
        <ele>426</ele>
        <time>2021-04-18T10:05:46Z</time>
      </trkpt>
      <trkpt lat="43.98654" lon="2.30597">
        <ele>426</ele>
        <time>2021-04-18T10:05:47Z</time>
      </trkpt>
      <trkpt lat="43.98653" lon="2.30599">
        <ele>425</ele>
        <time>2021-04-18T10:05:48Z</time>
      </trkpt>
      <trkpt lat="43.98653" lon="2.30601">
        <ele>425</ele>
        <time>2021-04-18T10:05:49Z</time>
      </trkpt>
      <trkpt lat="43.98652" lon="2.30602">
        <ele>425</ele>
        <time>2021-04-18T10:05:50Z</time>
      </trkpt>
      <trkpt lat="43.98652" lon="2.30604">
        <ele>425</ele>
        <time>2021-04-18T10:05:51Z</time>
      </trkpt>
      <trkpt lat="43.98651" lon="2.30606">
        <ele>425</ele>
        <time>2021-04-18T10:05:52Z</time>
      </trkpt>
      <trkpt lat="43.98651" lon="2.30608">
        <ele>424</ele>
        <time>2021-04-18T10:05:53Z</time>
      </trkpt>
      <trkpt lat="43.9865" lon="2.3061">
        <ele>424</ele>
        <time>2021-04-18T10:05:54Z</time>
      </trkpt>
      <trkpt lat="43.9865" lon="2.30611">
        <ele>424</ele>
        <time>2021-04-18T10:05:55Z</time>
      </trkpt>
      <trkpt lat="43.98649" lon="2.30612">
        <ele>424</ele>
        <time>2021-04-18T10:05:56Z</time>
      </trkpt>
      <trkpt lat="43.98649" lon="2.30613">
        <ele>425</ele>
        <time>2021-04-18T10:05:57Z</time>
      </trkpt>
      <trkpt lat="43.98648" lon="2.30615">
        <ele>425</ele>
        <time>2021-04-18T10:05:58Z</time>
      </trkpt>
      <trkpt lat="43.98648" lon="2.30617">
        <ele>424</ele>
        <time>2021-04-18T10:05:59Z</time>
      </trkpt>
      <trkpt lat="43.98648" lon="2.30619">
        <ele>424</ele>
        <time>2021-04-18T10:06:00Z</time>
      </trkpt>
      <trkpt lat="43.98647" lon="2.3062">
        <ele>424</ele>
        <time>2021-04-18T10:06:01Z</time>
      </trkpt>
      <trkpt lat="43.98646" lon="2.30622">
        <ele>423</ele>
        <time>2021-04-18T10:06:02Z</time>
      </trkpt>
      <trkpt lat="43.98646" lon="2.30624">
        <ele>423</ele>
        <time>2021-04-18T10:06:03Z</time>
      </trkpt>
      <trkpt lat="43.98645" lon="2.30625">
        <ele>423</ele>
        <time>2021-04-18T10:06:04Z</time>
      </trkpt>
      <trkpt lat="43.98644" lon="2.30627">
        <ele>423</ele>
        <time>2021-04-18T10:06:05Z</time>
      </trkpt>
      <trkpt lat="43.98643" lon="2.30628">
        <ele>422</ele>
        <time>2021-04-18T10:06:06Z</time>
      </trkpt>
      <trkpt lat="43.98642" lon="2.3063">
        <ele>422</ele>
        <time>2021-04-18T10:06:07Z</time>
      </trkpt>
      <trkpt lat="43.98642" lon="2.30632">
        <ele>422</ele>
        <time>2021-04-18T10:06:08Z</time>
      </trkpt>
      <trkpt lat="43.98642" lon="2.30634">
        <ele>422</ele>
        <time>2021-04-18T10:06:09Z</time>
      </trkpt>
      <trkpt lat="43.98641" lon="2.30636">
        <ele>421</ele>
        <time>2021-04-18T10:06:10Z</time>
      </trkpt>
      <trkpt lat="43.98641" lon="2.30639">
        <ele>422</ele>
        <time>2021-04-18T10:06:11Z</time>
      </trkpt>
      <trkpt lat="43.9864" lon="2.30641">
        <ele>422</ele>
        <time>2021-04-18T10:06:12Z</time>
      </trkpt>
      <trkpt lat="43.9864" lon="2.30643">
        <ele>421</ele>
        <time>2021-04-18T10:06:13Z</time>
      </trkpt>
      <trkpt lat="43.9864" lon="2.30645">
        <ele>421</ele>
        <time>2021-04-18T10:06:14Z</time>
      </trkpt>
      <trkpt lat="43.98639" lon="2.30647">
        <ele>421</ele>
        <time>2021-04-18T10:06:15Z</time>
      </trkpt>
      <trkpt lat="43.98638" lon="2.30649">
        <ele>421</ele>
        <time>2021-04-18T10:06:16Z</time>
      </trkpt>
      <trkpt lat="43.98637" lon="2.30651">
        <ele>421</ele>
        <time>2021-04-18T10:06:17Z</time>
      </trkpt>
      <trkpt lat="43.98637" lon="2.30653">
        <ele>421</ele>
        <time>2021-04-18T10:06:18Z</time>
      </trkpt>
      <trkpt lat="43.98637" lon="2.30655">
        <ele>422</ele>
        <time>2021-04-18T10:06:19Z</time>
      </trkpt>
      <trkpt lat="43.98637" lon="2.30656">
        <ele>422</ele>
        <time>2021-04-18T10:06:20Z</time>
      </trkpt>
      <trkpt lat="43.98636" lon="2.30657">
        <ele>422</ele>
        <time>2021-04-18T10:06:21Z</time>
      </trkpt>
      <trkpt lat="43.98636" lon="2.30659">
        <ele>422</ele>
        <time>2021-04-18T10:06:22Z</time>
      </trkpt>
      <trkpt lat="43.98635" lon="2.3066">
        <ele>422</ele>
        <time>2021-04-18T10:06:23Z</time>
      </trkpt>
      <trkpt lat="43.98635" lon="2.30661">
        <ele>423</ele>
        <time>2021-04-18T10:06:24Z</time>
      </trkpt>
      <trkpt lat="43.98634" lon="2.30663">
        <ele>422</ele>
        <time>2021-04-18T10:06:25Z</time>
      </trkpt>
      <trkpt lat="43.98634" lon="2.30664">
        <ele>422</ele>
        <time>2021-04-18T10:06:26Z</time>
      </trkpt>
      <trkpt lat="43.98633" lon="2.30666">
        <ele>422</ele>
        <time>2021-04-18T10:06:27Z</time>
      </trkpt>
      <trkpt lat="43.98633" lon="2.30668">
        <ele>422</ele>
        <time>2021-04-18T10:06:28Z</time>
      </trkpt>
      <trkpt lat="43.98633" lon="2.3067">
        <ele>422</ele>
        <time>2021-04-18T10:06:29Z</time>
      </trkpt>
      <trkpt lat="43.98632" lon="2.30671">
        <ele>421</ele>
        <time>2021-04-18T10:06:30Z</time>
      </trkpt>
      <trkpt lat="43.98632" lon="2.30673">
        <ele>421</ele>
        <time>2021-04-18T10:06:31Z</time>
      </trkpt>
      <trkpt lat="43.98632" lon="2.30675">
        <ele>421</ele>
        <time>2021-04-18T10:06:32Z</time>
      </trkpt>
      <trkpt lat="43.98631" lon="2.30675">
        <ele>421</ele>
        <time>2021-04-18T10:06:33Z</time>
      </trkpt>
      <trkpt lat="43.98631" lon="2.30676">
        <ele>421</ele>
        <time>2021-04-18T10:06:34Z</time>
      </trkpt>
      <trkpt lat="43.98631" lon="2.30678">
        <ele>421</ele>
        <time>2021-04-18T10:06:35Z</time>
      </trkpt>
      <trkpt lat="43.98631" lon="2.30679">
        <ele>420</ele>
        <time>2021-04-18T10:06:36Z</time>
      </trkpt>
      <trkpt lat="43.98631" lon="2.30681">
        <ele>420</ele>
        <time>2021-04-18T10:06:37Z</time>
      </trkpt>
      <trkpt lat="43.98631" lon="2.30683">
        <ele>419</ele>
        <time>2021-04-18T10:06:38Z</time>
      </trkpt>
      <trkpt lat="43.98632" lon="2.30685">
        <ele>419</ele>
        <time>2021-04-18T10:06:39Z</time>
      </trkpt>
      <trkpt lat="43.98632" lon="2.30687">
        <ele>420</ele>
        <time>2021-04-18T10:06:40Z</time>
      </trkpt>
      <trkpt lat="43.98632" lon="2.30688">
        <ele>420</ele>
        <time>2021-04-18T10:06:41Z</time>
      </trkpt>
      <trkpt lat="43.98631" lon="2.3069">
        <ele>419</ele>
        <time>2021-04-18T10:06:42Z</time>
      </trkpt>
      <trkpt lat="43.98631" lon="2.30692">
        <ele>419</ele>
        <time>2021-04-18T10:06:43Z</time>
      </trkpt>
      <trkpt lat="43.98631" lon="2.30694">
        <ele>419</ele>
        <time>2021-04-18T10:06:44Z</time>
      </trkpt>
      <trkpt lat="43.98632" lon="2.30696">
        <ele>419</ele>
        <time>2021-04-18T10:06:45Z</time>
      </trkpt>
      <trkpt lat="43.98632" lon="2.30697">
        <ele>419</ele>
        <time>2021-04-18T10:06:46Z</time>
      </trkpt>
      <trkpt lat="43.98632" lon="2.30699">
        <ele>419</ele>
        <time>2021-04-18T10:06:47Z</time>
      </trkpt>
      <trkpt lat="43.98632" lon="2.30701">
        <ele>419</ele>
        <time>2021-04-18T10:06:48Z</time>
      </trkpt>
      <trkpt lat="43.98632" lon="2.30703">
        <ele>419</ele>
        <time>2021-04-18T10:06:49Z</time>
      </trkpt>
      <trkpt lat="43.98632" lon="2.30705">
        <ele>418</ele>
        <time>2021-04-18T10:06:50Z</time>
      </trkpt>
      <trkpt lat="43.98632" lon="2.30707">
        <ele>418</ele>
        <time>2021-04-18T10:06:51Z</time>
      </trkpt>
      <trkpt lat="43.98632" lon="2.30709">
        <ele>418</ele>
        <time>2021-04-18T10:06:52Z</time>
      </trkpt>
      <trkpt lat="43.98632" lon="2.30711">
        <ele>418</ele>
        <time>2021-04-18T10:06:53Z</time>
      </trkpt>
      <trkpt lat="43.98632" lon="2.30713">
        <ele>418</ele>
        <time>2021-04-18T10:06:54Z</time>
      </trkpt>
      <trkpt lat="43.98632" lon="2.30715">
        <ele>418</ele>
        <time>2021-04-18T10:06:55Z</time>
      </trkpt>
      <trkpt lat="43.98632" lon="2.30717">
        <ele>418</ele>
        <time>2021-04-18T10:06:56Z</time>
      </trkpt>
      <trkpt lat="43.98632" lon="2.30718">
        <ele>418</ele>
        <time>2021-04-18T10:06:57Z</time>
      </trkpt>
      <trkpt lat="43.98632" lon="2.3072">
        <ele>418</ele>
        <time>2021-04-18T10:06:58Z</time>
      </trkpt>
      <trkpt lat="43.98632" lon="2.3072">
        <ele>418</ele>
        <time>2021-04-18T10:06:59Z</time>
      </trkpt>
      <trkpt lat="43.98632" lon="2.3072">
        <ele>418</ele>
        <time>2021-04-18T10:07:00Z</time>
      </trkpt>
      <trkpt lat="43.98632" lon="2.3072">
        <ele>418</ele>
        <time>2021-04-18T10:07:00Z</time>
      </trkpt>
      <trkpt lat="43.98632" lon="2.3072">
        <ele>418</ele>
        <time>2021-04-18T10:07:00Z</time>
      </trkpt>
      <trkpt lat="43.98631" lon="2.30729">
        <ele>418</ele>
        <time>2021-04-18T10:07:10Z</time>
      </trkpt>
      <trkpt lat="43.98631" lon="2.3073">
        <ele>418</ele>
        <time>2021-04-18T10:07:11Z</time>
      </trkpt>
      <trkpt lat="43.98631" lon="2.30732">
        <ele>418</ele>
        <time>2021-04-18T10:07:12Z</time>
      </trkpt>
      <trkpt lat="43.98631" lon="2.30733">
        <ele>418</ele>
        <time>2021-04-18T10:07:13Z</time>
      </trkpt>
      <trkpt lat="43.98631" lon="2.30735">
        <ele>418</ele>
        <time>2021-04-18T10:07:14Z</time>
      </trkpt>
      <trkpt lat="43.98631" lon="2.30736">
        <ele>418</ele>
        <time>2021-04-18T10:07:15Z</time>
      </trkpt>
      <trkpt lat="43.98631" lon="2.30738">
        <ele>418</ele>
        <time>2021-04-18T10:07:16Z</time>
      </trkpt>
      <trkpt lat="43.98631" lon="2.3074">
        <ele>419</ele>
        <time>2021-04-18T10:07:17Z</time>
      </trkpt>
      <trkpt lat="43.98631" lon="2.30742">
        <ele>419</ele>
        <time>2021-04-18T10:07:18Z</time>
      </trkpt>
      <trkpt lat="43.98631" lon="2.30745">
        <ele>419</ele>
        <time>2021-04-18T10:07:19Z</time>
      </trkpt>
      <trkpt lat="43.98631" lon="2.30747">
        <ele>419</ele>
        <time>2021-04-18T10:07:20Z</time>
      </trkpt>
      <trkpt lat="43.98631" lon="2.30749">
        <ele>418</ele>
        <time>2021-04-18T10:07:21Z</time>
      </trkpt>
      <trkpt lat="43.98632" lon="2.30751">
        <ele>418</ele>
        <time>2021-04-18T10:07:22Z</time>
      </trkpt>
      <trkpt lat="43.98632" lon="2.30753">
        <ele>418</ele>
        <time>2021-04-18T10:07:23Z</time>
      </trkpt>
      <trkpt lat="43.98633" lon="2.30754">
        <ele>418</ele>
        <time>2021-04-18T10:07:24Z</time>
      </trkpt>
      <trkpt lat="43.98633" lon="2.30756">
        <ele>417</ele>
        <time>2021-04-18T10:07:25Z</time>
      </trkpt>
      <trkpt lat="43.98633" lon="2.30757">
        <ele>417</ele>
        <time>2021-04-18T10:07:26Z</time>
      </trkpt>
      <trkpt lat="43.98634" lon="2.30759">
        <ele>417</ele>
        <time>2021-04-18T10:07:27Z</time>
      </trkpt>
      <trkpt lat="43.98634" lon="2.3076">
        <ele>417</ele>
        <time>2021-04-18T10:07:28Z</time>
      </trkpt>
      <trkpt lat="43.98633" lon="2.30761">
        <ele>417</ele>
        <time>2021-04-18T10:07:29Z</time>
      </trkpt>
      <trkpt lat="43.98632" lon="2.30763">
        <ele>417</ele>
        <time>2021-04-18T10:07:30Z</time>
      </trkpt>
      <trkpt lat="43.98632" lon="2.30765">
        <ele>417</ele>
        <time>2021-04-18T10:07:31Z</time>
      </trkpt>
      <trkpt lat="43.98633" lon="2.30766">
        <ele>417</ele>
        <time>2021-04-18T10:07:32Z</time>
      </trkpt>
      <trkpt lat="43.98633" lon="2.30768">
        <ele>418</ele>
        <time>2021-04-18T10:07:33Z</time>
      </trkpt>
      <trkpt lat="43.98632" lon="2.30769">
        <ele>418</ele>
        <time>2021-04-18T10:07:34Z</time>
      </trkpt>
      <trkpt lat="43.98632" lon="2.30771">
        <ele>418</ele>
        <time>2021-04-18T10:07:35Z</time>
      </trkpt>
      <trkpt lat="43.98632" lon="2.30773">
        <ele>417</ele>
        <time>2021-04-18T10:07:36Z</time>
      </trkpt>
      <trkpt lat="43.98631" lon="2.30775">
        <ele>417</ele>
        <time>2021-04-18T10:07:37Z</time>
      </trkpt>
      <trkpt lat="43.98631" lon="2.30777">
        <ele>417</ele>
        <time>2021-04-18T10:07:38Z</time>
      </trkpt>
      <trkpt lat="43.98631" lon="2.30778">
        <ele>418</ele>
        <time>2021-04-18T10:07:39Z</time>
      </trkpt>
      <trkpt lat="43.98631" lon="2.3078">
        <ele>417</ele>
        <time>2021-04-18T10:07:40Z</time>
      </trkpt>
      <trkpt lat="43.98631" lon="2.30782">
        <ele>417</ele>
        <time>2021-04-18T10:07:41Z</time>
      </trkpt>
      <trkpt lat="43.98631" lon="2.30783">
        <ele>418</ele>
        <time>2021-04-18T10:07:42Z</time>
      </trkpt>
      <trkpt lat="43.9863" lon="2.30785">
        <ele>417</ele>
        <time>2021-04-18T10:07:43Z</time>
      </trkpt>
      <trkpt lat="43.9863" lon="2.30787">
        <ele>417</ele>
        <time>2021-04-18T10:07:44Z</time>
      </trkpt>
      <trkpt lat="43.9863" lon="2.30789">
        <ele>417</ele>
        <time>2021-04-18T10:07:45Z</time>
      </trkpt>
      <trkpt lat="43.9863" lon="2.30791">
        <ele>417</ele>
        <time>2021-04-18T10:07:46Z</time>
      </trkpt>
      <trkpt lat="43.98629" lon="2.30792">
        <ele>417</ele>
        <time>2021-04-18T10:07:47Z</time>
      </trkpt>
      <trkpt lat="43.9863" lon="2.30793">
        <ele>418</ele>
        <time>2021-04-18T10:07:48Z</time>
      </trkpt>
      <trkpt lat="43.9863" lon="2.30794">
        <ele>418</ele>
        <time>2021-04-18T10:07:49Z</time>
      </trkpt>
      <trkpt lat="43.9863" lon="2.30795">
        <ele>418</ele>
        <time>2021-04-18T10:07:50Z</time>
      </trkpt>
      <trkpt lat="43.9863" lon="2.30795">
        <ele>418</ele>
        <time>2021-04-18T10:07:51Z</time>
      </trkpt>
      <trkpt lat="43.98629" lon="2.30797">
        <ele>418</ele>
        <time>2021-04-18T10:07:52Z</time>
      </trkpt>
      <trkpt lat="43.98629" lon="2.30797">
        <ele>418</ele>
        <time>2021-04-18T10:07:53Z</time>
      </trkpt>
      <trkpt lat="43.98628" lon="2.30798">
        <ele>418</ele>
        <time>2021-04-18T10:07:54Z</time>
      </trkpt>
      <trkpt lat="43.98627" lon="2.30799">
        <ele>418</ele>
        <time>2021-04-18T10:07:55Z</time>
      </trkpt>
      <trkpt lat="43.98626" lon="2.30799">
        <ele>418</ele>
        <time>2021-04-18T10:07:56Z</time>
      </trkpt>
      <trkpt lat="43.98625" lon="2.30799">
        <ele>418</ele>
        <time>2021-04-18T10:07:57Z</time>
      </trkpt>
      <trkpt lat="43.98623" lon="2.30799">
        <ele>418</ele>
        <time>2021-04-18T10:07:58Z</time>
      </trkpt>
      <trkpt lat="43.98622" lon="2.30799">
        <ele>418</ele>
        <time>2021-04-18T10:07:59Z</time>
      </trkpt>
      <trkpt lat="43.98621" lon="2.30799">
        <ele>418</ele>
        <time>2021-04-18T10:08:00Z</time>
      </trkpt>
      <trkpt lat="43.9862" lon="2.30799">
        <ele>418</ele>
        <time>2021-04-18T10:08:01Z</time>
      </trkpt>
      <trkpt lat="43.98619" lon="2.30798">
        <ele>419</ele>
        <time>2021-04-18T10:08:02Z</time>
      </trkpt>
      <trkpt lat="43.98618" lon="2.30798">
        <ele>418</ele>
        <time>2021-04-18T10:08:03Z</time>
      </trkpt>
      <trkpt lat="43.98618" lon="2.30797">
        <ele>418</ele>
        <time>2021-04-18T10:08:04Z</time>
      </trkpt>
      <trkpt lat="43.98617" lon="2.30796">
        <ele>418</ele>
        <time>2021-04-18T10:08:05Z</time>
      </trkpt>
      <trkpt lat="43.98616" lon="2.30795">
        <ele>419</ele>
        <time>2021-04-18T10:08:06Z</time>
      </trkpt>
      <trkpt lat="43.98615" lon="2.30794">
        <ele>418</ele>
        <time>2021-04-18T10:08:07Z</time>
      </trkpt>
      <trkpt lat="43.98615" lon="2.30794">
        <ele>418</ele>
        <time>2021-04-18T10:08:08Z</time>
      </trkpt>
      <trkpt lat="43.98615" lon="2.30794">
        <ele>418</ele>
        <time>2021-04-18T10:08:09Z</time>
      </trkpt>
      <trkpt lat="43.98614" lon="2.30792">
        <ele>418</ele>
        <time>2021-04-18T10:08:10Z</time>
      </trkpt>
      <trkpt lat="43.98612" lon="2.30791">
        <ele>418</ele>
        <time>2021-04-18T10:08:11Z</time>
      </trkpt>
      <trkpt lat="43.98611" lon="2.3079">
        <ele>418</ele>
        <time>2021-04-18T10:08:12Z</time>
      </trkpt>
      <trkpt lat="43.98609" lon="2.30791">
        <ele>418</ele>
        <time>2021-04-18T10:08:13Z</time>
      </trkpt>
      <trkpt lat="43.98608" lon="2.3079">
        <ele>418</ele>
        <time>2021-04-18T10:08:14Z</time>
      </trkpt>
      <trkpt lat="43.98606" lon="2.3079">
        <ele>417</ele>
        <time>2021-04-18T10:08:15Z</time>
      </trkpt>
      <trkpt lat="43.98605" lon="2.30791">
        <ele>416</ele>
        <time>2021-04-18T10:08:16Z</time>
      </trkpt>
      <trkpt lat="43.98604" lon="2.30791">
        <ele>416</ele>
        <time>2021-04-18T10:08:17Z</time>
      </trkpt>
      <trkpt lat="43.98603" lon="2.30792">
        <ele>416</ele>
        <time>2021-04-18T10:08:18Z</time>
      </trkpt>
      <trkpt lat="43.98603" lon="2.30793">
        <ele>416</ele>
        <time>2021-04-18T10:08:19Z</time>
      </trkpt>
      <trkpt lat="43.98602" lon="2.30795">
        <ele>416</ele>
        <time>2021-04-18T10:08:20Z</time>
      </trkpt>
      <trkpt lat="43.98601" lon="2.30796">
        <ele>416</ele>
        <time>2021-04-18T10:08:21Z</time>
      </trkpt>
      <trkpt lat="43.986" lon="2.30798">
        <ele>416</ele>
        <time>2021-04-18T10:08:22Z</time>
      </trkpt>
      <trkpt lat="43.98599" lon="2.30799">
        <ele>416</ele>
        <time>2021-04-18T10:08:23Z</time>
      </trkpt>
      <trkpt lat="43.98599" lon="2.30801">
        <ele>416</ele>
        <time>2021-04-18T10:08:24Z</time>
      </trkpt>
      <trkpt lat="43.98599" lon="2.30802">
        <ele>416</ele>
        <time>2021-04-18T10:08:25Z</time>
      </trkpt>
      <trkpt lat="43.98599" lon="2.30803">
        <ele>417</ele>
        <time>2021-04-18T10:08:26Z</time>
      </trkpt>
      <trkpt lat="43.98598" lon="2.30805">
        <ele>416</ele>
        <time>2021-04-18T10:08:27Z</time>
      </trkpt>
      <trkpt lat="43.98597" lon="2.30806">
        <ele>415</ele>
        <time>2021-04-18T10:08:28Z</time>
      </trkpt>
      <trkpt lat="43.98597" lon="2.30808">
        <ele>415</ele>
        <time>2021-04-18T10:08:29Z</time>
      </trkpt>
      <trkpt lat="43.98597" lon="2.30811">
        <ele>415</ele>
        <time>2021-04-18T10:08:30Z</time>
      </trkpt>
      <trkpt lat="43.98597" lon="2.30812">
        <ele>415</ele>
        <time>2021-04-18T10:08:31Z</time>
      </trkpt>
      <trkpt lat="43.98597" lon="2.30814">
        <ele>415</ele>
        <time>2021-04-18T10:08:32Z</time>
      </trkpt>
      <trkpt lat="43.98596" lon="2.30815">
        <ele>415</ele>
        <time>2021-04-18T10:08:33Z</time>
      </trkpt>
      <trkpt lat="43.98596" lon="2.30816">
        <ele>414</ele>
        <time>2021-04-18T10:08:34Z</time>
      </trkpt>
      <trkpt lat="43.98595" lon="2.30817">
        <ele>415</ele>
        <time>2021-04-18T10:08:35Z</time>
      </trkpt>
      <trkpt lat="43.98595" lon="2.30818">
        <ele>415</ele>
        <time>2021-04-18T10:08:36Z</time>
      </trkpt>
      <trkpt lat="43.98595" lon="2.30819">
        <ele>415</ele>
        <time>2021-04-18T10:08:37Z</time>
      </trkpt>
      <trkpt lat="43.98595" lon="2.3082">
        <ele>416</ele>
        <time>2021-04-18T10:08:38Z</time>
      </trkpt>
      <trkpt lat="43.98595" lon="2.30821">
        <ele>416</ele>
        <time>2021-04-18T10:08:39Z</time>
      </trkpt>
      <trkpt lat="43.98595" lon="2.30822">
        <ele>416</ele>
        <time>2021-04-18T10:08:40Z</time>
      </trkpt>
      <trkpt lat="43.98594" lon="2.30823">
        <ele>416</ele>
        <time>2021-04-18T10:08:41Z</time>
      </trkpt>
      <trkpt lat="43.98594" lon="2.30824">
        <ele>416</ele>
        <time>2021-04-18T10:08:42Z</time>
      </trkpt>
      <trkpt lat="43.98594" lon="2.30825">
        <ele>416</ele>
        <time>2021-04-18T10:08:43Z</time>
      </trkpt>
      <trkpt lat="43.98594" lon="2.30827">
        <ele>417</ele>
        <time>2021-04-18T10:08:44Z</time>
      </trkpt>
      <trkpt lat="43.98594" lon="2.30828">
        <ele>417</ele>
        <time>2021-04-18T10:08:45Z</time>
      </trkpt>
      <trkpt lat="43.98594" lon="2.30829">
        <ele>417</ele>
        <time>2021-04-18T10:08:46Z</time>
      </trkpt>
      <trkpt lat="43.98593" lon="2.3083">
        <ele>417</ele>
        <time>2021-04-18T10:08:47Z</time>
      </trkpt>
      <trkpt lat="43.98593" lon="2.30831">
        <ele>417</ele>
        <time>2021-04-18T10:08:48Z</time>
      </trkpt>
      <trkpt lat="43.98594" lon="2.30833">
        <ele>417</ele>
        <time>2021-04-18T10:08:49Z</time>
      </trkpt>
      <trkpt lat="43.98594" lon="2.30833">
        <ele>417</ele>
        <time>2021-04-18T10:08:50Z</time>
      </trkpt>
      <trkpt lat="43.98594" lon="2.30834">
        <ele>417</ele>
        <time>2021-04-18T10:08:51Z</time>
      </trkpt>
      <trkpt lat="43.98594" lon="2.30835">
        <ele>417</ele>
        <time>2021-04-18T10:08:52Z</time>
      </trkpt>
      <trkpt lat="43.98593" lon="2.30835">
        <ele>416</ele>
        <time>2021-04-18T10:08:53Z</time>
      </trkpt>
      <trkpt lat="43.98593" lon="2.30836">
        <ele>416</ele>
        <time>2021-04-18T10:08:54Z</time>
      </trkpt>
      <trkpt lat="43.98592" lon="2.30837">
        <ele>416</ele>
        <time>2021-04-18T10:08:55Z</time>
      </trkpt>
      <trkpt lat="43.98592" lon="2.30838">
        <ele>416</ele>
        <time>2021-04-18T10:08:56Z</time>
      </trkpt>
      <trkpt lat="43.98591" lon="2.30839">
        <ele>415</ele>
        <time>2021-04-18T10:08:57Z</time>
      </trkpt>
      <trkpt lat="43.98591" lon="2.3084">
        <ele>416</ele>
        <time>2021-04-18T10:08:58Z</time>
      </trkpt>
      <trkpt lat="43.98591" lon="2.3084">
        <ele>416</ele>
        <time>2021-04-18T10:08:59Z</time>
      </trkpt>
      <trkpt lat="43.98591" lon="2.3084">
        <ele>416</ele>
        <time>2021-04-18T10:09:00Z</time>
      </trkpt>
      <trkpt lat="43.9859" lon="2.30844">
        <ele>416</ele>
        <time>2021-04-18T10:09:01Z</time>
      </trkpt>
      <trkpt lat="43.9859" lon="2.30846">
        <ele>415</ele>
        <time>2021-04-18T10:09:02Z</time>
      </trkpt>
      <trkpt lat="43.9859" lon="2.30848">
        <ele>414</ele>
        <time>2021-04-18T10:09:03Z</time>
      </trkpt>
      <trkpt lat="43.9859" lon="2.3085">
        <ele>413</ele>
        <time>2021-04-18T10:09:04Z</time>
      </trkpt>
      <trkpt lat="43.9859" lon="2.30852">
        <ele>412</ele>
        <time>2021-04-18T10:09:05Z</time>
      </trkpt>
      <trkpt lat="43.98591" lon="2.30854">
        <ele>411</ele>
        <time>2021-04-18T10:09:06Z</time>
      </trkpt>
      <trkpt lat="43.98591" lon="2.30856">
        <ele>410</ele>
        <time>2021-04-18T10:09:07Z</time>
      </trkpt>
      <trkpt lat="43.98591" lon="2.30859">
        <ele>409</ele>
        <time>2021-04-18T10:09:08Z</time>
      </trkpt>
      <trkpt lat="43.98591" lon="2.30861">
        <ele>408</ele>
        <time>2021-04-18T10:09:09Z</time>
      </trkpt>
      <trkpt lat="43.98591" lon="2.30864">
        <ele>407</ele>
        <time>2021-04-18T10:09:10Z</time>
      </trkpt>
      <trkpt lat="43.98591" lon="2.30866">
        <ele>407</ele>
        <time>2021-04-18T10:09:11Z</time>
      </trkpt>
      <trkpt lat="43.98591" lon="2.30868">
        <ele>406</ele>
        <time>2021-04-18T10:09:12Z</time>
      </trkpt>
      <trkpt lat="43.98591" lon="2.3087">
        <ele>406</ele>
        <time>2021-04-18T10:09:13Z</time>
      </trkpt>
      <trkpt lat="43.98592" lon="2.30871">
        <ele>405</ele>
        <time>2021-04-18T10:09:14Z</time>
      </trkpt>
      <trkpt lat="43.98592" lon="2.30873">
        <ele>404</ele>
        <time>2021-04-18T10:09:15Z</time>
      </trkpt>
      <trkpt lat="43.98592" lon="2.30875">
        <ele>404</ele>
        <time>2021-04-18T10:09:16Z</time>
      </trkpt>
      <trkpt lat="43.98592" lon="2.30877">
        <ele>404</ele>
        <time>2021-04-18T10:09:17Z</time>
      </trkpt>
      <trkpt lat="43.98593" lon="2.30878">
        <ele>403</ele>
        <time>2021-04-18T10:09:18Z</time>
      </trkpt>
      <trkpt lat="43.98593" lon="2.3088">
        <ele>403</ele>
        <time>2021-04-18T10:09:19Z</time>
      </trkpt>
      <trkpt lat="43.98594" lon="2.30882">
        <ele>403</ele>
        <time>2021-04-18T10:09:20Z</time>
      </trkpt>
      <trkpt lat="43.98594" lon="2.30885">
        <ele>403</ele>
        <time>2021-04-18T10:09:21Z</time>
      </trkpt>
      <trkpt lat="43.98595" lon="2.30886">
        <ele>403</ele>
        <time>2021-04-18T10:09:22Z</time>
      </trkpt>
      <trkpt lat="43.98596" lon="2.30888">
        <ele>402</ele>
        <time>2021-04-18T10:09:23Z</time>
      </trkpt>
      <trkpt lat="43.98597" lon="2.30889">
        <ele>402</ele>
        <time>2021-04-18T10:09:24Z</time>
      </trkpt>
      <trkpt lat="43.98597" lon="2.30891">
        <ele>402</ele>
        <time>2021-04-18T10:09:25Z</time>
      </trkpt>
      <trkpt lat="43.98599" lon="2.30892">
        <ele>401</ele>
        <time>2021-04-18T10:09:26Z</time>
      </trkpt>
      <trkpt lat="43.98599" lon="2.30895">
        <ele>401</ele>
        <time>2021-04-18T10:09:27Z</time>
      </trkpt>
      <trkpt lat="43.986" lon="2.30897">
        <ele>400</ele>
        <time>2021-04-18T10:09:28Z</time>
      </trkpt>
      <trkpt lat="43.98601" lon="2.30898">
        <ele>400</ele>
        <time>2021-04-18T10:09:29Z</time>
      </trkpt>
      <trkpt lat="43.98602" lon="2.309">
        <ele>400</ele>
        <time>2021-04-18T10:09:30Z</time>
      </trkpt>
      <trkpt lat="43.98603" lon="2.30902">
        <ele>399</ele>
        <time>2021-04-18T10:09:31Z</time>
      </trkpt>
      <trkpt lat="43.98604" lon="2.30904">
        <ele>399</ele>
        <time>2021-04-18T10:09:32Z</time>
      </trkpt>
      <trkpt lat="43.98605" lon="2.30906">
        <ele>399</ele>
        <time>2021-04-18T10:09:33Z</time>
      </trkpt>
      <trkpt lat="43.98605" lon="2.30908">
        <ele>398</ele>
        <time>2021-04-18T10:09:34Z</time>
      </trkpt>
      <trkpt lat="43.98607" lon="2.3091">
        <ele>398</ele>
        <time>2021-04-18T10:09:35Z</time>
      </trkpt>
      <trkpt lat="43.98608" lon="2.30912">
        <ele>399</ele>
        <time>2021-04-18T10:09:36Z</time>
      </trkpt>
      <trkpt lat="43.98609" lon="2.30914">
        <ele>399</ele>
        <time>2021-04-18T10:09:37Z</time>
      </trkpt>
      <trkpt lat="43.98611" lon="2.30916">
        <ele>398</ele>
        <time>2021-04-18T10:09:38Z</time>
      </trkpt>
      <trkpt lat="43.98612" lon="2.30917">
        <ele>399</ele>
        <time>2021-04-18T10:09:39Z</time>
      </trkpt>
      <trkpt lat="43.98613" lon="2.30919">
        <ele>398</ele>
        <time>2021-04-18T10:09:40Z</time>
      </trkpt>
      <trkpt lat="43.98615" lon="2.3092">
        <ele>398</ele>
        <time>2021-04-18T10:09:41Z</time>
      </trkpt>
      <trkpt lat="43.98616" lon="2.30922">
        <ele>398</ele>
        <time>2021-04-18T10:09:42Z</time>
      </trkpt>
      <trkpt lat="43.98617" lon="2.30923">
        <ele>397</ele>
        <time>2021-04-18T10:09:43Z</time>
      </trkpt>
      <trkpt lat="43.98619" lon="2.30924">
        <ele>397</ele>
        <time>2021-04-18T10:09:44Z</time>
      </trkpt>
      <trkpt lat="43.9862" lon="2.30926">
        <ele>397</ele>
        <time>2021-04-18T10:09:45Z</time>
      </trkpt>
      <trkpt lat="43.98621" lon="2.30927">
        <ele>397</ele>
        <time>2021-04-18T10:09:46Z</time>
      </trkpt>
      <trkpt lat="43.98622" lon="2.30927">
        <ele>396</ele>
        <time>2021-04-18T10:09:47Z</time>
      </trkpt>
      <trkpt lat="43.98623" lon="2.30928">
        <ele>396</ele>
        <time>2021-04-18T10:09:48Z</time>
      </trkpt>
      <trkpt lat="43.98625" lon="2.30929">
        <ele>396</ele>
        <time>2021-04-18T10:09:49Z</time>
      </trkpt>
      <trkpt lat="43.98626" lon="2.30931">
        <ele>396</ele>
        <time>2021-04-18T10:09:50Z</time>
      </trkpt>
      <trkpt lat="43.98626" lon="2.30932">
        <ele>396</ele>
        <time>2021-04-18T10:09:51Z</time>
      </trkpt>
      <trkpt lat="43.98628" lon="2.30933">
        <ele>395</ele>
        <time>2021-04-18T10:09:52Z</time>
      </trkpt>
      <trkpt lat="43.98629" lon="2.30933">
        <ele>396</ele>
        <time>2021-04-18T10:09:53Z</time>
      </trkpt>
      <trkpt lat="43.9863" lon="2.30934">
        <ele>395</ele>
        <time>2021-04-18T10:09:54Z</time>
      </trkpt>
      <trkpt lat="43.98631" lon="2.30934">
        <ele>395</ele>
        <time>2021-04-18T10:09:55Z</time>
      </trkpt>
      <trkpt lat="43.98633" lon="2.30935">
        <ele>395</ele>
        <time>2021-04-18T10:09:56Z</time>
      </trkpt>
      <trkpt lat="43.98634" lon="2.30937">
        <ele>395</ele>
        <time>2021-04-18T10:09:57Z</time>
      </trkpt>
      <trkpt lat="43.98636" lon="2.30938">
        <ele>396</ele>
        <time>2021-04-18T10:09:58Z</time>
      </trkpt>
      <trkpt lat="43.98637" lon="2.30939">
        <ele>395</ele>
        <time>2021-04-18T10:09:59Z</time>
      </trkpt>
      <trkpt lat="43.98638" lon="2.30941">
        <ele>396</ele>
        <time>2021-04-18T10:10:00Z</time>
      </trkpt>
      <trkpt lat="43.98639" lon="2.30942">
        <ele>395</ele>
        <time>2021-04-18T10:10:01Z</time>
      </trkpt>
      <trkpt lat="43.9864" lon="2.30943">
        <ele>394</ele>
        <time>2021-04-18T10:10:02Z</time>
      </trkpt>
      <trkpt lat="43.9864" lon="2.30944">
        <ele>393</ele>
        <time>2021-04-18T10:10:03Z</time>
      </trkpt>
      <trkpt lat="43.9864" lon="2.30946">
        <ele>393</ele>
        <time>2021-04-18T10:10:04Z</time>
      </trkpt>
      <trkpt lat="43.98642" lon="2.30948">
        <ele>392</ele>
        <time>2021-04-18T10:10:05Z</time>
      </trkpt>
      <trkpt lat="43.98643" lon="2.30949">
        <ele>392</ele>
        <time>2021-04-18T10:10:06Z</time>
      </trkpt>
      <trkpt lat="43.98644" lon="2.3095">
        <ele>393</ele>
        <time>2021-04-18T10:10:07Z</time>
      </trkpt>
      <trkpt lat="43.98645" lon="2.30952">
        <ele>393</ele>
        <time>2021-04-18T10:10:08Z</time>
      </trkpt>
      <trkpt lat="43.98647" lon="2.30953">
        <ele>393</ele>
        <time>2021-04-18T10:10:09Z</time>
      </trkpt>
      <trkpt lat="43.98647" lon="2.30955">
        <ele>393</ele>
        <time>2021-04-18T10:10:10Z</time>
      </trkpt>
      <trkpt lat="43.98648" lon="2.30957">
        <ele>392</ele>
        <time>2021-04-18T10:10:11Z</time>
      </trkpt>
      <trkpt lat="43.98649" lon="2.30958">
        <ele>391</ele>
        <time>2021-04-18T10:10:12Z</time>
      </trkpt>
      <trkpt lat="43.9865" lon="2.30959">
        <ele>391</ele>
        <time>2021-04-18T10:10:13Z</time>
      </trkpt>
      <trkpt lat="43.9865" lon="2.30961">
        <ele>390</ele>
        <time>2021-04-18T10:10:14Z</time>
      </trkpt>
      <trkpt lat="43.9865" lon="2.30963">
        <ele>391</ele>
        <time>2021-04-18T10:10:15Z</time>
      </trkpt>
      <trkpt lat="43.9865" lon="2.30966">
        <ele>391</ele>
        <time>2021-04-18T10:10:16Z</time>
      </trkpt>
      <trkpt lat="43.98651" lon="2.30968">
        <ele>391</ele>
        <time>2021-04-18T10:10:17Z</time>
      </trkpt>
      <trkpt lat="43.98652" lon="2.30969">
        <ele>390</ele>
        <time>2021-04-18T10:10:18Z</time>
      </trkpt>
      <trkpt lat="43.98652" lon="2.3097">
        <ele>390</ele>
        <time>2021-04-18T10:10:19Z</time>
      </trkpt>
      <trkpt lat="43.98652" lon="2.30972">
        <ele>389</ele>
        <time>2021-04-18T10:10:20Z</time>
      </trkpt>
      <trkpt lat="43.98652" lon="2.30974">
        <ele>389</ele>
        <time>2021-04-18T10:10:21Z</time>
      </trkpt>
      <trkpt lat="43.98651" lon="2.30976">
        <ele>389</ele>
        <time>2021-04-18T10:10:22Z</time>
      </trkpt>
      <trkpt lat="43.98651" lon="2.30978">
        <ele>389</ele>
        <time>2021-04-18T10:10:23Z</time>
      </trkpt>
      <trkpt lat="43.98651" lon="2.30979">
        <ele>389</ele>
        <time>2021-04-18T10:10:24Z</time>
      </trkpt>
      <trkpt lat="43.98652" lon="2.30981">
        <ele>389</ele>
        <time>2021-04-18T10:10:25Z</time>
      </trkpt>
      <trkpt lat="43.98652" lon="2.30982">
        <ele>388</ele>
        <time>2021-04-18T10:10:26Z</time>
      </trkpt>
      <trkpt lat="43.98651" lon="2.30984">
        <ele>388</ele>
        <time>2021-04-18T10:10:27Z</time>
      </trkpt>
      <trkpt lat="43.98651" lon="2.30986">
        <ele>387</ele>
        <time>2021-04-18T10:10:28Z</time>
      </trkpt>
      <trkpt lat="43.9865" lon="2.30987">
        <ele>387</ele>
        <time>2021-04-18T10:10:29Z</time>
      </trkpt>
      <trkpt lat="43.9865" lon="2.30989">
        <ele>388</ele>
        <time>2021-04-18T10:10:30Z</time>
      </trkpt>
      <trkpt lat="43.98649" lon="2.3099">
        <ele>388</ele>
        <time>2021-04-18T10:10:31Z</time>
      </trkpt>
      <trkpt lat="43.98649" lon="2.30991">
        <ele>387</ele>
        <time>2021-04-18T10:10:32Z</time>
      </trkpt>
      <trkpt lat="43.98648" lon="2.30992">
        <ele>387</ele>
        <time>2021-04-18T10:10:33Z</time>
      </trkpt>
      <trkpt lat="43.98647" lon="2.30994">
        <ele>387</ele>
        <time>2021-04-18T10:10:34Z</time>
      </trkpt>
      <trkpt lat="43.98647" lon="2.30996">
        <ele>387</ele>
        <time>2021-04-18T10:10:35Z</time>
      </trkpt>
      <trkpt lat="43.98646" lon="2.30998">
        <ele>387</ele>
        <time>2021-04-18T10:10:36Z</time>
      </trkpt>
      <trkpt lat="43.98646" lon="2.31">
        <ele>386</ele>
        <time>2021-04-18T10:10:37Z</time>
      </trkpt>
      <trkpt lat="43.98645" lon="2.31002">
        <ele>386</ele>
        <time>2021-04-18T10:10:38Z</time>
      </trkpt>
      <trkpt lat="43.98645" lon="2.31005">
        <ele>386</ele>
        <time>2021-04-18T10:10:39Z</time>
      </trkpt>
      <trkpt lat="43.98644" lon="2.31007">
        <ele>385</ele>
        <time>2021-04-18T10:10:40Z</time>
      </trkpt>
      <trkpt lat="43.98644" lon="2.31009">
        <ele>384</ele>
        <time>2021-04-18T10:10:41Z</time>
      </trkpt>
      <trkpt lat="43.98644" lon="2.31012">
        <ele>383</ele>
        <time>2021-04-18T10:10:42Z</time>
      </trkpt>
      <trkpt lat="43.98644" lon="2.31014">
        <ele>383</ele>
        <time>2021-04-18T10:10:43Z</time>
      </trkpt>
      <trkpt lat="43.98645" lon="2.31016">
        <ele>382</ele>
        <time>2021-04-18T10:10:44Z</time>
      </trkpt>
      <trkpt lat="43.98645" lon="2.31018">
        <ele>382</ele>
        <time>2021-04-18T10:10:45Z</time>
      </trkpt>
      <trkpt lat="43.98645" lon="2.3102">
        <ele>382</ele>
        <time>2021-04-18T10:10:46Z</time>
      </trkpt>
      <trkpt lat="43.98646" lon="2.31023">
        <ele>382</ele>
        <time>2021-04-18T10:10:47Z</time>
      </trkpt>
      <trkpt lat="43.98646" lon="2.31026">
        <ele>382</ele>
        <time>2021-04-18T10:10:48Z</time>
      </trkpt>
      <trkpt lat="43.98646" lon="2.31028">
        <ele>381</ele>
        <time>2021-04-18T10:10:49Z</time>
      </trkpt>
      <trkpt lat="43.98646" lon="2.31031">
        <ele>380</ele>
        <time>2021-04-18T10:10:50Z</time>
      </trkpt>
      <trkpt lat="43.98646" lon="2.31033">
        <ele>380</ele>
        <time>2021-04-18T10:10:51Z</time>
      </trkpt>
      <trkpt lat="43.98646" lon="2.31036">
        <ele>379</ele>
        <time>2021-04-18T10:10:52Z</time>
      </trkpt>
      <trkpt lat="43.98646" lon="2.31038">
        <ele>379</ele>
        <time>2021-04-18T10:10:53Z</time>
      </trkpt>
      <trkpt lat="43.98646" lon="2.3104">
        <ele>378</ele>
        <time>2021-04-18T10:10:54Z</time>
      </trkpt>
      <trkpt lat="43.98647" lon="2.31042">
        <ele>378</ele>
        <time>2021-04-18T10:10:55Z</time>
      </trkpt>
      <trkpt lat="43.98647" lon="2.31044">
        <ele>378</ele>
        <time>2021-04-18T10:10:56Z</time>
      </trkpt>
      <trkpt lat="43.98647" lon="2.31046">
        <ele>378</ele>
        <time>2021-04-18T10:10:57Z</time>
      </trkpt>
      <trkpt lat="43.98648" lon="2.31048">
        <ele>378</ele>
        <time>2021-04-18T10:10:58Z</time>
      </trkpt>
      <trkpt lat="43.98649" lon="2.31049">
        <ele>378</ele>
        <time>2021-04-18T10:10:59Z</time>
      </trkpt>
      <trkpt lat="43.98649" lon="2.31051">
        <ele>378</ele>
        <time>2021-04-18T10:11:00Z</time>
      </trkpt>
      <trkpt lat="43.98649" lon="2.31053">
        <ele>377</ele>
        <time>2021-04-18T10:11:01Z</time>
      </trkpt>
      <trkpt lat="43.98649" lon="2.31055">
        <ele>377</ele>
        <time>2021-04-18T10:11:02Z</time>
      </trkpt>
      <trkpt lat="43.9865" lon="2.31057">
        <ele>377</ele>
        <time>2021-04-18T10:11:03Z</time>
      </trkpt>
      <trkpt lat="43.9865" lon="2.31059">
        <ele>376</ele>
        <time>2021-04-18T10:11:04Z</time>
      </trkpt>
      <trkpt lat="43.9865" lon="2.31061">
        <ele>375</ele>
        <time>2021-04-18T10:11:05Z</time>
      </trkpt>
      <trkpt lat="43.98651" lon="2.31063">
        <ele>375</ele>
        <time>2021-04-18T10:11:06Z</time>
      </trkpt>
      <trkpt lat="43.98651" lon="2.31065">
        <ele>374</ele>
        <time>2021-04-18T10:11:07Z</time>
      </trkpt>
      <trkpt lat="43.98652" lon="2.31067">
        <ele>374</ele>
        <time>2021-04-18T10:11:08Z</time>
      </trkpt>
      <trkpt lat="43.98652" lon="2.3107">
        <ele>374</ele>
        <time>2021-04-18T10:11:09Z</time>
      </trkpt>
      <trkpt lat="43.98653" lon="2.31072">
        <ele>374</ele>
        <time>2021-04-18T10:11:10Z</time>
      </trkpt>
      <trkpt lat="43.98653" lon="2.31074">
        <ele>374</ele>
        <time>2021-04-18T10:11:11Z</time>
      </trkpt>
      <trkpt lat="43.98654" lon="2.31076">
        <ele>374</ele>
        <time>2021-04-18T10:11:12Z</time>
      </trkpt>
      <trkpt lat="43.98655" lon="2.31078">
        <ele>374</ele>
        <time>2021-04-18T10:11:13Z</time>
      </trkpt>
      <trkpt lat="43.98656" lon="2.3108">
        <ele>374</ele>
        <time>2021-04-18T10:11:14Z</time>
      </trkpt>
      <trkpt lat="43.98656" lon="2.31082">
        <ele>374</ele>
        <time>2021-04-18T10:11:15Z</time>
      </trkpt>
      <trkpt lat="43.98657" lon="2.31084">
        <ele>373</ele>
        <time>2021-04-18T10:11:16Z</time>
      </trkpt>
      <trkpt lat="43.98657" lon="2.31086">
        <ele>374</ele>
        <time>2021-04-18T10:11:17Z</time>
      </trkpt>
      <trkpt lat="43.98658" lon="2.31089">
        <ele>373</ele>
        <time>2021-04-18T10:11:18Z</time>
      </trkpt>
      <trkpt lat="43.98658" lon="2.31091">
        <ele>373</ele>
        <time>2021-04-18T10:11:19Z</time>
      </trkpt>
      <trkpt lat="43.98658" lon="2.31093">
        <ele>373</ele>
        <time>2021-04-18T10:11:20Z</time>
      </trkpt>
      <trkpt lat="43.98659" lon="2.31095">
        <ele>373</ele>
        <time>2021-04-18T10:11:21Z</time>
      </trkpt>
      <trkpt lat="43.98659" lon="2.31097">
        <ele>373</ele>
        <time>2021-04-18T10:11:22Z</time>
      </trkpt>
      <trkpt lat="43.98659" lon="2.31099">
        <ele>373</ele>
        <time>2021-04-18T10:11:23Z</time>
      </trkpt>
      <trkpt lat="43.98659" lon="2.31101">
        <ele>374</ele>
        <time>2021-04-18T10:11:24Z</time>
      </trkpt>
      <trkpt lat="43.98659" lon="2.31102">
        <ele>373</ele>
        <time>2021-04-18T10:11:25Z</time>
      </trkpt>
      <trkpt lat="43.98659" lon="2.31105">
        <ele>372</ele>
        <time>2021-04-18T10:11:26Z</time>
      </trkpt>
      <trkpt lat="43.98659" lon="2.31106">
        <ele>372</ele>
        <time>2021-04-18T10:11:27Z</time>
      </trkpt>
      <trkpt lat="43.98659" lon="2.31109">
        <ele>372</ele>
        <time>2021-04-18T10:11:28Z</time>
      </trkpt>
      <trkpt lat="43.98658" lon="2.31111">
        <ele>373</ele>
        <time>2021-04-18T10:11:29Z</time>
      </trkpt>
      <trkpt lat="43.98658" lon="2.31114">
        <ele>373</ele>
        <time>2021-04-18T10:11:30Z</time>
      </trkpt>
      <trkpt lat="43.98658" lon="2.31116">
        <ele>373</ele>
        <time>2021-04-18T10:11:31Z</time>
      </trkpt>
      <trkpt lat="43.98658" lon="2.31118">
        <ele>372</ele>
        <time>2021-04-18T10:11:32Z</time>
      </trkpt>
      <trkpt lat="43.98658" lon="2.3112">
        <ele>372</ele>
        <time>2021-04-18T10:11:33Z</time>
      </trkpt>
      <trkpt lat="43.98658" lon="2.31121">
        <ele>371</ele>
        <time>2021-04-18T10:11:34Z</time>
      </trkpt>
      <trkpt lat="43.98658" lon="2.31124">
        <ele>371</ele>
        <time>2021-04-18T10:11:35Z</time>
      </trkpt>
      <trkpt lat="43.98658" lon="2.31125">
        <ele>371</ele>
        <time>2021-04-18T10:11:36Z</time>
      </trkpt>
      <trkpt lat="43.98658" lon="2.31128">
        <ele>371</ele>
        <time>2021-04-18T10:11:37Z</time>
      </trkpt>
      <trkpt lat="43.98658" lon="2.3113">
        <ele>371</ele>
        <time>2021-04-18T10:11:38Z</time>
      </trkpt>
      <trkpt lat="43.98658" lon="2.31132">
        <ele>371</ele>
        <time>2021-04-18T10:11:39Z</time>
      </trkpt>
      <trkpt lat="43.98658" lon="2.31135">
        <ele>371</ele>
        <time>2021-04-18T10:11:40Z</time>
      </trkpt>
      <trkpt lat="43.98658" lon="2.31137">
        <ele>370</ele>
        <time>2021-04-18T10:11:41Z</time>
      </trkpt>
      <trkpt lat="43.98658" lon="2.31139">
        <ele>370</ele>
        <time>2021-04-18T10:11:42Z</time>
      </trkpt>
      <trkpt lat="43.98658" lon="2.31141">
        <ele>370</ele>
        <time>2021-04-18T10:11:43Z</time>
      </trkpt>
      <trkpt lat="43.98658" lon="2.31143">
        <ele>371</ele>
        <time>2021-04-18T10:11:44Z</time>
      </trkpt>
      <trkpt lat="43.98659" lon="2.31144">
        <ele>371</ele>
        <time>2021-04-18T10:11:45Z</time>
      </trkpt>
      <trkpt lat="43.9866" lon="2.31147">
        <ele>370</ele>
        <time>2021-04-18T10:11:46Z</time>
      </trkpt>
      <trkpt lat="43.98661" lon="2.31149">
        <ele>370</ele>
        <time>2021-04-18T10:11:47Z</time>
      </trkpt>
      <trkpt lat="43.98662" lon="2.31151">
        <ele>370</ele>
        <time>2021-04-18T10:11:48Z</time>
      </trkpt>
      <trkpt lat="43.98663" lon="2.31152">
        <ele>370</ele>
        <time>2021-04-18T10:11:49Z</time>
      </trkpt>
      <trkpt lat="43.98665" lon="2.31154">
        <ele>370</ele>
        <time>2021-04-18T10:11:50Z</time>
      </trkpt>
      <trkpt lat="43.98666" lon="2.31154">
        <ele>370</ele>
        <time>2021-04-18T10:11:51Z</time>
      </trkpt>
      <trkpt lat="43.98666" lon="2.31155">
        <ele>370</ele>
        <time>2021-04-18T10:11:52Z</time>
      </trkpt>
      <trkpt lat="43.98666" lon="2.31157">
        <ele>369</ele>
        <time>2021-04-18T10:11:53Z</time>
      </trkpt>
      <trkpt lat="43.98667" lon="2.31158">
        <ele>369</ele>
        <time>2021-04-18T10:11:54Z</time>
      </trkpt>
      <trkpt lat="43.98667" lon="2.31159">
        <ele>369</ele>
        <time>2021-04-18T10:11:55Z</time>
      </trkpt>
      <trkpt lat="43.98666" lon="2.31159">
        <ele>369</ele>
        <time>2021-04-18T10:11:56Z</time>
      </trkpt>
      <trkpt lat="43.98666" lon="2.31161">
        <ele>370</ele>
        <time>2021-04-18T10:11:57Z</time>
      </trkpt>
      <trkpt lat="43.98667" lon="2.31162">
        <ele>370</ele>
        <time>2021-04-18T10:11:58Z</time>
      </trkpt>
      <trkpt lat="43.98667" lon="2.31163">
        <ele>370</ele>
        <time>2021-04-18T10:11:59Z</time>
      </trkpt>
      <trkpt lat="43.98667" lon="2.31165">
        <ele>370</ele>
        <time>2021-04-18T10:12:00Z</time>
      </trkpt>
      <trkpt lat="43.98667" lon="2.31166">
        <ele>370</ele>
        <time>2021-04-18T10:12:01Z</time>
      </trkpt>
      <trkpt lat="43.98668" lon="2.31168">
        <ele>370</ele>
        <time>2021-04-18T10:12:02Z</time>
      </trkpt>
      <trkpt lat="43.98668" lon="2.31168">
        <ele>369</ele>
        <time>2021-04-18T10:12:03Z</time>
      </trkpt>
      <trkpt lat="43.98668" lon="2.31169">
        <ele>369</ele>
        <time>2021-04-18T10:12:04Z</time>
      </trkpt>
      <trkpt lat="43.98668" lon="2.3117">
        <ele>369</ele>
        <time>2021-04-18T10:12:05Z</time>
      </trkpt>
      <trkpt lat="43.98667" lon="2.31172">
        <ele>369</ele>
        <time>2021-04-18T10:12:06Z</time>
      </trkpt>
      <trkpt lat="43.98666" lon="2.31174">
        <ele>369</ele>
        <time>2021-04-18T10:12:07Z</time>
      </trkpt>
      <trkpt lat="43.98665" lon="2.31175">
        <ele>368</ele>
        <time>2021-04-18T10:12:08Z</time>
      </trkpt>
      <trkpt lat="43.98664" lon="2.31176">
        <ele>367</ele>
        <time>2021-04-18T10:12:09Z</time>
      </trkpt>
      <trkpt lat="43.98663" lon="2.31175">
        <ele>367</ele>
        <time>2021-04-18T10:12:10Z</time>
      </trkpt>
      <trkpt lat="43.98663" lon="2.31175">
        <ele>367</ele>
        <time>2021-04-18T10:12:11Z</time>
      </trkpt>
      <trkpt lat="43.98663" lon="2.31175">
        <ele>367</ele>
        <time>2021-04-18T10:12:12Z</time>
      </trkpt>
      <trkpt lat="43.98663" lon="2.31176">
        <ele>367</ele>
        <time>2021-04-18T10:12:13Z</time>
      </trkpt>
      <trkpt lat="43.98663" lon="2.31178">
        <ele>367</ele>
        <time>2021-04-18T10:12:14Z</time>
      </trkpt>
      <trkpt lat="43.98662" lon="2.3118">
        <ele>367</ele>
        <time>2021-04-18T10:12:15Z</time>
      </trkpt>
      <trkpt lat="43.98663" lon="2.31182">
        <ele>367</ele>
        <time>2021-04-18T10:12:16Z</time>
      </trkpt>
      <trkpt lat="43.98663" lon="2.31183">
        <ele>367</ele>
        <time>2021-04-18T10:12:17Z</time>
      </trkpt>
      <trkpt lat="43.98663" lon="2.31185">
        <ele>367</ele>
        <time>2021-04-18T10:12:18Z</time>
      </trkpt>
      <trkpt lat="43.98663" lon="2.31187">
        <ele>368</ele>
        <time>2021-04-18T10:12:19Z</time>
      </trkpt>
      <trkpt lat="43.98662" lon="2.31187">
        <ele>369</ele>
        <time>2021-04-18T10:12:20Z</time>
      </trkpt>
      <trkpt lat="43.98663" lon="2.31187">
        <ele>369</ele>
        <time>2021-04-18T10:12:21Z</time>
      </trkpt>
      <trkpt lat="43.98663" lon="2.31186">
        <ele>370</ele>
        <time>2021-04-18T10:12:22Z</time>
      </trkpt>
      <trkpt lat="43.98663" lon="2.31187">
        <ele>370</ele>
        <time>2021-04-18T10:12:23Z</time>
      </trkpt>
      <trkpt lat="43.98663" lon="2.31189">
        <ele>370</ele>
        <time>2021-04-18T10:12:24Z</time>
      </trkpt>
      <trkpt lat="43.98663" lon="2.3119">
        <ele>370</ele>
        <time>2021-04-18T10:12:25Z</time>
      </trkpt>
      <trkpt lat="43.98663" lon="2.31191">
        <ele>370</ele>
        <time>2021-04-18T10:12:26Z</time>
      </trkpt>
      <trkpt lat="43.98663" lon="2.31193">
        <ele>369</ele>
        <time>2021-04-18T10:12:27Z</time>
      </trkpt>
      <trkpt lat="43.98663" lon="2.31194">
        <ele>369</ele>
        <time>2021-04-18T10:12:28Z</time>
      </trkpt>
      <trkpt lat="43.98663" lon="2.31196">
        <ele>369</ele>
        <time>2021-04-18T10:12:29Z</time>
      </trkpt>
      <trkpt lat="43.98663" lon="2.31197">
        <ele>369</ele>
        <time>2021-04-18T10:12:30Z</time>
      </trkpt>
      <trkpt lat="43.98663" lon="2.31198">
        <ele>368</ele>
        <time>2021-04-18T10:12:31Z</time>
      </trkpt>
      <trkpt lat="43.98662" lon="2.312">
        <ele>369</ele>
        <time>2021-04-18T10:12:32Z</time>
      </trkpt>
      <trkpt lat="43.98663" lon="2.31202">
        <ele>369</ele>
        <time>2021-04-18T10:12:33Z</time>
      </trkpt>
      <trkpt lat="43.98663" lon="2.31204">
        <ele>369</ele>
        <time>2021-04-18T10:12:34Z</time>
      </trkpt>
      <trkpt lat="43.98664" lon="2.31206">
        <ele>368</ele>
        <time>2021-04-18T10:12:35Z</time>
      </trkpt>
      <trkpt lat="43.98664" lon="2.31208">
        <ele>368</ele>
        <time>2021-04-18T10:12:36Z</time>
      </trkpt>
      <trkpt lat="43.98664" lon="2.31209">
        <ele>367</ele>
        <time>2021-04-18T10:12:37Z</time>
      </trkpt>
      <trkpt lat="43.98663" lon="2.3121">
        <ele>367</ele>
        <time>2021-04-18T10:12:38Z</time>
      </trkpt>
      <trkpt lat="43.98662" lon="2.31211">
        <ele>366</ele>
        <time>2021-04-18T10:12:39Z</time>
      </trkpt>
      <trkpt lat="43.98661" lon="2.31211">
        <ele>367</ele>
        <time>2021-04-18T10:12:40Z</time>
      </trkpt>
      <trkpt lat="43.9866" lon="2.31211">
        <ele>367</ele>
        <time>2021-04-18T10:12:41Z</time>
      </trkpt>
      <trkpt lat="43.98659" lon="2.31212">
        <ele>368</ele>
        <time>2021-04-18T10:12:42Z</time>
      </trkpt>
      <trkpt lat="43.98659" lon="2.31212">
        <ele>367</ele>
        <time>2021-04-18T10:12:43Z</time>
      </trkpt>
      <trkpt lat="43.98658" lon="2.31213">
        <ele>367</ele>
        <time>2021-04-18T10:12:44Z</time>
      </trkpt>
      <trkpt lat="43.98657" lon="2.31214">
        <ele>368</ele>
        <time>2021-04-18T10:12:45Z</time>
      </trkpt>
      <trkpt lat="43.98655" lon="2.31215">
        <ele>368</ele>
        <time>2021-04-18T10:12:46Z</time>
      </trkpt>
      <trkpt lat="43.98654" lon="2.31215">
        <ele>368</ele>
        <time>2021-04-18T10:12:47Z</time>
      </trkpt>
      <trkpt lat="43.98653" lon="2.31217">
        <ele>369</ele>
        <time>2021-04-18T10:12:48Z</time>
      </trkpt>
      <trkpt lat="43.98653" lon="2.31218">
        <ele>368</ele>
        <time>2021-04-18T10:12:49Z</time>
      </trkpt>
      <trkpt lat="43.98652" lon="2.31218">
        <ele>368</ele>
        <time>2021-04-18T10:12:50Z</time>
      </trkpt>
      <trkpt lat="43.98651" lon="2.31219">
        <ele>368</ele>
        <time>2021-04-18T10:12:51Z</time>
      </trkpt>
      <trkpt lat="43.9865" lon="2.3122">
        <ele>369</ele>
        <time>2021-04-18T10:12:52Z</time>
      </trkpt>
      <trkpt lat="43.9865" lon="2.31221">
        <ele>369</ele>
        <time>2021-04-18T10:12:53Z</time>
      </trkpt>
      <trkpt lat="43.98649" lon="2.31222">
        <ele>369</ele>
        <time>2021-04-18T10:12:54Z</time>
      </trkpt>
      <trkpt lat="43.98647" lon="2.31224">
        <ele>369</ele>
        <time>2021-04-18T10:12:55Z</time>
      </trkpt>
      <trkpt lat="43.98647" lon="2.31226">
        <ele>369</ele>
        <time>2021-04-18T10:12:56Z</time>
      </trkpt>
      <trkpt lat="43.98646" lon="2.31228">
        <ele>370</ele>
        <time>2021-04-18T10:12:57Z</time>
      </trkpt>
      <trkpt lat="43.98645" lon="2.3123">
        <ele>370</ele>
        <time>2021-04-18T10:12:58Z</time>
      </trkpt>
      <trkpt lat="43.98644" lon="2.31232">
        <ele>370</ele>
        <time>2021-04-18T10:12:59Z</time>
      </trkpt>
      <trkpt lat="43.98644" lon="2.31233">
        <ele>370</ele>
        <time>2021-04-18T10:13:00Z</time>
      </trkpt>
      <trkpt lat="43.98643" lon="2.31235">
        <ele>370</ele>
        <time>2021-04-18T10:13:01Z</time>
      </trkpt>
      <trkpt lat="43.98643" lon="2.31237">
        <ele>370</ele>
        <time>2021-04-18T10:13:02Z</time>
      </trkpt>
      <trkpt lat="43.98643" lon="2.31239">
        <ele>370</ele>
        <time>2021-04-18T10:13:03Z</time>
      </trkpt>
      <trkpt lat="43.98643" lon="2.31242">
        <ele>370</ele>
        <time>2021-04-18T10:13:04Z</time>
      </trkpt>
      <trkpt lat="43.98643" lon="2.31245">
        <ele>370</ele>
        <time>2021-04-18T10:13:05Z</time>
      </trkpt>
      <trkpt lat="43.98643" lon="2.31247">
        <ele>369</ele>
        <time>2021-04-18T10:13:06Z</time>
      </trkpt>
      <trkpt lat="43.98643" lon="2.31249">
        <ele>369</ele>
        <time>2021-04-18T10:13:07Z</time>
      </trkpt>
      <trkpt lat="43.98643" lon="2.31251">
        <ele>369</ele>
        <time>2021-04-18T10:13:08Z</time>
      </trkpt>
      <trkpt lat="43.98644" lon="2.31253">
        <ele>368</ele>
        <time>2021-04-18T10:13:09Z</time>
      </trkpt>
      <trkpt lat="43.98644" lon="2.31254">
        <ele>368</ele>
        <time>2021-04-18T10:13:10Z</time>
      </trkpt>
      <trkpt lat="43.98644" lon="2.31257">
        <ele>367</ele>
        <time>2021-04-18T10:13:11Z</time>
      </trkpt>
      <trkpt lat="43.98644" lon="2.31259">
        <ele>367</ele>
        <time>2021-04-18T10:13:12Z</time>
      </trkpt>
      <trkpt lat="43.98644" lon="2.31261">
        <ele>368</ele>
        <time>2021-04-18T10:13:13Z</time>
      </trkpt>
      <trkpt lat="43.98643" lon="2.31263">
        <ele>367</ele>
        <time>2021-04-18T10:13:14Z</time>
      </trkpt>
      <trkpt lat="43.98643" lon="2.31265">
        <ele>367</ele>
        <time>2021-04-18T10:13:15Z</time>
      </trkpt>
      <trkpt lat="43.98643" lon="2.31266">
        <ele>367</ele>
        <time>2021-04-18T10:13:16Z</time>
      </trkpt>
      <trkpt lat="43.98643" lon="2.31268">
        <ele>367</ele>
        <time>2021-04-18T10:13:17Z</time>
      </trkpt>
      <trkpt lat="43.98643" lon="2.3127">
        <ele>367</ele>
        <time>2021-04-18T10:13:18Z</time>
      </trkpt>
      <trkpt lat="43.98643" lon="2.31271">
        <ele>367</ele>
        <time>2021-04-18T10:13:19Z</time>
      </trkpt>
      <trkpt lat="43.98643" lon="2.31273">
        <ele>367</ele>
        <time>2021-04-18T10:13:20Z</time>
      </trkpt>
      <trkpt lat="43.98642" lon="2.31274">
        <ele>367</ele>
        <time>2021-04-18T10:13:21Z</time>
      </trkpt>
      <trkpt lat="43.98641" lon="2.31276">
        <ele>366</ele>
        <time>2021-04-18T10:13:22Z</time>
      </trkpt>
      <trkpt lat="43.9864" lon="2.31277">
        <ele>366</ele>
        <time>2021-04-18T10:13:23Z</time>
      </trkpt>
      <trkpt lat="43.98639" lon="2.31278">
        <ele>366</ele>
        <time>2021-04-18T10:13:24Z</time>
      </trkpt>
      <trkpt lat="43.98637" lon="2.31279">
        <ele>367</ele>
        <time>2021-04-18T10:13:25Z</time>
      </trkpt>
      <trkpt lat="43.98636" lon="2.31281">
        <ele>366</ele>
        <time>2021-04-18T10:13:26Z</time>
      </trkpt>
      <trkpt lat="43.98636" lon="2.31282">
        <ele>367</ele>
        <time>2021-04-18T10:13:27Z</time>
      </trkpt>
      <trkpt lat="43.98635" lon="2.31284">
        <ele>367</ele>
        <time>2021-04-18T10:13:28Z</time>
      </trkpt>
      <trkpt lat="43.98634" lon="2.31285">
        <ele>367</ele>
        <time>2021-04-18T10:13:29Z</time>
      </trkpt>
      <trkpt lat="43.98633" lon="2.31287">
        <ele>368</ele>
        <time>2021-04-18T10:13:30Z</time>
      </trkpt>
      <trkpt lat="43.98632" lon="2.31289">
        <ele>368</ele>
        <time>2021-04-18T10:13:31Z</time>
      </trkpt>
      <trkpt lat="43.98631" lon="2.31291">
        <ele>369</ele>
        <time>2021-04-18T10:13:32Z</time>
      </trkpt>
      <trkpt lat="43.9863" lon="2.31293">
        <ele>368</ele>
        <time>2021-04-18T10:13:33Z</time>
      </trkpt>
      <trkpt lat="43.98629" lon="2.31295">
        <ele>368</ele>
        <time>2021-04-18T10:13:34Z</time>
      </trkpt>
      <trkpt lat="43.98629" lon="2.31297">
        <ele>368</ele>
        <time>2021-04-18T10:13:35Z</time>
      </trkpt>
      <trkpt lat="43.98628" lon="2.31298">
        <ele>368</ele>
        <time>2021-04-18T10:13:36Z</time>
      </trkpt>
      <trkpt lat="43.98629" lon="2.31301">
        <ele>368</ele>
        <time>2021-04-18T10:13:37Z</time>
      </trkpt>
      <trkpt lat="43.98629" lon="2.31303">
        <ele>368</ele>
        <time>2021-04-18T10:13:38Z</time>
      </trkpt>
      <trkpt lat="43.98629" lon="2.31304">
        <ele>367</ele>
        <time>2021-04-18T10:13:39Z</time>
      </trkpt>
      <trkpt lat="43.98629" lon="2.31305">
        <ele>367</ele>
        <time>2021-04-18T10:13:40Z</time>
      </trkpt>
      <trkpt lat="43.9863" lon="2.31306">
        <ele>366</ele>
        <time>2021-04-18T10:13:41Z</time>
      </trkpt>
      <trkpt lat="43.9863" lon="2.31306">
        <ele>366</ele>
        <time>2021-04-18T10:13:42Z</time>
      </trkpt>
      <trkpt lat="43.9863" lon="2.31306">
        <ele>366</ele>
        <time>2021-04-18T10:13:43Z</time>
      </trkpt>
      <trkpt lat="43.9863" lon="2.31307">
        <ele>366</ele>
        <time>2021-04-18T10:13:44Z</time>
      </trkpt>
      <trkpt lat="43.98631" lon="2.31307">
        <ele>366</ele>
        <time>2021-04-18T10:13:45Z</time>
      </trkpt>
      <trkpt lat="43.98631" lon="2.31307">
        <ele>366</ele>
        <time>2021-04-18T10:13:46Z</time>
      </trkpt>
      <trkpt lat="43.98632" lon="2.31308">
        <ele>366</ele>
        <time>2021-04-18T10:13:47Z</time>
      </trkpt>
      <trkpt lat="43.98633" lon="2.31308">
        <ele>366</ele>
        <time>2021-04-18T10:13:48Z</time>
      </trkpt>
      <trkpt lat="43.98633" lon="2.31309">
        <ele>366</ele>
        <time>2021-04-18T10:13:49Z</time>
      </trkpt>
      <trkpt lat="43.98633" lon="2.31309">
        <ele>366</ele>
        <time>2021-04-18T10:13:49Z</time>
      </trkpt>
      <trkpt lat="43.98633" lon="2.31309">
        <ele>366</ele>
        <time>2021-04-18T10:13:49Z</time>
      </trkpt>
      <trkpt lat="43.98642" lon="2.31316">
        <ele>364</ele>
        <time>2021-04-18T10:14:16Z</time>
      </trkpt>
      <trkpt lat="43.98643" lon="2.31316">
        <ele>364</ele>
        <time>2021-04-18T10:14:17Z</time>
      </trkpt>
      <trkpt lat="43.98644" lon="2.31316">
        <ele>364</ele>
        <time>2021-04-18T10:14:18Z</time>
      </trkpt>
      <trkpt lat="43.98646" lon="2.31317">
        <ele>364</ele>
        <time>2021-04-18T10:14:19Z</time>
      </trkpt>
      <trkpt lat="43.98647" lon="2.31317">
        <ele>363</ele>
        <time>2021-04-18T10:14:20Z</time>
      </trkpt>
      <trkpt lat="43.98649" lon="2.31317">
        <ele>364</ele>
        <time>2021-04-18T10:14:21Z</time>
      </trkpt>
      <trkpt lat="43.9865" lon="2.31318">
        <ele>364</ele>
        <time>2021-04-18T10:14:22Z</time>
      </trkpt>
      <trkpt lat="43.98651" lon="2.31318">
        <ele>364</ele>
        <time>2021-04-18T10:14:23Z</time>
      </trkpt>
      <trkpt lat="43.98652" lon="2.31318">
        <ele>365</ele>
        <time>2021-04-18T10:14:24Z</time>
      </trkpt>
      <trkpt lat="43.98654" lon="2.31318">
        <ele>364</ele>
        <time>2021-04-18T10:14:25Z</time>
      </trkpt>
      <trkpt lat="43.98655" lon="2.31317">
        <ele>365</ele>
        <time>2021-04-18T10:14:26Z</time>
      </trkpt>
      <trkpt lat="43.98657" lon="2.31317">
        <ele>365</ele>
        <time>2021-04-18T10:14:27Z</time>
      </trkpt>
      <trkpt lat="43.98658" lon="2.31317">
        <ele>365</ele>
        <time>2021-04-18T10:14:28Z</time>
      </trkpt>
      <trkpt lat="43.9866" lon="2.31317">
        <ele>365</ele>
        <time>2021-04-18T10:14:29Z</time>
      </trkpt>
      <trkpt lat="43.98661" lon="2.31318">
        <ele>365</ele>
        <time>2021-04-18T10:14:30Z</time>
      </trkpt>
      <trkpt lat="43.98663" lon="2.31318">
        <ele>364</ele>
        <time>2021-04-18T10:14:31Z</time>
      </trkpt>
      <trkpt lat="43.98665" lon="2.31319">
        <ele>363</ele>
        <time>2021-04-18T10:14:32Z</time>
      </trkpt>
      <trkpt lat="43.98666" lon="2.31319">
        <ele>363</ele>
        <time>2021-04-18T10:14:33Z</time>
      </trkpt>
      <trkpt lat="43.98668" lon="2.31318">
        <ele>363</ele>
        <time>2021-04-18T10:14:34Z</time>
      </trkpt>
      <trkpt lat="43.98669" lon="2.31316">
        <ele>364</ele>
        <time>2021-04-18T10:14:35Z</time>
      </trkpt>
      <trkpt lat="43.9867" lon="2.31316">
        <ele>363</ele>
        <time>2021-04-18T10:14:36Z</time>
      </trkpt>
      <trkpt lat="43.98671" lon="2.31315">
        <ele>363</ele>
        <time>2021-04-18T10:14:37Z</time>
      </trkpt>
      <trkpt lat="43.98673" lon="2.31315">
        <ele>363</ele>
        <time>2021-04-18T10:14:38Z</time>
      </trkpt>
      <trkpt lat="43.98674" lon="2.31314">
        <ele>363</ele>
        <time>2021-04-18T10:14:39Z</time>
      </trkpt>
      <trkpt lat="43.98676" lon="2.31314">
        <ele>363</ele>
        <time>2021-04-18T10:14:40Z</time>
      </trkpt>
      <trkpt lat="43.98677" lon="2.31315">
        <ele>363</ele>
        <time>2021-04-18T10:14:41Z</time>
      </trkpt>
      <trkpt lat="43.98679" lon="2.31315">
        <ele>363</ele>
        <time>2021-04-18T10:14:42Z</time>
      </trkpt>
      <trkpt lat="43.98681" lon="2.31315">
        <ele>363</ele>
        <time>2021-04-18T10:14:43Z</time>
      </trkpt>
      <trkpt lat="43.98683" lon="2.31315">
        <ele>364</ele>
        <time>2021-04-18T10:14:44Z</time>
      </trkpt>
      <trkpt lat="43.98684" lon="2.31315">
        <ele>363</ele>
        <time>2021-04-18T10:14:45Z</time>
      </trkpt>
      <trkpt lat="43.98686" lon="2.31316">
        <ele>363</ele>
        <time>2021-04-18T10:14:46Z</time>
      </trkpt>
      <trkpt lat="43.98687" lon="2.31316">
        <ele>364</ele>
        <time>2021-04-18T10:14:47Z</time>
      </trkpt>
      <trkpt lat="43.98689" lon="2.31315">
        <ele>364</ele>
        <time>2021-04-18T10:14:48Z</time>
      </trkpt>
      <trkpt lat="43.9869" lon="2.31314">
        <ele>364</ele>
        <time>2021-04-18T10:14:49Z</time>
      </trkpt>
      <trkpt lat="43.98691" lon="2.31314">
        <ele>364</ele>
        <time>2021-04-18T10:14:50Z</time>
      </trkpt>
      <trkpt lat="43.98692" lon="2.31314">
        <ele>365</ele>
        <time>2021-04-18T10:14:51Z</time>
      </trkpt>
      <trkpt lat="43.98692" lon="2.31314">
        <ele>365</ele>
        <time>2021-04-18T10:14:52Z</time>
      </trkpt>
      <trkpt lat="43.98695" lon="2.31314">
        <ele>365</ele>
        <time>2021-04-18T10:14:53Z</time>
      </trkpt>
      <trkpt lat="43.98697" lon="2.31314">
        <ele>365</ele>
        <time>2021-04-18T10:14:54Z</time>
      </trkpt>
      <trkpt lat="43.98698" lon="2.31315">
        <ele>365</ele>
        <time>2021-04-18T10:14:55Z</time>
      </trkpt>
      <trkpt lat="43.987" lon="2.31316">
        <ele>364</ele>
        <time>2021-04-18T10:14:56Z</time>
      </trkpt>
      <trkpt lat="43.98702" lon="2.31316">
        <ele>365</ele>
        <time>2021-04-18T10:14:57Z</time>
      </trkpt>
      <trkpt lat="43.98703" lon="2.31317">
        <ele>364</ele>
        <time>2021-04-18T10:14:58Z</time>
      </trkpt>
      <trkpt lat="43.98704" lon="2.31317">
        <ele>364</ele>
        <time>2021-04-18T10:14:59Z</time>
      </trkpt>
      <trkpt lat="43.98706" lon="2.31317">
        <ele>365</ele>
        <time>2021-04-18T10:15:00Z</time>
      </trkpt>
      <trkpt lat="43.98708" lon="2.31318">
        <ele>365</ele>
        <time>2021-04-18T10:15:01Z</time>
      </trkpt>
      <trkpt lat="43.98709" lon="2.31319">
        <ele>365</ele>
        <time>2021-04-18T10:15:02Z</time>
      </trkpt>
      <trkpt lat="43.98711" lon="2.31319">
        <ele>366</ele>
        <time>2021-04-18T10:15:03Z</time>
      </trkpt>
      <trkpt lat="43.98712" lon="2.3132">
        <ele>365</ele>
        <time>2021-04-18T10:15:04Z</time>
      </trkpt>
      <trkpt lat="43.98714" lon="2.31321">
        <ele>365</ele>
        <time>2021-04-18T10:15:05Z</time>
      </trkpt>
      <trkpt lat="43.98715" lon="2.31322">
        <ele>364</ele>
        <time>2021-04-18T10:15:06Z</time>
      </trkpt>
      <trkpt lat="43.98716" lon="2.31322">
        <ele>364</ele>
        <time>2021-04-18T10:15:07Z</time>
      </trkpt>
      <trkpt lat="43.98718" lon="2.31323">
        <ele>364</ele>
        <time>2021-04-18T10:15:08Z</time>
      </trkpt>
      <trkpt lat="43.98719" lon="2.31324">
        <ele>363</ele>
        <time>2021-04-18T10:15:09Z</time>
      </trkpt>
      <trkpt lat="43.98719" lon="2.31325">
        <ele>363</ele>
        <time>2021-04-18T10:15:10Z</time>
      </trkpt>
      <trkpt lat="43.98719" lon="2.31326">
        <ele>363</ele>
        <time>2021-04-18T10:15:11Z</time>
      </trkpt>
      <trkpt lat="43.98719" lon="2.31327">
        <ele>363</ele>
        <time>2021-04-18T10:15:12Z</time>
      </trkpt>
      <trkpt lat="43.98719" lon="2.31328">
        <ele>364</ele>
        <time>2021-04-18T10:15:13Z</time>
      </trkpt>
      <trkpt lat="43.9872" lon="2.31329">
        <ele>363</ele>
        <time>2021-04-18T10:15:14Z</time>
      </trkpt>
      <trkpt lat="43.9872" lon="2.3133">
        <ele>363</ele>
        <time>2021-04-18T10:15:15Z</time>
      </trkpt>
      <trkpt lat="43.9872" lon="2.31331">
        <ele>364</ele>
        <time>2021-04-18T10:15:16Z</time>
      </trkpt>
      <trkpt lat="43.9872" lon="2.31331">
        <ele>365</ele>
        <time>2021-04-18T10:15:17Z</time>
      </trkpt>
      <trkpt lat="43.9872" lon="2.31332">
        <ele>365</ele>
        <time>2021-04-18T10:15:18Z</time>
      </trkpt>
      <trkpt lat="43.98719" lon="2.31334">
        <ele>366</ele>
        <time>2021-04-18T10:15:19Z</time>
      </trkpt>
      <trkpt lat="43.98719" lon="2.31334">
        <ele>366</ele>
        <time>2021-04-18T10:15:20Z</time>
      </trkpt>
      <trkpt lat="43.9872" lon="2.31335">
        <ele>366</ele>
        <time>2021-04-18T10:15:21Z</time>
      </trkpt>
      <trkpt lat="43.9872" lon="2.31335">
        <ele>367</ele>
        <time>2021-04-18T10:15:22Z</time>
      </trkpt>
      <trkpt lat="43.9872" lon="2.31336">
        <ele>368</ele>
        <time>2021-04-18T10:15:23Z</time>
      </trkpt>
      <trkpt lat="43.9872" lon="2.31338">
        <ele>368</ele>
        <time>2021-04-18T10:15:24Z</time>
      </trkpt>
      <trkpt lat="43.9872" lon="2.3134">
        <ele>368</ele>
        <time>2021-04-18T10:15:25Z</time>
      </trkpt>
      <trkpt lat="43.9872" lon="2.31341">
        <ele>368</ele>
        <time>2021-04-18T10:15:26Z</time>
      </trkpt>
      <trkpt lat="43.98721" lon="2.31343">
        <ele>369</ele>
        <time>2021-04-18T10:15:27Z</time>
      </trkpt>
      <trkpt lat="43.98721" lon="2.31344">
        <ele>370</ele>
        <time>2021-04-18T10:15:28Z</time>
      </trkpt>
      <trkpt lat="43.98721" lon="2.31345">
        <ele>371</ele>
        <time>2021-04-18T10:15:29Z</time>
      </trkpt>
      <trkpt lat="43.98721" lon="2.31346">
        <ele>371</ele>
        <time>2021-04-18T10:15:30Z</time>
      </trkpt>
      <trkpt lat="43.98721" lon="2.31348">
        <ele>372</ele>
        <time>2021-04-18T10:15:31Z</time>
      </trkpt>
      <trkpt lat="43.98721" lon="2.31349">
        <ele>372</ele>
        <time>2021-04-18T10:15:32Z</time>
      </trkpt>
      <trkpt lat="43.98721" lon="2.3135">
        <ele>372</ele>
        <time>2021-04-18T10:15:33Z</time>
      </trkpt>
      <trkpt lat="43.98722" lon="2.31352">
        <ele>372</ele>
        <time>2021-04-18T10:15:34Z</time>
      </trkpt>
      <trkpt lat="43.98722" lon="2.31353">
        <ele>374</ele>
        <time>2021-04-18T10:15:35Z</time>
      </trkpt>
      <trkpt lat="43.98722" lon="2.31354">
        <ele>374</ele>
        <time>2021-04-18T10:15:36Z</time>
      </trkpt>
      <trkpt lat="43.98722" lon="2.31355">
        <ele>374</ele>
        <time>2021-04-18T10:15:37Z</time>
      </trkpt>
      <trkpt lat="43.98722" lon="2.31356">
        <ele>374</ele>
        <time>2021-04-18T10:15:38Z</time>
      </trkpt>
      <trkpt lat="43.98721" lon="2.31358">
        <ele>374</ele>
        <time>2021-04-18T10:15:39Z</time>
      </trkpt>
      <trkpt lat="43.98721" lon="2.31359">
        <ele>374</ele>
        <time>2021-04-18T10:15:40Z</time>
      </trkpt>
      <trkpt lat="43.98721" lon="2.3136">
        <ele>374</ele>
        <time>2021-04-18T10:15:41Z</time>
      </trkpt>
      <trkpt lat="43.98721" lon="2.31361">
        <ele>375</ele>
        <time>2021-04-18T10:15:42Z</time>
      </trkpt>
      <trkpt lat="43.98721" lon="2.31361">
        <ele>376</ele>
        <time>2021-04-18T10:15:43Z</time>
      </trkpt>
      <trkpt lat="43.98721" lon="2.31363">
        <ele>376</ele>
        <time>2021-04-18T10:15:44Z</time>
      </trkpt>
      <trkpt lat="43.98721" lon="2.31364">
        <ele>376</ele>
        <time>2021-04-18T10:15:45Z</time>
      </trkpt>
      <trkpt lat="43.9872" lon="2.31365">
        <ele>377</ele>
        <time>2021-04-18T10:15:46Z</time>
      </trkpt>
      <trkpt lat="43.98719" lon="2.31366">
        <ele>377</ele>
        <time>2021-04-18T10:15:47Z</time>
      </trkpt>
      <trkpt lat="43.9872" lon="2.31367">
        <ele>377</ele>
        <time>2021-04-18T10:15:48Z</time>
      </trkpt>
      <trkpt lat="43.9872" lon="2.31369">
        <ele>377</ele>
        <time>2021-04-18T10:15:49Z</time>
      </trkpt>
      <trkpt lat="43.98719" lon="2.3137">
        <ele>377</ele>
        <time>2021-04-18T10:15:50Z</time>
      </trkpt>
      <trkpt lat="43.98719" lon="2.31372">
        <ele>378</ele>
        <time>2021-04-18T10:15:51Z</time>
      </trkpt>
      <trkpt lat="43.9872" lon="2.31373">
        <ele>380</ele>
        <time>2021-04-18T10:15:52Z</time>
      </trkpt>
      <trkpt lat="43.98719" lon="2.31374">
        <ele>380</ele>
        <time>2021-04-18T10:15:53Z</time>
      </trkpt>
      <trkpt lat="43.98719" lon="2.31377">
        <ele>379</ele>
        <time>2021-04-18T10:15:54Z</time>
      </trkpt>
      <trkpt lat="43.9872" lon="2.31379">
        <ele>378</ele>
        <time>2021-04-18T10:15:55Z</time>
      </trkpt>
      <trkpt lat="43.98721" lon="2.31382">
        <ele>377</ele>
        <time>2021-04-18T10:15:56Z</time>
      </trkpt>
      <trkpt lat="43.98721" lon="2.31384">
        <ele>376</ele>
        <time>2021-04-18T10:15:57Z</time>
      </trkpt>
      <trkpt lat="43.98722" lon="2.31386">
        <ele>375</ele>
        <time>2021-04-18T10:15:58Z</time>
      </trkpt>
      <trkpt lat="43.98722" lon="2.31388">
        <ele>375</ele>
        <time>2021-04-18T10:15:59Z</time>
      </trkpt>
      <trkpt lat="43.98722" lon="2.31389">
        <ele>375</ele>
        <time>2021-04-18T10:16:00Z</time>
      </trkpt>
      <trkpt lat="43.98721" lon="2.31391">
        <ele>375</ele>
        <time>2021-04-18T10:16:01Z</time>
      </trkpt>
      <trkpt lat="43.9872" lon="2.31392">
        <ele>375</ele>
        <time>2021-04-18T10:16:02Z</time>
      </trkpt>
      <trkpt lat="43.9872" lon="2.31393">
        <ele>375</ele>
        <time>2021-04-18T10:16:03Z</time>
      </trkpt>
      <trkpt lat="43.9872" lon="2.31393">
        <ele>375</ele>
        <time>2021-04-18T10:16:04Z</time>
      </trkpt>
      <trkpt lat="43.9872" lon="2.31393">
        <ele>375</ele>
        <time>2021-04-18T10:16:05Z</time>
      </trkpt>
      <trkpt lat="43.9872" lon="2.31393">
        <ele>375</ele>
        <time>2021-04-18T10:16:06Z</time>
      </trkpt>
      <trkpt lat="43.9872" lon="2.31394">
        <ele>374</ele>
        <time>2021-04-18T10:16:07Z</time>
      </trkpt>
      <trkpt lat="43.9872" lon="2.31395">
        <ele>373</ele>
        <time>2021-04-18T10:16:08Z</time>
      </trkpt>
      <trkpt lat="43.98721" lon="2.31395">
        <ele>374</ele>
        <time>2021-04-18T10:16:09Z</time>
      </trkpt>
      <trkpt lat="43.98721" lon="2.31395">
        <ele>374</ele>
        <time>2021-04-18T10:16:10Z</time>
      </trkpt>
      <trkpt lat="43.98721" lon="2.31395">
        <ele>374</ele>
        <time>2021-04-18T10:16:11Z</time>
      </trkpt>
      <trkpt lat="43.98722" lon="2.31394">
        <ele>374</ele>
        <time>2021-04-18T10:16:12Z</time>
      </trkpt>
      <trkpt lat="43.98722" lon="2.31394">
        <ele>374</ele>
        <time>2021-04-18T10:16:13Z</time>
      </trkpt>
      <trkpt lat="43.98722" lon="2.31394">
        <ele>375</ele>
        <time>2021-04-18T10:16:14Z</time>
      </trkpt>
      <trkpt lat="43.98722" lon="2.31393">
        <ele>375</ele>
        <time>2021-04-18T10:16:15Z</time>
      </trkpt>
      <trkpt lat="43.98722" lon="2.31393">
        <ele>374</ele>
        <time>2021-04-18T10:16:16Z</time>
      </trkpt>
      <trkpt lat="43.98722" lon="2.31392">
        <ele>375</ele>
        <time>2021-04-18T10:16:17Z</time>
      </trkpt>
      <trkpt lat="43.98723" lon="2.31391">
        <ele>376</ele>
        <time>2021-04-18T10:16:18Z</time>
      </trkpt>
      <trkpt lat="43.98723" lon="2.3139">
        <ele>376</ele>
        <time>2021-04-18T10:16:19Z</time>
      </trkpt>
      <trkpt lat="43.98723" lon="2.3139">
        <ele>377</ele>
        <time>2021-04-18T10:16:20Z</time>
      </trkpt>
      <trkpt lat="43.98723" lon="2.31389">
        <ele>378</ele>
        <time>2021-04-18T10:16:21Z</time>
      </trkpt>
      <trkpt lat="43.98723" lon="2.31388">
        <ele>378</ele>
        <time>2021-04-18T10:16:22Z</time>
      </trkpt>
      <trkpt lat="43.98723" lon="2.31386">
        <ele>379</ele>
        <time>2021-04-18T10:16:23Z</time>
      </trkpt>
      <trkpt lat="43.98723" lon="2.31385">
        <ele>379</ele>
        <time>2021-04-18T10:16:24Z</time>
      </trkpt>
      <trkpt lat="43.98722" lon="2.31384">
        <ele>378</ele>
        <time>2021-04-18T10:16:25Z</time>
      </trkpt>
      <trkpt lat="43.98722" lon="2.31383">
        <ele>378</ele>
        <time>2021-04-18T10:16:26Z</time>
      </trkpt>
      <trkpt lat="43.98722" lon="2.31382">
        <ele>379</ele>
        <time>2021-04-18T10:16:27Z</time>
      </trkpt>
      <trkpt lat="43.98721" lon="2.31382">
        <ele>379</ele>
        <time>2021-04-18T10:16:28Z</time>
      </trkpt>
      <trkpt lat="43.98721" lon="2.3138">
        <ele>379</ele>
        <time>2021-04-18T10:16:29Z</time>
      </trkpt>
      <trkpt lat="43.98721" lon="2.31379">
        <ele>380</ele>
        <time>2021-04-18T10:16:30Z</time>
      </trkpt>
      <trkpt lat="43.9872" lon="2.31377">
        <ele>380</ele>
        <time>2021-04-18T10:16:31Z</time>
      </trkpt>
      <trkpt lat="43.9872" lon="2.31376">
        <ele>380</ele>
        <time>2021-04-18T10:16:32Z</time>
      </trkpt>
      <trkpt lat="43.98719" lon="2.31375">
        <ele>379</ele>
        <time>2021-04-18T10:16:33Z</time>
      </trkpt>
      <trkpt lat="43.98718" lon="2.31375">
        <ele>379</ele>
        <time>2021-04-18T10:16:34Z</time>
      </trkpt>
      <trkpt lat="43.98717" lon="2.31374">
        <ele>379</ele>
        <time>2021-04-18T10:16:35Z</time>
      </trkpt>
      <trkpt lat="43.98717" lon="2.31372">
        <ele>380</ele>
        <time>2021-04-18T10:16:36Z</time>
      </trkpt>
      <trkpt lat="43.98716" lon="2.31372">
        <ele>380</ele>
        <time>2021-04-18T10:16:37Z</time>
      </trkpt>
      <trkpt lat="43.98715" lon="2.31371">
        <ele>381</ele>
        <time>2021-04-18T10:16:38Z</time>
      </trkpt>
      <trkpt lat="43.98715" lon="2.31371">
        <ele>381</ele>
        <time>2021-04-18T10:16:39Z</time>
      </trkpt>
      <trkpt lat="43.98715" lon="2.31371">
        <ele>381</ele>
        <time>2021-04-18T10:16:40Z</time>
      </trkpt>
      <trkpt lat="43.9871" lon="2.31368">
        <ele>380</ele>
        <time>2021-04-18T10:16:41Z</time>
      </trkpt>
      <trkpt lat="43.98709" lon="2.31367">
        <ele>380</ele>
        <time>2021-04-18T10:16:42Z</time>
      </trkpt>
      <trkpt lat="43.98708" lon="2.31366">
        <ele>380</ele>
        <time>2021-04-18T10:16:43Z</time>
      </trkpt>
      <trkpt lat="43.98707" lon="2.31365">
        <ele>380</ele>
        <time>2021-04-18T10:16:44Z</time>
      </trkpt>
      <trkpt lat="43.98705" lon="2.31365">
        <ele>381</ele>
        <time>2021-04-18T10:16:45Z</time>
      </trkpt>
      <trkpt lat="43.98703" lon="2.31365">
        <ele>381</ele>
        <time>2021-04-18T10:16:46Z</time>
      </trkpt>
      <trkpt lat="43.98702" lon="2.31365">
        <ele>381</ele>
        <time>2021-04-18T10:16:47Z</time>
      </trkpt>
      <trkpt lat="43.987" lon="2.31366">
        <ele>381</ele>
        <time>2021-04-18T10:16:48Z</time>
      </trkpt>
      <trkpt lat="43.98699" lon="2.31366">
        <ele>381</ele>
        <time>2021-04-18T10:16:49Z</time>
      </trkpt>
      <trkpt lat="43.98697" lon="2.31367">
        <ele>382</ele>
        <time>2021-04-18T10:16:50Z</time>
      </trkpt>
      <trkpt lat="43.98696" lon="2.31367">
        <ele>383</ele>
        <time>2021-04-18T10:16:51Z</time>
      </trkpt>
      <trkpt lat="43.98695" lon="2.31368">
        <ele>384</ele>
        <time>2021-04-18T10:16:52Z</time>
      </trkpt>
      <trkpt lat="43.98694" lon="2.3137">
        <ele>385</ele>
        <time>2021-04-18T10:16:53Z</time>
      </trkpt>
      <trkpt lat="43.98693" lon="2.3137">
        <ele>386</ele>
        <time>2021-04-18T10:16:54Z</time>
      </trkpt>
      <trkpt lat="43.98692" lon="2.31371">
        <ele>386</ele>
        <time>2021-04-18T10:16:55Z</time>
      </trkpt>
      <trkpt lat="43.98691" lon="2.31372">
        <ele>386</ele>
        <time>2021-04-18T10:16:56Z</time>
      </trkpt>
      <trkpt lat="43.98691" lon="2.31372">
        <ele>388</ele>
        <time>2021-04-18T10:16:57Z</time>
      </trkpt>
      <trkpt lat="43.9869" lon="2.31374">
        <ele>388</ele>
        <time>2021-04-18T10:16:58Z</time>
      </trkpt>
      <trkpt lat="43.98689" lon="2.31375">
        <ele>388</ele>
        <time>2021-04-18T10:16:59Z</time>
      </trkpt>
      <trkpt lat="43.98689" lon="2.31376">
        <ele>389</ele>
        <time>2021-04-18T10:17:00Z</time>
      </trkpt>
      <trkpt lat="43.98689" lon="2.31378">
        <ele>390</ele>
        <time>2021-04-18T10:17:01Z</time>
      </trkpt>
      <trkpt lat="43.98688" lon="2.31379">
        <ele>390</ele>
        <time>2021-04-18T10:17:02Z</time>
      </trkpt>
      <trkpt lat="43.98688" lon="2.31379">
        <ele>390</ele>
        <time>2021-04-18T10:17:03Z</time>
      </trkpt>
      <trkpt lat="43.98687" lon="2.3138">
        <ele>390</ele>
        <time>2021-04-18T10:17:04Z</time>
      </trkpt>
      <trkpt lat="43.98687" lon="2.31381">
        <ele>390</ele>
        <time>2021-04-18T10:17:05Z</time>
      </trkpt>
      <trkpt lat="43.98686" lon="2.31383">
        <ele>390</ele>
        <time>2021-04-18T10:17:06Z</time>
      </trkpt>
      <trkpt lat="43.98685" lon="2.31384">
        <ele>391</ele>
        <time>2021-04-18T10:17:07Z</time>
      </trkpt>
      <trkpt lat="43.98684" lon="2.31385">
        <ele>391</ele>
        <time>2021-04-18T10:17:08Z</time>
      </trkpt>
      <trkpt lat="43.98683" lon="2.31387">
        <ele>392</ele>
        <time>2021-04-18T10:17:09Z</time>
      </trkpt>
      <trkpt lat="43.98682" lon="2.31388">
        <ele>393</ele>
        <time>2021-04-18T10:17:10Z</time>
      </trkpt>
      <trkpt lat="43.98682" lon="2.31389">
        <ele>393</ele>
        <time>2021-04-18T10:17:11Z</time>
      </trkpt>
      <trkpt lat="43.98681" lon="2.3139">
        <ele>393</ele>
        <time>2021-04-18T10:17:12Z</time>
      </trkpt>
      <trkpt lat="43.9868" lon="2.31391">
        <ele>394</ele>
        <time>2021-04-18T10:17:13Z</time>
      </trkpt>
      <trkpt lat="43.9868" lon="2.31392">
        <ele>394</ele>
        <time>2021-04-18T10:17:14Z</time>
      </trkpt>
      <trkpt lat="43.98679" lon="2.31392">
        <ele>394</ele>
        <time>2021-04-18T10:17:15Z</time>
      </trkpt>
      <trkpt lat="43.98679" lon="2.31393">
        <ele>394</ele>
        <time>2021-04-18T10:17:16Z</time>
      </trkpt>
      <trkpt lat="43.98678" lon="2.31394">
        <ele>395</ele>
        <time>2021-04-18T10:17:17Z</time>
      </trkpt>
      <trkpt lat="43.98677" lon="2.31395">
        <ele>395</ele>
        <time>2021-04-18T10:17:18Z</time>
      </trkpt>
      <trkpt lat="43.98677" lon="2.31396">
        <ele>395</ele>
        <time>2021-04-18T10:17:19Z</time>
      </trkpt>
      <trkpt lat="43.98676" lon="2.31398">
        <ele>396</ele>
        <time>2021-04-18T10:17:20Z</time>
      </trkpt>
      <trkpt lat="43.98675" lon="2.31398">
        <ele>396</ele>
        <time>2021-04-18T10:17:21Z</time>
      </trkpt>
      <trkpt lat="43.98675" lon="2.31398">
        <ele>396</ele>
        <time>2021-04-18T10:17:22Z</time>
      </trkpt>
      <trkpt lat="43.98675" lon="2.31398">
        <ele>396</ele>
        <time>2021-04-18T10:17:23Z</time>
      </trkpt>
      <trkpt lat="43.98673" lon="2.31401">
        <ele>397</ele>
        <time>2021-04-18T10:17:24Z</time>
      </trkpt>
      <trkpt lat="43.98673" lon="2.31402">
        <ele>398</ele>
        <time>2021-04-18T10:17:25Z</time>
      </trkpt>
      <trkpt lat="43.98672" lon="2.31403">
        <ele>398</ele>
        <time>2021-04-18T10:17:26Z</time>
      </trkpt>
      <trkpt lat="43.98671" lon="2.31404">
        <ele>399</ele>
        <time>2021-04-18T10:17:27Z</time>
      </trkpt>
      <trkpt lat="43.9867" lon="2.31405">
        <ele>398</ele>
        <time>2021-04-18T10:17:28Z</time>
      </trkpt>
      <trkpt lat="43.98669" lon="2.31406">
        <ele>399</ele>
        <time>2021-04-18T10:17:29Z</time>
      </trkpt>
      <trkpt lat="43.98669" lon="2.31407">
        <ele>400</ele>
        <time>2021-04-18T10:17:30Z</time>
      </trkpt>
      <trkpt lat="43.98668" lon="2.31408">
        <ele>400</ele>
        <time>2021-04-18T10:17:31Z</time>
      </trkpt>
      <trkpt lat="43.98667" lon="2.31409">
        <ele>401</ele>
        <time>2021-04-18T10:17:32Z</time>
      </trkpt>
      <trkpt lat="43.98666" lon="2.3141">
        <ele>402</ele>
        <time>2021-04-18T10:17:33Z</time>
      </trkpt>
      <trkpt lat="43.98666" lon="2.31411">
        <ele>402</ele>
        <time>2021-04-18T10:17:34Z</time>
      </trkpt>
      <trkpt lat="43.98665" lon="2.31412">
        <ele>401</ele>
        <time>2021-04-18T10:17:35Z</time>
      </trkpt>
      <trkpt lat="43.98665" lon="2.31413">
        <ele>401</ele>
        <time>2021-04-18T10:17:36Z</time>
      </trkpt>
      <trkpt lat="43.98664" lon="2.31414">
        <ele>401</ele>
        <time>2021-04-18T10:17:37Z</time>
      </trkpt>
      <trkpt lat="43.98663" lon="2.31415">
        <ele>401</ele>
        <time>2021-04-18T10:17:38Z</time>
      </trkpt>
      <trkpt lat="43.98662" lon="2.31417">
        <ele>402</ele>
        <time>2021-04-18T10:17:39Z</time>
      </trkpt>
      <trkpt lat="43.98661" lon="2.31418">
        <ele>402</ele>
        <time>2021-04-18T10:17:40Z</time>
      </trkpt>
      <trkpt lat="43.9866" lon="2.31418">
        <ele>403</ele>
        <time>2021-04-18T10:17:41Z</time>
      </trkpt>
      <trkpt lat="43.9866" lon="2.31418">
        <ele>404</ele>
        <time>2021-04-18T10:17:42Z</time>
      </trkpt>
      <trkpt lat="43.98659" lon="2.31419">
        <ele>404</ele>
        <time>2021-04-18T10:17:43Z</time>
      </trkpt>
      <trkpt lat="43.98658" lon="2.3142">
        <ele>404</ele>
        <time>2021-04-18T10:17:44Z</time>
      </trkpt>
      <trkpt lat="43.98657" lon="2.31421">
        <ele>405</ele>
        <time>2021-04-18T10:17:45Z</time>
      </trkpt>
      <trkpt lat="43.98657" lon="2.31421">
        <ele>405</ele>
        <time>2021-04-18T10:17:46Z</time>
      </trkpt>
      <trkpt lat="43.98657" lon="2.31421">
        <ele>405</ele>
        <time>2021-04-18T10:17:47Z</time>
      </trkpt>
      <trkpt lat="43.98657" lon="2.31421">
        <ele>405</ele>
        <time>2021-04-18T10:17:48Z</time>
      </trkpt>
      <trkpt lat="43.98655" lon="2.31424">
        <ele>406</ele>
        <time>2021-04-18T10:17:49Z</time>
      </trkpt>
      <trkpt lat="43.98654" lon="2.31425">
        <ele>407</ele>
        <time>2021-04-18T10:17:50Z</time>
      </trkpt>
      <trkpt lat="43.98653" lon="2.31427">
        <ele>407</ele>
        <time>2021-04-18T10:17:51Z</time>
      </trkpt>
      <trkpt lat="43.98653" lon="2.31428">
        <ele>407</ele>
        <time>2021-04-18T10:17:52Z</time>
      </trkpt>
      <trkpt lat="43.98652" lon="2.3143">
        <ele>406</ele>
        <time>2021-04-18T10:17:53Z</time>
      </trkpt>
      <trkpt lat="43.98651" lon="2.31431">
        <ele>406</ele>
        <time>2021-04-18T10:17:54Z</time>
      </trkpt>
      <trkpt lat="43.9865" lon="2.31432">
        <ele>406</ele>
        <time>2021-04-18T10:17:55Z</time>
      </trkpt>
      <trkpt lat="43.98649" lon="2.31433">
        <ele>406</ele>
        <time>2021-04-18T10:17:56Z</time>
      </trkpt>
      <trkpt lat="43.98649" lon="2.31434">
        <ele>406</ele>
        <time>2021-04-18T10:17:57Z</time>
      </trkpt>
      <trkpt lat="43.98649" lon="2.31436">
        <ele>406</ele>
        <time>2021-04-18T10:17:58Z</time>
      </trkpt>
      <trkpt lat="43.98648" lon="2.31437">
        <ele>407</ele>
        <time>2021-04-18T10:17:59Z</time>
      </trkpt>
      <trkpt lat="43.98648" lon="2.31437">
        <ele>407</ele>
        <time>2021-04-18T10:18:00Z</time>
      </trkpt>
      <trkpt lat="43.98646" lon="2.31439">
        <ele>407</ele>
        <time>2021-04-18T10:18:01Z</time>
      </trkpt>
      <trkpt lat="43.98645" lon="2.3144">
        <ele>407</ele>
        <time>2021-04-18T10:18:02Z</time>
      </trkpt>
      <trkpt lat="43.98645" lon="2.31441">
        <ele>406</ele>
        <time>2021-04-18T10:18:03Z</time>
      </trkpt>
      <trkpt lat="43.98644" lon="2.31443">
        <ele>407</ele>
        <time>2021-04-18T10:18:04Z</time>
      </trkpt>
      <trkpt lat="43.98644" lon="2.31444">
        <ele>407</ele>
        <time>2021-04-18T10:18:05Z</time>
      </trkpt>
      <trkpt lat="43.98643" lon="2.31445">
        <ele>407</ele>
        <time>2021-04-18T10:18:06Z</time>
      </trkpt>
      <trkpt lat="43.98642" lon="2.31446">
        <ele>407</ele>
        <time>2021-04-18T10:18:07Z</time>
      </trkpt>
      <trkpt lat="43.98641" lon="2.31447">
        <ele>407</ele>
        <time>2021-04-18T10:18:08Z</time>
      </trkpt>
      <trkpt lat="43.9864" lon="2.31448">
        <ele>407</ele>
        <time>2021-04-18T10:18:09Z</time>
      </trkpt>
      <trkpt lat="43.98639" lon="2.31449">
        <ele>407</ele>
        <time>2021-04-18T10:18:10Z</time>
      </trkpt>
      <trkpt lat="43.98639" lon="2.31451">
        <ele>408</ele>
        <time>2021-04-18T10:18:11Z</time>
      </trkpt>
      <trkpt lat="43.98637" lon="2.31451">
        <ele>408</ele>
        <time>2021-04-18T10:18:12Z</time>
      </trkpt>
      <trkpt lat="43.98636" lon="2.31452">
        <ele>408</ele>
        <time>2021-04-18T10:18:13Z</time>
      </trkpt>
      <trkpt lat="43.98636" lon="2.31452">
        <ele>408</ele>
        <time>2021-04-18T10:18:14Z</time>
      </trkpt>
      <trkpt lat="43.98634" lon="2.31452">
        <ele>408</ele>
        <time>2021-04-18T10:18:15Z</time>
      </trkpt>
      <trkpt lat="43.98634" lon="2.31452">
        <ele>408</ele>
        <time>2021-04-18T10:18:16Z</time>
      </trkpt>
      <trkpt lat="43.98633" lon="2.31452">
        <ele>409</ele>
        <time>2021-04-18T10:18:17Z</time>
      </trkpt>
      <trkpt lat="43.98632" lon="2.31453">
        <ele>409</ele>
        <time>2021-04-18T10:18:18Z</time>
      </trkpt>
      <trkpt lat="43.98631" lon="2.31454">
        <ele>409</ele>
        <time>2021-04-18T10:18:19Z</time>
      </trkpt>
      <trkpt lat="43.98629" lon="2.31456">
        <ele>410</ele>
        <time>2021-04-18T10:18:20Z</time>
      </trkpt>
      <trkpt lat="43.98628" lon="2.31457">
        <ele>411</ele>
        <time>2021-04-18T10:18:21Z</time>
      </trkpt>
      <trkpt lat="43.98626" lon="2.31457">
        <ele>411</ele>
        <time>2021-04-18T10:18:22Z</time>
      </trkpt>
      <trkpt lat="43.98625" lon="2.31458">
        <ele>410</ele>
        <time>2021-04-18T10:18:23Z</time>
      </trkpt>
      <trkpt lat="43.98624" lon="2.31459">
        <ele>410</ele>
        <time>2021-04-18T10:18:24Z</time>
      </trkpt>
      <trkpt lat="43.98623" lon="2.3146">
        <ele>410</ele>
        <time>2021-04-18T10:18:25Z</time>
      </trkpt>
      <trkpt lat="43.98622" lon="2.31461">
        <ele>410</ele>
        <time>2021-04-18T10:18:26Z</time>
      </trkpt>
      <trkpt lat="43.98621" lon="2.31461">
        <ele>411</ele>
        <time>2021-04-18T10:18:27Z</time>
      </trkpt>
      <trkpt lat="43.9862" lon="2.31462">
        <ele>411</ele>
        <time>2021-04-18T10:18:28Z</time>
      </trkpt>
      <trkpt lat="43.98619" lon="2.31463">
        <ele>411</ele>
        <time>2021-04-18T10:18:29Z</time>
      </trkpt>
      <trkpt lat="43.98619" lon="2.31464">
        <ele>411</ele>
        <time>2021-04-18T10:18:30Z</time>
      </trkpt>
      <trkpt lat="43.98618" lon="2.31464">
        <ele>411</ele>
        <time>2021-04-18T10:18:31Z</time>
      </trkpt>
      <trkpt lat="43.98618" lon="2.31465">
        <ele>411</ele>
        <time>2021-04-18T10:18:32Z</time>
      </trkpt>
      <trkpt lat="43.98616" lon="2.31465">
        <ele>411</ele>
        <time>2021-04-18T10:18:33Z</time>
      </trkpt>
      <trkpt lat="43.98615" lon="2.31466">
        <ele>411</ele>
        <time>2021-04-18T10:18:34Z</time>
      </trkpt>
      <trkpt lat="43.98613" lon="2.31466">
        <ele>411</ele>
        <time>2021-04-18T10:18:35Z</time>
      </trkpt>
      <trkpt lat="43.98612" lon="2.31467">
        <ele>411</ele>
        <time>2021-04-18T10:18:36Z</time>
      </trkpt>
      <trkpt lat="43.9861" lon="2.31467">
        <ele>411</ele>
        <time>2021-04-18T10:18:37Z</time>
      </trkpt>
      <trkpt lat="43.98609" lon="2.31468">
        <ele>411</ele>
        <time>2021-04-18T10:18:38Z</time>
      </trkpt>
      <trkpt lat="43.98607" lon="2.31468">
        <ele>411</ele>
        <time>2021-04-18T10:18:39Z</time>
      </trkpt>
      <trkpt lat="43.98606" lon="2.31469">
        <ele>411</ele>
        <time>2021-04-18T10:18:40Z</time>
      </trkpt>
      <trkpt lat="43.98606" lon="2.3147">
        <ele>411</ele>
        <time>2021-04-18T10:18:41Z</time>
      </trkpt>
      <trkpt lat="43.98605" lon="2.3147">
        <ele>411</ele>
        <time>2021-04-18T10:18:42Z</time>
      </trkpt>
      <trkpt lat="43.98605" lon="2.31471">
        <ele>411</ele>
        <time>2021-04-18T10:18:43Z</time>
      </trkpt>
      <trkpt lat="43.98604" lon="2.31473">
        <ele>412</ele>
        <time>2021-04-18T10:18:44Z</time>
      </trkpt>
      <trkpt lat="43.98603" lon="2.31474">
        <ele>411</ele>
        <time>2021-04-18T10:18:45Z</time>
      </trkpt>
      <trkpt lat="43.98603" lon="2.31475">
        <ele>412</ele>
        <time>2021-04-18T10:18:46Z</time>
      </trkpt>
      <trkpt lat="43.98601" lon="2.31476">
        <ele>412</ele>
        <time>2021-04-18T10:18:47Z</time>
      </trkpt>
      <trkpt lat="43.986" lon="2.31477">
        <ele>412</ele>
        <time>2021-04-18T10:18:48Z</time>
      </trkpt>
      <trkpt lat="43.98598" lon="2.31478">
        <ele>412</ele>
        <time>2021-04-18T10:18:49Z</time>
      </trkpt>
      <trkpt lat="43.98597" lon="2.31478">
        <ele>412</ele>
        <time>2021-04-18T10:18:50Z</time>
      </trkpt>
      <trkpt lat="43.98595" lon="2.31478">
        <ele>411</ele>
        <time>2021-04-18T10:18:51Z</time>
      </trkpt>
      <trkpt lat="43.98594" lon="2.3148">
        <ele>411</ele>
        <time>2021-04-18T10:18:52Z</time>
      </trkpt>
      <trkpt lat="43.98593" lon="2.3148">
        <ele>412</ele>
        <time>2021-04-18T10:18:53Z</time>
      </trkpt>
      <trkpt lat="43.98592" lon="2.31481">
        <ele>412</ele>
        <time>2021-04-18T10:18:54Z</time>
      </trkpt>
      <trkpt lat="43.98591" lon="2.31482">
        <ele>412</ele>
        <time>2021-04-18T10:18:55Z</time>
      </trkpt>
      <trkpt lat="43.9859" lon="2.31483">
        <ele>412</ele>
        <time>2021-04-18T10:18:56Z</time>
      </trkpt>
      <trkpt lat="43.98589" lon="2.31483">
        <ele>412</ele>
        <time>2021-04-18T10:18:57Z</time>
      </trkpt>
      <trkpt lat="43.98589" lon="2.31483">
        <ele>412</ele>
        <time>2021-04-18T10:18:58Z</time>
      </trkpt>
      <trkpt lat="43.98587" lon="2.31484">
        <ele>413</ele>
        <time>2021-04-18T10:18:59Z</time>
      </trkpt>
      <trkpt lat="43.98587" lon="2.31485">
        <ele>414</ele>
        <time>2021-04-18T10:19:00Z</time>
      </trkpt>
      <trkpt lat="43.98586" lon="2.31485">
        <ele>414</ele>
        <time>2021-04-18T10:19:01Z</time>
      </trkpt>
      <trkpt lat="43.98585" lon="2.31485">
        <ele>414</ele>
        <time>2021-04-18T10:19:02Z</time>
      </trkpt>
      <trkpt lat="43.98584" lon="2.31485">
        <ele>414</ele>
        <time>2021-04-18T10:19:03Z</time>
      </trkpt>
      <trkpt lat="43.98583" lon="2.31485">
        <ele>414</ele>
        <time>2021-04-18T10:19:04Z</time>
      </trkpt>
      <trkpt lat="43.98581" lon="2.31484">
        <ele>415</ele>
        <time>2021-04-18T10:19:05Z</time>
      </trkpt>
      <trkpt lat="43.9858" lon="2.31485">
        <ele>416</ele>
        <time>2021-04-18T10:19:06Z</time>
      </trkpt>
      <trkpt lat="43.98579" lon="2.31485">
        <ele>416</ele>
        <time>2021-04-18T10:19:07Z</time>
      </trkpt>
      <trkpt lat="43.98578" lon="2.31486">
        <ele>416</ele>
        <time>2021-04-18T10:19:08Z</time>
      </trkpt>
      <trkpt lat="43.98576" lon="2.31487">
        <ele>416</ele>
        <time>2021-04-18T10:19:09Z</time>
      </trkpt>
      <trkpt lat="43.98575" lon="2.31487">
        <ele>417</ele>
        <time>2021-04-18T10:19:10Z</time>
      </trkpt>
      <trkpt lat="43.98573" lon="2.31487">
        <ele>417</ele>
        <time>2021-04-18T10:19:11Z</time>
      </trkpt>
      <trkpt lat="43.98573" lon="2.31488">
        <ele>417</ele>
        <time>2021-04-18T10:19:12Z</time>
      </trkpt>
      <trkpt lat="43.98572" lon="2.31488">
        <ele>417</ele>
        <time>2021-04-18T10:19:13Z</time>
      </trkpt>
      <trkpt lat="43.98571" lon="2.31489">
        <ele>417</ele>
        <time>2021-04-18T10:19:14Z</time>
      </trkpt>
      <trkpt lat="43.9857" lon="2.3149">
        <ele>418</ele>
        <time>2021-04-18T10:19:15Z</time>
      </trkpt>
      <trkpt lat="43.98568" lon="2.31491">
        <ele>418</ele>
        <time>2021-04-18T10:19:16Z</time>
      </trkpt>
      <trkpt lat="43.98567" lon="2.31492">
        <ele>417</ele>
        <time>2021-04-18T10:19:17Z</time>
      </trkpt>
      <trkpt lat="43.98566" lon="2.31493">
        <ele>417</ele>
        <time>2021-04-18T10:19:18Z</time>
      </trkpt>
      <trkpt lat="43.98565" lon="2.31494">
        <ele>417</ele>
        <time>2021-04-18T10:19:19Z</time>
      </trkpt>
      <trkpt lat="43.98564" lon="2.31494">
        <ele>417</ele>
        <time>2021-04-18T10:19:20Z</time>
      </trkpt>
      <trkpt lat="43.98563" lon="2.31494">
        <ele>417</ele>
        <time>2021-04-18T10:19:21Z</time>
      </trkpt>
      <trkpt lat="43.98563" lon="2.31495">
        <ele>417</ele>
        <time>2021-04-18T10:19:22Z</time>
      </trkpt>
      <trkpt lat="43.98562" lon="2.31495">
        <ele>417</ele>
        <time>2021-04-18T10:19:23Z</time>
      </trkpt>
      <trkpt lat="43.98561" lon="2.31494">
        <ele>417</ele>
        <time>2021-04-18T10:19:24Z</time>
      </trkpt>
      <trkpt lat="43.9856" lon="2.31494">
        <ele>417</ele>
        <time>2021-04-18T10:19:25Z</time>
      </trkpt>
      <trkpt lat="43.98559" lon="2.31495">
        <ele>417</ele>
        <time>2021-04-18T10:19:26Z</time>
      </trkpt>
      <trkpt lat="43.98558" lon="2.31495">
        <ele>418</ele>
        <time>2021-04-18T10:19:27Z</time>
      </trkpt>
      <trkpt lat="43.98556" lon="2.31495">
        <ele>417</ele>
        <time>2021-04-18T10:19:28Z</time>
      </trkpt>
      <trkpt lat="43.98555" lon="2.31494">
        <ele>417</ele>
        <time>2021-04-18T10:19:29Z</time>
      </trkpt>
      <trkpt lat="43.98554" lon="2.31495">
        <ele>417</ele>
        <time>2021-04-18T10:19:30Z</time>
      </trkpt>
      <trkpt lat="43.98552" lon="2.31495">
        <ele>417</ele>
        <time>2021-04-18T10:19:31Z</time>
      </trkpt>
      <trkpt lat="43.9855" lon="2.31495">
        <ele>418</ele>
        <time>2021-04-18T10:19:32Z</time>
      </trkpt>
      <trkpt lat="43.98549" lon="2.31495">
        <ele>418</ele>
        <time>2021-04-18T10:19:33Z</time>
      </trkpt>
      <trkpt lat="43.98548" lon="2.31495">
        <ele>418</ele>
        <time>2021-04-18T10:19:34Z</time>
      </trkpt>
      <trkpt lat="43.98547" lon="2.31496">
        <ele>418</ele>
        <time>2021-04-18T10:19:35Z</time>
      </trkpt>
      <trkpt lat="43.98547" lon="2.31496">
        <ele>418</ele>
        <time>2021-04-18T10:19:36Z</time>
      </trkpt>
      <trkpt lat="43.98545" lon="2.31497">
        <ele>418</ele>
        <time>2021-04-18T10:19:37Z</time>
      </trkpt>
      <trkpt lat="43.98544" lon="2.31497">
        <ele>419</ele>
        <time>2021-04-18T10:19:38Z</time>
      </trkpt>
      <trkpt lat="43.98543" lon="2.31498">
        <ele>419</ele>
        <time>2021-04-18T10:19:39Z</time>
      </trkpt>
      <trkpt lat="43.98542" lon="2.31499">
        <ele>420</ele>
        <time>2021-04-18T10:19:40Z</time>
      </trkpt>
      <trkpt lat="43.9854" lon="2.315">
        <ele>419</ele>
        <time>2021-04-18T10:19:41Z</time>
      </trkpt>
      <trkpt lat="43.98539" lon="2.31501">
        <ele>420</ele>
        <time>2021-04-18T10:19:42Z</time>
      </trkpt>
      <trkpt lat="43.98538" lon="2.31502">
        <ele>420</ele>
        <time>2021-04-18T10:19:43Z</time>
      </trkpt>
      <trkpt lat="43.98537" lon="2.31503">
        <ele>420</ele>
        <time>2021-04-18T10:19:44Z</time>
      </trkpt>
      <trkpt lat="43.98536" lon="2.31503">
        <ele>420</ele>
        <time>2021-04-18T10:19:45Z</time>
      </trkpt>
      <trkpt lat="43.98535" lon="2.31504">
        <ele>421</ele>
        <time>2021-04-18T10:19:46Z</time>
      </trkpt>
      <trkpt lat="43.98534" lon="2.31504">
        <ele>421</ele>
        <time>2021-04-18T10:19:47Z</time>
      </trkpt>
      <trkpt lat="43.98533" lon="2.31505">
        <ele>422</ele>
        <time>2021-04-18T10:19:48Z</time>
      </trkpt>
      <trkpt lat="43.98532" lon="2.31506">
        <ele>422</ele>
        <time>2021-04-18T10:19:49Z</time>
      </trkpt>
      <trkpt lat="43.98531" lon="2.31507">
        <ele>422</ele>
        <time>2021-04-18T10:19:50Z</time>
      </trkpt>
      <trkpt lat="43.9853" lon="2.31507">
        <ele>422</ele>
        <time>2021-04-18T10:19:51Z</time>
      </trkpt>
      <trkpt lat="43.98529" lon="2.31507">
        <ele>423</ele>
        <time>2021-04-18T10:19:52Z</time>
      </trkpt>
      <trkpt lat="43.98529" lon="2.31508">
        <ele>424</ele>
        <time>2021-04-18T10:19:53Z</time>
      </trkpt>
      <trkpt lat="43.98528" lon="2.31509">
        <ele>425</ele>
        <time>2021-04-18T10:19:54Z</time>
      </trkpt>
      <trkpt lat="43.98527" lon="2.31509">
        <ele>425</ele>
        <time>2021-04-18T10:19:55Z</time>
      </trkpt>
      <trkpt lat="43.98526" lon="2.3151">
        <ele>426</ele>
        <time>2021-04-18T10:19:56Z</time>
      </trkpt>
      <trkpt lat="43.98525" lon="2.31511">
        <ele>427</ele>
        <time>2021-04-18T10:19:57Z</time>
      </trkpt>
      <trkpt lat="43.98523" lon="2.31511">
        <ele>427</ele>
        <time>2021-04-18T10:19:58Z</time>
      </trkpt>
      <trkpt lat="43.98523" lon="2.31512">
        <ele>428</ele>
        <time>2021-04-18T10:19:59Z</time>
      </trkpt>
      <trkpt lat="43.98522" lon="2.31513">
        <ele>428</ele>
        <time>2021-04-18T10:20:00Z</time>
      </trkpt>
      <trkpt lat="43.9852" lon="2.31514">
        <ele>428</ele>
        <time>2021-04-18T10:20:01Z</time>
      </trkpt>
      <trkpt lat="43.98519" lon="2.31516">
        <ele>428</ele>
        <time>2021-04-18T10:20:02Z</time>
      </trkpt>
      <trkpt lat="43.98518" lon="2.31516">
        <ele>429</ele>
        <time>2021-04-18T10:20:03Z</time>
      </trkpt>
      <trkpt lat="43.98517" lon="2.31517">
        <ele>429</ele>
        <time>2021-04-18T10:20:04Z</time>
      </trkpt>
      <trkpt lat="43.98516" lon="2.31517">
        <ele>429</ele>
        <time>2021-04-18T10:20:05Z</time>
      </trkpt>
      <trkpt lat="43.98515" lon="2.31518">
        <ele>429</ele>
        <time>2021-04-18T10:20:06Z</time>
      </trkpt>
      <trkpt lat="43.98514" lon="2.3152">
        <ele>429</ele>
        <time>2021-04-18T10:20:07Z</time>
      </trkpt>
      <trkpt lat="43.98513" lon="2.31521">
        <ele>429</ele>
        <time>2021-04-18T10:20:08Z</time>
      </trkpt>
      <trkpt lat="43.98512" lon="2.31522">
        <ele>430</ele>
        <time>2021-04-18T10:20:09Z</time>
      </trkpt>
      <trkpt lat="43.98511" lon="2.31523">
        <ele>431</ele>
        <time>2021-04-18T10:20:10Z</time>
      </trkpt>
      <trkpt lat="43.98509" lon="2.31524">
        <ele>431</ele>
        <time>2021-04-18T10:20:11Z</time>
      </trkpt>
      <trkpt lat="43.98508" lon="2.31525">
        <ele>432</ele>
        <time>2021-04-18T10:20:12Z</time>
      </trkpt>
      <trkpt lat="43.98507" lon="2.31526">
        <ele>432</ele>
        <time>2021-04-18T10:20:13Z</time>
      </trkpt>
      <trkpt lat="43.98505" lon="2.31527">
        <ele>431</ele>
        <time>2021-04-18T10:20:14Z</time>
      </trkpt>
      <trkpt lat="43.98505" lon="2.31529">
        <ele>430</ele>
        <time>2021-04-18T10:20:15Z</time>
      </trkpt>
      <trkpt lat="43.98504" lon="2.3153">
        <ele>430</ele>
        <time>2021-04-18T10:20:16Z</time>
      </trkpt>
      <trkpt lat="43.98503" lon="2.31531">
        <ele>431</ele>
        <time>2021-04-18T10:20:17Z</time>
      </trkpt>
      <trkpt lat="43.98501" lon="2.31532">
        <ele>431</ele>
        <time>2021-04-18T10:20:18Z</time>
      </trkpt>
      <trkpt lat="43.985" lon="2.31534">
        <ele>431</ele>
        <time>2021-04-18T10:20:19Z</time>
      </trkpt>
      <trkpt lat="43.98499" lon="2.31536">
        <ele>431</ele>
        <time>2021-04-18T10:20:20Z</time>
      </trkpt>
      <trkpt lat="43.98499" lon="2.31537">
        <ele>431</ele>
        <time>2021-04-18T10:20:21Z</time>
      </trkpt>
      <trkpt lat="43.98498" lon="2.31539">
        <ele>431</ele>
        <time>2021-04-18T10:20:22Z</time>
      </trkpt>
      <trkpt lat="43.98497" lon="2.3154">
        <ele>431</ele>
        <time>2021-04-18T10:20:23Z</time>
      </trkpt>
      <trkpt lat="43.98497" lon="2.31542">
        <ele>430</ele>
        <time>2021-04-18T10:20:24Z</time>
      </trkpt>
      <trkpt lat="43.98496" lon="2.31544">
        <ele>429</ele>
        <time>2021-04-18T10:20:25Z</time>
      </trkpt>
      <trkpt lat="43.98495" lon="2.31546">
        <ele>429</ele>
        <time>2021-04-18T10:20:26Z</time>
      </trkpt>
      <trkpt lat="43.98495" lon="2.31547">
        <ele>429</ele>
        <time>2021-04-18T10:20:27Z</time>
      </trkpt>
      <trkpt lat="43.98494" lon="2.31549">
        <ele>429</ele>
        <time>2021-04-18T10:20:28Z</time>
      </trkpt>
      <trkpt lat="43.98493" lon="2.3155">
        <ele>429</ele>
        <time>2021-04-18T10:20:29Z</time>
      </trkpt>
      <trkpt lat="43.98493" lon="2.31552">
        <ele>429</ele>
        <time>2021-04-18T10:20:30Z</time>
      </trkpt>
      <trkpt lat="43.98492" lon="2.31554">
        <ele>428</ele>
        <time>2021-04-18T10:20:31Z</time>
      </trkpt>
      <trkpt lat="43.98491" lon="2.31556">
        <ele>428</ele>
        <time>2021-04-18T10:20:32Z</time>
      </trkpt>
      <trkpt lat="43.98491" lon="2.31558">
        <ele>428</ele>
        <time>2021-04-18T10:20:33Z</time>
      </trkpt>
      <trkpt lat="43.9849" lon="2.31559">
        <ele>428</ele>
        <time>2021-04-18T10:20:34Z</time>
      </trkpt>
      <trkpt lat="43.98489" lon="2.31561">
        <ele>428</ele>
        <time>2021-04-18T10:20:35Z</time>
      </trkpt>
      <trkpt lat="43.98488" lon="2.31562">
        <ele>428</ele>
        <time>2021-04-18T10:20:36Z</time>
      </trkpt>
      <trkpt lat="43.98488" lon="2.31564">
        <ele>428</ele>
        <time>2021-04-18T10:20:37Z</time>
      </trkpt>
      <trkpt lat="43.98487" lon="2.31565">
        <ele>427</ele>
        <time>2021-04-18T10:20:38Z</time>
      </trkpt>
      <trkpt lat="43.98486" lon="2.31567">
        <ele>428</ele>
        <time>2021-04-18T10:20:39Z</time>
      </trkpt>
      <trkpt lat="43.98486" lon="2.31569">
        <ele>427</ele>
        <time>2021-04-18T10:20:40Z</time>
      </trkpt>
      <trkpt lat="43.98484" lon="2.31571">
        <ele>428</ele>
        <time>2021-04-18T10:20:41Z</time>
      </trkpt>
      <trkpt lat="43.98484" lon="2.31572">
        <ele>428</ele>
        <time>2021-04-18T10:20:42Z</time>
      </trkpt>
      <trkpt lat="43.98483" lon="2.31574">
        <ele>428</ele>
        <time>2021-04-18T10:20:43Z</time>
      </trkpt>
      <trkpt lat="43.98483" lon="2.31575">
        <ele>429</ele>
        <time>2021-04-18T10:20:44Z</time>
      </trkpt>
      <trkpt lat="43.98482" lon="2.31577">
        <ele>429</ele>
        <time>2021-04-18T10:20:45Z</time>
      </trkpt>
      <trkpt lat="43.98481" lon="2.31578">
        <ele>429</ele>
        <time>2021-04-18T10:20:46Z</time>
      </trkpt>
      <trkpt lat="43.9848" lon="2.31579">
        <ele>428</ele>
        <time>2021-04-18T10:20:47Z</time>
      </trkpt>
      <trkpt lat="43.9848" lon="2.31581">
        <ele>429</ele>
        <time>2021-04-18T10:20:48Z</time>
      </trkpt>
      <trkpt lat="43.98479" lon="2.31582">
        <ele>429</ele>
        <time>2021-04-18T10:20:49Z</time>
      </trkpt>
      <trkpt lat="43.98478" lon="2.31583">
        <ele>429</ele>
        <time>2021-04-18T10:20:50Z</time>
      </trkpt>
      <trkpt lat="43.98477" lon="2.31584">
        <ele>429</ele>
        <time>2021-04-18T10:20:51Z</time>
      </trkpt>
      <trkpt lat="43.98476" lon="2.31585">
        <ele>429</ele>
        <time>2021-04-18T10:20:52Z</time>
      </trkpt>
      <trkpt lat="43.98475" lon="2.31586">
        <ele>429</ele>
        <time>2021-04-18T10:20:53Z</time>
      </trkpt>
      <trkpt lat="43.98474" lon="2.31588">
        <ele>429</ele>
        <time>2021-04-18T10:20:54Z</time>
      </trkpt>
      <trkpt lat="43.98473" lon="2.31589">
        <ele>429</ele>
        <time>2021-04-18T10:20:55Z</time>
      </trkpt>
      <trkpt lat="43.98473" lon="2.3159">
        <ele>430</ele>
        <time>2021-04-18T10:20:56Z</time>
      </trkpt>
      <trkpt lat="43.98472" lon="2.31591">
        <ele>429</ele>
        <time>2021-04-18T10:20:57Z</time>
      </trkpt>
      <trkpt lat="43.98472" lon="2.31593">
        <ele>429</ele>
        <time>2021-04-18T10:20:58Z</time>
      </trkpt>
      <trkpt lat="43.98472" lon="2.31596">
        <ele>428</ele>
        <time>2021-04-18T10:20:59Z</time>
      </trkpt>
      <trkpt lat="43.98472" lon="2.31596">
        <ele>428</ele>
        <time>2021-04-18T10:21:00Z</time>
      </trkpt>
      <trkpt lat="43.98472" lon="2.31597">
        <ele>428</ele>
        <time>2021-04-18T10:21:01Z</time>
      </trkpt>
      <trkpt lat="43.98472" lon="2.31598">
        <ele>426</ele>
        <time>2021-04-18T10:21:02Z</time>
      </trkpt>
      <trkpt lat="43.98472" lon="2.31598">
        <ele>426</ele>
        <time>2021-04-18T10:21:03Z</time>
      </trkpt>
      <trkpt lat="43.98472" lon="2.31599">
        <ele>425</ele>
        <time>2021-04-18T10:21:04Z</time>
      </trkpt>
      <trkpt lat="43.98471" lon="2.316">
        <ele>424</ele>
        <time>2021-04-18T10:21:05Z</time>
      </trkpt>
      <trkpt lat="43.9847" lon="2.31601">
        <ele>424</ele>
        <time>2021-04-18T10:21:06Z</time>
      </trkpt>
      <trkpt lat="43.98469" lon="2.31603">
        <ele>424</ele>
        <time>2021-04-18T10:21:07Z</time>
      </trkpt>
      <trkpt lat="43.98469" lon="2.31604">
        <ele>424</ele>
        <time>2021-04-18T10:21:08Z</time>
      </trkpt>
      <trkpt lat="43.98469" lon="2.31604">
        <ele>425</ele>
        <time>2021-04-18T10:21:09Z</time>
      </trkpt>
      <trkpt lat="43.98468" lon="2.31604">
        <ele>426</ele>
        <time>2021-04-18T10:21:10Z</time>
      </trkpt>
      <trkpt lat="43.98468" lon="2.31605">
        <ele>426</ele>
        <time>2021-04-18T10:21:11Z</time>
      </trkpt>
      <trkpt lat="43.98467" lon="2.31607">
        <ele>425</ele>
        <time>2021-04-18T10:21:12Z</time>
      </trkpt>
      <trkpt lat="43.98466" lon="2.31609">
        <ele>425</ele>
        <time>2021-04-18T10:21:13Z</time>
      </trkpt>
      <trkpt lat="43.98465" lon="2.3161">
        <ele>426</ele>
        <time>2021-04-18T10:21:14Z</time>
      </trkpt>
      <trkpt lat="43.98464" lon="2.31612">
        <ele>427</ele>
        <time>2021-04-18T10:21:15Z</time>
      </trkpt>
      <trkpt lat="43.98463" lon="2.31613">
        <ele>426</ele>
        <time>2021-04-18T10:21:16Z</time>
      </trkpt>
      <trkpt lat="43.98461" lon="2.31614">
        <ele>427</ele>
        <time>2021-04-18T10:21:17Z</time>
      </trkpt>
      <trkpt lat="43.9846" lon="2.31615">
        <ele>426</ele>
        <time>2021-04-18T10:21:18Z</time>
      </trkpt>
      <trkpt lat="43.98459" lon="2.31616">
        <ele>426</ele>
        <time>2021-04-18T10:21:19Z</time>
      </trkpt>
      <trkpt lat="43.98458" lon="2.31617">
        <ele>426</ele>
        <time>2021-04-18T10:21:20Z</time>
      </trkpt>
      <trkpt lat="43.98457" lon="2.31618">
        <ele>427</ele>
        <time>2021-04-18T10:21:21Z</time>
      </trkpt>
      <trkpt lat="43.98455" lon="2.31619">
        <ele>427</ele>
        <time>2021-04-18T10:21:22Z</time>
      </trkpt>
      <trkpt lat="43.98455" lon="2.31621">
        <ele>426</ele>
        <time>2021-04-18T10:21:23Z</time>
      </trkpt>
      <trkpt lat="43.98454" lon="2.31622">
        <ele>426</ele>
        <time>2021-04-18T10:21:24Z</time>
      </trkpt>
      <trkpt lat="43.98452" lon="2.31623">
        <ele>426</ele>
        <time>2021-04-18T10:21:25Z</time>
      </trkpt>
      <trkpt lat="43.98452" lon="2.31624">
        <ele>427</ele>
        <time>2021-04-18T10:21:26Z</time>
      </trkpt>
      <trkpt lat="43.98451" lon="2.31625">
        <ele>428</ele>
        <time>2021-04-18T10:21:27Z</time>
      </trkpt>
      <trkpt lat="43.98449" lon="2.31627">
        <ele>428</ele>
        <time>2021-04-18T10:21:28Z</time>
      </trkpt>
      <trkpt lat="43.98448" lon="2.31627">
        <ele>428</ele>
        <time>2021-04-18T10:21:29Z</time>
      </trkpt>
      <trkpt lat="43.98447" lon="2.31628">
        <ele>428</ele>
        <time>2021-04-18T10:21:30Z</time>
      </trkpt>
      <trkpt lat="43.98446" lon="2.31629">
        <ele>428</ele>
        <time>2021-04-18T10:21:31Z</time>
      </trkpt>
      <trkpt lat="43.98444" lon="2.3163">
        <ele>429</ele>
        <time>2021-04-18T10:21:32Z</time>
      </trkpt>
      <trkpt lat="43.98443" lon="2.31632">
        <ele>429</ele>
        <time>2021-04-18T10:21:33Z</time>
      </trkpt>
      <trkpt lat="43.98442" lon="2.31633">
        <ele>429</ele>
        <time>2021-04-18T10:21:34Z</time>
      </trkpt>
      <trkpt lat="43.98441" lon="2.31634">
        <ele>429</ele>
        <time>2021-04-18T10:21:35Z</time>
      </trkpt>
      <trkpt lat="43.9844" lon="2.31635">
        <ele>430</ele>
        <time>2021-04-18T10:21:36Z</time>
      </trkpt>
      <trkpt lat="43.98439" lon="2.31636">
        <ele>431</ele>
        <time>2021-04-18T10:21:37Z</time>
      </trkpt>
      <trkpt lat="43.98438" lon="2.31638">
        <ele>432</ele>
        <time>2021-04-18T10:21:38Z</time>
      </trkpt>
      <trkpt lat="43.98437" lon="2.31639">
        <ele>432</ele>
        <time>2021-04-18T10:21:39Z</time>
      </trkpt>
      <trkpt lat="43.98436" lon="2.3164">
        <ele>433</ele>
        <time>2021-04-18T10:21:40Z</time>
      </trkpt>
      <trkpt lat="43.98434" lon="2.31641">
        <ele>433</ele>
        <time>2021-04-18T10:21:41Z</time>
      </trkpt>
      <trkpt lat="43.98434" lon="2.31642">
        <ele>432</ele>
        <time>2021-04-18T10:21:42Z</time>
      </trkpt>
      <trkpt lat="43.98433" lon="2.31643">
        <ele>432</ele>
        <time>2021-04-18T10:21:43Z</time>
      </trkpt>
      <trkpt lat="43.98431" lon="2.31645">
        <ele>432</ele>
        <time>2021-04-18T10:21:44Z</time>
      </trkpt>
      <trkpt lat="43.9843" lon="2.31645">
        <ele>432</ele>
        <time>2021-04-18T10:21:45Z</time>
      </trkpt>
      <trkpt lat="43.98429" lon="2.31646">
        <ele>432</ele>
        <time>2021-04-18T10:21:46Z</time>
      </trkpt>
      <trkpt lat="43.98428" lon="2.31647">
        <ele>432</ele>
        <time>2021-04-18T10:21:47Z</time>
      </trkpt>
      <trkpt lat="43.98427" lon="2.31648">
        <ele>432</ele>
        <time>2021-04-18T10:21:48Z</time>
      </trkpt>
      <trkpt lat="43.98426" lon="2.31649">
        <ele>433</ele>
        <time>2021-04-18T10:21:49Z</time>
      </trkpt>
      <trkpt lat="43.98426" lon="2.31649">
        <ele>433</ele>
        <time>2021-04-18T10:21:50Z</time>
      </trkpt>
      <trkpt lat="43.98426" lon="2.31649">
        <ele>433</ele>
        <time>2021-04-18T10:21:51Z</time>
      </trkpt>
      <trkpt lat="43.98424" lon="2.31651">
        <ele>434</ele>
        <time>2021-04-18T10:21:52Z</time>
      </trkpt>
      <trkpt lat="43.98423" lon="2.31652">
        <ele>435</ele>
        <time>2021-04-18T10:21:53Z</time>
      </trkpt>
      <trkpt lat="43.98421" lon="2.31653">
        <ele>435</ele>
        <time>2021-04-18T10:21:54Z</time>
      </trkpt>
      <trkpt lat="43.98419" lon="2.31654">
        <ele>434</ele>
        <time>2021-04-18T10:21:55Z</time>
      </trkpt>
      <trkpt lat="43.98417" lon="2.31654">
        <ele>434</ele>
        <time>2021-04-18T10:21:56Z</time>
      </trkpt>
      <trkpt lat="43.98416" lon="2.31654">
        <ele>434</ele>
        <time>2021-04-18T10:21:57Z</time>
      </trkpt>
      <trkpt lat="43.98415" lon="2.31655">
        <ele>434</ele>
        <time>2021-04-18T10:21:58Z</time>
      </trkpt>
      <trkpt lat="43.98413" lon="2.31656">
        <ele>434</ele>
        <time>2021-04-18T10:21:59Z</time>
      </trkpt>
      <trkpt lat="43.98412" lon="2.31658">
        <ele>434</ele>
        <time>2021-04-18T10:22:00Z</time>
      </trkpt>
      <trkpt lat="43.9841" lon="2.31659">
        <ele>436</ele>
        <time>2021-04-18T10:22:01Z</time>
      </trkpt>
      <trkpt lat="43.98409" lon="2.3166">
        <ele>436</ele>
        <time>2021-04-18T10:22:02Z</time>
      </trkpt>
      <trkpt lat="43.98407" lon="2.31661">
        <ele>436</ele>
        <time>2021-04-18T10:22:03Z</time>
      </trkpt>
      <trkpt lat="43.98406" lon="2.31662">
        <ele>435</ele>
        <time>2021-04-18T10:22:04Z</time>
      </trkpt>
      <trkpt lat="43.98404" lon="2.31664">
        <ele>436</ele>
        <time>2021-04-18T10:22:05Z</time>
      </trkpt>
      <trkpt lat="43.98403" lon="2.31666">
        <ele>437</ele>
        <time>2021-04-18T10:22:06Z</time>
      </trkpt>
      <trkpt lat="43.98401" lon="2.31667">
        <ele>437</ele>
        <time>2021-04-18T10:22:07Z</time>
      </trkpt>
      <trkpt lat="43.984" lon="2.31669">
        <ele>437</ele>
        <time>2021-04-18T10:22:08Z</time>
      </trkpt>
      <trkpt lat="43.98399" lon="2.31671">
        <ele>437</ele>
        <time>2021-04-18T10:22:09Z</time>
      </trkpt>
      <trkpt lat="43.98397" lon="2.31672">
        <ele>438</ele>
        <time>2021-04-18T10:22:10Z</time>
      </trkpt>
      <trkpt lat="43.98396" lon="2.31674">
        <ele>438</ele>
        <time>2021-04-18T10:22:11Z</time>
      </trkpt>
      <trkpt lat="43.98395" lon="2.31675">
        <ele>438</ele>
        <time>2021-04-18T10:22:12Z</time>
      </trkpt>
      <trkpt lat="43.98393" lon="2.31676">
        <ele>438</ele>
        <time>2021-04-18T10:22:13Z</time>
      </trkpt>
      <trkpt lat="43.98392" lon="2.31678">
        <ele>438</ele>
        <time>2021-04-18T10:22:14Z</time>
      </trkpt>
      <trkpt lat="43.98391" lon="2.31679">
        <ele>438</ele>
        <time>2021-04-18T10:22:15Z</time>
      </trkpt>
      <trkpt lat="43.98389" lon="2.31681">
        <ele>437</ele>
        <time>2021-04-18T10:22:16Z</time>
      </trkpt>
      <trkpt lat="43.98388" lon="2.31682">
        <ele>437</ele>
        <time>2021-04-18T10:22:17Z</time>
      </trkpt>
      <trkpt lat="43.98388" lon="2.31684">
        <ele>436</ele>
        <time>2021-04-18T10:22:18Z</time>
      </trkpt>
      <trkpt lat="43.98386" lon="2.31686">
        <ele>436</ele>
        <time>2021-04-18T10:22:19Z</time>
      </trkpt>
      <trkpt lat="43.98385" lon="2.31687">
        <ele>436</ele>
        <time>2021-04-18T10:22:20Z</time>
      </trkpt>
      <trkpt lat="43.98384" lon="2.31689">
        <ele>437</ele>
        <time>2021-04-18T10:22:21Z</time>
      </trkpt>
      <trkpt lat="43.98383" lon="2.3169">
        <ele>437</ele>
        <time>2021-04-18T10:22:22Z</time>
      </trkpt>
      <trkpt lat="43.98383" lon="2.31692">
        <ele>437</ele>
        <time>2021-04-18T10:22:23Z</time>
      </trkpt>
      <trkpt lat="43.98382" lon="2.31694">
        <ele>437</ele>
        <time>2021-04-18T10:22:24Z</time>
      </trkpt>
      <trkpt lat="43.98381" lon="2.31696">
        <ele>438</ele>
        <time>2021-04-18T10:22:25Z</time>
      </trkpt>
      <trkpt lat="43.98381" lon="2.31698">
        <ele>438</ele>
        <time>2021-04-18T10:22:26Z</time>
      </trkpt>
      <trkpt lat="43.9838" lon="2.317">
        <ele>438</ele>
        <time>2021-04-18T10:22:27Z</time>
      </trkpt>
      <trkpt lat="43.98378" lon="2.31702">
        <ele>437</ele>
        <time>2021-04-18T10:22:28Z</time>
      </trkpt>
      <trkpt lat="43.98377" lon="2.31703">
        <ele>437</ele>
        <time>2021-04-18T10:22:29Z</time>
      </trkpt>
      <trkpt lat="43.98377" lon="2.31705">
        <ele>437</ele>
        <time>2021-04-18T10:22:30Z</time>
      </trkpt>
      <trkpt lat="43.98377" lon="2.31707">
        <ele>437</ele>
        <time>2021-04-18T10:22:31Z</time>
      </trkpt>
      <trkpt lat="43.98376" lon="2.31708">
        <ele>437</ele>
        <time>2021-04-18T10:22:32Z</time>
      </trkpt>
      <trkpt lat="43.98375" lon="2.31709">
        <ele>437</ele>
        <time>2021-04-18T10:22:33Z</time>
      </trkpt>
      <trkpt lat="43.98374" lon="2.31711">
        <ele>437</ele>
        <time>2021-04-18T10:22:34Z</time>
      </trkpt>
      <trkpt lat="43.98373" lon="2.31712">
        <ele>437</ele>
        <time>2021-04-18T10:22:35Z</time>
      </trkpt>
      <trkpt lat="43.98372" lon="2.31714">
        <ele>436</ele>
        <time>2021-04-18T10:22:36Z</time>
      </trkpt>
      <trkpt lat="43.98372" lon="2.31715">
        <ele>436</ele>
        <time>2021-04-18T10:22:37Z</time>
      </trkpt>
      <trkpt lat="43.9837" lon="2.31717">
        <ele>435</ele>
        <time>2021-04-18T10:22:38Z</time>
      </trkpt>
      <trkpt lat="43.98369" lon="2.31719">
        <ele>435</ele>
        <time>2021-04-18T10:22:39Z</time>
      </trkpt>
      <trkpt lat="43.98368" lon="2.31721">
        <ele>435</ele>
        <time>2021-04-18T10:22:40Z</time>
      </trkpt>
      <trkpt lat="43.98367" lon="2.31723">
        <ele>435</ele>
        <time>2021-04-18T10:22:41Z</time>
      </trkpt>
      <trkpt lat="43.98366" lon="2.31725">
        <ele>435</ele>
        <time>2021-04-18T10:22:42Z</time>
      </trkpt>
      <trkpt lat="43.98365" lon="2.31727">
        <ele>435</ele>
        <time>2021-04-18T10:22:43Z</time>
      </trkpt>
      <trkpt lat="43.98364" lon="2.31729">
        <ele>435</ele>
        <time>2021-04-18T10:22:44Z</time>
      </trkpt>
      <trkpt lat="43.98364" lon="2.31731">
        <ele>436</ele>
        <time>2021-04-18T10:22:45Z</time>
      </trkpt>
      <trkpt lat="43.98362" lon="2.31734">
        <ele>437</ele>
        <time>2021-04-18T10:22:46Z</time>
      </trkpt>
      <trkpt lat="43.98361" lon="2.31736">
        <ele>437</ele>
        <time>2021-04-18T10:22:47Z</time>
      </trkpt>
      <trkpt lat="43.98361" lon="2.31738">
        <ele>436</ele>
        <time>2021-04-18T10:22:48Z</time>
      </trkpt>
      <trkpt lat="43.9836" lon="2.31741">
        <ele>436</ele>
        <time>2021-04-18T10:22:49Z</time>
      </trkpt>
      <trkpt lat="43.9836" lon="2.31743">
        <ele>436</ele>
        <time>2021-04-18T10:22:50Z</time>
      </trkpt>
      <trkpt lat="43.98359" lon="2.31745">
        <ele>436</ele>
        <time>2021-04-18T10:22:51Z</time>
      </trkpt>
      <trkpt lat="43.98358" lon="2.31747">
        <ele>436</ele>
        <time>2021-04-18T10:22:52Z</time>
      </trkpt>
      <trkpt lat="43.98357" lon="2.31748">
        <ele>435</ele>
        <time>2021-04-18T10:22:53Z</time>
      </trkpt>
      <trkpt lat="43.98356" lon="2.3175">
        <ele>435</ele>
        <time>2021-04-18T10:22:54Z</time>
      </trkpt>
      <trkpt lat="43.98356" lon="2.31753">
        <ele>435</ele>
        <time>2021-04-18T10:22:55Z</time>
      </trkpt>
      <trkpt lat="43.98355" lon="2.31756">
        <ele>435</ele>
        <time>2021-04-18T10:22:56Z</time>
      </trkpt>
      <trkpt lat="43.98354" lon="2.31758">
        <ele>435</ele>
        <time>2021-04-18T10:22:57Z</time>
      </trkpt>
      <trkpt lat="43.98354" lon="2.31759">
        <ele>435</ele>
        <time>2021-04-18T10:22:58Z</time>
      </trkpt>
      <trkpt lat="43.98353" lon="2.31761">
        <ele>435</ele>
        <time>2021-04-18T10:22:59Z</time>
      </trkpt>
      <trkpt lat="43.98353" lon="2.31763">
        <ele>435</ele>
        <time>2021-04-18T10:23:00Z</time>
      </trkpt>
      <trkpt lat="43.98352" lon="2.31765">
        <ele>435</ele>
        <time>2021-04-18T10:23:01Z</time>
      </trkpt>
      <trkpt lat="43.98352" lon="2.31767">
        <ele>435</ele>
        <time>2021-04-18T10:23:02Z</time>
      </trkpt>
      <trkpt lat="43.98352" lon="2.31769">
        <ele>435</ele>
        <time>2021-04-18T10:23:03Z</time>
      </trkpt>
      <trkpt lat="43.98351" lon="2.3177">
        <ele>435</ele>
        <time>2021-04-18T10:23:04Z</time>
      </trkpt>
      <trkpt lat="43.9835" lon="2.31773">
        <ele>434</ele>
        <time>2021-04-18T10:23:05Z</time>
      </trkpt>
      <trkpt lat="43.98349" lon="2.31774">
        <ele>434</ele>
        <time>2021-04-18T10:23:06Z</time>
      </trkpt>
      <trkpt lat="43.98349" lon="2.31776">
        <ele>434</ele>
        <time>2021-04-18T10:23:07Z</time>
      </trkpt>
      <trkpt lat="43.98348" lon="2.31777">
        <ele>434</ele>
        <time>2021-04-18T10:23:08Z</time>
      </trkpt>
      <trkpt lat="43.98347" lon="2.31778">
        <ele>435</ele>
        <time>2021-04-18T10:23:09Z</time>
      </trkpt>
      <trkpt lat="43.98346" lon="2.31779">
        <ele>435</ele>
        <time>2021-04-18T10:23:10Z</time>
      </trkpt>
      <trkpt lat="43.98345" lon="2.31781">
        <ele>434</ele>
        <time>2021-04-18T10:23:11Z</time>
      </trkpt>
      <trkpt lat="43.98345" lon="2.31783">
        <ele>434</ele>
        <time>2021-04-18T10:23:12Z</time>
      </trkpt>
      <trkpt lat="43.98344" lon="2.31785">
        <ele>434</ele>
        <time>2021-04-18T10:23:13Z</time>
      </trkpt>
      <trkpt lat="43.98344" lon="2.31786">
        <ele>433</ele>
        <time>2021-04-18T10:23:14Z</time>
      </trkpt>
      <trkpt lat="43.98344" lon="2.31786">
        <ele>433</ele>
        <time>2021-04-18T10:23:15Z</time>
      </trkpt>
      <trkpt lat="43.98344" lon="2.31786">
        <ele>433</ele>
        <time>2021-04-18T10:23:16Z</time>
      </trkpt>
      <trkpt lat="43.98343" lon="2.3179">
        <ele>433</ele>
        <time>2021-04-18T10:23:17Z</time>
      </trkpt>
      <trkpt lat="43.98343" lon="2.31792">
        <ele>433</ele>
        <time>2021-04-18T10:23:18Z</time>
      </trkpt>
      <trkpt lat="43.98342" lon="2.31794">
        <ele>432</ele>
        <time>2021-04-18T10:23:19Z</time>
      </trkpt>
      <trkpt lat="43.98342" lon="2.31795">
        <ele>432</ele>
        <time>2021-04-18T10:23:20Z</time>
      </trkpt>
      <trkpt lat="43.98342" lon="2.31796">
        <ele>432</ele>
        <time>2021-04-18T10:23:21Z</time>
      </trkpt>
      <trkpt lat="43.98341" lon="2.31796">
        <ele>432</ele>
        <time>2021-04-18T10:23:22Z</time>
      </trkpt>
      <trkpt lat="43.98341" lon="2.31797">
        <ele>432</ele>
        <time>2021-04-18T10:23:23Z</time>
      </trkpt>
      <trkpt lat="43.98341" lon="2.31798">
        <ele>433</ele>
        <time>2021-04-18T10:23:24Z</time>
      </trkpt>
      <trkpt lat="43.98341" lon="2.31799">
        <ele>433</ele>
        <time>2021-04-18T10:23:25Z</time>
      </trkpt>
      <trkpt lat="43.9834" lon="2.31801">
        <ele>433</ele>
        <time>2021-04-18T10:23:26Z</time>
      </trkpt>
      <trkpt lat="43.98339" lon="2.31802">
        <ele>433</ele>
        <time>2021-04-18T10:23:27Z</time>
      </trkpt>
      <trkpt lat="43.9834" lon="2.31802">
        <ele>433</ele>
        <time>2021-04-18T10:23:28Z</time>
      </trkpt>
      <trkpt lat="43.9834" lon="2.31802">
        <ele>433</ele>
        <time>2021-04-18T10:23:28Z</time>
      </trkpt>
      <trkpt lat="43.9834" lon="2.31802">
        <ele>433</ele>
        <time>2021-04-18T10:23:28Z</time>
      </trkpt>
      <trkpt lat="43.9834" lon="2.31813">
        <ele>433</ele>
        <time>2021-04-18T10:23:37Z</time>
      </trkpt>
      <trkpt lat="43.9834" lon="2.31814">
        <ele>434</ele>
        <time>2021-04-18T10:23:38Z</time>
      </trkpt>
      <trkpt lat="43.9834" lon="2.31816">
        <ele>433</ele>
        <time>2021-04-18T10:23:39Z</time>
      </trkpt>
      <trkpt lat="43.98339" lon="2.31817">
        <ele>433</ele>
        <time>2021-04-18T10:23:40Z</time>
      </trkpt>
      <trkpt lat="43.98338" lon="2.31819">
        <ele>432</ele>
        <time>2021-04-18T10:23:41Z</time>
      </trkpt>
      <trkpt lat="43.98338" lon="2.31821">
        <ele>432</ele>
        <time>2021-04-18T10:23:42Z</time>
      </trkpt>
      <trkpt lat="43.98337" lon="2.31822">
        <ele>432</ele>
        <time>2021-04-18T10:23:43Z</time>
      </trkpt>
      <trkpt lat="43.98336" lon="2.31824">
        <ele>432</ele>
        <time>2021-04-18T10:23:44Z</time>
      </trkpt>
      <trkpt lat="43.98336" lon="2.31825">
        <ele>431</ele>
        <time>2021-04-18T10:23:45Z</time>
      </trkpt>
      <trkpt lat="43.98336" lon="2.31827">
        <ele>431</ele>
        <time>2021-04-18T10:23:46Z</time>
      </trkpt>
      <trkpt lat="43.98335" lon="2.31829">
        <ele>431</ele>
        <time>2021-04-18T10:23:47Z</time>
      </trkpt>
      <trkpt lat="43.98334" lon="2.31832">
        <ele>430</ele>
        <time>2021-04-18T10:23:48Z</time>
      </trkpt>
      <trkpt lat="43.98333" lon="2.31834">
        <ele>430</ele>
        <time>2021-04-18T10:23:49Z</time>
      </trkpt>
      <trkpt lat="43.98333" lon="2.31836">
        <ele>430</ele>
        <time>2021-04-18T10:23:50Z</time>
      </trkpt>
      <trkpt lat="43.98332" lon="2.31837">
        <ele>430</ele>
        <time>2021-04-18T10:23:51Z</time>
      </trkpt>
      <trkpt lat="43.98332" lon="2.31839">
        <ele>431</ele>
        <time>2021-04-18T10:23:52Z</time>
      </trkpt>
      <trkpt lat="43.98332" lon="2.3184">
        <ele>431</ele>
        <time>2021-04-18T10:23:53Z</time>
      </trkpt>
      <trkpt lat="43.98331" lon="2.31842">
        <ele>431</ele>
        <time>2021-04-18T10:23:54Z</time>
      </trkpt>
      <trkpt lat="43.9833" lon="2.31844">
        <ele>431</ele>
        <time>2021-04-18T10:23:55Z</time>
      </trkpt>
      <trkpt lat="43.9833" lon="2.31846">
        <ele>431</ele>
        <time>2021-04-18T10:23:56Z</time>
      </trkpt>
      <trkpt lat="43.9833" lon="2.31849">
        <ele>431</ele>
        <time>2021-04-18T10:23:57Z</time>
      </trkpt>
      <trkpt lat="43.9833" lon="2.31852">
        <ele>431</ele>
        <time>2021-04-18T10:23:58Z</time>
      </trkpt>
      <trkpt lat="43.9833" lon="2.31855">
        <ele>430</ele>
        <time>2021-04-18T10:23:59Z</time>
      </trkpt>
      <trkpt lat="43.9833" lon="2.31857">
        <ele>429</ele>
        <time>2021-04-18T10:24:00Z</time>
      </trkpt>
      <trkpt lat="43.9833" lon="2.31859">
        <ele>428</ele>
        <time>2021-04-18T10:24:01Z</time>
      </trkpt>
      <trkpt lat="43.9833" lon="2.3186">
        <ele>428</ele>
        <time>2021-04-18T10:24:02Z</time>
      </trkpt>
      <trkpt lat="43.9833" lon="2.31862">
        <ele>428</ele>
        <time>2021-04-18T10:24:03Z</time>
      </trkpt>
      <trkpt lat="43.9833" lon="2.31864">
        <ele>427</ele>
        <time>2021-04-18T10:24:04Z</time>
      </trkpt>
      <trkpt lat="43.98329" lon="2.31865">
        <ele>427</ele>
        <time>2021-04-18T10:24:05Z</time>
      </trkpt>
      <trkpt lat="43.98329" lon="2.31867">
        <ele>427</ele>
        <time>2021-04-18T10:24:06Z</time>
      </trkpt>
      <trkpt lat="43.98328" lon="2.31869">
        <ele>427</ele>
        <time>2021-04-18T10:24:07Z</time>
      </trkpt>
      <trkpt lat="43.98327" lon="2.31871">
        <ele>427</ele>
        <time>2021-04-18T10:24:08Z</time>
      </trkpt>
      <trkpt lat="43.98327" lon="2.31873">
        <ele>427</ele>
        <time>2021-04-18T10:24:09Z</time>
      </trkpt>
      <trkpt lat="43.98326" lon="2.31875">
        <ele>426</ele>
        <time>2021-04-18T10:24:10Z</time>
      </trkpt>
      <trkpt lat="43.98326" lon="2.31877">
        <ele>426</ele>
        <time>2021-04-18T10:24:11Z</time>
      </trkpt>
      <trkpt lat="43.98327" lon="2.31879">
        <ele>425</ele>
        <time>2021-04-18T10:24:12Z</time>
      </trkpt>
      <trkpt lat="43.98327" lon="2.31881">
        <ele>426</ele>
        <time>2021-04-18T10:24:13Z</time>
      </trkpt>
      <trkpt lat="43.98327" lon="2.31883">
        <ele>425</ele>
        <time>2021-04-18T10:24:14Z</time>
      </trkpt>
      <trkpt lat="43.98327" lon="2.31885">
        <ele>425</ele>
        <time>2021-04-18T10:24:15Z</time>
      </trkpt>
      <trkpt lat="43.98327" lon="2.31888">
        <ele>424</ele>
        <time>2021-04-18T10:24:16Z</time>
      </trkpt>
      <trkpt lat="43.98328" lon="2.3189">
        <ele>424</ele>
        <time>2021-04-18T10:24:17Z</time>
      </trkpt>
      <trkpt lat="43.98328" lon="2.31892">
        <ele>424</ele>
        <time>2021-04-18T10:24:18Z</time>
      </trkpt>
      <trkpt lat="43.98328" lon="2.31895">
        <ele>423</ele>
        <time>2021-04-18T10:24:19Z</time>
      </trkpt>
      <trkpt lat="43.98328" lon="2.31896">
        <ele>423</ele>
        <time>2021-04-18T10:24:20Z</time>
      </trkpt>
      <trkpt lat="43.98328" lon="2.31898">
        <ele>423</ele>
        <time>2021-04-18T10:24:21Z</time>
      </trkpt>
      <trkpt lat="43.98328" lon="2.319">
        <ele>423</ele>
        <time>2021-04-18T10:24:22Z</time>
      </trkpt>
      <trkpt lat="43.98327" lon="2.31901">
        <ele>422</ele>
        <time>2021-04-18T10:24:23Z</time>
      </trkpt>
      <trkpt lat="43.98327" lon="2.31903">
        <ele>422</ele>
        <time>2021-04-18T10:24:24Z</time>
      </trkpt>
      <trkpt lat="43.98328" lon="2.31903">
        <ele>422</ele>
        <time>2021-04-18T10:24:25Z</time>
      </trkpt>
      <trkpt lat="43.98328" lon="2.31903">
        <ele>422</ele>
        <time>2021-04-18T10:24:26Z</time>
      </trkpt>
      <trkpt lat="43.98328" lon="2.31903">
        <ele>422</ele>
        <time>2021-04-18T10:24:27Z</time>
      </trkpt>
      <trkpt lat="43.98328" lon="2.31903">
        <ele>422</ele>
        <time>2021-04-18T10:24:27Z</time>
      </trkpt>
      <trkpt lat="43.98328" lon="2.31903">
        <ele>422</ele>
        <time>2021-04-18T10:24:27Z</time>
      </trkpt>
      <trkpt lat="43.98328" lon="2.31912">
        <ele>421</ele>
        <time>2021-04-18T10:24:35Z</time>
      </trkpt>
      <trkpt lat="43.98328" lon="2.31914">
        <ele>421</ele>
        <time>2021-04-18T10:24:36Z</time>
      </trkpt>
      <trkpt lat="43.98328" lon="2.31916">
        <ele>422</ele>
        <time>2021-04-18T10:24:37Z</time>
      </trkpt>
      <trkpt lat="43.98327" lon="2.31917">
        <ele>422</ele>
        <time>2021-04-18T10:24:38Z</time>
      </trkpt>
      <trkpt lat="43.98326" lon="2.31919">
        <ele>422</ele>
        <time>2021-04-18T10:24:39Z</time>
      </trkpt>
      <trkpt lat="43.98326" lon="2.31921">
        <ele>422</ele>
        <time>2021-04-18T10:24:40Z</time>
      </trkpt>
      <trkpt lat="43.98326" lon="2.31923">
        <ele>422</ele>
        <time>2021-04-18T10:24:41Z</time>
      </trkpt>
      <trkpt lat="43.98326" lon="2.31924">
        <ele>422</ele>
        <time>2021-04-18T10:24:42Z</time>
      </trkpt>
      <trkpt lat="43.98325" lon="2.31926">
        <ele>422</ele>
        <time>2021-04-18T10:24:43Z</time>
      </trkpt>
      <trkpt lat="43.98325" lon="2.31927">
        <ele>422</ele>
        <time>2021-04-18T10:24:44Z</time>
      </trkpt>
      <trkpt lat="43.98325" lon="2.31928">
        <ele>423</ele>
        <time>2021-04-18T10:24:45Z</time>
      </trkpt>
      <trkpt lat="43.98325" lon="2.31928">
        <ele>423</ele>
        <time>2021-04-18T10:24:46Z</time>
      </trkpt>
      <trkpt lat="43.98325" lon="2.31928">
        <ele>423</ele>
        <time>2021-04-18T10:24:46Z</time>
      </trkpt>
      <trkpt lat="43.98325" lon="2.31928">
        <ele>423</ele>
        <time>2021-04-18T10:24:46Z</time>
      </trkpt>
      <trkpt lat="43.9832" lon="2.3194">
        <ele>425</ele>
        <time>2021-04-18T10:25:00Z</time>
      </trkpt>
      <trkpt lat="43.9832" lon="2.31942">
        <ele>424</ele>
        <time>2021-04-18T10:25:01Z</time>
      </trkpt>
      <trkpt lat="43.98319" lon="2.31944">
        <ele>423</ele>
        <time>2021-04-18T10:25:02Z</time>
      </trkpt>
      <trkpt lat="43.9832" lon="2.31946">
        <ele>423</ele>
        <time>2021-04-18T10:25:03Z</time>
      </trkpt>
      <trkpt lat="43.9832" lon="2.31949">
        <ele>422</ele>
        <time>2021-04-18T10:25:04Z</time>
      </trkpt>
      <trkpt lat="43.9832" lon="2.31951">
        <ele>422</ele>
        <time>2021-04-18T10:25:05Z</time>
      </trkpt>
      <trkpt lat="43.9832" lon="2.31953">
        <ele>421</ele>
        <time>2021-04-18T10:25:06Z</time>
      </trkpt>
      <trkpt lat="43.9832" lon="2.31955">
        <ele>421</ele>
        <time>2021-04-18T10:25:07Z</time>
      </trkpt>
      <trkpt lat="43.9832" lon="2.31957">
        <ele>421</ele>
        <time>2021-04-18T10:25:08Z</time>
      </trkpt>
      <trkpt lat="43.98319" lon="2.31958">
        <ele>421</ele>
        <time>2021-04-18T10:25:09Z</time>
      </trkpt>
      <trkpt lat="43.98319" lon="2.3196">
        <ele>421</ele>
        <time>2021-04-18T10:25:10Z</time>
      </trkpt>
      <trkpt lat="43.98319" lon="2.31962">
        <ele>420</ele>
        <time>2021-04-18T10:25:11Z</time>
      </trkpt>
      <trkpt lat="43.98318" lon="2.31964">
        <ele>420</ele>
        <time>2021-04-18T10:25:12Z</time>
      </trkpt>
      <trkpt lat="43.98317" lon="2.31965">
        <ele>421</ele>
        <time>2021-04-18T10:25:13Z</time>
      </trkpt>
      <trkpt lat="43.98317" lon="2.31967">
        <ele>421</ele>
        <time>2021-04-18T10:25:14Z</time>
      </trkpt>
      <trkpt lat="43.98317" lon="2.31969">
        <ele>421</ele>
        <time>2021-04-18T10:25:15Z</time>
      </trkpt>
      <trkpt lat="43.98317" lon="2.31971">
        <ele>420</ele>
        <time>2021-04-18T10:25:16Z</time>
      </trkpt>
      <trkpt lat="43.98315" lon="2.31972">
        <ele>420</ele>
        <time>2021-04-18T10:25:17Z</time>
      </trkpt>
      <trkpt lat="43.98314" lon="2.31973">
        <ele>419</ele>
        <time>2021-04-18T10:25:18Z</time>
      </trkpt>
      <trkpt lat="43.98313" lon="2.31974">
        <ele>419</ele>
        <time>2021-04-18T10:25:19Z</time>
      </trkpt>
      <trkpt lat="43.98312" lon="2.31976">
        <ele>419</ele>
        <time>2021-04-18T10:25:20Z</time>
      </trkpt>
      <trkpt lat="43.98312" lon="2.31978">
        <ele>419</ele>
        <time>2021-04-18T10:25:21Z</time>
      </trkpt>
      <trkpt lat="43.98312" lon="2.3198">
        <ele>419</ele>
        <time>2021-04-18T10:25:22Z</time>
      </trkpt>
      <trkpt lat="43.98312" lon="2.31981">
        <ele>418</ele>
        <time>2021-04-18T10:25:23Z</time>
      </trkpt>
      <trkpt lat="43.98311" lon="2.31982">
        <ele>418</ele>
        <time>2021-04-18T10:25:24Z</time>
      </trkpt>
      <trkpt lat="43.98311" lon="2.31984">
        <ele>418</ele>
        <time>2021-04-18T10:25:25Z</time>
      </trkpt>
      <trkpt lat="43.9831" lon="2.31986">
        <ele>418</ele>
        <time>2021-04-18T10:25:26Z</time>
      </trkpt>
      <trkpt lat="43.9831" lon="2.31987">
        <ele>417</ele>
        <time>2021-04-18T10:25:27Z</time>
      </trkpt>
      <trkpt lat="43.98309" lon="2.31989">
        <ele>417</ele>
        <time>2021-04-18T10:25:28Z</time>
      </trkpt>
      <trkpt lat="43.98309" lon="2.3199">
        <ele>417</ele>
        <time>2021-04-18T10:25:29Z</time>
      </trkpt>
      <trkpt lat="43.98309" lon="2.31991">
        <ele>417</ele>
        <time>2021-04-18T10:25:30Z</time>
      </trkpt>
      <trkpt lat="43.98309" lon="2.31993">
        <ele>417</ele>
        <time>2021-04-18T10:25:31Z</time>
      </trkpt>
      <trkpt lat="43.98309" lon="2.31994">
        <ele>417</ele>
        <time>2021-04-18T10:25:32Z</time>
      </trkpt>
      <trkpt lat="43.9831" lon="2.31995">
        <ele>417</ele>
        <time>2021-04-18T10:25:33Z</time>
      </trkpt>
      <trkpt lat="43.98309" lon="2.31997">
        <ele>416</ele>
        <time>2021-04-18T10:25:34Z</time>
      </trkpt>
      <trkpt lat="43.9831" lon="2.31999">
        <ele>416</ele>
        <time>2021-04-18T10:25:35Z</time>
      </trkpt>
      <trkpt lat="43.98311" lon="2.32001">
        <ele>416</ele>
        <time>2021-04-18T10:25:36Z</time>
      </trkpt>
      <trkpt lat="43.98311" lon="2.32003">
        <ele>416</ele>
        <time>2021-04-18T10:25:37Z</time>
      </trkpt>
      <trkpt lat="43.98311" lon="2.32004">
        <ele>416</ele>
        <time>2021-04-18T10:25:38Z</time>
      </trkpt>
      <trkpt lat="43.9831" lon="2.32006">
        <ele>416</ele>
        <time>2021-04-18T10:25:39Z</time>
      </trkpt>
      <trkpt lat="43.98309" lon="2.32008">
        <ele>416</ele>
        <time>2021-04-18T10:25:40Z</time>
      </trkpt>
      <trkpt lat="43.98308" lon="2.3201">
        <ele>416</ele>
        <time>2021-04-18T10:25:41Z</time>
      </trkpt>
      <trkpt lat="43.98307" lon="2.32012">
        <ele>416</ele>
        <time>2021-04-18T10:25:42Z</time>
      </trkpt>
      <trkpt lat="43.98306" lon="2.32014">
        <ele>417</ele>
        <time>2021-04-18T10:25:43Z</time>
      </trkpt>
      <trkpt lat="43.98304" lon="2.32015">
        <ele>417</ele>
        <time>2021-04-18T10:25:44Z</time>
      </trkpt>
      <trkpt lat="43.98303" lon="2.32017">
        <ele>418</ele>
        <time>2021-04-18T10:25:45Z</time>
      </trkpt>
      <trkpt lat="43.98303" lon="2.32019">
        <ele>418</ele>
        <time>2021-04-18T10:25:46Z</time>
      </trkpt>
      <trkpt lat="43.98302" lon="2.32021">
        <ele>418</ele>
        <time>2021-04-18T10:25:47Z</time>
      </trkpt>
      <trkpt lat="43.98301" lon="2.32022">
        <ele>419</ele>
        <time>2021-04-18T10:25:48Z</time>
      </trkpt>
      <trkpt lat="43.98299" lon="2.32024">
        <ele>419</ele>
        <time>2021-04-18T10:25:49Z</time>
      </trkpt>
      <trkpt lat="43.98299" lon="2.32026">
        <ele>420</ele>
        <time>2021-04-18T10:25:50Z</time>
      </trkpt>
      <trkpt lat="43.98298" lon="2.32028">
        <ele>419</ele>
        <time>2021-04-18T10:25:51Z</time>
      </trkpt>
      <trkpt lat="43.98297" lon="2.3203">
        <ele>420</ele>
        <time>2021-04-18T10:25:52Z</time>
      </trkpt>
      <trkpt lat="43.98296" lon="2.32032">
        <ele>420</ele>
        <time>2021-04-18T10:25:53Z</time>
      </trkpt>
      <trkpt lat="43.98295" lon="2.32034">
        <ele>421</ele>
        <time>2021-04-18T10:25:54Z</time>
      </trkpt>
      <trkpt lat="43.98294" lon="2.32036">
        <ele>421</ele>
        <time>2021-04-18T10:25:55Z</time>
      </trkpt>
      <trkpt lat="43.98294" lon="2.32038">
        <ele>422</ele>
        <time>2021-04-18T10:25:56Z</time>
      </trkpt>
      <trkpt lat="43.98293" lon="2.3204">
        <ele>423</ele>
        <time>2021-04-18T10:25:57Z</time>
      </trkpt>
      <trkpt lat="43.98292" lon="2.32041">
        <ele>423</ele>
        <time>2021-04-18T10:25:58Z</time>
      </trkpt>
      <trkpt lat="43.98291" lon="2.32043">
        <ele>424</ele>
        <time>2021-04-18T10:25:59Z</time>
      </trkpt>
      <trkpt lat="43.9829" lon="2.32044">
        <ele>424</ele>
        <time>2021-04-18T10:26:00Z</time>
      </trkpt>
      <trkpt lat="43.98289" lon="2.32046">
        <ele>424</ele>
        <time>2021-04-18T10:26:01Z</time>
      </trkpt>
      <trkpt lat="43.98288" lon="2.32048">
        <ele>424</ele>
        <time>2021-04-18T10:26:02Z</time>
      </trkpt>
      <trkpt lat="43.98286" lon="2.32051">
        <ele>425</ele>
        <time>2021-04-18T10:26:03Z</time>
      </trkpt>
      <trkpt lat="43.98286" lon="2.32053">
        <ele>426</ele>
        <time>2021-04-18T10:26:04Z</time>
      </trkpt>
      <trkpt lat="43.98285" lon="2.32055">
        <ele>426</ele>
        <time>2021-04-18T10:26:05Z</time>
      </trkpt>
      <trkpt lat="43.98284" lon="2.32057">
        <ele>427</ele>
        <time>2021-04-18T10:26:06Z</time>
      </trkpt>
      <trkpt lat="43.98284" lon="2.32059">
        <ele>428</ele>
        <time>2021-04-18T10:26:07Z</time>
      </trkpt>
      <trkpt lat="43.98283" lon="2.32061">
        <ele>427</ele>
        <time>2021-04-18T10:26:08Z</time>
      </trkpt>
      <trkpt lat="43.98283" lon="2.32064">
        <ele>427</ele>
        <time>2021-04-18T10:26:09Z</time>
      </trkpt>
      <trkpt lat="43.98282" lon="2.32066">
        <ele>427</ele>
        <time>2021-04-18T10:26:10Z</time>
      </trkpt>
      <trkpt lat="43.98281" lon="2.32068">
        <ele>427</ele>
        <time>2021-04-18T10:26:11Z</time>
      </trkpt>
      <trkpt lat="43.9828" lon="2.32071">
        <ele>428</ele>
        <time>2021-04-18T10:26:12Z</time>
      </trkpt>
      <trkpt lat="43.98278" lon="2.32073">
        <ele>428</ele>
        <time>2021-04-18T10:26:13Z</time>
      </trkpt>
      <trkpt lat="43.98278" lon="2.32075">
        <ele>428</ele>
        <time>2021-04-18T10:26:14Z</time>
      </trkpt>
      <trkpt lat="43.98277" lon="2.32078">
        <ele>428</ele>
        <time>2021-04-18T10:26:15Z</time>
      </trkpt>
      <trkpt lat="43.98277" lon="2.3208">
        <ele>428</ele>
        <time>2021-04-18T10:26:16Z</time>
      </trkpt>
      <trkpt lat="43.98275" lon="2.32082">
        <ele>428</ele>
        <time>2021-04-18T10:26:17Z</time>
      </trkpt>
      <trkpt lat="43.98275" lon="2.32083">
        <ele>428</ele>
        <time>2021-04-18T10:26:18Z</time>
      </trkpt>
      <trkpt lat="43.98274" lon="2.32084">
        <ele>428</ele>
        <time>2021-04-18T10:26:19Z</time>
      </trkpt>
      <trkpt lat="43.98273" lon="2.32086">
        <ele>428</ele>
        <time>2021-04-18T10:26:20Z</time>
      </trkpt>
      <trkpt lat="43.98272" lon="2.32088">
        <ele>428</ele>
        <time>2021-04-18T10:26:21Z</time>
      </trkpt>
      <trkpt lat="43.98271" lon="2.32089">
        <ele>428</ele>
        <time>2021-04-18T10:26:22Z</time>
      </trkpt>
      <trkpt lat="43.98271" lon="2.32091">
        <ele>428</ele>
        <time>2021-04-18T10:26:23Z</time>
      </trkpt>
      <trkpt lat="43.9827" lon="2.32092">
        <ele>429</ele>
        <time>2021-04-18T10:26:24Z</time>
      </trkpt>
      <trkpt lat="43.9827" lon="2.32094">
        <ele>430</ele>
        <time>2021-04-18T10:26:25Z</time>
      </trkpt>
      <trkpt lat="43.98269" lon="2.32095">
        <ele>430</ele>
        <time>2021-04-18T10:26:26Z</time>
      </trkpt>
      <trkpt lat="43.98268" lon="2.32097">
        <ele>431</ele>
        <time>2021-04-18T10:26:27Z</time>
      </trkpt>
      <trkpt lat="43.98267" lon="2.32099">
        <ele>430</ele>
        <time>2021-04-18T10:26:28Z</time>
      </trkpt>
      <trkpt lat="43.98267" lon="2.32102">
        <ele>431</ele>
        <time>2021-04-18T10:26:29Z</time>
      </trkpt>
      <trkpt lat="43.98266" lon="2.32104">
        <ele>431</ele>
        <time>2021-04-18T10:26:30Z</time>
      </trkpt>
      <trkpt lat="43.98266" lon="2.32106">
        <ele>431</ele>
        <time>2021-04-18T10:26:31Z</time>
      </trkpt>
      <trkpt lat="43.98265" lon="2.32108">
        <ele>431</ele>
        <time>2021-04-18T10:26:32Z</time>
      </trkpt>
      <trkpt lat="43.98264" lon="2.3211">
        <ele>430</ele>
        <time>2021-04-18T10:26:33Z</time>
      </trkpt>
      <trkpt lat="43.98264" lon="2.32113">
        <ele>430</ele>
        <time>2021-04-18T10:26:34Z</time>
      </trkpt>
      <trkpt lat="43.98264" lon="2.32115">
        <ele>430</ele>
        <time>2021-04-18T10:26:35Z</time>
      </trkpt>
      <trkpt lat="43.98263" lon="2.32117">
        <ele>429</ele>
        <time>2021-04-18T10:26:36Z</time>
      </trkpt>
      <trkpt lat="43.98262" lon="2.3212">
        <ele>429</ele>
        <time>2021-04-18T10:26:37Z</time>
      </trkpt>
      <trkpt lat="43.98262" lon="2.32122">
        <ele>430</ele>
        <time>2021-04-18T10:26:38Z</time>
      </trkpt>
      <trkpt lat="43.98261" lon="2.32124">
        <ele>429</ele>
        <time>2021-04-18T10:26:39Z</time>
      </trkpt>
      <trkpt lat="43.98261" lon="2.32126">
        <ele>429</ele>
        <time>2021-04-18T10:26:40Z</time>
      </trkpt>
      <trkpt lat="43.9826" lon="2.32129">
        <ele>429</ele>
        <time>2021-04-18T10:26:41Z</time>
      </trkpt>
      <trkpt lat="43.98259" lon="2.32131">
        <ele>428</ele>
        <time>2021-04-18T10:26:42Z</time>
      </trkpt>
      <trkpt lat="43.98258" lon="2.32133">
        <ele>428</ele>
        <time>2021-04-18T10:26:43Z</time>
      </trkpt>
      <trkpt lat="43.98257" lon="2.32135">
        <ele>428</ele>
        <time>2021-04-18T10:26:44Z</time>
      </trkpt>
      <trkpt lat="43.98257" lon="2.32137">
        <ele>428</ele>
        <time>2021-04-18T10:26:45Z</time>
      </trkpt>
      <trkpt lat="43.98257" lon="2.32139">
        <ele>428</ele>
        <time>2021-04-18T10:26:46Z</time>
      </trkpt>
      <trkpt lat="43.98256" lon="2.32141">
        <ele>428</ele>
        <time>2021-04-18T10:26:47Z</time>
      </trkpt>
      <trkpt lat="43.98256" lon="2.32143">
        <ele>428</ele>
        <time>2021-04-18T10:26:48Z</time>
      </trkpt>
      <trkpt lat="43.98255" lon="2.32145">
        <ele>427</ele>
        <time>2021-04-18T10:26:49Z</time>
      </trkpt>
      <trkpt lat="43.98254" lon="2.32147">
        <ele>428</ele>
        <time>2021-04-18T10:26:50Z</time>
      </trkpt>
      <trkpt lat="43.98253" lon="2.32149">
        <ele>427</ele>
        <time>2021-04-18T10:26:51Z</time>
      </trkpt>
      <trkpt lat="43.98252" lon="2.32151">
        <ele>428</ele>
        <time>2021-04-18T10:26:52Z</time>
      </trkpt>
      <trkpt lat="43.98252" lon="2.32153">
        <ele>428</ele>
        <time>2021-04-18T10:26:53Z</time>
      </trkpt>
      <trkpt lat="43.98252" lon="2.32155">
        <ele>427</ele>
        <time>2021-04-18T10:26:54Z</time>
      </trkpt>
      <trkpt lat="43.98251" lon="2.32157">
        <ele>427</ele>
        <time>2021-04-18T10:26:55Z</time>
      </trkpt>
      <trkpt lat="43.98251" lon="2.32159">
        <ele>427</ele>
        <time>2021-04-18T10:26:56Z</time>
      </trkpt>
      <trkpt lat="43.98251" lon="2.3216">
        <ele>427</ele>
        <time>2021-04-18T10:26:57Z</time>
      </trkpt>
      <trkpt lat="43.98251" lon="2.32162">
        <ele>427</ele>
        <time>2021-04-18T10:26:58Z</time>
      </trkpt>
      <trkpt lat="43.98251" lon="2.32164">
        <ele>428</ele>
        <time>2021-04-18T10:26:59Z</time>
      </trkpt>
      <trkpt lat="43.98251" lon="2.32166">
        <ele>427</ele>
        <time>2021-04-18T10:27:00Z</time>
      </trkpt>
      <trkpt lat="43.9825" lon="2.32169">
        <ele>427</ele>
        <time>2021-04-18T10:27:01Z</time>
      </trkpt>
      <trkpt lat="43.9825" lon="2.32172">
        <ele>426</ele>
        <time>2021-04-18T10:27:02Z</time>
      </trkpt>
      <trkpt lat="43.9825" lon="2.32174">
        <ele>427</ele>
        <time>2021-04-18T10:27:03Z</time>
      </trkpt>
      <trkpt lat="43.9825" lon="2.32177">
        <ele>427</ele>
        <time>2021-04-18T10:27:04Z</time>
      </trkpt>
      <trkpt lat="43.9825" lon="2.3218">
        <ele>427</ele>
        <time>2021-04-18T10:27:05Z</time>
      </trkpt>
      <trkpt lat="43.98251" lon="2.32182">
        <ele>427</ele>
        <time>2021-04-18T10:27:06Z</time>
      </trkpt>
      <trkpt lat="43.98251" lon="2.32184">
        <ele>427</ele>
        <time>2021-04-18T10:27:07Z</time>
      </trkpt>
      <trkpt lat="43.98251" lon="2.32186">
        <ele>427</ele>
        <time>2021-04-18T10:27:08Z</time>
      </trkpt>
      <trkpt lat="43.98251" lon="2.32187">
        <ele>427</ele>
        <time>2021-04-18T10:27:09Z</time>
      </trkpt>
      <trkpt lat="43.98251" lon="2.3219">
        <ele>427</ele>
        <time>2021-04-18T10:27:10Z</time>
      </trkpt>
      <trkpt lat="43.98251" lon="2.32192">
        <ele>427</ele>
        <time>2021-04-18T10:27:11Z</time>
      </trkpt>
      <trkpt lat="43.98251" lon="2.32194">
        <ele>428</ele>
        <time>2021-04-18T10:27:12Z</time>
      </trkpt>
      <trkpt lat="43.9825" lon="2.32196">
        <ele>427</ele>
        <time>2021-04-18T10:27:13Z</time>
      </trkpt>
      <trkpt lat="43.9825" lon="2.32198">
        <ele>427</ele>
        <time>2021-04-18T10:27:14Z</time>
      </trkpt>
      <trkpt lat="43.9825" lon="2.32199">
        <ele>427</ele>
        <time>2021-04-18T10:27:15Z</time>
      </trkpt>
      <trkpt lat="43.98249" lon="2.32201">
        <ele>427</ele>
        <time>2021-04-18T10:27:16Z</time>
      </trkpt>
      <trkpt lat="43.98249" lon="2.32203">
        <ele>427</ele>
        <time>2021-04-18T10:27:17Z</time>
      </trkpt>
      <trkpt lat="43.98248" lon="2.32205">
        <ele>427</ele>
        <time>2021-04-18T10:27:18Z</time>
      </trkpt>
      <trkpt lat="43.98248" lon="2.32206">
        <ele>427</ele>
        <time>2021-04-18T10:27:19Z</time>
      </trkpt>
      <trkpt lat="43.98247" lon="2.32209">
        <ele>427</ele>
        <time>2021-04-18T10:27:20Z</time>
      </trkpt>
      <trkpt lat="43.98247" lon="2.3221">
        <ele>428</ele>
        <time>2021-04-18T10:27:21Z</time>
      </trkpt>
      <trkpt lat="43.98247" lon="2.32213">
        <ele>428</ele>
        <time>2021-04-18T10:27:22Z</time>
      </trkpt>
      <trkpt lat="43.98247" lon="2.32215">
        <ele>428</ele>
        <time>2021-04-18T10:27:23Z</time>
      </trkpt>
      <trkpt lat="43.98246" lon="2.32217">
        <ele>428</ele>
        <time>2021-04-18T10:27:24Z</time>
      </trkpt>
      <trkpt lat="43.98246" lon="2.32219">
        <ele>429</ele>
        <time>2021-04-18T10:27:25Z</time>
      </trkpt>
      <trkpt lat="43.98246" lon="2.32221">
        <ele>429</ele>
        <time>2021-04-18T10:27:26Z</time>
      </trkpt>
      <trkpt lat="43.98245" lon="2.32223">
        <ele>429</ele>
        <time>2021-04-18T10:27:27Z</time>
      </trkpt>
      <trkpt lat="43.98244" lon="2.32225">
        <ele>429</ele>
        <time>2021-04-18T10:27:28Z</time>
      </trkpt>
      <trkpt lat="43.98244" lon="2.32227">
        <ele>429</ele>
        <time>2021-04-18T10:27:29Z</time>
      </trkpt>
      <trkpt lat="43.98243" lon="2.32229">
        <ele>430</ele>
        <time>2021-04-18T10:27:30Z</time>
      </trkpt>
      <trkpt lat="43.98243" lon="2.32231">
        <ele>430</ele>
        <time>2021-04-18T10:27:31Z</time>
      </trkpt>
      <trkpt lat="43.98243" lon="2.32233">
        <ele>429</ele>
        <time>2021-04-18T10:27:32Z</time>
      </trkpt>
      <trkpt lat="43.98243" lon="2.32235">
        <ele>430</ele>
        <time>2021-04-18T10:27:33Z</time>
      </trkpt>
      <trkpt lat="43.98243" lon="2.32237">
        <ele>430</ele>
        <time>2021-04-18T10:27:34Z</time>
      </trkpt>
      <trkpt lat="43.98241" lon="2.32239">
        <ele>431</ele>
        <time>2021-04-18T10:27:35Z</time>
      </trkpt>
      <trkpt lat="43.98241" lon="2.32242">
        <ele>430</ele>
        <time>2021-04-18T10:27:36Z</time>
      </trkpt>
      <trkpt lat="43.98241" lon="2.32244">
        <ele>430</ele>
        <time>2021-04-18T10:27:37Z</time>
      </trkpt>
      <trkpt lat="43.9824" lon="2.32247">
        <ele>430</ele>
        <time>2021-04-18T10:27:38Z</time>
      </trkpt>
      <trkpt lat="43.9824" lon="2.32249">
        <ele>431</ele>
        <time>2021-04-18T10:27:39Z</time>
      </trkpt>
      <trkpt lat="43.98238" lon="2.3225">
        <ele>431</ele>
        <time>2021-04-18T10:27:40Z</time>
      </trkpt>
      <trkpt lat="43.98238" lon="2.32252">
        <ele>431</ele>
        <time>2021-04-18T10:27:41Z</time>
      </trkpt>
      <trkpt lat="43.98238" lon="2.32254">
        <ele>431</ele>
        <time>2021-04-18T10:27:42Z</time>
      </trkpt>
      <trkpt lat="43.98237" lon="2.32256">
        <ele>431</ele>
        <time>2021-04-18T10:27:43Z</time>
      </trkpt>
      <trkpt lat="43.98237" lon="2.32258">
        <ele>431</ele>
        <time>2021-04-18T10:27:44Z</time>
      </trkpt>
      <trkpt lat="43.98236" lon="2.3226">
        <ele>431</ele>
        <time>2021-04-18T10:27:45Z</time>
      </trkpt>
      <trkpt lat="43.98236" lon="2.32262">
        <ele>432</ele>
        <time>2021-04-18T10:27:46Z</time>
      </trkpt>
      <trkpt lat="43.98235" lon="2.32265">
        <ele>432</ele>
        <time>2021-04-18T10:27:47Z</time>
      </trkpt>
      <trkpt lat="43.98234" lon="2.32267">
        <ele>432</ele>
        <time>2021-04-18T10:27:48Z</time>
      </trkpt>
      <trkpt lat="43.98233" lon="2.32269">
        <ele>432</ele>
        <time>2021-04-18T10:27:49Z</time>
      </trkpt>
      <trkpt lat="43.98232" lon="2.32271">
        <ele>432</ele>
        <time>2021-04-18T10:27:50Z</time>
      </trkpt>
      <trkpt lat="43.98232" lon="2.32273">
        <ele>432</ele>
        <time>2021-04-18T10:27:51Z</time>
      </trkpt>
      <trkpt lat="43.98231" lon="2.32275">
        <ele>432</ele>
        <time>2021-04-18T10:27:52Z</time>
      </trkpt>
      <trkpt lat="43.9823" lon="2.32277">
        <ele>432</ele>
        <time>2021-04-18T10:27:53Z</time>
      </trkpt>
      <trkpt lat="43.9823" lon="2.32279">
        <ele>433</ele>
        <time>2021-04-18T10:27:54Z</time>
      </trkpt>
      <trkpt lat="43.98229" lon="2.32281">
        <ele>433</ele>
        <time>2021-04-18T10:27:55Z</time>
      </trkpt>
      <trkpt lat="43.98229" lon="2.32284">
        <ele>433</ele>
        <time>2021-04-18T10:27:56Z</time>
      </trkpt>
      <trkpt lat="43.98228" lon="2.32286">
        <ele>434</ele>
        <time>2021-04-18T10:27:57Z</time>
      </trkpt>
      <trkpt lat="43.98228" lon="2.32288">
        <ele>434</ele>
        <time>2021-04-18T10:27:58Z</time>
      </trkpt>
      <trkpt lat="43.98227" lon="2.3229">
        <ele>434</ele>
        <time>2021-04-18T10:27:59Z</time>
      </trkpt>
      <trkpt lat="43.98227" lon="2.32293">
        <ele>434</ele>
        <time>2021-04-18T10:28:00Z</time>
      </trkpt>
      <trkpt lat="43.98226" lon="2.32295">
        <ele>433</ele>
        <time>2021-04-18T10:28:01Z</time>
      </trkpt>
      <trkpt lat="43.98225" lon="2.32297">
        <ele>433</ele>
        <time>2021-04-18T10:28:02Z</time>
      </trkpt>
      <trkpt lat="43.98225" lon="2.32299">
        <ele>433</ele>
        <time>2021-04-18T10:28:03Z</time>
      </trkpt>
      <trkpt lat="43.98225" lon="2.32301">
        <ele>433</ele>
        <time>2021-04-18T10:28:04Z</time>
      </trkpt>
      <trkpt lat="43.98224" lon="2.32303">
        <ele>433</ele>
        <time>2021-04-18T10:28:05Z</time>
      </trkpt>
      <trkpt lat="43.98224" lon="2.32305">
        <ele>433</ele>
        <time>2021-04-18T10:28:06Z</time>
      </trkpt>
      <trkpt lat="43.98223" lon="2.32307">
        <ele>432</ele>
        <time>2021-04-18T10:28:07Z</time>
      </trkpt>
      <trkpt lat="43.98222" lon="2.32309">
        <ele>431</ele>
        <time>2021-04-18T10:28:08Z</time>
      </trkpt>
      <trkpt lat="43.98222" lon="2.32311">
        <ele>430</ele>
        <time>2021-04-18T10:28:09Z</time>
      </trkpt>
      <trkpt lat="43.98221" lon="2.32313">
        <ele>431</ele>
        <time>2021-04-18T10:28:10Z</time>
      </trkpt>
      <trkpt lat="43.9822" lon="2.32315">
        <ele>431</ele>
        <time>2021-04-18T10:28:11Z</time>
      </trkpt>
      <trkpt lat="43.9822" lon="2.32317">
        <ele>431</ele>
        <time>2021-04-18T10:28:12Z</time>
      </trkpt>
      <trkpt lat="43.98219" lon="2.32319">
        <ele>431</ele>
        <time>2021-04-18T10:28:13Z</time>
      </trkpt>
      <trkpt lat="43.98218" lon="2.32322">
        <ele>432</ele>
        <time>2021-04-18T10:28:14Z</time>
      </trkpt>
      <trkpt lat="43.98217" lon="2.32323">
        <ele>432</ele>
        <time>2021-04-18T10:28:15Z</time>
      </trkpt>
      <trkpt lat="43.98217" lon="2.32325">
        <ele>432</ele>
        <time>2021-04-18T10:28:16Z</time>
      </trkpt>
      <trkpt lat="43.98216" lon="2.32327">
        <ele>432</ele>
        <time>2021-04-18T10:28:17Z</time>
      </trkpt>
      <trkpt lat="43.98216" lon="2.32329">
        <ele>432</ele>
        <time>2021-04-18T10:28:18Z</time>
      </trkpt>
      <trkpt lat="43.98216" lon="2.32331">
        <ele>432</ele>
        <time>2021-04-18T10:28:19Z</time>
      </trkpt>
      <trkpt lat="43.98216" lon="2.32333">
        <ele>431</ele>
        <time>2021-04-18T10:28:20Z</time>
      </trkpt>
      <trkpt lat="43.98216" lon="2.32334">
        <ele>431</ele>
        <time>2021-04-18T10:28:21Z</time>
      </trkpt>
      <trkpt lat="43.98215" lon="2.32336">
        <ele>431</ele>
        <time>2021-04-18T10:28:22Z</time>
      </trkpt>
      <trkpt lat="43.98214" lon="2.32338">
        <ele>431</ele>
        <time>2021-04-18T10:28:23Z</time>
      </trkpt>
      <trkpt lat="43.98214" lon="2.32341">
        <ele>431</ele>
        <time>2021-04-18T10:28:24Z</time>
      </trkpt>
      <trkpt lat="43.98214" lon="2.32343">
        <ele>431</ele>
        <time>2021-04-18T10:28:25Z</time>
      </trkpt>
      <trkpt lat="43.98213" lon="2.32345">
        <ele>431</ele>
        <time>2021-04-18T10:28:26Z</time>
      </trkpt>
      <trkpt lat="43.98213" lon="2.32347">
        <ele>430</ele>
        <time>2021-04-18T10:28:27Z</time>
      </trkpt>
      <trkpt lat="43.98212" lon="2.32349">
        <ele>430</ele>
        <time>2021-04-18T10:28:28Z</time>
      </trkpt>
      <trkpt lat="43.98212" lon="2.32351">
        <ele>430</ele>
        <time>2021-04-18T10:28:29Z</time>
      </trkpt>
      <trkpt lat="43.98211" lon="2.32353">
        <ele>431</ele>
        <time>2021-04-18T10:28:30Z</time>
      </trkpt>
      <trkpt lat="43.9821" lon="2.32354">
        <ele>431</ele>
        <time>2021-04-18T10:28:31Z</time>
      </trkpt>
      <trkpt lat="43.98209" lon="2.32356">
        <ele>431</ele>
        <time>2021-04-18T10:28:32Z</time>
      </trkpt>
      <trkpt lat="43.98208" lon="2.32358">
        <ele>432</ele>
        <time>2021-04-18T10:28:33Z</time>
      </trkpt>
      <trkpt lat="43.98207" lon="2.32359">
        <ele>432</ele>
        <time>2021-04-18T10:28:34Z</time>
      </trkpt>
      <trkpt lat="43.98207" lon="2.32361">
        <ele>432</ele>
        <time>2021-04-18T10:28:35Z</time>
      </trkpt>
      <trkpt lat="43.98206" lon="2.32362">
        <ele>432</ele>
        <time>2021-04-18T10:28:36Z</time>
      </trkpt>
      <trkpt lat="43.98206" lon="2.32364">
        <ele>432</ele>
        <time>2021-04-18T10:28:37Z</time>
      </trkpt>
      <trkpt lat="43.98206" lon="2.32365">
        <ele>432</ele>
        <time>2021-04-18T10:28:38Z</time>
      </trkpt>
      <trkpt lat="43.98205" lon="2.32367">
        <ele>431</ele>
        <time>2021-04-18T10:28:39Z</time>
      </trkpt>
      <trkpt lat="43.98204" lon="2.32369">
        <ele>431</ele>
        <time>2021-04-18T10:28:40Z</time>
      </trkpt>
      <trkpt lat="43.98204" lon="2.32371">
        <ele>431</ele>
        <time>2021-04-18T10:28:41Z</time>
      </trkpt>
      <trkpt lat="43.98203" lon="2.32374">
        <ele>430</ele>
        <time>2021-04-18T10:28:42Z</time>
      </trkpt>
      <trkpt lat="43.98202" lon="2.32376">
        <ele>430</ele>
        <time>2021-04-18T10:28:43Z</time>
      </trkpt>
      <trkpt lat="43.98201" lon="2.32379">
        <ele>431</ele>
        <time>2021-04-18T10:28:44Z</time>
      </trkpt>
      <trkpt lat="43.982" lon="2.3238">
        <ele>431</ele>
        <time>2021-04-18T10:28:45Z</time>
      </trkpt>
      <trkpt lat="43.98199" lon="2.32382">
        <ele>430</ele>
        <time>2021-04-18T10:28:46Z</time>
      </trkpt>
      <trkpt lat="43.98198" lon="2.32384">
        <ele>429</ele>
        <time>2021-04-18T10:28:47Z</time>
      </trkpt>
      <trkpt lat="43.98197" lon="2.32386">
        <ele>429</ele>
        <time>2021-04-18T10:28:48Z</time>
      </trkpt>
      <trkpt lat="43.98196" lon="2.32389">
        <ele>428</ele>
        <time>2021-04-18T10:28:49Z</time>
      </trkpt>
      <trkpt lat="43.98195" lon="2.32391">
        <ele>428</ele>
        <time>2021-04-18T10:28:50Z</time>
      </trkpt>
      <trkpt lat="43.98194" lon="2.32393">
        <ele>428</ele>
        <time>2021-04-18T10:28:51Z</time>
      </trkpt>
      <trkpt lat="43.98194" lon="2.32394">
        <ele>427</ele>
        <time>2021-04-18T10:28:52Z</time>
      </trkpt>
      <trkpt lat="43.98193" lon="2.32397">
        <ele>427</ele>
        <time>2021-04-18T10:28:53Z</time>
      </trkpt>
      <trkpt lat="43.98193" lon="2.32399">
        <ele>426</ele>
        <time>2021-04-18T10:28:54Z</time>
      </trkpt>
      <trkpt lat="43.98193" lon="2.32401">
        <ele>426</ele>
        <time>2021-04-18T10:28:55Z</time>
      </trkpt>
      <trkpt lat="43.98193" lon="2.32403">
        <ele>426</ele>
        <time>2021-04-18T10:28:56Z</time>
      </trkpt>
      <trkpt lat="43.98192" lon="2.32405">
        <ele>426</ele>
        <time>2021-04-18T10:28:57Z</time>
      </trkpt>
      <trkpt lat="43.98191" lon="2.32406">
        <ele>425</ele>
        <time>2021-04-18T10:28:58Z</time>
      </trkpt>
      <trkpt lat="43.9819" lon="2.32408">
        <ele>425</ele>
        <time>2021-04-18T10:28:59Z</time>
      </trkpt>
      <trkpt lat="43.98189" lon="2.3241">
        <ele>426</ele>
        <time>2021-04-18T10:29:00Z</time>
      </trkpt>
      <trkpt lat="43.98189" lon="2.32413">
        <ele>425</ele>
        <time>2021-04-18T10:29:01Z</time>
      </trkpt>
      <trkpt lat="43.98189" lon="2.32416">
        <ele>426</ele>
        <time>2021-04-18T10:29:02Z</time>
      </trkpt>
      <trkpt lat="43.98188" lon="2.32418">
        <ele>425</ele>
        <time>2021-04-18T10:29:03Z</time>
      </trkpt>
      <trkpt lat="43.98188" lon="2.32421">
        <ele>426</ele>
        <time>2021-04-18T10:29:04Z</time>
      </trkpt>
      <trkpt lat="43.98188" lon="2.32423">
        <ele>426</ele>
        <time>2021-04-18T10:29:05Z</time>
      </trkpt>
      <trkpt lat="43.98188" lon="2.32425">
        <ele>427</ele>
        <time>2021-04-18T10:29:06Z</time>
      </trkpt>
      <trkpt lat="43.98188" lon="2.32427">
        <ele>427</ele>
        <time>2021-04-18T10:29:07Z</time>
      </trkpt>
      <trkpt lat="43.98188" lon="2.32429">
        <ele>428</ele>
        <time>2021-04-18T10:29:08Z</time>
      </trkpt>
      <trkpt lat="43.98187" lon="2.32431">
        <ele>428</ele>
        <time>2021-04-18T10:29:09Z</time>
      </trkpt>
      <trkpt lat="43.98186" lon="2.32433">
        <ele>428</ele>
        <time>2021-04-18T10:29:10Z</time>
      </trkpt>
      <trkpt lat="43.98185" lon="2.32436">
        <ele>428</ele>
        <time>2021-04-18T10:29:11Z</time>
      </trkpt>
      <trkpt lat="43.98185" lon="2.32437">
        <ele>428</ele>
        <time>2021-04-18T10:29:12Z</time>
      </trkpt>
      <trkpt lat="43.98184" lon="2.32439">
        <ele>428</ele>
        <time>2021-04-18T10:29:13Z</time>
      </trkpt>
      <trkpt lat="43.98183" lon="2.32441">
        <ele>428</ele>
        <time>2021-04-18T10:29:14Z</time>
      </trkpt>
      <trkpt lat="43.98182" lon="2.32443">
        <ele>429</ele>
        <time>2021-04-18T10:29:15Z</time>
      </trkpt>
      <trkpt lat="43.98181" lon="2.32446">
        <ele>429</ele>
        <time>2021-04-18T10:29:16Z</time>
      </trkpt>
      <trkpt lat="43.98181" lon="2.32448">
        <ele>430</ele>
        <time>2021-04-18T10:29:17Z</time>
      </trkpt>
      <trkpt lat="43.9818" lon="2.3245">
        <ele>430</ele>
        <time>2021-04-18T10:29:18Z</time>
      </trkpt>
      <trkpt lat="43.9818" lon="2.32452">
        <ele>430</ele>
        <time>2021-04-18T10:29:19Z</time>
      </trkpt>
      <trkpt lat="43.9818" lon="2.32454">
        <ele>430</ele>
        <time>2021-04-18T10:29:20Z</time>
      </trkpt>
      <trkpt lat="43.9818" lon="2.32456">
        <ele>429</ele>
        <time>2021-04-18T10:29:21Z</time>
      </trkpt>
      <trkpt lat="43.98179" lon="2.32458">
        <ele>429</ele>
        <time>2021-04-18T10:29:22Z</time>
      </trkpt>
      <trkpt lat="43.98179" lon="2.3246">
        <ele>429</ele>
        <time>2021-04-18T10:29:23Z</time>
      </trkpt>
      <trkpt lat="43.98178" lon="2.32462">
        <ele>429</ele>
        <time>2021-04-18T10:29:24Z</time>
      </trkpt>
      <trkpt lat="43.98177" lon="2.32464">
        <ele>429</ele>
        <time>2021-04-18T10:29:25Z</time>
      </trkpt>
      <trkpt lat="43.98177" lon="2.32467">
        <ele>429</ele>
        <time>2021-04-18T10:29:26Z</time>
      </trkpt>
      <trkpt lat="43.98177" lon="2.32469">
        <ele>429</ele>
        <time>2021-04-18T10:29:27Z</time>
      </trkpt>
      <trkpt lat="43.98177" lon="2.32472">
        <ele>429</ele>
        <time>2021-04-18T10:29:28Z</time>
      </trkpt>
      <trkpt lat="43.98177" lon="2.32474">
        <ele>428</ele>
        <time>2021-04-18T10:29:29Z</time>
      </trkpt>
      <trkpt lat="43.98176" lon="2.32476">
        <ele>428</ele>
        <time>2021-04-18T10:29:30Z</time>
      </trkpt>
      <trkpt lat="43.98175" lon="2.32478">
        <ele>428</ele>
        <time>2021-04-18T10:29:31Z</time>
      </trkpt>
      <trkpt lat="43.98174" lon="2.3248">
        <ele>428</ele>
        <time>2021-04-18T10:29:32Z</time>
      </trkpt>
      <trkpt lat="43.98174" lon="2.32482">
        <ele>427</ele>
        <time>2021-04-18T10:29:33Z</time>
      </trkpt>
      <trkpt lat="43.98173" lon="2.32483">
        <ele>425</ele>
        <time>2021-04-18T10:29:34Z</time>
      </trkpt>
      <trkpt lat="43.98173" lon="2.32486">
        <ele>426</ele>
        <time>2021-04-18T10:29:35Z</time>
      </trkpt>
      <trkpt lat="43.98173" lon="2.32488">
        <ele>426</ele>
        <time>2021-04-18T10:29:36Z</time>
      </trkpt>
      <trkpt lat="43.98172" lon="2.32491">
        <ele>426</ele>
        <time>2021-04-18T10:29:37Z</time>
      </trkpt>
      <trkpt lat="43.98172" lon="2.32493">
        <ele>426</ele>
        <time>2021-04-18T10:29:38Z</time>
      </trkpt>
      <trkpt lat="43.98172" lon="2.32495">
        <ele>427</ele>
        <time>2021-04-18T10:29:39Z</time>
      </trkpt>
      <trkpt lat="43.98172" lon="2.32497">
        <ele>428</ele>
        <time>2021-04-18T10:29:40Z</time>
      </trkpt>
      <trkpt lat="43.98171" lon="2.325">
        <ele>428</ele>
        <time>2021-04-18T10:29:41Z</time>
      </trkpt>
      <trkpt lat="43.98171" lon="2.32502">
        <ele>428</ele>
        <time>2021-04-18T10:29:42Z</time>
      </trkpt>
      <trkpt lat="43.9817" lon="2.32504">
        <ele>428</ele>
        <time>2021-04-18T10:29:43Z</time>
      </trkpt>
      <trkpt lat="43.98169" lon="2.32505">
        <ele>429</ele>
        <time>2021-04-18T10:29:44Z</time>
      </trkpt>
      <trkpt lat="43.98169" lon="2.32507">
        <ele>428</ele>
        <time>2021-04-18T10:29:45Z</time>
      </trkpt>
      <trkpt lat="43.98168" lon="2.32509">
        <ele>428</ele>
        <time>2021-04-18T10:29:46Z</time>
      </trkpt>
      <trkpt lat="43.98167" lon="2.32511">
        <ele>429</ele>
        <time>2021-04-18T10:29:47Z</time>
      </trkpt>
      <trkpt lat="43.98167" lon="2.32513">
        <ele>429</ele>
        <time>2021-04-18T10:29:48Z</time>
      </trkpt>
      <trkpt lat="43.98167" lon="2.32515">
        <ele>428</ele>
        <time>2021-04-18T10:29:49Z</time>
      </trkpt>
      <trkpt lat="43.98167" lon="2.32517">
        <ele>428</ele>
        <time>2021-04-18T10:29:50Z</time>
      </trkpt>
      <trkpt lat="43.98166" lon="2.32519">
        <ele>428</ele>
        <time>2021-04-18T10:29:51Z</time>
      </trkpt>
      <trkpt lat="43.98166" lon="2.32521">
        <ele>429</ele>
        <time>2021-04-18T10:29:52Z</time>
      </trkpt>
      <trkpt lat="43.98166" lon="2.32523">
        <ele>429</ele>
        <time>2021-04-18T10:29:53Z</time>
      </trkpt>
      <trkpt lat="43.98165" lon="2.32525">
        <ele>428</ele>
        <time>2021-04-18T10:29:54Z</time>
      </trkpt>
      <trkpt lat="43.98164" lon="2.32527">
        <ele>428</ele>
        <time>2021-04-18T10:29:55Z</time>
      </trkpt>
      <trkpt lat="43.98164" lon="2.32528">
        <ele>428</ele>
        <time>2021-04-18T10:29:56Z</time>
      </trkpt>
      <trkpt lat="43.98164" lon="2.32529">
        <ele>428</ele>
        <time>2021-04-18T10:29:57Z</time>
      </trkpt>
      <trkpt lat="43.98164" lon="2.32532">
        <ele>429</ele>
        <time>2021-04-18T10:29:58Z</time>
      </trkpt>
      <trkpt lat="43.98163" lon="2.32534">
        <ele>429</ele>
        <time>2021-04-18T10:29:59Z</time>
      </trkpt>
      <trkpt lat="43.98163" lon="2.32537">
        <ele>429</ele>
        <time>2021-04-18T10:30:00Z</time>
      </trkpt>
      <trkpt lat="43.98163" lon="2.3254">
        <ele>428</ele>
        <time>2021-04-18T10:30:01Z</time>
      </trkpt>
      <trkpt lat="43.98163" lon="2.32542">
        <ele>428</ele>
        <time>2021-04-18T10:30:02Z</time>
      </trkpt>
      <trkpt lat="43.98163" lon="2.32544">
        <ele>428</ele>
        <time>2021-04-18T10:30:03Z</time>
      </trkpt>
      <trkpt lat="43.98163" lon="2.32546">
        <ele>427</ele>
        <time>2021-04-18T10:30:04Z</time>
      </trkpt>
      <trkpt lat="43.98163" lon="2.32548">
        <ele>427</ele>
        <time>2021-04-18T10:30:05Z</time>
      </trkpt>
      <trkpt lat="43.98163" lon="2.32551">
        <ele>428</ele>
        <time>2021-04-18T10:30:06Z</time>
      </trkpt>
      <trkpt lat="43.98162" lon="2.32553">
        <ele>428</ele>
        <time>2021-04-18T10:30:07Z</time>
      </trkpt>
      <trkpt lat="43.98162" lon="2.32556">
        <ele>428</ele>
        <time>2021-04-18T10:30:08Z</time>
      </trkpt>
      <trkpt lat="43.98162" lon="2.32557">
        <ele>427</ele>
        <time>2021-04-18T10:30:09Z</time>
      </trkpt>
      <trkpt lat="43.98162" lon="2.32559">
        <ele>428</ele>
        <time>2021-04-18T10:30:10Z</time>
      </trkpt>
      <trkpt lat="43.98161" lon="2.32561">
        <ele>428</ele>
        <time>2021-04-18T10:30:11Z</time>
      </trkpt>
      <trkpt lat="43.9816" lon="2.32563">
        <ele>428</ele>
        <time>2021-04-18T10:30:12Z</time>
      </trkpt>
      <trkpt lat="43.98159" lon="2.32565">
        <ele>428</ele>
        <time>2021-04-18T10:30:13Z</time>
      </trkpt>
      <trkpt lat="43.98159" lon="2.32567">
        <ele>428</ele>
        <time>2021-04-18T10:30:14Z</time>
      </trkpt>
      <trkpt lat="43.98159" lon="2.32568">
        <ele>429</ele>
        <time>2021-04-18T10:30:15Z</time>
      </trkpt>
      <trkpt lat="43.98158" lon="2.3257">
        <ele>428</ele>
        <time>2021-04-18T10:30:16Z</time>
      </trkpt>
      <trkpt lat="43.98158" lon="2.32572">
        <ele>428</ele>
        <time>2021-04-18T10:30:17Z</time>
      </trkpt>
      <trkpt lat="43.98158" lon="2.32574">
        <ele>428</ele>
        <time>2021-04-18T10:30:18Z</time>
      </trkpt>
      <trkpt lat="43.98158" lon="2.32576">
        <ele>429</ele>
        <time>2021-04-18T10:30:19Z</time>
      </trkpt>
      <trkpt lat="43.98157" lon="2.32578">
        <ele>430</ele>
        <time>2021-04-18T10:30:20Z</time>
      </trkpt>
      <trkpt lat="43.98156" lon="2.32579">
        <ele>430</ele>
        <time>2021-04-18T10:30:21Z</time>
      </trkpt>
      <trkpt lat="43.98156" lon="2.32581">
        <ele>430</ele>
        <time>2021-04-18T10:30:22Z</time>
      </trkpt>
      <trkpt lat="43.98156" lon="2.32583">
        <ele>429</ele>
        <time>2021-04-18T10:30:23Z</time>
      </trkpt>
      <trkpt lat="43.98154" lon="2.32587">
        <ele>430</ele>
        <time>2021-04-18T10:30:24Z</time>
      </trkpt>
      <trkpt lat="43.98154" lon="2.32587">
        <ele>430</ele>
        <time>2021-04-18T10:30:24Z</time>
      </trkpt>
      <trkpt lat="43.98153" lon="2.32588">
        <ele>429</ele>
        <time>2021-04-18T10:30:26Z</time>
      </trkpt>
      <trkpt lat="43.98151" lon="2.32592">
        <ele>429</ele>
        <time>2021-04-18T10:30:27Z</time>
      </trkpt>
      <trkpt lat="43.98151" lon="2.32594">
        <ele>429</ele>
        <time>2021-04-18T10:30:28Z</time>
      </trkpt>
      <trkpt lat="43.98151" lon="2.32594">
        <ele>429</ele>
        <time>2021-04-18T10:30:28Z</time>
      </trkpt>
      <trkpt lat="43.9815" lon="2.32596">
        <ele>429</ele>
        <time>2021-04-18T10:30:30Z</time>
      </trkpt>
      <trkpt lat="43.98149" lon="2.32598">
        <ele>429</ele>
        <time>2021-04-18T10:30:31Z</time>
      </trkpt>
      <trkpt lat="43.98148" lon="2.32601">
        <ele>430</ele>
        <time>2021-04-18T10:30:32Z</time>
      </trkpt>
      <trkpt lat="43.98148" lon="2.32602">
        <ele>430</ele>
        <time>2021-04-18T10:30:33Z</time>
      </trkpt>
      <trkpt lat="43.98147" lon="2.32604">
        <ele>431</ele>
        <time>2021-04-18T10:30:34Z</time>
      </trkpt>
      <trkpt lat="43.98146" lon="2.32606">
        <ele>431</ele>
        <time>2021-04-18T10:30:35Z</time>
      </trkpt>
      <trkpt lat="43.98145" lon="2.32609">
        <ele>431</ele>
        <time>2021-04-18T10:30:36Z</time>
      </trkpt>
      <trkpt lat="43.98145" lon="2.32611">
        <ele>430</ele>
        <time>2021-04-18T10:30:37Z</time>
      </trkpt>
      <trkpt lat="43.98144" lon="2.32614">
        <ele>430</ele>
        <time>2021-04-18T10:30:38Z</time>
      </trkpt>
      <trkpt lat="43.98144" lon="2.32617">
        <ele>430</ele>
        <time>2021-04-18T10:30:39Z</time>
      </trkpt>
      <trkpt lat="43.98144" lon="2.3262">
        <ele>429</ele>
        <time>2021-04-18T10:30:40Z</time>
      </trkpt>
      <trkpt lat="43.98143" lon="2.32622">
        <ele>429</ele>
        <time>2021-04-18T10:30:41Z</time>
      </trkpt>
      <trkpt lat="43.98143" lon="2.32624">
        <ele>429</ele>
        <time>2021-04-18T10:30:42Z</time>
      </trkpt>
      <trkpt lat="43.98143" lon="2.32626">
        <ele>429</ele>
        <time>2021-04-18T10:30:43Z</time>
      </trkpt>
      <trkpt lat="43.98143" lon="2.32628">
        <ele>429</ele>
        <time>2021-04-18T10:30:44Z</time>
      </trkpt>
      <trkpt lat="43.98143" lon="2.3263">
        <ele>429</ele>
        <time>2021-04-18T10:30:45Z</time>
      </trkpt>
      <trkpt lat="43.98143" lon="2.32632">
        <ele>428</ele>
        <time>2021-04-18T10:30:46Z</time>
      </trkpt>
      <trkpt lat="43.98142" lon="2.32636">
        <ele>428</ele>
        <time>2021-04-18T10:30:47Z</time>
      </trkpt>
      <trkpt lat="43.9814" lon="2.32638">
        <ele>428</ele>
        <time>2021-04-18T10:30:48Z</time>
      </trkpt>
      <trkpt lat="43.9814" lon="2.32639">
        <ele>428</ele>
        <time>2021-04-18T10:30:49Z</time>
      </trkpt>
      <trkpt lat="43.98138" lon="2.3264">
        <ele>428</ele>
        <time>2021-04-18T10:30:50Z</time>
      </trkpt>
      <trkpt lat="43.98137" lon="2.32641">
        <ele>428</ele>
        <time>2021-04-18T10:30:51Z</time>
      </trkpt>
      <trkpt lat="43.98136" lon="2.32643">
        <ele>428</ele>
        <time>2021-04-18T10:30:52Z</time>
      </trkpt>
      <trkpt lat="43.98135" lon="2.32644">
        <ele>428</ele>
        <time>2021-04-18T10:30:53Z</time>
      </trkpt>
      <trkpt lat="43.98134" lon="2.32645">
        <ele>429</ele>
        <time>2021-04-18T10:30:54Z</time>
      </trkpt>
      <trkpt lat="43.98133" lon="2.32646">
        <ele>429</ele>
        <time>2021-04-18T10:30:55Z</time>
      </trkpt>
      <trkpt lat="43.98132" lon="2.32648">
        <ele>429</ele>
        <time>2021-04-18T10:30:56Z</time>
      </trkpt>
      <trkpt lat="43.98131" lon="2.3265">
        <ele>430</ele>
        <time>2021-04-18T10:30:57Z</time>
      </trkpt>
      <trkpt lat="43.98131" lon="2.3265">
        <ele>430</ele>
        <time>2021-04-18T10:30:57Z</time>
      </trkpt>
      <trkpt lat="43.9813" lon="2.32651">
        <ele>430</ele>
        <time>2021-04-18T10:30:59Z</time>
      </trkpt>
      <trkpt lat="43.98128" lon="2.32654">
        <ele>430</ele>
        <time>2021-04-18T10:31:00Z</time>
      </trkpt>
      <trkpt lat="43.98127" lon="2.32655">
        <ele>430</ele>
        <time>2021-04-18T10:31:01Z</time>
      </trkpt>
      <trkpt lat="43.98126" lon="2.32656">
        <ele>430</ele>
        <time>2021-04-18T10:31:02Z</time>
      </trkpt>
      <trkpt lat="43.98124" lon="2.32657">
        <ele>430</ele>
        <time>2021-04-18T10:31:03Z</time>
      </trkpt>
      <trkpt lat="43.98123" lon="2.32658">
        <ele>431</ele>
        <time>2021-04-18T10:31:04Z</time>
      </trkpt>
      <trkpt lat="43.98122" lon="2.32659">
        <ele>432</ele>
        <time>2021-04-18T10:31:05Z</time>
      </trkpt>
      <trkpt lat="43.98121" lon="2.3266">
        <ele>433</ele>
        <time>2021-04-18T10:31:06Z</time>
      </trkpt>
      <trkpt lat="43.9812" lon="2.32662">
        <ele>433</ele>
        <time>2021-04-18T10:31:07Z</time>
      </trkpt>
      <trkpt lat="43.98119" lon="2.32663">
        <ele>433</ele>
        <time>2021-04-18T10:31:08Z</time>
      </trkpt>
      <trkpt lat="43.98117" lon="2.32664">
        <ele>433</ele>
        <time>2021-04-18T10:31:09Z</time>
      </trkpt>
      <trkpt lat="43.98116" lon="2.32665">
        <ele>434</ele>
        <time>2021-04-18T10:31:10Z</time>
      </trkpt>
      <trkpt lat="43.98115" lon="2.32666">
        <ele>434</ele>
        <time>2021-04-18T10:31:11Z</time>
      </trkpt>
      <trkpt lat="43.98114" lon="2.32668">
        <ele>435</ele>
        <time>2021-04-18T10:31:12Z</time>
      </trkpt>
      <trkpt lat="43.98114" lon="2.32669">
        <ele>435</ele>
        <time>2021-04-18T10:31:13Z</time>
      </trkpt>
      <trkpt lat="43.98113" lon="2.3267">
        <ele>435</ele>
        <time>2021-04-18T10:31:14Z</time>
      </trkpt>
      <trkpt lat="43.98111" lon="2.32672">
        <ele>435</ele>
        <time>2021-04-18T10:31:15Z</time>
      </trkpt>
      <trkpt lat="43.9811" lon="2.32673">
        <ele>435</ele>
        <time>2021-04-18T10:31:16Z</time>
      </trkpt>
      <trkpt lat="43.98109" lon="2.32675">
        <ele>435</ele>
        <time>2021-04-18T10:31:17Z</time>
      </trkpt>
      <trkpt lat="43.98108" lon="2.32677">
        <ele>436</ele>
        <time>2021-04-18T10:31:18Z</time>
      </trkpt>
      <trkpt lat="43.98107" lon="2.32678">
        <ele>435</ele>
        <time>2021-04-18T10:31:19Z</time>
      </trkpt>
      <trkpt lat="43.98106" lon="2.3268">
        <ele>435</ele>
        <time>2021-04-18T10:31:20Z</time>
      </trkpt>
      <trkpt lat="43.98106" lon="2.32683">
        <ele>434</ele>
        <time>2021-04-18T10:31:21Z</time>
      </trkpt>
      <trkpt lat="43.98105" lon="2.32686">
        <ele>434</ele>
        <time>2021-04-18T10:31:22Z</time>
      </trkpt>
      <trkpt lat="43.98105" lon="2.32689">
        <ele>434</ele>
        <time>2021-04-18T10:31:23Z</time>
      </trkpt>
      <trkpt lat="43.98105" lon="2.32691">
        <ele>434</ele>
        <time>2021-04-18T10:31:24Z</time>
      </trkpt>
      <trkpt lat="43.98105" lon="2.32692">
        <ele>434</ele>
        <time>2021-04-18T10:31:25Z</time>
      </trkpt>
      <trkpt lat="43.98105" lon="2.32693">
        <ele>434</ele>
        <time>2021-04-18T10:31:26Z</time>
      </trkpt>
      <trkpt lat="43.98105" lon="2.32693">
        <ele>434</ele>
        <time>2021-04-18T10:31:27Z</time>
      </trkpt>
      <trkpt lat="43.98105" lon="2.32693">
        <ele>434</ele>
        <time>2021-04-18T10:31:28Z</time>
      </trkpt>
      <trkpt lat="43.98104" lon="2.32695">
        <ele>433</ele>
        <time>2021-04-18T10:31:29Z</time>
      </trkpt>
      <trkpt lat="43.98103" lon="2.32697">
        <ele>433</ele>
        <time>2021-04-18T10:31:30Z</time>
      </trkpt>
      <trkpt lat="43.98104" lon="2.32698">
        <ele>432</ele>
        <time>2021-04-18T10:31:31Z</time>
      </trkpt>
      <trkpt lat="43.98104" lon="2.327">
        <ele>432</ele>
        <time>2021-04-18T10:31:32Z</time>
      </trkpt>
      <trkpt lat="43.98104" lon="2.32703">
        <ele>432</ele>
        <time>2021-04-18T10:31:33Z</time>
      </trkpt>
      <trkpt lat="43.98104" lon="2.32705">
        <ele>431</ele>
        <time>2021-04-18T10:31:34Z</time>
      </trkpt>
      <trkpt lat="43.98105" lon="2.32707">
        <ele>430</ele>
        <time>2021-04-18T10:31:35Z</time>
      </trkpt>
      <trkpt lat="43.98105" lon="2.32707">
        <ele>430</ele>
        <time>2021-04-18T10:31:36Z</time>
      </trkpt>
      <trkpt lat="43.98105" lon="2.32708">
        <ele>430</ele>
        <time>2021-04-18T10:31:37Z</time>
      </trkpt>
      <trkpt lat="43.98105" lon="2.32708">
        <ele>430</ele>
        <time>2021-04-18T10:31:38Z</time>
      </trkpt>
      <trkpt lat="43.98105" lon="2.32708">
        <ele>430</ele>
        <time>2021-04-18T10:31:39Z</time>
      </trkpt>
      <trkpt lat="43.98107" lon="2.3271">
        <ele>431</ele>
        <time>2021-04-18T10:31:40Z</time>
      </trkpt>
      <trkpt lat="43.98107" lon="2.3271">
        <ele>431</ele>
        <time>2021-04-18T10:31:41Z</time>
      </trkpt>
      <trkpt lat="43.98107" lon="2.3271">
        <ele>431</ele>
        <time>2021-04-18T10:31:42Z</time>
      </trkpt>
      <trkpt lat="43.98107" lon="2.3271">
        <ele>431</ele>
        <time>2021-04-18T10:31:43Z</time>
      </trkpt>
      <trkpt lat="43.98107" lon="2.3271">
        <ele>431</ele>
        <time>2021-04-18T10:31:43Z</time>
      </trkpt>
      <trkpt lat="43.98107" lon="2.3271">
        <ele>431</ele>
        <time>2021-04-18T10:31:43Z</time>
      </trkpt>
      <trkpt lat="43.98105" lon="2.32713">
        <ele>431</ele>
        <time>2021-04-18T10:31:55Z</time>
      </trkpt>
      <trkpt lat="43.98104" lon="2.32714">
        <ele>430</ele>
        <time>2021-04-18T10:31:56Z</time>
      </trkpt>
      <trkpt lat="43.98103" lon="2.32715">
        <ele>429</ele>
        <time>2021-04-18T10:31:57Z</time>
      </trkpt>
      <trkpt lat="43.98102" lon="2.32715">
        <ele>428</ele>
        <time>2021-04-18T10:31:58Z</time>
      </trkpt>
      <trkpt lat="43.98102" lon="2.32715">
        <ele>428</ele>
        <time>2021-04-18T10:31:59Z</time>
      </trkpt>
      <trkpt lat="43.98102" lon="2.32715">
        <ele>428</ele>
        <time>2021-04-18T10:32:00Z</time>
      </trkpt>
      <trkpt lat="43.98101" lon="2.32716">
        <ele>429</ele>
        <time>2021-04-18T10:32:01Z</time>
      </trkpt>
      <trkpt lat="43.98101" lon="2.32718">
        <ele>429</ele>
        <time>2021-04-18T10:32:02Z</time>
      </trkpt>
      <trkpt lat="43.981" lon="2.32719">
        <ele>429</ele>
        <time>2021-04-18T10:32:03Z</time>
      </trkpt>
      <trkpt lat="43.98099" lon="2.32721">
        <ele>429</ele>
        <time>2021-04-18T10:32:04Z</time>
      </trkpt>
      <trkpt lat="43.98098" lon="2.32722">
        <ele>429</ele>
        <time>2021-04-18T10:32:05Z</time>
      </trkpt>
      <trkpt lat="43.98097" lon="2.32724">
        <ele>429</ele>
        <time>2021-04-18T10:32:06Z</time>
      </trkpt>
      <trkpt lat="43.98096" lon="2.32725">
        <ele>429</ele>
        <time>2021-04-18T10:32:07Z</time>
      </trkpt>
      <trkpt lat="43.98095" lon="2.32726">
        <ele>429</ele>
        <time>2021-04-18T10:32:08Z</time>
      </trkpt>
      <trkpt lat="43.98094" lon="2.32726">
        <ele>428</ele>
        <time>2021-04-18T10:32:09Z</time>
      </trkpt>
      <trkpt lat="43.98093" lon="2.32726">
        <ele>428</ele>
        <time>2021-04-18T10:32:10Z</time>
      </trkpt>
      <trkpt lat="43.98092" lon="2.32726">
        <ele>429</ele>
        <time>2021-04-18T10:32:11Z</time>
      </trkpt>
      <trkpt lat="43.98091" lon="2.32727">
        <ele>428</ele>
        <time>2021-04-18T10:32:12Z</time>
      </trkpt>
      <trkpt lat="43.9809" lon="2.32728">
        <ele>429</ele>
        <time>2021-04-18T10:32:13Z</time>
      </trkpt>
      <trkpt lat="43.9809" lon="2.32728">
        <ele>429</ele>
        <time>2021-04-18T10:32:14Z</time>
      </trkpt>
      <trkpt lat="43.98089" lon="2.32728">
        <ele>429</ele>
        <time>2021-04-18T10:32:15Z</time>
      </trkpt>
      <trkpt lat="43.98089" lon="2.32728">
        <ele>428</ele>
        <time>2021-04-18T10:32:16Z</time>
      </trkpt>
      <trkpt lat="43.98088" lon="2.32727">
        <ele>427</ele>
        <time>2021-04-18T10:32:17Z</time>
      </trkpt>
      <trkpt lat="43.98087" lon="2.32727">
        <ele>427</ele>
        <time>2021-04-18T10:32:18Z</time>
      </trkpt>
      <trkpt lat="43.98087" lon="2.32727">
        <ele>426</ele>
        <time>2021-04-18T10:32:19Z</time>
      </trkpt>
      <trkpt lat="43.98087" lon="2.32727">
        <ele>426</ele>
        <time>2021-04-18T10:32:20Z</time>
      </trkpt>
      <trkpt lat="43.98087" lon="2.32727">
        <ele>426</ele>
        <time>2021-04-18T10:32:21Z</time>
      </trkpt>
      <trkpt lat="43.98086" lon="2.32729">
        <ele>427</ele>
        <time>2021-04-18T10:32:22Z</time>
      </trkpt>
      <trkpt lat="43.98085" lon="2.3273">
        <ele>427</ele>
        <time>2021-04-18T10:32:23Z</time>
      </trkpt>
      <trkpt lat="43.98084" lon="2.32731">
        <ele>427</ele>
        <time>2021-04-18T10:32:24Z</time>
      </trkpt>
      <trkpt lat="43.98084" lon="2.32732">
        <ele>428</ele>
        <time>2021-04-18T10:32:25Z</time>
      </trkpt>
      <trkpt lat="43.98082" lon="2.32732">
        <ele>428</ele>
        <time>2021-04-18T10:32:26Z</time>
      </trkpt>
      <trkpt lat="43.98081" lon="2.32733">
        <ele>428</ele>
        <time>2021-04-18T10:32:27Z</time>
      </trkpt>
      <trkpt lat="43.9808" lon="2.32734">
        <ele>427</ele>
        <time>2021-04-18T10:32:28Z</time>
      </trkpt>
      <trkpt lat="43.98079" lon="2.32734">
        <ele>427</ele>
        <time>2021-04-18T10:32:29Z</time>
      </trkpt>
      <trkpt lat="43.98077" lon="2.32735">
        <ele>427</ele>
        <time>2021-04-18T10:32:30Z</time>
      </trkpt>
      <trkpt lat="43.98076" lon="2.32736">
        <ele>427</ele>
        <time>2021-04-18T10:32:31Z</time>
      </trkpt>
      <trkpt lat="43.98074" lon="2.32737">
        <ele>427</ele>
        <time>2021-04-18T10:32:32Z</time>
      </trkpt>
      <trkpt lat="43.98072" lon="2.32737">
        <ele>427</ele>
        <time>2021-04-18T10:32:33Z</time>
      </trkpt>
      <trkpt lat="43.98071" lon="2.32737">
        <ele>427</ele>
        <time>2021-04-18T10:32:34Z</time>
      </trkpt>
      <trkpt lat="43.9807" lon="2.32737">
        <ele>426</ele>
        <time>2021-04-18T10:32:35Z</time>
      </trkpt>
      <trkpt lat="43.98069" lon="2.32738">
        <ele>426</ele>
        <time>2021-04-18T10:32:36Z</time>
      </trkpt>
      <trkpt lat="43.98068" lon="2.32738">
        <ele>426</ele>
        <time>2021-04-18T10:32:37Z</time>
      </trkpt>
      <trkpt lat="43.98066" lon="2.32739">
        <ele>426</ele>
        <time>2021-04-18T10:32:38Z</time>
      </trkpt>
      <trkpt lat="43.98065" lon="2.3274">
        <ele>426</ele>
        <time>2021-04-18T10:32:39Z</time>
      </trkpt>
      <trkpt lat="43.98064" lon="2.32741">
        <ele>426</ele>
        <time>2021-04-18T10:32:40Z</time>
      </trkpt>
      <trkpt lat="43.98063" lon="2.32742">
        <ele>426</ele>
        <time>2021-04-18T10:32:41Z</time>
      </trkpt>
      <trkpt lat="43.98061" lon="2.32743">
        <ele>426</ele>
        <time>2021-04-18T10:32:42Z</time>
      </trkpt>
      <trkpt lat="43.9806" lon="2.32744">
        <ele>425</ele>
        <time>2021-04-18T10:32:43Z</time>
      </trkpt>
      <trkpt lat="43.9806" lon="2.32745">
        <ele>425</ele>
        <time>2021-04-18T10:32:44Z</time>
      </trkpt>
      <trkpt lat="43.98058" lon="2.32745">
        <ele>425</ele>
        <time>2021-04-18T10:32:45Z</time>
      </trkpt>
      <trkpt lat="43.98056" lon="2.32745">
        <ele>425</ele>
        <time>2021-04-18T10:32:46Z</time>
      </trkpt>
      <trkpt lat="43.98055" lon="2.32746">
        <ele>425</ele>
        <time>2021-04-18T10:32:47Z</time>
      </trkpt>
      <trkpt lat="43.98054" lon="2.32746">
        <ele>425</ele>
        <time>2021-04-18T10:32:48Z</time>
      </trkpt>
      <trkpt lat="43.98053" lon="2.32747">
        <ele>425</ele>
        <time>2021-04-18T10:32:49Z</time>
      </trkpt>
      <trkpt lat="43.98052" lon="2.32747">
        <ele>425</ele>
        <time>2021-04-18T10:32:50Z</time>
      </trkpt>
      <trkpt lat="43.98052" lon="2.32748">
        <ele>426</ele>
        <time>2021-04-18T10:32:51Z</time>
      </trkpt>
      <trkpt lat="43.98051" lon="2.32748">
        <ele>425</ele>
        <time>2021-04-18T10:32:52Z</time>
      </trkpt>
      <trkpt lat="43.9805" lon="2.32748">
        <ele>425</ele>
        <time>2021-04-18T10:32:53Z</time>
      </trkpt>
      <trkpt lat="43.98048" lon="2.32749">
        <ele>425</ele>
        <time>2021-04-18T10:32:54Z</time>
      </trkpt>
      <trkpt lat="43.98047" lon="2.3275">
        <ele>425</ele>
        <time>2021-04-18T10:32:55Z</time>
      </trkpt>
      <trkpt lat="43.98045" lon="2.32751">
        <ele>425</ele>
        <time>2021-04-18T10:32:56Z</time>
      </trkpt>
      <trkpt lat="43.98044" lon="2.32751">
        <ele>425</ele>
        <time>2021-04-18T10:32:57Z</time>
      </trkpt>
      <trkpt lat="43.98042" lon="2.32752">
        <ele>425</ele>
        <time>2021-04-18T10:32:58Z</time>
      </trkpt>
      <trkpt lat="43.9804" lon="2.32752">
        <ele>426</ele>
        <time>2021-04-18T10:32:59Z</time>
      </trkpt>
      <trkpt lat="43.98039" lon="2.32753">
        <ele>427</ele>
        <time>2021-04-18T10:33:00Z</time>
      </trkpt>
      <trkpt lat="43.98037" lon="2.32754">
        <ele>427</ele>
        <time>2021-04-18T10:33:01Z</time>
      </trkpt>
      <trkpt lat="43.98035" lon="2.32755">
        <ele>427</ele>
        <time>2021-04-18T10:33:02Z</time>
      </trkpt>
      <trkpt lat="43.98034" lon="2.32756">
        <ele>427</ele>
        <time>2021-04-18T10:33:03Z</time>
      </trkpt>
      <trkpt lat="43.98032" lon="2.32757">
        <ele>427</ele>
        <time>2021-04-18T10:33:04Z</time>
      </trkpt>
      <trkpt lat="43.98031" lon="2.32758">
        <ele>427</ele>
        <time>2021-04-18T10:33:05Z</time>
      </trkpt>
      <trkpt lat="43.98029" lon="2.32758">
        <ele>428</ele>
        <time>2021-04-18T10:33:06Z</time>
      </trkpt>
      <trkpt lat="43.98027" lon="2.32757">
        <ele>428</ele>
        <time>2021-04-18T10:33:07Z</time>
      </trkpt>
      <trkpt lat="43.98025" lon="2.32757">
        <ele>427</ele>
        <time>2021-04-18T10:33:08Z</time>
      </trkpt>
      <trkpt lat="43.98023" lon="2.32758">
        <ele>427</ele>
        <time>2021-04-18T10:33:09Z</time>
      </trkpt>
      <trkpt lat="43.98022" lon="2.32758">
        <ele>426</ele>
        <time>2021-04-18T10:33:10Z</time>
      </trkpt>
      <trkpt lat="43.9802" lon="2.32758">
        <ele>426</ele>
        <time>2021-04-18T10:33:11Z</time>
      </trkpt>
      <trkpt lat="43.98019" lon="2.32758">
        <ele>426</ele>
        <time>2021-04-18T10:33:12Z</time>
      </trkpt>
      <trkpt lat="43.98018" lon="2.32758">
        <ele>426</ele>
        <time>2021-04-18T10:33:13Z</time>
      </trkpt>
      <trkpt lat="43.98018" lon="2.32758">
        <ele>426</ele>
        <time>2021-04-18T10:33:14Z</time>
      </trkpt>
      <trkpt lat="43.98016" lon="2.32757">
        <ele>426</ele>
        <time>2021-04-18T10:33:15Z</time>
      </trkpt>
      <trkpt lat="43.98015" lon="2.32757">
        <ele>427</ele>
        <time>2021-04-18T10:33:16Z</time>
      </trkpt>
      <trkpt lat="43.98013" lon="2.32757">
        <ele>427</ele>
        <time>2021-04-18T10:33:17Z</time>
      </trkpt>
      <trkpt lat="43.98012" lon="2.32757">
        <ele>428</ele>
        <time>2021-04-18T10:33:18Z</time>
      </trkpt>
      <trkpt lat="43.98011" lon="2.32756">
        <ele>428</ele>
        <time>2021-04-18T10:33:19Z</time>
      </trkpt>
      <trkpt lat="43.98009" lon="2.32755">
        <ele>429</ele>
        <time>2021-04-18T10:33:20Z</time>
      </trkpt>
      <trkpt lat="43.98008" lon="2.32754">
        <ele>429</ele>
        <time>2021-04-18T10:33:21Z</time>
      </trkpt>
      <trkpt lat="43.98006" lon="2.32753">
        <ele>430</ele>
        <time>2021-04-18T10:33:22Z</time>
      </trkpt>
      <trkpt lat="43.98006" lon="2.32753">
        <ele>430</ele>
        <time>2021-04-18T10:33:23Z</time>
      </trkpt>
      <trkpt lat="43.98005" lon="2.32752">
        <ele>430</ele>
        <time>2021-04-18T10:33:24Z</time>
      </trkpt>
      <trkpt lat="43.98004" lon="2.32751">
        <ele>430</ele>
        <time>2021-04-18T10:33:25Z</time>
      </trkpt>
      <trkpt lat="43.98003" lon="2.32751">
        <ele>430</ele>
        <time>2021-04-18T10:33:26Z</time>
      </trkpt>
      <trkpt lat="43.98002" lon="2.32751">
        <ele>430</ele>
        <time>2021-04-18T10:33:27Z</time>
      </trkpt>
      <trkpt lat="43.98001" lon="2.32749">
        <ele>430</ele>
        <time>2021-04-18T10:33:28Z</time>
      </trkpt>
      <trkpt lat="43.98" lon="2.32748">
        <ele>430</ele>
        <time>2021-04-18T10:33:29Z</time>
      </trkpt>
      <trkpt lat="43.97999" lon="2.32746">
        <ele>430</ele>
        <time>2021-04-18T10:33:30Z</time>
      </trkpt>
      <trkpt lat="43.97998" lon="2.32744">
        <ele>430</ele>
        <time>2021-04-18T10:33:31Z</time>
      </trkpt>
      <trkpt lat="43.97997" lon="2.32743">
        <ele>430</ele>
        <time>2021-04-18T10:33:32Z</time>
      </trkpt>
      <trkpt lat="43.97996" lon="2.32743">
        <ele>430</ele>
        <time>2021-04-18T10:33:33Z</time>
      </trkpt>
      <trkpt lat="43.97995" lon="2.32742">
        <ele>430</ele>
        <time>2021-04-18T10:33:34Z</time>
      </trkpt>
      <trkpt lat="43.97994" lon="2.32741">
        <ele>430</ele>
        <time>2021-04-18T10:33:35Z</time>
      </trkpt>
      <trkpt lat="43.97992" lon="2.3274">
        <ele>430</ele>
        <time>2021-04-18T10:33:36Z</time>
      </trkpt>
      <trkpt lat="43.97991" lon="2.3274">
        <ele>430</ele>
        <time>2021-04-18T10:33:37Z</time>
      </trkpt>
      <trkpt lat="43.97989" lon="2.32738">
        <ele>430</ele>
        <time>2021-04-18T10:33:38Z</time>
      </trkpt>
      <trkpt lat="43.97988" lon="2.32737">
        <ele>430</ele>
        <time>2021-04-18T10:33:39Z</time>
      </trkpt>
      <trkpt lat="43.97987" lon="2.32736">
        <ele>430</ele>
        <time>2021-04-18T10:33:40Z</time>
      </trkpt>
      <trkpt lat="43.97985" lon="2.32735">
        <ele>430</ele>
        <time>2021-04-18T10:33:41Z</time>
      </trkpt>
      <trkpt lat="43.97983" lon="2.32735">
        <ele>430</ele>
        <time>2021-04-18T10:33:42Z</time>
      </trkpt>
      <trkpt lat="43.97982" lon="2.32735">
        <ele>430</ele>
        <time>2021-04-18T10:33:43Z</time>
      </trkpt>
      <trkpt lat="43.97981" lon="2.32735">
        <ele>430</ele>
        <time>2021-04-18T10:33:44Z</time>
      </trkpt>
      <trkpt lat="43.97979" lon="2.32735">
        <ele>429</ele>
        <time>2021-04-18T10:33:45Z</time>
      </trkpt>
      <trkpt lat="43.97977" lon="2.32736">
        <ele>430</ele>
        <time>2021-04-18T10:33:46Z</time>
      </trkpt>
      <trkpt lat="43.97975" lon="2.32736">
        <ele>430</ele>
        <time>2021-04-18T10:33:47Z</time>
      </trkpt>
      <trkpt lat="43.97974" lon="2.32735">
        <ele>430</ele>
        <time>2021-04-18T10:33:48Z</time>
      </trkpt>
      <trkpt lat="43.97972" lon="2.32734">
        <ele>430</ele>
        <time>2021-04-18T10:33:49Z</time>
      </trkpt>
      <trkpt lat="43.97971" lon="2.32734">
        <ele>429</ele>
        <time>2021-04-18T10:33:50Z</time>
      </trkpt>
      <trkpt lat="43.9797" lon="2.32734">
        <ele>428</ele>
        <time>2021-04-18T10:33:51Z</time>
      </trkpt>
      <trkpt lat="43.9797" lon="2.32733">
        <ele>428</ele>
        <time>2021-04-18T10:33:52Z</time>
      </trkpt>
      <trkpt lat="43.97971" lon="2.32732">
        <ele>429</ele>
        <time>2021-04-18T10:33:53Z</time>
      </trkpt>
      <trkpt lat="43.97971" lon="2.32732">
        <ele>430</ele>
        <time>2021-04-18T10:33:54Z</time>
      </trkpt>
      <trkpt lat="43.9797" lon="2.32732">
        <ele>430</ele>
        <time>2021-04-18T10:33:55Z</time>
      </trkpt>
      <trkpt lat="43.97969" lon="2.32731">
        <ele>431</ele>
        <time>2021-04-18T10:33:56Z</time>
      </trkpt>
      <trkpt lat="43.97969" lon="2.32731">
        <ele>431</ele>
        <time>2021-04-18T10:33:57Z</time>
      </trkpt>
      <trkpt lat="43.97968" lon="2.3273">
        <ele>432</ele>
        <time>2021-04-18T10:33:58Z</time>
      </trkpt>
      <trkpt lat="43.97968" lon="2.32728">
        <ele>432</ele>
        <time>2021-04-18T10:33:59Z</time>
      </trkpt>
      <trkpt lat="43.97968" lon="2.32728">
        <ele>432</ele>
        <time>2021-04-18T10:34:00Z</time>
      </trkpt>
      <trkpt lat="43.97968" lon="2.32728">
        <ele>433</ele>
        <time>2021-04-18T10:34:01Z</time>
      </trkpt>
      <trkpt lat="43.97968" lon="2.32727">
        <ele>433</ele>
        <time>2021-04-18T10:34:02Z</time>
      </trkpt>
      <trkpt lat="43.97967" lon="2.32726">
        <ele>433</ele>
        <time>2021-04-18T10:34:03Z</time>
      </trkpt>
      <trkpt lat="43.97967" lon="2.32724">
        <ele>434</ele>
        <time>2021-04-18T10:34:04Z</time>
      </trkpt>
      <trkpt lat="43.97966" lon="2.32723">
        <ele>433</ele>
        <time>2021-04-18T10:34:05Z</time>
      </trkpt>
      <trkpt lat="43.97966" lon="2.32722">
        <ele>433</ele>
        <time>2021-04-18T10:34:06Z</time>
      </trkpt>
      <trkpt lat="43.97966" lon="2.32719">
        <ele>434</ele>
        <time>2021-04-18T10:34:07Z</time>
      </trkpt>
      <trkpt lat="43.97966" lon="2.32717">
        <ele>434</ele>
        <time>2021-04-18T10:34:08Z</time>
      </trkpt>
      <trkpt lat="43.97965" lon="2.32715">
        <ele>435</ele>
        <time>2021-04-18T10:34:09Z</time>
      </trkpt>
      <trkpt lat="43.97965" lon="2.32713">
        <ele>435</ele>
        <time>2021-04-18T10:34:10Z</time>
      </trkpt>
      <trkpt lat="43.97965" lon="2.32711">
        <ele>435</ele>
        <time>2021-04-18T10:34:11Z</time>
      </trkpt>
      <trkpt lat="43.97965" lon="2.32709">
        <ele>436</ele>
        <time>2021-04-18T10:34:12Z</time>
      </trkpt>
      <trkpt lat="43.97965" lon="2.32707">
        <ele>436</ele>
        <time>2021-04-18T10:34:13Z</time>
      </trkpt>
      <trkpt lat="43.97965" lon="2.32705">
        <ele>436</ele>
        <time>2021-04-18T10:34:14Z</time>
      </trkpt>
      <trkpt lat="43.97965" lon="2.32703">
        <ele>436</ele>
        <time>2021-04-18T10:34:15Z</time>
      </trkpt>
      <trkpt lat="43.97965" lon="2.32701">
        <ele>437</ele>
        <time>2021-04-18T10:34:16Z</time>
      </trkpt>
      <trkpt lat="43.97965" lon="2.32699">
        <ele>437</ele>
        <time>2021-04-18T10:34:17Z</time>
      </trkpt>
      <trkpt lat="43.97965" lon="2.32697">
        <ele>437</ele>
        <time>2021-04-18T10:34:18Z</time>
      </trkpt>
      <trkpt lat="43.97966" lon="2.32695">
        <ele>437</ele>
        <time>2021-04-18T10:34:19Z</time>
      </trkpt>
      <trkpt lat="43.97966" lon="2.32693">
        <ele>437</ele>
        <time>2021-04-18T10:34:20Z</time>
      </trkpt>
      <trkpt lat="43.97965" lon="2.32691">
        <ele>437</ele>
        <time>2021-04-18T10:34:21Z</time>
      </trkpt>
      <trkpt lat="43.97965" lon="2.3269">
        <ele>437</ele>
        <time>2021-04-18T10:34:22Z</time>
      </trkpt>
      <trkpt lat="43.97965" lon="2.32688">
        <ele>437</ele>
        <time>2021-04-18T10:34:23Z</time>
      </trkpt>
      <trkpt lat="43.97966" lon="2.32687">
        <ele>437</ele>
        <time>2021-04-18T10:34:24Z</time>
      </trkpt>
      <trkpt lat="43.97966" lon="2.32686">
        <ele>437</ele>
        <time>2021-04-18T10:34:25Z</time>
      </trkpt>
      <trkpt lat="43.97966" lon="2.32685">
        <ele>437</ele>
        <time>2021-04-18T10:34:26Z</time>
      </trkpt>
      <trkpt lat="43.97967" lon="2.32684">
        <ele>436</ele>
        <time>2021-04-18T10:34:27Z</time>
      </trkpt>
      <trkpt lat="43.97967" lon="2.32683">
        <ele>437</ele>
        <time>2021-04-18T10:34:28Z</time>
      </trkpt>
      <trkpt lat="43.97967" lon="2.32682">
        <ele>437</ele>
        <time>2021-04-18T10:34:29Z</time>
      </trkpt>
      <trkpt lat="43.97966" lon="2.32683">
        <ele>437</ele>
        <time>2021-04-18T10:34:30Z</time>
      </trkpt>
      <trkpt lat="43.97966" lon="2.32684">
        <ele>436</ele>
        <time>2021-04-18T10:34:31Z</time>
      </trkpt>
      <trkpt lat="43.97967" lon="2.32684">
        <ele>437</ele>
        <time>2021-04-18T10:34:32Z</time>
      </trkpt>
      <trkpt lat="43.97967" lon="2.32684">
        <ele>437</ele>
        <time>2021-04-18T10:34:32Z</time>
      </trkpt>
      <trkpt lat="43.97967" lon="2.32684">
        <ele>437</ele>
        <time>2021-04-18T10:34:32Z</time>
      </trkpt>
      <trkpt lat="43.97973" lon="2.32682">
        <ele>436</ele>
        <time>2021-04-18T10:34:42Z</time>
      </trkpt>
      <trkpt lat="43.97974" lon="2.32681">
        <ele>437</ele>
        <time>2021-04-18T10:34:43Z</time>
      </trkpt>
      <trkpt lat="43.97974" lon="2.32679">
        <ele>437</ele>
        <time>2021-04-18T10:34:44Z</time>
      </trkpt>
      <trkpt lat="43.97975" lon="2.32678">
        <ele>437</ele>
        <time>2021-04-18T10:34:45Z</time>
      </trkpt>
      <trkpt lat="43.97976" lon="2.32677">
        <ele>437</ele>
        <time>2021-04-18T10:34:46Z</time>
      </trkpt>
      <trkpt lat="43.97978" lon="2.32676">
        <ele>437</ele>
        <time>2021-04-18T10:34:47Z</time>
      </trkpt>
      <trkpt lat="43.97979" lon="2.32675">
        <ele>437</ele>
        <time>2021-04-18T10:34:48Z</time>
      </trkpt>
      <trkpt lat="43.9798" lon="2.32673">
        <ele>437</ele>
        <time>2021-04-18T10:34:49Z</time>
      </trkpt>
      <trkpt lat="43.97981" lon="2.32672">
        <ele>437</ele>
        <time>2021-04-18T10:34:50Z</time>
      </trkpt>
      <trkpt lat="43.97981" lon="2.3267">
        <ele>437</ele>
        <time>2021-04-18T10:34:51Z</time>
      </trkpt>
      <trkpt lat="43.97983" lon="2.3267">
        <ele>438</ele>
        <time>2021-04-18T10:34:52Z</time>
      </trkpt>
      <trkpt lat="43.97984" lon="2.3267">
        <ele>439</ele>
        <time>2021-04-18T10:34:53Z</time>
      </trkpt>
      <trkpt lat="43.97986" lon="2.3267">
        <ele>439</ele>
        <time>2021-04-18T10:34:54Z</time>
      </trkpt>
      <trkpt lat="43.97987" lon="2.3267">
        <ele>439</ele>
        <time>2021-04-18T10:34:55Z</time>
      </trkpt>
      <trkpt lat="43.97989" lon="2.3267">
        <ele>439</ele>
        <time>2021-04-18T10:34:56Z</time>
      </trkpt>
      <trkpt lat="43.9799" lon="2.32671">
        <ele>439</ele>
        <time>2021-04-18T10:34:57Z</time>
      </trkpt>
      <trkpt lat="43.9799" lon="2.32671">
        <ele>438</ele>
        <time>2021-04-18T10:34:58Z</time>
      </trkpt>
      <trkpt lat="43.97992" lon="2.32672">
        <ele>438</ele>
        <time>2021-04-18T10:34:59Z</time>
      </trkpt>
      <trkpt lat="43.97992" lon="2.32674">
        <ele>439</ele>
        <time>2021-04-18T10:35:00Z</time>
      </trkpt>
      <trkpt lat="43.97993" lon="2.32675">
        <ele>439</ele>
        <time>2021-04-18T10:35:01Z</time>
      </trkpt>
      <trkpt lat="43.97994" lon="2.32674">
        <ele>440</ele>
        <time>2021-04-18T10:35:02Z</time>
      </trkpt>
      <trkpt lat="43.97995" lon="2.32674">
        <ele>440</ele>
        <time>2021-04-18T10:35:03Z</time>
      </trkpt>
      <trkpt lat="43.97995" lon="2.32674">
        <ele>440</ele>
        <time>2021-04-18T10:35:04Z</time>
      </trkpt>
      <trkpt lat="43.97995" lon="2.32674">
        <ele>440</ele>
        <time>2021-04-18T10:35:05Z</time>
      </trkpt>
      <trkpt lat="43.97996" lon="2.32675">
        <ele>440</ele>
        <time>2021-04-18T10:35:06Z</time>
      </trkpt>
      <trkpt lat="43.97995" lon="2.32675">
        <ele>440</ele>
        <time>2021-04-18T10:35:07Z</time>
      </trkpt>
      <trkpt lat="43.97995" lon="2.32674">
        <ele>440</ele>
        <time>2021-04-18T10:35:08Z</time>
      </trkpt>
      <trkpt lat="43.97995" lon="2.32674">
        <ele>440</ele>
        <time>2021-04-18T10:35:09Z</time>
      </trkpt>
      <trkpt lat="43.97995" lon="2.32674">
        <ele>440</ele>
        <time>2021-04-18T10:35:09Z</time>
      </trkpt>
      <trkpt lat="43.97995" lon="2.32674">
        <ele>440</ele>
        <time>2021-04-18T10:35:09Z</time>
      </trkpt>
      <trkpt lat="43.97998" lon="2.32668">
        <ele>438</ele>
        <time>2021-04-18T10:35:19Z</time>
      </trkpt>
      <trkpt lat="43.97999" lon="2.32668">
        <ele>438</ele>
        <time>2021-04-18T10:35:20Z</time>
      </trkpt>
      <trkpt lat="43.98" lon="2.32666">
        <ele>438</ele>
        <time>2021-04-18T10:35:21Z</time>
      </trkpt>
      <trkpt lat="43.98002" lon="2.32665">
        <ele>438</ele>
        <time>2021-04-18T10:35:22Z</time>
      </trkpt>
      <trkpt lat="43.98002" lon="2.32663">
        <ele>438</ele>
        <time>2021-04-18T10:35:23Z</time>
      </trkpt>
      <trkpt lat="43.98003" lon="2.32662">
        <ele>439</ele>
        <time>2021-04-18T10:35:24Z</time>
      </trkpt>
      <trkpt lat="43.98003" lon="2.32661">
        <ele>439</ele>
        <time>2021-04-18T10:35:25Z</time>
      </trkpt>
      <trkpt lat="43.98004" lon="2.32659">
        <ele>440</ele>
        <time>2021-04-18T10:35:26Z</time>
      </trkpt>
      <trkpt lat="43.98005" lon="2.32658">
        <ele>441</ele>
        <time>2021-04-18T10:35:27Z</time>
      </trkpt>
      <trkpt lat="43.98005" lon="2.32657">
        <ele>441</ele>
        <time>2021-04-18T10:35:28Z</time>
      </trkpt>
      <trkpt lat="43.98006" lon="2.32656">
        <ele>442</ele>
        <time>2021-04-18T10:35:29Z</time>
      </trkpt>
      <trkpt lat="43.98007" lon="2.32655">
        <ele>441</ele>
        <time>2021-04-18T10:35:30Z</time>
      </trkpt>
      <trkpt lat="43.98008" lon="2.32654">
        <ele>440</ele>
        <time>2021-04-18T10:35:31Z</time>
      </trkpt>
      <trkpt lat="43.98008" lon="2.32653">
        <ele>440</ele>
        <time>2021-04-18T10:35:32Z</time>
      </trkpt>
      <trkpt lat="43.98008" lon="2.32651">
        <ele>439</ele>
        <time>2021-04-18T10:35:33Z</time>
      </trkpt>
      <trkpt lat="43.98007" lon="2.32652">
        <ele>438</ele>
        <time>2021-04-18T10:35:34Z</time>
      </trkpt>
      <trkpt lat="43.98007" lon="2.32652">
        <ele>438</ele>
        <time>2021-04-18T10:35:35Z</time>
      </trkpt>
      <trkpt lat="43.98007" lon="2.32652">
        <ele>438</ele>
        <time>2021-04-18T10:35:36Z</time>
      </trkpt>
      <trkpt lat="43.98007" lon="2.32652">
        <ele>438</ele>
        <time>2021-04-18T10:35:37Z</time>
      </trkpt>
      <trkpt lat="43.98007" lon="2.32652">
        <ele>438</ele>
        <time>2021-04-18T10:35:37Z</time>
      </trkpt>
      <trkpt lat="43.98007" lon="2.32652">
        <ele>438</ele>
        <time>2021-04-18T10:35:37Z</time>
      </trkpt>
      <trkpt lat="43.98001" lon="2.32648">
        <ele>432</ele>
        <time>2021-04-18T11:13:03Z</time>
      </trkpt>
      <trkpt lat="43.98" lon="2.32649">
        <ele>432</ele>
        <time>2021-04-18T11:13:04Z</time>
      </trkpt>
      <trkpt lat="43.98" lon="2.32649">
        <ele>432</ele>
        <time>2021-04-18T11:13:05Z</time>
      </trkpt>
      <trkpt lat="43.98" lon="2.32649">
        <ele>432</ele>
        <time>2021-04-18T11:13:06Z</time>
      </trkpt>
      <trkpt lat="43.98" lon="2.32649">
        <ele>432</ele>
        <time>2021-04-18T11:13:07Z</time>
      </trkpt>
      <trkpt lat="43.98" lon="2.32649">
        <ele>432</ele>
        <time>2021-04-18T11:13:08Z</time>
      </trkpt>
      <trkpt lat="43.98" lon="2.32649">
        <ele>432</ele>
        <time>2021-04-18T11:13:09Z</time>
      </trkpt>
      <trkpt lat="43.98" lon="2.32649">
        <ele>432</ele>
        <time>2021-04-18T11:13:10Z</time>
      </trkpt>
      <trkpt lat="43.98" lon="2.32649">
        <ele>432</ele>
        <time>2021-04-18T11:13:11Z</time>
      </trkpt>
      <trkpt lat="43.98" lon="2.3265">
        <ele>433</ele>
        <time>2021-04-18T11:13:12Z</time>
      </trkpt>
      <trkpt lat="43.97999" lon="2.3265">
        <ele>433</ele>
        <time>2021-04-18T11:13:13Z</time>
      </trkpt>
      <trkpt lat="43.97998" lon="2.3265">
        <ele>433</ele>
        <time>2021-04-18T11:13:14Z</time>
      </trkpt>
      <trkpt lat="43.97996" lon="2.3265">
        <ele>434</ele>
        <time>2021-04-18T11:13:15Z</time>
      </trkpt>
      <trkpt lat="43.97995" lon="2.32651">
        <ele>435</ele>
        <time>2021-04-18T11:13:16Z</time>
      </trkpt>
      <trkpt lat="43.97993" lon="2.32651">
        <ele>436</ele>
        <time>2021-04-18T11:13:17Z</time>
      </trkpt>
      <trkpt lat="43.97992" lon="2.32652">
        <ele>436</ele>
        <time>2021-04-18T11:13:18Z</time>
      </trkpt>
      <trkpt lat="43.97992" lon="2.32653">
        <ele>436</ele>
        <time>2021-04-18T11:13:19Z</time>
      </trkpt>
      <trkpt lat="43.9799" lon="2.32654">
        <ele>437</ele>
        <time>2021-04-18T11:13:20Z</time>
      </trkpt>
      <trkpt lat="43.97989" lon="2.32655">
        <ele>437</ele>
        <time>2021-04-18T11:13:21Z</time>
      </trkpt>
      <trkpt lat="43.97987" lon="2.32656">
        <ele>437</ele>
        <time>2021-04-18T11:13:22Z</time>
      </trkpt>
      <trkpt lat="43.97987" lon="2.32657">
        <ele>437</ele>
        <time>2021-04-18T11:13:23Z</time>
      </trkpt>
      <trkpt lat="43.97986" lon="2.32659">
        <ele>438</ele>
        <time>2021-04-18T11:13:24Z</time>
      </trkpt>
      <trkpt lat="43.97985" lon="2.3266">
        <ele>438</ele>
        <time>2021-04-18T11:13:25Z</time>
      </trkpt>
      <trkpt lat="43.97984" lon="2.32661">
        <ele>438</ele>
        <time>2021-04-18T11:13:26Z</time>
      </trkpt>
      <trkpt lat="43.97984" lon="2.32661">
        <ele>439</ele>
        <time>2021-04-18T11:13:27Z</time>
      </trkpt>
      <trkpt lat="43.97983" lon="2.32661">
        <ele>439</ele>
        <time>2021-04-18T11:13:28Z</time>
      </trkpt>
      <trkpt lat="43.97982" lon="2.32662">
        <ele>439</ele>
        <time>2021-04-18T11:13:29Z</time>
      </trkpt>
      <trkpt lat="43.97981" lon="2.32663">
        <ele>439</ele>
        <time>2021-04-18T11:13:30Z</time>
      </trkpt>
      <trkpt lat="43.9798" lon="2.32664">
        <ele>438</ele>
        <time>2021-04-18T11:13:31Z</time>
      </trkpt>
      <trkpt lat="43.97979" lon="2.32665">
        <ele>438</ele>
        <time>2021-04-18T11:13:32Z</time>
      </trkpt>
      <trkpt lat="43.97979" lon="2.32666">
        <ele>438</ele>
        <time>2021-04-18T11:13:33Z</time>
      </trkpt>
      <trkpt lat="43.97978" lon="2.32668">
        <ele>438</ele>
        <time>2021-04-18T11:13:34Z</time>
      </trkpt>
      <trkpt lat="43.97978" lon="2.3267">
        <ele>438</ele>
        <time>2021-04-18T11:13:35Z</time>
      </trkpt>
      <trkpt lat="43.97978" lon="2.32671">
        <ele>439</ele>
        <time>2021-04-18T11:13:36Z</time>
      </trkpt>
      <trkpt lat="43.97978" lon="2.32671">
        <ele>438</ele>
        <time>2021-04-18T11:13:37Z</time>
      </trkpt>
      <trkpt lat="43.97979" lon="2.32671">
        <ele>437</ele>
        <time>2021-04-18T11:13:38Z</time>
      </trkpt>
      <trkpt lat="43.97978" lon="2.3267">
        <ele>437</ele>
        <time>2021-04-18T11:13:39Z</time>
      </trkpt>
      <trkpt lat="43.97977" lon="2.3267">
        <ele>437</ele>
        <time>2021-04-18T11:13:40Z</time>
      </trkpt>
      <trkpt lat="43.97977" lon="2.3267">
        <ele>437</ele>
        <time>2021-04-18T11:13:41Z</time>
      </trkpt>
      <trkpt lat="43.97977" lon="2.3267">
        <ele>437</ele>
        <time>2021-04-18T11:13:42Z</time>
      </trkpt>
      <trkpt lat="43.97977" lon="2.3267">
        <ele>437</ele>
        <time>2021-04-18T11:13:43Z</time>
      </trkpt>
      <trkpt lat="43.97977" lon="2.3267">
        <ele>437</ele>
        <time>2021-04-18T11:13:44Z</time>
      </trkpt>
      <trkpt lat="43.97977" lon="2.3267">
        <ele>437</ele>
        <time>2021-04-18T11:13:45Z</time>
      </trkpt>
      <trkpt lat="43.97977" lon="2.3267">
        <ele>437</ele>
        <time>2021-04-18T11:13:46Z</time>
      </trkpt>
      <trkpt lat="43.97977" lon="2.3267">
        <ele>437</ele>
        <time>2021-04-18T11:13:46Z</time>
      </trkpt>
      <trkpt lat="43.97977" lon="2.3267">
        <ele>437</ele>
        <time>2021-04-18T11:13:46Z</time>
      </trkpt>
      <trkpt lat="43.97976" lon="2.32672">
        <ele>436</ele>
        <time>2021-04-18T11:14:06Z</time>
      </trkpt>
      <trkpt lat="43.97976" lon="2.32673">
        <ele>435</ele>
        <time>2021-04-18T11:14:07Z</time>
      </trkpt>
      <trkpt lat="43.97977" lon="2.32674">
        <ele>435</ele>
        <time>2021-04-18T11:14:08Z</time>
      </trkpt>
      <trkpt lat="43.97977" lon="2.32675">
        <ele>435</ele>
        <time>2021-04-18T11:14:09Z</time>
      </trkpt>
      <trkpt lat="43.97977" lon="2.32675">
        <ele>435</ele>
        <time>2021-04-18T11:14:10Z</time>
      </trkpt>
      <trkpt lat="43.97977" lon="2.32676">
        <ele>435</ele>
        <time>2021-04-18T11:14:11Z</time>
      </trkpt>
      <trkpt lat="43.97976" lon="2.32676">
        <ele>434</ele>
        <time>2021-04-18T11:14:12Z</time>
      </trkpt>
      <trkpt lat="43.97976" lon="2.32677">
        <ele>434</ele>
        <time>2021-04-18T11:14:13Z</time>
      </trkpt>
      <trkpt lat="43.97976" lon="2.32679">
        <ele>432</ele>
        <time>2021-04-18T11:14:14Z</time>
      </trkpt>
      <trkpt lat="43.97975" lon="2.32678">
        <ele>432</ele>
        <time>2021-04-18T11:14:15Z</time>
      </trkpt>
      <trkpt lat="43.97974" lon="2.32679">
        <ele>431</ele>
        <time>2021-04-18T11:14:16Z</time>
      </trkpt>
      <trkpt lat="43.97974" lon="2.32681">
        <ele>431</ele>
        <time>2021-04-18T11:14:17Z</time>
      </trkpt>
      <trkpt lat="43.97973" lon="2.32681">
        <ele>430</ele>
        <time>2021-04-18T11:14:18Z</time>
      </trkpt>
      <trkpt lat="43.97973" lon="2.32682">
        <ele>430</ele>
        <time>2021-04-18T11:14:19Z</time>
      </trkpt>
      <trkpt lat="43.97972" lon="2.32683">
        <ele>431</ele>
        <time>2021-04-18T11:14:20Z</time>
      </trkpt>
      <trkpt lat="43.97971" lon="2.32683">
        <ele>432</ele>
        <time>2021-04-18T11:14:21Z</time>
      </trkpt>
      <trkpt lat="43.9797" lon="2.32682">
        <ele>432</ele>
        <time>2021-04-18T11:14:22Z</time>
      </trkpt>
      <trkpt lat="43.9797" lon="2.32682">
        <ele>432</ele>
        <time>2021-04-18T11:14:23Z</time>
      </trkpt>
      <trkpt lat="43.9797" lon="2.32682">
        <ele>432</ele>
        <time>2021-04-18T11:14:24Z</time>
      </trkpt>
      <trkpt lat="43.97969" lon="2.32682">
        <ele>432</ele>
        <time>2021-04-18T11:14:25Z</time>
      </trkpt>
      <trkpt lat="43.97969" lon="2.32682">
        <ele>432</ele>
        <time>2021-04-18T11:14:26Z</time>
      </trkpt>
      <trkpt lat="43.97969" lon="2.32682">
        <ele>432</ele>
        <time>2021-04-18T11:14:27Z</time>
      </trkpt>
      <trkpt lat="43.97968" lon="2.32682">
        <ele>432</ele>
        <time>2021-04-18T11:14:28Z</time>
      </trkpt>
      <trkpt lat="43.97968" lon="2.32682">
        <ele>433</ele>
        <time>2021-04-18T11:14:29Z</time>
      </trkpt>
      <trkpt lat="43.97967" lon="2.32682">
        <ele>433</ele>
        <time>2021-04-18T11:14:30Z</time>
      </trkpt>
      <trkpt lat="43.97966" lon="2.32683">
        <ele>433</ele>
        <time>2021-04-18T11:14:31Z</time>
      </trkpt>
      <trkpt lat="43.97966" lon="2.32683">
        <ele>433</ele>
        <time>2021-04-18T11:14:32Z</time>
      </trkpt>
      <trkpt lat="43.97966" lon="2.32683">
        <ele>433</ele>
        <time>2021-04-18T11:14:33Z</time>
      </trkpt>
      <trkpt lat="43.97966" lon="2.32683">
        <ele>433</ele>
        <time>2021-04-18T11:14:34Z</time>
      </trkpt>
      <trkpt lat="43.97966" lon="2.32683">
        <ele>433</ele>
        <time>2021-04-18T11:14:35Z</time>
      </trkpt>
      <trkpt lat="43.97966" lon="2.32685">
        <ele>433</ele>
        <time>2021-04-18T11:14:36Z</time>
      </trkpt>
      <trkpt lat="43.97965" lon="2.32686">
        <ele>433</ele>
        <time>2021-04-18T11:14:37Z</time>
      </trkpt>
      <trkpt lat="43.97965" lon="2.32686">
        <ele>433</ele>
        <time>2021-04-18T11:14:38Z</time>
      </trkpt>
      <trkpt lat="43.97964" lon="2.32687">
        <ele>432</ele>
        <time>2021-04-18T11:14:39Z</time>
      </trkpt>
      <trkpt lat="43.97963" lon="2.32688">
        <ele>432</ele>
        <time>2021-04-18T11:14:40Z</time>
      </trkpt>
      <trkpt lat="43.97961" lon="2.32689">
        <ele>433</ele>
        <time>2021-04-18T11:14:41Z</time>
      </trkpt>
      <trkpt lat="43.97961" lon="2.32689">
        <ele>433</ele>
        <time>2021-04-18T11:14:42Z</time>
      </trkpt>
      <trkpt lat="43.97959" lon="2.32689">
        <ele>432</ele>
        <time>2021-04-18T11:14:43Z</time>
      </trkpt>
      <trkpt lat="43.97958" lon="2.3269">
        <ele>432</ele>
        <time>2021-04-18T11:14:44Z</time>
      </trkpt>
      <trkpt lat="43.97957" lon="2.3269">
        <ele>433</ele>
        <time>2021-04-18T11:14:45Z</time>
      </trkpt>
      <trkpt lat="43.97956" lon="2.32691">
        <ele>433</ele>
        <time>2021-04-18T11:14:46Z</time>
      </trkpt>
      <trkpt lat="43.97955" lon="2.32692">
        <ele>434</ele>
        <time>2021-04-18T11:14:47Z</time>
      </trkpt>
      <trkpt lat="43.97954" lon="2.32693">
        <ele>435</ele>
        <time>2021-04-18T11:14:48Z</time>
      </trkpt>
      <trkpt lat="43.97953" lon="2.32693">
        <ele>435</ele>
        <time>2021-04-18T11:14:49Z</time>
      </trkpt>
      <trkpt lat="43.97952" lon="2.32694">
        <ele>435</ele>
        <time>2021-04-18T11:14:50Z</time>
      </trkpt>
      <trkpt lat="43.97951" lon="2.32695">
        <ele>435</ele>
        <time>2021-04-18T11:14:51Z</time>
      </trkpt>
      <trkpt lat="43.9795" lon="2.32695">
        <ele>435</ele>
        <time>2021-04-18T11:14:52Z</time>
      </trkpt>
      <trkpt lat="43.9795" lon="2.32696">
        <ele>436</ele>
        <time>2021-04-18T11:14:53Z</time>
      </trkpt>
      <trkpt lat="43.97949" lon="2.32697">
        <ele>435</ele>
        <time>2021-04-18T11:14:54Z</time>
      </trkpt>
      <trkpt lat="43.97948" lon="2.32697">
        <ele>435</ele>
        <time>2021-04-18T11:14:55Z</time>
      </trkpt>
      <trkpt lat="43.97946" lon="2.32698">
        <ele>436</ele>
        <time>2021-04-18T11:14:56Z</time>
      </trkpt>
      <trkpt lat="43.97945" lon="2.32699">
        <ele>437</ele>
        <time>2021-04-18T11:14:57Z</time>
      </trkpt>
      <trkpt lat="43.97944" lon="2.327">
        <ele>436</ele>
        <time>2021-04-18T11:14:58Z</time>
      </trkpt>
      <trkpt lat="43.97942" lon="2.32702">
        <ele>437</ele>
        <time>2021-04-18T11:14:59Z</time>
      </trkpt>
      <trkpt lat="43.9794" lon="2.32703">
        <ele>437</ele>
        <time>2021-04-18T11:15:00Z</time>
      </trkpt>
      <trkpt lat="43.97939" lon="2.32704">
        <ele>437</ele>
        <time>2021-04-18T11:15:01Z</time>
      </trkpt>
      <trkpt lat="43.97938" lon="2.32705">
        <ele>438</ele>
        <time>2021-04-18T11:15:02Z</time>
      </trkpt>
      <trkpt lat="43.97937" lon="2.32706">
        <ele>438</ele>
        <time>2021-04-18T11:15:03Z</time>
      </trkpt>
      <trkpt lat="43.97935" lon="2.32707">
        <ele>438</ele>
        <time>2021-04-18T11:15:04Z</time>
      </trkpt>
      <trkpt lat="43.97934" lon="2.32709">
        <ele>438</ele>
        <time>2021-04-18T11:15:05Z</time>
      </trkpt>
      <trkpt lat="43.97932" lon="2.3271">
        <ele>438</ele>
        <time>2021-04-18T11:15:06Z</time>
      </trkpt>
      <trkpt lat="43.97931" lon="2.32711">
        <ele>439</ele>
        <time>2021-04-18T11:15:07Z</time>
      </trkpt>
      <trkpt lat="43.97931" lon="2.32713">
        <ele>439</ele>
        <time>2021-04-18T11:15:08Z</time>
      </trkpt>
      <trkpt lat="43.9793" lon="2.32714">
        <ele>439</ele>
        <time>2021-04-18T11:15:09Z</time>
      </trkpt>
      <trkpt lat="43.97929" lon="2.32715">
        <ele>439</ele>
        <time>2021-04-18T11:15:10Z</time>
      </trkpt>
      <trkpt lat="43.97928" lon="2.32716">
        <ele>439</ele>
        <time>2021-04-18T11:15:11Z</time>
      </trkpt>
      <trkpt lat="43.97927" lon="2.32718">
        <ele>439</ele>
        <time>2021-04-18T11:15:12Z</time>
      </trkpt>
      <trkpt lat="43.97926" lon="2.32719">
        <ele>439</ele>
        <time>2021-04-18T11:15:13Z</time>
      </trkpt>
      <trkpt lat="43.97924" lon="2.3272">
        <ele>439</ele>
        <time>2021-04-18T11:15:14Z</time>
      </trkpt>
      <trkpt lat="43.97923" lon="2.32721">
        <ele>440</ele>
        <time>2021-04-18T11:15:15Z</time>
      </trkpt>
      <trkpt lat="43.97923" lon="2.32722">
        <ele>440</ele>
        <time>2021-04-18T11:15:16Z</time>
      </trkpt>
      <trkpt lat="43.97922" lon="2.32723">
        <ele>440</ele>
        <time>2021-04-18T11:15:17Z</time>
      </trkpt>
      <trkpt lat="43.97921" lon="2.32725">
        <ele>440</ele>
        <time>2021-04-18T11:15:18Z</time>
      </trkpt>
      <trkpt lat="43.9792" lon="2.32725">
        <ele>440</ele>
        <time>2021-04-18T11:15:19Z</time>
      </trkpt>
      <trkpt lat="43.9792" lon="2.32726">
        <ele>440</ele>
        <time>2021-04-18T11:15:20Z</time>
      </trkpt>
      <trkpt lat="43.97918" lon="2.32727">
        <ele>440</ele>
        <time>2021-04-18T11:15:21Z</time>
      </trkpt>
      <trkpt lat="43.97917" lon="2.32728">
        <ele>440</ele>
        <time>2021-04-18T11:15:22Z</time>
      </trkpt>
      <trkpt lat="43.97916" lon="2.32729">
        <ele>441</ele>
        <time>2021-04-18T11:15:23Z</time>
      </trkpt>
      <trkpt lat="43.97915" lon="2.3273">
        <ele>441</ele>
        <time>2021-04-18T11:15:24Z</time>
      </trkpt>
      <trkpt lat="43.97914" lon="2.3273">
        <ele>441</ele>
        <time>2021-04-18T11:15:25Z</time>
      </trkpt>
      <trkpt lat="43.97913" lon="2.32731">
        <ele>440</ele>
        <time>2021-04-18T11:15:26Z</time>
      </trkpt>
      <trkpt lat="43.97911" lon="2.32732">
        <ele>440</ele>
        <time>2021-04-18T11:15:27Z</time>
      </trkpt>
      <trkpt lat="43.9791" lon="2.32732">
        <ele>440</ele>
        <time>2021-04-18T11:15:28Z</time>
      </trkpt>
      <trkpt lat="43.97908" lon="2.32733">
        <ele>440</ele>
        <time>2021-04-18T11:15:29Z</time>
      </trkpt>
      <trkpt lat="43.97907" lon="2.32734">
        <ele>440</ele>
        <time>2021-04-18T11:15:30Z</time>
      </trkpt>
      <trkpt lat="43.97906" lon="2.32734">
        <ele>440</ele>
        <time>2021-04-18T11:15:31Z</time>
      </trkpt>
      <trkpt lat="43.97904" lon="2.32735">
        <ele>440</ele>
        <time>2021-04-18T11:15:32Z</time>
      </trkpt>
      <trkpt lat="43.97903" lon="2.32735">
        <ele>441</ele>
        <time>2021-04-18T11:15:33Z</time>
      </trkpt>
      <trkpt lat="43.97902" lon="2.32735">
        <ele>441</ele>
        <time>2021-04-18T11:15:34Z</time>
      </trkpt>
      <trkpt lat="43.97901" lon="2.32736">
        <ele>440</ele>
        <time>2021-04-18T11:15:35Z</time>
      </trkpt>
      <trkpt lat="43.979" lon="2.32737">
        <ele>440</ele>
        <time>2021-04-18T11:15:36Z</time>
      </trkpt>
      <trkpt lat="43.97899" lon="2.32738">
        <ele>440</ele>
        <time>2021-04-18T11:15:37Z</time>
      </trkpt>
      <trkpt lat="43.97898" lon="2.32739">
        <ele>440</ele>
        <time>2021-04-18T11:15:38Z</time>
      </trkpt>
      <trkpt lat="43.97897" lon="2.3274">
        <ele>439</ele>
        <time>2021-04-18T11:15:39Z</time>
      </trkpt>
      <trkpt lat="43.97896" lon="2.32741">
        <ele>440</ele>
        <time>2021-04-18T11:15:40Z</time>
      </trkpt>
      <trkpt lat="43.97895" lon="2.32742">
        <ele>440</ele>
        <time>2021-04-18T11:15:41Z</time>
      </trkpt>
      <trkpt lat="43.97894" lon="2.32743">
        <ele>440</ele>
        <time>2021-04-18T11:15:42Z</time>
      </trkpt>
      <trkpt lat="43.97892" lon="2.32744">
        <ele>440</ele>
        <time>2021-04-18T11:15:43Z</time>
      </trkpt>
      <trkpt lat="43.97891" lon="2.32745">
        <ele>440</ele>
        <time>2021-04-18T11:15:44Z</time>
      </trkpt>
      <trkpt lat="43.97889" lon="2.32746">
        <ele>440</ele>
        <time>2021-04-18T11:15:45Z</time>
      </trkpt>
      <trkpt lat="43.97887" lon="2.32747">
        <ele>440</ele>
        <time>2021-04-18T11:15:46Z</time>
      </trkpt>
      <trkpt lat="43.97886" lon="2.32748">
        <ele>440</ele>
        <time>2021-04-18T11:15:47Z</time>
      </trkpt>
      <trkpt lat="43.97884" lon="2.32749">
        <ele>440</ele>
        <time>2021-04-18T11:15:48Z</time>
      </trkpt>
      <trkpt lat="43.97883" lon="2.3275">
        <ele>440</ele>
        <time>2021-04-18T11:15:49Z</time>
      </trkpt>
      <trkpt lat="43.97881" lon="2.32751">
        <ele>440</ele>
        <time>2021-04-18T11:15:50Z</time>
      </trkpt>
      <trkpt lat="43.9788" lon="2.32752">
        <ele>440</ele>
        <time>2021-04-18T11:15:51Z</time>
      </trkpt>
      <trkpt lat="43.97879" lon="2.32753">
        <ele>439</ele>
        <time>2021-04-18T11:15:52Z</time>
      </trkpt>
      <trkpt lat="43.97877" lon="2.32754">
        <ele>439</ele>
        <time>2021-04-18T11:15:53Z</time>
      </trkpt>
      <trkpt lat="43.97875" lon="2.32756">
        <ele>439</ele>
        <time>2021-04-18T11:15:54Z</time>
      </trkpt>
      <trkpt lat="43.97873" lon="2.32757">
        <ele>439</ele>
        <time>2021-04-18T11:15:55Z</time>
      </trkpt>
      <trkpt lat="43.97872" lon="2.32759">
        <ele>440</ele>
        <time>2021-04-18T11:15:56Z</time>
      </trkpt>
      <trkpt lat="43.97871" lon="2.3276">
        <ele>440</ele>
        <time>2021-04-18T11:15:57Z</time>
      </trkpt>
      <trkpt lat="43.9787" lon="2.32761">
        <ele>440</ele>
        <time>2021-04-18T11:15:58Z</time>
      </trkpt>
      <trkpt lat="43.97869" lon="2.32762">
        <ele>440</ele>
        <time>2021-04-18T11:15:59Z</time>
      </trkpt>
      <trkpt lat="43.97868" lon="2.32763">
        <ele>440</ele>
        <time>2021-04-18T11:16:00Z</time>
      </trkpt>
      <trkpt lat="43.97866" lon="2.32764">
        <ele>439</ele>
        <time>2021-04-18T11:16:01Z</time>
      </trkpt>
      <trkpt lat="43.97865" lon="2.32765">
        <ele>439</ele>
        <time>2021-04-18T11:16:02Z</time>
      </trkpt>
      <trkpt lat="43.97863" lon="2.32767">
        <ele>439</ele>
        <time>2021-04-18T11:16:03Z</time>
      </trkpt>
      <trkpt lat="43.97862" lon="2.32768">
        <ele>439</ele>
        <time>2021-04-18T11:16:04Z</time>
      </trkpt>
      <trkpt lat="43.9786" lon="2.32769">
        <ele>439</ele>
        <time>2021-04-18T11:16:05Z</time>
      </trkpt>
      <trkpt lat="43.97859" lon="2.3277">
        <ele>438</ele>
        <time>2021-04-18T11:16:06Z</time>
      </trkpt>
      <trkpt lat="43.97858" lon="2.32771">
        <ele>438</ele>
        <time>2021-04-18T11:16:07Z</time>
      </trkpt>
      <trkpt lat="43.97857" lon="2.32772">
        <ele>438</ele>
        <time>2021-04-18T11:16:08Z</time>
      </trkpt>
      <trkpt lat="43.97855" lon="2.32774">
        <ele>438</ele>
        <time>2021-04-18T11:16:09Z</time>
      </trkpt>
      <trkpt lat="43.97854" lon="2.32775">
        <ele>438</ele>
        <time>2021-04-18T11:16:10Z</time>
      </trkpt>
      <trkpt lat="43.97852" lon="2.32776">
        <ele>438</ele>
        <time>2021-04-18T11:16:11Z</time>
      </trkpt>
      <trkpt lat="43.9785" lon="2.32777">
        <ele>439</ele>
        <time>2021-04-18T11:16:12Z</time>
      </trkpt>
      <trkpt lat="43.97849" lon="2.32777">
        <ele>439</ele>
        <time>2021-04-18T11:16:13Z</time>
      </trkpt>
      <trkpt lat="43.97848" lon="2.32778">
        <ele>439</ele>
        <time>2021-04-18T11:16:14Z</time>
      </trkpt>
      <trkpt lat="43.97847" lon="2.32779">
        <ele>439</ele>
        <time>2021-04-18T11:16:15Z</time>
      </trkpt>
      <trkpt lat="43.97846" lon="2.3278">
        <ele>439</ele>
        <time>2021-04-18T11:16:16Z</time>
      </trkpt>
      <trkpt lat="43.97844" lon="2.32782">
        <ele>439</ele>
        <time>2021-04-18T11:16:17Z</time>
      </trkpt>
      <trkpt lat="43.97843" lon="2.32782">
        <ele>439</ele>
        <time>2021-04-18T11:16:18Z</time>
      </trkpt>
      <trkpt lat="43.97842" lon="2.32784">
        <ele>438</ele>
        <time>2021-04-18T11:16:19Z</time>
      </trkpt>
      <trkpt lat="43.97842" lon="2.32785">
        <ele>438</ele>
        <time>2021-04-18T11:16:20Z</time>
      </trkpt>
      <trkpt lat="43.9784" lon="2.32787">
        <ele>437</ele>
        <time>2021-04-18T11:16:21Z</time>
      </trkpt>
      <trkpt lat="43.97839" lon="2.32788">
        <ele>436</ele>
        <time>2021-04-18T11:16:22Z</time>
      </trkpt>
      <trkpt lat="43.97838" lon="2.3279">
        <ele>436</ele>
        <time>2021-04-18T11:16:23Z</time>
      </trkpt>
      <trkpt lat="43.97837" lon="2.32791">
        <ele>436</ele>
        <time>2021-04-18T11:16:24Z</time>
      </trkpt>
      <trkpt lat="43.97836" lon="2.32793">
        <ele>435</ele>
        <time>2021-04-18T11:16:25Z</time>
      </trkpt>
      <trkpt lat="43.97834" lon="2.32794">
        <ele>436</ele>
        <time>2021-04-18T11:16:26Z</time>
      </trkpt>
      <trkpt lat="43.97833" lon="2.32795">
        <ele>435</ele>
        <time>2021-04-18T11:16:27Z</time>
      </trkpt>
      <trkpt lat="43.97831" lon="2.32796">
        <ele>435</ele>
        <time>2021-04-18T11:16:28Z</time>
      </trkpt>
      <trkpt lat="43.97829" lon="2.32798">
        <ele>434</ele>
        <time>2021-04-18T11:16:29Z</time>
      </trkpt>
      <trkpt lat="43.97828" lon="2.32799">
        <ele>434</ele>
        <time>2021-04-18T11:16:30Z</time>
      </trkpt>
      <trkpt lat="43.97826" lon="2.32801">
        <ele>433</ele>
        <time>2021-04-18T11:16:31Z</time>
      </trkpt>
      <trkpt lat="43.97825" lon="2.32802">
        <ele>432</ele>
        <time>2021-04-18T11:16:32Z</time>
      </trkpt>
      <trkpt lat="43.97824" lon="2.32803">
        <ele>432</ele>
        <time>2021-04-18T11:16:33Z</time>
      </trkpt>
      <trkpt lat="43.97823" lon="2.32805">
        <ele>431</ele>
        <time>2021-04-18T11:16:34Z</time>
      </trkpt>
      <trkpt lat="43.97821" lon="2.32807">
        <ele>431</ele>
        <time>2021-04-18T11:16:35Z</time>
      </trkpt>
      <trkpt lat="43.9782" lon="2.32808">
        <ele>430</ele>
        <time>2021-04-18T11:16:36Z</time>
      </trkpt>
      <trkpt lat="43.97819" lon="2.32811">
        <ele>430</ele>
        <time>2021-04-18T11:16:37Z</time>
      </trkpt>
      <trkpt lat="43.97817" lon="2.32813">
        <ele>430</ele>
        <time>2021-04-18T11:16:38Z</time>
      </trkpt>
      <trkpt lat="43.97816" lon="2.32815">
        <ele>430</ele>
        <time>2021-04-18T11:16:39Z</time>
      </trkpt>
      <trkpt lat="43.97814" lon="2.32817">
        <ele>431</ele>
        <time>2021-04-18T11:16:40Z</time>
      </trkpt>
      <trkpt lat="43.97813" lon="2.32818">
        <ele>431</ele>
        <time>2021-04-18T11:16:41Z</time>
      </trkpt>
      <trkpt lat="43.97812" lon="2.32819">
        <ele>431</ele>
        <time>2021-04-18T11:16:42Z</time>
      </trkpt>
      <trkpt lat="43.9781" lon="2.3282">
        <ele>432</ele>
        <time>2021-04-18T11:16:43Z</time>
      </trkpt>
      <trkpt lat="43.97808" lon="2.32822">
        <ele>433</ele>
        <time>2021-04-18T11:16:44Z</time>
      </trkpt>
      <trkpt lat="43.97807" lon="2.32823">
        <ele>433</ele>
        <time>2021-04-18T11:16:45Z</time>
      </trkpt>
      <trkpt lat="43.97805" lon="2.32824">
        <ele>433</ele>
        <time>2021-04-18T11:16:46Z</time>
      </trkpt>
      <trkpt lat="43.97804" lon="2.32826">
        <ele>433</ele>
        <time>2021-04-18T11:16:47Z</time>
      </trkpt>
      <trkpt lat="43.97803" lon="2.32828">
        <ele>433</ele>
        <time>2021-04-18T11:16:48Z</time>
      </trkpt>
      <trkpt lat="43.97801" lon="2.32828">
        <ele>434</ele>
        <time>2021-04-18T11:16:49Z</time>
      </trkpt>
      <trkpt lat="43.978" lon="2.3283">
        <ele>433</ele>
        <time>2021-04-18T11:16:50Z</time>
      </trkpt>
      <trkpt lat="43.97799" lon="2.32832">
        <ele>433</ele>
        <time>2021-04-18T11:16:51Z</time>
      </trkpt>
      <trkpt lat="43.97799" lon="2.32833">
        <ele>433</ele>
        <time>2021-04-18T11:16:52Z</time>
      </trkpt>
      <trkpt lat="43.97797" lon="2.32834">
        <ele>432</ele>
        <time>2021-04-18T11:16:53Z</time>
      </trkpt>
      <trkpt lat="43.97796" lon="2.32835">
        <ele>433</ele>
        <time>2021-04-18T11:16:54Z</time>
      </trkpt>
      <trkpt lat="43.97795" lon="2.32836">
        <ele>434</ele>
        <time>2021-04-18T11:16:55Z</time>
      </trkpt>
      <trkpt lat="43.97794" lon="2.32837">
        <ele>435</ele>
        <time>2021-04-18T11:16:56Z</time>
      </trkpt>
      <trkpt lat="43.97792" lon="2.32839">
        <ele>435</ele>
        <time>2021-04-18T11:16:57Z</time>
      </trkpt>
      <trkpt lat="43.97791" lon="2.3284">
        <ele>434</ele>
        <time>2021-04-18T11:16:58Z</time>
      </trkpt>
      <trkpt lat="43.9779" lon="2.32841">
        <ele>434</ele>
        <time>2021-04-18T11:16:59Z</time>
      </trkpt>
      <trkpt lat="43.97788" lon="2.32843">
        <ele>434</ele>
        <time>2021-04-18T11:17:00Z</time>
      </trkpt>
      <trkpt lat="43.97787" lon="2.32844">
        <ele>434</ele>
        <time>2021-04-18T11:17:01Z</time>
      </trkpt>
      <trkpt lat="43.97786" lon="2.32846">
        <ele>434</ele>
        <time>2021-04-18T11:17:02Z</time>
      </trkpt>
      <trkpt lat="43.97784" lon="2.32847">
        <ele>434</ele>
        <time>2021-04-18T11:17:03Z</time>
      </trkpt>
      <trkpt lat="43.97784" lon="2.32849">
        <ele>434</ele>
        <time>2021-04-18T11:17:04Z</time>
      </trkpt>
      <trkpt lat="43.97782" lon="2.32851">
        <ele>435</ele>
        <time>2021-04-18T11:17:05Z</time>
      </trkpt>
      <trkpt lat="43.97781" lon="2.32852">
        <ele>435</ele>
        <time>2021-04-18T11:17:06Z</time>
      </trkpt>
      <trkpt lat="43.9778" lon="2.32854">
        <ele>434</ele>
        <time>2021-04-18T11:17:07Z</time>
      </trkpt>
      <trkpt lat="43.97779" lon="2.32855">
        <ele>434</ele>
        <time>2021-04-18T11:17:08Z</time>
      </trkpt>
      <trkpt lat="43.97778" lon="2.32856">
        <ele>434</ele>
        <time>2021-04-18T11:17:09Z</time>
      </trkpt>
      <trkpt lat="43.97777" lon="2.32858">
        <ele>434</ele>
        <time>2021-04-18T11:17:10Z</time>
      </trkpt>
      <trkpt lat="43.97776" lon="2.3286">
        <ele>434</ele>
        <time>2021-04-18T11:17:11Z</time>
      </trkpt>
      <trkpt lat="43.97775" lon="2.32861">
        <ele>434</ele>
        <time>2021-04-18T11:17:12Z</time>
      </trkpt>
      <trkpt lat="43.97774" lon="2.32862">
        <ele>434</ele>
        <time>2021-04-18T11:17:13Z</time>
      </trkpt>
      <trkpt lat="43.97773" lon="2.32863">
        <ele>435</ele>
        <time>2021-04-18T11:17:14Z</time>
      </trkpt>
      <trkpt lat="43.97772" lon="2.32864">
        <ele>435</ele>
        <time>2021-04-18T11:17:15Z</time>
      </trkpt>
      <trkpt lat="43.97771" lon="2.32865">
        <ele>435</ele>
        <time>2021-04-18T11:17:16Z</time>
      </trkpt>
      <trkpt lat="43.9777" lon="2.32865">
        <ele>435</ele>
        <time>2021-04-18T11:17:17Z</time>
      </trkpt>
      <trkpt lat="43.97769" lon="2.32866">
        <ele>435</ele>
        <time>2021-04-18T11:17:18Z</time>
      </trkpt>
      <trkpt lat="43.97768" lon="2.32867">
        <ele>435</ele>
        <time>2021-04-18T11:17:19Z</time>
      </trkpt>
      <trkpt lat="43.97766" lon="2.32868">
        <ele>436</ele>
        <time>2021-04-18T11:17:20Z</time>
      </trkpt>
      <trkpt lat="43.97765" lon="2.32869">
        <ele>436</ele>
        <time>2021-04-18T11:17:21Z</time>
      </trkpt>
      <trkpt lat="43.97763" lon="2.32871">
        <ele>437</ele>
        <time>2021-04-18T11:17:22Z</time>
      </trkpt>
      <trkpt lat="43.97762" lon="2.32873">
        <ele>437</ele>
        <time>2021-04-18T11:17:23Z</time>
      </trkpt>
      <trkpt lat="43.97761" lon="2.32875">
        <ele>436</ele>
        <time>2021-04-18T11:17:24Z</time>
      </trkpt>
      <trkpt lat="43.9776" lon="2.32876">
        <ele>436</ele>
        <time>2021-04-18T11:17:25Z</time>
      </trkpt>
      <trkpt lat="43.97759" lon="2.32877">
        <ele>437</ele>
        <time>2021-04-18T11:17:26Z</time>
      </trkpt>
      <trkpt lat="43.97757" lon="2.32877">
        <ele>437</ele>
        <time>2021-04-18T11:17:27Z</time>
      </trkpt>
      <trkpt lat="43.97755" lon="2.32878">
        <ele>437</ele>
        <time>2021-04-18T11:17:28Z</time>
      </trkpt>
      <trkpt lat="43.97754" lon="2.32879">
        <ele>436</ele>
        <time>2021-04-18T11:17:29Z</time>
      </trkpt>
      <trkpt lat="43.97753" lon="2.3288">
        <ele>436</ele>
        <time>2021-04-18T11:17:30Z</time>
      </trkpt>
      <trkpt lat="43.97752" lon="2.32882">
        <ele>435</ele>
        <time>2021-04-18T11:17:31Z</time>
      </trkpt>
      <trkpt lat="43.97751" lon="2.32883">
        <ele>435</ele>
        <time>2021-04-18T11:17:32Z</time>
      </trkpt>
      <trkpt lat="43.97751" lon="2.32884">
        <ele>435</ele>
        <time>2021-04-18T11:17:33Z</time>
      </trkpt>
      <trkpt lat="43.97749" lon="2.32885">
        <ele>435</ele>
        <time>2021-04-18T11:17:34Z</time>
      </trkpt>
      <trkpt lat="43.97747" lon="2.32885">
        <ele>435</ele>
        <time>2021-04-18T11:17:35Z</time>
      </trkpt>
      <trkpt lat="43.97746" lon="2.32885">
        <ele>435</ele>
        <time>2021-04-18T11:17:36Z</time>
      </trkpt>
      <trkpt lat="43.97744" lon="2.32886">
        <ele>434</ele>
        <time>2021-04-18T11:17:37Z</time>
      </trkpt>
      <trkpt lat="43.97743" lon="2.32888">
        <ele>434</ele>
        <time>2021-04-18T11:17:38Z</time>
      </trkpt>
      <trkpt lat="43.97741" lon="2.32889">
        <ele>434</ele>
        <time>2021-04-18T11:17:39Z</time>
      </trkpt>
      <trkpt lat="43.97739" lon="2.3289">
        <ele>434</ele>
        <time>2021-04-18T11:17:40Z</time>
      </trkpt>
      <trkpt lat="43.97738" lon="2.32891">
        <ele>434</ele>
        <time>2021-04-18T11:17:41Z</time>
      </trkpt>
      <trkpt lat="43.97736" lon="2.32892">
        <ele>434</ele>
        <time>2021-04-18T11:17:42Z</time>
      </trkpt>
      <trkpt lat="43.97735" lon="2.32893">
        <ele>434</ele>
        <time>2021-04-18T11:17:43Z</time>
      </trkpt>
      <trkpt lat="43.97733" lon="2.32895">
        <ele>433</ele>
        <time>2021-04-18T11:17:44Z</time>
      </trkpt>
      <trkpt lat="43.97731" lon="2.32896">
        <ele>432</ele>
        <time>2021-04-18T11:17:45Z</time>
      </trkpt>
      <trkpt lat="43.9773" lon="2.32897">
        <ele>431</ele>
        <time>2021-04-18T11:17:46Z</time>
      </trkpt>
      <trkpt lat="43.97729" lon="2.32899">
        <ele>431</ele>
        <time>2021-04-18T11:17:47Z</time>
      </trkpt>
      <trkpt lat="43.97728" lon="2.32899">
        <ele>432</ele>
        <time>2021-04-18T11:17:48Z</time>
      </trkpt>
      <trkpt lat="43.97726" lon="2.329">
        <ele>432</ele>
        <time>2021-04-18T11:17:49Z</time>
      </trkpt>
      <trkpt lat="43.97725" lon="2.32901">
        <ele>431</ele>
        <time>2021-04-18T11:17:50Z</time>
      </trkpt>
      <trkpt lat="43.97723" lon="2.32902">
        <ele>432</ele>
        <time>2021-04-18T11:17:51Z</time>
      </trkpt>
      <trkpt lat="43.97722" lon="2.32903">
        <ele>432</ele>
        <time>2021-04-18T11:17:52Z</time>
      </trkpt>
      <trkpt lat="43.97721" lon="2.32904">
        <ele>433</ele>
        <time>2021-04-18T11:17:53Z</time>
      </trkpt>
      <trkpt lat="43.9772" lon="2.32904">
        <ele>433</ele>
        <time>2021-04-18T11:17:54Z</time>
      </trkpt>
      <trkpt lat="43.97718" lon="2.32905">
        <ele>433</ele>
        <time>2021-04-18T11:17:55Z</time>
      </trkpt>
      <trkpt lat="43.97716" lon="2.32906">
        <ele>432</ele>
        <time>2021-04-18T11:17:56Z</time>
      </trkpt>
      <trkpt lat="43.97714" lon="2.32906">
        <ele>433</ele>
        <time>2021-04-18T11:17:57Z</time>
      </trkpt>
      <trkpt lat="43.97713" lon="2.32907">
        <ele>432</ele>
        <time>2021-04-18T11:17:58Z</time>
      </trkpt>
      <trkpt lat="43.97712" lon="2.32908">
        <ele>432</ele>
        <time>2021-04-18T11:17:59Z</time>
      </trkpt>
      <trkpt lat="43.97711" lon="2.32909">
        <ele>433</ele>
        <time>2021-04-18T11:18:00Z</time>
      </trkpt>
      <trkpt lat="43.97709" lon="2.3291">
        <ele>433</ele>
        <time>2021-04-18T11:18:01Z</time>
      </trkpt>
      <trkpt lat="43.97709" lon="2.32911">
        <ele>433</ele>
        <time>2021-04-18T11:18:02Z</time>
      </trkpt>
      <trkpt lat="43.97707" lon="2.32912">
        <ele>433</ele>
        <time>2021-04-18T11:18:03Z</time>
      </trkpt>
      <trkpt lat="43.97706" lon="2.32914">
        <ele>434</ele>
        <time>2021-04-18T11:18:04Z</time>
      </trkpt>
      <trkpt lat="43.97705" lon="2.32915">
        <ele>434</ele>
        <time>2021-04-18T11:18:05Z</time>
      </trkpt>
      <trkpt lat="43.97703" lon="2.32915">
        <ele>433</ele>
        <time>2021-04-18T11:18:06Z</time>
      </trkpt>
      <trkpt lat="43.97702" lon="2.32916">
        <ele>434</ele>
        <time>2021-04-18T11:18:07Z</time>
      </trkpt>
      <trkpt lat="43.977" lon="2.32916">
        <ele>434</ele>
        <time>2021-04-18T11:18:08Z</time>
      </trkpt>
      <trkpt lat="43.97699" lon="2.32917">
        <ele>433</ele>
        <time>2021-04-18T11:18:09Z</time>
      </trkpt>
      <trkpt lat="43.97697" lon="2.32918">
        <ele>433</ele>
        <time>2021-04-18T11:18:10Z</time>
      </trkpt>
      <trkpt lat="43.97696" lon="2.32919">
        <ele>434</ele>
        <time>2021-04-18T11:18:11Z</time>
      </trkpt>
      <trkpt lat="43.97694" lon="2.3292">
        <ele>433</ele>
        <time>2021-04-18T11:18:12Z</time>
      </trkpt>
      <trkpt lat="43.97693" lon="2.32921">
        <ele>433</ele>
        <time>2021-04-18T11:18:13Z</time>
      </trkpt>
      <trkpt lat="43.97691" lon="2.32922">
        <ele>433</ele>
        <time>2021-04-18T11:18:14Z</time>
      </trkpt>
      <trkpt lat="43.9769" lon="2.32922">
        <ele>433</ele>
        <time>2021-04-18T11:18:15Z</time>
      </trkpt>
      <trkpt lat="43.97689" lon="2.32923">
        <ele>433</ele>
        <time>2021-04-18T11:18:16Z</time>
      </trkpt>
      <trkpt lat="43.97688" lon="2.32923">
        <ele>433</ele>
        <time>2021-04-18T11:18:17Z</time>
      </trkpt>
      <trkpt lat="43.97686" lon="2.32923">
        <ele>433</ele>
        <time>2021-04-18T11:18:18Z</time>
      </trkpt>
      <trkpt lat="43.97686" lon="2.32924">
        <ele>433</ele>
        <time>2021-04-18T11:18:19Z</time>
      </trkpt>
      <trkpt lat="43.97685" lon="2.32925">
        <ele>433</ele>
        <time>2021-04-18T11:18:20Z</time>
      </trkpt>
      <trkpt lat="43.97683" lon="2.32925">
        <ele>433</ele>
        <time>2021-04-18T11:18:21Z</time>
      </trkpt>
      <trkpt lat="43.97682" lon="2.32926">
        <ele>433</ele>
        <time>2021-04-18T11:18:22Z</time>
      </trkpt>
      <trkpt lat="43.9768" lon="2.32927">
        <ele>433</ele>
        <time>2021-04-18T11:18:23Z</time>
      </trkpt>
      <trkpt lat="43.97679" lon="2.32927">
        <ele>433</ele>
        <time>2021-04-18T11:18:24Z</time>
      </trkpt>
      <trkpt lat="43.97678" lon="2.32928">
        <ele>434</ele>
        <time>2021-04-18T11:18:25Z</time>
      </trkpt>
      <trkpt lat="43.97676" lon="2.32928">
        <ele>434</ele>
        <time>2021-04-18T11:18:26Z</time>
      </trkpt>
      <trkpt lat="43.97675" lon="2.32928">
        <ele>433</ele>
        <time>2021-04-18T11:18:27Z</time>
      </trkpt>
      <trkpt lat="43.97673" lon="2.32929">
        <ele>433</ele>
        <time>2021-04-18T11:18:28Z</time>
      </trkpt>
      <trkpt lat="43.97671" lon="2.32929">
        <ele>433</ele>
        <time>2021-04-18T11:18:29Z</time>
      </trkpt>
      <trkpt lat="43.97669" lon="2.3293">
        <ele>433</ele>
        <time>2021-04-18T11:18:30Z</time>
      </trkpt>
      <trkpt lat="43.97668" lon="2.3293">
        <ele>433</ele>
        <time>2021-04-18T11:18:31Z</time>
      </trkpt>
      <trkpt lat="43.97667" lon="2.3293">
        <ele>432</ele>
        <time>2021-04-18T11:18:32Z</time>
      </trkpt>
      <trkpt lat="43.97665" lon="2.32931">
        <ele>432</ele>
        <time>2021-04-18T11:18:33Z</time>
      </trkpt>
      <trkpt lat="43.97663" lon="2.32932">
        <ele>432</ele>
        <time>2021-04-18T11:18:34Z</time>
      </trkpt>
      <trkpt lat="43.97662" lon="2.32932">
        <ele>432</ele>
        <time>2021-04-18T11:18:35Z</time>
      </trkpt>
      <trkpt lat="43.9766" lon="2.32933">
        <ele>432</ele>
        <time>2021-04-18T11:18:36Z</time>
      </trkpt>
      <trkpt lat="43.97659" lon="2.32934">
        <ele>431</ele>
        <time>2021-04-18T11:18:37Z</time>
      </trkpt>
      <trkpt lat="43.97657" lon="2.32934">
        <ele>432</ele>
        <time>2021-04-18T11:18:38Z</time>
      </trkpt>
      <trkpt lat="43.97656" lon="2.32935">
        <ele>432</ele>
        <time>2021-04-18T11:18:39Z</time>
      </trkpt>
      <trkpt lat="43.97654" lon="2.32935">
        <ele>432</ele>
        <time>2021-04-18T11:18:40Z</time>
      </trkpt>
      <trkpt lat="43.97653" lon="2.32936">
        <ele>432</ele>
        <time>2021-04-18T11:18:41Z</time>
      </trkpt>
      <trkpt lat="43.97651" lon="2.32937">
        <ele>434</ele>
        <time>2021-04-18T11:18:42Z</time>
      </trkpt>
      <trkpt lat="43.97651" lon="2.32938">
        <ele>433</ele>
        <time>2021-04-18T11:18:43Z</time>
      </trkpt>
      <trkpt lat="43.97649" lon="2.32938">
        <ele>434</ele>
        <time>2021-04-18T11:18:44Z</time>
      </trkpt>
      <trkpt lat="43.97648" lon="2.32938">
        <ele>433</ele>
        <time>2021-04-18T11:18:45Z</time>
      </trkpt>
      <trkpt lat="43.97646" lon="2.32939">
        <ele>433</ele>
        <time>2021-04-18T11:18:46Z</time>
      </trkpt>
      <trkpt lat="43.97645" lon="2.32939">
        <ele>434</ele>
        <time>2021-04-18T11:18:47Z</time>
      </trkpt>
      <trkpt lat="43.97644" lon="2.32939">
        <ele>434</ele>
        <time>2021-04-18T11:18:48Z</time>
      </trkpt>
      <trkpt lat="43.97643" lon="2.3294">
        <ele>434</ele>
        <time>2021-04-18T11:18:49Z</time>
      </trkpt>
      <trkpt lat="43.97642" lon="2.32941">
        <ele>433</ele>
        <time>2021-04-18T11:18:50Z</time>
      </trkpt>
      <trkpt lat="43.9764" lon="2.32941">
        <ele>433</ele>
        <time>2021-04-18T11:18:51Z</time>
      </trkpt>
      <trkpt lat="43.97639" lon="2.32942">
        <ele>433</ele>
        <time>2021-04-18T11:18:52Z</time>
      </trkpt>
      <trkpt lat="43.97637" lon="2.32943">
        <ele>433</ele>
        <time>2021-04-18T11:18:53Z</time>
      </trkpt>
      <trkpt lat="43.97635" lon="2.32943">
        <ele>433</ele>
        <time>2021-04-18T11:18:54Z</time>
      </trkpt>
      <trkpt lat="43.97634" lon="2.32944">
        <ele>434</ele>
        <time>2021-04-18T11:18:55Z</time>
      </trkpt>
      <trkpt lat="43.97632" lon="2.32945">
        <ele>434</ele>
        <time>2021-04-18T11:18:56Z</time>
      </trkpt>
      <trkpt lat="43.97631" lon="2.32945">
        <ele>434</ele>
        <time>2021-04-18T11:18:57Z</time>
      </trkpt>
      <trkpt lat="43.9763" lon="2.32946">
        <ele>435</ele>
        <time>2021-04-18T11:18:58Z</time>
      </trkpt>
      <trkpt lat="43.97628" lon="2.32947">
        <ele>435</ele>
        <time>2021-04-18T11:18:59Z</time>
      </trkpt>
      <trkpt lat="43.97627" lon="2.32948">
        <ele>435</ele>
        <time>2021-04-18T11:19:00Z</time>
      </trkpt>
      <trkpt lat="43.97625" lon="2.32948">
        <ele>435</ele>
        <time>2021-04-18T11:19:01Z</time>
      </trkpt>
      <trkpt lat="43.97623" lon="2.32949">
        <ele>436</ele>
        <time>2021-04-18T11:19:02Z</time>
      </trkpt>
      <trkpt lat="43.97621" lon="2.32949">
        <ele>435</ele>
        <time>2021-04-18T11:19:03Z</time>
      </trkpt>
      <trkpt lat="43.9762" lon="2.3295">
        <ele>435</ele>
        <time>2021-04-18T11:19:04Z</time>
      </trkpt>
      <trkpt lat="43.97619" lon="2.32951">
        <ele>435</ele>
        <time>2021-04-18T11:19:05Z</time>
      </trkpt>
      <trkpt lat="43.97617" lon="2.32952">
        <ele>435</ele>
        <time>2021-04-18T11:19:06Z</time>
      </trkpt>
      <trkpt lat="43.97616" lon="2.32952">
        <ele>435</ele>
        <time>2021-04-18T11:19:07Z</time>
      </trkpt>
      <trkpt lat="43.97614" lon="2.32952">
        <ele>434</ele>
        <time>2021-04-18T11:19:08Z</time>
      </trkpt>
      <trkpt lat="43.97613" lon="2.32953">
        <ele>435</ele>
        <time>2021-04-18T11:19:09Z</time>
      </trkpt>
      <trkpt lat="43.97612" lon="2.32953">
        <ele>435</ele>
        <time>2021-04-18T11:19:10Z</time>
      </trkpt>
      <trkpt lat="43.97612" lon="2.32954">
        <ele>436</ele>
        <time>2021-04-18T11:19:11Z</time>
      </trkpt>
      <trkpt lat="43.9761" lon="2.32955">
        <ele>436</ele>
        <time>2021-04-18T11:19:12Z</time>
      </trkpt>
      <trkpt lat="43.97609" lon="2.32955">
        <ele>436</ele>
        <time>2021-04-18T11:19:13Z</time>
      </trkpt>
      <trkpt lat="43.97608" lon="2.32956">
        <ele>435</ele>
        <time>2021-04-18T11:19:14Z</time>
      </trkpt>
      <trkpt lat="43.97607" lon="2.32957">
        <ele>435</ele>
        <time>2021-04-18T11:19:15Z</time>
      </trkpt>
      <trkpt lat="43.97606" lon="2.32958">
        <ele>435</ele>
        <time>2021-04-18T11:19:16Z</time>
      </trkpt>
      <trkpt lat="43.97605" lon="2.32959">
        <ele>434</ele>
        <time>2021-04-18T11:19:17Z</time>
      </trkpt>
      <trkpt lat="43.97604" lon="2.32959">
        <ele>433</ele>
        <time>2021-04-18T11:19:18Z</time>
      </trkpt>
      <trkpt lat="43.97603" lon="2.3296">
        <ele>434</ele>
        <time>2021-04-18T11:19:19Z</time>
      </trkpt>
      <trkpt lat="43.97602" lon="2.3296">
        <ele>433</ele>
        <time>2021-04-18T11:19:20Z</time>
      </trkpt>
      <trkpt lat="43.976" lon="2.32961">
        <ele>434</ele>
        <time>2021-04-18T11:19:21Z</time>
      </trkpt>
      <trkpt lat="43.97598" lon="2.32962">
        <ele>434</ele>
        <time>2021-04-18T11:19:22Z</time>
      </trkpt>
      <trkpt lat="43.97597" lon="2.32963">
        <ele>435</ele>
        <time>2021-04-18T11:19:23Z</time>
      </trkpt>
      <trkpt lat="43.97595" lon="2.32963">
        <ele>435</ele>
        <time>2021-04-18T11:19:24Z</time>
      </trkpt>
      <trkpt lat="43.97594" lon="2.32964">
        <ele>436</ele>
        <time>2021-04-18T11:19:25Z</time>
      </trkpt>
      <trkpt lat="43.97593" lon="2.32964">
        <ele>436</ele>
        <time>2021-04-18T11:19:26Z</time>
      </trkpt>
      <trkpt lat="43.97591" lon="2.32964">
        <ele>436</ele>
        <time>2021-04-18T11:19:27Z</time>
      </trkpt>
      <trkpt lat="43.97591" lon="2.32965">
        <ele>435</ele>
        <time>2021-04-18T11:19:28Z</time>
      </trkpt>
      <trkpt lat="43.9759" lon="2.32965">
        <ele>436</ele>
        <time>2021-04-18T11:19:29Z</time>
      </trkpt>
      <trkpt lat="43.97588" lon="2.32965">
        <ele>436</ele>
        <time>2021-04-18T11:19:30Z</time>
      </trkpt>
      <trkpt lat="43.97587" lon="2.32965">
        <ele>436</ele>
        <time>2021-04-18T11:19:31Z</time>
      </trkpt>
      <trkpt lat="43.97585" lon="2.32966">
        <ele>435</ele>
        <time>2021-04-18T11:19:32Z</time>
      </trkpt>
      <trkpt lat="43.97584" lon="2.32966">
        <ele>435</ele>
        <time>2021-04-18T11:19:33Z</time>
      </trkpt>
      <trkpt lat="43.97582" lon="2.32966">
        <ele>435</ele>
        <time>2021-04-18T11:19:34Z</time>
      </trkpt>
      <trkpt lat="43.97581" lon="2.32968">
        <ele>435</ele>
        <time>2021-04-18T11:19:35Z</time>
      </trkpt>
      <trkpt lat="43.97579" lon="2.32968">
        <ele>435</ele>
        <time>2021-04-18T11:19:36Z</time>
      </trkpt>
      <trkpt lat="43.97578" lon="2.32969">
        <ele>435</ele>
        <time>2021-04-18T11:19:37Z</time>
      </trkpt>
      <trkpt lat="43.97576" lon="2.3297">
        <ele>435</ele>
        <time>2021-04-18T11:19:38Z</time>
      </trkpt>
      <trkpt lat="43.97575" lon="2.32971">
        <ele>436</ele>
        <time>2021-04-18T11:19:39Z</time>
      </trkpt>
      <trkpt lat="43.97573" lon="2.3297">
        <ele>436</ele>
        <time>2021-04-18T11:19:40Z</time>
      </trkpt>
      <trkpt lat="43.97572" lon="2.32971">
        <ele>436</ele>
        <time>2021-04-18T11:19:41Z</time>
      </trkpt>
      <trkpt lat="43.9757" lon="2.32971">
        <ele>436</ele>
        <time>2021-04-18T11:19:42Z</time>
      </trkpt>
      <trkpt lat="43.97569" lon="2.32971">
        <ele>435</ele>
        <time>2021-04-18T11:19:43Z</time>
      </trkpt>
      <trkpt lat="43.97567" lon="2.32972">
        <ele>436</ele>
        <time>2021-04-18T11:19:44Z</time>
      </trkpt>
      <trkpt lat="43.97566" lon="2.32972">
        <ele>436</ele>
        <time>2021-04-18T11:19:45Z</time>
      </trkpt>
      <trkpt lat="43.97565" lon="2.32972">
        <ele>436</ele>
        <time>2021-04-18T11:19:46Z</time>
      </trkpt>
      <trkpt lat="43.97564" lon="2.32972">
        <ele>436</ele>
        <time>2021-04-18T11:19:47Z</time>
      </trkpt>
      <trkpt lat="43.97562" lon="2.32972">
        <ele>436</ele>
        <time>2021-04-18T11:19:48Z</time>
      </trkpt>
      <trkpt lat="43.9756" lon="2.32972">
        <ele>436</ele>
        <time>2021-04-18T11:19:49Z</time>
      </trkpt>
      <trkpt lat="43.97558" lon="2.32972">
        <ele>437</ele>
        <time>2021-04-18T11:19:50Z</time>
      </trkpt>
      <trkpt lat="43.97556" lon="2.32973">
        <ele>437</ele>
        <time>2021-04-18T11:19:51Z</time>
      </trkpt>
      <trkpt lat="43.97554" lon="2.32973">
        <ele>437</ele>
        <time>2021-04-18T11:19:52Z</time>
      </trkpt>
      <trkpt lat="43.97552" lon="2.32973">
        <ele>438</ele>
        <time>2021-04-18T11:19:53Z</time>
      </trkpt>
      <trkpt lat="43.97551" lon="2.32974">
        <ele>438</ele>
        <time>2021-04-18T11:19:54Z</time>
      </trkpt>
      <trkpt lat="43.97549" lon="2.32975">
        <ele>438</ele>
        <time>2021-04-18T11:19:55Z</time>
      </trkpt>
      <trkpt lat="43.97548" lon="2.32976">
        <ele>439</ele>
        <time>2021-04-18T11:19:56Z</time>
      </trkpt>
      <trkpt lat="43.97546" lon="2.32976">
        <ele>438</ele>
        <time>2021-04-18T11:19:57Z</time>
      </trkpt>
      <trkpt lat="43.97545" lon="2.32978">
        <ele>438</ele>
        <time>2021-04-18T11:19:58Z</time>
      </trkpt>
      <trkpt lat="43.97544" lon="2.32978">
        <ele>438</ele>
        <time>2021-04-18T11:19:59Z</time>
      </trkpt>
      <trkpt lat="43.97543" lon="2.32979">
        <ele>438</ele>
        <time>2021-04-18T11:20:00Z</time>
      </trkpt>
      <trkpt lat="43.97541" lon="2.32979">
        <ele>438</ele>
        <time>2021-04-18T11:20:01Z</time>
      </trkpt>
      <trkpt lat="43.9754" lon="2.3298">
        <ele>439</ele>
        <time>2021-04-18T11:20:02Z</time>
      </trkpt>
      <trkpt lat="43.97538" lon="2.3298">
        <ele>439</ele>
        <time>2021-04-18T11:20:03Z</time>
      </trkpt>
      <trkpt lat="43.97537" lon="2.3298">
        <ele>439</ele>
        <time>2021-04-18T11:20:04Z</time>
      </trkpt>
      <trkpt lat="43.97535" lon="2.3298">
        <ele>439</ele>
        <time>2021-04-18T11:20:05Z</time>
      </trkpt>
      <trkpt lat="43.97533" lon="2.32981">
        <ele>439</ele>
        <time>2021-04-18T11:20:06Z</time>
      </trkpt>
      <trkpt lat="43.97532" lon="2.32982">
        <ele>439</ele>
        <time>2021-04-18T11:20:07Z</time>
      </trkpt>
      <trkpt lat="43.9753" lon="2.32983">
        <ele>439</ele>
        <time>2021-04-18T11:20:08Z</time>
      </trkpt>
      <trkpt lat="43.97529" lon="2.32984">
        <ele>439</ele>
        <time>2021-04-18T11:20:09Z</time>
      </trkpt>
      <trkpt lat="43.97527" lon="2.32985">
        <ele>439</ele>
        <time>2021-04-18T11:20:10Z</time>
      </trkpt>
      <trkpt lat="43.97526" lon="2.32986">
        <ele>438</ele>
        <time>2021-04-18T11:20:11Z</time>
      </trkpt>
      <trkpt lat="43.97525" lon="2.32987">
        <ele>438</ele>
        <time>2021-04-18T11:20:12Z</time>
      </trkpt>
      <trkpt lat="43.97524" lon="2.32987">
        <ele>437</ele>
        <time>2021-04-18T11:20:13Z</time>
      </trkpt>
      <trkpt lat="43.97523" lon="2.32987">
        <ele>437</ele>
        <time>2021-04-18T11:20:14Z</time>
      </trkpt>
      <trkpt lat="43.97521" lon="2.32988">
        <ele>438</ele>
        <time>2021-04-18T11:20:15Z</time>
      </trkpt>
      <trkpt lat="43.9752" lon="2.32989">
        <ele>437</ele>
        <time>2021-04-18T11:20:16Z</time>
      </trkpt>
      <trkpt lat="43.97519" lon="2.3299">
        <ele>437</ele>
        <time>2021-04-18T11:20:17Z</time>
      </trkpt>
      <trkpt lat="43.97517" lon="2.32991">
        <ele>437</ele>
        <time>2021-04-18T11:20:18Z</time>
      </trkpt>
      <trkpt lat="43.97515" lon="2.32991">
        <ele>437</ele>
        <time>2021-04-18T11:20:19Z</time>
      </trkpt>
      <trkpt lat="43.97514" lon="2.32992">
        <ele>438</ele>
        <time>2021-04-18T11:20:20Z</time>
      </trkpt>
      <trkpt lat="43.97513" lon="2.32992">
        <ele>437</ele>
        <time>2021-04-18T11:20:21Z</time>
      </trkpt>
      <trkpt lat="43.97512" lon="2.32994">
        <ele>438</ele>
        <time>2021-04-18T11:20:22Z</time>
      </trkpt>
      <trkpt lat="43.97511" lon="2.32994">
        <ele>437</ele>
        <time>2021-04-18T11:20:23Z</time>
      </trkpt>
      <trkpt lat="43.97509" lon="2.32995">
        <ele>437</ele>
        <time>2021-04-18T11:20:24Z</time>
      </trkpt>
      <trkpt lat="43.97508" lon="2.32996">
        <ele>437</ele>
        <time>2021-04-18T11:20:25Z</time>
      </trkpt>
      <trkpt lat="43.97507" lon="2.32997">
        <ele>436</ele>
        <time>2021-04-18T11:20:26Z</time>
      </trkpt>
      <trkpt lat="43.97506" lon="2.32997">
        <ele>436</ele>
        <time>2021-04-18T11:20:27Z</time>
      </trkpt>
      <trkpt lat="43.97505" lon="2.32998">
        <ele>435</ele>
        <time>2021-04-18T11:20:28Z</time>
      </trkpt>
      <trkpt lat="43.97503" lon="2.32999">
        <ele>435</ele>
        <time>2021-04-18T11:20:29Z</time>
      </trkpt>
      <trkpt lat="43.97501" lon="2.33">
        <ele>435</ele>
        <time>2021-04-18T11:20:30Z</time>
      </trkpt>
      <trkpt lat="43.97499" lon="2.33">
        <ele>435</ele>
        <time>2021-04-18T11:20:31Z</time>
      </trkpt>
      <trkpt lat="43.97497" lon="2.33001">
        <ele>435</ele>
        <time>2021-04-18T11:20:32Z</time>
      </trkpt>
      <trkpt lat="43.97495" lon="2.33002">
        <ele>436</ele>
        <time>2021-04-18T11:20:33Z</time>
      </trkpt>
      <trkpt lat="43.97493" lon="2.33002">
        <ele>436</ele>
        <time>2021-04-18T11:20:34Z</time>
      </trkpt>
      <trkpt lat="43.97492" lon="2.33003">
        <ele>436</ele>
        <time>2021-04-18T11:20:35Z</time>
      </trkpt>
      <trkpt lat="43.9749" lon="2.33004">
        <ele>436</ele>
        <time>2021-04-18T11:20:36Z</time>
      </trkpt>
      <trkpt lat="43.97488" lon="2.33005">
        <ele>436</ele>
        <time>2021-04-18T11:20:37Z</time>
      </trkpt>
      <trkpt lat="43.97487" lon="2.33006">
        <ele>436</ele>
        <time>2021-04-18T11:20:38Z</time>
      </trkpt>
      <trkpt lat="43.97485" lon="2.33006">
        <ele>437</ele>
        <time>2021-04-18T11:20:39Z</time>
      </trkpt>
      <trkpt lat="43.97483" lon="2.33006">
        <ele>437</ele>
        <time>2021-04-18T11:20:40Z</time>
      </trkpt>
      <trkpt lat="43.97482" lon="2.33007">
        <ele>436</ele>
        <time>2021-04-18T11:20:41Z</time>
      </trkpt>
      <trkpt lat="43.97481" lon="2.33008">
        <ele>436</ele>
        <time>2021-04-18T11:20:42Z</time>
      </trkpt>
      <trkpt lat="43.9748" lon="2.33009">
        <ele>435</ele>
        <time>2021-04-18T11:20:43Z</time>
      </trkpt>
      <trkpt lat="43.97479" lon="2.3301">
        <ele>435</ele>
        <time>2021-04-18T11:20:44Z</time>
      </trkpt>
      <trkpt lat="43.97476" lon="2.33011">
        <ele>435</ele>
        <time>2021-04-18T11:20:45Z</time>
      </trkpt>
      <trkpt lat="43.97475" lon="2.33012">
        <ele>435</ele>
        <time>2021-04-18T11:20:46Z</time>
      </trkpt>
      <trkpt lat="43.97474" lon="2.33013">
        <ele>435</ele>
        <time>2021-04-18T11:20:47Z</time>
      </trkpt>
      <trkpt lat="43.97472" lon="2.33013">
        <ele>435</ele>
        <time>2021-04-18T11:20:48Z</time>
      </trkpt>
      <trkpt lat="43.9747" lon="2.33014">
        <ele>435</ele>
        <time>2021-04-18T11:20:49Z</time>
      </trkpt>
      <trkpt lat="43.97469" lon="2.33015">
        <ele>435</ele>
        <time>2021-04-18T11:20:50Z</time>
      </trkpt>
      <trkpt lat="43.97467" lon="2.33015">
        <ele>435</ele>
        <time>2021-04-18T11:20:51Z</time>
      </trkpt>
      <trkpt lat="43.97465" lon="2.33016">
        <ele>434</ele>
        <time>2021-04-18T11:20:52Z</time>
      </trkpt>
      <trkpt lat="43.97463" lon="2.33018">
        <ele>434</ele>
        <time>2021-04-18T11:20:53Z</time>
      </trkpt>
      <trkpt lat="43.97461" lon="2.33018">
        <ele>434</ele>
        <time>2021-04-18T11:20:54Z</time>
      </trkpt>
      <trkpt lat="43.97459" lon="2.3302">
        <ele>434</ele>
        <time>2021-04-18T11:20:55Z</time>
      </trkpt>
      <trkpt lat="43.97457" lon="2.3302">
        <ele>434</ele>
        <time>2021-04-18T11:20:56Z</time>
      </trkpt>
      <trkpt lat="43.97455" lon="2.33021">
        <ele>434</ele>
        <time>2021-04-18T11:20:57Z</time>
      </trkpt>
      <trkpt lat="43.97453" lon="2.33022">
        <ele>434</ele>
        <time>2021-04-18T11:20:58Z</time>
      </trkpt>
      <trkpt lat="43.97451" lon="2.33023">
        <ele>434</ele>
        <time>2021-04-18T11:20:59Z</time>
      </trkpt>
      <trkpt lat="43.9745" lon="2.33023">
        <ele>434</ele>
        <time>2021-04-18T11:21:00Z</time>
      </trkpt>
      <trkpt lat="43.97448" lon="2.33024">
        <ele>434</ele>
        <time>2021-04-18T11:21:01Z</time>
      </trkpt>
      <trkpt lat="43.97447" lon="2.33025">
        <ele>433</ele>
        <time>2021-04-18T11:21:02Z</time>
      </trkpt>
      <trkpt lat="43.97445" lon="2.33025">
        <ele>433</ele>
        <time>2021-04-18T11:21:03Z</time>
      </trkpt>
      <trkpt lat="43.97444" lon="2.33026">
        <ele>433</ele>
        <time>2021-04-18T11:21:04Z</time>
      </trkpt>
      <trkpt lat="43.97442" lon="2.33026">
        <ele>432</ele>
        <time>2021-04-18T11:21:05Z</time>
      </trkpt>
      <trkpt lat="43.97441" lon="2.33027">
        <ele>432</ele>
        <time>2021-04-18T11:21:06Z</time>
      </trkpt>
      <trkpt lat="43.9744" lon="2.33027">
        <ele>433</ele>
        <time>2021-04-18T11:21:07Z</time>
      </trkpt>
      <trkpt lat="43.97438" lon="2.33027">
        <ele>433</ele>
        <time>2021-04-18T11:21:08Z</time>
      </trkpt>
      <trkpt lat="43.97437" lon="2.33027">
        <ele>433</ele>
        <time>2021-04-18T11:21:09Z</time>
      </trkpt>
      <trkpt lat="43.97435" lon="2.33028">
        <ele>433</ele>
        <time>2021-04-18T11:21:10Z</time>
      </trkpt>
      <trkpt lat="43.97434" lon="2.33029">
        <ele>433</ele>
        <time>2021-04-18T11:21:11Z</time>
      </trkpt>
      <trkpt lat="43.97432" lon="2.33029">
        <ele>432</ele>
        <time>2021-04-18T11:21:12Z</time>
      </trkpt>
      <trkpt lat="43.97431" lon="2.33029">
        <ele>431</ele>
        <time>2021-04-18T11:21:13Z</time>
      </trkpt>
      <trkpt lat="43.9743" lon="2.3303">
        <ele>432</ele>
        <time>2021-04-18T11:21:14Z</time>
      </trkpt>
      <trkpt lat="43.97428" lon="2.3303">
        <ele>432</ele>
        <time>2021-04-18T11:21:15Z</time>
      </trkpt>
      <trkpt lat="43.97427" lon="2.3303">
        <ele>431</ele>
        <time>2021-04-18T11:21:16Z</time>
      </trkpt>
      <trkpt lat="43.97426" lon="2.3303">
        <ele>431</ele>
        <time>2021-04-18T11:21:17Z</time>
      </trkpt>
      <trkpt lat="43.97424" lon="2.3303">
        <ele>430</ele>
        <time>2021-04-18T11:21:18Z</time>
      </trkpt>
      <trkpt lat="43.97423" lon="2.33031">
        <ele>430</ele>
        <time>2021-04-18T11:21:19Z</time>
      </trkpt>
      <trkpt lat="43.97421" lon="2.33032">
        <ele>430</ele>
        <time>2021-04-18T11:21:20Z</time>
      </trkpt>
      <trkpt lat="43.9742" lon="2.33032">
        <ele>430</ele>
        <time>2021-04-18T11:21:21Z</time>
      </trkpt>
      <trkpt lat="43.97418" lon="2.33032">
        <ele>430</ele>
        <time>2021-04-18T11:21:22Z</time>
      </trkpt>
      <trkpt lat="43.97416" lon="2.33032">
        <ele>431</ele>
        <time>2021-04-18T11:21:23Z</time>
      </trkpt>
      <trkpt lat="43.97414" lon="2.33032">
        <ele>431</ele>
        <time>2021-04-18T11:21:24Z</time>
      </trkpt>
      <trkpt lat="43.97414" lon="2.33032">
        <ele>431</ele>
        <time>2021-04-18T11:21:24Z</time>
      </trkpt>
      <trkpt lat="43.97409" lon="2.33034">
        <ele>431</ele>
        <time>2021-04-18T11:21:26Z</time>
      </trkpt>
      <trkpt lat="43.97408" lon="2.33034">
        <ele>431</ele>
        <time>2021-04-18T11:21:27Z</time>
      </trkpt>
      <trkpt lat="43.97406" lon="2.33035">
        <ele>431</ele>
        <time>2021-04-18T11:21:28Z</time>
      </trkpt>
      <trkpt lat="43.97404" lon="2.33035">
        <ele>431</ele>
        <time>2021-04-18T11:21:29Z</time>
      </trkpt>
      <trkpt lat="43.97402" lon="2.33035">
        <ele>431</ele>
        <time>2021-04-18T11:21:30Z</time>
      </trkpt>
      <trkpt lat="43.97401" lon="2.33035">
        <ele>432</ele>
        <time>2021-04-18T11:21:31Z</time>
      </trkpt>
      <trkpt lat="43.974" lon="2.33035">
        <ele>433</ele>
        <time>2021-04-18T11:21:32Z</time>
      </trkpt>
      <trkpt lat="43.97398" lon="2.33034">
        <ele>433</ele>
        <time>2021-04-18T11:21:33Z</time>
      </trkpt>
      <trkpt lat="43.97397" lon="2.33034">
        <ele>432</ele>
        <time>2021-04-18T11:21:34Z</time>
      </trkpt>
      <trkpt lat="43.97396" lon="2.33035">
        <ele>432</ele>
        <time>2021-04-18T11:21:35Z</time>
      </trkpt>
      <trkpt lat="43.97394" lon="2.33035">
        <ele>433</ele>
        <time>2021-04-18T11:21:36Z</time>
      </trkpt>
      <trkpt lat="43.97393" lon="2.33036">
        <ele>433</ele>
        <time>2021-04-18T11:21:37Z</time>
      </trkpt>
      <trkpt lat="43.97392" lon="2.33037">
        <ele>432</ele>
        <time>2021-04-18T11:21:38Z</time>
      </trkpt>
      <trkpt lat="43.9739" lon="2.33039">
        <ele>432</ele>
        <time>2021-04-18T11:21:39Z</time>
      </trkpt>
      <trkpt lat="43.97389" lon="2.3304">
        <ele>432</ele>
        <time>2021-04-18T11:21:40Z</time>
      </trkpt>
      <trkpt lat="43.97387" lon="2.33041">
        <ele>431</ele>
        <time>2021-04-18T11:21:41Z</time>
      </trkpt>
      <trkpt lat="43.97386" lon="2.33042">
        <ele>431</ele>
        <time>2021-04-18T11:21:42Z</time>
      </trkpt>
      <trkpt lat="43.97386" lon="2.33042">
        <ele>431</ele>
        <time>2021-04-18T11:21:42Z</time>
      </trkpt>
      <trkpt lat="43.97383" lon="2.33044">
        <ele>431</ele>
        <time>2021-04-18T11:21:44Z</time>
      </trkpt>
      <trkpt lat="43.97381" lon="2.33045">
        <ele>431</ele>
        <time>2021-04-18T11:21:45Z</time>
      </trkpt>
      <trkpt lat="43.9738" lon="2.33046">
        <ele>431</ele>
        <time>2021-04-18T11:21:46Z</time>
      </trkpt>
      <trkpt lat="43.97379" lon="2.33047">
        <ele>431</ele>
        <time>2021-04-18T11:21:47Z</time>
      </trkpt>
      <trkpt lat="43.97377" lon="2.33048">
        <ele>431</ele>
        <time>2021-04-18T11:21:48Z</time>
      </trkpt>
      <trkpt lat="43.97376" lon="2.33049">
        <ele>432</ele>
        <time>2021-04-18T11:21:49Z</time>
      </trkpt>
      <trkpt lat="43.97374" lon="2.33051">
        <ele>432</ele>
        <time>2021-04-18T11:21:50Z</time>
      </trkpt>
      <trkpt lat="43.97373" lon="2.33052">
        <ele>432</ele>
        <time>2021-04-18T11:21:51Z</time>
      </trkpt>
      <trkpt lat="43.97372" lon="2.33053">
        <ele>432</ele>
        <time>2021-04-18T11:21:52Z</time>
      </trkpt>
      <trkpt lat="43.97371" lon="2.33055">
        <ele>431</ele>
        <time>2021-04-18T11:21:53Z</time>
      </trkpt>
      <trkpt lat="43.97369" lon="2.33055">
        <ele>432</ele>
        <time>2021-04-18T11:21:54Z</time>
      </trkpt>
      <trkpt lat="43.97369" lon="2.33055">
        <ele>432</ele>
        <time>2021-04-18T11:21:54Z</time>
      </trkpt>
      <trkpt lat="43.97367" lon="2.33057">
        <ele>431</ele>
        <time>2021-04-18T11:21:56Z</time>
      </trkpt>
      <trkpt lat="43.97366" lon="2.33058">
        <ele>431</ele>
        <time>2021-04-18T11:21:57Z</time>
      </trkpt>
      <trkpt lat="43.97364" lon="2.33059">
        <ele>431</ele>
        <time>2021-04-18T11:21:58Z</time>
      </trkpt>
      <trkpt lat="43.97363" lon="2.3306">
        <ele>432</ele>
        <time>2021-04-18T11:21:59Z</time>
      </trkpt>
      <trkpt lat="43.97361" lon="2.33061">
        <ele>433</ele>
        <time>2021-04-18T11:22:00Z</time>
      </trkpt>
      <trkpt lat="43.9736" lon="2.33062">
        <ele>433</ele>
        <time>2021-04-18T11:22:01Z</time>
      </trkpt>
      <trkpt lat="43.97358" lon="2.33062">
        <ele>433</ele>
        <time>2021-04-18T11:22:02Z</time>
      </trkpt>
      <trkpt lat="43.97357" lon="2.33062">
        <ele>433</ele>
        <time>2021-04-18T11:22:03Z</time>
      </trkpt>
      <trkpt lat="43.97356" lon="2.33063">
        <ele>434</ele>
        <time>2021-04-18T11:22:04Z</time>
      </trkpt>
      <trkpt lat="43.97355" lon="2.33063">
        <ele>434</ele>
        <time>2021-04-18T11:22:05Z</time>
      </trkpt>
      <trkpt lat="43.97353" lon="2.33064">
        <ele>434</ele>
        <time>2021-04-18T11:22:06Z</time>
      </trkpt>
      <trkpt lat="43.97352" lon="2.33064">
        <ele>435</ele>
        <time>2021-04-18T11:22:07Z</time>
      </trkpt>
      <trkpt lat="43.9735" lon="2.33065">
        <ele>435</ele>
        <time>2021-04-18T11:22:08Z</time>
      </trkpt>
      <trkpt lat="43.97349" lon="2.33066">
        <ele>436</ele>
        <time>2021-04-18T11:22:09Z</time>
      </trkpt>
      <trkpt lat="43.97347" lon="2.33066">
        <ele>436</ele>
        <time>2021-04-18T11:22:10Z</time>
      </trkpt>
      <trkpt lat="43.97346" lon="2.33068">
        <ele>435</ele>
        <time>2021-04-18T11:22:11Z</time>
      </trkpt>
      <trkpt lat="43.97345" lon="2.33069">
        <ele>435</ele>
        <time>2021-04-18T11:22:12Z</time>
      </trkpt>
      <trkpt lat="43.97343" lon="2.33069">
        <ele>435</ele>
        <time>2021-04-18T11:22:13Z</time>
      </trkpt>
      <trkpt lat="43.97343" lon="2.33069">
        <ele>435</ele>
        <time>2021-04-18T11:22:13Z</time>
      </trkpt>
      <trkpt lat="43.9734" lon="2.33071">
        <ele>434</ele>
        <time>2021-04-18T11:22:15Z</time>
      </trkpt>
      <trkpt lat="43.97338" lon="2.33072">
        <ele>434</ele>
        <time>2021-04-18T11:22:16Z</time>
      </trkpt>
      <trkpt lat="43.97336" lon="2.33072">
        <ele>434</ele>
        <time>2021-04-18T11:22:17Z</time>
      </trkpt>
      <trkpt lat="43.97334" lon="2.33073">
        <ele>435</ele>
        <time>2021-04-18T11:22:18Z</time>
      </trkpt>
      <trkpt lat="43.97333" lon="2.33074">
        <ele>435</ele>
        <time>2021-04-18T11:22:19Z</time>
      </trkpt>
      <trkpt lat="43.97333" lon="2.33074">
        <ele>435</ele>
        <time>2021-04-18T11:22:19Z</time>
      </trkpt>
      <trkpt lat="43.97332" lon="2.33075">
        <ele>434</ele>
        <time>2021-04-18T11:22:20Z</time>
      </trkpt>
      <trkpt lat="43.97331" lon="2.33077">
        <ele>434</ele>
        <time>2021-04-18T11:22:21Z</time>
      </trkpt>
      <trkpt lat="43.9733" lon="2.33078">
        <ele>434</ele>
        <time>2021-04-18T11:22:22Z</time>
      </trkpt>
      <trkpt lat="43.97329" lon="2.33079">
        <ele>434</ele>
        <time>2021-04-18T11:22:23Z</time>
      </trkpt>
      <trkpt lat="43.97326" lon="2.33081">
        <ele>433</ele>
        <time>2021-04-18T11:22:25Z</time>
      </trkpt>
      <trkpt lat="43.97325" lon="2.33082">
        <ele>432</ele>
        <time>2021-04-18T11:22:26Z</time>
      </trkpt>
      <trkpt lat="43.97325" lon="2.33082">
        <ele>432</ele>
        <time>2021-04-18T11:22:26Z</time>
      </trkpt>
      <trkpt lat="43.97324" lon="2.33082">
        <ele>433</ele>
        <time>2021-04-18T11:22:27Z</time>
      </trkpt>
      <trkpt lat="43.97323" lon="2.33082">
        <ele>433</ele>
        <time>2021-04-18T11:22:28Z</time>
      </trkpt>
      <trkpt lat="43.97321" lon="2.33083">
        <ele>433</ele>
        <time>2021-04-18T11:22:29Z</time>
      </trkpt>
      <trkpt lat="43.97319" lon="2.33083">
        <ele>434</ele>
        <time>2021-04-18T11:22:30Z</time>
      </trkpt>
      <trkpt lat="43.97318" lon="2.33084">
        <ele>434</ele>
        <time>2021-04-18T11:22:31Z</time>
      </trkpt>
      <trkpt lat="43.97316" lon="2.33084">
        <ele>434</ele>
        <time>2021-04-18T11:22:32Z</time>
      </trkpt>
      <trkpt lat="43.97314" lon="2.33085">
        <ele>435</ele>
        <time>2021-04-18T11:22:33Z</time>
      </trkpt>
      <trkpt lat="43.97313" lon="2.33086">
        <ele>434</ele>
        <time>2021-04-18T11:22:34Z</time>
      </trkpt>
      <trkpt lat="43.97313" lon="2.33087">
        <ele>434</ele>
        <time>2021-04-18T11:22:35Z</time>
      </trkpt>
      <trkpt lat="43.97312" lon="2.33087">
        <ele>434</ele>
        <time>2021-04-18T11:22:36Z</time>
      </trkpt>
      <trkpt lat="43.97312" lon="2.33087">
        <ele>433</ele>
        <time>2021-04-18T11:22:37Z</time>
      </trkpt>
      <trkpt lat="43.97311" lon="2.33088">
        <ele>432</ele>
        <time>2021-04-18T11:22:38Z</time>
      </trkpt>
      <trkpt lat="43.9731" lon="2.33089">
        <ele>432</ele>
        <time>2021-04-18T11:22:39Z</time>
      </trkpt>
      <trkpt lat="43.97309" lon="2.3309">
        <ele>432</ele>
        <time>2021-04-18T11:22:40Z</time>
      </trkpt>
      <trkpt lat="43.97307" lon="2.3309">
        <ele>431</ele>
        <time>2021-04-18T11:22:41Z</time>
      </trkpt>
      <trkpt lat="43.97306" lon="2.33091">
        <ele>431</ele>
        <time>2021-04-18T11:22:42Z</time>
      </trkpt>
      <trkpt lat="43.97305" lon="2.33091">
        <ele>432</ele>
        <time>2021-04-18T11:22:43Z</time>
      </trkpt>
      <trkpt lat="43.97303" lon="2.33092">
        <ele>433</ele>
        <time>2021-04-18T11:22:44Z</time>
      </trkpt>
      <trkpt lat="43.97301" lon="2.33093">
        <ele>432</ele>
        <time>2021-04-18T11:22:45Z</time>
      </trkpt>
      <trkpt lat="43.97299" lon="2.33093">
        <ele>432</ele>
        <time>2021-04-18T11:22:46Z</time>
      </trkpt>
      <trkpt lat="43.97297" lon="2.33094">
        <ele>433</ele>
        <time>2021-04-18T11:22:47Z</time>
      </trkpt>
      <trkpt lat="43.97296" lon="2.33095">
        <ele>433</ele>
        <time>2021-04-18T11:22:48Z</time>
      </trkpt>
      <trkpt lat="43.97294" lon="2.33096">
        <ele>434</ele>
        <time>2021-04-18T11:22:49Z</time>
      </trkpt>
      <trkpt lat="43.97293" lon="2.33096">
        <ele>434</ele>
        <time>2021-04-18T11:22:50Z</time>
      </trkpt>
      <trkpt lat="43.97291" lon="2.33096">
        <ele>434</ele>
        <time>2021-04-18T11:22:51Z</time>
      </trkpt>
      <trkpt lat="43.97289" lon="2.33096">
        <ele>435</ele>
        <time>2021-04-18T11:22:52Z</time>
      </trkpt>
      <trkpt lat="43.97286" lon="2.33097">
        <ele>435</ele>
        <time>2021-04-18T11:22:53Z</time>
      </trkpt>
      <trkpt lat="43.97284" lon="2.33098">
        <ele>436</ele>
        <time>2021-04-18T11:22:54Z</time>
      </trkpt>
      <trkpt lat="43.97282" lon="2.33098">
        <ele>436</ele>
        <time>2021-04-18T11:22:55Z</time>
      </trkpt>
      <trkpt lat="43.97281" lon="2.33099">
        <ele>437</ele>
        <time>2021-04-18T11:22:56Z</time>
      </trkpt>
      <trkpt lat="43.97279" lon="2.33099">
        <ele>437</ele>
        <time>2021-04-18T11:22:57Z</time>
      </trkpt>
      <trkpt lat="43.97278" lon="2.331">
        <ele>437</ele>
        <time>2021-04-18T11:22:58Z</time>
      </trkpt>
      <trkpt lat="43.97277" lon="2.33101">
        <ele>437</ele>
        <time>2021-04-18T11:22:59Z</time>
      </trkpt>
      <trkpt lat="43.97275" lon="2.33102">
        <ele>437</ele>
        <time>2021-04-18T11:23:00Z</time>
      </trkpt>
      <trkpt lat="43.97273" lon="2.33103">
        <ele>438</ele>
        <time>2021-04-18T11:23:01Z</time>
      </trkpt>
      <trkpt lat="43.97271" lon="2.33103">
        <ele>439</ele>
        <time>2021-04-18T11:23:02Z</time>
      </trkpt>
      <trkpt lat="43.97269" lon="2.33104">
        <ele>439</ele>
        <time>2021-04-18T11:23:03Z</time>
      </trkpt>
      <trkpt lat="43.97268" lon="2.33104">
        <ele>439</ele>
        <time>2021-04-18T11:23:04Z</time>
      </trkpt>
      <trkpt lat="43.97267" lon="2.33105">
        <ele>439</ele>
        <time>2021-04-18T11:23:05Z</time>
      </trkpt>
      <trkpt lat="43.97266" lon="2.33105">
        <ele>439</ele>
        <time>2021-04-18T11:23:06Z</time>
      </trkpt>
      <trkpt lat="43.97266" lon="2.33105">
        <ele>439</ele>
        <time>2021-04-18T11:23:07Z</time>
      </trkpt>
      <trkpt lat="43.97266" lon="2.33106">
        <ele>439</ele>
        <time>2021-04-18T11:23:08Z</time>
      </trkpt>
      <trkpt lat="43.97266" lon="2.33106">
        <ele>438</ele>
        <time>2021-04-18T11:23:09Z</time>
      </trkpt>
      <trkpt lat="43.97266" lon="2.33107">
        <ele>438</ele>
        <time>2021-04-18T11:23:10Z</time>
      </trkpt>
      <trkpt lat="43.97265" lon="2.33107">
        <ele>438</ele>
        <time>2021-04-18T11:23:11Z</time>
      </trkpt>
      <trkpt lat="43.97263" lon="2.33107">
        <ele>438</ele>
        <time>2021-04-18T11:23:12Z</time>
      </trkpt>
      <trkpt lat="43.97261" lon="2.33107">
        <ele>438</ele>
        <time>2021-04-18T11:23:13Z</time>
      </trkpt>
      <trkpt lat="43.9726" lon="2.33106">
        <ele>438</ele>
        <time>2021-04-18T11:23:14Z</time>
      </trkpt>
      <trkpt lat="43.97258" lon="2.33106">
        <ele>438</ele>
        <time>2021-04-18T11:23:15Z</time>
      </trkpt>
      <trkpt lat="43.97256" lon="2.33107">
        <ele>438</ele>
        <time>2021-04-18T11:23:16Z</time>
      </trkpt>
      <trkpt lat="43.97254" lon="2.33108">
        <ele>438</ele>
        <time>2021-04-18T11:23:17Z</time>
      </trkpt>
      <trkpt lat="43.97253" lon="2.33109">
        <ele>438</ele>
        <time>2021-04-18T11:23:18Z</time>
      </trkpt>
      <trkpt lat="43.97251" lon="2.3311">
        <ele>439</ele>
        <time>2021-04-18T11:23:19Z</time>
      </trkpt>
      <trkpt lat="43.9725" lon="2.33113">
        <ele>439</ele>
        <time>2021-04-18T11:23:20Z</time>
      </trkpt>
      <trkpt lat="43.97248" lon="2.33115">
        <ele>439</ele>
        <time>2021-04-18T11:23:21Z</time>
      </trkpt>
      <trkpt lat="43.97247" lon="2.33118">
        <ele>438</ele>
        <time>2021-04-18T11:23:22Z</time>
      </trkpt>
      <trkpt lat="43.97247" lon="2.3312">
        <ele>437</ele>
        <time>2021-04-18T11:23:23Z</time>
      </trkpt>
      <trkpt lat="43.97246" lon="2.33122">
        <ele>438</ele>
        <time>2021-04-18T11:23:24Z</time>
      </trkpt>
      <trkpt lat="43.97247" lon="2.33123">
        <ele>437</ele>
        <time>2021-04-18T11:23:25Z</time>
      </trkpt>
      <trkpt lat="43.97247" lon="2.33124">
        <ele>437</ele>
        <time>2021-04-18T11:23:26Z</time>
      </trkpt>
      <trkpt lat="43.97248" lon="2.33123">
        <ele>436</ele>
        <time>2021-04-18T11:23:27Z</time>
      </trkpt>
      <trkpt lat="43.97247" lon="2.33123">
        <ele>435</ele>
        <time>2021-04-18T11:23:28Z</time>
      </trkpt>
      <trkpt lat="43.97247" lon="2.33123">
        <ele>435</ele>
        <time>2021-04-18T11:23:29Z</time>
      </trkpt>
      <trkpt lat="43.97246" lon="2.33124">
        <ele>436</ele>
        <time>2021-04-18T11:23:30Z</time>
      </trkpt>
      <trkpt lat="43.97245" lon="2.33125">
        <ele>437</ele>
        <time>2021-04-18T11:23:31Z</time>
      </trkpt>
      <trkpt lat="43.97245" lon="2.33125">
        <ele>437</ele>
        <time>2021-04-18T11:23:31Z</time>
      </trkpt>
      <trkpt lat="43.97245" lon="2.33125">
        <ele>437</ele>
        <time>2021-04-18T11:23:31Z</time>
      </trkpt>
      <trkpt lat="43.97241" lon="2.33123">
        <ele>439</ele>
        <time>2021-04-18T11:23:41Z</time>
      </trkpt>
      <trkpt lat="43.9724" lon="2.33123">
        <ele>439</ele>
        <time>2021-04-18T11:23:42Z</time>
      </trkpt>
      <trkpt lat="43.97238" lon="2.33123">
        <ele>440</ele>
        <time>2021-04-18T11:23:43Z</time>
      </trkpt>
      <trkpt lat="43.97237" lon="2.33123">
        <ele>440</ele>
        <time>2021-04-18T11:23:44Z</time>
      </trkpt>
      <trkpt lat="43.97236" lon="2.33122">
        <ele>440</ele>
        <time>2021-04-18T11:23:45Z</time>
      </trkpt>
      <trkpt lat="43.97235" lon="2.33122">
        <ele>440</ele>
        <time>2021-04-18T11:23:46Z</time>
      </trkpt>
      <trkpt lat="43.97234" lon="2.33123">
        <ele>440</ele>
        <time>2021-04-18T11:23:47Z</time>
      </trkpt>
      <trkpt lat="43.97233" lon="2.33125">
        <ele>440</ele>
        <time>2021-04-18T11:23:48Z</time>
      </trkpt>
      <trkpt lat="43.97232" lon="2.33125">
        <ele>440</ele>
        <time>2021-04-18T11:23:49Z</time>
      </trkpt>
      <trkpt lat="43.97232" lon="2.33125">
        <ele>440</ele>
        <time>2021-04-18T11:23:50Z</time>
      </trkpt>
      <trkpt lat="43.9723" lon="2.33125">
        <ele>439</ele>
        <time>2021-04-18T11:23:51Z</time>
      </trkpt>
      <trkpt lat="43.97229" lon="2.33125">
        <ele>439</ele>
        <time>2021-04-18T11:23:52Z</time>
      </trkpt>
      <trkpt lat="43.97227" lon="2.33125">
        <ele>439</ele>
        <time>2021-04-18T11:23:53Z</time>
      </trkpt>
      <trkpt lat="43.97226" lon="2.33126">
        <ele>439</ele>
        <time>2021-04-18T11:23:54Z</time>
      </trkpt>
      <trkpt lat="43.97224" lon="2.33126">
        <ele>440</ele>
        <time>2021-04-18T11:23:55Z</time>
      </trkpt>
      <trkpt lat="43.97223" lon="2.33126">
        <ele>440</ele>
        <time>2021-04-18T11:23:56Z</time>
      </trkpt>
      <trkpt lat="43.97221" lon="2.33126">
        <ele>439</ele>
        <time>2021-04-18T11:23:57Z</time>
      </trkpt>
      <trkpt lat="43.9722" lon="2.33126">
        <ele>439</ele>
        <time>2021-04-18T11:23:58Z</time>
      </trkpt>
      <trkpt lat="43.97218" lon="2.33127">
        <ele>440</ele>
        <time>2021-04-18T11:23:59Z</time>
      </trkpt>
      <trkpt lat="43.97217" lon="2.33129">
        <ele>440</ele>
        <time>2021-04-18T11:24:00Z</time>
      </trkpt>
      <trkpt lat="43.97216" lon="2.3313">
        <ele>440</ele>
        <time>2021-04-18T11:24:01Z</time>
      </trkpt>
      <trkpt lat="43.97215" lon="2.33131">
        <ele>440</ele>
        <time>2021-04-18T11:24:02Z</time>
      </trkpt>
      <trkpt lat="43.97213" lon="2.33132">
        <ele>439</ele>
        <time>2021-04-18T11:24:03Z</time>
      </trkpt>
      <trkpt lat="43.97212" lon="2.33132">
        <ele>439</ele>
        <time>2021-04-18T11:24:04Z</time>
      </trkpt>
      <trkpt lat="43.97211" lon="2.33133">
        <ele>439</ele>
        <time>2021-04-18T11:24:05Z</time>
      </trkpt>
      <trkpt lat="43.97209" lon="2.33134">
        <ele>439</ele>
        <time>2021-04-18T11:24:06Z</time>
      </trkpt>
      <trkpt lat="43.97208" lon="2.33135">
        <ele>438</ele>
        <time>2021-04-18T11:24:07Z</time>
      </trkpt>
      <trkpt lat="43.97207" lon="2.33136">
        <ele>438</ele>
        <time>2021-04-18T11:24:08Z</time>
      </trkpt>
      <trkpt lat="43.97205" lon="2.33137">
        <ele>437</ele>
        <time>2021-04-18T11:24:09Z</time>
      </trkpt>
      <trkpt lat="43.97203" lon="2.33138">
        <ele>437</ele>
        <time>2021-04-18T11:24:10Z</time>
      </trkpt>
      <trkpt lat="43.97202" lon="2.33138">
        <ele>437</ele>
        <time>2021-04-18T11:24:11Z</time>
      </trkpt>
      <trkpt lat="43.972" lon="2.33139">
        <ele>436</ele>
        <time>2021-04-18T11:24:12Z</time>
      </trkpt>
      <trkpt lat="43.97199" lon="2.33139">
        <ele>437</ele>
        <time>2021-04-18T11:24:13Z</time>
      </trkpt>
      <trkpt lat="43.97198" lon="2.3314">
        <ele>437</ele>
        <time>2021-04-18T11:24:14Z</time>
      </trkpt>
      <trkpt lat="43.97197" lon="2.3314">
        <ele>438</ele>
        <time>2021-04-18T11:24:15Z</time>
      </trkpt>
      <trkpt lat="43.97195" lon="2.33141">
        <ele>437</ele>
        <time>2021-04-18T11:24:16Z</time>
      </trkpt>
      <trkpt lat="43.97194" lon="2.33142">
        <ele>437</ele>
        <time>2021-04-18T11:24:17Z</time>
      </trkpt>
      <trkpt lat="43.97193" lon="2.33143">
        <ele>437</ele>
        <time>2021-04-18T11:24:18Z</time>
      </trkpt>
      <trkpt lat="43.97191" lon="2.33144">
        <ele>437</ele>
        <time>2021-04-18T11:24:19Z</time>
      </trkpt>
      <trkpt lat="43.9719" lon="2.33144">
        <ele>437</ele>
        <time>2021-04-18T11:24:20Z</time>
      </trkpt>
      <trkpt lat="43.97188" lon="2.33145">
        <ele>437</ele>
        <time>2021-04-18T11:24:21Z</time>
      </trkpt>
      <trkpt lat="43.97186" lon="2.33146">
        <ele>436</ele>
        <time>2021-04-18T11:24:22Z</time>
      </trkpt>
      <trkpt lat="43.97184" lon="2.33147">
        <ele>436</ele>
        <time>2021-04-18T11:24:23Z</time>
      </trkpt>
      <trkpt lat="43.97183" lon="2.33147">
        <ele>436</ele>
        <time>2021-04-18T11:24:24Z</time>
      </trkpt>
      <trkpt lat="43.97181" lon="2.33148">
        <ele>436</ele>
        <time>2021-04-18T11:24:25Z</time>
      </trkpt>
      <trkpt lat="43.9718" lon="2.33148">
        <ele>436</ele>
        <time>2021-04-18T11:24:26Z</time>
      </trkpt>
      <trkpt lat="43.97179" lon="2.33149">
        <ele>436</ele>
        <time>2021-04-18T11:24:27Z</time>
      </trkpt>
      <trkpt lat="43.97178" lon="2.3315">
        <ele>435</ele>
        <time>2021-04-18T11:24:28Z</time>
      </trkpt>
      <trkpt lat="43.97177" lon="2.33151">
        <ele>435</ele>
        <time>2021-04-18T11:24:29Z</time>
      </trkpt>
      <trkpt lat="43.97176" lon="2.33153">
        <ele>435</ele>
        <time>2021-04-18T11:24:30Z</time>
      </trkpt>
      <trkpt lat="43.97175" lon="2.33154">
        <ele>435</ele>
        <time>2021-04-18T11:24:31Z</time>
      </trkpt>
      <trkpt lat="43.97174" lon="2.33155">
        <ele>435</ele>
        <time>2021-04-18T11:24:32Z</time>
      </trkpt>
      <trkpt lat="43.97173" lon="2.33156">
        <ele>435</ele>
        <time>2021-04-18T11:24:33Z</time>
      </trkpt>
      <trkpt lat="43.97172" lon="2.33157">
        <ele>434</ele>
        <time>2021-04-18T11:24:34Z</time>
      </trkpt>
      <trkpt lat="43.97171" lon="2.33158">
        <ele>434</ele>
        <time>2021-04-18T11:24:35Z</time>
      </trkpt>
      <trkpt lat="43.9717" lon="2.33158">
        <ele>434</ele>
        <time>2021-04-18T11:24:36Z</time>
      </trkpt>
      <trkpt lat="43.97169" lon="2.33159">
        <ele>433</ele>
        <time>2021-04-18T11:24:37Z</time>
      </trkpt>
      <trkpt lat="43.97167" lon="2.33159">
        <ele>432</ele>
        <time>2021-04-18T11:24:38Z</time>
      </trkpt>
      <trkpt lat="43.97166" lon="2.3316">
        <ele>432</ele>
        <time>2021-04-18T11:24:39Z</time>
      </trkpt>
      <trkpt lat="43.97164" lon="2.33161">
        <ele>431</ele>
        <time>2021-04-18T11:24:40Z</time>
      </trkpt>
      <trkpt lat="43.97163" lon="2.33161">
        <ele>431</ele>
        <time>2021-04-18T11:24:41Z</time>
      </trkpt>
      <trkpt lat="43.97161" lon="2.33162">
        <ele>431</ele>
        <time>2021-04-18T11:24:42Z</time>
      </trkpt>
      <trkpt lat="43.97159" lon="2.33163">
        <ele>431</ele>
        <time>2021-04-18T11:24:43Z</time>
      </trkpt>
      <trkpt lat="43.97158" lon="2.33164">
        <ele>430</ele>
        <time>2021-04-18T11:24:44Z</time>
      </trkpt>
      <trkpt lat="43.97156" lon="2.33165">
        <ele>430</ele>
        <time>2021-04-18T11:24:45Z</time>
      </trkpt>
      <trkpt lat="43.97154" lon="2.33165">
        <ele>431</ele>
        <time>2021-04-18T11:24:46Z</time>
      </trkpt>
      <trkpt lat="43.97152" lon="2.33166">
        <ele>431</ele>
        <time>2021-04-18T11:24:47Z</time>
      </trkpt>
      <trkpt lat="43.97151" lon="2.33167">
        <ele>431</ele>
        <time>2021-04-18T11:24:48Z</time>
      </trkpt>
      <trkpt lat="43.97149" lon="2.33167">
        <ele>431</ele>
        <time>2021-04-18T11:24:49Z</time>
      </trkpt>
      <trkpt lat="43.97148" lon="2.33168">
        <ele>431</ele>
        <time>2021-04-18T11:24:50Z</time>
      </trkpt>
      <trkpt lat="43.97146" lon="2.33169">
        <ele>431</ele>
        <time>2021-04-18T11:24:51Z</time>
      </trkpt>
      <trkpt lat="43.97144" lon="2.3317">
        <ele>431</ele>
        <time>2021-04-18T11:24:52Z</time>
      </trkpt>
      <trkpt lat="43.97143" lon="2.33171">
        <ele>431</ele>
        <time>2021-04-18T11:24:53Z</time>
      </trkpt>
      <trkpt lat="43.97142" lon="2.33171">
        <ele>431</ele>
        <time>2021-04-18T11:24:54Z</time>
      </trkpt>
      <trkpt lat="43.97141" lon="2.33172">
        <ele>431</ele>
        <time>2021-04-18T11:24:55Z</time>
      </trkpt>
      <trkpt lat="43.97139" lon="2.33173">
        <ele>431</ele>
        <time>2021-04-18T11:24:56Z</time>
      </trkpt>
      <trkpt lat="43.97137" lon="2.33173">
        <ele>431</ele>
        <time>2021-04-18T11:24:57Z</time>
      </trkpt>
      <trkpt lat="43.97136" lon="2.33174">
        <ele>430</ele>
        <time>2021-04-18T11:24:58Z</time>
      </trkpt>
      <trkpt lat="43.97134" lon="2.33174">
        <ele>430</ele>
        <time>2021-04-18T11:24:59Z</time>
      </trkpt>
      <trkpt lat="43.97133" lon="2.33174">
        <ele>429</ele>
        <time>2021-04-18T11:25:00Z</time>
      </trkpt>
      <trkpt lat="43.97131" lon="2.33175">
        <ele>429</ele>
        <time>2021-04-18T11:25:01Z</time>
      </trkpt>
      <trkpt lat="43.97129" lon="2.33176">
        <ele>428</ele>
        <time>2021-04-18T11:25:02Z</time>
      </trkpt>
      <trkpt lat="43.97128" lon="2.33178">
        <ele>429</ele>
        <time>2021-04-18T11:25:03Z</time>
      </trkpt>
      <trkpt lat="43.97126" lon="2.33179">
        <ele>428</ele>
        <time>2021-04-18T11:25:04Z</time>
      </trkpt>
      <trkpt lat="43.97125" lon="2.3318">
        <ele>428</ele>
        <time>2021-04-18T11:25:05Z</time>
      </trkpt>
      <trkpt lat="43.97123" lon="2.33181">
        <ele>428</ele>
        <time>2021-04-18T11:25:06Z</time>
      </trkpt>
      <trkpt lat="43.97122" lon="2.33181">
        <ele>428</ele>
        <time>2021-04-18T11:25:07Z</time>
      </trkpt>
      <trkpt lat="43.97121" lon="2.33181">
        <ele>429</ele>
        <time>2021-04-18T11:25:08Z</time>
      </trkpt>
      <trkpt lat="43.9712" lon="2.33181">
        <ele>429</ele>
        <time>2021-04-18T11:25:09Z</time>
      </trkpt>
      <trkpt lat="43.97118" lon="2.33181">
        <ele>429</ele>
        <time>2021-04-18T11:25:10Z</time>
      </trkpt>
      <trkpt lat="43.97117" lon="2.33181">
        <ele>430</ele>
        <time>2021-04-18T11:25:11Z</time>
      </trkpt>
      <trkpt lat="43.97115" lon="2.33182">
        <ele>430</ele>
        <time>2021-04-18T11:25:12Z</time>
      </trkpt>
      <trkpt lat="43.97114" lon="2.33183">
        <ele>430</ele>
        <time>2021-04-18T11:25:13Z</time>
      </trkpt>
      <trkpt lat="43.97112" lon="2.33184">
        <ele>430</ele>
        <time>2021-04-18T11:25:14Z</time>
      </trkpt>
      <trkpt lat="43.9711" lon="2.33185">
        <ele>430</ele>
        <time>2021-04-18T11:25:15Z</time>
      </trkpt>
      <trkpt lat="43.97108" lon="2.33186">
        <ele>430</ele>
        <time>2021-04-18T11:25:16Z</time>
      </trkpt>
      <trkpt lat="43.97107" lon="2.33187">
        <ele>429</ele>
        <time>2021-04-18T11:25:17Z</time>
      </trkpt>
      <trkpt lat="43.97105" lon="2.33189">
        <ele>429</ele>
        <time>2021-04-18T11:25:18Z</time>
      </trkpt>
      <trkpt lat="43.97104" lon="2.33191">
        <ele>429</ele>
        <time>2021-04-18T11:25:19Z</time>
      </trkpt>
      <trkpt lat="43.97102" lon="2.33192">
        <ele>429</ele>
        <time>2021-04-18T11:25:20Z</time>
      </trkpt>
      <trkpt lat="43.971" lon="2.33193">
        <ele>429</ele>
        <time>2021-04-18T11:25:21Z</time>
      </trkpt>
      <trkpt lat="43.97099" lon="2.33194">
        <ele>428</ele>
        <time>2021-04-18T11:25:22Z</time>
      </trkpt>
      <trkpt lat="43.97098" lon="2.33196">
        <ele>428</ele>
        <time>2021-04-18T11:25:23Z</time>
      </trkpt>
      <trkpt lat="43.97097" lon="2.33196">
        <ele>428</ele>
        <time>2021-04-18T11:25:24Z</time>
      </trkpt>
      <trkpt lat="43.97096" lon="2.33197">
        <ele>428</ele>
        <time>2021-04-18T11:25:25Z</time>
      </trkpt>
      <trkpt lat="43.97096" lon="2.33197">
        <ele>427</ele>
        <time>2021-04-18T11:25:26Z</time>
      </trkpt>
      <trkpt lat="43.97094" lon="2.33198">
        <ele>427</ele>
        <time>2021-04-18T11:25:27Z</time>
      </trkpt>
      <trkpt lat="43.97092" lon="2.33199">
        <ele>427</ele>
        <time>2021-04-18T11:25:28Z</time>
      </trkpt>
      <trkpt lat="43.9709" lon="2.332">
        <ele>427</ele>
        <time>2021-04-18T11:25:29Z</time>
      </trkpt>
      <trkpt lat="43.97089" lon="2.33201">
        <ele>428</ele>
        <time>2021-04-18T11:25:30Z</time>
      </trkpt>
      <trkpt lat="43.97087" lon="2.33202">
        <ele>428</ele>
        <time>2021-04-18T11:25:31Z</time>
      </trkpt>
      <trkpt lat="43.97086" lon="2.33203">
        <ele>428</ele>
        <time>2021-04-18T11:25:32Z</time>
      </trkpt>
      <trkpt lat="43.97084" lon="2.33203">
        <ele>429</ele>
        <time>2021-04-18T11:25:33Z</time>
      </trkpt>
      <trkpt lat="43.97083" lon="2.33204">
        <ele>428</ele>
        <time>2021-04-18T11:25:34Z</time>
      </trkpt>
      <trkpt lat="43.97081" lon="2.33205">
        <ele>428</ele>
        <time>2021-04-18T11:25:35Z</time>
      </trkpt>
      <trkpt lat="43.9708" lon="2.33207">
        <ele>428</ele>
        <time>2021-04-18T11:25:36Z</time>
      </trkpt>
      <trkpt lat="43.97078" lon="2.33207">
        <ele>428</ele>
        <time>2021-04-18T11:25:37Z</time>
      </trkpt>
      <trkpt lat="43.97077" lon="2.33208">
        <ele>428</ele>
        <time>2021-04-18T11:25:38Z</time>
      </trkpt>
      <trkpt lat="43.97076" lon="2.33209">
        <ele>428</ele>
        <time>2021-04-18T11:25:39Z</time>
      </trkpt>
      <trkpt lat="43.97075" lon="2.33209">
        <ele>429</ele>
        <time>2021-04-18T11:25:40Z</time>
      </trkpt>
      <trkpt lat="43.97073" lon="2.3321">
        <ele>429</ele>
        <time>2021-04-18T11:25:41Z</time>
      </trkpt>
      <trkpt lat="43.97072" lon="2.33211">
        <ele>429</ele>
        <time>2021-04-18T11:25:42Z</time>
      </trkpt>
      <trkpt lat="43.97071" lon="2.33212">
        <ele>429</ele>
        <time>2021-04-18T11:25:43Z</time>
      </trkpt>
      <trkpt lat="43.97069" lon="2.33213">
        <ele>429</ele>
        <time>2021-04-18T11:25:44Z</time>
      </trkpt>
      <trkpt lat="43.97068" lon="2.33214">
        <ele>428</ele>
        <time>2021-04-18T11:25:45Z</time>
      </trkpt>
      <trkpt lat="43.97066" lon="2.33216">
        <ele>428</ele>
        <time>2021-04-18T11:25:46Z</time>
      </trkpt>
      <trkpt lat="43.97064" lon="2.33217">
        <ele>428</ele>
        <time>2021-04-18T11:25:47Z</time>
      </trkpt>
      <trkpt lat="43.97062" lon="2.33218">
        <ele>429</ele>
        <time>2021-04-18T11:25:48Z</time>
      </trkpt>
      <trkpt lat="43.9706" lon="2.33219">
        <ele>429</ele>
        <time>2021-04-18T11:25:49Z</time>
      </trkpt>
      <trkpt lat="43.97059" lon="2.3322">
        <ele>428</ele>
        <time>2021-04-18T11:25:50Z</time>
      </trkpt>
      <trkpt lat="43.97058" lon="2.33221">
        <ele>428</ele>
        <time>2021-04-18T11:25:51Z</time>
      </trkpt>
      <trkpt lat="43.97057" lon="2.33222">
        <ele>428</ele>
        <time>2021-04-18T11:25:52Z</time>
      </trkpt>
      <trkpt lat="43.97055" lon="2.33223">
        <ele>428</ele>
        <time>2021-04-18T11:25:53Z</time>
      </trkpt>
      <trkpt lat="43.97053" lon="2.33224">
        <ele>428</ele>
        <time>2021-04-18T11:25:54Z</time>
      </trkpt>
      <trkpt lat="43.97052" lon="2.33225">
        <ele>428</ele>
        <time>2021-04-18T11:25:55Z</time>
      </trkpt>
      <trkpt lat="43.97051" lon="2.33226">
        <ele>429</ele>
        <time>2021-04-18T11:25:56Z</time>
      </trkpt>
      <trkpt lat="43.9705" lon="2.33228">
        <ele>429</ele>
        <time>2021-04-18T11:25:57Z</time>
      </trkpt>
      <trkpt lat="43.97048" lon="2.33229">
        <ele>430</ele>
        <time>2021-04-18T11:25:58Z</time>
      </trkpt>
      <trkpt lat="43.97047" lon="2.3323">
        <ele>430</ele>
        <time>2021-04-18T11:25:59Z</time>
      </trkpt>
      <trkpt lat="43.97046" lon="2.33231">
        <ele>430</ele>
        <time>2021-04-18T11:26:00Z</time>
      </trkpt>
      <trkpt lat="43.97044" lon="2.33232">
        <ele>430</ele>
        <time>2021-04-18T11:26:01Z</time>
      </trkpt>
      <trkpt lat="43.97043" lon="2.33233">
        <ele>430</ele>
        <time>2021-04-18T11:26:02Z</time>
      </trkpt>
      <trkpt lat="43.97042" lon="2.33234">
        <ele>431</ele>
        <time>2021-04-18T11:26:03Z</time>
      </trkpt>
      <trkpt lat="43.97041" lon="2.33236">
        <ele>431</ele>
        <time>2021-04-18T11:26:04Z</time>
      </trkpt>
      <trkpt lat="43.97039" lon="2.33236">
        <ele>430</ele>
        <time>2021-04-18T11:26:05Z</time>
      </trkpt>
      <trkpt lat="43.97039" lon="2.33238">
        <ele>430</ele>
        <time>2021-04-18T11:26:06Z</time>
      </trkpt>
      <trkpt lat="43.97038" lon="2.3324">
        <ele>429</ele>
        <time>2021-04-18T11:26:07Z</time>
      </trkpt>
      <trkpt lat="43.97037" lon="2.33241">
        <ele>429</ele>
        <time>2021-04-18T11:26:08Z</time>
      </trkpt>
      <trkpt lat="43.97036" lon="2.33242">
        <ele>429</ele>
        <time>2021-04-18T11:26:09Z</time>
      </trkpt>
      <trkpt lat="43.97035" lon="2.33243">
        <ele>429</ele>
        <time>2021-04-18T11:26:10Z</time>
      </trkpt>
      <trkpt lat="43.97035" lon="2.33244">
        <ele>428</ele>
        <time>2021-04-18T11:26:11Z</time>
      </trkpt>
      <trkpt lat="43.97034" lon="2.33245">
        <ele>428</ele>
        <time>2021-04-18T11:26:12Z</time>
      </trkpt>
      <trkpt lat="43.97033" lon="2.33247">
        <ele>428</ele>
        <time>2021-04-18T11:26:13Z</time>
      </trkpt>
      <trkpt lat="43.97032" lon="2.33248">
        <ele>428</ele>
        <time>2021-04-18T11:26:14Z</time>
      </trkpt>
      <trkpt lat="43.97031" lon="2.33249">
        <ele>428</ele>
        <time>2021-04-18T11:26:15Z</time>
      </trkpt>
      <trkpt lat="43.9703" lon="2.3325">
        <ele>428</ele>
        <time>2021-04-18T11:26:16Z</time>
      </trkpt>
      <trkpt lat="43.97029" lon="2.33251">
        <ele>428</ele>
        <time>2021-04-18T11:26:17Z</time>
      </trkpt>
      <trkpt lat="43.97028" lon="2.33252">
        <ele>428</ele>
        <time>2021-04-18T11:26:18Z</time>
      </trkpt>
      <trkpt lat="43.97026" lon="2.33253">
        <ele>428</ele>
        <time>2021-04-18T11:26:19Z</time>
      </trkpt>
      <trkpt lat="43.97025" lon="2.33254">
        <ele>427</ele>
        <time>2021-04-18T11:26:20Z</time>
      </trkpt>
      <trkpt lat="43.97023" lon="2.33255">
        <ele>428</ele>
        <time>2021-04-18T11:26:21Z</time>
      </trkpt>
      <trkpt lat="43.97022" lon="2.33256">
        <ele>427</ele>
        <time>2021-04-18T11:26:22Z</time>
      </trkpt>
      <trkpt lat="43.97021" lon="2.33257">
        <ele>427</ele>
        <time>2021-04-18T11:26:23Z</time>
      </trkpt>
      <trkpt lat="43.97019" lon="2.33258">
        <ele>428</ele>
        <time>2021-04-18T11:26:24Z</time>
      </trkpt>
      <trkpt lat="43.97018" lon="2.33259">
        <ele>427</ele>
        <time>2021-04-18T11:26:25Z</time>
      </trkpt>
      <trkpt lat="43.97016" lon="2.33259">
        <ele>428</ele>
        <time>2021-04-18T11:26:26Z</time>
      </trkpt>
      <trkpt lat="43.97014" lon="2.3326">
        <ele>428</ele>
        <time>2021-04-18T11:26:27Z</time>
      </trkpt>
      <trkpt lat="43.97013" lon="2.3326">
        <ele>428</ele>
        <time>2021-04-18T11:26:28Z</time>
      </trkpt>
      <trkpt lat="43.97012" lon="2.33261">
        <ele>428</ele>
        <time>2021-04-18T11:26:29Z</time>
      </trkpt>
      <trkpt lat="43.9701" lon="2.33262">
        <ele>428</ele>
        <time>2021-04-18T11:26:30Z</time>
      </trkpt>
      <trkpt lat="43.97009" lon="2.33262">
        <ele>427</ele>
        <time>2021-04-18T11:26:31Z</time>
      </trkpt>
      <trkpt lat="43.97007" lon="2.33263">
        <ele>427</ele>
        <time>2021-04-18T11:26:32Z</time>
      </trkpt>
      <trkpt lat="43.97006" lon="2.33265">
        <ele>427</ele>
        <time>2021-04-18T11:26:33Z</time>
      </trkpt>
      <trkpt lat="43.97004" lon="2.33265">
        <ele>427</ele>
        <time>2021-04-18T11:26:34Z</time>
      </trkpt>
      <trkpt lat="43.97002" lon="2.33266">
        <ele>427</ele>
        <time>2021-04-18T11:26:35Z</time>
      </trkpt>
      <trkpt lat="43.97001" lon="2.33267">
        <ele>427</ele>
        <time>2021-04-18T11:26:36Z</time>
      </trkpt>
      <trkpt lat="43.96999" lon="2.33268">
        <ele>427</ele>
        <time>2021-04-18T11:26:37Z</time>
      </trkpt>
      <trkpt lat="43.96998" lon="2.33268">
        <ele>427</ele>
        <time>2021-04-18T11:26:38Z</time>
      </trkpt>
      <trkpt lat="43.96997" lon="2.33269">
        <ele>426</ele>
        <time>2021-04-18T11:26:39Z</time>
      </trkpt>
      <trkpt lat="43.96995" lon="2.3327">
        <ele>427</ele>
        <time>2021-04-18T11:26:40Z</time>
      </trkpt>
      <trkpt lat="43.96993" lon="2.33271">
        <ele>427</ele>
        <time>2021-04-18T11:26:41Z</time>
      </trkpt>
      <trkpt lat="43.96992" lon="2.33271">
        <ele>428</ele>
        <time>2021-04-18T11:26:42Z</time>
      </trkpt>
      <trkpt lat="43.9699" lon="2.33272">
        <ele>428</ele>
        <time>2021-04-18T11:26:43Z</time>
      </trkpt>
      <trkpt lat="43.96988" lon="2.33273">
        <ele>428</ele>
        <time>2021-04-18T11:26:44Z</time>
      </trkpt>
      <trkpt lat="43.96987" lon="2.33274">
        <ele>428</ele>
        <time>2021-04-18T11:26:45Z</time>
      </trkpt>
      <trkpt lat="43.96986" lon="2.33274">
        <ele>428</ele>
        <time>2021-04-18T11:26:46Z</time>
      </trkpt>
      <trkpt lat="43.96985" lon="2.33275">
        <ele>428</ele>
        <time>2021-04-18T11:26:47Z</time>
      </trkpt>
      <trkpt lat="43.96984" lon="2.33276">
        <ele>428</ele>
        <time>2021-04-18T11:26:48Z</time>
      </trkpt>
      <trkpt lat="43.96982" lon="2.33276">
        <ele>428</ele>
        <time>2021-04-18T11:26:49Z</time>
      </trkpt>
      <trkpt lat="43.96981" lon="2.33277">
        <ele>429</ele>
        <time>2021-04-18T11:26:50Z</time>
      </trkpt>
      <trkpt lat="43.9698" lon="2.33278">
        <ele>429</ele>
        <time>2021-04-18T11:26:51Z</time>
      </trkpt>
      <trkpt lat="43.96979" lon="2.33278">
        <ele>429</ele>
        <time>2021-04-18T11:26:52Z</time>
      </trkpt>
      <trkpt lat="43.96978" lon="2.33279">
        <ele>428</ele>
        <time>2021-04-18T11:26:53Z</time>
      </trkpt>
      <trkpt lat="43.96977" lon="2.3328">
        <ele>428</ele>
        <time>2021-04-18T11:26:54Z</time>
      </trkpt>
      <trkpt lat="43.96975" lon="2.3328">
        <ele>428</ele>
        <time>2021-04-18T11:26:55Z</time>
      </trkpt>
      <trkpt lat="43.96973" lon="2.3328">
        <ele>429</ele>
        <time>2021-04-18T11:26:56Z</time>
      </trkpt>
      <trkpt lat="43.96972" lon="2.33281">
        <ele>430</ele>
        <time>2021-04-18T11:26:57Z</time>
      </trkpt>
      <trkpt lat="43.96971" lon="2.33281">
        <ele>430</ele>
        <time>2021-04-18T11:26:58Z</time>
      </trkpt>
      <trkpt lat="43.9697" lon="2.33282">
        <ele>430</ele>
        <time>2021-04-18T11:26:59Z</time>
      </trkpt>
      <trkpt lat="43.96969" lon="2.33283">
        <ele>430</ele>
        <time>2021-04-18T11:27:00Z</time>
      </trkpt>
      <trkpt lat="43.96967" lon="2.33284">
        <ele>430</ele>
        <time>2021-04-18T11:27:01Z</time>
      </trkpt>
      <trkpt lat="43.96966" lon="2.33285">
        <ele>430</ele>
        <time>2021-04-18T11:27:02Z</time>
      </trkpt>
      <trkpt lat="43.96965" lon="2.33286">
        <ele>430</ele>
        <time>2021-04-18T11:27:03Z</time>
      </trkpt>
      <trkpt lat="43.96964" lon="2.33286">
        <ele>430</ele>
        <time>2021-04-18T11:27:04Z</time>
      </trkpt>
      <trkpt lat="43.96963" lon="2.33287">
        <ele>430</ele>
        <time>2021-04-18T11:27:05Z</time>
      </trkpt>
      <trkpt lat="43.96962" lon="2.33287">
        <ele>430</ele>
        <time>2021-04-18T11:27:06Z</time>
      </trkpt>
      <trkpt lat="43.96961" lon="2.33288">
        <ele>430</ele>
        <time>2021-04-18T11:27:07Z</time>
      </trkpt>
      <trkpt lat="43.9696" lon="2.33288">
        <ele>430</ele>
        <time>2021-04-18T11:27:08Z</time>
      </trkpt>
      <trkpt lat="43.96959" lon="2.33289">
        <ele>430</ele>
        <time>2021-04-18T11:27:09Z</time>
      </trkpt>
      <trkpt lat="43.96957" lon="2.33289">
        <ele>430</ele>
        <time>2021-04-18T11:27:10Z</time>
      </trkpt>
      <trkpt lat="43.96955" lon="2.3329">
        <ele>431</ele>
        <time>2021-04-18T11:27:11Z</time>
      </trkpt>
      <trkpt lat="43.96954" lon="2.33291">
        <ele>431</ele>
        <time>2021-04-18T11:27:12Z</time>
      </trkpt>
      <trkpt lat="43.96952" lon="2.33291">
        <ele>431</ele>
        <time>2021-04-18T11:27:13Z</time>
      </trkpt>
      <trkpt lat="43.96951" lon="2.33293">
        <ele>431</ele>
        <time>2021-04-18T11:27:14Z</time>
      </trkpt>
      <trkpt lat="43.96949" lon="2.33294">
        <ele>431</ele>
        <time>2021-04-18T11:27:15Z</time>
      </trkpt>
      <trkpt lat="43.96947" lon="2.33295">
        <ele>431</ele>
        <time>2021-04-18T11:27:16Z</time>
      </trkpt>
      <trkpt lat="43.96945" lon="2.33296">
        <ele>431</ele>
        <time>2021-04-18T11:27:17Z</time>
      </trkpt>
      <trkpt lat="43.96943" lon="2.33298">
        <ele>431</ele>
        <time>2021-04-18T11:27:18Z</time>
      </trkpt>
      <trkpt lat="43.96941" lon="2.33298">
        <ele>431</ele>
        <time>2021-04-18T11:27:19Z</time>
      </trkpt>
      <trkpt lat="43.9694" lon="2.33299">
        <ele>431</ele>
        <time>2021-04-18T11:27:20Z</time>
      </trkpt>
      <trkpt lat="43.96939" lon="2.333">
        <ele>431</ele>
        <time>2021-04-18T11:27:21Z</time>
      </trkpt>
      <trkpt lat="43.96937" lon="2.333">
        <ele>432</ele>
        <time>2021-04-18T11:27:22Z</time>
      </trkpt>
      <trkpt lat="43.96935" lon="2.333">
        <ele>432</ele>
        <time>2021-04-18T11:27:23Z</time>
      </trkpt>
      <trkpt lat="43.96933" lon="2.33301">
        <ele>432</ele>
        <time>2021-04-18T11:27:24Z</time>
      </trkpt>
      <trkpt lat="43.96933" lon="2.33302">
        <ele>432</ele>
        <time>2021-04-18T11:27:25Z</time>
      </trkpt>
      <trkpt lat="43.96932" lon="2.33302">
        <ele>432</ele>
        <time>2021-04-18T11:27:26Z</time>
      </trkpt>
      <trkpt lat="43.9693" lon="2.33303">
        <ele>432</ele>
        <time>2021-04-18T11:27:27Z</time>
      </trkpt>
      <trkpt lat="43.96929" lon="2.33303">
        <ele>432</ele>
        <time>2021-04-18T11:27:28Z</time>
      </trkpt>
      <trkpt lat="43.96927" lon="2.33304">
        <ele>432</ele>
        <time>2021-04-18T11:27:29Z</time>
      </trkpt>
      <trkpt lat="43.96926" lon="2.33305">
        <ele>433</ele>
        <time>2021-04-18T11:27:30Z</time>
      </trkpt>
      <trkpt lat="43.96925" lon="2.33305">
        <ele>432</ele>
        <time>2021-04-18T11:27:31Z</time>
      </trkpt>
      <trkpt lat="43.96923" lon="2.33306">
        <ele>433</ele>
        <time>2021-04-18T11:27:32Z</time>
      </trkpt>
      <trkpt lat="43.96919" lon="2.33307">
        <ele>433</ele>
        <time>2021-04-18T11:27:34Z</time>
      </trkpt>
      <trkpt lat="43.96917" lon="2.33308">
        <ele>434</ele>
        <time>2021-04-18T11:27:35Z</time>
      </trkpt>
      <trkpt lat="43.96917" lon="2.33308">
        <ele>434</ele>
        <time>2021-04-18T11:27:35Z</time>
      </trkpt>
      <trkpt lat="43.96915" lon="2.33309">
        <ele>434</ele>
        <time>2021-04-18T11:27:36Z</time>
      </trkpt>
      <trkpt lat="43.96914" lon="2.3331">
        <ele>434</ele>
        <time>2021-04-18T11:27:37Z</time>
      </trkpt>
      <trkpt lat="43.96913" lon="2.33311">
        <ele>434</ele>
        <time>2021-04-18T11:27:38Z</time>
      </trkpt>
      <trkpt lat="43.96911" lon="2.33313">
        <ele>434</ele>
        <time>2021-04-18T11:27:39Z</time>
      </trkpt>
      <trkpt lat="43.9691" lon="2.33314">
        <ele>434</ele>
        <time>2021-04-18T11:27:40Z</time>
      </trkpt>
      <trkpt lat="43.96909" lon="2.33315">
        <ele>434</ele>
        <time>2021-04-18T11:27:41Z</time>
      </trkpt>
      <trkpt lat="43.96907" lon="2.33315">
        <ele>434</ele>
        <time>2021-04-18T11:27:42Z</time>
      </trkpt>
      <trkpt lat="43.96906" lon="2.33316">
        <ele>435</ele>
        <time>2021-04-18T11:27:43Z</time>
      </trkpt>
      <trkpt lat="43.96904" lon="2.33316">
        <ele>435</ele>
        <time>2021-04-18T11:27:44Z</time>
      </trkpt>
      <trkpt lat="43.96901" lon="2.33317">
        <ele>434</ele>
        <time>2021-04-18T11:27:46Z</time>
      </trkpt>
      <trkpt lat="43.96901" lon="2.33317">
        <ele>434</ele>
        <time>2021-04-18T11:27:46Z</time>
      </trkpt>
      <trkpt lat="43.96899" lon="2.33317">
        <ele>434</ele>
        <time>2021-04-18T11:27:48Z</time>
      </trkpt>
      <trkpt lat="43.96897" lon="2.33318">
        <ele>434</ele>
        <time>2021-04-18T11:27:49Z</time>
      </trkpt>
      <trkpt lat="43.96897" lon="2.33318">
        <ele>434</ele>
        <time>2021-04-18T11:27:49Z</time>
      </trkpt>
      <trkpt lat="43.96895" lon="2.3332">
        <ele>434</ele>
        <time>2021-04-18T11:27:51Z</time>
      </trkpt>
      <trkpt lat="43.96893" lon="2.3332">
        <ele>434</ele>
        <time>2021-04-18T11:27:52Z</time>
      </trkpt>
      <trkpt lat="43.96892" lon="2.33321">
        <ele>434</ele>
        <time>2021-04-18T11:27:53Z</time>
      </trkpt>
      <trkpt lat="43.96892" lon="2.33321">
        <ele>434</ele>
        <time>2021-04-18T11:27:53Z</time>
      </trkpt>
      <trkpt lat="43.96891" lon="2.33322">
        <ele>435</ele>
        <time>2021-04-18T11:27:54Z</time>
      </trkpt>
      <trkpt lat="43.96888" lon="2.33323">
        <ele>434</ele>
        <time>2021-04-18T11:27:56Z</time>
      </trkpt>
      <trkpt lat="43.96886" lon="2.33324">
        <ele>433</ele>
        <time>2021-04-18T11:27:57Z</time>
      </trkpt>
      <trkpt lat="43.96886" lon="2.33324">
        <ele>433</ele>
        <time>2021-04-18T11:27:57Z</time>
      </trkpt>
      <trkpt lat="43.96884" lon="2.33326">
        <ele>433</ele>
        <time>2021-04-18T11:27:59Z</time>
      </trkpt>
      <trkpt lat="43.96882" lon="2.33326">
        <ele>433</ele>
        <time>2021-04-18T11:28:00Z</time>
      </trkpt>
      <trkpt lat="43.9688" lon="2.33327">
        <ele>434</ele>
        <time>2021-04-18T11:28:01Z</time>
      </trkpt>
      <trkpt lat="43.9688" lon="2.33327">
        <ele>434</ele>
        <time>2021-04-18T11:28:01Z</time>
      </trkpt>
      <trkpt lat="43.96878" lon="2.33329">
        <ele>434</ele>
        <time>2021-04-18T11:28:03Z</time>
      </trkpt>
      <trkpt lat="43.96876" lon="2.33331">
        <ele>433</ele>
        <time>2021-04-18T11:28:04Z</time>
      </trkpt>
      <trkpt lat="43.96876" lon="2.33331">
        <ele>433</ele>
        <time>2021-04-18T11:28:04Z</time>
      </trkpt>
      <trkpt lat="43.96874" lon="2.33332">
        <ele>433</ele>
        <time>2021-04-18T11:28:06Z</time>
      </trkpt>
      <trkpt lat="43.96874" lon="2.33332">
        <ele>433</ele>
        <time>2021-04-18T11:28:06Z</time>
      </trkpt>
      <trkpt lat="43.96873" lon="2.33334">
        <ele>433</ele>
        <time>2021-04-18T11:28:07Z</time>
      </trkpt>
      <trkpt lat="43.96871" lon="2.33337">
        <ele>433</ele>
        <time>2021-04-18T11:28:09Z</time>
      </trkpt>
      <trkpt lat="43.9687" lon="2.33339">
        <ele>433</ele>
        <time>2021-04-18T11:28:10Z</time>
      </trkpt>
      <trkpt lat="43.96869" lon="2.33341">
        <ele>433</ele>
        <time>2021-04-18T11:28:11Z</time>
      </trkpt>
      <trkpt lat="43.96869" lon="2.33342">
        <ele>433</ele>
        <time>2021-04-18T11:28:12Z</time>
      </trkpt>
      <trkpt lat="43.96868" lon="2.33344">
        <ele>433</ele>
        <time>2021-04-18T11:28:13Z</time>
      </trkpt>
      <trkpt lat="43.96867" lon="2.33346">
        <ele>433</ele>
        <time>2021-04-18T11:28:14Z</time>
      </trkpt>
      <trkpt lat="43.96867" lon="2.33348">
        <ele>433</ele>
        <time>2021-04-18T11:28:15Z</time>
      </trkpt>
      <trkpt lat="43.96867" lon="2.3335">
        <ele>432</ele>
        <time>2021-04-18T11:28:16Z</time>
      </trkpt>
      <trkpt lat="43.96866" lon="2.33352">
        <ele>432</ele>
        <time>2021-04-18T11:28:17Z</time>
      </trkpt>
      <trkpt lat="43.96866" lon="2.33352">
        <ele>432</ele>
        <time>2021-04-18T11:28:17Z</time>
      </trkpt>
      <trkpt lat="43.96866" lon="2.33354">
        <ele>432</ele>
        <time>2021-04-18T11:28:18Z</time>
      </trkpt>
      <trkpt lat="43.96865" lon="2.33356">
        <ele>432</ele>
        <time>2021-04-18T11:28:19Z</time>
      </trkpt>
      <trkpt lat="43.96864" lon="2.33358">
        <ele>432</ele>
        <time>2021-04-18T11:28:20Z</time>
      </trkpt>
      <trkpt lat="43.96864" lon="2.3336">
        <ele>432</ele>
        <time>2021-04-18T11:28:21Z</time>
      </trkpt>
      <trkpt lat="43.96863" lon="2.33362">
        <ele>432</ele>
        <time>2021-04-18T11:28:22Z</time>
      </trkpt>
      <trkpt lat="43.96863" lon="2.33364">
        <ele>432</ele>
        <time>2021-04-18T11:28:23Z</time>
      </trkpt>
      <trkpt lat="43.96862" lon="2.33366">
        <ele>433</ele>
        <time>2021-04-18T11:28:24Z</time>
      </trkpt>
      <trkpt lat="43.96862" lon="2.33367">
        <ele>433</ele>
        <time>2021-04-18T11:28:26Z</time>
      </trkpt>
      <trkpt lat="43.96861" lon="2.33369">
        <ele>433</ele>
        <time>2021-04-18T11:28:27Z</time>
      </trkpt>
      <trkpt lat="43.96861" lon="2.33371">
        <ele>434</ele>
        <time>2021-04-18T11:28:28Z</time>
      </trkpt>
      <trkpt lat="43.9686" lon="2.33373">
        <ele>434</ele>
        <time>2021-04-18T11:28:29Z</time>
      </trkpt>
      <trkpt lat="43.96859" lon="2.33374">
        <ele>435</ele>
        <time>2021-04-18T11:28:30Z</time>
      </trkpt>
      <trkpt lat="43.96859" lon="2.33376">
        <ele>435</ele>
        <time>2021-04-18T11:28:31Z</time>
      </trkpt>
      <trkpt lat="43.96858" lon="2.33378">
        <ele>435</ele>
        <time>2021-04-18T11:28:32Z</time>
      </trkpt>
      <trkpt lat="43.96858" lon="2.3338">
        <ele>435</ele>
        <time>2021-04-18T11:28:33Z</time>
      </trkpt>
      <trkpt lat="43.96857" lon="2.33382">
        <ele>435</ele>
        <time>2021-04-18T11:28:34Z</time>
      </trkpt>
      <trkpt lat="43.96856" lon="2.33384">
        <ele>436</ele>
        <time>2021-04-18T11:28:35Z</time>
      </trkpt>
      <trkpt lat="43.96856" lon="2.33386">
        <ele>436</ele>
        <time>2021-04-18T11:28:36Z</time>
      </trkpt>
      <trkpt lat="43.96855" lon="2.33388">
        <ele>436</ele>
        <time>2021-04-18T11:28:37Z</time>
      </trkpt>
      <trkpt lat="43.96854" lon="2.3339">
        <ele>436</ele>
        <time>2021-04-18T11:28:38Z</time>
      </trkpt>
      <trkpt lat="43.96853" lon="2.33393">
        <ele>436</ele>
        <time>2021-04-18T11:28:40Z</time>
      </trkpt>
      <trkpt lat="43.96853" lon="2.33393">
        <ele>436</ele>
        <time>2021-04-18T11:28:40Z</time>
      </trkpt>
      <trkpt lat="43.96853" lon="2.33395">
        <ele>436</ele>
        <time>2021-04-18T11:28:41Z</time>
      </trkpt>
      <trkpt lat="43.96852" lon="2.33396">
        <ele>436</ele>
        <time>2021-04-18T11:28:42Z</time>
      </trkpt>
      <trkpt lat="43.96851" lon="2.33398">
        <ele>436</ele>
        <time>2021-04-18T11:28:43Z</time>
      </trkpt>
      <trkpt lat="43.96851" lon="2.334">
        <ele>435</ele>
        <time>2021-04-18T11:28:44Z</time>
      </trkpt>
      <trkpt lat="43.9685" lon="2.33402">
        <ele>435</ele>
        <time>2021-04-18T11:28:45Z</time>
      </trkpt>
      <trkpt lat="43.96849" lon="2.33404">
        <ele>435</ele>
        <time>2021-04-18T11:28:46Z</time>
      </trkpt>
      <trkpt lat="43.96848" lon="2.33406">
        <ele>436</ele>
        <time>2021-04-18T11:28:47Z</time>
      </trkpt>
      <trkpt lat="43.96848" lon="2.33408">
        <ele>436</ele>
        <time>2021-04-18T11:28:48Z</time>
      </trkpt>
      <trkpt lat="43.96847" lon="2.33411">
        <ele>436</ele>
        <time>2021-04-18T11:28:49Z</time>
      </trkpt>
      <trkpt lat="43.96846" lon="2.33413">
        <ele>436</ele>
        <time>2021-04-18T11:28:50Z</time>
      </trkpt>
      <trkpt lat="43.96846" lon="2.33416">
        <ele>436</ele>
        <time>2021-04-18T11:28:51Z</time>
      </trkpt>
      <trkpt lat="43.96845" lon="2.33418">
        <ele>436</ele>
        <time>2021-04-18T11:28:52Z</time>
      </trkpt>
      <trkpt lat="43.96844" lon="2.3342">
        <ele>436</ele>
        <time>2021-04-18T11:28:53Z</time>
      </trkpt>
      <trkpt lat="43.96843" lon="2.33423">
        <ele>436</ele>
        <time>2021-04-18T11:28:54Z</time>
      </trkpt>
      <trkpt lat="43.96843" lon="2.33425">
        <ele>436</ele>
        <time>2021-04-18T11:28:55Z</time>
      </trkpt>
      <trkpt lat="43.96841" lon="2.33428">
        <ele>436</ele>
        <time>2021-04-18T11:28:56Z</time>
      </trkpt>
      <trkpt lat="43.96841" lon="2.3343">
        <ele>436</ele>
        <time>2021-04-18T11:28:57Z</time>
      </trkpt>
      <trkpt lat="43.96839" lon="2.33435">
        <ele>436</ele>
        <time>2021-04-18T11:28:59Z</time>
      </trkpt>
      <trkpt lat="43.96839" lon="2.33435">
        <ele>436</ele>
        <time>2021-04-18T11:28:59Z</time>
      </trkpt>
      <trkpt lat="43.96839" lon="2.33437">
        <ele>436</ele>
        <time>2021-04-18T11:29:00Z</time>
      </trkpt>
      <trkpt lat="43.96838" lon="2.33439">
        <ele>436</ele>
        <time>2021-04-18T11:29:01Z</time>
      </trkpt>
      <trkpt lat="43.96838" lon="2.33441">
        <ele>436</ele>
        <time>2021-04-18T11:29:02Z</time>
      </trkpt>
      <trkpt lat="43.96837" lon="2.33444">
        <ele>437</ele>
        <time>2021-04-18T11:29:03Z</time>
      </trkpt>
      <trkpt lat="43.96836" lon="2.33446">
        <ele>437</ele>
        <time>2021-04-18T11:29:04Z</time>
      </trkpt>
      <trkpt lat="43.96835" lon="2.33448">
        <ele>437</ele>
        <time>2021-04-18T11:29:05Z</time>
      </trkpt>
      <trkpt lat="43.96835" lon="2.33449">
        <ele>437</ele>
        <time>2021-04-18T11:29:06Z</time>
      </trkpt>
      <trkpt lat="43.96834" lon="2.33451">
        <ele>437</ele>
        <time>2021-04-18T11:29:07Z</time>
      </trkpt>
      <trkpt lat="43.96833" lon="2.33453">
        <ele>437</ele>
        <time>2021-04-18T11:29:08Z</time>
      </trkpt>
      <trkpt lat="43.96833" lon="2.33455">
        <ele>437</ele>
        <time>2021-04-18T11:29:09Z</time>
      </trkpt>
      <trkpt lat="43.96832" lon="2.33457">
        <ele>436</ele>
        <time>2021-04-18T11:29:10Z</time>
      </trkpt>
      <trkpt lat="43.96832" lon="2.33459">
        <ele>436</ele>
        <time>2021-04-18T11:29:11Z</time>
      </trkpt>
      <trkpt lat="43.96832" lon="2.33461">
        <ele>436</ele>
        <time>2021-04-18T11:29:12Z</time>
      </trkpt>
      <trkpt lat="43.96831" lon="2.33463">
        <ele>436</ele>
        <time>2021-04-18T11:29:13Z</time>
      </trkpt>
      <trkpt lat="43.9683" lon="2.33464">
        <ele>437</ele>
        <time>2021-04-18T11:29:14Z</time>
      </trkpt>
      <trkpt lat="43.9683" lon="2.33466">
        <ele>437</ele>
        <time>2021-04-18T11:29:15Z</time>
      </trkpt>
      <trkpt lat="43.9683" lon="2.33468">
        <ele>438</ele>
        <time>2021-04-18T11:29:16Z</time>
      </trkpt>
      <trkpt lat="43.96829" lon="2.3347">
        <ele>438</ele>
        <time>2021-04-18T11:29:17Z</time>
      </trkpt>
      <trkpt lat="43.96829" lon="2.33472">
        <ele>437</ele>
        <time>2021-04-18T11:29:18Z</time>
      </trkpt>
      <trkpt lat="43.96828" lon="2.33474">
        <ele>438</ele>
        <time>2021-04-18T11:29:19Z</time>
      </trkpt>
      <trkpt lat="43.96828" lon="2.33476">
        <ele>437</ele>
        <time>2021-04-18T11:29:20Z</time>
      </trkpt>
      <trkpt lat="43.96827" lon="2.33478">
        <ele>437</ele>
        <time>2021-04-18T11:29:21Z</time>
      </trkpt>
      <trkpt lat="43.96827" lon="2.3348">
        <ele>437</ele>
        <time>2021-04-18T11:29:22Z</time>
      </trkpt>
      <trkpt lat="43.96826" lon="2.33481">
        <ele>438</ele>
        <time>2021-04-18T11:29:23Z</time>
      </trkpt>
      <trkpt lat="43.96825" lon="2.33483">
        <ele>438</ele>
        <time>2021-04-18T11:29:24Z</time>
      </trkpt>
      <trkpt lat="43.96824" lon="2.33485">
        <ele>438</ele>
        <time>2021-04-18T11:29:25Z</time>
      </trkpt>
      <trkpt lat="43.96824" lon="2.33487">
        <ele>438</ele>
        <time>2021-04-18T11:29:26Z</time>
      </trkpt>
      <trkpt lat="43.96822" lon="2.33489">
        <ele>438</ele>
        <time>2021-04-18T11:29:27Z</time>
      </trkpt>
      <trkpt lat="43.96822" lon="2.33491">
        <ele>438</ele>
        <time>2021-04-18T11:29:28Z</time>
      </trkpt>
      <trkpt lat="43.96821" lon="2.33494">
        <ele>438</ele>
        <time>2021-04-18T11:29:29Z</time>
      </trkpt>
      <trkpt lat="43.9682" lon="2.33497">
        <ele>438</ele>
        <time>2021-04-18T11:29:30Z</time>
      </trkpt>
      <trkpt lat="43.9682" lon="2.33499">
        <ele>437</ele>
        <time>2021-04-18T11:29:31Z</time>
      </trkpt>
      <trkpt lat="43.96819" lon="2.33501">
        <ele>438</ele>
        <time>2021-04-18T11:29:32Z</time>
      </trkpt>
      <trkpt lat="43.96818" lon="2.33503">
        <ele>438</ele>
        <time>2021-04-18T11:29:33Z</time>
      </trkpt>
      <trkpt lat="43.96817" lon="2.33505">
        <ele>438</ele>
        <time>2021-04-18T11:29:34Z</time>
      </trkpt>
      <trkpt lat="43.96816" lon="2.33507">
        <ele>438</ele>
        <time>2021-04-18T11:29:35Z</time>
      </trkpt>
      <trkpt lat="43.96816" lon="2.3351">
        <ele>438</ele>
        <time>2021-04-18T11:29:36Z</time>
      </trkpt>
      <trkpt lat="43.96815" lon="2.33512">
        <ele>439</ele>
        <time>2021-04-18T11:29:37Z</time>
      </trkpt>
      <trkpt lat="43.96815" lon="2.33514">
        <ele>439</ele>
        <time>2021-04-18T11:29:38Z</time>
      </trkpt>
      <trkpt lat="43.96814" lon="2.33516">
        <ele>439</ele>
        <time>2021-04-18T11:29:39Z</time>
      </trkpt>
      <trkpt lat="43.96813" lon="2.33518">
        <ele>438</ele>
        <time>2021-04-18T11:29:40Z</time>
      </trkpt>
      <trkpt lat="43.96813" lon="2.3352">
        <ele>438</ele>
        <time>2021-04-18T11:29:41Z</time>
      </trkpt>
      <trkpt lat="43.96812" lon="2.33522">
        <ele>438</ele>
        <time>2021-04-18T11:29:42Z</time>
      </trkpt>
      <trkpt lat="43.96811" lon="2.33524">
        <ele>438</ele>
        <time>2021-04-18T11:29:43Z</time>
      </trkpt>
      <trkpt lat="43.96811" lon="2.33526">
        <ele>438</ele>
        <time>2021-04-18T11:29:44Z</time>
      </trkpt>
      <trkpt lat="43.9681" lon="2.33528">
        <ele>438</ele>
        <time>2021-04-18T11:29:45Z</time>
      </trkpt>
      <trkpt lat="43.96809" lon="2.3353">
        <ele>438</ele>
        <time>2021-04-18T11:29:46Z</time>
      </trkpt>
      <trkpt lat="43.96808" lon="2.33532">
        <ele>438</ele>
        <time>2021-04-18T11:29:47Z</time>
      </trkpt>
      <trkpt lat="43.96808" lon="2.33534">
        <ele>438</ele>
        <time>2021-04-18T11:29:48Z</time>
      </trkpt>
      <trkpt lat="43.96807" lon="2.33536">
        <ele>438</ele>
        <time>2021-04-18T11:29:49Z</time>
      </trkpt>
      <trkpt lat="43.96806" lon="2.3354">
        <ele>437</ele>
        <time>2021-04-18T11:29:51Z</time>
      </trkpt>
      <trkpt lat="43.96806" lon="2.3354">
        <ele>437</ele>
        <time>2021-04-18T11:29:51Z</time>
      </trkpt>
      <trkpt lat="43.96805" lon="2.33542">
        <ele>437</ele>
        <time>2021-04-18T11:29:52Z</time>
      </trkpt>
      <trkpt lat="43.96804" lon="2.33544">
        <ele>437</ele>
        <time>2021-04-18T11:29:53Z</time>
      </trkpt>
      <trkpt lat="43.96804" lon="2.33546">
        <ele>437</ele>
        <time>2021-04-18T11:29:54Z</time>
      </trkpt>
      <trkpt lat="43.96803" lon="2.33548">
        <ele>437</ele>
        <time>2021-04-18T11:29:55Z</time>
      </trkpt>
      <trkpt lat="43.96802" lon="2.33549">
        <ele>437</ele>
        <time>2021-04-18T11:29:56Z</time>
      </trkpt>
      <trkpt lat="43.968" lon="2.33553">
        <ele>437</ele>
        <time>2021-04-18T11:29:58Z</time>
      </trkpt>
      <trkpt lat="43.968" lon="2.33555">
        <ele>437</ele>
        <time>2021-04-18T11:29:59Z</time>
      </trkpt>
      <trkpt lat="43.96798" lon="2.33556">
        <ele>436</ele>
        <time>2021-04-18T11:30:00Z</time>
      </trkpt>
      <trkpt lat="43.96796" lon="2.33557">
        <ele>437</ele>
        <time>2021-04-18T11:30:01Z</time>
      </trkpt>
      <trkpt lat="43.96795" lon="2.33558">
        <ele>437</ele>
        <time>2021-04-18T11:30:02Z</time>
      </trkpt>
      <trkpt lat="43.96793" lon="2.33559">
        <ele>438</ele>
        <time>2021-04-18T11:30:03Z</time>
      </trkpt>
      <trkpt lat="43.96793" lon="2.33559">
        <ele>438</ele>
        <time>2021-04-18T11:30:03Z</time>
      </trkpt>
      <trkpt lat="43.96791" lon="2.33559">
        <ele>438</ele>
        <time>2021-04-18T11:30:05Z</time>
      </trkpt>
      <trkpt lat="43.96791" lon="2.33559">
        <ele>438</ele>
        <time>2021-04-18T11:30:05Z</time>
      </trkpt>
      <trkpt lat="43.96788" lon="2.33559">
        <ele>438</ele>
        <time>2021-04-18T11:30:07Z</time>
      </trkpt>
      <trkpt lat="43.96788" lon="2.33559">
        <ele>438</ele>
        <time>2021-04-18T11:30:07Z</time>
      </trkpt>
      <trkpt lat="43.96786" lon="2.3356">
        <ele>438</ele>
        <time>2021-04-18T11:30:08Z</time>
      </trkpt>
      <trkpt lat="43.96783" lon="2.33559">
        <ele>438</ele>
        <time>2021-04-18T11:30:10Z</time>
      </trkpt>
      <trkpt lat="43.96783" lon="2.33559">
        <ele>438</ele>
        <time>2021-04-18T11:30:10Z</time>
      </trkpt>
      <trkpt lat="43.9678" lon="2.3356">
        <ele>437</ele>
        <time>2021-04-18T11:30:12Z</time>
      </trkpt>
      <trkpt lat="43.9678" lon="2.3356">
        <ele>437</ele>
        <time>2021-04-18T11:30:12Z</time>
      </trkpt>
      <trkpt lat="43.96777" lon="2.3356">
        <ele>437</ele>
        <time>2021-04-18T11:30:14Z</time>
      </trkpt>
      <trkpt lat="43.96776" lon="2.33561">
        <ele>437</ele>
        <time>2021-04-18T11:30:15Z</time>
      </trkpt>
      <trkpt lat="43.96774" lon="2.33561">
        <ele>437</ele>
        <time>2021-04-18T11:30:16Z</time>
      </trkpt>
      <trkpt lat="43.96772" lon="2.33561">
        <ele>437</ele>
        <time>2021-04-18T11:30:17Z</time>
      </trkpt>
      <trkpt lat="43.96771" lon="2.33561">
        <ele>436</ele>
        <time>2021-04-18T11:30:18Z</time>
      </trkpt>
      <trkpt lat="43.96769" lon="2.33561">
        <ele>437</ele>
        <time>2021-04-18T11:30:19Z</time>
      </trkpt>
      <trkpt lat="43.96769" lon="2.33561">
        <ele>437</ele>
        <time>2021-04-18T11:30:19Z</time>
      </trkpt>
      <trkpt lat="43.96766" lon="2.33561">
        <ele>436</ele>
        <time>2021-04-18T11:30:21Z</time>
      </trkpt>
      <trkpt lat="43.96766" lon="2.33561">
        <ele>436</ele>
        <time>2021-04-18T11:30:21Z</time>
      </trkpt>
      <trkpt lat="43.96764" lon="2.33561">
        <ele>437</ele>
        <time>2021-04-18T11:30:22Z</time>
      </trkpt>
      <trkpt lat="43.9676" lon="2.33562">
        <ele>437</ele>
        <time>2021-04-18T11:30:24Z</time>
      </trkpt>
      <trkpt lat="43.9676" lon="2.33562">
        <ele>437</ele>
        <time>2021-04-18T11:30:24Z</time>
      </trkpt>
      <trkpt lat="43.96757" lon="2.33562">
        <ele>438</ele>
        <time>2021-04-18T11:30:26Z</time>
      </trkpt>
      <trkpt lat="43.96757" lon="2.33562">
        <ele>438</ele>
        <time>2021-04-18T11:30:26Z</time>
      </trkpt>
      <trkpt lat="43.96753" lon="2.33562">
        <ele>437</ele>
        <time>2021-04-18T11:30:28Z</time>
      </trkpt>
      <trkpt lat="43.96751" lon="2.33561">
        <ele>438</ele>
        <time>2021-04-18T11:30:29Z</time>
      </trkpt>
      <trkpt lat="43.9675" lon="2.33561">
        <ele>438</ele>
        <time>2021-04-18T11:30:30Z</time>
      </trkpt>
      <trkpt lat="43.96748" lon="2.33561">
        <ele>438</ele>
        <time>2021-04-18T11:30:31Z</time>
      </trkpt>
      <trkpt lat="43.96748" lon="2.33561">
        <ele>438</ele>
        <time>2021-04-18T11:30:31Z</time>
      </trkpt>
      <trkpt lat="43.96747" lon="2.33561">
        <ele>438</ele>
        <time>2021-04-18T11:30:32Z</time>
      </trkpt>
      <trkpt lat="43.96745" lon="2.3356">
        <ele>438</ele>
        <time>2021-04-18T11:30:34Z</time>
      </trkpt>
      <trkpt lat="43.96745" lon="2.3356">
        <ele>438</ele>
        <time>2021-04-18T11:30:34Z</time>
      </trkpt>
      <trkpt lat="43.96743" lon="2.3356">
        <ele>438</ele>
        <time>2021-04-18T11:30:35Z</time>
      </trkpt>
      <trkpt lat="43.96742" lon="2.3356">
        <ele>439</ele>
        <time>2021-04-18T11:30:36Z</time>
      </trkpt>
      <trkpt lat="43.9674" lon="2.3356">
        <ele>439</ele>
        <time>2021-04-18T11:30:37Z</time>
      </trkpt>
      <trkpt lat="43.96738" lon="2.3356">
        <ele>439</ele>
        <time>2021-04-18T11:30:38Z</time>
      </trkpt>
      <trkpt lat="43.96737" lon="2.3356">
        <ele>439</ele>
        <time>2021-04-18T11:30:39Z</time>
      </trkpt>
      <trkpt lat="43.96735" lon="2.33559">
        <ele>439</ele>
        <time>2021-04-18T11:30:40Z</time>
      </trkpt>
      <trkpt lat="43.96734" lon="2.33559">
        <ele>439</ele>
        <time>2021-04-18T11:30:41Z</time>
      </trkpt>
      <trkpt lat="43.9673" lon="2.33559">
        <ele>439</ele>
        <time>2021-04-18T11:30:43Z</time>
      </trkpt>
      <trkpt lat="43.9673" lon="2.33559">
        <ele>439</ele>
        <time>2021-04-18T11:30:43Z</time>
      </trkpt>
      <trkpt lat="43.96727" lon="2.33557">
        <ele>439</ele>
        <time>2021-04-18T11:30:45Z</time>
      </trkpt>
      <trkpt lat="43.96727" lon="2.33557">
        <ele>439</ele>
        <time>2021-04-18T11:30:45Z</time>
      </trkpt>
      <trkpt lat="43.96726" lon="2.33557">
        <ele>439</ele>
        <time>2021-04-18T11:30:46Z</time>
      </trkpt>
      <trkpt lat="43.96724" lon="2.33556">
        <ele>438</ele>
        <time>2021-04-18T11:30:47Z</time>
      </trkpt>
      <trkpt lat="43.96723" lon="2.33556">
        <ele>438</ele>
        <time>2021-04-18T11:30:48Z</time>
      </trkpt>
      <trkpt lat="43.96722" lon="2.33556">
        <ele>438</ele>
        <time>2021-04-18T11:30:49Z</time>
      </trkpt>
      <trkpt lat="43.9672" lon="2.33556">
        <ele>438</ele>
        <time>2021-04-18T11:30:50Z</time>
      </trkpt>
      <trkpt lat="43.96719" lon="2.33556">
        <ele>438</ele>
        <time>2021-04-18T11:30:51Z</time>
      </trkpt>
      <trkpt lat="43.96718" lon="2.33555">
        <ele>438</ele>
        <time>2021-04-18T11:30:52Z</time>
      </trkpt>
      <trkpt lat="43.96716" lon="2.33555">
        <ele>437</ele>
        <time>2021-04-18T11:30:53Z</time>
      </trkpt>
      <trkpt lat="43.96714" lon="2.33555">
        <ele>437</ele>
        <time>2021-04-18T11:30:54Z</time>
      </trkpt>
      <trkpt lat="43.96711" lon="2.33554">
        <ele>437</ele>
        <time>2021-04-18T11:30:56Z</time>
      </trkpt>
      <trkpt lat="43.96711" lon="2.33554">
        <ele>437</ele>
        <time>2021-04-18T11:30:56Z</time>
      </trkpt>
      <trkpt lat="43.96709" lon="2.33554">
        <ele>437</ele>
        <time>2021-04-18T11:30:57Z</time>
      </trkpt>
      <trkpt lat="43.96707" lon="2.33554">
        <ele>436</ele>
        <time>2021-04-18T11:30:58Z</time>
      </trkpt>
      <trkpt lat="43.96705" lon="2.33553">
        <ele>436</ele>
        <time>2021-04-18T11:30:59Z</time>
      </trkpt>
      <trkpt lat="43.96703" lon="2.33553">
        <ele>436</ele>
        <time>2021-04-18T11:31:00Z</time>
      </trkpt>
      <trkpt lat="43.96702" lon="2.33553">
        <ele>437</ele>
        <time>2021-04-18T11:31:01Z</time>
      </trkpt>
      <trkpt lat="43.96701" lon="2.33555">
        <ele>437</ele>
        <time>2021-04-18T11:31:02Z</time>
      </trkpt>
      <trkpt lat="43.967" lon="2.33558">
        <ele>436</ele>
        <time>2021-04-18T11:31:04Z</time>
      </trkpt>
      <trkpt lat="43.96698" lon="2.3356">
        <ele>437</ele>
        <time>2021-04-18T11:31:05Z</time>
      </trkpt>
      <trkpt lat="43.96698" lon="2.3356">
        <ele>437</ele>
        <time>2021-04-18T11:31:05Z</time>
      </trkpt>
      <trkpt lat="43.96698" lon="2.33561">
        <ele>436</ele>
        <time>2021-04-18T11:31:06Z</time>
      </trkpt>
      <trkpt lat="43.96697" lon="2.33563">
        <ele>436</ele>
        <time>2021-04-18T11:31:07Z</time>
      </trkpt>
      <trkpt lat="43.96697" lon="2.33566">
        <ele>436</ele>
        <time>2021-04-18T11:31:08Z</time>
      </trkpt>
      <trkpt lat="43.96697" lon="2.33568">
        <ele>437</ele>
        <time>2021-04-18T11:31:09Z</time>
      </trkpt>
      <trkpt lat="43.96696" lon="2.3357">
        <ele>437</ele>
        <time>2021-04-18T11:31:10Z</time>
      </trkpt>
      <trkpt lat="43.96695" lon="2.33572">
        <ele>437</ele>
        <time>2021-04-18T11:31:11Z</time>
      </trkpt>
      <trkpt lat="43.96694" lon="2.33576">
        <ele>437</ele>
        <time>2021-04-18T11:31:13Z</time>
      </trkpt>
      <trkpt lat="43.96693" lon="2.33578">
        <ele>436</ele>
        <time>2021-04-18T11:31:14Z</time>
      </trkpt>
      <trkpt lat="43.96693" lon="2.33578">
        <ele>436</ele>
        <time>2021-04-18T11:31:14Z</time>
      </trkpt>
      <trkpt lat="43.96693" lon="2.3358">
        <ele>436</ele>
        <time>2021-04-18T11:31:15Z</time>
      </trkpt>
      <trkpt lat="43.96693" lon="2.33581">
        <ele>436</ele>
        <time>2021-04-18T11:31:16Z</time>
      </trkpt>
      <trkpt lat="43.96692" lon="2.33582">
        <ele>437</ele>
        <time>2021-04-18T11:31:17Z</time>
      </trkpt>
      <trkpt lat="43.96692" lon="2.33584">
        <ele>437</ele>
        <time>2021-04-18T11:31:18Z</time>
      </trkpt>
      <trkpt lat="43.9669" lon="2.33588">
        <ele>437</ele>
        <time>2021-04-18T11:31:20Z</time>
      </trkpt>
      <trkpt lat="43.9669" lon="2.33588">
        <ele>437</ele>
        <time>2021-04-18T11:31:20Z</time>
      </trkpt>
      <trkpt lat="43.9669" lon="2.33591">
        <ele>437</ele>
        <time>2021-04-18T11:31:22Z</time>
      </trkpt>
      <trkpt lat="43.9669" lon="2.33591">
        <ele>437</ele>
        <time>2021-04-18T11:31:22Z</time>
      </trkpt>
      <trkpt lat="43.9669" lon="2.33593">
        <ele>437</ele>
        <time>2021-04-18T11:31:23Z</time>
      </trkpt>
      <trkpt lat="43.9669" lon="2.33595">
        <ele>437</ele>
        <time>2021-04-18T11:31:24Z</time>
      </trkpt>
      <trkpt lat="43.96689" lon="2.33596">
        <ele>437</ele>
        <time>2021-04-18T11:31:25Z</time>
      </trkpt>
      <trkpt lat="43.96688" lon="2.336">
        <ele>437</ele>
        <time>2021-04-18T11:31:27Z</time>
      </trkpt>
      <trkpt lat="43.96688" lon="2.336">
        <ele>437</ele>
        <time>2021-04-18T11:31:27Z</time>
      </trkpt>
      <trkpt lat="43.96687" lon="2.33603">
        <ele>437</ele>
        <time>2021-04-18T11:31:28Z</time>
      </trkpt>
      <trkpt lat="43.96687" lon="2.33605">
        <ele>437</ele>
        <time>2021-04-18T11:31:29Z</time>
      </trkpt>
      <trkpt lat="43.96686" lon="2.33607">
        <ele>438</ele>
        <time>2021-04-18T11:31:30Z</time>
      </trkpt>
      <trkpt lat="43.96685" lon="2.33609">
        <ele>438</ele>
        <time>2021-04-18T11:31:31Z</time>
      </trkpt>
      <trkpt lat="43.96685" lon="2.33611">
        <ele>438</ele>
        <time>2021-04-18T11:31:32Z</time>
      </trkpt>
      <trkpt lat="43.96684" lon="2.33613">
        <ele>438</ele>
        <time>2021-04-18T11:31:33Z</time>
      </trkpt>
      <trkpt lat="43.96684" lon="2.33615">
        <ele>438</ele>
        <time>2021-04-18T11:31:34Z</time>
      </trkpt>
      <trkpt lat="43.96684" lon="2.33617">
        <ele>438</ele>
        <time>2021-04-18T11:31:35Z</time>
      </trkpt>
      <trkpt lat="43.96683" lon="2.33619">
        <ele>439</ele>
        <time>2021-04-18T11:31:36Z</time>
      </trkpt>
      <trkpt lat="43.96682" lon="2.33621">
        <ele>439</ele>
        <time>2021-04-18T11:31:37Z</time>
      </trkpt>
      <trkpt lat="43.96681" lon="2.33624">
        <ele>439</ele>
        <time>2021-04-18T11:31:39Z</time>
      </trkpt>
      <trkpt lat="43.9668" lon="2.33626">
        <ele>439</ele>
        <time>2021-04-18T11:31:40Z</time>
      </trkpt>
      <trkpt lat="43.9668" lon="2.33626">
        <ele>439</ele>
        <time>2021-04-18T11:31:40Z</time>
      </trkpt>
      <trkpt lat="43.9668" lon="2.33628">
        <ele>439</ele>
        <time>2021-04-18T11:31:41Z</time>
      </trkpt>
      <trkpt lat="43.96679" lon="2.3363">
        <ele>439</ele>
        <time>2021-04-18T11:31:42Z</time>
      </trkpt>
      <trkpt lat="43.96677" lon="2.33633">
        <ele>438</ele>
        <time>2021-04-18T11:31:44Z</time>
      </trkpt>
      <trkpt lat="43.96676" lon="2.33635">
        <ele>438</ele>
        <time>2021-04-18T11:31:45Z</time>
      </trkpt>
      <trkpt lat="43.96676" lon="2.33635">
        <ele>438</ele>
        <time>2021-04-18T11:31:45Z</time>
      </trkpt>
      <trkpt lat="43.96674" lon="2.33637">
        <ele>437</ele>
        <time>2021-04-18T11:31:46Z</time>
      </trkpt>
      <trkpt lat="43.96671" lon="2.33641">
        <ele>438</ele>
        <time>2021-04-18T11:31:48Z</time>
      </trkpt>
      <trkpt lat="43.9667" lon="2.33643">
        <ele>438</ele>
        <time>2021-04-18T11:31:49Z</time>
      </trkpt>
      <trkpt lat="43.9667" lon="2.33643">
        <ele>438</ele>
        <time>2021-04-18T11:31:49Z</time>
      </trkpt>
      <trkpt lat="43.96668" lon="2.33646">
        <ele>438</ele>
        <time>2021-04-18T11:31:51Z</time>
      </trkpt>
      <trkpt lat="43.96667" lon="2.33647">
        <ele>438</ele>
        <time>2021-04-18T11:31:52Z</time>
      </trkpt>
      <trkpt lat="43.96665" lon="2.33648">
        <ele>439</ele>
        <time>2021-04-18T11:31:53Z</time>
      </trkpt>
      <trkpt lat="43.96664" lon="2.33649">
        <ele>439</ele>
        <time>2021-04-18T11:31:54Z</time>
      </trkpt>
      <trkpt lat="43.96664" lon="2.33649">
        <ele>439</ele>
        <time>2021-04-18T11:31:54Z</time>
      </trkpt>
      <trkpt lat="43.96663" lon="2.33651">
        <ele>439</ele>
        <time>2021-04-18T11:31:55Z</time>
      </trkpt>
      <trkpt lat="43.96661" lon="2.33652">
        <ele>439</ele>
        <time>2021-04-18T11:31:56Z</time>
      </trkpt>
      <trkpt lat="43.96661" lon="2.33653">
        <ele>439</ele>
        <time>2021-04-18T11:31:57Z</time>
      </trkpt>
      <trkpt lat="43.9666" lon="2.33655">
        <ele>438</ele>
        <time>2021-04-18T11:31:58Z</time>
      </trkpt>
      <trkpt lat="43.96659" lon="2.33656">
        <ele>438</ele>
        <time>2021-04-18T11:31:59Z</time>
      </trkpt>
      <trkpt lat="43.96658" lon="2.33657">
        <ele>438</ele>
        <time>2021-04-18T11:32:00Z</time>
      </trkpt>
      <trkpt lat="43.96656" lon="2.33659">
        <ele>438</ele>
        <time>2021-04-18T11:32:01Z</time>
      </trkpt>
      <trkpt lat="43.96655" lon="2.3366">
        <ele>438</ele>
        <time>2021-04-18T11:32:02Z</time>
      </trkpt>
      <trkpt lat="43.96654" lon="2.33662">
        <ele>437</ele>
        <time>2021-04-18T11:32:03Z</time>
      </trkpt>
      <trkpt lat="43.96652" lon="2.33662">
        <ele>437</ele>
        <time>2021-04-18T11:32:04Z</time>
      </trkpt>
      <trkpt lat="43.96651" lon="2.33663">
        <ele>437</ele>
        <time>2021-04-18T11:32:05Z</time>
      </trkpt>
      <trkpt lat="43.9665" lon="2.33664">
        <ele>437</ele>
        <time>2021-04-18T11:32:06Z</time>
      </trkpt>
      <trkpt lat="43.96649" lon="2.33666">
        <ele>437</ele>
        <time>2021-04-18T11:32:07Z</time>
      </trkpt>
      <trkpt lat="43.96647" lon="2.33667">
        <ele>437</ele>
        <time>2021-04-18T11:32:08Z</time>
      </trkpt>
      <trkpt lat="43.96646" lon="2.33668">
        <ele>437</ele>
        <time>2021-04-18T11:32:09Z</time>
      </trkpt>
      <trkpt lat="43.96645" lon="2.3367">
        <ele>437</ele>
        <time>2021-04-18T11:32:10Z</time>
      </trkpt>
      <trkpt lat="43.96643" lon="2.33671">
        <ele>437</ele>
        <time>2021-04-18T11:32:11Z</time>
      </trkpt>
      <trkpt lat="43.96642" lon="2.33672">
        <ele>437</ele>
        <time>2021-04-18T11:32:12Z</time>
      </trkpt>
      <trkpt lat="43.96641" lon="2.33674">
        <ele>436</ele>
        <time>2021-04-18T11:32:13Z</time>
      </trkpt>
      <trkpt lat="43.9664" lon="2.33676">
        <ele>436</ele>
        <time>2021-04-18T11:32:14Z</time>
      </trkpt>
      <trkpt lat="43.96639" lon="2.33677">
        <ele>436</ele>
        <time>2021-04-18T11:32:15Z</time>
      </trkpt>
      <trkpt lat="43.96637" lon="2.33679">
        <ele>436</ele>
        <time>2021-04-18T11:32:16Z</time>
      </trkpt>
      <trkpt lat="43.96637" lon="2.33681">
        <ele>435</ele>
        <time>2021-04-18T11:32:17Z</time>
      </trkpt>
      <trkpt lat="43.96635" lon="2.33682">
        <ele>435</ele>
        <time>2021-04-18T11:32:18Z</time>
      </trkpt>
      <trkpt lat="43.96634" lon="2.33682">
        <ele>435</ele>
        <time>2021-04-18T11:32:19Z</time>
      </trkpt>
      <trkpt lat="43.96634" lon="2.33682">
        <ele>435</ele>
        <time>2021-04-18T11:32:20Z</time>
      </trkpt>
      <trkpt lat="43.96634" lon="2.33682">
        <ele>435</ele>
        <time>2021-04-18T11:32:21Z</time>
      </trkpt>
      <trkpt lat="43.96634" lon="2.33682">
        <ele>435</ele>
        <time>2021-04-18T11:32:22Z</time>
      </trkpt>
      <trkpt lat="43.96632" lon="2.33682">
        <ele>435</ele>
        <time>2021-04-18T11:32:23Z</time>
      </trkpt>
      <trkpt lat="43.96631" lon="2.33682">
        <ele>435</ele>
        <time>2021-04-18T11:32:24Z</time>
      </trkpt>
      <trkpt lat="43.9663" lon="2.33683">
        <ele>435</ele>
        <time>2021-04-18T11:32:25Z</time>
      </trkpt>
      <trkpt lat="43.96629" lon="2.33684">
        <ele>435</ele>
        <time>2021-04-18T11:32:26Z</time>
      </trkpt>
      <trkpt lat="43.96628" lon="2.33685">
        <ele>435</ele>
        <time>2021-04-18T11:32:27Z</time>
      </trkpt>
      <trkpt lat="43.96627" lon="2.33686">
        <ele>435</ele>
        <time>2021-04-18T11:32:28Z</time>
      </trkpt>
      <trkpt lat="43.96625" lon="2.33687">
        <ele>435</ele>
        <time>2021-04-18T11:32:29Z</time>
      </trkpt>
      <trkpt lat="43.96624" lon="2.33688">
        <ele>435</ele>
        <time>2021-04-18T11:32:30Z</time>
      </trkpt>
      <trkpt lat="43.96622" lon="2.33689">
        <ele>435</ele>
        <time>2021-04-18T11:32:31Z</time>
      </trkpt>
      <trkpt lat="43.9662" lon="2.33689">
        <ele>435</ele>
        <time>2021-04-18T11:32:32Z</time>
      </trkpt>
      <trkpt lat="43.96618" lon="2.33689">
        <ele>435</ele>
        <time>2021-04-18T11:32:33Z</time>
      </trkpt>
      <trkpt lat="43.96617" lon="2.33689">
        <ele>435</ele>
        <time>2021-04-18T11:32:34Z</time>
      </trkpt>
      <trkpt lat="43.96616" lon="2.33689">
        <ele>436</ele>
        <time>2021-04-18T11:32:35Z</time>
      </trkpt>
      <trkpt lat="43.96615" lon="2.33689">
        <ele>436</ele>
        <time>2021-04-18T11:32:36Z</time>
      </trkpt>
      <trkpt lat="43.96612" lon="2.33689">
        <ele>437</ele>
        <time>2021-04-18T11:32:37Z</time>
      </trkpt>
      <trkpt lat="43.96611" lon="2.33689">
        <ele>437</ele>
        <time>2021-04-18T11:32:38Z</time>
      </trkpt>
      <trkpt lat="43.96609" lon="2.33689">
        <ele>437</ele>
        <time>2021-04-18T11:32:39Z</time>
      </trkpt>
      <trkpt lat="43.96608" lon="2.33689">
        <ele>437</ele>
        <time>2021-04-18T11:32:40Z</time>
      </trkpt>
      <trkpt lat="43.96606" lon="2.33689">
        <ele>437</ele>
        <time>2021-04-18T11:32:41Z</time>
      </trkpt>
      <trkpt lat="43.96605" lon="2.3369">
        <ele>437</ele>
        <time>2021-04-18T11:32:42Z</time>
      </trkpt>
      <trkpt lat="43.96603" lon="2.3369">
        <ele>437</ele>
        <time>2021-04-18T11:32:43Z</time>
      </trkpt>
      <trkpt lat="43.96602" lon="2.33691">
        <ele>437</ele>
        <time>2021-04-18T11:32:44Z</time>
      </trkpt>
      <trkpt lat="43.96601" lon="2.33691">
        <ele>438</ele>
        <time>2021-04-18T11:32:45Z</time>
      </trkpt>
      <trkpt lat="43.966" lon="2.33692">
        <ele>438</ele>
        <time>2021-04-18T11:32:46Z</time>
      </trkpt>
      <trkpt lat="43.96598" lon="2.33693">
        <ele>438</ele>
        <time>2021-04-18T11:32:47Z</time>
      </trkpt>
      <trkpt lat="43.96597" lon="2.33694">
        <ele>438</ele>
        <time>2021-04-18T11:32:48Z</time>
      </trkpt>
      <trkpt lat="43.96594" lon="2.33695">
        <ele>438</ele>
        <time>2021-04-18T11:32:49Z</time>
      </trkpt>
      <trkpt lat="43.96592" lon="2.33696">
        <ele>437</ele>
        <time>2021-04-18T11:32:50Z</time>
      </trkpt>
      <trkpt lat="43.9659" lon="2.33697">
        <ele>437</ele>
        <time>2021-04-18T11:32:51Z</time>
      </trkpt>
      <trkpt lat="43.96589" lon="2.33698">
        <ele>437</ele>
        <time>2021-04-18T11:32:52Z</time>
      </trkpt>
      <trkpt lat="43.96588" lon="2.33699">
        <ele>438</ele>
        <time>2021-04-18T11:32:53Z</time>
      </trkpt>
      <trkpt lat="43.96587" lon="2.337">
        <ele>438</ele>
        <time>2021-04-18T11:32:54Z</time>
      </trkpt>
      <trkpt lat="43.96586" lon="2.337">
        <ele>438</ele>
        <time>2021-04-18T11:32:55Z</time>
      </trkpt>
      <trkpt lat="43.96586" lon="2.33702">
        <ele>438</ele>
        <time>2021-04-18T11:32:56Z</time>
      </trkpt>
      <trkpt lat="43.96585" lon="2.33703">
        <ele>438</ele>
        <time>2021-04-18T11:32:57Z</time>
      </trkpt>
      <trkpt lat="43.96584" lon="2.33704">
        <ele>438</ele>
        <time>2021-04-18T11:32:58Z</time>
      </trkpt>
      <trkpt lat="43.96583" lon="2.33706">
        <ele>438</ele>
        <time>2021-04-18T11:32:59Z</time>
      </trkpt>
      <trkpt lat="43.96582" lon="2.33708">
        <ele>438</ele>
        <time>2021-04-18T11:33:00Z</time>
      </trkpt>
      <trkpt lat="43.96581" lon="2.33711">
        <ele>438</ele>
        <time>2021-04-18T11:33:01Z</time>
      </trkpt>
      <trkpt lat="43.96581" lon="2.33712">
        <ele>437</ele>
        <time>2021-04-18T11:33:02Z</time>
      </trkpt>
      <trkpt lat="43.9658" lon="2.33714">
        <ele>437</ele>
        <time>2021-04-18T11:33:03Z</time>
      </trkpt>
      <trkpt lat="43.96579" lon="2.33717">
        <ele>437</ele>
        <time>2021-04-18T11:33:04Z</time>
      </trkpt>
      <trkpt lat="43.96579" lon="2.33718">
        <ele>437</ele>
        <time>2021-04-18T11:33:05Z</time>
      </trkpt>
      <trkpt lat="43.96578" lon="2.33723">
        <ele>437</ele>
        <time>2021-04-18T11:33:07Z</time>
      </trkpt>
      <trkpt lat="43.96578" lon="2.33723">
        <ele>437</ele>
        <time>2021-04-18T11:33:07Z</time>
      </trkpt>
      <trkpt lat="43.96578" lon="2.33725">
        <ele>437</ele>
        <time>2021-04-18T11:33:08Z</time>
      </trkpt>
      <trkpt lat="43.96578" lon="2.33727">
        <ele>437</ele>
        <time>2021-04-18T11:33:09Z</time>
      </trkpt>
      <trkpt lat="43.96578" lon="2.33729">
        <ele>437</ele>
        <time>2021-04-18T11:33:10Z</time>
      </trkpt>
      <trkpt lat="43.96578" lon="2.33731">
        <ele>437</ele>
        <time>2021-04-18T11:33:11Z</time>
      </trkpt>
      <trkpt lat="43.96578" lon="2.33733">
        <ele>437</ele>
        <time>2021-04-18T11:33:12Z</time>
      </trkpt>
      <trkpt lat="43.96577" lon="2.33738">
        <ele>437</ele>
        <time>2021-04-18T11:33:14Z</time>
      </trkpt>
      <trkpt lat="43.96577" lon="2.33738">
        <ele>437</ele>
        <time>2021-04-18T11:33:14Z</time>
      </trkpt>
      <trkpt lat="43.96577" lon="2.33743">
        <ele>437</ele>
        <time>2021-04-18T11:33:16Z</time>
      </trkpt>
      <trkpt lat="43.96577" lon="2.33743">
        <ele>437</ele>
        <time>2021-04-18T11:33:16Z</time>
      </trkpt>
      <trkpt lat="43.96577" lon="2.33745">
        <ele>437</ele>
        <time>2021-04-18T11:33:17Z</time>
      </trkpt>
      <trkpt lat="43.96577" lon="2.33747">
        <ele>437</ele>
        <time>2021-04-18T11:33:18Z</time>
      </trkpt>
      <trkpt lat="43.96576" lon="2.33749">
        <ele>438</ele>
        <time>2021-04-18T11:33:19Z</time>
      </trkpt>
      <trkpt lat="43.96576" lon="2.33751">
        <ele>438</ele>
        <time>2021-04-18T11:33:20Z</time>
      </trkpt>
      <trkpt lat="43.96576" lon="2.33754">
        <ele>438</ele>
        <time>2021-04-18T11:33:21Z</time>
      </trkpt>
      <trkpt lat="43.96576" lon="2.33756">
        <ele>438</ele>
        <time>2021-04-18T11:33:22Z</time>
      </trkpt>
      <trkpt lat="43.96576" lon="2.33758">
        <ele>438</ele>
        <time>2021-04-18T11:33:23Z</time>
      </trkpt>
      <trkpt lat="43.96576" lon="2.3376">
        <ele>437</ele>
        <time>2021-04-18T11:33:24Z</time>
      </trkpt>
      <trkpt lat="43.96576" lon="2.33762">
        <ele>437</ele>
        <time>2021-04-18T11:33:25Z</time>
      </trkpt>
      <trkpt lat="43.96576" lon="2.33764">
        <ele>437</ele>
        <time>2021-04-18T11:33:26Z</time>
      </trkpt>
      <trkpt lat="43.96576" lon="2.33766">
        <ele>438</ele>
        <time>2021-04-18T11:33:27Z</time>
      </trkpt>
      <trkpt lat="43.96576" lon="2.33768">
        <ele>437</ele>
        <time>2021-04-18T11:33:28Z</time>
      </trkpt>
      <trkpt lat="43.96576" lon="2.3377">
        <ele>437</ele>
        <time>2021-04-18T11:33:29Z</time>
      </trkpt>
      <trkpt lat="43.96576" lon="2.33772">
        <ele>437</ele>
        <time>2021-04-18T11:33:30Z</time>
      </trkpt>
      <trkpt lat="43.96576" lon="2.33774">
        <ele>437</ele>
        <time>2021-04-18T11:33:31Z</time>
      </trkpt>
      <trkpt lat="43.96575" lon="2.33777">
        <ele>438</ele>
        <time>2021-04-18T11:33:32Z</time>
      </trkpt>
      <trkpt lat="43.96576" lon="2.33782">
        <ele>438</ele>
        <time>2021-04-18T11:33:34Z</time>
      </trkpt>
      <trkpt lat="43.96576" lon="2.33784">
        <ele>438</ele>
        <time>2021-04-18T11:33:35Z</time>
      </trkpt>
      <trkpt lat="43.96576" lon="2.33784">
        <ele>438</ele>
        <time>2021-04-18T11:33:35Z</time>
      </trkpt>
      <trkpt lat="43.96575" lon="2.33789">
        <ele>438</ele>
        <time>2021-04-18T11:33:37Z</time>
      </trkpt>
      <trkpt lat="43.96575" lon="2.33792">
        <ele>438</ele>
        <time>2021-04-18T11:33:38Z</time>
      </trkpt>
      <trkpt lat="43.96575" lon="2.33792">
        <ele>438</ele>
        <time>2021-04-18T11:33:38Z</time>
      </trkpt>
      <trkpt lat="43.96575" lon="2.33794">
        <ele>438</ele>
        <time>2021-04-18T11:33:39Z</time>
      </trkpt>
      <trkpt lat="43.96574" lon="2.33799">
        <ele>438</ele>
        <time>2021-04-18T11:33:41Z</time>
      </trkpt>
      <trkpt lat="43.96574" lon="2.33802">
        <ele>438</ele>
        <time>2021-04-18T11:33:42Z</time>
      </trkpt>
      <trkpt lat="43.96574" lon="2.33804">
        <ele>438</ele>
        <time>2021-04-18T11:33:43Z</time>
      </trkpt>
      <trkpt lat="43.96574" lon="2.33807">
        <ele>438</ele>
        <time>2021-04-18T11:33:44Z</time>
      </trkpt>
      <trkpt lat="43.96574" lon="2.33809">
        <ele>438</ele>
        <time>2021-04-18T11:33:45Z</time>
      </trkpt>
      <trkpt lat="43.96574" lon="2.33811">
        <ele>438</ele>
        <time>2021-04-18T11:33:46Z</time>
      </trkpt>
      <trkpt lat="43.96574" lon="2.33811">
        <ele>438</ele>
        <time>2021-04-18T11:33:46Z</time>
      </trkpt>
      <trkpt lat="43.96574" lon="2.33816">
        <ele>438</ele>
        <time>2021-04-18T11:33:48Z</time>
      </trkpt>
      <trkpt lat="43.96574" lon="2.33816">
        <ele>438</ele>
        <time>2021-04-18T11:33:48Z</time>
      </trkpt>
      <trkpt lat="43.96573" lon="2.33821">
        <ele>438</ele>
        <time>2021-04-18T11:33:50Z</time>
      </trkpt>
      <trkpt lat="43.96573" lon="2.33823">
        <ele>438</ele>
        <time>2021-04-18T11:33:51Z</time>
      </trkpt>
      <trkpt lat="43.96573" lon="2.33823">
        <ele>438</ele>
        <time>2021-04-18T11:33:51Z</time>
      </trkpt>
      <trkpt lat="43.96573" lon="2.33826">
        <ele>438</ele>
        <time>2021-04-18T11:33:53Z</time>
      </trkpt>
      <trkpt lat="43.96573" lon="2.33826">
        <ele>438</ele>
        <time>2021-04-18T11:33:53Z</time>
      </trkpt>
      <trkpt lat="43.96573" lon="2.3383">
        <ele>438</ele>
        <time>2021-04-18T11:33:55Z</time>
      </trkpt>
      <trkpt lat="43.96573" lon="2.3383">
        <ele>438</ele>
        <time>2021-04-18T11:33:55Z</time>
      </trkpt>
      <trkpt lat="43.96573" lon="2.33834">
        <ele>437</ele>
        <time>2021-04-18T11:33:57Z</time>
      </trkpt>
      <trkpt lat="43.96573" lon="2.33834">
        <ele>437</ele>
        <time>2021-04-18T11:33:57Z</time>
      </trkpt>
      <trkpt lat="43.96572" lon="2.33836">
        <ele>437</ele>
        <time>2021-04-18T11:33:58Z</time>
      </trkpt>
      <trkpt lat="43.96572" lon="2.33838">
        <ele>436</ele>
        <time>2021-04-18T11:33:59Z</time>
      </trkpt>
      <trkpt lat="43.96572" lon="2.3384">
        <ele>436</ele>
        <time>2021-04-18T11:34:00Z</time>
      </trkpt>
      <trkpt lat="43.96572" lon="2.33841">
        <ele>436</ele>
        <time>2021-04-18T11:34:01Z</time>
      </trkpt>
      <trkpt lat="43.96571" lon="2.33843">
        <ele>437</ele>
        <time>2021-04-18T11:34:02Z</time>
      </trkpt>
      <trkpt lat="43.96571" lon="2.33846">
        <ele>436</ele>
        <time>2021-04-18T11:34:03Z</time>
      </trkpt>
      <trkpt lat="43.96571" lon="2.33848">
        <ele>436</ele>
        <time>2021-04-18T11:34:04Z</time>
      </trkpt>
      <trkpt lat="43.96571" lon="2.3385">
        <ele>437</ele>
        <time>2021-04-18T11:34:05Z</time>
      </trkpt>
      <trkpt lat="43.96571" lon="2.33853">
        <ele>437</ele>
        <time>2021-04-18T11:34:06Z</time>
      </trkpt>
      <trkpt lat="43.96571" lon="2.33855">
        <ele>437</ele>
        <time>2021-04-18T11:34:07Z</time>
      </trkpt>
      <trkpt lat="43.96571" lon="2.33857">
        <ele>437</ele>
        <time>2021-04-18T11:34:08Z</time>
      </trkpt>
      <trkpt lat="43.96571" lon="2.33859">
        <ele>437</ele>
        <time>2021-04-18T11:34:09Z</time>
      </trkpt>
      <trkpt lat="43.96571" lon="2.33861">
        <ele>437</ele>
        <time>2021-04-18T11:34:10Z</time>
      </trkpt>
      <trkpt lat="43.96571" lon="2.33864">
        <ele>437</ele>
        <time>2021-04-18T11:34:11Z</time>
      </trkpt>
      <trkpt lat="43.96571" lon="2.33867">
        <ele>437</ele>
        <time>2021-04-18T11:34:12Z</time>
      </trkpt>
      <trkpt lat="43.96571" lon="2.33869">
        <ele>437</ele>
        <time>2021-04-18T11:34:13Z</time>
      </trkpt>
      <trkpt lat="43.96571" lon="2.33871">
        <ele>436</ele>
        <time>2021-04-18T11:34:14Z</time>
      </trkpt>
      <trkpt lat="43.96571" lon="2.33873">
        <ele>436</ele>
        <time>2021-04-18T11:34:15Z</time>
      </trkpt>
      <trkpt lat="43.96571" lon="2.33876">
        <ele>436</ele>
        <time>2021-04-18T11:34:16Z</time>
      </trkpt>
      <trkpt lat="43.96572" lon="2.33878">
        <ele>436</ele>
        <time>2021-04-18T11:34:17Z</time>
      </trkpt>
      <trkpt lat="43.96572" lon="2.3388">
        <ele>437</ele>
        <time>2021-04-18T11:34:18Z</time>
      </trkpt>
      <trkpt lat="43.96573" lon="2.33882">
        <ele>437</ele>
        <time>2021-04-18T11:34:19Z</time>
      </trkpt>
      <trkpt lat="43.96573" lon="2.33884">
        <ele>437</ele>
        <time>2021-04-18T11:34:20Z</time>
      </trkpt>
      <trkpt lat="43.96573" lon="2.33886">
        <ele>437</ele>
        <time>2021-04-18T11:34:21Z</time>
      </trkpt>
      <trkpt lat="43.96574" lon="2.33888">
        <ele>437</ele>
        <time>2021-04-18T11:34:22Z</time>
      </trkpt>
      <trkpt lat="43.96574" lon="2.3389">
        <ele>437</ele>
        <time>2021-04-18T11:34:23Z</time>
      </trkpt>
      <trkpt lat="43.96574" lon="2.33893">
        <ele>437</ele>
        <time>2021-04-18T11:34:24Z</time>
      </trkpt>
      <trkpt lat="43.96574" lon="2.33895">
        <ele>437</ele>
        <time>2021-04-18T11:34:25Z</time>
      </trkpt>
      <trkpt lat="43.96574" lon="2.33898">
        <ele>437</ele>
        <time>2021-04-18T11:34:26Z</time>
      </trkpt>
      <trkpt lat="43.96574" lon="2.339">
        <ele>437</ele>
        <time>2021-04-18T11:34:27Z</time>
      </trkpt>
      <trkpt lat="43.96574" lon="2.33902">
        <ele>437</ele>
        <time>2021-04-18T11:34:28Z</time>
      </trkpt>
      <trkpt lat="43.96575" lon="2.33904">
        <ele>437</ele>
        <time>2021-04-18T11:34:29Z</time>
      </trkpt>
      <trkpt lat="43.96576" lon="2.33906">
        <ele>436</ele>
        <time>2021-04-18T11:34:30Z</time>
      </trkpt>
      <trkpt lat="43.96576" lon="2.33908">
        <ele>436</ele>
        <time>2021-04-18T11:34:31Z</time>
      </trkpt>
      <trkpt lat="43.96577" lon="2.3391">
        <ele>435</ele>
        <time>2021-04-18T11:34:32Z</time>
      </trkpt>
      <trkpt lat="43.96577" lon="2.33912">
        <ele>435</ele>
        <time>2021-04-18T11:34:33Z</time>
      </trkpt>
      <trkpt lat="43.96578" lon="2.33914">
        <ele>435</ele>
        <time>2021-04-18T11:34:34Z</time>
      </trkpt>
      <trkpt lat="43.96579" lon="2.33916">
        <ele>435</ele>
        <time>2021-04-18T11:34:35Z</time>
      </trkpt>
      <trkpt lat="43.96579" lon="2.33918">
        <ele>435</ele>
        <time>2021-04-18T11:34:36Z</time>
      </trkpt>
      <trkpt lat="43.96579" lon="2.3392">
        <ele>435</ele>
        <time>2021-04-18T11:34:37Z</time>
      </trkpt>
      <trkpt lat="43.9658" lon="2.33921">
        <ele>435</ele>
        <time>2021-04-18T11:34:38Z</time>
      </trkpt>
      <trkpt lat="43.9658" lon="2.33923">
        <ele>435</ele>
        <time>2021-04-18T11:34:39Z</time>
      </trkpt>
      <trkpt lat="43.96581" lon="2.33926">
        <ele>435</ele>
        <time>2021-04-18T11:34:40Z</time>
      </trkpt>
      <trkpt lat="43.96581" lon="2.33928">
        <ele>436</ele>
        <time>2021-04-18T11:34:41Z</time>
      </trkpt>
      <trkpt lat="43.96582" lon="2.3393">
        <ele>436</ele>
        <time>2021-04-18T11:34:42Z</time>
      </trkpt>
      <trkpt lat="43.96583" lon="2.33932">
        <ele>436</ele>
        <time>2021-04-18T11:34:43Z</time>
      </trkpt>
      <trkpt lat="43.96584" lon="2.33934">
        <ele>436</ele>
        <time>2021-04-18T11:34:44Z</time>
      </trkpt>
      <trkpt lat="43.96584" lon="2.33935">
        <ele>436</ele>
        <time>2021-04-18T11:34:45Z</time>
      </trkpt>
      <trkpt lat="43.96584" lon="2.33937">
        <ele>436</ele>
        <time>2021-04-18T11:34:46Z</time>
      </trkpt>
      <trkpt lat="43.96584" lon="2.33939">
        <ele>437</ele>
        <time>2021-04-18T11:34:47Z</time>
      </trkpt>
      <trkpt lat="43.96584" lon="2.33941">
        <ele>437</ele>
        <time>2021-04-18T11:34:48Z</time>
      </trkpt>
      <trkpt lat="43.96584" lon="2.33943">
        <ele>437</ele>
        <time>2021-04-18T11:34:49Z</time>
      </trkpt>
      <trkpt lat="43.96584" lon="2.33946">
        <ele>436</ele>
        <time>2021-04-18T11:34:50Z</time>
      </trkpt>
      <trkpt lat="43.96585" lon="2.33948">
        <ele>436</ele>
        <time>2021-04-18T11:34:51Z</time>
      </trkpt>
      <trkpt lat="43.96585" lon="2.3395">
        <ele>436</ele>
        <time>2021-04-18T11:34:52Z</time>
      </trkpt>
      <trkpt lat="43.96585" lon="2.33952">
        <ele>436</ele>
        <time>2021-04-18T11:34:53Z</time>
      </trkpt>
      <trkpt lat="43.96584" lon="2.33954">
        <ele>436</ele>
        <time>2021-04-18T11:34:54Z</time>
      </trkpt>
      <trkpt lat="43.96584" lon="2.33956">
        <ele>436</ele>
        <time>2021-04-18T11:34:55Z</time>
      </trkpt>
      <trkpt lat="43.96584" lon="2.33958">
        <ele>436</ele>
        <time>2021-04-18T11:34:56Z</time>
      </trkpt>
      <trkpt lat="43.96584" lon="2.3396">
        <ele>436</ele>
        <time>2021-04-18T11:34:57Z</time>
      </trkpt>
      <trkpt lat="43.96584" lon="2.33962">
        <ele>436</ele>
        <time>2021-04-18T11:34:58Z</time>
      </trkpt>
      <trkpt lat="43.96583" lon="2.33964">
        <ele>435</ele>
        <time>2021-04-18T11:34:59Z</time>
      </trkpt>
      <trkpt lat="43.96582" lon="2.33969">
        <ele>435</ele>
        <time>2021-04-18T11:35:01Z</time>
      </trkpt>
      <trkpt lat="43.96582" lon="2.33969">
        <ele>435</ele>
        <time>2021-04-18T11:35:01Z</time>
      </trkpt>
      <trkpt lat="43.96582" lon="2.33971">
        <ele>435</ele>
        <time>2021-04-18T11:35:02Z</time>
      </trkpt>
      <trkpt lat="43.96582" lon="2.33974">
        <ele>435</ele>
        <time>2021-04-18T11:35:03Z</time>
      </trkpt>
      <trkpt lat="43.96581" lon="2.33976">
        <ele>435</ele>
        <time>2021-04-18T11:35:04Z</time>
      </trkpt>
      <trkpt lat="43.96581" lon="2.33979">
        <ele>435</ele>
        <time>2021-04-18T11:35:05Z</time>
      </trkpt>
      <trkpt lat="43.9658" lon="2.33981">
        <ele>435</ele>
        <time>2021-04-18T11:35:06Z</time>
      </trkpt>
      <trkpt lat="43.9658" lon="2.33983">
        <ele>435</ele>
        <time>2021-04-18T11:35:07Z</time>
      </trkpt>
      <trkpt lat="43.9658" lon="2.33986">
        <ele>435</ele>
        <time>2021-04-18T11:35:08Z</time>
      </trkpt>
      <trkpt lat="43.9658" lon="2.33988">
        <ele>435</ele>
        <time>2021-04-18T11:35:09Z</time>
      </trkpt>
      <trkpt lat="43.9658" lon="2.33989">
        <ele>435</ele>
        <time>2021-04-18T11:35:10Z</time>
      </trkpt>
      <trkpt lat="43.9658" lon="2.33992">
        <ele>435</ele>
        <time>2021-04-18T11:35:11Z</time>
      </trkpt>
      <trkpt lat="43.9658" lon="2.33994">
        <ele>434</ele>
        <time>2021-04-18T11:35:12Z</time>
      </trkpt>
      <trkpt lat="43.9658" lon="2.33995">
        <ele>435</ele>
        <time>2021-04-18T11:35:13Z</time>
      </trkpt>
      <trkpt lat="43.96579" lon="2.33999">
        <ele>434</ele>
        <time>2021-04-18T11:35:15Z</time>
      </trkpt>
      <trkpt lat="43.96579" lon="2.33999">
        <ele>434</ele>
        <time>2021-04-18T11:35:15Z</time>
      </trkpt>
      <trkpt lat="43.96579" lon="2.34001">
        <ele>435</ele>
        <time>2021-04-18T11:35:16Z</time>
      </trkpt>
      <trkpt lat="43.96578" lon="2.34003">
        <ele>435</ele>
        <time>2021-04-18T11:35:17Z</time>
      </trkpt>
      <trkpt lat="43.96578" lon="2.34005">
        <ele>435</ele>
        <time>2021-04-18T11:35:18Z</time>
      </trkpt>
      <trkpt lat="43.96578" lon="2.34007">
        <ele>434</ele>
        <time>2021-04-18T11:35:19Z</time>
      </trkpt>
      <trkpt lat="43.96578" lon="2.3401">
        <ele>434</ele>
        <time>2021-04-18T11:35:20Z</time>
      </trkpt>
      <trkpt lat="43.96577" lon="2.34011">
        <ele>434</ele>
        <time>2021-04-18T11:35:21Z</time>
      </trkpt>
      <trkpt lat="43.96577" lon="2.34013">
        <ele>433</ele>
        <time>2021-04-18T11:35:22Z</time>
      </trkpt>
      <trkpt lat="43.96577" lon="2.34015">
        <ele>433</ele>
        <time>2021-04-18T11:35:23Z</time>
      </trkpt>
      <trkpt lat="43.96577" lon="2.34018">
        <ele>433</ele>
        <time>2021-04-18T11:35:24Z</time>
      </trkpt>
      <trkpt lat="43.96577" lon="2.3402">
        <ele>434</ele>
        <time>2021-04-18T11:35:25Z</time>
      </trkpt>
      <trkpt lat="43.96577" lon="2.34021">
        <ele>435</ele>
        <time>2021-04-18T11:35:26Z</time>
      </trkpt>
      <trkpt lat="43.96576" lon="2.34024">
        <ele>435</ele>
        <time>2021-04-18T11:35:27Z</time>
      </trkpt>
      <trkpt lat="43.96576" lon="2.34026">
        <ele>435</ele>
        <time>2021-04-18T11:35:28Z</time>
      </trkpt>
      <trkpt lat="43.96576" lon="2.34028">
        <ele>434</ele>
        <time>2021-04-18T11:35:29Z</time>
      </trkpt>
      <trkpt lat="43.96576" lon="2.34029">
        <ele>434</ele>
        <time>2021-04-18T11:35:30Z</time>
      </trkpt>
      <trkpt lat="43.96576" lon="2.34032">
        <ele>434</ele>
        <time>2021-04-18T11:35:31Z</time>
      </trkpt>
      <trkpt lat="43.96576" lon="2.34034">
        <ele>434</ele>
        <time>2021-04-18T11:35:32Z</time>
      </trkpt>
      <trkpt lat="43.96576" lon="2.34037">
        <ele>434</ele>
        <time>2021-04-18T11:35:33Z</time>
      </trkpt>
      <trkpt lat="43.96576" lon="2.34039">
        <ele>434</ele>
        <time>2021-04-18T11:35:34Z</time>
      </trkpt>
      <trkpt lat="43.96576" lon="2.3404">
        <ele>433</ele>
        <time>2021-04-18T11:35:35Z</time>
      </trkpt>
      <trkpt lat="43.96575" lon="2.34042">
        <ele>433</ele>
        <time>2021-04-18T11:35:36Z</time>
      </trkpt>
      <trkpt lat="43.96574" lon="2.34044">
        <ele>434</ele>
        <time>2021-04-18T11:35:37Z</time>
      </trkpt>
      <trkpt lat="43.96574" lon="2.34047">
        <ele>434</ele>
        <time>2021-04-18T11:35:38Z</time>
      </trkpt>
      <trkpt lat="43.96574" lon="2.34049">
        <ele>434</ele>
        <time>2021-04-18T11:35:39Z</time>
      </trkpt>
      <trkpt lat="43.96574" lon="2.34051">
        <ele>434</ele>
        <time>2021-04-18T11:35:41Z</time>
      </trkpt>
      <trkpt lat="43.96574" lon="2.34051">
        <ele>434</ele>
        <time>2021-04-18T11:35:42Z</time>
      </trkpt>
      <trkpt lat="43.96574" lon="2.34051">
        <ele>435</ele>
        <time>2021-04-18T11:35:43Z</time>
      </trkpt>
      <trkpt lat="43.96574" lon="2.34051">
        <ele>435</ele>
        <time>2021-04-18T11:35:44Z</time>
      </trkpt>
      <trkpt lat="43.96574" lon="2.34051">
        <ele>435</ele>
        <time>2021-04-18T11:35:45Z</time>
      </trkpt>
      <trkpt lat="43.96574" lon="2.34051">
        <ele>435</ele>
        <time>2021-04-18T11:35:45Z</time>
      </trkpt>
      <trkpt lat="43.96574" lon="2.34051">
        <ele>435</ele>
        <time>2021-04-18T11:35:45Z</time>
      </trkpt>
      <trkpt lat="43.96574" lon="2.34051">
        <ele>435</ele>
        <time>2021-04-18T11:35:45Z</time>
      </trkpt>
      <trkpt lat="43.96573" lon="2.34057">
        <ele>436</ele>
        <time>2021-04-18T11:36:09Z</time>
      </trkpt>
      <trkpt lat="43.96573" lon="2.34059">
        <ele>435</ele>
        <time>2021-04-18T11:36:10Z</time>
      </trkpt>
      <trkpt lat="43.96573" lon="2.3406">
        <ele>435</ele>
        <time>2021-04-18T11:36:11Z</time>
      </trkpt>
      <trkpt lat="43.96572" lon="2.34062">
        <ele>435</ele>
        <time>2021-04-18T11:36:12Z</time>
      </trkpt>
      <trkpt lat="43.96572" lon="2.34063">
        <ele>436</ele>
        <time>2021-04-18T11:36:13Z</time>
      </trkpt>
      <trkpt lat="43.96572" lon="2.34064">
        <ele>436</ele>
        <time>2021-04-18T11:36:14Z</time>
      </trkpt>
      <trkpt lat="43.96572" lon="2.34065">
        <ele>436</ele>
        <time>2021-04-18T11:36:15Z</time>
      </trkpt>
      <trkpt lat="43.96572" lon="2.34066">
        <ele>436</ele>
        <time>2021-04-18T11:36:16Z</time>
      </trkpt>
      <trkpt lat="43.96571" lon="2.34067">
        <ele>437</ele>
        <time>2021-04-18T11:36:17Z</time>
      </trkpt>
      <trkpt lat="43.96571" lon="2.34068">
        <ele>437</ele>
        <time>2021-04-18T11:36:18Z</time>
      </trkpt>
      <trkpt lat="43.96571" lon="2.3407">
        <ele>437</ele>
        <time>2021-04-18T11:36:19Z</time>
      </trkpt>
      <trkpt lat="43.96571" lon="2.3407">
        <ele>437</ele>
        <time>2021-04-18T11:36:20Z</time>
      </trkpt>
      <trkpt lat="43.96571" lon="2.34071">
        <ele>437</ele>
        <time>2021-04-18T11:36:21Z</time>
      </trkpt>
      <trkpt lat="43.96572" lon="2.34071">
        <ele>437</ele>
        <time>2021-04-18T11:36:22Z</time>
      </trkpt>
      <trkpt lat="43.96571" lon="2.34071">
        <ele>437</ele>
        <time>2021-04-18T11:36:23Z</time>
      </trkpt>
      <trkpt lat="43.96569" lon="2.34073">
        <ele>437</ele>
        <time>2021-04-18T11:36:24Z</time>
      </trkpt>
      <trkpt lat="43.96568" lon="2.34074">
        <ele>437</ele>
        <time>2021-04-18T11:36:25Z</time>
      </trkpt>
      <trkpt lat="43.96568" lon="2.34076">
        <ele>436</ele>
        <time>2021-04-18T11:36:26Z</time>
      </trkpt>
      <trkpt lat="43.96566" lon="2.34077">
        <ele>436</ele>
        <time>2021-04-18T11:36:27Z</time>
      </trkpt>
      <trkpt lat="43.96565" lon="2.34079">
        <ele>436</ele>
        <time>2021-04-18T11:36:28Z</time>
      </trkpt>
      <trkpt lat="43.96565" lon="2.34081">
        <ele>437</ele>
        <time>2021-04-18T11:36:29Z</time>
      </trkpt>
      <trkpt lat="43.96564" lon="2.34082">
        <ele>436</ele>
        <time>2021-04-18T11:36:30Z</time>
      </trkpt>
      <trkpt lat="43.96563" lon="2.34084">
        <ele>436</ele>
        <time>2021-04-18T11:36:31Z</time>
      </trkpt>
      <trkpt lat="43.96563" lon="2.34085">
        <ele>436</ele>
        <time>2021-04-18T11:36:32Z</time>
      </trkpt>
      <trkpt lat="43.96562" lon="2.34087">
        <ele>436</ele>
        <time>2021-04-18T11:36:33Z</time>
      </trkpt>
      <trkpt lat="43.96561" lon="2.34088">
        <ele>436</ele>
        <time>2021-04-18T11:36:34Z</time>
      </trkpt>
      <trkpt lat="43.96561" lon="2.3409">
        <ele>437</ele>
        <time>2021-04-18T11:36:35Z</time>
      </trkpt>
      <trkpt lat="43.9656" lon="2.34091">
        <ele>437</ele>
        <time>2021-04-18T11:36:36Z</time>
      </trkpt>
      <trkpt lat="43.96558" lon="2.34093">
        <ele>437</ele>
        <time>2021-04-18T11:36:37Z</time>
      </trkpt>
      <trkpt lat="43.96558" lon="2.34094">
        <ele>438</ele>
        <time>2021-04-18T11:36:38Z</time>
      </trkpt>
      <trkpt lat="43.96557" lon="2.34096">
        <ele>437</ele>
        <time>2021-04-18T11:36:39Z</time>
      </trkpt>
      <trkpt lat="43.96556" lon="2.34098">
        <ele>437</ele>
        <time>2021-04-18T11:36:40Z</time>
      </trkpt>
      <trkpt lat="43.96555" lon="2.341">
        <ele>437</ele>
        <time>2021-04-18T11:36:41Z</time>
      </trkpt>
      <trkpt lat="43.96554" lon="2.34101">
        <ele>438</ele>
        <time>2021-04-18T11:36:42Z</time>
      </trkpt>
      <trkpt lat="43.96553" lon="2.34102">
        <ele>438</ele>
        <time>2021-04-18T11:36:43Z</time>
      </trkpt>
      <trkpt lat="43.96552" lon="2.34105">
        <ele>438</ele>
        <time>2021-04-18T11:36:44Z</time>
      </trkpt>
      <trkpt lat="43.96552" lon="2.34106">
        <ele>438</ele>
        <time>2021-04-18T11:36:45Z</time>
      </trkpt>
      <trkpt lat="43.96552" lon="2.34108">
        <ele>438</ele>
        <time>2021-04-18T11:36:46Z</time>
      </trkpt>
      <trkpt lat="43.96551" lon="2.34109">
        <ele>438</ele>
        <time>2021-04-18T11:36:47Z</time>
      </trkpt>
      <trkpt lat="43.9655" lon="2.34111">
        <ele>438</ele>
        <time>2021-04-18T11:36:48Z</time>
      </trkpt>
      <trkpt lat="43.9655" lon="2.34113">
        <ele>438</ele>
        <time>2021-04-18T11:36:49Z</time>
      </trkpt>
      <trkpt lat="43.96549" lon="2.34114">
        <ele>438</ele>
        <time>2021-04-18T11:36:50Z</time>
      </trkpt>
      <trkpt lat="43.96549" lon="2.34116">
        <ele>439</ele>
        <time>2021-04-18T11:36:51Z</time>
      </trkpt>
      <trkpt lat="43.96548" lon="2.34118">
        <ele>439</ele>
        <time>2021-04-18T11:36:52Z</time>
      </trkpt>
      <trkpt lat="43.96547" lon="2.34118">
        <ele>439</ele>
        <time>2021-04-18T11:36:53Z</time>
      </trkpt>
      <trkpt lat="43.96546" lon="2.3412">
        <ele>439</ele>
        <time>2021-04-18T11:36:54Z</time>
      </trkpt>
      <trkpt lat="43.96545" lon="2.34122">
        <ele>439</ele>
        <time>2021-04-18T11:36:55Z</time>
      </trkpt>
      <trkpt lat="43.96545" lon="2.34123">
        <ele>440</ele>
        <time>2021-04-18T11:36:56Z</time>
      </trkpt>
      <trkpt lat="43.96544" lon="2.34125">
        <ele>440</ele>
        <time>2021-04-18T11:36:57Z</time>
      </trkpt>
      <trkpt lat="43.96544" lon="2.34126">
        <ele>440</ele>
        <time>2021-04-18T11:36:58Z</time>
      </trkpt>
      <trkpt lat="43.96542" lon="2.34127">
        <ele>440</ele>
        <time>2021-04-18T11:36:59Z</time>
      </trkpt>
      <trkpt lat="43.96541" lon="2.34129">
        <ele>441</ele>
        <time>2021-04-18T11:37:00Z</time>
      </trkpt>
      <trkpt lat="43.96541" lon="2.3413">
        <ele>441</ele>
        <time>2021-04-18T11:37:01Z</time>
      </trkpt>
      <trkpt lat="43.9654" lon="2.34132">
        <ele>440</ele>
        <time>2021-04-18T11:37:02Z</time>
      </trkpt>
      <trkpt lat="43.96541" lon="2.34134">
        <ele>440</ele>
        <time>2021-04-18T11:37:03Z</time>
      </trkpt>
      <trkpt lat="43.96541" lon="2.34135">
        <ele>439</ele>
        <time>2021-04-18T11:37:04Z</time>
      </trkpt>
      <trkpt lat="43.9654" lon="2.34136">
        <ele>439</ele>
        <time>2021-04-18T11:37:05Z</time>
      </trkpt>
      <trkpt lat="43.96539" lon="2.34137">
        <ele>440</ele>
        <time>2021-04-18T11:37:06Z</time>
      </trkpt>
      <trkpt lat="43.96539" lon="2.34139">
        <ele>440</ele>
        <time>2021-04-18T11:37:07Z</time>
      </trkpt>
      <trkpt lat="43.96539" lon="2.3414">
        <ele>439</ele>
        <time>2021-04-18T11:37:08Z</time>
      </trkpt>
      <trkpt lat="43.96538" lon="2.34141">
        <ele>440</ele>
        <time>2021-04-18T11:37:09Z</time>
      </trkpt>
      <trkpt lat="43.96537" lon="2.34143">
        <ele>439</ele>
        <time>2021-04-18T11:37:10Z</time>
      </trkpt>
      <trkpt lat="43.96537" lon="2.34144">
        <ele>439</ele>
        <time>2021-04-18T11:37:11Z</time>
      </trkpt>
      <trkpt lat="43.96536" lon="2.34147">
        <ele>439</ele>
        <time>2021-04-18T11:37:12Z</time>
      </trkpt>
      <trkpt lat="43.96536" lon="2.34148">
        <ele>439</ele>
        <time>2021-04-18T11:37:13Z</time>
      </trkpt>
      <trkpt lat="43.96535" lon="2.3415">
        <ele>439</ele>
        <time>2021-04-18T11:37:14Z</time>
      </trkpt>
      <trkpt lat="43.96534" lon="2.34152">
        <ele>439</ele>
        <time>2021-04-18T11:37:15Z</time>
      </trkpt>
      <trkpt lat="43.96534" lon="2.34155">
        <ele>439</ele>
        <time>2021-04-18T11:37:16Z</time>
      </trkpt>
      <trkpt lat="43.96533" lon="2.34157">
        <ele>438</ele>
        <time>2021-04-18T11:37:17Z</time>
      </trkpt>
      <trkpt lat="43.96532" lon="2.34159">
        <ele>438</ele>
        <time>2021-04-18T11:37:18Z</time>
      </trkpt>
      <trkpt lat="43.96531" lon="2.34161">
        <ele>439</ele>
        <time>2021-04-18T11:37:19Z</time>
      </trkpt>
      <trkpt lat="43.9653" lon="2.34163">
        <ele>438</ele>
        <time>2021-04-18T11:37:20Z</time>
      </trkpt>
      <trkpt lat="43.96529" lon="2.34165">
        <ele>438</ele>
        <time>2021-04-18T11:37:21Z</time>
      </trkpt>
      <trkpt lat="43.96528" lon="2.34168">
        <ele>438</ele>
        <time>2021-04-18T11:37:23Z</time>
      </trkpt>
      <trkpt lat="43.96528" lon="2.34168">
        <ele>438</ele>
        <time>2021-04-18T11:37:23Z</time>
      </trkpt>
      <trkpt lat="43.96527" lon="2.3417">
        <ele>438</ele>
        <time>2021-04-18T11:37:24Z</time>
      </trkpt>
      <trkpt lat="43.96526" lon="2.34171">
        <ele>438</ele>
        <time>2021-04-18T11:37:25Z</time>
      </trkpt>
      <trkpt lat="43.96525" lon="2.34174">
        <ele>438</ele>
        <time>2021-04-18T11:37:27Z</time>
      </trkpt>
      <trkpt lat="43.96525" lon="2.34174">
        <ele>438</ele>
        <time>2021-04-18T11:37:27Z</time>
      </trkpt>
      <trkpt lat="43.96524" lon="2.34176">
        <ele>438</ele>
        <time>2021-04-18T11:37:28Z</time>
      </trkpt>
      <trkpt lat="43.96524" lon="2.34177">
        <ele>439</ele>
        <time>2021-04-18T11:37:30Z</time>
      </trkpt>
      <trkpt lat="43.96524" lon="2.34177">
        <ele>439</ele>
        <time>2021-04-18T11:37:30Z</time>
      </trkpt>
      <trkpt lat="43.96524" lon="2.34178">
        <ele>438</ele>
        <time>2021-04-18T11:37:32Z</time>
      </trkpt>
      <trkpt lat="43.96525" lon="2.34179">
        <ele>438</ele>
        <time>2021-04-18T11:37:33Z</time>
      </trkpt>
      <trkpt lat="43.96525" lon="2.34179">
        <ele>438</ele>
        <time>2021-04-18T11:37:33Z</time>
      </trkpt>
      <trkpt lat="43.96524" lon="2.34182">
        <ele>437</ele>
        <time>2021-04-18T11:37:35Z</time>
      </trkpt>
      <trkpt lat="43.96524" lon="2.34182">
        <ele>437</ele>
        <time>2021-04-18T11:37:35Z</time>
      </trkpt>
      <trkpt lat="43.96523" lon="2.34184">
        <ele>437</ele>
        <time>2021-04-18T11:37:36Z</time>
      </trkpt>
      <trkpt lat="43.96523" lon="2.34185">
        <ele>437</ele>
        <time>2021-04-18T11:37:37Z</time>
      </trkpt>
      <trkpt lat="43.96522" lon="2.34186">
        <ele>437</ele>
        <time>2021-04-18T11:37:38Z</time>
      </trkpt>
      <trkpt lat="43.96522" lon="2.34188">
        <ele>436</ele>
        <time>2021-04-18T11:37:39Z</time>
      </trkpt>
      <trkpt lat="43.96521" lon="2.34189">
        <ele>436</ele>
        <time>2021-04-18T11:37:40Z</time>
      </trkpt>
      <trkpt lat="43.96521" lon="2.34191">
        <ele>437</ele>
        <time>2021-04-18T11:37:41Z</time>
      </trkpt>
      <trkpt lat="43.9652" lon="2.34193">
        <ele>437</ele>
        <time>2021-04-18T11:37:42Z</time>
      </trkpt>
      <trkpt lat="43.96519" lon="2.34195">
        <ele>436</ele>
        <time>2021-04-18T11:37:43Z</time>
      </trkpt>
      <trkpt lat="43.96518" lon="2.34197">
        <ele>437</ele>
        <time>2021-04-18T11:37:44Z</time>
      </trkpt>
      <trkpt lat="43.96517" lon="2.34198">
        <ele>437</ele>
        <time>2021-04-18T11:37:45Z</time>
      </trkpt>
      <trkpt lat="43.96516" lon="2.342">
        <ele>437</ele>
        <time>2021-04-18T11:37:46Z</time>
      </trkpt>
      <trkpt lat="43.96516" lon="2.34201">
        <ele>437</ele>
        <time>2021-04-18T11:37:47Z</time>
      </trkpt>
      <trkpt lat="43.96515" lon="2.34205">
        <ele>437</ele>
        <time>2021-04-18T11:37:49Z</time>
      </trkpt>
      <trkpt lat="43.96515" lon="2.34205">
        <ele>437</ele>
        <time>2021-04-18T11:37:49Z</time>
      </trkpt>
      <trkpt lat="43.96514" lon="2.34207">
        <ele>437</ele>
        <time>2021-04-18T11:37:50Z</time>
      </trkpt>
      <trkpt lat="43.96513" lon="2.34209">
        <ele>437</ele>
        <time>2021-04-18T11:37:51Z</time>
      </trkpt>
      <trkpt lat="43.96512" lon="2.34211">
        <ele>437</ele>
        <time>2021-04-18T11:37:52Z</time>
      </trkpt>
      <trkpt lat="43.96511" lon="2.34212">
        <ele>437</ele>
        <time>2021-04-18T11:37:53Z</time>
      </trkpt>
      <trkpt lat="43.9651" lon="2.34214">
        <ele>437</ele>
        <time>2021-04-18T11:37:54Z</time>
      </trkpt>
      <trkpt lat="43.96509" lon="2.34216">
        <ele>436</ele>
        <time>2021-04-18T11:37:55Z</time>
      </trkpt>
      <trkpt lat="43.96508" lon="2.34217">
        <ele>436</ele>
        <time>2021-04-18T11:37:56Z</time>
      </trkpt>
      <trkpt lat="43.96508" lon="2.34218">
        <ele>436</ele>
        <time>2021-04-18T11:37:57Z</time>
      </trkpt>
      <trkpt lat="43.96506" lon="2.34222">
        <ele>437</ele>
        <time>2021-04-18T11:37:59Z</time>
      </trkpt>
      <trkpt lat="43.96506" lon="2.34222">
        <ele>437</ele>
        <time>2021-04-18T11:37:59Z</time>
      </trkpt>
      <trkpt lat="43.96505" lon="2.34224">
        <ele>437</ele>
        <time>2021-04-18T11:38:00Z</time>
      </trkpt>
      <trkpt lat="43.96504" lon="2.34225">
        <ele>438</ele>
        <time>2021-04-18T11:38:01Z</time>
      </trkpt>
      <trkpt lat="43.96503" lon="2.34227">
        <ele>438</ele>
        <time>2021-04-18T11:38:02Z</time>
      </trkpt>
      <trkpt lat="43.96502" lon="2.34228">
        <ele>438</ele>
        <time>2021-04-18T11:38:03Z</time>
      </trkpt>
      <trkpt lat="43.965" lon="2.34232">
        <ele>438</ele>
        <time>2021-04-18T11:38:05Z</time>
      </trkpt>
      <trkpt lat="43.965" lon="2.34232">
        <ele>438</ele>
        <time>2021-04-18T11:38:05Z</time>
      </trkpt>
      <trkpt lat="43.965" lon="2.34233">
        <ele>438</ele>
        <time>2021-04-18T11:38:06Z</time>
      </trkpt>
      <trkpt lat="43.96499" lon="2.34235">
        <ele>438</ele>
        <time>2021-04-18T11:38:07Z</time>
      </trkpt>
      <trkpt lat="43.96498" lon="2.34237">
        <ele>437</ele>
        <time>2021-04-18T11:38:08Z</time>
      </trkpt>
      <trkpt lat="43.96497" lon="2.34238">
        <ele>437</ele>
        <time>2021-04-18T11:38:09Z</time>
      </trkpt>
      <trkpt lat="43.96497" lon="2.3424">
        <ele>437</ele>
        <time>2021-04-18T11:38:10Z</time>
      </trkpt>
      <trkpt lat="43.96495" lon="2.34242">
        <ele>438</ele>
        <time>2021-04-18T11:38:11Z</time>
      </trkpt>
      <trkpt lat="43.96495" lon="2.34243">
        <ele>438</ele>
        <time>2021-04-18T11:38:12Z</time>
      </trkpt>
      <trkpt lat="43.96494" lon="2.34245">
        <ele>438</ele>
        <time>2021-04-18T11:38:13Z</time>
      </trkpt>
      <trkpt lat="43.96493" lon="2.34246">
        <ele>439</ele>
        <time>2021-04-18T11:38:14Z</time>
      </trkpt>
      <trkpt lat="43.96492" lon="2.34248">
        <ele>438</ele>
        <time>2021-04-18T11:38:15Z</time>
      </trkpt>
      <trkpt lat="43.96491" lon="2.34249">
        <ele>439</ele>
        <time>2021-04-18T11:38:16Z</time>
      </trkpt>
      <trkpt lat="43.96491" lon="2.34251">
        <ele>439</ele>
        <time>2021-04-18T11:38:17Z</time>
      </trkpt>
      <trkpt lat="43.9649" lon="2.34253">
        <ele>439</ele>
        <time>2021-04-18T11:38:18Z</time>
      </trkpt>
      <trkpt lat="43.96489" lon="2.34255">
        <ele>438</ele>
        <time>2021-04-18T11:38:19Z</time>
      </trkpt>
      <trkpt lat="43.96488" lon="2.34257">
        <ele>438</ele>
        <time>2021-04-18T11:38:20Z</time>
      </trkpt>
      <trkpt lat="43.96487" lon="2.34259">
        <ele>438</ele>
        <time>2021-04-18T11:38:21Z</time>
      </trkpt>
      <trkpt lat="43.96486" lon="2.34261">
        <ele>439</ele>
        <time>2021-04-18T11:38:22Z</time>
      </trkpt>
      <trkpt lat="43.96485" lon="2.34262">
        <ele>439</ele>
        <time>2021-04-18T11:38:23Z</time>
      </trkpt>
      <trkpt lat="43.96484" lon="2.34264">
        <ele>439</ele>
        <time>2021-04-18T11:38:24Z</time>
      </trkpt>
      <trkpt lat="43.96484" lon="2.34266">
        <ele>438</ele>
        <time>2021-04-18T11:38:25Z</time>
      </trkpt>
      <trkpt lat="43.96483" lon="2.34268">
        <ele>439</ele>
        <time>2021-04-18T11:38:26Z</time>
      </trkpt>
      <trkpt lat="43.96481" lon="2.34269">
        <ele>438</ele>
        <time>2021-04-18T11:38:27Z</time>
      </trkpt>
      <trkpt lat="43.9648" lon="2.34271">
        <ele>439</ele>
        <time>2021-04-18T11:38:28Z</time>
      </trkpt>
      <trkpt lat="43.96479" lon="2.34273">
        <ele>439</ele>
        <time>2021-04-18T11:38:29Z</time>
      </trkpt>
      <trkpt lat="43.96478" lon="2.34275">
        <ele>439</ele>
        <time>2021-04-18T11:38:30Z</time>
      </trkpt>
      <trkpt lat="43.96477" lon="2.34277">
        <ele>439</ele>
        <time>2021-04-18T11:38:31Z</time>
      </trkpt>
      <trkpt lat="43.96476" lon="2.34279">
        <ele>439</ele>
        <time>2021-04-18T11:38:32Z</time>
      </trkpt>
      <trkpt lat="43.96475" lon="2.34281">
        <ele>439</ele>
        <time>2021-04-18T11:38:33Z</time>
      </trkpt>
      <trkpt lat="43.96474" lon="2.34282">
        <ele>439</ele>
        <time>2021-04-18T11:38:34Z</time>
      </trkpt>
      <trkpt lat="43.96473" lon="2.34284">
        <ele>439</ele>
        <time>2021-04-18T11:38:35Z</time>
      </trkpt>
      <trkpt lat="43.96473" lon="2.34286">
        <ele>439</ele>
        <time>2021-04-18T11:38:36Z</time>
      </trkpt>
      <trkpt lat="43.96471" lon="2.34288">
        <ele>439</ele>
        <time>2021-04-18T11:38:37Z</time>
      </trkpt>
      <trkpt lat="43.96471" lon="2.3429">
        <ele>439</ele>
        <time>2021-04-18T11:38:38Z</time>
      </trkpt>
      <trkpt lat="43.9647" lon="2.34292">
        <ele>439</ele>
        <time>2021-04-18T11:38:39Z</time>
      </trkpt>
      <trkpt lat="43.96468" lon="2.34293">
        <ele>439</ele>
        <time>2021-04-18T11:38:40Z</time>
      </trkpt>
      <trkpt lat="43.96467" lon="2.34295">
        <ele>440</ele>
        <time>2021-04-18T11:38:41Z</time>
      </trkpt>
      <trkpt lat="43.96466" lon="2.34297">
        <ele>440</ele>
        <time>2021-04-18T11:38:42Z</time>
      </trkpt>
      <trkpt lat="43.96465" lon="2.34298">
        <ele>439</ele>
        <time>2021-04-18T11:38:43Z</time>
      </trkpt>
      <trkpt lat="43.96464" lon="2.343">
        <ele>440</ele>
        <time>2021-04-18T11:38:44Z</time>
      </trkpt>
      <trkpt lat="43.96463" lon="2.34302">
        <ele>440</ele>
        <time>2021-04-18T11:38:45Z</time>
      </trkpt>
      <trkpt lat="43.96462" lon="2.34303">
        <ele>440</ele>
        <time>2021-04-18T11:38:46Z</time>
      </trkpt>
      <trkpt lat="43.96462" lon="2.34305">
        <ele>440</ele>
        <time>2021-04-18T11:38:47Z</time>
      </trkpt>
      <trkpt lat="43.96461" lon="2.34307">
        <ele>440</ele>
        <time>2021-04-18T11:38:48Z</time>
      </trkpt>
      <trkpt lat="43.9646" lon="2.34309">
        <ele>440</ele>
        <time>2021-04-18T11:38:49Z</time>
      </trkpt>
      <trkpt lat="43.96458" lon="2.34312">
        <ele>440</ele>
        <time>2021-04-18T11:38:51Z</time>
      </trkpt>
      <trkpt lat="43.96458" lon="2.34312">
        <ele>440</ele>
        <time>2021-04-18T11:38:51Z</time>
      </trkpt>
      <trkpt lat="43.96457" lon="2.34314">
        <ele>441</ele>
        <time>2021-04-18T11:38:52Z</time>
      </trkpt>
      <trkpt lat="43.96456" lon="2.34315">
        <ele>440</ele>
        <time>2021-04-18T11:38:53Z</time>
      </trkpt>
      <trkpt lat="43.96455" lon="2.34317">
        <ele>440</ele>
        <time>2021-04-18T11:38:54Z</time>
      </trkpt>
      <trkpt lat="43.96454" lon="2.34319">
        <ele>441</ele>
        <time>2021-04-18T11:38:55Z</time>
      </trkpt>
      <trkpt lat="43.96453" lon="2.34321">
        <ele>440</ele>
        <time>2021-04-18T11:38:56Z</time>
      </trkpt>
      <trkpt lat="43.96452" lon="2.34323">
        <ele>440</ele>
        <time>2021-04-18T11:38:57Z</time>
      </trkpt>
      <trkpt lat="43.96452" lon="2.34324">
        <ele>440</ele>
        <time>2021-04-18T11:38:58Z</time>
      </trkpt>
      <trkpt lat="43.96451" lon="2.34326">
        <ele>440</ele>
        <time>2021-04-18T11:38:59Z</time>
      </trkpt>
      <trkpt lat="43.96449" lon="2.3433">
        <ele>440</ele>
        <time>2021-04-18T11:39:01Z</time>
      </trkpt>
      <trkpt lat="43.96449" lon="2.3433">
        <ele>440</ele>
        <time>2021-04-18T11:39:01Z</time>
      </trkpt>
      <trkpt lat="43.96447" lon="2.34334">
        <ele>440</ele>
        <time>2021-04-18T11:39:03Z</time>
      </trkpt>
      <trkpt lat="43.96447" lon="2.34334">
        <ele>440</ele>
        <time>2021-04-18T11:39:03Z</time>
      </trkpt>
      <trkpt lat="43.96447" lon="2.34336">
        <ele>440</ele>
        <time>2021-04-18T11:39:04Z</time>
      </trkpt>
      <trkpt lat="43.96446" lon="2.34338">
        <ele>439</ele>
        <time>2021-04-18T11:39:05Z</time>
      </trkpt>
      <trkpt lat="43.96445" lon="2.3434">
        <ele>439</ele>
        <time>2021-04-18T11:39:06Z</time>
      </trkpt>
      <trkpt lat="43.96444" lon="2.34341">
        <ele>439</ele>
        <time>2021-04-18T11:39:07Z</time>
      </trkpt>
      <trkpt lat="43.96443" lon="2.34343">
        <ele>439</ele>
        <time>2021-04-18T11:39:08Z</time>
      </trkpt>
      <trkpt lat="43.96442" lon="2.34345">
        <ele>439</ele>
        <time>2021-04-18T11:39:09Z</time>
      </trkpt>
      <trkpt lat="43.96441" lon="2.34346">
        <ele>439</ele>
        <time>2021-04-18T11:39:10Z</time>
      </trkpt>
      <trkpt lat="43.96439" lon="2.34347">
        <ele>439</ele>
        <time>2021-04-18T11:39:11Z</time>
      </trkpt>
      <trkpt lat="43.96438" lon="2.34349">
        <ele>440</ele>
        <time>2021-04-18T11:39:12Z</time>
      </trkpt>
      <trkpt lat="43.96437" lon="2.34351">
        <ele>440</ele>
        <time>2021-04-18T11:39:13Z</time>
      </trkpt>
      <trkpt lat="43.96436" lon="2.34353">
        <ele>440</ele>
        <time>2021-04-18T11:39:14Z</time>
      </trkpt>
      <trkpt lat="43.96434" lon="2.34356">
        <ele>440</ele>
        <time>2021-04-18T11:39:16Z</time>
      </trkpt>
      <trkpt lat="43.96434" lon="2.34356">
        <ele>440</ele>
        <time>2021-04-18T11:39:16Z</time>
      </trkpt>
      <trkpt lat="43.96433" lon="2.34358">
        <ele>440</ele>
        <time>2021-04-18T11:39:17Z</time>
      </trkpt>
      <trkpt lat="43.96432" lon="2.3436">
        <ele>440</ele>
        <time>2021-04-18T11:39:18Z</time>
      </trkpt>
      <trkpt lat="43.96431" lon="2.34362">
        <ele>440</ele>
        <time>2021-04-18T11:39:19Z</time>
      </trkpt>
      <trkpt lat="43.9643" lon="2.34364">
        <ele>440</ele>
        <time>2021-04-18T11:39:20Z</time>
      </trkpt>
      <trkpt lat="43.96429" lon="2.34365">
        <ele>440</ele>
        <time>2021-04-18T11:39:21Z</time>
      </trkpt>
      <trkpt lat="43.96428" lon="2.34367">
        <ele>440</ele>
        <time>2021-04-18T11:39:22Z</time>
      </trkpt>
      <trkpt lat="43.96427" lon="2.34369">
        <ele>440</ele>
        <time>2021-04-18T11:39:23Z</time>
      </trkpt>
      <trkpt lat="43.96426" lon="2.34371">
        <ele>439</ele>
        <time>2021-04-18T11:39:24Z</time>
      </trkpt>
      <trkpt lat="43.96426" lon="2.34372">
        <ele>439</ele>
        <time>2021-04-18T11:39:25Z</time>
      </trkpt>
      <trkpt lat="43.96425" lon="2.34374">
        <ele>440</ele>
        <time>2021-04-18T11:39:26Z</time>
      </trkpt>
      <trkpt lat="43.96423" lon="2.34376">
        <ele>440</ele>
        <time>2021-04-18T11:39:27Z</time>
      </trkpt>
      <trkpt lat="43.96422" lon="2.34377">
        <ele>440</ele>
        <time>2021-04-18T11:39:28Z</time>
      </trkpt>
      <trkpt lat="43.96421" lon="2.34379">
        <ele>440</ele>
        <time>2021-04-18T11:39:29Z</time>
      </trkpt>
      <trkpt lat="43.96419" lon="2.34382">
        <ele>440</ele>
        <time>2021-04-18T11:39:31Z</time>
      </trkpt>
      <trkpt lat="43.96419" lon="2.34382">
        <ele>440</ele>
        <time>2021-04-18T11:39:31Z</time>
      </trkpt>
      <trkpt lat="43.96418" lon="2.34383">
        <ele>441</ele>
        <time>2021-04-18T11:39:32Z</time>
      </trkpt>
      <trkpt lat="43.96417" lon="2.34384">
        <ele>441</ele>
        <time>2021-04-18T11:39:33Z</time>
      </trkpt>
      <trkpt lat="43.96417" lon="2.34386">
        <ele>441</ele>
        <time>2021-04-18T11:39:34Z</time>
      </trkpt>
      <trkpt lat="43.96415" lon="2.34389">
        <ele>441</ele>
        <time>2021-04-18T11:39:36Z</time>
      </trkpt>
      <trkpt lat="43.96413" lon="2.34391">
        <ele>441</ele>
        <time>2021-04-18T11:39:37Z</time>
      </trkpt>
      <trkpt lat="43.96412" lon="2.34392">
        <ele>441</ele>
        <time>2021-04-18T11:39:38Z</time>
      </trkpt>
      <trkpt lat="43.96411" lon="2.34394">
        <ele>442</ele>
        <time>2021-04-18T11:39:39Z</time>
      </trkpt>
      <trkpt lat="43.9641" lon="2.34396">
        <ele>442</ele>
        <time>2021-04-18T11:39:40Z</time>
      </trkpt>
      <trkpt lat="43.9641" lon="2.34396">
        <ele>442</ele>
        <time>2021-04-18T11:39:40Z</time>
      </trkpt>
      <trkpt lat="43.96408" lon="2.34399">
        <ele>442</ele>
        <time>2021-04-18T11:39:42Z</time>
      </trkpt>
      <trkpt lat="43.96407" lon="2.34401">
        <ele>442</ele>
        <time>2021-04-18T11:39:43Z</time>
      </trkpt>
      <trkpt lat="43.96407" lon="2.34401">
        <ele>442</ele>
        <time>2021-04-18T11:39:43Z</time>
      </trkpt>
      <trkpt lat="43.96405" lon="2.34405">
        <ele>441</ele>
        <time>2021-04-18T11:39:45Z</time>
      </trkpt>
      <trkpt lat="43.96404" lon="2.34407">
        <ele>442</ele>
        <time>2021-04-18T11:39:46Z</time>
      </trkpt>
      <trkpt lat="43.96404" lon="2.34408">
        <ele>442</ele>
        <time>2021-04-18T11:39:47Z</time>
      </trkpt>
      <trkpt lat="43.96404" lon="2.34408">
        <ele>442</ele>
        <time>2021-04-18T11:39:47Z</time>
      </trkpt>
      <trkpt lat="43.96401" lon="2.34411">
        <ele>441</ele>
        <time>2021-04-18T11:39:49Z</time>
      </trkpt>
      <trkpt lat="43.96401" lon="2.34413">
        <ele>441</ele>
        <time>2021-04-18T11:39:50Z</time>
      </trkpt>
      <trkpt lat="43.96401" lon="2.34413">
        <ele>441</ele>
        <time>2021-04-18T11:39:50Z</time>
      </trkpt>
      <trkpt lat="43.964" lon="2.34415">
        <ele>441</ele>
        <time>2021-04-18T11:39:51Z</time>
      </trkpt>
      <trkpt lat="43.96398" lon="2.34418">
        <ele>441</ele>
        <time>2021-04-18T11:39:53Z</time>
      </trkpt>
      <trkpt lat="43.96398" lon="2.34418">
        <ele>441</ele>
        <time>2021-04-18T11:39:53Z</time>
      </trkpt>
      <trkpt lat="43.96397" lon="2.3442">
        <ele>441</ele>
        <time>2021-04-18T11:39:54Z</time>
      </trkpt>
      <trkpt lat="43.96395" lon="2.34423">
        <ele>441</ele>
        <time>2021-04-18T11:39:56Z</time>
      </trkpt>
      <trkpt lat="43.96395" lon="2.34423">
        <ele>441</ele>
        <time>2021-04-18T11:39:56Z</time>
      </trkpt>
      <trkpt lat="43.96394" lon="2.34425">
        <ele>441</ele>
        <time>2021-04-18T11:39:57Z</time>
      </trkpt>
      <trkpt lat="43.96393" lon="2.34427">
        <ele>441</ele>
        <time>2021-04-18T11:39:58Z</time>
      </trkpt>
      <trkpt lat="43.96391" lon="2.3443">
        <ele>440</ele>
        <time>2021-04-18T11:40:00Z</time>
      </trkpt>
      <trkpt lat="43.9639" lon="2.34432">
        <ele>440</ele>
        <time>2021-04-18T11:40:01Z</time>
      </trkpt>
      <trkpt lat="43.96389" lon="2.34434">
        <ele>440</ele>
        <time>2021-04-18T11:40:02Z</time>
      </trkpt>
      <trkpt lat="43.96388" lon="2.34436">
        <ele>440</ele>
        <time>2021-04-18T11:40:03Z</time>
      </trkpt>
      <trkpt lat="43.96387" lon="2.34437">
        <ele>440</ele>
        <time>2021-04-18T11:40:04Z</time>
      </trkpt>
      <trkpt lat="43.96387" lon="2.34437">
        <ele>440</ele>
        <time>2021-04-18T11:40:04Z</time>
      </trkpt>
      <trkpt lat="43.96385" lon="2.3444">
        <ele>440</ele>
        <time>2021-04-18T11:40:06Z</time>
      </trkpt>
      <trkpt lat="43.96384" lon="2.34441">
        <ele>440</ele>
        <time>2021-04-18T11:40:07Z</time>
      </trkpt>
      <trkpt lat="43.96383" lon="2.34443">
        <ele>440</ele>
        <time>2021-04-18T11:40:08Z</time>
      </trkpt>
      <trkpt lat="43.96382" lon="2.34445">
        <ele>441</ele>
        <time>2021-04-18T11:40:09Z</time>
      </trkpt>
      <trkpt lat="43.9638" lon="2.34446">
        <ele>441</ele>
        <time>2021-04-18T11:40:10Z</time>
      </trkpt>
      <trkpt lat="43.9638" lon="2.34446">
        <ele>441</ele>
        <time>2021-04-18T11:40:10Z</time>
      </trkpt>
      <trkpt lat="43.96378" lon="2.34449">
        <ele>442</ele>
        <time>2021-04-18T11:40:12Z</time>
      </trkpt>
      <trkpt lat="43.96377" lon="2.3445">
        <ele>442</ele>
        <time>2021-04-18T11:40:13Z</time>
      </trkpt>
      <trkpt lat="43.96376" lon="2.34452">
        <ele>442</ele>
        <time>2021-04-18T11:40:14Z</time>
      </trkpt>
      <trkpt lat="43.96376" lon="2.34452">
        <ele>442</ele>
        <time>2021-04-18T11:40:14Z</time>
      </trkpt>
      <trkpt lat="43.96373" lon="2.34457">
        <ele>442</ele>
        <time>2021-04-18T11:40:16Z</time>
      </trkpt>
      <trkpt lat="43.96373" lon="2.34457">
        <ele>442</ele>
        <time>2021-04-18T11:40:16Z</time>
      </trkpt>
      <trkpt lat="43.96372" lon="2.34459">
        <ele>442</ele>
        <time>2021-04-18T11:40:17Z</time>
      </trkpt>
      <trkpt lat="43.96369" lon="2.34462">
        <ele>443</ele>
        <time>2021-04-18T11:40:19Z</time>
      </trkpt>
      <trkpt lat="43.96369" lon="2.34462">
        <ele>443</ele>
        <time>2021-04-18T11:40:19Z</time>
      </trkpt>
      <trkpt lat="43.96366" lon="2.34465">
        <ele>444</ele>
        <time>2021-04-18T11:40:21Z</time>
      </trkpt>
      <trkpt lat="43.96366" lon="2.34465">
        <ele>444</ele>
        <time>2021-04-18T11:40:21Z</time>
      </trkpt>
      <trkpt lat="43.96365" lon="2.34467">
        <ele>444</ele>
        <time>2021-04-18T11:40:22Z</time>
      </trkpt>
      <trkpt lat="43.96364" lon="2.34468">
        <ele>444</ele>
        <time>2021-04-18T11:40:23Z</time>
      </trkpt>
      <trkpt lat="43.96363" lon="2.34469">
        <ele>444</ele>
        <time>2021-04-18T11:40:24Z</time>
      </trkpt>
      <trkpt lat="43.96361" lon="2.34473">
        <ele>445</ele>
        <time>2021-04-18T11:40:26Z</time>
      </trkpt>
      <trkpt lat="43.9636" lon="2.34475">
        <ele>445</ele>
        <time>2021-04-18T11:40:27Z</time>
      </trkpt>
      <trkpt lat="43.9636" lon="2.34475">
        <ele>445</ele>
        <time>2021-04-18T11:40:27Z</time>
      </trkpt>
      <trkpt lat="43.96359" lon="2.34477">
        <ele>445</ele>
        <time>2021-04-18T11:40:28Z</time>
      </trkpt>
      <trkpt lat="43.96357" lon="2.34479">
        <ele>445</ele>
        <time>2021-04-18T11:40:29Z</time>
      </trkpt>
      <trkpt lat="43.96355" lon="2.34482">
        <ele>444</ele>
        <time>2021-04-18T11:40:31Z</time>
      </trkpt>
      <trkpt lat="43.96354" lon="2.34483">
        <ele>443</ele>
        <time>2021-04-18T11:40:32Z</time>
      </trkpt>
      <trkpt lat="43.96354" lon="2.34483">
        <ele>443</ele>
        <time>2021-04-18T11:40:32Z</time>
      </trkpt>
      <trkpt lat="43.96353" lon="2.34485">
        <ele>443</ele>
        <time>2021-04-18T11:40:33Z</time>
      </trkpt>
      <trkpt lat="43.96352" lon="2.34487">
        <ele>443</ele>
        <time>2021-04-18T11:40:34Z</time>
      </trkpt>
      <trkpt lat="43.96351" lon="2.34489">
        <ele>443</ele>
        <time>2021-04-18T11:40:35Z</time>
      </trkpt>
      <trkpt lat="43.9635" lon="2.34491">
        <ele>443</ele>
        <time>2021-04-18T11:40:36Z</time>
      </trkpt>
      <trkpt lat="43.96348" lon="2.34495">
        <ele>443</ele>
        <time>2021-04-18T11:40:38Z</time>
      </trkpt>
      <trkpt lat="43.96346" lon="2.34497">
        <ele>443</ele>
        <time>2021-04-18T11:40:39Z</time>
      </trkpt>
      <trkpt lat="43.96345" lon="2.34498">
        <ele>443</ele>
        <time>2021-04-18T11:40:40Z</time>
      </trkpt>
      <trkpt lat="43.96344" lon="2.345">
        <ele>443</ele>
        <time>2021-04-18T11:40:41Z</time>
      </trkpt>
      <trkpt lat="43.96344" lon="2.345">
        <ele>443</ele>
        <time>2021-04-18T11:40:41Z</time>
      </trkpt>
      <trkpt lat="43.96343" lon="2.34501">
        <ele>443</ele>
        <time>2021-04-18T11:40:42Z</time>
      </trkpt>
      <trkpt lat="43.96343" lon="2.34503">
        <ele>443</ele>
        <time>2021-04-18T11:40:43Z</time>
      </trkpt>
      <trkpt lat="43.96341" lon="2.34504">
        <ele>443</ele>
        <time>2021-04-18T11:40:44Z</time>
      </trkpt>
      <trkpt lat="43.96338" lon="2.34508">
        <ele>443</ele>
        <time>2021-04-18T11:40:46Z</time>
      </trkpt>
      <trkpt lat="43.96338" lon="2.34508">
        <ele>443</ele>
        <time>2021-04-18T11:40:46Z</time>
      </trkpt>
      <trkpt lat="43.96336" lon="2.34509">
        <ele>444</ele>
        <time>2021-04-18T11:40:47Z</time>
      </trkpt>
      <trkpt lat="43.96336" lon="2.3451">
        <ele>444</ele>
        <time>2021-04-18T11:40:48Z</time>
      </trkpt>
      <trkpt lat="43.96335" lon="2.34511">
        <ele>444</ele>
        <time>2021-04-18T11:40:49Z</time>
      </trkpt>
      <trkpt lat="43.96334" lon="2.34512">
        <ele>444</ele>
        <time>2021-04-18T11:40:50Z</time>
      </trkpt>
      <trkpt lat="43.96333" lon="2.34513">
        <ele>444</ele>
        <time>2021-04-18T11:40:51Z</time>
      </trkpt>
      <trkpt lat="43.96332" lon="2.34515">
        <ele>443</ele>
        <time>2021-04-18T11:40:52Z</time>
      </trkpt>
      <trkpt lat="43.96331" lon="2.34516">
        <ele>443</ele>
        <time>2021-04-18T11:40:53Z</time>
      </trkpt>
      <trkpt lat="43.9633" lon="2.34518">
        <ele>443</ele>
        <time>2021-04-18T11:40:54Z</time>
      </trkpt>
      <trkpt lat="43.96329" lon="2.34519">
        <ele>443</ele>
        <time>2021-04-18T11:40:55Z</time>
      </trkpt>
      <trkpt lat="43.96328" lon="2.3452">
        <ele>443</ele>
        <time>2021-04-18T11:40:56Z</time>
      </trkpt>
      <trkpt lat="43.96327" lon="2.34522">
        <ele>442</ele>
        <time>2021-04-18T11:40:57Z</time>
      </trkpt>
      <trkpt lat="43.96325" lon="2.34524">
        <ele>443</ele>
        <time>2021-04-18T11:40:58Z</time>
      </trkpt>
      <trkpt lat="43.96323" lon="2.34526">
        <ele>443</ele>
        <time>2021-04-18T11:41:00Z</time>
      </trkpt>
      <trkpt lat="43.96323" lon="2.34526">
        <ele>443</ele>
        <time>2021-04-18T11:41:00Z</time>
      </trkpt>
      <trkpt lat="43.96322" lon="2.34529">
        <ele>444</ele>
        <time>2021-04-18T11:41:02Z</time>
      </trkpt>
      <trkpt lat="43.9632" lon="2.34531">
        <ele>444</ele>
        <time>2021-04-18T11:41:03Z</time>
      </trkpt>
      <trkpt lat="43.9632" lon="2.34531">
        <ele>444</ele>
        <time>2021-04-18T11:41:03Z</time>
      </trkpt>
      <trkpt lat="43.96319" lon="2.34533">
        <ele>443</ele>
        <time>2021-04-18T11:41:04Z</time>
      </trkpt>
      <trkpt lat="43.96318" lon="2.34534">
        <ele>444</ele>
        <time>2021-04-18T11:41:05Z</time>
      </trkpt>
      <trkpt lat="43.96316" lon="2.34535">
        <ele>444</ele>
        <time>2021-04-18T11:41:06Z</time>
      </trkpt>
      <trkpt lat="43.96315" lon="2.34536">
        <ele>444</ele>
        <time>2021-04-18T11:41:07Z</time>
      </trkpt>
      <trkpt lat="43.96314" lon="2.34538">
        <ele>444</ele>
        <time>2021-04-18T11:41:08Z</time>
      </trkpt>
      <trkpt lat="43.96312" lon="2.3454">
        <ele>443</ele>
        <time>2021-04-18T11:41:09Z</time>
      </trkpt>
      <trkpt lat="43.9631" lon="2.34543">
        <ele>443</ele>
        <time>2021-04-18T11:41:11Z</time>
      </trkpt>
      <trkpt lat="43.9631" lon="2.34543">
        <ele>443</ele>
        <time>2021-04-18T11:41:11Z</time>
      </trkpt>
      <trkpt lat="43.96309" lon="2.34544">
        <ele>443</ele>
        <time>2021-04-18T11:41:12Z</time>
      </trkpt>
      <trkpt lat="43.96307" lon="2.34547">
        <ele>443</ele>
        <time>2021-04-18T11:41:14Z</time>
      </trkpt>
      <trkpt lat="43.96307" lon="2.34547">
        <ele>443</ele>
        <time>2021-04-18T11:41:14Z</time>
      </trkpt>
      <trkpt lat="43.96306" lon="2.34548">
        <ele>442</ele>
        <time>2021-04-18T11:41:15Z</time>
      </trkpt>
      <trkpt lat="43.96304" lon="2.34551">
        <ele>443</ele>
        <time>2021-04-18T11:41:17Z</time>
      </trkpt>
      <trkpt lat="43.96302" lon="2.34552">
        <ele>443</ele>
        <time>2021-04-18T11:41:18Z</time>
      </trkpt>
      <trkpt lat="43.96301" lon="2.34554">
        <ele>443</ele>
        <time>2021-04-18T11:41:19Z</time>
      </trkpt>
      <trkpt lat="43.96301" lon="2.34555">
        <ele>443</ele>
        <time>2021-04-18T11:41:20Z</time>
      </trkpt>
      <trkpt lat="43.96301" lon="2.34555">
        <ele>443</ele>
        <time>2021-04-18T11:41:20Z</time>
      </trkpt>
      <trkpt lat="43.96299" lon="2.34557">
        <ele>443</ele>
        <time>2021-04-18T11:41:21Z</time>
      </trkpt>
      <trkpt lat="43.96298" lon="2.34558">
        <ele>443</ele>
        <time>2021-04-18T11:41:22Z</time>
      </trkpt>
      <trkpt lat="43.96297" lon="2.34559">
        <ele>443</ele>
        <time>2021-04-18T11:41:23Z</time>
      </trkpt>
      <trkpt lat="43.96296" lon="2.34561">
        <ele>443</ele>
        <time>2021-04-18T11:41:24Z</time>
      </trkpt>
      <trkpt lat="43.96295" lon="2.34563">
        <ele>443</ele>
        <time>2021-04-18T11:41:25Z</time>
      </trkpt>
      <trkpt lat="43.96294" lon="2.34564">
        <ele>443</ele>
        <time>2021-04-18T11:41:26Z</time>
      </trkpt>
      <trkpt lat="43.96293" lon="2.34566">
        <ele>443</ele>
        <time>2021-04-18T11:41:27Z</time>
      </trkpt>
      <trkpt lat="43.96291" lon="2.34568">
        <ele>443</ele>
        <time>2021-04-18T11:41:28Z</time>
      </trkpt>
      <trkpt lat="43.96289" lon="2.34572">
        <ele>442</ele>
        <time>2021-04-18T11:41:30Z</time>
      </trkpt>
      <trkpt lat="43.96289" lon="2.34572">
        <ele>442</ele>
        <time>2021-04-18T11:41:30Z</time>
      </trkpt>
      <trkpt lat="43.96288" lon="2.34573">
        <ele>443</ele>
        <time>2021-04-18T11:41:31Z</time>
      </trkpt>
      <trkpt lat="43.96287" lon="2.34577">
        <ele>442</ele>
        <time>2021-04-18T11:41:33Z</time>
      </trkpt>
      <trkpt lat="43.96287" lon="2.34577">
        <ele>442</ele>
        <time>2021-04-18T11:41:33Z</time>
      </trkpt>
      <trkpt lat="43.96285" lon="2.3458">
        <ele>442</ele>
        <time>2021-04-18T11:41:35Z</time>
      </trkpt>
      <trkpt lat="43.96285" lon="2.34582">
        <ele>441</ele>
        <time>2021-04-18T11:41:36Z</time>
      </trkpt>
      <trkpt lat="43.96285" lon="2.34582">
        <ele>441</ele>
        <time>2021-04-18T11:41:36Z</time>
      </trkpt>
      <trkpt lat="43.96282" lon="2.34585">
        <ele>440</ele>
        <time>2021-04-18T11:41:38Z</time>
      </trkpt>
      <trkpt lat="43.96282" lon="2.34585">
        <ele>440</ele>
        <time>2021-04-18T11:41:38Z</time>
      </trkpt>
      <trkpt lat="43.96281" lon="2.34587">
        <ele>440</ele>
        <time>2021-04-18T11:41:39Z</time>
      </trkpt>
      <trkpt lat="43.9628" lon="2.34588">
        <ele>440</ele>
        <time>2021-04-18T11:41:40Z</time>
      </trkpt>
      <trkpt lat="43.96278" lon="2.34589">
        <ele>439</ele>
        <time>2021-04-18T11:41:41Z</time>
      </trkpt>
      <trkpt lat="43.96276" lon="2.34592">
        <ele>439</ele>
        <time>2021-04-18T11:41:43Z</time>
      </trkpt>
      <trkpt lat="43.96274" lon="2.34594">
        <ele>439</ele>
        <time>2021-04-18T11:41:44Z</time>
      </trkpt>
      <trkpt lat="43.96273" lon="2.34595">
        <ele>439</ele>
        <time>2021-04-18T11:41:45Z</time>
      </trkpt>
      <trkpt lat="43.96272" lon="2.34596">
        <ele>439</ele>
        <time>2021-04-18T11:41:46Z</time>
      </trkpt>
      <trkpt lat="43.96272" lon="2.34596">
        <ele>439</ele>
        <time>2021-04-18T11:41:46Z</time>
      </trkpt>
      <trkpt lat="43.96269" lon="2.346">
        <ele>439</ele>
        <time>2021-04-18T11:41:48Z</time>
      </trkpt>
      <trkpt lat="43.96269" lon="2.34601">
        <ele>438</ele>
        <time>2021-04-18T11:41:49Z</time>
      </trkpt>
      <trkpt lat="43.96269" lon="2.34601">
        <ele>438</ele>
        <time>2021-04-18T11:41:49Z</time>
      </trkpt>
      <trkpt lat="43.96267" lon="2.34604">
        <ele>438</ele>
        <time>2021-04-18T11:41:51Z</time>
      </trkpt>
      <trkpt lat="43.96266" lon="2.34605">
        <ele>437</ele>
        <time>2021-04-18T11:41:52Z</time>
      </trkpt>
      <trkpt lat="43.96265" lon="2.34606">
        <ele>437</ele>
        <time>2021-04-18T11:41:53Z</time>
      </trkpt>
      <trkpt lat="43.96264" lon="2.34607">
        <ele>437</ele>
        <time>2021-04-18T11:41:54Z</time>
      </trkpt>
      <trkpt lat="43.96262" lon="2.34608">
        <ele>437</ele>
        <time>2021-04-18T11:41:55Z</time>
      </trkpt>
      <trkpt lat="43.96262" lon="2.3461">
        <ele>437</ele>
        <time>2021-04-18T11:41:56Z</time>
      </trkpt>
      <trkpt lat="43.96262" lon="2.3461">
        <ele>437</ele>
        <time>2021-04-18T11:41:56Z</time>
      </trkpt>
      <trkpt lat="43.96259" lon="2.34612">
        <ele>437</ele>
        <time>2021-04-18T11:41:58Z</time>
      </trkpt>
      <trkpt lat="43.96258" lon="2.34613">
        <ele>436</ele>
        <time>2021-04-18T11:41:59Z</time>
      </trkpt>
      <trkpt lat="43.96257" lon="2.34615">
        <ele>436</ele>
        <time>2021-04-18T11:42:00Z</time>
      </trkpt>
      <trkpt lat="43.96257" lon="2.34615">
        <ele>435</ele>
        <time>2021-04-18T11:42:01Z</time>
      </trkpt>
      <trkpt lat="43.96256" lon="2.34616">
        <ele>435</ele>
        <time>2021-04-18T11:42:02Z</time>
      </trkpt>
      <trkpt lat="43.96255" lon="2.34616">
        <ele>435</ele>
        <time>2021-04-18T11:42:03Z</time>
      </trkpt>
      <trkpt lat="43.96254" lon="2.34618">
        <ele>435</ele>
        <time>2021-04-18T11:42:04Z</time>
      </trkpt>
      <trkpt lat="43.96254" lon="2.34618">
        <ele>435</ele>
        <time>2021-04-18T11:42:05Z</time>
      </trkpt>
      <trkpt lat="43.96254" lon="2.34618">
        <ele>435</ele>
        <time>2021-04-18T11:42:05Z</time>
      </trkpt>
      <trkpt lat="43.96252" lon="2.34618">
        <ele>436</ele>
        <time>2021-04-18T11:42:06Z</time>
      </trkpt>
      <trkpt lat="43.96251" lon="2.34619">
        <ele>436</ele>
        <time>2021-04-18T11:42:07Z</time>
      </trkpt>
      <trkpt lat="43.96249" lon="2.34619">
        <ele>436</ele>
        <time>2021-04-18T11:42:08Z</time>
      </trkpt>
      <trkpt lat="43.96248" lon="2.3462">
        <ele>436</ele>
        <time>2021-04-18T11:42:09Z</time>
      </trkpt>
      <trkpt lat="43.96247" lon="2.34621">
        <ele>435</ele>
        <time>2021-04-18T11:42:10Z</time>
      </trkpt>
      <trkpt lat="43.96245" lon="2.34623">
        <ele>435</ele>
        <time>2021-04-18T11:42:11Z</time>
      </trkpt>
      <trkpt lat="43.96243" lon="2.34623">
        <ele>435</ele>
        <time>2021-04-18T11:42:12Z</time>
      </trkpt>
      <trkpt lat="43.96242" lon="2.34624">
        <ele>436</ele>
        <time>2021-04-18T11:42:13Z</time>
      </trkpt>
      <trkpt lat="43.9624" lon="2.34624">
        <ele>436</ele>
        <time>2021-04-18T11:42:14Z</time>
      </trkpt>
      <trkpt lat="43.96238" lon="2.34625">
        <ele>436</ele>
        <time>2021-04-18T11:42:15Z</time>
      </trkpt>
      <trkpt lat="43.96237" lon="2.34626">
        <ele>436</ele>
        <time>2021-04-18T11:42:16Z</time>
      </trkpt>
      <trkpt lat="43.96236" lon="2.34626">
        <ele>436</ele>
        <time>2021-04-18T11:42:17Z</time>
      </trkpt>
      <trkpt lat="43.96234" lon="2.34627">
        <ele>436</ele>
        <time>2021-04-18T11:42:18Z</time>
      </trkpt>
      <trkpt lat="43.96233" lon="2.34628">
        <ele>436</ele>
        <time>2021-04-18T11:42:19Z</time>
      </trkpt>
      <trkpt lat="43.9623" lon="2.34629">
        <ele>435</ele>
        <time>2021-04-18T11:42:21Z</time>
      </trkpt>
      <trkpt lat="43.96229" lon="2.3463">
        <ele>435</ele>
        <time>2021-04-18T11:42:22Z</time>
      </trkpt>
      <trkpt lat="43.96227" lon="2.34631">
        <ele>434</ele>
        <time>2021-04-18T11:42:23Z</time>
      </trkpt>
      <trkpt lat="43.96226" lon="2.34631">
        <ele>434</ele>
        <time>2021-04-18T11:42:24Z</time>
      </trkpt>
      <trkpt lat="43.96224" lon="2.34632">
        <ele>435</ele>
        <time>2021-04-18T11:42:25Z</time>
      </trkpt>
      <trkpt lat="43.96222" lon="2.34633">
        <ele>435</ele>
        <time>2021-04-18T11:42:26Z</time>
      </trkpt>
      <trkpt lat="43.9622" lon="2.34634">
        <ele>435</ele>
        <time>2021-04-18T11:42:27Z</time>
      </trkpt>
      <trkpt lat="43.96219" lon="2.34634">
        <ele>435</ele>
        <time>2021-04-18T11:42:28Z</time>
      </trkpt>
      <trkpt lat="43.96219" lon="2.34634">
        <ele>435</ele>
        <time>2021-04-18T11:42:28Z</time>
      </trkpt>
      <trkpt lat="43.96217" lon="2.34635">
        <ele>435</ele>
        <time>2021-04-18T11:42:29Z</time>
      </trkpt>
      <trkpt lat="43.96214" lon="2.34635">
        <ele>435</ele>
        <time>2021-04-18T11:42:31Z</time>
      </trkpt>
      <trkpt lat="43.96214" lon="2.34635">
        <ele>434</ele>
        <time>2021-04-18T11:42:32Z</time>
      </trkpt>
      <trkpt lat="43.96213" lon="2.34635">
        <ele>434</ele>
        <time>2021-04-18T11:42:33Z</time>
      </trkpt>
      <trkpt lat="43.96212" lon="2.34635">
        <ele>434</ele>
        <time>2021-04-18T11:42:34Z</time>
      </trkpt>
      <trkpt lat="43.96212" lon="2.34635">
        <ele>434</ele>
        <time>2021-04-18T11:42:34Z</time>
      </trkpt>
      <trkpt lat="43.9621" lon="2.34635">
        <ele>433</ele>
        <time>2021-04-18T11:42:36Z</time>
      </trkpt>
      <trkpt lat="43.96209" lon="2.34635">
        <ele>433</ele>
        <time>2021-04-18T11:42:37Z</time>
      </trkpt>
      <trkpt lat="43.96207" lon="2.34634">
        <ele>432</ele>
        <time>2021-04-18T11:42:38Z</time>
      </trkpt>
      <trkpt lat="43.96206" lon="2.34633">
        <ele>432</ele>
        <time>2021-04-18T11:42:39Z</time>
      </trkpt>
      <trkpt lat="43.96206" lon="2.34633">
        <ele>432</ele>
        <time>2021-04-18T11:42:39Z</time>
      </trkpt>
      <trkpt lat="43.96205" lon="2.34631">
        <ele>433</ele>
        <time>2021-04-18T11:42:41Z</time>
      </trkpt>
      <trkpt lat="43.96205" lon="2.34631">
        <ele>433</ele>
        <time>2021-04-18T11:42:41Z</time>
      </trkpt>
      <trkpt lat="43.96204" lon="2.34631">
        <ele>432</ele>
        <time>2021-04-18T11:42:42Z</time>
      </trkpt>
      <trkpt lat="43.96204" lon="2.3463">
        <ele>432</ele>
        <time>2021-04-18T11:42:43Z</time>
      </trkpt>
      <trkpt lat="43.96203" lon="2.34628">
        <ele>431</ele>
        <time>2021-04-18T11:42:44Z</time>
      </trkpt>
      <trkpt lat="43.96203" lon="2.34626">
        <ele>430</ele>
        <time>2021-04-18T11:42:45Z</time>
      </trkpt>
      <trkpt lat="43.96202" lon="2.34624">
        <ele>430</ele>
        <time>2021-04-18T11:42:46Z</time>
      </trkpt>
      <trkpt lat="43.96202" lon="2.34623">
        <ele>430</ele>
        <time>2021-04-18T11:42:47Z</time>
      </trkpt>
      <trkpt lat="43.96201" lon="2.34621">
        <ele>430</ele>
        <time>2021-04-18T11:42:48Z</time>
      </trkpt>
      <trkpt lat="43.962" lon="2.34619">
        <ele>430</ele>
        <time>2021-04-18T11:42:49Z</time>
      </trkpt>
      <trkpt lat="43.96199" lon="2.34617">
        <ele>430</ele>
        <time>2021-04-18T11:42:50Z</time>
      </trkpt>
      <trkpt lat="43.96198" lon="2.34617">
        <ele>430</ele>
        <time>2021-04-18T11:42:51Z</time>
      </trkpt>
      <trkpt lat="43.96198" lon="2.34616">
        <ele>430</ele>
        <time>2021-04-18T11:42:52Z</time>
      </trkpt>
      <trkpt lat="43.96198" lon="2.34614">
        <ele>429</ele>
        <time>2021-04-18T11:42:53Z</time>
      </trkpt>
      <trkpt lat="43.96197" lon="2.34609">
        <ele>430</ele>
        <time>2021-04-18T11:42:55Z</time>
      </trkpt>
      <trkpt lat="43.96197" lon="2.34609">
        <ele>430</ele>
        <time>2021-04-18T11:42:55Z</time>
      </trkpt>
      <trkpt lat="43.96196" lon="2.34607">
        <ele>429</ele>
        <time>2021-04-18T11:42:56Z</time>
      </trkpt>
      <trkpt lat="43.96195" lon="2.34604">
        <ele>429</ele>
        <time>2021-04-18T11:42:57Z</time>
      </trkpt>
      <trkpt lat="43.96194" lon="2.34602">
        <ele>429</ele>
        <time>2021-04-18T11:42:58Z</time>
      </trkpt>
      <trkpt lat="43.96193" lon="2.34599">
        <ele>430</ele>
        <time>2021-04-18T11:42:59Z</time>
      </trkpt>
      <trkpt lat="43.96193" lon="2.34596">
        <ele>431</ele>
        <time>2021-04-18T11:43:00Z</time>
      </trkpt>
      <trkpt lat="43.96192" lon="2.34594">
        <ele>431</ele>
        <time>2021-04-18T11:43:01Z</time>
      </trkpt>
      <trkpt lat="43.96193" lon="2.34592">
        <ele>431</ele>
        <time>2021-04-18T11:43:02Z</time>
      </trkpt>
      <trkpt lat="43.96192" lon="2.3459">
        <ele>431</ele>
        <time>2021-04-18T11:43:03Z</time>
      </trkpt>
      <trkpt lat="43.96191" lon="2.34588">
        <ele>431</ele>
        <time>2021-04-18T11:43:04Z</time>
      </trkpt>
      <trkpt lat="43.96191" lon="2.34586">
        <ele>430</ele>
        <time>2021-04-18T11:43:05Z</time>
      </trkpt>
      <trkpt lat="43.96191" lon="2.34584">
        <ele>429</ele>
        <time>2021-04-18T11:43:06Z</time>
      </trkpt>
      <trkpt lat="43.96191" lon="2.34582">
        <ele>430</ele>
        <time>2021-04-18T11:43:07Z</time>
      </trkpt>
      <trkpt lat="43.96191" lon="2.3458">
        <ele>430</ele>
        <time>2021-04-18T11:43:08Z</time>
      </trkpt>
      <trkpt lat="43.96191" lon="2.34578">
        <ele>429</ele>
        <time>2021-04-18T11:43:09Z</time>
      </trkpt>
      <trkpt lat="43.96191" lon="2.34577">
        <ele>429</ele>
        <time>2021-04-18T11:43:10Z</time>
      </trkpt>
      <trkpt lat="43.96191" lon="2.34575">
        <ele>429</ele>
        <time>2021-04-18T11:43:11Z</time>
      </trkpt>
      <trkpt lat="43.9619" lon="2.34572">
        <ele>429</ele>
        <time>2021-04-18T11:43:13Z</time>
      </trkpt>
      <trkpt lat="43.9619" lon="2.34572">
        <ele>429</ele>
        <time>2021-04-18T11:43:13Z</time>
      </trkpt>
      <trkpt lat="43.9619" lon="2.3457">
        <ele>429</ele>
        <time>2021-04-18T11:43:14Z</time>
      </trkpt>
      <trkpt lat="43.9619" lon="2.34566">
        <ele>429</ele>
        <time>2021-04-18T11:43:16Z</time>
      </trkpt>
      <trkpt lat="43.9619" lon="2.34566">
        <ele>429</ele>
        <time>2021-04-18T11:43:16Z</time>
      </trkpt>
      <trkpt lat="43.9619" lon="2.34564">
        <ele>429</ele>
        <time>2021-04-18T11:43:17Z</time>
      </trkpt>
      <trkpt lat="43.96191" lon="2.34562">
        <ele>428</ele>
        <time>2021-04-18T11:43:18Z</time>
      </trkpt>
      <trkpt lat="43.96191" lon="2.34559">
        <ele>428</ele>
        <time>2021-04-18T11:43:20Z</time>
      </trkpt>
      <trkpt lat="43.96191" lon="2.34559">
        <ele>428</ele>
        <time>2021-04-18T11:43:20Z</time>
      </trkpt>
      <trkpt lat="43.96192" lon="2.34558">
        <ele>428</ele>
        <time>2021-04-18T11:43:21Z</time>
      </trkpt>
      <trkpt lat="43.96193" lon="2.34556">
        <ele>427</ele>
        <time>2021-04-18T11:43:22Z</time>
      </trkpt>
      <trkpt lat="43.96193" lon="2.34554">
        <ele>427</ele>
        <time>2021-04-18T11:43:23Z</time>
      </trkpt>
      <trkpt lat="43.96194" lon="2.34552">
        <ele>427</ele>
        <time>2021-04-18T11:43:24Z</time>
      </trkpt>
      <trkpt lat="43.96194" lon="2.3455">
        <ele>426</ele>
        <time>2021-04-18T11:43:25Z</time>
      </trkpt>
      <trkpt lat="43.96195" lon="2.34548">
        <ele>426</ele>
        <time>2021-04-18T11:43:26Z</time>
      </trkpt>
      <trkpt lat="43.96196" lon="2.34547">
        <ele>427</ele>
        <time>2021-04-18T11:43:27Z</time>
      </trkpt>
      <trkpt lat="43.96196" lon="2.34545">
        <ele>427</ele>
        <time>2021-04-18T11:43:28Z</time>
      </trkpt>
      <trkpt lat="43.96196" lon="2.34543">
        <ele>427</ele>
        <time>2021-04-18T11:43:29Z</time>
      </trkpt>
      <trkpt lat="43.96196" lon="2.34542">
        <ele>427</ele>
        <time>2021-04-18T11:43:30Z</time>
      </trkpt>
      <trkpt lat="43.96197" lon="2.3454">
        <ele>428</ele>
        <time>2021-04-18T11:43:31Z</time>
      </trkpt>
      <trkpt lat="43.96198" lon="2.34539">
        <ele>428</ele>
        <time>2021-04-18T11:43:32Z</time>
      </trkpt>
      <trkpt lat="43.96198" lon="2.34538">
        <ele>428</ele>
        <time>2021-04-18T11:43:33Z</time>
      </trkpt>
      <trkpt lat="43.96198" lon="2.34536">
        <ele>427</ele>
        <time>2021-04-18T11:43:34Z</time>
      </trkpt>
      <trkpt lat="43.96199" lon="2.34533">
        <ele>427</ele>
        <time>2021-04-18T11:43:35Z</time>
      </trkpt>
      <trkpt lat="43.962" lon="2.34531">
        <ele>426</ele>
        <time>2021-04-18T11:43:36Z</time>
      </trkpt>
      <trkpt lat="43.962" lon="2.34529">
        <ele>427</ele>
        <time>2021-04-18T11:43:37Z</time>
      </trkpt>
      <trkpt lat="43.96201" lon="2.34527">
        <ele>426</ele>
        <time>2021-04-18T11:43:38Z</time>
      </trkpt>
      <trkpt lat="43.96201" lon="2.34525">
        <ele>425</ele>
        <time>2021-04-18T11:43:39Z</time>
      </trkpt>
      <trkpt lat="43.96201" lon="2.34523">
        <ele>425</ele>
        <time>2021-04-18T11:43:40Z</time>
      </trkpt>
      <trkpt lat="43.96202" lon="2.34522">
        <ele>425</ele>
        <time>2021-04-18T11:43:41Z</time>
      </trkpt>
      <trkpt lat="43.96202" lon="2.3452">
        <ele>425</ele>
        <time>2021-04-18T11:43:42Z</time>
      </trkpt>
      <trkpt lat="43.96202" lon="2.34518">
        <ele>425</ele>
        <time>2021-04-18T11:43:43Z</time>
      </trkpt>
      <trkpt lat="43.96202" lon="2.34515">
        <ele>426</ele>
        <time>2021-04-18T11:43:44Z</time>
      </trkpt>
      <trkpt lat="43.96202" lon="2.34512">
        <ele>426</ele>
        <time>2021-04-18T11:43:45Z</time>
      </trkpt>
      <trkpt lat="43.96203" lon="2.3451">
        <ele>426</ele>
        <time>2021-04-18T11:43:46Z</time>
      </trkpt>
      <trkpt lat="43.96203" lon="2.34507">
        <ele>426</ele>
        <time>2021-04-18T11:43:47Z</time>
      </trkpt>
      <trkpt lat="43.96203" lon="2.34505">
        <ele>426</ele>
        <time>2021-04-18T11:43:48Z</time>
      </trkpt>
      <trkpt lat="43.96203" lon="2.34503">
        <ele>426</ele>
        <time>2021-04-18T11:43:49Z</time>
      </trkpt>
      <trkpt lat="43.96203" lon="2.34502">
        <ele>426</ele>
        <time>2021-04-18T11:43:50Z</time>
      </trkpt>
      <trkpt lat="43.96202" lon="2.34501">
        <ele>426</ele>
        <time>2021-04-18T11:43:51Z</time>
      </trkpt>
      <trkpt lat="43.96203" lon="2.34498">
        <ele>426</ele>
        <time>2021-04-18T11:43:52Z</time>
      </trkpt>
      <trkpt lat="43.96203" lon="2.34496">
        <ele>426</ele>
        <time>2021-04-18T11:43:53Z</time>
      </trkpt>
      <trkpt lat="43.96203" lon="2.34495">
        <ele>427</ele>
        <time>2021-04-18T11:43:54Z</time>
      </trkpt>
      <trkpt lat="43.96203" lon="2.34493">
        <ele>427</ele>
        <time>2021-04-18T11:43:55Z</time>
      </trkpt>
      <trkpt lat="43.96203" lon="2.3449">
        <ele>426</ele>
        <time>2021-04-18T11:43:56Z</time>
      </trkpt>
      <trkpt lat="43.96204" lon="2.34488">
        <ele>425</ele>
        <time>2021-04-18T11:43:57Z</time>
      </trkpt>
      <trkpt lat="43.96204" lon="2.34485">
        <ele>425</ele>
        <time>2021-04-18T11:43:58Z</time>
      </trkpt>
      <trkpt lat="43.96205" lon="2.34483">
        <ele>424</ele>
        <time>2021-04-18T11:43:59Z</time>
      </trkpt>
      <trkpt lat="43.96206" lon="2.34481">
        <ele>424</ele>
        <time>2021-04-18T11:44:00Z</time>
      </trkpt>
      <trkpt lat="43.96207" lon="2.34478">
        <ele>424</ele>
        <time>2021-04-18T11:44:01Z</time>
      </trkpt>
      <trkpt lat="43.96207" lon="2.34475">
        <ele>424</ele>
        <time>2021-04-18T11:44:02Z</time>
      </trkpt>
      <trkpt lat="43.96207" lon="2.34473">
        <ele>424</ele>
        <time>2021-04-18T11:44:03Z</time>
      </trkpt>
      <trkpt lat="43.96207" lon="2.34471">
        <ele>424</ele>
        <time>2021-04-18T11:44:04Z</time>
      </trkpt>
      <trkpt lat="43.96208" lon="2.34469">
        <ele>424</ele>
        <time>2021-04-18T11:44:05Z</time>
      </trkpt>
      <trkpt lat="43.96208" lon="2.34468">
        <ele>423</ele>
        <time>2021-04-18T11:44:06Z</time>
      </trkpt>
      <trkpt lat="43.96208" lon="2.34466">
        <ele>424</ele>
        <time>2021-04-18T11:44:07Z</time>
      </trkpt>
      <trkpt lat="43.96209" lon="2.34465">
        <ele>424</ele>
        <time>2021-04-18T11:44:08Z</time>
      </trkpt>
      <trkpt lat="43.96209" lon="2.34464">
        <ele>423</ele>
        <time>2021-04-18T11:44:09Z</time>
      </trkpt>
      <trkpt lat="43.96209" lon="2.34463">
        <ele>423</ele>
        <time>2021-04-18T11:44:10Z</time>
      </trkpt>
      <trkpt lat="43.9621" lon="2.34462">
        <ele>423</ele>
        <time>2021-04-18T11:44:11Z</time>
      </trkpt>
      <trkpt lat="43.9621" lon="2.3446">
        <ele>422</ele>
        <time>2021-04-18T11:44:12Z</time>
      </trkpt>
      <trkpt lat="43.9621" lon="2.34458">
        <ele>423</ele>
        <time>2021-04-18T11:44:13Z</time>
      </trkpt>
      <trkpt lat="43.96211" lon="2.34456">
        <ele>423</ele>
        <time>2021-04-18T11:44:14Z</time>
      </trkpt>
      <trkpt lat="43.96211" lon="2.34454">
        <ele>423</ele>
        <time>2021-04-18T11:44:15Z</time>
      </trkpt>
      <trkpt lat="43.96211" lon="2.34453">
        <ele>423</ele>
        <time>2021-04-18T11:44:16Z</time>
      </trkpt>
      <trkpt lat="43.96211" lon="2.34451">
        <ele>423</ele>
        <time>2021-04-18T11:44:17Z</time>
      </trkpt>
      <trkpt lat="43.96212" lon="2.34449">
        <ele>423</ele>
        <time>2021-04-18T11:44:18Z</time>
      </trkpt>
      <trkpt lat="43.96212" lon="2.34448">
        <ele>423</ele>
        <time>2021-04-18T11:44:19Z</time>
      </trkpt>
      <trkpt lat="43.96212" lon="2.34446">
        <ele>422</ele>
        <time>2021-04-18T11:44:20Z</time>
      </trkpt>
      <trkpt lat="43.96212" lon="2.34444">
        <ele>422</ele>
        <time>2021-04-18T11:44:21Z</time>
      </trkpt>
      <trkpt lat="43.96212" lon="2.34441">
        <ele>422</ele>
        <time>2021-04-18T11:44:22Z</time>
      </trkpt>
      <trkpt lat="43.96212" lon="2.34438">
        <ele>421</ele>
        <time>2021-04-18T11:44:23Z</time>
      </trkpt>
      <trkpt lat="43.96211" lon="2.34437">
        <ele>421</ele>
        <time>2021-04-18T11:44:24Z</time>
      </trkpt>
      <trkpt lat="43.96209" lon="2.34436">
        <ele>419</ele>
        <time>2021-04-18T11:44:25Z</time>
      </trkpt>
      <trkpt lat="43.96207" lon="2.34436">
        <ele>419</ele>
        <time>2021-04-18T11:44:26Z</time>
      </trkpt>
      <trkpt lat="43.96206" lon="2.34435">
        <ele>417</ele>
        <time>2021-04-18T11:44:27Z</time>
      </trkpt>
      <trkpt lat="43.96204" lon="2.34434">
        <ele>417</ele>
        <time>2021-04-18T11:44:28Z</time>
      </trkpt>
      <trkpt lat="43.96203" lon="2.34434">
        <ele>416</ele>
        <time>2021-04-18T11:44:29Z</time>
      </trkpt>
      <trkpt lat="43.96202" lon="2.34434">
        <ele>416</ele>
        <time>2021-04-18T11:44:30Z</time>
      </trkpt>
      <trkpt lat="43.96201" lon="2.34435">
        <ele>415</ele>
        <time>2021-04-18T11:44:31Z</time>
      </trkpt>
      <trkpt lat="43.962" lon="2.34435">
        <ele>416</ele>
        <time>2021-04-18T11:44:32Z</time>
      </trkpt>
      <trkpt lat="43.96199" lon="2.34435">
        <ele>415</ele>
        <time>2021-04-18T11:44:33Z</time>
      </trkpt>
      <trkpt lat="43.96198" lon="2.34436">
        <ele>415</ele>
        <time>2021-04-18T11:44:34Z</time>
      </trkpt>
      <trkpt lat="43.96197" lon="2.34436">
        <ele>415</ele>
        <time>2021-04-18T11:44:35Z</time>
      </trkpt>
      <trkpt lat="43.96196" lon="2.34438">
        <ele>415</ele>
        <time>2021-04-18T11:44:36Z</time>
      </trkpt>
      <trkpt lat="43.96195" lon="2.34439">
        <ele>415</ele>
        <time>2021-04-18T11:44:37Z</time>
      </trkpt>
      <trkpt lat="43.96193" lon="2.3444">
        <ele>415</ele>
        <time>2021-04-18T11:44:38Z</time>
      </trkpt>
      <trkpt lat="43.96192" lon="2.3444">
        <ele>415</ele>
        <time>2021-04-18T11:44:39Z</time>
      </trkpt>
      <trkpt lat="43.96191" lon="2.3444">
        <ele>415</ele>
        <time>2021-04-18T11:44:40Z</time>
      </trkpt>
      <trkpt lat="43.9619" lon="2.3444">
        <ele>416</ele>
        <time>2021-04-18T11:44:41Z</time>
      </trkpt>
      <trkpt lat="43.96189" lon="2.3444">
        <ele>416</ele>
        <time>2021-04-18T11:44:42Z</time>
      </trkpt>
      <trkpt lat="43.96188" lon="2.34441">
        <ele>416</ele>
        <time>2021-04-18T11:44:43Z</time>
      </trkpt>
      <trkpt lat="43.96187" lon="2.34442">
        <ele>416</ele>
        <time>2021-04-18T11:44:44Z</time>
      </trkpt>
      <trkpt lat="43.96186" lon="2.34442">
        <ele>416</ele>
        <time>2021-04-18T11:44:45Z</time>
      </trkpt>
      <trkpt lat="43.96184" lon="2.34443">
        <ele>416</ele>
        <time>2021-04-18T11:44:46Z</time>
      </trkpt>
      <trkpt lat="43.96183" lon="2.34445">
        <ele>415</ele>
        <time>2021-04-18T11:44:47Z</time>
      </trkpt>
      <trkpt lat="43.96182" lon="2.34446">
        <ele>415</ele>
        <time>2021-04-18T11:44:48Z</time>
      </trkpt>
      <trkpt lat="43.96181" lon="2.34446">
        <ele>415</ele>
        <time>2021-04-18T11:44:49Z</time>
      </trkpt>
      <trkpt lat="43.9618" lon="2.34447">
        <ele>415</ele>
        <time>2021-04-18T11:44:50Z</time>
      </trkpt>
      <trkpt lat="43.9618" lon="2.34447">
        <ele>414</ele>
        <time>2021-04-18T11:44:51Z</time>
      </trkpt>
      <trkpt lat="43.96178" lon="2.34448">
        <ele>415</ele>
        <time>2021-04-18T11:44:52Z</time>
      </trkpt>
      <trkpt lat="43.96177" lon="2.34449">
        <ele>415</ele>
        <time>2021-04-18T11:44:53Z</time>
      </trkpt>
      <trkpt lat="43.96176" lon="2.3445">
        <ele>415</ele>
        <time>2021-04-18T11:44:54Z</time>
      </trkpt>
      <trkpt lat="43.96175" lon="2.34452">
        <ele>415</ele>
        <time>2021-04-18T11:44:55Z</time>
      </trkpt>
      <trkpt lat="43.96174" lon="2.34453">
        <ele>416</ele>
        <time>2021-04-18T11:44:56Z</time>
      </trkpt>
      <trkpt lat="43.96173" lon="2.34455">
        <ele>415</ele>
        <time>2021-04-18T11:44:57Z</time>
      </trkpt>
      <trkpt lat="43.96172" lon="2.34455">
        <ele>414</ele>
        <time>2021-04-18T11:44:58Z</time>
      </trkpt>
      <trkpt lat="43.9617" lon="2.34456">
        <ele>414</ele>
        <time>2021-04-18T11:44:59Z</time>
      </trkpt>
      <trkpt lat="43.96169" lon="2.34457">
        <ele>415</ele>
        <time>2021-04-18T11:45:00Z</time>
      </trkpt>
      <trkpt lat="43.96167" lon="2.34458">
        <ele>415</ele>
        <time>2021-04-18T11:45:01Z</time>
      </trkpt>
      <trkpt lat="43.96166" lon="2.34459">
        <ele>414</ele>
        <time>2021-04-18T11:45:02Z</time>
      </trkpt>
      <trkpt lat="43.96166" lon="2.34461">
        <ele>414</ele>
        <time>2021-04-18T11:45:03Z</time>
      </trkpt>
      <trkpt lat="43.96165" lon="2.34462">
        <ele>414</ele>
        <time>2021-04-18T11:45:04Z</time>
      </trkpt>
      <trkpt lat="43.96163" lon="2.34463">
        <ele>414</ele>
        <time>2021-04-18T11:45:05Z</time>
      </trkpt>
      <trkpt lat="43.96162" lon="2.34464">
        <ele>414</ele>
        <time>2021-04-18T11:45:06Z</time>
      </trkpt>
      <trkpt lat="43.96161" lon="2.34466">
        <ele>414</ele>
        <time>2021-04-18T11:45:07Z</time>
      </trkpt>
      <trkpt lat="43.9616" lon="2.34467">
        <ele>414</ele>
        <time>2021-04-18T11:45:08Z</time>
      </trkpt>
      <trkpt lat="43.96159" lon="2.34468">
        <ele>414</ele>
        <time>2021-04-18T11:45:09Z</time>
      </trkpt>
      <trkpt lat="43.96158" lon="2.34469">
        <ele>413</ele>
        <time>2021-04-18T11:45:10Z</time>
      </trkpt>
      <trkpt lat="43.96157" lon="2.3447">
        <ele>413</ele>
        <time>2021-04-18T11:45:11Z</time>
      </trkpt>
      <trkpt lat="43.96156" lon="2.34471">
        <ele>413</ele>
        <time>2021-04-18T11:45:12Z</time>
      </trkpt>
      <trkpt lat="43.96154" lon="2.34473">
        <ele>413</ele>
        <time>2021-04-18T11:45:13Z</time>
      </trkpt>
      <trkpt lat="43.96153" lon="2.34474">
        <ele>413</ele>
        <time>2021-04-18T11:45:14Z</time>
      </trkpt>
      <trkpt lat="43.96152" lon="2.34475">
        <ele>413</ele>
        <time>2021-04-18T11:45:15Z</time>
      </trkpt>
      <trkpt lat="43.96151" lon="2.34477">
        <ele>413</ele>
        <time>2021-04-18T11:45:16Z</time>
      </trkpt>
      <trkpt lat="43.9615" lon="2.34478">
        <ele>413</ele>
        <time>2021-04-18T11:45:17Z</time>
      </trkpt>
      <trkpt lat="43.96149" lon="2.3448">
        <ele>412</ele>
        <time>2021-04-18T11:45:18Z</time>
      </trkpt>
      <trkpt lat="43.96148" lon="2.34481">
        <ele>412</ele>
        <time>2021-04-18T11:45:19Z</time>
      </trkpt>
      <trkpt lat="43.96147" lon="2.34483">
        <ele>412</ele>
        <time>2021-04-18T11:45:20Z</time>
      </trkpt>
      <trkpt lat="43.96146" lon="2.34485">
        <ele>411</ele>
        <time>2021-04-18T11:45:21Z</time>
      </trkpt>
      <trkpt lat="43.96145" lon="2.34487">
        <ele>411</ele>
        <time>2021-04-18T11:45:22Z</time>
      </trkpt>
      <trkpt lat="43.96143" lon="2.34489">
        <ele>410</ele>
        <time>2021-04-18T11:45:23Z</time>
      </trkpt>
      <trkpt lat="43.96143" lon="2.3449">
        <ele>410</ele>
        <time>2021-04-18T11:45:24Z</time>
      </trkpt>
      <trkpt lat="43.96141" lon="2.34492">
        <ele>411</ele>
        <time>2021-04-18T11:45:25Z</time>
      </trkpt>
      <trkpt lat="43.9614" lon="2.34493">
        <ele>411</ele>
        <time>2021-04-18T11:45:26Z</time>
      </trkpt>
      <trkpt lat="43.96139" lon="2.34495">
        <ele>410</ele>
        <time>2021-04-18T11:45:27Z</time>
      </trkpt>
      <trkpt lat="43.96138" lon="2.34497">
        <ele>409</ele>
        <time>2021-04-18T11:45:28Z</time>
      </trkpt>
      <trkpt lat="43.96138" lon="2.34498">
        <ele>409</ele>
        <time>2021-04-18T11:45:29Z</time>
      </trkpt>
      <trkpt lat="43.96137" lon="2.34499">
        <ele>409</ele>
        <time>2021-04-18T11:45:30Z</time>
      </trkpt>
      <trkpt lat="43.96137" lon="2.345">
        <ele>409</ele>
        <time>2021-04-18T11:45:31Z</time>
      </trkpt>
      <trkpt lat="43.96136" lon="2.34502">
        <ele>409</ele>
        <time>2021-04-18T11:45:32Z</time>
      </trkpt>
      <trkpt lat="43.96136" lon="2.34504">
        <ele>409</ele>
        <time>2021-04-18T11:45:33Z</time>
      </trkpt>
      <trkpt lat="43.96135" lon="2.34506">
        <ele>408</ele>
        <time>2021-04-18T11:45:34Z</time>
      </trkpt>
      <trkpt lat="43.96135" lon="2.34508">
        <ele>408</ele>
        <time>2021-04-18T11:45:35Z</time>
      </trkpt>
      <trkpt lat="43.96134" lon="2.34512">
        <ele>408</ele>
        <time>2021-04-18T11:45:36Z</time>
      </trkpt>
      <trkpt lat="43.96134" lon="2.34512">
        <ele>408</ele>
        <time>2021-04-18T11:45:36Z</time>
      </trkpt>
      <trkpt lat="43.96133" lon="2.34514">
        <ele>408</ele>
        <time>2021-04-18T11:45:38Z</time>
      </trkpt>
      <trkpt lat="43.96132" lon="2.34515">
        <ele>407</ele>
        <time>2021-04-18T11:45:39Z</time>
      </trkpt>
      <trkpt lat="43.96132" lon="2.34517">
        <ele>407</ele>
        <time>2021-04-18T11:45:40Z</time>
      </trkpt>
      <trkpt lat="43.96131" lon="2.34518">
        <ele>407</ele>
        <time>2021-04-18T11:45:41Z</time>
      </trkpt>
      <trkpt lat="43.9613" lon="2.34519">
        <ele>407</ele>
        <time>2021-04-18T11:45:42Z</time>
      </trkpt>
      <trkpt lat="43.96129" lon="2.3452">
        <ele>407</ele>
        <time>2021-04-18T11:45:43Z</time>
      </trkpt>
      <trkpt lat="43.96129" lon="2.3452">
        <ele>407</ele>
        <time>2021-04-18T11:45:44Z</time>
      </trkpt>
      <trkpt lat="43.9613" lon="2.34521">
        <ele>406</ele>
        <time>2021-04-18T11:45:45Z</time>
      </trkpt>
      <trkpt lat="43.9613" lon="2.34522">
        <ele>405</ele>
        <time>2021-04-18T11:45:46Z</time>
      </trkpt>
      <trkpt lat="43.96131" lon="2.34523">
        <ele>405</ele>
        <time>2021-04-18T11:45:47Z</time>
      </trkpt>
      <trkpt lat="43.96132" lon="2.34524">
        <ele>404</ele>
        <time>2021-04-18T11:45:48Z</time>
      </trkpt>
      <trkpt lat="43.96132" lon="2.34523">
        <ele>403</ele>
        <time>2021-04-18T11:45:49Z</time>
      </trkpt>
      <trkpt lat="43.96132" lon="2.34523">
        <ele>403</ele>
        <time>2021-04-18T11:45:50Z</time>
      </trkpt>
      <trkpt lat="43.96133" lon="2.34523">
        <ele>403</ele>
        <time>2021-04-18T11:45:51Z</time>
      </trkpt>
      <trkpt lat="43.96135" lon="2.34523">
        <ele>403</ele>
        <time>2021-04-18T11:45:52Z</time>
      </trkpt>
      <trkpt lat="43.96135" lon="2.34522">
        <ele>403</ele>
        <time>2021-04-18T11:45:53Z</time>
      </trkpt>
      <trkpt lat="43.96136" lon="2.34522">
        <ele>403</ele>
        <time>2021-04-18T11:45:54Z</time>
      </trkpt>
      <trkpt lat="43.96137" lon="2.34521">
        <ele>402</ele>
        <time>2021-04-18T11:45:55Z</time>
      </trkpt>
      <trkpt lat="43.96137" lon="2.34519">
        <ele>401</ele>
        <time>2021-04-18T11:45:56Z</time>
      </trkpt>
      <trkpt lat="43.96138" lon="2.34518">
        <ele>401</ele>
        <time>2021-04-18T11:45:57Z</time>
      </trkpt>
      <trkpt lat="43.96138" lon="2.34516">
        <ele>401</ele>
        <time>2021-04-18T11:45:58Z</time>
      </trkpt>
      <trkpt lat="43.96139" lon="2.34514">
        <ele>401</ele>
        <time>2021-04-18T11:45:59Z</time>
      </trkpt>
      <trkpt lat="43.9614" lon="2.34513">
        <ele>400</ele>
        <time>2021-04-18T11:46:00Z</time>
      </trkpt>
      <trkpt lat="43.96141" lon="2.34511">
        <ele>400</ele>
        <time>2021-04-18T11:46:01Z</time>
      </trkpt>
      <trkpt lat="43.96141" lon="2.34509">
        <ele>400</ele>
        <time>2021-04-18T11:46:02Z</time>
      </trkpt>
      <trkpt lat="43.96143" lon="2.34507">
        <ele>400</ele>
        <time>2021-04-18T11:46:03Z</time>
      </trkpt>
      <trkpt lat="43.96143" lon="2.34506">
        <ele>399</ele>
        <time>2021-04-18T11:46:04Z</time>
      </trkpt>
      <trkpt lat="43.96144" lon="2.34505">
        <ele>399</ele>
        <time>2021-04-18T11:46:05Z</time>
      </trkpt>
      <trkpt lat="43.96145" lon="2.34502">
        <ele>399</ele>
        <time>2021-04-18T11:46:06Z</time>
      </trkpt>
      <trkpt lat="43.96145" lon="2.34502">
        <ele>399</ele>
        <time>2021-04-18T11:46:06Z</time>
      </trkpt>
      <trkpt lat="43.96146" lon="2.34499">
        <ele>399</ele>
        <time>2021-04-18T11:46:08Z</time>
      </trkpt>
      <trkpt lat="43.96146" lon="2.34498">
        <ele>399</ele>
        <time>2021-04-18T11:46:09Z</time>
      </trkpt>
      <trkpt lat="43.96146" lon="2.34496">
        <ele>399</ele>
        <time>2021-04-18T11:46:10Z</time>
      </trkpt>
      <trkpt lat="43.96147" lon="2.34494">
        <ele>399</ele>
        <time>2021-04-18T11:46:11Z</time>
      </trkpt>
      <trkpt lat="43.96148" lon="2.34492">
        <ele>399</ele>
        <time>2021-04-18T11:46:12Z</time>
      </trkpt>
      <trkpt lat="43.96148" lon="2.3449">
        <ele>399</ele>
        <time>2021-04-18T11:46:13Z</time>
      </trkpt>
      <trkpt lat="43.96149" lon="2.34488">
        <ele>398</ele>
        <time>2021-04-18T11:46:14Z</time>
      </trkpt>
      <trkpt lat="43.96148" lon="2.34487">
        <ele>398</ele>
        <time>2021-04-18T11:46:15Z</time>
      </trkpt>
      <trkpt lat="43.96146" lon="2.34487">
        <ele>398</ele>
        <time>2021-04-18T11:46:16Z</time>
      </trkpt>
      <trkpt lat="43.96145" lon="2.34487">
        <ele>397</ele>
        <time>2021-04-18T11:46:17Z</time>
      </trkpt>
      <trkpt lat="43.96144" lon="2.34487">
        <ele>397</ele>
        <time>2021-04-18T11:46:18Z</time>
      </trkpt>
      <trkpt lat="43.96142" lon="2.34487">
        <ele>396</ele>
        <time>2021-04-18T11:46:19Z</time>
      </trkpt>
      <trkpt lat="43.9614" lon="2.34487">
        <ele>396</ele>
        <time>2021-04-18T11:46:20Z</time>
      </trkpt>
      <trkpt lat="43.96138" lon="2.34488">
        <ele>395</ele>
        <time>2021-04-18T11:46:21Z</time>
      </trkpt>
      <trkpt lat="43.96137" lon="2.34487">
        <ele>395</ele>
        <time>2021-04-18T11:46:22Z</time>
      </trkpt>
      <trkpt lat="43.96135" lon="2.34487">
        <ele>394</ele>
        <time>2021-04-18T11:46:23Z</time>
      </trkpt>
      <trkpt lat="43.96134" lon="2.34487">
        <ele>394</ele>
        <time>2021-04-18T11:46:24Z</time>
      </trkpt>
      <trkpt lat="43.96132" lon="2.34488">
        <ele>393</ele>
        <time>2021-04-18T11:46:25Z</time>
      </trkpt>
      <trkpt lat="43.96131" lon="2.34488">
        <ele>393</ele>
        <time>2021-04-18T11:46:26Z</time>
      </trkpt>
      <trkpt lat="43.9613" lon="2.34488">
        <ele>393</ele>
        <time>2021-04-18T11:46:27Z</time>
      </trkpt>
      <trkpt lat="43.96129" lon="2.34489">
        <ele>392</ele>
        <time>2021-04-18T11:46:28Z</time>
      </trkpt>
      <trkpt lat="43.96128" lon="2.3449">
        <ele>391</ele>
        <time>2021-04-18T11:46:29Z</time>
      </trkpt>
      <trkpt lat="43.96127" lon="2.3449">
        <ele>391</ele>
        <time>2021-04-18T11:46:30Z</time>
      </trkpt>
      <trkpt lat="43.96125" lon="2.34491">
        <ele>390</ele>
        <time>2021-04-18T11:46:31Z</time>
      </trkpt>
      <trkpt lat="43.96124" lon="2.34492">
        <ele>390</ele>
        <time>2021-04-18T11:46:32Z</time>
      </trkpt>
      <trkpt lat="43.96123" lon="2.34493">
        <ele>390</ele>
        <time>2021-04-18T11:46:33Z</time>
      </trkpt>
      <trkpt lat="43.96122" lon="2.34494">
        <ele>390</ele>
        <time>2021-04-18T11:46:34Z</time>
      </trkpt>
      <trkpt lat="43.96121" lon="2.34494">
        <ele>390</ele>
        <time>2021-04-18T11:46:35Z</time>
      </trkpt>
      <trkpt lat="43.9612" lon="2.34495">
        <ele>390</ele>
        <time>2021-04-18T11:46:36Z</time>
      </trkpt>
      <trkpt lat="43.96119" lon="2.34495">
        <ele>390</ele>
        <time>2021-04-18T11:46:37Z</time>
      </trkpt>
      <trkpt lat="43.96117" lon="2.34496">
        <ele>390</ele>
        <time>2021-04-18T11:46:38Z</time>
      </trkpt>
      <trkpt lat="43.96116" lon="2.34496">
        <ele>390</ele>
        <time>2021-04-18T11:46:39Z</time>
      </trkpt>
      <trkpt lat="43.96114" lon="2.34497">
        <ele>390</ele>
        <time>2021-04-18T11:46:40Z</time>
      </trkpt>
      <trkpt lat="43.96114" lon="2.34497">
        <ele>390</ele>
        <time>2021-04-18T11:46:41Z</time>
      </trkpt>
      <trkpt lat="43.96112" lon="2.34497">
        <ele>390</ele>
        <time>2021-04-18T11:46:42Z</time>
      </trkpt>
      <trkpt lat="43.96111" lon="2.34497">
        <ele>390</ele>
        <time>2021-04-18T11:46:43Z</time>
      </trkpt>
      <trkpt lat="43.96109" lon="2.34498">
        <ele>391</ele>
        <time>2021-04-18T11:46:44Z</time>
      </trkpt>
      <trkpt lat="43.96108" lon="2.34499">
        <ele>391</ele>
        <time>2021-04-18T11:46:45Z</time>
      </trkpt>
      <trkpt lat="43.96106" lon="2.345">
        <ele>391</ele>
        <time>2021-04-18T11:46:46Z</time>
      </trkpt>
      <trkpt lat="43.96104" lon="2.345">
        <ele>391</ele>
        <time>2021-04-18T11:46:47Z</time>
      </trkpt>
      <trkpt lat="43.96103" lon="2.34501">
        <ele>391</ele>
        <time>2021-04-18T11:46:48Z</time>
      </trkpt>
      <trkpt lat="43.96102" lon="2.34502">
        <ele>391</ele>
        <time>2021-04-18T11:46:49Z</time>
      </trkpt>
      <trkpt lat="43.96101" lon="2.34503">
        <ele>390</ele>
        <time>2021-04-18T11:46:50Z</time>
      </trkpt>
      <trkpt lat="43.961" lon="2.34503">
        <ele>390</ele>
        <time>2021-04-18T11:46:51Z</time>
      </trkpt>
      <trkpt lat="43.96098" lon="2.34504">
        <ele>389</ele>
        <time>2021-04-18T11:46:52Z</time>
      </trkpt>
      <trkpt lat="43.96097" lon="2.34505">
        <ele>390</ele>
        <time>2021-04-18T11:46:53Z</time>
      </trkpt>
      <trkpt lat="43.96096" lon="2.34507">
        <ele>389</ele>
        <time>2021-04-18T11:46:54Z</time>
      </trkpt>
      <trkpt lat="43.96095" lon="2.34508">
        <ele>390</ele>
        <time>2021-04-18T11:46:55Z</time>
      </trkpt>
      <trkpt lat="43.96093" lon="2.34508">
        <ele>390</ele>
        <time>2021-04-18T11:46:56Z</time>
      </trkpt>
      <trkpt lat="43.96092" lon="2.34509">
        <ele>390</ele>
        <time>2021-04-18T11:46:57Z</time>
      </trkpt>
      <trkpt lat="43.9609" lon="2.3451">
        <ele>389</ele>
        <time>2021-04-18T11:46:58Z</time>
      </trkpt>
      <trkpt lat="43.96089" lon="2.34511">
        <ele>389</ele>
        <time>2021-04-18T11:46:59Z</time>
      </trkpt>
      <trkpt lat="43.96087" lon="2.34512">
        <ele>389</ele>
        <time>2021-04-18T11:47:00Z</time>
      </trkpt>
      <trkpt lat="43.96086" lon="2.34513">
        <ele>390</ele>
        <time>2021-04-18T11:47:01Z</time>
      </trkpt>
      <trkpt lat="43.96086" lon="2.34515">
        <ele>389</ele>
        <time>2021-04-18T11:47:02Z</time>
      </trkpt>
      <trkpt lat="43.96085" lon="2.34518">
        <ele>389</ele>
        <time>2021-04-18T11:47:03Z</time>
      </trkpt>
      <trkpt lat="43.96085" lon="2.3452">
        <ele>389</ele>
        <time>2021-04-18T11:47:04Z</time>
      </trkpt>
      <trkpt lat="43.96084" lon="2.34523">
        <ele>389</ele>
        <time>2021-04-18T11:47:05Z</time>
      </trkpt>
      <trkpt lat="43.96083" lon="2.34525">
        <ele>389</ele>
        <time>2021-04-18T11:47:06Z</time>
      </trkpt>
      <trkpt lat="43.96082" lon="2.34527">
        <ele>388</ele>
        <time>2021-04-18T11:47:07Z</time>
      </trkpt>
      <trkpt lat="43.96082" lon="2.3453">
        <ele>388</ele>
        <time>2021-04-18T11:47:08Z</time>
      </trkpt>
      <trkpt lat="43.96081" lon="2.34532">
        <ele>387</ele>
        <time>2021-04-18T11:47:09Z</time>
      </trkpt>
      <trkpt lat="43.9608" lon="2.34533">
        <ele>387</ele>
        <time>2021-04-18T11:47:10Z</time>
      </trkpt>
      <trkpt lat="43.96079" lon="2.34535">
        <ele>387</ele>
        <time>2021-04-18T11:47:11Z</time>
      </trkpt>
      <trkpt lat="43.96079" lon="2.34536">
        <ele>387</ele>
        <time>2021-04-18T11:47:12Z</time>
      </trkpt>
      <trkpt lat="43.96078" lon="2.34538">
        <ele>387</ele>
        <time>2021-04-18T11:47:13Z</time>
      </trkpt>
      <trkpt lat="43.96078" lon="2.34539">
        <ele>387</ele>
        <time>2021-04-18T11:47:14Z</time>
      </trkpt>
      <trkpt lat="43.96077" lon="2.34541">
        <ele>387</ele>
        <time>2021-04-18T11:47:15Z</time>
      </trkpt>
      <trkpt lat="43.96076" lon="2.34542">
        <ele>388</ele>
        <time>2021-04-18T11:47:16Z</time>
      </trkpt>
      <trkpt lat="43.96075" lon="2.34544">
        <ele>388</ele>
        <time>2021-04-18T11:47:17Z</time>
      </trkpt>
      <trkpt lat="43.96074" lon="2.34546">
        <ele>387</ele>
        <time>2021-04-18T11:47:18Z</time>
      </trkpt>
      <trkpt lat="43.96074" lon="2.34548">
        <ele>387</ele>
        <time>2021-04-18T11:47:19Z</time>
      </trkpt>
      <trkpt lat="43.96072" lon="2.34549">
        <ele>387</ele>
        <time>2021-04-18T11:47:20Z</time>
      </trkpt>
      <trkpt lat="43.96072" lon="2.34551">
        <ele>386</ele>
        <time>2021-04-18T11:47:21Z</time>
      </trkpt>
      <trkpt lat="43.96071" lon="2.34553">
        <ele>386</ele>
        <time>2021-04-18T11:47:22Z</time>
      </trkpt>
      <trkpt lat="43.96071" lon="2.34555">
        <ele>386</ele>
        <time>2021-04-18T11:47:23Z</time>
      </trkpt>
      <trkpt lat="43.96071" lon="2.34557">
        <ele>385</ele>
        <time>2021-04-18T11:47:24Z</time>
      </trkpt>
      <trkpt lat="43.9607" lon="2.34558">
        <ele>386</ele>
        <time>2021-04-18T11:47:25Z</time>
      </trkpt>
      <trkpt lat="43.96069" lon="2.3456">
        <ele>385</ele>
        <time>2021-04-18T11:47:26Z</time>
      </trkpt>
      <trkpt lat="43.96069" lon="2.34563">
        <ele>385</ele>
        <time>2021-04-18T11:47:27Z</time>
      </trkpt>
      <trkpt lat="43.96068" lon="2.34565">
        <ele>385</ele>
        <time>2021-04-18T11:47:28Z</time>
      </trkpt>
      <trkpt lat="43.96067" lon="2.34567">
        <ele>384</ele>
        <time>2021-04-18T11:47:29Z</time>
      </trkpt>
      <trkpt lat="43.96067" lon="2.34568">
        <ele>383</ele>
        <time>2021-04-18T11:47:30Z</time>
      </trkpt>
      <trkpt lat="43.96066" lon="2.3457">
        <ele>383</ele>
        <time>2021-04-18T11:47:31Z</time>
      </trkpt>
      <trkpt lat="43.96066" lon="2.34571">
        <ele>383</ele>
        <time>2021-04-18T11:47:32Z</time>
      </trkpt>
      <trkpt lat="43.96065" lon="2.34573">
        <ele>384</ele>
        <time>2021-04-18T11:47:33Z</time>
      </trkpt>
      <trkpt lat="43.96064" lon="2.34575">
        <ele>384</ele>
        <time>2021-04-18T11:47:34Z</time>
      </trkpt>
      <trkpt lat="43.96063" lon="2.34576">
        <ele>384</ele>
        <time>2021-04-18T11:47:35Z</time>
      </trkpt>
      <trkpt lat="43.96062" lon="2.34578">
        <ele>384</ele>
        <time>2021-04-18T11:47:36Z</time>
      </trkpt>
      <trkpt lat="43.96061" lon="2.3458">
        <ele>384</ele>
        <time>2021-04-18T11:47:37Z</time>
      </trkpt>
      <trkpt lat="43.96061" lon="2.34582">
        <ele>384</ele>
        <time>2021-04-18T11:47:38Z</time>
      </trkpt>
      <trkpt lat="43.9606" lon="2.34583">
        <ele>384</ele>
        <time>2021-04-18T11:47:39Z</time>
      </trkpt>
      <trkpt lat="43.96059" lon="2.34585">
        <ele>383</ele>
        <time>2021-04-18T11:47:40Z</time>
      </trkpt>
      <trkpt lat="43.96059" lon="2.34587">
        <ele>383</ele>
        <time>2021-04-18T11:47:41Z</time>
      </trkpt>
      <trkpt lat="43.96058" lon="2.34589">
        <ele>382</ele>
        <time>2021-04-18T11:47:42Z</time>
      </trkpt>
      <trkpt lat="43.96058" lon="2.34591">
        <ele>382</ele>
        <time>2021-04-18T11:47:43Z</time>
      </trkpt>
      <trkpt lat="43.96058" lon="2.34593">
        <ele>382</ele>
        <time>2021-04-18T11:47:44Z</time>
      </trkpt>
      <trkpt lat="43.96058" lon="2.34595">
        <ele>382</ele>
        <time>2021-04-18T11:47:45Z</time>
      </trkpt>
      <trkpt lat="43.96057" lon="2.34597">
        <ele>382</ele>
        <time>2021-04-18T11:47:46Z</time>
      </trkpt>
      <trkpt lat="43.96057" lon="2.34599">
        <ele>381</ele>
        <time>2021-04-18T11:47:47Z</time>
      </trkpt>
      <trkpt lat="43.96056" lon="2.34601">
        <ele>382</ele>
        <time>2021-04-18T11:47:48Z</time>
      </trkpt>
      <trkpt lat="43.96055" lon="2.34603">
        <ele>382</ele>
        <time>2021-04-18T11:47:49Z</time>
      </trkpt>
      <trkpt lat="43.96055" lon="2.34605">
        <ele>382</ele>
        <time>2021-04-18T11:47:50Z</time>
      </trkpt>
      <trkpt lat="43.96054" lon="2.34607">
        <ele>382</ele>
        <time>2021-04-18T11:47:51Z</time>
      </trkpt>
      <trkpt lat="43.96053" lon="2.34608">
        <ele>382</ele>
        <time>2021-04-18T11:47:52Z</time>
      </trkpt>
      <trkpt lat="43.96052" lon="2.34609">
        <ele>382</ele>
        <time>2021-04-18T11:47:53Z</time>
      </trkpt>
      <trkpt lat="43.96052" lon="2.34611">
        <ele>382</ele>
        <time>2021-04-18T11:47:54Z</time>
      </trkpt>
      <trkpt lat="43.96051" lon="2.34613">
        <ele>382</ele>
        <time>2021-04-18T11:47:55Z</time>
      </trkpt>
      <trkpt lat="43.9605" lon="2.34615">
        <ele>382</ele>
        <time>2021-04-18T11:47:56Z</time>
      </trkpt>
      <trkpt lat="43.96048" lon="2.34616">
        <ele>382</ele>
        <time>2021-04-18T11:47:57Z</time>
      </trkpt>
      <trkpt lat="43.96048" lon="2.34618">
        <ele>382</ele>
        <time>2021-04-18T11:47:58Z</time>
      </trkpt>
      <trkpt lat="43.96047" lon="2.34621">
        <ele>381</ele>
        <time>2021-04-18T11:47:59Z</time>
      </trkpt>
      <trkpt lat="43.96047" lon="2.34622">
        <ele>381</ele>
        <time>2021-04-18T11:48:00Z</time>
      </trkpt>
      <trkpt lat="43.96046" lon="2.34624">
        <ele>381</ele>
        <time>2021-04-18T11:48:01Z</time>
      </trkpt>
      <trkpt lat="43.96046" lon="2.34625">
        <ele>381</ele>
        <time>2021-04-18T11:48:02Z</time>
      </trkpt>
      <trkpt lat="43.96046" lon="2.34627">
        <ele>380</ele>
        <time>2021-04-18T11:48:03Z</time>
      </trkpt>
      <trkpt lat="43.96045" lon="2.34629">
        <ele>380</ele>
        <time>2021-04-18T11:48:04Z</time>
      </trkpt>
      <trkpt lat="43.96045" lon="2.34631">
        <ele>380</ele>
        <time>2021-04-18T11:48:05Z</time>
      </trkpt>
      <trkpt lat="43.96045" lon="2.34632">
        <ele>380</ele>
        <time>2021-04-18T11:48:06Z</time>
      </trkpt>
      <trkpt lat="43.96044" lon="2.34633">
        <ele>379</ele>
        <time>2021-04-18T11:48:07Z</time>
      </trkpt>
      <trkpt lat="43.96043" lon="2.34635">
        <ele>379</ele>
        <time>2021-04-18T11:48:08Z</time>
      </trkpt>
      <trkpt lat="43.96043" lon="2.34636">
        <ele>378</ele>
        <time>2021-04-18T11:48:09Z</time>
      </trkpt>
      <trkpt lat="43.96042" lon="2.34638">
        <ele>378</ele>
        <time>2021-04-18T11:48:10Z</time>
      </trkpt>
      <trkpt lat="43.96042" lon="2.34639">
        <ele>377</ele>
        <time>2021-04-18T11:48:11Z</time>
      </trkpt>
      <trkpt lat="43.96041" lon="2.34641">
        <ele>378</ele>
        <time>2021-04-18T11:48:12Z</time>
      </trkpt>
      <trkpt lat="43.9604" lon="2.34643">
        <ele>379</ele>
        <time>2021-04-18T11:48:13Z</time>
      </trkpt>
      <trkpt lat="43.9604" lon="2.34645">
        <ele>379</ele>
        <time>2021-04-18T11:48:14Z</time>
      </trkpt>
      <trkpt lat="43.9604" lon="2.34647">
        <ele>379</ele>
        <time>2021-04-18T11:48:15Z</time>
      </trkpt>
      <trkpt lat="43.9604" lon="2.34648">
        <ele>379</ele>
        <time>2021-04-18T11:48:16Z</time>
      </trkpt>
      <trkpt lat="43.9604" lon="2.3465">
        <ele>378</ele>
        <time>2021-04-18T11:48:17Z</time>
      </trkpt>
      <trkpt lat="43.9604" lon="2.34651">
        <ele>378</ele>
        <time>2021-04-18T11:48:18Z</time>
      </trkpt>
      <trkpt lat="43.96039" lon="2.34653">
        <ele>377</ele>
        <time>2021-04-18T11:48:19Z</time>
      </trkpt>
      <trkpt lat="43.96039" lon="2.34654">
        <ele>377</ele>
        <time>2021-04-18T11:48:20Z</time>
      </trkpt>
      <trkpt lat="43.96038" lon="2.34656">
        <ele>376</ele>
        <time>2021-04-18T11:48:21Z</time>
      </trkpt>
      <trkpt lat="43.96038" lon="2.34658">
        <ele>376</ele>
        <time>2021-04-18T11:48:22Z</time>
      </trkpt>
      <trkpt lat="43.96037" lon="2.3466">
        <ele>375</ele>
        <time>2021-04-18T11:48:23Z</time>
      </trkpt>
      <trkpt lat="43.96037" lon="2.34662">
        <ele>375</ele>
        <time>2021-04-18T11:48:24Z</time>
      </trkpt>
      <trkpt lat="43.96036" lon="2.34665">
        <ele>374</ele>
        <time>2021-04-18T11:48:25Z</time>
      </trkpt>
      <trkpt lat="43.96036" lon="2.34667">
        <ele>373</ele>
        <time>2021-04-18T11:48:26Z</time>
      </trkpt>
      <trkpt lat="43.96037" lon="2.34668">
        <ele>373</ele>
        <time>2021-04-18T11:48:27Z</time>
      </trkpt>
      <trkpt lat="43.96037" lon="2.3467">
        <ele>372</ele>
        <time>2021-04-18T11:48:28Z</time>
      </trkpt>
      <trkpt lat="43.96036" lon="2.34672">
        <ele>372</ele>
        <time>2021-04-18T11:48:29Z</time>
      </trkpt>
      <trkpt lat="43.96036" lon="2.34674">
        <ele>372</ele>
        <time>2021-04-18T11:48:30Z</time>
      </trkpt>
      <trkpt lat="43.96036" lon="2.34676">
        <ele>371</ele>
        <time>2021-04-18T11:48:31Z</time>
      </trkpt>
      <trkpt lat="43.96035" lon="2.34678">
        <ele>371</ele>
        <time>2021-04-18T11:48:32Z</time>
      </trkpt>
      <trkpt lat="43.96034" lon="2.3468">
        <ele>371</ele>
        <time>2021-04-18T11:48:33Z</time>
      </trkpt>
      <trkpt lat="43.96034" lon="2.34682">
        <ele>370</ele>
        <time>2021-04-18T11:48:34Z</time>
      </trkpt>
      <trkpt lat="43.96033" lon="2.34684">
        <ele>370</ele>
        <time>2021-04-18T11:48:35Z</time>
      </trkpt>
      <trkpt lat="43.96033" lon="2.34686">
        <ele>370</ele>
        <time>2021-04-18T11:48:36Z</time>
      </trkpt>
      <trkpt lat="43.96032" lon="2.34688">
        <ele>370</ele>
        <time>2021-04-18T11:48:37Z</time>
      </trkpt>
      <trkpt lat="43.96032" lon="2.3469">
        <ele>370</ele>
        <time>2021-04-18T11:48:38Z</time>
      </trkpt>
      <trkpt lat="43.96032" lon="2.34692">
        <ele>369</ele>
        <time>2021-04-18T11:48:39Z</time>
      </trkpt>
      <trkpt lat="43.96031" lon="2.34694">
        <ele>370</ele>
        <time>2021-04-18T11:48:40Z</time>
      </trkpt>
      <trkpt lat="43.96031" lon="2.34697">
        <ele>369</ele>
        <time>2021-04-18T11:48:41Z</time>
      </trkpt>
      <trkpt lat="43.9603" lon="2.34699">
        <ele>369</ele>
        <time>2021-04-18T11:48:42Z</time>
      </trkpt>
      <trkpt lat="43.9603" lon="2.34702">
        <ele>368</ele>
        <time>2021-04-18T11:48:43Z</time>
      </trkpt>
      <trkpt lat="43.96029" lon="2.34704">
        <ele>368</ele>
        <time>2021-04-18T11:48:44Z</time>
      </trkpt>
      <trkpt lat="43.96028" lon="2.34705">
        <ele>367</ele>
        <time>2021-04-18T11:48:45Z</time>
      </trkpt>
      <trkpt lat="43.96027" lon="2.34706">
        <ele>367</ele>
        <time>2021-04-18T11:48:46Z</time>
      </trkpt>
      <trkpt lat="43.96027" lon="2.34707">
        <ele>366</ele>
        <time>2021-04-18T11:48:47Z</time>
      </trkpt>
      <trkpt lat="43.96027" lon="2.34708">
        <ele>365</ele>
        <time>2021-04-18T11:48:48Z</time>
      </trkpt>
      <trkpt lat="43.96028" lon="2.34709">
        <ele>364</ele>
        <time>2021-04-18T11:48:49Z</time>
      </trkpt>
      <trkpt lat="43.96028" lon="2.3471">
        <ele>362</ele>
        <time>2021-04-18T11:48:50Z</time>
      </trkpt>
      <trkpt lat="43.96028" lon="2.3471">
        <ele>362</ele>
        <time>2021-04-18T11:48:51Z</time>
      </trkpt>
      <trkpt lat="43.96028" lon="2.34709">
        <ele>361</ele>
        <time>2021-04-18T11:48:52Z</time>
      </trkpt>
      <trkpt lat="43.96028" lon="2.34709">
        <ele>361</ele>
        <time>2021-04-18T11:48:53Z</time>
      </trkpt>
      <trkpt lat="43.96027" lon="2.34709">
        <ele>361</ele>
        <time>2021-04-18T11:48:54Z</time>
      </trkpt>
      <trkpt lat="43.96027" lon="2.34709">
        <ele>361</ele>
        <time>2021-04-18T11:48:55Z</time>
      </trkpt>
      <trkpt lat="43.96027" lon="2.3471">
        <ele>361</ele>
        <time>2021-04-18T11:48:56Z</time>
      </trkpt>
      <trkpt lat="43.96027" lon="2.34709">
        <ele>361</ele>
        <time>2021-04-18T11:48:57Z</time>
      </trkpt>
      <trkpt lat="43.96027" lon="2.34708">
        <ele>361</ele>
        <time>2021-04-18T11:48:58Z</time>
      </trkpt>
      <trkpt lat="43.96027" lon="2.34707">
        <ele>360</ele>
        <time>2021-04-18T11:48:59Z</time>
      </trkpt>
      <trkpt lat="43.96028" lon="2.34706">
        <ele>360</ele>
        <time>2021-04-18T11:49:00Z</time>
      </trkpt>
      <trkpt lat="43.96028" lon="2.34705">
        <ele>359</ele>
        <time>2021-04-18T11:49:01Z</time>
      </trkpt>
      <trkpt lat="43.96029" lon="2.34703">
        <ele>359</ele>
        <time>2021-04-18T11:49:02Z</time>
      </trkpt>
      <trkpt lat="43.96029" lon="2.34702">
        <ele>359</ele>
        <time>2021-04-18T11:49:03Z</time>
      </trkpt>
      <trkpt lat="43.96029" lon="2.34702">
        <ele>358</ele>
        <time>2021-04-18T11:49:04Z</time>
      </trkpt>
      <trkpt lat="43.96028" lon="2.347">
        <ele>358</ele>
        <time>2021-04-18T11:49:05Z</time>
      </trkpt>
      <trkpt lat="43.96028" lon="2.34699">
        <ele>358</ele>
        <time>2021-04-18T11:49:06Z</time>
      </trkpt>
      <trkpt lat="43.96029" lon="2.34698">
        <ele>358</ele>
        <time>2021-04-18T11:49:07Z</time>
      </trkpt>
      <trkpt lat="43.96028" lon="2.34696">
        <ele>357</ele>
        <time>2021-04-18T11:49:08Z</time>
      </trkpt>
      <trkpt lat="43.96028" lon="2.34694">
        <ele>358</ele>
        <time>2021-04-18T11:49:09Z</time>
      </trkpt>
      <trkpt lat="43.96027" lon="2.34693">
        <ele>358</ele>
        <time>2021-04-18T11:49:10Z</time>
      </trkpt>
      <trkpt lat="43.96027" lon="2.34691">
        <ele>358</ele>
        <time>2021-04-18T11:49:11Z</time>
      </trkpt>
      <trkpt lat="43.96027" lon="2.3469">
        <ele>358</ele>
        <time>2021-04-18T11:49:12Z</time>
      </trkpt>
      <trkpt lat="43.96027" lon="2.34689">
        <ele>357</ele>
        <time>2021-04-18T11:49:13Z</time>
      </trkpt>
      <trkpt lat="43.96027" lon="2.34688">
        <ele>358</ele>
        <time>2021-04-18T11:49:14Z</time>
      </trkpt>
      <trkpt lat="43.96028" lon="2.34685">
        <ele>357</ele>
        <time>2021-04-18T11:49:15Z</time>
      </trkpt>
      <trkpt lat="43.96028" lon="2.34684">
        <ele>357</ele>
        <time>2021-04-18T11:49:16Z</time>
      </trkpt>
      <trkpt lat="43.96029" lon="2.34682">
        <ele>357</ele>
        <time>2021-04-18T11:49:17Z</time>
      </trkpt>
      <trkpt lat="43.96029" lon="2.3468">
        <ele>357</ele>
        <time>2021-04-18T11:49:18Z</time>
      </trkpt>
      <trkpt lat="43.96029" lon="2.34678">
        <ele>357</ele>
        <time>2021-04-18T11:49:19Z</time>
      </trkpt>
      <trkpt lat="43.96029" lon="2.34676">
        <ele>357</ele>
        <time>2021-04-18T11:49:20Z</time>
      </trkpt>
      <trkpt lat="43.96029" lon="2.34674">
        <ele>356</ele>
        <time>2021-04-18T11:49:21Z</time>
      </trkpt>
      <trkpt lat="43.96029" lon="2.34673">
        <ele>356</ele>
        <time>2021-04-18T11:49:22Z</time>
      </trkpt>
      <trkpt lat="43.96029" lon="2.34672">
        <ele>355</ele>
        <time>2021-04-18T11:49:23Z</time>
      </trkpt>
      <trkpt lat="43.96029" lon="2.3467">
        <ele>355</ele>
        <time>2021-04-18T11:49:24Z</time>
      </trkpt>
      <trkpt lat="43.96029" lon="2.34668">
        <ele>355</ele>
        <time>2021-04-18T11:49:25Z</time>
      </trkpt>
      <trkpt lat="43.96029" lon="2.34666">
        <ele>355</ele>
        <time>2021-04-18T11:49:26Z</time>
      </trkpt>
      <trkpt lat="43.96028" lon="2.34665">
        <ele>354</ele>
        <time>2021-04-18T11:49:27Z</time>
      </trkpt>
      <trkpt lat="43.96027" lon="2.34664">
        <ele>353</ele>
        <time>2021-04-18T11:49:28Z</time>
      </trkpt>
      <trkpt lat="43.96025" lon="2.34664">
        <ele>353</ele>
        <time>2021-04-18T11:49:29Z</time>
      </trkpt>
      <trkpt lat="43.96024" lon="2.34664">
        <ele>352</ele>
        <time>2021-04-18T11:49:30Z</time>
      </trkpt>
      <trkpt lat="43.96023" lon="2.34664">
        <ele>353</ele>
        <time>2021-04-18T11:49:31Z</time>
      </trkpt>
      <trkpt lat="43.96021" lon="2.34664">
        <ele>353</ele>
        <time>2021-04-18T11:49:32Z</time>
      </trkpt>
      <trkpt lat="43.9602" lon="2.34664">
        <ele>353</ele>
        <time>2021-04-18T11:49:33Z</time>
      </trkpt>
      <trkpt lat="43.96019" lon="2.34664">
        <ele>352</ele>
        <time>2021-04-18T11:49:34Z</time>
      </trkpt>
      <trkpt lat="43.96017" lon="2.34665">
        <ele>351</ele>
        <time>2021-04-18T11:49:35Z</time>
      </trkpt>
      <trkpt lat="43.96016" lon="2.34665">
        <ele>351</ele>
        <time>2021-04-18T11:49:36Z</time>
      </trkpt>
      <trkpt lat="43.96015" lon="2.34666">
        <ele>351</ele>
        <time>2021-04-18T11:49:37Z</time>
      </trkpt>
      <trkpt lat="43.96014" lon="2.34666">
        <ele>350</ele>
        <time>2021-04-18T11:49:38Z</time>
      </trkpt>
      <trkpt lat="43.96013" lon="2.34667">
        <ele>350</ele>
        <time>2021-04-18T11:49:39Z</time>
      </trkpt>
      <trkpt lat="43.96012" lon="2.34667">
        <ele>349</ele>
        <time>2021-04-18T11:49:40Z</time>
      </trkpt>
      <trkpt lat="43.96011" lon="2.34668">
        <ele>349</ele>
        <time>2021-04-18T11:49:41Z</time>
      </trkpt>
      <trkpt lat="43.96009" lon="2.34669">
        <ele>348</ele>
        <time>2021-04-18T11:49:42Z</time>
      </trkpt>
      <trkpt lat="43.96008" lon="2.3467">
        <ele>349</ele>
        <time>2021-04-18T11:49:43Z</time>
      </trkpt>
      <trkpt lat="43.96008" lon="2.34671">
        <ele>349</ele>
        <time>2021-04-18T11:49:44Z</time>
      </trkpt>
      <trkpt lat="43.96006" lon="2.34673">
        <ele>349</ele>
        <time>2021-04-18T11:49:45Z</time>
      </trkpt>
      <trkpt lat="43.96006" lon="2.34675">
        <ele>348</ele>
        <time>2021-04-18T11:49:46Z</time>
      </trkpt>
      <trkpt lat="43.96005" lon="2.34676">
        <ele>348</ele>
        <time>2021-04-18T11:49:47Z</time>
      </trkpt>
      <trkpt lat="43.96004" lon="2.34677">
        <ele>348</ele>
        <time>2021-04-18T11:49:48Z</time>
      </trkpt>
      <trkpt lat="43.96003" lon="2.34678">
        <ele>347</ele>
        <time>2021-04-18T11:49:49Z</time>
      </trkpt>
      <trkpt lat="43.96001" lon="2.34679">
        <ele>347</ele>
        <time>2021-04-18T11:49:50Z</time>
      </trkpt>
      <trkpt lat="43.96" lon="2.3468">
        <ele>346</ele>
        <time>2021-04-18T11:49:51Z</time>
      </trkpt>
      <trkpt lat="43.95999" lon="2.34681">
        <ele>347</ele>
        <time>2021-04-18T11:49:52Z</time>
      </trkpt>
      <trkpt lat="43.95998" lon="2.34681">
        <ele>347</ele>
        <time>2021-04-18T11:49:53Z</time>
      </trkpt>
      <trkpt lat="43.95997" lon="2.34682">
        <ele>347</ele>
        <time>2021-04-18T11:49:54Z</time>
      </trkpt>
      <trkpt lat="43.95996" lon="2.34683">
        <ele>347</ele>
        <time>2021-04-18T11:49:55Z</time>
      </trkpt>
      <trkpt lat="43.95995" lon="2.34684">
        <ele>347</ele>
        <time>2021-04-18T11:49:56Z</time>
      </trkpt>
      <trkpt lat="43.95994" lon="2.34685">
        <ele>347</ele>
        <time>2021-04-18T11:49:57Z</time>
      </trkpt>
      <trkpt lat="43.95993" lon="2.34686">
        <ele>346</ele>
        <time>2021-04-18T11:49:58Z</time>
      </trkpt>
      <trkpt lat="43.95993" lon="2.34686">
        <ele>347</ele>
        <time>2021-04-18T11:49:59Z</time>
      </trkpt>
      <trkpt lat="43.95992" lon="2.34686">
        <ele>346</ele>
        <time>2021-04-18T11:50:00Z</time>
      </trkpt>
      <trkpt lat="43.95991" lon="2.34687">
        <ele>346</ele>
        <time>2021-04-18T11:50:01Z</time>
      </trkpt>
      <trkpt lat="43.9599" lon="2.34688">
        <ele>346</ele>
        <time>2021-04-18T11:50:02Z</time>
      </trkpt>
      <trkpt lat="43.95989" lon="2.3469">
        <ele>346</ele>
        <time>2021-04-18T11:50:03Z</time>
      </trkpt>
      <trkpt lat="43.95988" lon="2.34691">
        <ele>347</ele>
        <time>2021-04-18T11:50:04Z</time>
      </trkpt>
      <trkpt lat="43.95987" lon="2.34691">
        <ele>347</ele>
        <time>2021-04-18T11:50:05Z</time>
      </trkpt>
      <trkpt lat="43.95986" lon="2.34692">
        <ele>347</ele>
        <time>2021-04-18T11:50:06Z</time>
      </trkpt>
      <trkpt lat="43.95985" lon="2.34693">
        <ele>347</ele>
        <time>2021-04-18T11:50:07Z</time>
      </trkpt>
      <trkpt lat="43.95984" lon="2.34694">
        <ele>347</ele>
        <time>2021-04-18T11:50:08Z</time>
      </trkpt>
      <trkpt lat="43.95983" lon="2.34694">
        <ele>347</ele>
        <time>2021-04-18T11:50:09Z</time>
      </trkpt>
      <trkpt lat="43.95982" lon="2.34696">
        <ele>346</ele>
        <time>2021-04-18T11:50:10Z</time>
      </trkpt>
      <trkpt lat="43.95982" lon="2.34696">
        <ele>346</ele>
        <time>2021-04-18T11:50:11Z</time>
      </trkpt>
      <trkpt lat="43.95981" lon="2.34697">
        <ele>346</ele>
        <time>2021-04-18T11:50:12Z</time>
      </trkpt>
      <trkpt lat="43.95981" lon="2.34699">
        <ele>345</ele>
        <time>2021-04-18T11:50:13Z</time>
      </trkpt>
      <trkpt lat="43.9598" lon="2.347">
        <ele>345</ele>
        <time>2021-04-18T11:50:14Z</time>
      </trkpt>
      <trkpt lat="43.95979" lon="2.34701">
        <ele>344</ele>
        <time>2021-04-18T11:50:15Z</time>
      </trkpt>
      <trkpt lat="43.95978" lon="2.34702">
        <ele>345</ele>
        <time>2021-04-18T11:50:16Z</time>
      </trkpt>
      <trkpt lat="43.95976" lon="2.34703">
        <ele>344</ele>
        <time>2021-04-18T11:50:17Z</time>
      </trkpt>
      <trkpt lat="43.95976" lon="2.34704">
        <ele>344</ele>
        <time>2021-04-18T11:50:18Z</time>
      </trkpt>
      <trkpt lat="43.95974" lon="2.34705">
        <ele>344</ele>
        <time>2021-04-18T11:50:19Z</time>
      </trkpt>
      <trkpt lat="43.95973" lon="2.34705">
        <ele>344</ele>
        <time>2021-04-18T11:50:20Z</time>
      </trkpt>
      <trkpt lat="43.95971" lon="2.34706">
        <ele>343</ele>
        <time>2021-04-18T11:50:21Z</time>
      </trkpt>
      <trkpt lat="43.9597" lon="2.34706">
        <ele>343</ele>
        <time>2021-04-18T11:50:22Z</time>
      </trkpt>
      <trkpt lat="43.95969" lon="2.34706">
        <ele>342</ele>
        <time>2021-04-18T11:50:23Z</time>
      </trkpt>
      <trkpt lat="43.95969" lon="2.34706">
        <ele>342</ele>
        <time>2021-04-18T11:50:24Z</time>
      </trkpt>
      <trkpt lat="43.95968" lon="2.34707">
        <ele>342</ele>
        <time>2021-04-18T11:50:25Z</time>
      </trkpt>
      <trkpt lat="43.95966" lon="2.34706">
        <ele>342</ele>
        <time>2021-04-18T11:50:26Z</time>
      </trkpt>
      <trkpt lat="43.95966" lon="2.34706">
        <ele>341</ele>
        <time>2021-04-18T11:50:27Z</time>
      </trkpt>
      <trkpt lat="43.95965" lon="2.34706">
        <ele>341</ele>
        <time>2021-04-18T11:50:28Z</time>
      </trkpt>
      <trkpt lat="43.95964" lon="2.34706">
        <ele>341</ele>
        <time>2021-04-18T11:50:29Z</time>
      </trkpt>
      <trkpt lat="43.95964" lon="2.34706">
        <ele>341</ele>
        <time>2021-04-18T11:50:30Z</time>
      </trkpt>
      <trkpt lat="43.95964" lon="2.34706">
        <ele>341</ele>
        <time>2021-04-18T11:50:31Z</time>
      </trkpt>
      <trkpt lat="43.95964" lon="2.34706">
        <ele>341</ele>
        <time>2021-04-18T11:50:32Z</time>
      </trkpt>
      <trkpt lat="43.95963" lon="2.34707">
        <ele>340</ele>
        <time>2021-04-18T11:50:33Z</time>
      </trkpt>
      <trkpt lat="43.95962" lon="2.34706">
        <ele>340</ele>
        <time>2021-04-18T11:50:34Z</time>
      </trkpt>
      <trkpt lat="43.95961" lon="2.34706">
        <ele>340</ele>
        <time>2021-04-18T11:50:35Z</time>
      </trkpt>
      <trkpt lat="43.9596" lon="2.34706">
        <ele>340</ele>
        <time>2021-04-18T11:50:36Z</time>
      </trkpt>
      <trkpt lat="43.95959" lon="2.34705">
        <ele>339</ele>
        <time>2021-04-18T11:50:37Z</time>
      </trkpt>
      <trkpt lat="43.95958" lon="2.34705">
        <ele>340</ele>
        <time>2021-04-18T11:50:38Z</time>
      </trkpt>
      <trkpt lat="43.95958" lon="2.34705">
        <ele>339</ele>
        <time>2021-04-18T11:50:39Z</time>
      </trkpt>
      <trkpt lat="43.95956" lon="2.34704">
        <ele>338</ele>
        <time>2021-04-18T11:50:40Z</time>
      </trkpt>
      <trkpt lat="43.95955" lon="2.34703">
        <ele>338</ele>
        <time>2021-04-18T11:50:41Z</time>
      </trkpt>
      <trkpt lat="43.95953" lon="2.34703">
        <ele>338</ele>
        <time>2021-04-18T11:50:42Z</time>
      </trkpt>
      <trkpt lat="43.95951" lon="2.34702">
        <ele>337</ele>
        <time>2021-04-18T11:50:43Z</time>
      </trkpt>
      <trkpt lat="43.9595" lon="2.34702">
        <ele>336</ele>
        <time>2021-04-18T11:50:44Z</time>
      </trkpt>
      <trkpt lat="43.95949" lon="2.34702">
        <ele>335</ele>
        <time>2021-04-18T11:50:45Z</time>
      </trkpt>
      <trkpt lat="43.95947" lon="2.34702">
        <ele>335</ele>
        <time>2021-04-18T11:50:46Z</time>
      </trkpt>
      <trkpt lat="43.95946" lon="2.34702">
        <ele>335</ele>
        <time>2021-04-18T11:50:47Z</time>
      </trkpt>
      <trkpt lat="43.95945" lon="2.34702">
        <ele>334</ele>
        <time>2021-04-18T11:50:48Z</time>
      </trkpt>
      <trkpt lat="43.95944" lon="2.34702">
        <ele>333</ele>
        <time>2021-04-18T11:50:49Z</time>
      </trkpt>
      <trkpt lat="43.95942" lon="2.34702">
        <ele>333</ele>
        <time>2021-04-18T11:50:50Z</time>
      </trkpt>
      <trkpt lat="43.95941" lon="2.34702">
        <ele>332</ele>
        <time>2021-04-18T11:50:51Z</time>
      </trkpt>
      <trkpt lat="43.9594" lon="2.34702">
        <ele>332</ele>
        <time>2021-04-18T11:50:52Z</time>
      </trkpt>
      <trkpt lat="43.95939" lon="2.34702">
        <ele>332</ele>
        <time>2021-04-18T11:50:53Z</time>
      </trkpt>
      <trkpt lat="43.95939" lon="2.34702">
        <ele>332</ele>
        <time>2021-04-18T11:50:54Z</time>
      </trkpt>
      <trkpt lat="43.95937" lon="2.34702">
        <ele>331</ele>
        <time>2021-04-18T11:50:55Z</time>
      </trkpt>
      <trkpt lat="43.95936" lon="2.34704">
        <ele>331</ele>
        <time>2021-04-18T11:50:56Z</time>
      </trkpt>
      <trkpt lat="43.95935" lon="2.34704">
        <ele>331</ele>
        <time>2021-04-18T11:50:57Z</time>
      </trkpt>
      <trkpt lat="43.95935" lon="2.34705">
        <ele>331</ele>
        <time>2021-04-18T11:50:58Z</time>
      </trkpt>
      <trkpt lat="43.95933" lon="2.34706">
        <ele>332</ele>
        <time>2021-04-18T11:50:59Z</time>
      </trkpt>
      <trkpt lat="43.95932" lon="2.34706">
        <ele>333</ele>
        <time>2021-04-18T11:51:00Z</time>
      </trkpt>
      <trkpt lat="43.9593" lon="2.34707">
        <ele>332</ele>
        <time>2021-04-18T11:51:01Z</time>
      </trkpt>
      <trkpt lat="43.95929" lon="2.34707">
        <ele>331</ele>
        <time>2021-04-18T11:51:02Z</time>
      </trkpt>
      <trkpt lat="43.95926" lon="2.34707">
        <ele>331</ele>
        <time>2021-04-18T11:51:03Z</time>
      </trkpt>
      <trkpt lat="43.95925" lon="2.34708">
        <ele>331</ele>
        <time>2021-04-18T11:51:04Z</time>
      </trkpt>
      <trkpt lat="43.95923" lon="2.34708">
        <ele>331</ele>
        <time>2021-04-18T11:51:05Z</time>
      </trkpt>
      <trkpt lat="43.95922" lon="2.34708">
        <ele>331</ele>
        <time>2021-04-18T11:51:06Z</time>
      </trkpt>
      <trkpt lat="43.95921" lon="2.34708">
        <ele>330</ele>
        <time>2021-04-18T11:51:07Z</time>
      </trkpt>
      <trkpt lat="43.95919" lon="2.34709">
        <ele>331</ele>
        <time>2021-04-18T11:51:08Z</time>
      </trkpt>
      <trkpt lat="43.95918" lon="2.3471">
        <ele>330</ele>
        <time>2021-04-18T11:51:09Z</time>
      </trkpt>
      <trkpt lat="43.95916" lon="2.3471">
        <ele>330</ele>
        <time>2021-04-18T11:51:10Z</time>
      </trkpt>
      <trkpt lat="43.95915" lon="2.34712">
        <ele>329</ele>
        <time>2021-04-18T11:51:11Z</time>
      </trkpt>
      <trkpt lat="43.95913" lon="2.34712">
        <ele>329</ele>
        <time>2021-04-18T11:51:12Z</time>
      </trkpt>
      <trkpt lat="43.95912" lon="2.34713">
        <ele>329</ele>
        <time>2021-04-18T11:51:13Z</time>
      </trkpt>
      <trkpt lat="43.95911" lon="2.34713">
        <ele>329</ele>
        <time>2021-04-18T11:51:14Z</time>
      </trkpt>
      <trkpt lat="43.95909" lon="2.34712">
        <ele>329</ele>
        <time>2021-04-18T11:51:15Z</time>
      </trkpt>
      <trkpt lat="43.95908" lon="2.34712">
        <ele>329</ele>
        <time>2021-04-18T11:51:16Z</time>
      </trkpt>
      <trkpt lat="43.95906" lon="2.34711">
        <ele>328</ele>
        <time>2021-04-18T11:51:17Z</time>
      </trkpt>
      <trkpt lat="43.95905" lon="2.3471">
        <ele>327</ele>
        <time>2021-04-18T11:51:18Z</time>
      </trkpt>
      <trkpt lat="43.95903" lon="2.34711">
        <ele>327</ele>
        <time>2021-04-18T11:51:19Z</time>
      </trkpt>
      <trkpt lat="43.95902" lon="2.3471">
        <ele>327</ele>
        <time>2021-04-18T11:51:20Z</time>
      </trkpt>
      <trkpt lat="43.95901" lon="2.3471">
        <ele>327</ele>
        <time>2021-04-18T11:51:21Z</time>
      </trkpt>
      <trkpt lat="43.959" lon="2.3471">
        <ele>328</ele>
        <time>2021-04-18T11:51:22Z</time>
      </trkpt>
      <trkpt lat="43.95898" lon="2.34711">
        <ele>327</ele>
        <time>2021-04-18T11:51:23Z</time>
      </trkpt>
      <trkpt lat="43.95897" lon="2.34711">
        <ele>327</ele>
        <time>2021-04-18T11:51:24Z</time>
      </trkpt>
      <trkpt lat="43.95896" lon="2.34712">
        <ele>327</ele>
        <time>2021-04-18T11:51:25Z</time>
      </trkpt>
      <trkpt lat="43.95895" lon="2.34712">
        <ele>326</ele>
        <time>2021-04-18T11:51:26Z</time>
      </trkpt>
      <trkpt lat="43.95894" lon="2.34713">
        <ele>325</ele>
        <time>2021-04-18T11:51:27Z</time>
      </trkpt>
      <trkpt lat="43.95892" lon="2.34714">
        <ele>325</ele>
        <time>2021-04-18T11:51:28Z</time>
      </trkpt>
      <trkpt lat="43.95891" lon="2.34714">
        <ele>325</ele>
        <time>2021-04-18T11:51:29Z</time>
      </trkpt>
      <trkpt lat="43.95889" lon="2.34715">
        <ele>324</ele>
        <time>2021-04-18T11:51:30Z</time>
      </trkpt>
      <trkpt lat="43.95887" lon="2.34715">
        <ele>325</ele>
        <time>2021-04-18T11:51:31Z</time>
      </trkpt>
      <trkpt lat="43.95886" lon="2.34717">
        <ele>325</ele>
        <time>2021-04-18T11:51:32Z</time>
      </trkpt>
      <trkpt lat="43.95883" lon="2.34719">
        <ele>325</ele>
        <time>2021-04-18T11:51:33Z</time>
      </trkpt>
      <trkpt lat="43.95881" lon="2.3472">
        <ele>326</ele>
        <time>2021-04-18T11:51:34Z</time>
      </trkpt>
      <trkpt lat="43.95879" lon="2.34721">
        <ele>326</ele>
        <time>2021-04-18T11:51:35Z</time>
      </trkpt>
      <trkpt lat="43.95878" lon="2.34723">
        <ele>326</ele>
        <time>2021-04-18T11:51:36Z</time>
      </trkpt>
      <trkpt lat="43.95876" lon="2.34725">
        <ele>326</ele>
        <time>2021-04-18T11:51:37Z</time>
      </trkpt>
      <trkpt lat="43.95875" lon="2.34726">
        <ele>326</ele>
        <time>2021-04-18T11:51:38Z</time>
      </trkpt>
      <trkpt lat="43.95874" lon="2.34728">
        <ele>326</ele>
        <time>2021-04-18T11:51:39Z</time>
      </trkpt>
      <trkpt lat="43.95874" lon="2.34729">
        <ele>326</ele>
        <time>2021-04-18T11:51:40Z</time>
      </trkpt>
      <trkpt lat="43.95873" lon="2.3473">
        <ele>326</ele>
        <time>2021-04-18T11:51:41Z</time>
      </trkpt>
      <trkpt lat="43.95871" lon="2.34731">
        <ele>326</ele>
        <time>2021-04-18T11:51:42Z</time>
      </trkpt>
      <trkpt lat="43.95871" lon="2.34732">
        <ele>326</ele>
        <time>2021-04-18T11:51:43Z</time>
      </trkpt>
      <trkpt lat="43.9587" lon="2.34734">
        <ele>326</ele>
        <time>2021-04-18T11:51:44Z</time>
      </trkpt>
      <trkpt lat="43.95869" lon="2.34735">
        <ele>326</ele>
        <time>2021-04-18T11:51:45Z</time>
      </trkpt>
      <trkpt lat="43.95868" lon="2.34736">
        <ele>325</ele>
        <time>2021-04-18T11:51:46Z</time>
      </trkpt>
      <trkpt lat="43.95867" lon="2.34737">
        <ele>325</ele>
        <time>2021-04-18T11:51:47Z</time>
      </trkpt>
      <trkpt lat="43.95866" lon="2.34739">
        <ele>325</ele>
        <time>2021-04-18T11:51:48Z</time>
      </trkpt>
      <trkpt lat="43.95865" lon="2.3474">
        <ele>324</ele>
        <time>2021-04-18T11:51:49Z</time>
      </trkpt>
      <trkpt lat="43.95865" lon="2.34742">
        <ele>323</ele>
        <time>2021-04-18T11:51:50Z</time>
      </trkpt>
      <trkpt lat="43.95864" lon="2.34744">
        <ele>323</ele>
        <time>2021-04-18T11:51:51Z</time>
      </trkpt>
      <trkpt lat="43.95864" lon="2.34746">
        <ele>323</ele>
        <time>2021-04-18T11:51:52Z</time>
      </trkpt>
      <trkpt lat="43.95864" lon="2.34748">
        <ele>323</ele>
        <time>2021-04-18T11:51:53Z</time>
      </trkpt>
      <trkpt lat="43.95863" lon="2.3475">
        <ele>323</ele>
        <time>2021-04-18T11:51:54Z</time>
      </trkpt>
      <trkpt lat="43.95863" lon="2.34753">
        <ele>322</ele>
        <time>2021-04-18T11:51:55Z</time>
      </trkpt>
      <trkpt lat="43.95863" lon="2.34755">
        <ele>322</ele>
        <time>2021-04-18T11:51:56Z</time>
      </trkpt>
      <trkpt lat="43.95862" lon="2.34758">
        <ele>321</ele>
        <time>2021-04-18T11:51:57Z</time>
      </trkpt>
      <trkpt lat="43.95862" lon="2.3476">
        <ele>320</ele>
        <time>2021-04-18T11:51:58Z</time>
      </trkpt>
      <trkpt lat="43.95862" lon="2.34762">
        <ele>319</ele>
        <time>2021-04-18T11:51:59Z</time>
      </trkpt>
      <trkpt lat="43.95862" lon="2.34765">
        <ele>318</ele>
        <time>2021-04-18T11:52:00Z</time>
      </trkpt>
      <trkpt lat="43.95861" lon="2.34767">
        <ele>318</ele>
        <time>2021-04-18T11:52:01Z</time>
      </trkpt>
      <trkpt lat="43.95861" lon="2.3477">
        <ele>317</ele>
        <time>2021-04-18T11:52:02Z</time>
      </trkpt>
      <trkpt lat="43.95861" lon="2.34772">
        <ele>317</ele>
        <time>2021-04-18T11:52:03Z</time>
      </trkpt>
      <trkpt lat="43.95861" lon="2.34775">
        <ele>317</ele>
        <time>2021-04-18T11:52:04Z</time>
      </trkpt>
      <trkpt lat="43.95861" lon="2.34778">
        <ele>317</ele>
        <time>2021-04-18T11:52:05Z</time>
      </trkpt>
      <trkpt lat="43.9586" lon="2.3478">
        <ele>317</ele>
        <time>2021-04-18T11:52:06Z</time>
      </trkpt>
      <trkpt lat="43.9586" lon="2.34783">
        <ele>317</ele>
        <time>2021-04-18T11:52:07Z</time>
      </trkpt>
      <trkpt lat="43.9586" lon="2.34786">
        <ele>317</ele>
        <time>2021-04-18T11:52:08Z</time>
      </trkpt>
      <trkpt lat="43.9586" lon="2.34788">
        <ele>317</ele>
        <time>2021-04-18T11:52:09Z</time>
      </trkpt>
      <trkpt lat="43.9586" lon="2.34791">
        <ele>317</ele>
        <time>2021-04-18T11:52:10Z</time>
      </trkpt>
      <trkpt lat="43.95861" lon="2.34793">
        <ele>316</ele>
        <time>2021-04-18T11:52:11Z</time>
      </trkpt>
      <trkpt lat="43.95861" lon="2.34795">
        <ele>316</ele>
        <time>2021-04-18T11:52:12Z</time>
      </trkpt>
      <trkpt lat="43.95862" lon="2.34797">
        <ele>315</ele>
        <time>2021-04-18T11:52:13Z</time>
      </trkpt>
      <trkpt lat="43.95863" lon="2.34799">
        <ele>314</ele>
        <time>2021-04-18T11:52:14Z</time>
      </trkpt>
      <trkpt lat="43.95864" lon="2.34801">
        <ele>314</ele>
        <time>2021-04-18T11:52:15Z</time>
      </trkpt>
      <trkpt lat="43.95864" lon="2.34803">
        <ele>313</ele>
        <time>2021-04-18T11:52:16Z</time>
      </trkpt>
      <trkpt lat="43.95866" lon="2.34804">
        <ele>313</ele>
        <time>2021-04-18T11:52:17Z</time>
      </trkpt>
      <trkpt lat="43.95866" lon="2.34806">
        <ele>313</ele>
        <time>2021-04-18T11:52:18Z</time>
      </trkpt>
      <trkpt lat="43.95868" lon="2.34808">
        <ele>313</ele>
        <time>2021-04-18T11:52:19Z</time>
      </trkpt>
      <trkpt lat="43.95869" lon="2.3481">
        <ele>312</ele>
        <time>2021-04-18T11:52:20Z</time>
      </trkpt>
      <trkpt lat="43.9587" lon="2.34812">
        <ele>312</ele>
        <time>2021-04-18T11:52:21Z</time>
      </trkpt>
      <trkpt lat="43.95871" lon="2.34814">
        <ele>313</ele>
        <time>2021-04-18T11:52:22Z</time>
      </trkpt>
      <trkpt lat="43.95873" lon="2.34815">
        <ele>312</ele>
        <time>2021-04-18T11:52:23Z</time>
      </trkpt>
      <trkpt lat="43.95874" lon="2.34816">
        <ele>312</ele>
        <time>2021-04-18T11:52:24Z</time>
      </trkpt>
      <trkpt lat="43.95876" lon="2.34816">
        <ele>312</ele>
        <time>2021-04-18T11:52:25Z</time>
      </trkpt>
      <trkpt lat="43.95878" lon="2.34817">
        <ele>311</ele>
        <time>2021-04-18T11:52:26Z</time>
      </trkpt>
      <trkpt lat="43.95879" lon="2.34818">
        <ele>310</ele>
        <time>2021-04-18T11:52:27Z</time>
      </trkpt>
      <trkpt lat="43.95881" lon="2.34818">
        <ele>309</ele>
        <time>2021-04-18T11:52:28Z</time>
      </trkpt>
      <trkpt lat="43.95882" lon="2.34818">
        <ele>309</ele>
        <time>2021-04-18T11:52:29Z</time>
      </trkpt>
      <trkpt lat="43.95883" lon="2.34818">
        <ele>308</ele>
        <time>2021-04-18T11:52:30Z</time>
      </trkpt>
      <trkpt lat="43.95884" lon="2.34818">
        <ele>308</ele>
        <time>2021-04-18T11:52:31Z</time>
      </trkpt>
      <trkpt lat="43.95885" lon="2.34819">
        <ele>309</ele>
        <time>2021-04-18T11:52:32Z</time>
      </trkpt>
      <trkpt lat="43.95886" lon="2.34819">
        <ele>309</ele>
        <time>2021-04-18T11:52:33Z</time>
      </trkpt>
      <trkpt lat="43.95887" lon="2.34819">
        <ele>310</ele>
        <time>2021-04-18T11:52:34Z</time>
      </trkpt>
      <trkpt lat="43.95888" lon="2.34819">
        <ele>310</ele>
        <time>2021-04-18T11:52:35Z</time>
      </trkpt>
      <trkpt lat="43.95888" lon="2.34819">
        <ele>309</ele>
        <time>2021-04-18T11:52:36Z</time>
      </trkpt>
      <trkpt lat="43.95889" lon="2.34819">
        <ele>309</ele>
        <time>2021-04-18T11:52:37Z</time>
      </trkpt>
      <trkpt lat="43.9589" lon="2.34819">
        <ele>308</ele>
        <time>2021-04-18T11:52:38Z</time>
      </trkpt>
      <trkpt lat="43.95891" lon="2.3482">
        <ele>308</ele>
        <time>2021-04-18T11:52:39Z</time>
      </trkpt>
      <trkpt lat="43.95892" lon="2.3482">
        <ele>308</ele>
        <time>2021-04-18T11:52:40Z</time>
      </trkpt>
      <trkpt lat="43.95893" lon="2.34821">
        <ele>309</ele>
        <time>2021-04-18T11:52:41Z</time>
      </trkpt>
      <trkpt lat="43.95894" lon="2.34822">
        <ele>310</ele>
        <time>2021-04-18T11:52:42Z</time>
      </trkpt>
      <trkpt lat="43.95895" lon="2.34822">
        <ele>310</ele>
        <time>2021-04-18T11:52:43Z</time>
      </trkpt>
      <trkpt lat="43.95895" lon="2.34823">
        <ele>309</ele>
        <time>2021-04-18T11:52:44Z</time>
      </trkpt>
      <trkpt lat="43.95896" lon="2.34824">
        <ele>309</ele>
        <time>2021-04-18T11:52:45Z</time>
      </trkpt>
      <trkpt lat="43.95898" lon="2.34824">
        <ele>309</ele>
        <time>2021-04-18T11:52:46Z</time>
      </trkpt>
      <trkpt lat="43.95899" lon="2.34825">
        <ele>309</ele>
        <time>2021-04-18T11:52:47Z</time>
      </trkpt>
      <trkpt lat="43.959" lon="2.34824">
        <ele>309</ele>
        <time>2021-04-18T11:52:48Z</time>
      </trkpt>
      <trkpt lat="43.95901" lon="2.34824">
        <ele>309</ele>
        <time>2021-04-18T11:52:49Z</time>
      </trkpt>
      <trkpt lat="43.95902" lon="2.34824">
        <ele>309</ele>
        <time>2021-04-18T11:52:50Z</time>
      </trkpt>
      <trkpt lat="43.95902" lon="2.34824">
        <ele>309</ele>
        <time>2021-04-18T11:52:51Z</time>
      </trkpt>
      <trkpt lat="43.95903" lon="2.34822">
        <ele>308</ele>
        <time>2021-04-18T11:52:52Z</time>
      </trkpt>
      <trkpt lat="43.95905" lon="2.34821">
        <ele>308</ele>
        <time>2021-04-18T11:52:53Z</time>
      </trkpt>
      <trkpt lat="43.95906" lon="2.34821">
        <ele>308</ele>
        <time>2021-04-18T11:52:55Z</time>
      </trkpt>
      <trkpt lat="43.95906" lon="2.34821">
        <ele>308</ele>
        <time>2021-04-18T11:52:56Z</time>
      </trkpt>
      <trkpt lat="43.95906" lon="2.34821">
        <ele>308</ele>
        <time>2021-04-18T11:52:57Z</time>
      </trkpt>
      <trkpt lat="43.95908" lon="2.34821">
        <ele>307</ele>
        <time>2021-04-18T11:52:58Z</time>
      </trkpt>
      <trkpt lat="43.95909" lon="2.34822">
        <ele>308</ele>
        <time>2021-04-18T11:52:59Z</time>
      </trkpt>
      <trkpt lat="43.9591" lon="2.34823">
        <ele>308</ele>
        <time>2021-04-18T11:53:00Z</time>
      </trkpt>
      <trkpt lat="43.95911" lon="2.34823">
        <ele>308</ele>
        <time>2021-04-18T11:53:01Z</time>
      </trkpt>
      <trkpt lat="43.95912" lon="2.34824">
        <ele>308</ele>
        <time>2021-04-18T11:53:02Z</time>
      </trkpt>
      <trkpt lat="43.95913" lon="2.34824">
        <ele>308</ele>
        <time>2021-04-18T11:53:03Z</time>
      </trkpt>
      <trkpt lat="43.95915" lon="2.34824">
        <ele>307</ele>
        <time>2021-04-18T11:53:04Z</time>
      </trkpt>
      <trkpt lat="43.95916" lon="2.34824">
        <ele>308</ele>
        <time>2021-04-18T11:53:05Z</time>
      </trkpt>
      <trkpt lat="43.95917" lon="2.34825">
        <ele>307</ele>
        <time>2021-04-18T11:53:06Z</time>
      </trkpt>
      <trkpt lat="43.95919" lon="2.34827">
        <ele>306</ele>
        <time>2021-04-18T11:53:07Z</time>
      </trkpt>
      <trkpt lat="43.9592" lon="2.34827">
        <ele>306</ele>
        <time>2021-04-18T11:53:08Z</time>
      </trkpt>
      <trkpt lat="43.95921" lon="2.34828">
        <ele>305</ele>
        <time>2021-04-18T11:53:09Z</time>
      </trkpt>
      <trkpt lat="43.95921" lon="2.34828">
        <ele>305</ele>
        <time>2021-04-18T11:53:10Z</time>
      </trkpt>
      <trkpt lat="43.95923" lon="2.34828">
        <ele>304</ele>
        <time>2021-04-18T11:53:11Z</time>
      </trkpt>
      <trkpt lat="43.95923" lon="2.34828">
        <ele>304</ele>
        <time>2021-04-18T11:53:12Z</time>
      </trkpt>
      <trkpt lat="43.95924" lon="2.34828">
        <ele>304</ele>
        <time>2021-04-18T11:53:13Z</time>
      </trkpt>
      <trkpt lat="43.95924" lon="2.34829">
        <ele>304</ele>
        <time>2021-04-18T11:53:14Z</time>
      </trkpt>
      <trkpt lat="43.95925" lon="2.34828">
        <ele>304</ele>
        <time>2021-04-18T11:53:15Z</time>
      </trkpt>
      <trkpt lat="43.95925" lon="2.34829">
        <ele>304</ele>
        <time>2021-04-18T11:53:16Z</time>
      </trkpt>
      <trkpt lat="43.95926" lon="2.3483">
        <ele>304</ele>
        <time>2021-04-18T11:53:17Z</time>
      </trkpt>
      <trkpt lat="43.95926" lon="2.34831">
        <ele>304</ele>
        <time>2021-04-18T11:53:18Z</time>
      </trkpt>
      <trkpt lat="43.95927" lon="2.34832">
        <ele>304</ele>
        <time>2021-04-18T11:53:19Z</time>
      </trkpt>
      <trkpt lat="43.95928" lon="2.34834">
        <ele>304</ele>
        <time>2021-04-18T11:53:20Z</time>
      </trkpt>
      <trkpt lat="43.95929" lon="2.34835">
        <ele>304</ele>
        <time>2021-04-18T11:53:21Z</time>
      </trkpt>
      <trkpt lat="43.95929" lon="2.34835">
        <ele>304</ele>
        <time>2021-04-18T11:53:22Z</time>
      </trkpt>
      <trkpt lat="43.95931" lon="2.34836">
        <ele>303</ele>
        <time>2021-04-18T11:53:23Z</time>
      </trkpt>
      <trkpt lat="43.95931" lon="2.34837">
        <ele>303</ele>
        <time>2021-04-18T11:53:24Z</time>
      </trkpt>
      <trkpt lat="43.95933" lon="2.34838">
        <ele>303</ele>
        <time>2021-04-18T11:53:25Z</time>
      </trkpt>
      <trkpt lat="43.95933" lon="2.34838">
        <ele>303</ele>
        <time>2021-04-18T11:53:26Z</time>
      </trkpt>
      <trkpt lat="43.95934" lon="2.3484">
        <ele>303</ele>
        <time>2021-04-18T11:53:27Z</time>
      </trkpt>
      <trkpt lat="43.95935" lon="2.34841">
        <ele>302</ele>
        <time>2021-04-18T11:53:28Z</time>
      </trkpt>
      <trkpt lat="43.95936" lon="2.34843">
        <ele>302</ele>
        <time>2021-04-18T11:53:29Z</time>
      </trkpt>
      <trkpt lat="43.95937" lon="2.34845">
        <ele>303</ele>
        <time>2021-04-18T11:53:30Z</time>
      </trkpt>
      <trkpt lat="43.95937" lon="2.34847">
        <ele>303</ele>
        <time>2021-04-18T11:53:31Z</time>
      </trkpt>
      <trkpt lat="43.95938" lon="2.34847">
        <ele>304</ele>
        <time>2021-04-18T11:53:32Z</time>
      </trkpt>
      <trkpt lat="43.95939" lon="2.34848">
        <ele>304</ele>
        <time>2021-04-18T11:53:33Z</time>
      </trkpt>
      <trkpt lat="43.9594" lon="2.34848">
        <ele>304</ele>
        <time>2021-04-18T11:53:34Z</time>
      </trkpt>
      <trkpt lat="43.95941" lon="2.34849">
        <ele>304</ele>
        <time>2021-04-18T11:53:35Z</time>
      </trkpt>
      <trkpt lat="43.95942" lon="2.3485">
        <ele>304</ele>
        <time>2021-04-18T11:53:36Z</time>
      </trkpt>
      <trkpt lat="43.95942" lon="2.34851">
        <ele>304</ele>
        <time>2021-04-18T11:53:37Z</time>
      </trkpt>
      <trkpt lat="43.95943" lon="2.34853">
        <ele>304</ele>
        <time>2021-04-18T11:53:38Z</time>
      </trkpt>
      <trkpt lat="43.95944" lon="2.34854">
        <ele>304</ele>
        <time>2021-04-18T11:53:39Z</time>
      </trkpt>
      <trkpt lat="43.95944" lon="2.34854">
        <ele>305</ele>
        <time>2021-04-18T11:53:40Z</time>
      </trkpt>
      <trkpt lat="43.95944" lon="2.34855">
        <ele>304</ele>
        <time>2021-04-18T11:53:41Z</time>
      </trkpt>
      <trkpt lat="43.95944" lon="2.34854">
        <ele>304</ele>
        <time>2021-04-18T11:53:42Z</time>
      </trkpt>
      <trkpt lat="43.95945" lon="2.34855">
        <ele>304</ele>
        <time>2021-04-18T11:53:43Z</time>
      </trkpt>
      <trkpt lat="43.95945" lon="2.34857">
        <ele>304</ele>
        <time>2021-04-18T11:53:44Z</time>
      </trkpt>
      <trkpt lat="43.95946" lon="2.34858">
        <ele>304</ele>
        <time>2021-04-18T11:53:45Z</time>
      </trkpt>
      <trkpt lat="43.95947" lon="2.34858">
        <ele>303</ele>
        <time>2021-04-18T11:53:46Z</time>
      </trkpt>
      <trkpt lat="43.95947" lon="2.3486">
        <ele>303</ele>
        <time>2021-04-18T11:53:47Z</time>
      </trkpt>
      <trkpt lat="43.95948" lon="2.34861">
        <ele>303</ele>
        <time>2021-04-18T11:53:48Z</time>
      </trkpt>
      <trkpt lat="43.95949" lon="2.34863">
        <ele>303</ele>
        <time>2021-04-18T11:53:49Z</time>
      </trkpt>
      <trkpt lat="43.95949" lon="2.34864">
        <ele>303</ele>
        <time>2021-04-18T11:53:50Z</time>
      </trkpt>
      <trkpt lat="43.9595" lon="2.34865">
        <ele>303</ele>
        <time>2021-04-18T11:53:51Z</time>
      </trkpt>
      <trkpt lat="43.95951" lon="2.34866">
        <ele>303</ele>
        <time>2021-04-18T11:53:52Z</time>
      </trkpt>
      <trkpt lat="43.95951" lon="2.34867">
        <ele>303</ele>
        <time>2021-04-18T11:53:53Z</time>
      </trkpt>
      <trkpt lat="43.95952" lon="2.34869">
        <ele>303</ele>
        <time>2021-04-18T11:53:54Z</time>
      </trkpt>
      <trkpt lat="43.95952" lon="2.3487">
        <ele>303</ele>
        <time>2021-04-18T11:53:55Z</time>
      </trkpt>
      <trkpt lat="43.95952" lon="2.34871">
        <ele>302</ele>
        <time>2021-04-18T11:53:56Z</time>
      </trkpt>
      <trkpt lat="43.95952" lon="2.34871">
        <ele>302</ele>
        <time>2021-04-18T11:53:57Z</time>
      </trkpt>
      <trkpt lat="43.95952" lon="2.34872">
        <ele>302</ele>
        <time>2021-04-18T11:53:58Z</time>
      </trkpt>
      <trkpt lat="43.95952" lon="2.34873">
        <ele>302</ele>
        <time>2021-04-18T11:53:59Z</time>
      </trkpt>
      <trkpt lat="43.95952" lon="2.34874">
        <ele>302</ele>
        <time>2021-04-18T11:54:00Z</time>
      </trkpt>
      <trkpt lat="43.95951" lon="2.34875">
        <ele>302</ele>
        <time>2021-04-18T11:54:01Z</time>
      </trkpt>
      <trkpt lat="43.95951" lon="2.34877">
        <ele>302</ele>
        <time>2021-04-18T11:54:02Z</time>
      </trkpt>
      <trkpt lat="43.9595" lon="2.34879">
        <ele>302</ele>
        <time>2021-04-18T11:54:03Z</time>
      </trkpt>
      <trkpt lat="43.9595" lon="2.3488">
        <ele>302</ele>
        <time>2021-04-18T11:54:04Z</time>
      </trkpt>
      <trkpt lat="43.9595" lon="2.34881">
        <ele>302</ele>
        <time>2021-04-18T11:54:05Z</time>
      </trkpt>
      <trkpt lat="43.9595" lon="2.34882">
        <ele>303</ele>
        <time>2021-04-18T11:54:06Z</time>
      </trkpt>
      <trkpt lat="43.95948" lon="2.34883">
        <ele>303</ele>
        <time>2021-04-18T11:54:07Z</time>
      </trkpt>
      <trkpt lat="43.95947" lon="2.34885">
        <ele>303</ele>
        <time>2021-04-18T11:54:08Z</time>
      </trkpt>
      <trkpt lat="43.95946" lon="2.34885">
        <ele>302</ele>
        <time>2021-04-18T11:54:09Z</time>
      </trkpt>
      <trkpt lat="43.95945" lon="2.34886">
        <ele>302</ele>
        <time>2021-04-18T11:54:10Z</time>
      </trkpt>
      <trkpt lat="43.95945" lon="2.34886">
        <ele>302</ele>
        <time>2021-04-18T11:54:11Z</time>
      </trkpt>
      <trkpt lat="43.95945" lon="2.34886">
        <ele>303</ele>
        <time>2021-04-18T11:54:12Z</time>
      </trkpt>
      <trkpt lat="43.95944" lon="2.34887">
        <ele>302</ele>
        <time>2021-04-18T11:54:13Z</time>
      </trkpt>
      <trkpt lat="43.95944" lon="2.34889">
        <ele>303</ele>
        <time>2021-04-18T11:54:14Z</time>
      </trkpt>
      <trkpt lat="43.95943" lon="2.3489">
        <ele>303</ele>
        <time>2021-04-18T11:54:15Z</time>
      </trkpt>
      <trkpt lat="43.95942" lon="2.34891">
        <ele>303</ele>
        <time>2021-04-18T11:54:16Z</time>
      </trkpt>
      <trkpt lat="43.95942" lon="2.34893">
        <ele>303</ele>
        <time>2021-04-18T11:54:17Z</time>
      </trkpt>
      <trkpt lat="43.95941" lon="2.34894">
        <ele>303</ele>
        <time>2021-04-18T11:54:18Z</time>
      </trkpt>
      <trkpt lat="43.9594" lon="2.34896">
        <ele>303</ele>
        <time>2021-04-18T11:54:19Z</time>
      </trkpt>
      <trkpt lat="43.9594" lon="2.34897">
        <ele>303</ele>
        <time>2021-04-18T11:54:20Z</time>
      </trkpt>
      <trkpt lat="43.9594" lon="2.34898">
        <ele>303</ele>
        <time>2021-04-18T11:54:21Z</time>
      </trkpt>
      <trkpt lat="43.95939" lon="2.34899">
        <ele>303</ele>
        <time>2021-04-18T11:54:22Z</time>
      </trkpt>
      <trkpt lat="43.95938" lon="2.34901">
        <ele>304</ele>
        <time>2021-04-18T11:54:23Z</time>
      </trkpt>
      <trkpt lat="43.95937" lon="2.34902">
        <ele>305</ele>
        <time>2021-04-18T11:54:24Z</time>
      </trkpt>
      <trkpt lat="43.95937" lon="2.34903">
        <ele>305</ele>
        <time>2021-04-18T11:54:25Z</time>
      </trkpt>
      <trkpt lat="43.95936" lon="2.34905">
        <ele>306</ele>
        <time>2021-04-18T11:54:26Z</time>
      </trkpt>
      <trkpt lat="43.95935" lon="2.34907">
        <ele>306</ele>
        <time>2021-04-18T11:54:27Z</time>
      </trkpt>
      <trkpt lat="43.95935" lon="2.34909">
        <ele>306</ele>
        <time>2021-04-18T11:54:28Z</time>
      </trkpt>
      <trkpt lat="43.95935" lon="2.34911">
        <ele>307</ele>
        <time>2021-04-18T11:54:29Z</time>
      </trkpt>
      <trkpt lat="43.95935" lon="2.34911">
        <ele>307</ele>
        <time>2021-04-18T11:54:30Z</time>
      </trkpt>
      <trkpt lat="43.95935" lon="2.34911">
        <ele>307</ele>
        <time>2021-04-18T11:54:31Z</time>
      </trkpt>
      <trkpt lat="43.95936" lon="2.34911">
        <ele>306</ele>
        <time>2021-04-18T11:54:32Z</time>
      </trkpt>
      <trkpt lat="43.95936" lon="2.34911">
        <ele>306</ele>
        <time>2021-04-18T11:54:32Z</time>
      </trkpt>
      <trkpt lat="43.95936" lon="2.34911">
        <ele>306</ele>
        <time>2021-04-18T11:54:32Z</time>
      </trkpt>
      <trkpt lat="43.95934" lon="2.34924">
        <ele>311</ele>
        <time>2021-04-18T11:55:04Z</time>
      </trkpt>
      <trkpt lat="43.95934" lon="2.34925">
        <ele>312</ele>
        <time>2021-04-18T11:55:05Z</time>
      </trkpt>
      <trkpt lat="43.95934" lon="2.34925">
        <ele>313</ele>
        <time>2021-04-18T11:55:06Z</time>
      </trkpt>
      <trkpt lat="43.95934" lon="2.34925">
        <ele>312</ele>
        <time>2021-04-18T11:55:07Z</time>
      </trkpt>
      <trkpt lat="43.95934" lon="2.34925">
        <ele>312</ele>
        <time>2021-04-18T11:55:08Z</time>
      </trkpt>
      <trkpt lat="43.95934" lon="2.34925">
        <ele>312</ele>
        <time>2021-04-18T11:55:09Z</time>
      </trkpt>
      <trkpt lat="43.95934" lon="2.34925">
        <ele>312</ele>
        <time>2021-04-18T11:55:10Z</time>
      </trkpt>
      <trkpt lat="43.95934" lon="2.34925">
        <ele>312</ele>
        <time>2021-04-18T11:55:10Z</time>
      </trkpt>
      <trkpt lat="43.95934" lon="2.34925">
        <ele>312</ele>
        <time>2021-04-18T11:55:10Z</time>
      </trkpt>
      <trkpt lat="43.9593" lon="2.34936">
        <ele>311</ele>
        <time>2021-04-18T11:56:14Z</time>
      </trkpt>
      <trkpt lat="43.9593" lon="2.34938">
        <ele>311</ele>
        <time>2021-04-18T11:56:15Z</time>
      </trkpt>
      <trkpt lat="43.9593" lon="2.34939">
        <ele>311</ele>
        <time>2021-04-18T11:56:16Z</time>
      </trkpt>
      <trkpt lat="43.9593" lon="2.34941">
        <ele>311</ele>
        <time>2021-04-18T11:56:17Z</time>
      </trkpt>
      <trkpt lat="43.9593" lon="2.34943">
        <ele>311</ele>
        <time>2021-04-18T11:56:18Z</time>
      </trkpt>
      <trkpt lat="43.95931" lon="2.34944">
        <ele>311</ele>
        <time>2021-04-18T11:56:19Z</time>
      </trkpt>
      <trkpt lat="43.95931" lon="2.34944">
        <ele>311</ele>
        <time>2021-04-18T11:56:20Z</time>
      </trkpt>
      <trkpt lat="43.95931" lon="2.34945">
        <ele>311</ele>
        <time>2021-04-18T11:56:21Z</time>
      </trkpt>
      <trkpt lat="43.95932" lon="2.34946">
        <ele>312</ele>
        <time>2021-04-18T11:56:22Z</time>
      </trkpt>
      <trkpt lat="43.95932" lon="2.34947">
        <ele>312</ele>
        <time>2021-04-18T11:56:23Z</time>
      </trkpt>
      <trkpt lat="43.95932" lon="2.34948">
        <ele>312</ele>
        <time>2021-04-18T11:56:24Z</time>
      </trkpt>
      <trkpt lat="43.95932" lon="2.34949">
        <ele>312</ele>
        <time>2021-04-18T11:56:25Z</time>
      </trkpt>
      <trkpt lat="43.95932" lon="2.34949">
        <ele>312</ele>
        <time>2021-04-18T11:56:26Z</time>
      </trkpt>
      <trkpt lat="43.95933" lon="2.34949">
        <ele>312</ele>
        <time>2021-04-18T11:56:27Z</time>
      </trkpt>
      <trkpt lat="43.95932" lon="2.3495">
        <ele>313</ele>
        <time>2021-04-18T11:56:28Z</time>
      </trkpt>
      <trkpt lat="43.95932" lon="2.3495">
        <ele>313</ele>
        <time>2021-04-18T11:56:29Z</time>
      </trkpt>
      <trkpt lat="43.95932" lon="2.3495">
        <ele>313</ele>
        <time>2021-04-18T11:56:30Z</time>
      </trkpt>
      <trkpt lat="43.95931" lon="2.34951">
        <ele>314</ele>
        <time>2021-04-18T11:56:31Z</time>
      </trkpt>
      <trkpt lat="43.95931" lon="2.34951">
        <ele>314</ele>
        <time>2021-04-18T11:56:32Z</time>
      </trkpt>
      <trkpt lat="43.9593" lon="2.34951">
        <ele>315</ele>
        <time>2021-04-18T11:56:33Z</time>
      </trkpt>
      <trkpt lat="43.95929" lon="2.3495">
        <ele>314</ele>
        <time>2021-04-18T11:56:34Z</time>
      </trkpt>
      <trkpt lat="43.95929" lon="2.34951">
        <ele>314</ele>
        <time>2021-04-18T11:56:35Z</time>
      </trkpt>
      <trkpt lat="43.95929" lon="2.3495">
        <ele>314</ele>
        <time>2021-04-18T11:56:36Z</time>
      </trkpt>
      <trkpt lat="43.95929" lon="2.3495">
        <ele>313</ele>
        <time>2021-04-18T11:56:37Z</time>
      </trkpt>
      <trkpt lat="43.95929" lon="2.3495">
        <ele>313</ele>
        <time>2021-04-18T11:56:38Z</time>
      </trkpt>
      <trkpt lat="43.95929" lon="2.3495">
        <ele>313</ele>
        <time>2021-04-18T11:56:39Z</time>
      </trkpt>
      <trkpt lat="43.95929" lon="2.3495">
        <ele>313</ele>
        <time>2021-04-18T11:56:40Z</time>
      </trkpt>
      <trkpt lat="43.95929" lon="2.3495">
        <ele>313</ele>
        <time>2021-04-18T11:56:41Z</time>
      </trkpt>
      <trkpt lat="43.95929" lon="2.3495">
        <ele>313</ele>
        <time>2021-04-18T11:56:42Z</time>
      </trkpt>
      <trkpt lat="43.95928" lon="2.34951">
        <ele>313</ele>
        <time>2021-04-18T11:56:43Z</time>
      </trkpt>
      <trkpt lat="43.95927" lon="2.3495">
        <ele>313</ele>
        <time>2021-04-18T11:56:44Z</time>
      </trkpt>
      <trkpt lat="43.95926" lon="2.3495">
        <ele>313</ele>
        <time>2021-04-18T11:56:45Z</time>
      </trkpt>
      <trkpt lat="43.95926" lon="2.34949">
        <ele>314</ele>
        <time>2021-04-18T11:56:46Z</time>
      </trkpt>
      <trkpt lat="43.95925" lon="2.34949">
        <ele>314</ele>
        <time>2021-04-18T11:56:47Z</time>
      </trkpt>
      <trkpt lat="43.95924" lon="2.34948">
        <ele>314</ele>
        <time>2021-04-18T11:56:48Z</time>
      </trkpt>
      <trkpt lat="43.95923" lon="2.34947">
        <ele>314</ele>
        <time>2021-04-18T11:56:49Z</time>
      </trkpt>
      <trkpt lat="43.95922" lon="2.34947">
        <ele>314</ele>
        <time>2021-04-18T11:56:50Z</time>
      </trkpt>
      <trkpt lat="43.95922" lon="2.34946">
        <ele>315</ele>
        <time>2021-04-18T11:56:51Z</time>
      </trkpt>
      <trkpt lat="43.95921" lon="2.34946">
        <ele>315</ele>
        <time>2021-04-18T11:56:52Z</time>
      </trkpt>
      <trkpt lat="43.95921" lon="2.34945">
        <ele>315</ele>
        <time>2021-04-18T11:56:53Z</time>
      </trkpt>
      <trkpt lat="43.9592" lon="2.34945">
        <ele>315</ele>
        <time>2021-04-18T11:56:54Z</time>
      </trkpt>
      <trkpt lat="43.9592" lon="2.34943">
        <ele>316</ele>
        <time>2021-04-18T11:56:55Z</time>
      </trkpt>
      <trkpt lat="43.9592" lon="2.34942">
        <ele>316</ele>
        <time>2021-04-18T11:56:56Z</time>
      </trkpt>
      <trkpt lat="43.95919" lon="2.3494">
        <ele>316</ele>
        <time>2021-04-18T11:56:57Z</time>
      </trkpt>
      <trkpt lat="43.9592" lon="2.34939">
        <ele>316</ele>
        <time>2021-04-18T11:56:58Z</time>
      </trkpt>
      <trkpt lat="43.9592" lon="2.34938">
        <ele>316</ele>
        <time>2021-04-18T11:56:59Z</time>
      </trkpt>
      <trkpt lat="43.95919" lon="2.34937">
        <ele>316</ele>
        <time>2021-04-18T11:57:00Z</time>
      </trkpt>
      <trkpt lat="43.95919" lon="2.34935">
        <ele>316</ele>
        <time>2021-04-18T11:57:01Z</time>
      </trkpt>
      <trkpt lat="43.95919" lon="2.34934">
        <ele>316</ele>
        <time>2021-04-18T11:57:02Z</time>
      </trkpt>
      <trkpt lat="43.95919" lon="2.34933">
        <ele>315</ele>
        <time>2021-04-18T11:57:03Z</time>
      </trkpt>
      <trkpt lat="43.95918" lon="2.34933">
        <ele>315</ele>
        <time>2021-04-18T11:57:04Z</time>
      </trkpt>
      <trkpt lat="43.95918" lon="2.34931">
        <ele>315</ele>
        <time>2021-04-18T11:57:05Z</time>
      </trkpt>
      <trkpt lat="43.95919" lon="2.34929">
        <ele>315</ele>
        <time>2021-04-18T11:57:06Z</time>
      </trkpt>
      <trkpt lat="43.95919" lon="2.34928">
        <ele>315</ele>
        <time>2021-04-18T11:57:07Z</time>
      </trkpt>
      <trkpt lat="43.95919" lon="2.34927">
        <ele>315</ele>
        <time>2021-04-18T11:57:08Z</time>
      </trkpt>
      <trkpt lat="43.95918" lon="2.34926">
        <ele>316</ele>
        <time>2021-04-18T11:57:09Z</time>
      </trkpt>
      <trkpt lat="43.95918" lon="2.34925">
        <ele>316</ele>
        <time>2021-04-18T11:57:10Z</time>
      </trkpt>
      <trkpt lat="43.95918" lon="2.34923">
        <ele>316</ele>
        <time>2021-04-18T11:57:11Z</time>
      </trkpt>
      <trkpt lat="43.95918" lon="2.34922">
        <ele>316</ele>
        <time>2021-04-18T11:57:12Z</time>
      </trkpt>
      <trkpt lat="43.95917" lon="2.3492">
        <ele>317</ele>
        <time>2021-04-18T11:57:13Z</time>
      </trkpt>
      <trkpt lat="43.95916" lon="2.34919">
        <ele>317</ele>
        <time>2021-04-18T11:57:14Z</time>
      </trkpt>
      <trkpt lat="43.95915" lon="2.34918">
        <ele>318</ele>
        <time>2021-04-18T11:57:15Z</time>
      </trkpt>
      <trkpt lat="43.95915" lon="2.34917">
        <ele>318</ele>
        <time>2021-04-18T11:57:16Z</time>
      </trkpt>
      <trkpt lat="43.95914" lon="2.34916">
        <ele>318</ele>
        <time>2021-04-18T11:57:17Z</time>
      </trkpt>
      <trkpt lat="43.95914" lon="2.34916">
        <ele>318</ele>
        <time>2021-04-18T11:57:18Z</time>
      </trkpt>
      <trkpt lat="43.95914" lon="2.34916">
        <ele>318</ele>
        <time>2021-04-18T11:57:19Z</time>
      </trkpt>
      <trkpt lat="43.95913" lon="2.34914">
        <ele>318</ele>
        <time>2021-04-18T11:57:20Z</time>
      </trkpt>
      <trkpt lat="43.95912" lon="2.34914">
        <ele>319</ele>
        <time>2021-04-18T11:57:21Z</time>
      </trkpt>
      <trkpt lat="43.95911" lon="2.34914">
        <ele>319</ele>
        <time>2021-04-18T11:57:22Z</time>
      </trkpt>
      <trkpt lat="43.9591" lon="2.34914">
        <ele>319</ele>
        <time>2021-04-18T11:57:23Z</time>
      </trkpt>
      <trkpt lat="43.95908" lon="2.34914">
        <ele>319</ele>
        <time>2021-04-18T11:57:24Z</time>
      </trkpt>
      <trkpt lat="43.95906" lon="2.34914">
        <ele>319</ele>
        <time>2021-04-18T11:57:25Z</time>
      </trkpt>
      <trkpt lat="43.95905" lon="2.34915">
        <ele>318</ele>
        <time>2021-04-18T11:57:26Z</time>
      </trkpt>
      <trkpt lat="43.95904" lon="2.34915">
        <ele>318</ele>
        <time>2021-04-18T11:57:27Z</time>
      </trkpt>
      <trkpt lat="43.95904" lon="2.34915">
        <ele>318</ele>
        <time>2021-04-18T11:57:28Z</time>
      </trkpt>
      <trkpt lat="43.95903" lon="2.34915">
        <ele>319</ele>
        <time>2021-04-18T11:57:29Z</time>
      </trkpt>
      <trkpt lat="43.95902" lon="2.34916">
        <ele>319</ele>
        <time>2021-04-18T11:57:30Z</time>
      </trkpt>
      <trkpt lat="43.95901" lon="2.34916">
        <ele>320</ele>
        <time>2021-04-18T11:57:31Z</time>
      </trkpt>
      <trkpt lat="43.959" lon="2.34915">
        <ele>320</ele>
        <time>2021-04-18T11:57:32Z</time>
      </trkpt>
      <trkpt lat="43.95898" lon="2.34915">
        <ele>321</ele>
        <time>2021-04-18T11:57:33Z</time>
      </trkpt>
      <trkpt lat="43.95897" lon="2.34915">
        <ele>322</ele>
        <time>2021-04-18T11:57:34Z</time>
      </trkpt>
      <trkpt lat="43.95897" lon="2.34915">
        <ele>322</ele>
        <time>2021-04-18T11:57:35Z</time>
      </trkpt>
      <trkpt lat="43.95897" lon="2.34915">
        <ele>322</ele>
        <time>2021-04-18T11:57:36Z</time>
      </trkpt>
      <trkpt lat="43.95897" lon="2.34915">
        <ele>322</ele>
        <time>2021-04-18T11:57:37Z</time>
      </trkpt>
      <trkpt lat="43.95897" lon="2.34915">
        <ele>322</ele>
        <time>2021-04-18T11:57:37Z</time>
      </trkpt>
      <trkpt lat="43.95897" lon="2.34915">
        <ele>322</ele>
        <time>2021-04-18T11:57:37Z</time>
      </trkpt>
      <trkpt lat="43.9589" lon="2.34919">
        <ele>322</ele>
        <time>2021-04-18T11:57:52Z</time>
      </trkpt>
      <trkpt lat="43.95889" lon="2.3492">
        <ele>322</ele>
        <time>2021-04-18T11:57:53Z</time>
      </trkpt>
      <trkpt lat="43.95888" lon="2.34921">
        <ele>323</ele>
        <time>2021-04-18T11:57:54Z</time>
      </trkpt>
      <trkpt lat="43.95887" lon="2.34921">
        <ele>324</ele>
        <time>2021-04-18T11:57:55Z</time>
      </trkpt>
      <trkpt lat="43.95887" lon="2.34921">
        <ele>324</ele>
        <time>2021-04-18T11:57:56Z</time>
      </trkpt>
      <trkpt lat="43.95887" lon="2.34922">
        <ele>324</ele>
        <time>2021-04-18T11:57:57Z</time>
      </trkpt>
      <trkpt lat="43.95886" lon="2.34922">
        <ele>324</ele>
        <time>2021-04-18T11:57:58Z</time>
      </trkpt>
      <trkpt lat="43.95886" lon="2.34922">
        <ele>324</ele>
        <time>2021-04-18T11:57:59Z</time>
      </trkpt>
      <trkpt lat="43.95886" lon="2.34922">
        <ele>324</ele>
        <time>2021-04-18T11:58:00Z</time>
      </trkpt>
      <trkpt lat="43.95886" lon="2.34922">
        <ele>324</ele>
        <time>2021-04-18T11:58:01Z</time>
      </trkpt>
      <trkpt lat="43.95884" lon="2.34923">
        <ele>324</ele>
        <time>2021-04-18T11:58:02Z</time>
      </trkpt>
      <trkpt lat="43.95883" lon="2.34923">
        <ele>324</ele>
        <time>2021-04-18T11:58:03Z</time>
      </trkpt>
      <trkpt lat="43.95882" lon="2.34923">
        <ele>324</ele>
        <time>2021-04-18T11:58:04Z</time>
      </trkpt>
      <trkpt lat="43.95881" lon="2.34924">
        <ele>324</ele>
        <time>2021-04-18T11:58:05Z</time>
      </trkpt>
      <trkpt lat="43.9588" lon="2.34924">
        <ele>325</ele>
        <time>2021-04-18T11:58:06Z</time>
      </trkpt>
      <trkpt lat="43.95879" lon="2.34924">
        <ele>325</ele>
        <time>2021-04-18T11:58:07Z</time>
      </trkpt>
      <trkpt lat="43.95879" lon="2.34925">
        <ele>326</ele>
        <time>2021-04-18T11:58:08Z</time>
      </trkpt>
      <trkpt lat="43.95878" lon="2.34925">
        <ele>326</ele>
        <time>2021-04-18T11:58:09Z</time>
      </trkpt>
      <trkpt lat="43.95877" lon="2.34925">
        <ele>326</ele>
        <time>2021-04-18T11:58:10Z</time>
      </trkpt>
      <trkpt lat="43.95875" lon="2.34926">
        <ele>326</ele>
        <time>2021-04-18T11:58:11Z</time>
      </trkpt>
      <trkpt lat="43.95874" lon="2.34926">
        <ele>327</ele>
        <time>2021-04-18T11:58:12Z</time>
      </trkpt>
      <trkpt lat="43.95873" lon="2.34927">
        <ele>327</ele>
        <time>2021-04-18T11:58:13Z</time>
      </trkpt>
      <trkpt lat="43.95872" lon="2.34927">
        <ele>327</ele>
        <time>2021-04-18T11:58:14Z</time>
      </trkpt>
      <trkpt lat="43.95871" lon="2.34928">
        <ele>327</ele>
        <time>2021-04-18T11:58:15Z</time>
      </trkpt>
      <trkpt lat="43.95869" lon="2.34929">
        <ele>328</ele>
        <time>2021-04-18T11:58:16Z</time>
      </trkpt>
      <trkpt lat="43.95869" lon="2.3493">
        <ele>329</ele>
        <time>2021-04-18T11:58:17Z</time>
      </trkpt>
      <trkpt lat="43.95868" lon="2.34931">
        <ele>330</ele>
        <time>2021-04-18T11:58:18Z</time>
      </trkpt>
      <trkpt lat="43.95868" lon="2.34931">
        <ele>330</ele>
        <time>2021-04-18T11:58:19Z</time>
      </trkpt>
      <trkpt lat="43.95868" lon="2.34931">
        <ele>330</ele>
        <time>2021-04-18T11:58:20Z</time>
      </trkpt>
      <trkpt lat="43.95868" lon="2.34935">
        <ele>330</ele>
        <time>2021-04-18T11:58:21Z</time>
      </trkpt>
      <trkpt lat="43.95868" lon="2.34936">
        <ele>330</ele>
        <time>2021-04-18T11:58:22Z</time>
      </trkpt>
      <trkpt lat="43.95869" lon="2.34937">
        <ele>330</ele>
        <time>2021-04-18T11:58:23Z</time>
      </trkpt>
      <trkpt lat="43.9587" lon="2.34939">
        <ele>330</ele>
        <time>2021-04-18T11:58:24Z</time>
      </trkpt>
      <trkpt lat="43.95871" lon="2.3494">
        <ele>330</ele>
        <time>2021-04-18T11:58:25Z</time>
      </trkpt>
      <trkpt lat="43.95871" lon="2.3494">
        <ele>331</ele>
        <time>2021-04-18T11:58:26Z</time>
      </trkpt>
      <trkpt lat="43.95872" lon="2.3494">
        <ele>331</ele>
        <time>2021-04-18T11:58:27Z</time>
      </trkpt>
      <trkpt lat="43.95873" lon="2.3494">
        <ele>331</ele>
        <time>2021-04-18T11:58:28Z</time>
      </trkpt>
      <trkpt lat="43.95874" lon="2.34941">
        <ele>332</ele>
        <time>2021-04-18T11:58:29Z</time>
      </trkpt>
      <trkpt lat="43.95874" lon="2.34941">
        <ele>332</ele>
        <time>2021-04-18T11:58:30Z</time>
      </trkpt>
      <trkpt lat="43.95875" lon="2.34942">
        <ele>332</ele>
        <time>2021-04-18T11:58:31Z</time>
      </trkpt>
      <trkpt lat="43.95876" lon="2.34943">
        <ele>332</ele>
        <time>2021-04-18T11:58:32Z</time>
      </trkpt>
      <trkpt lat="43.95877" lon="2.34943">
        <ele>333</ele>
        <time>2021-04-18T11:58:33Z</time>
      </trkpt>
      <trkpt lat="43.95878" lon="2.34944">
        <ele>333</ele>
        <time>2021-04-18T11:58:34Z</time>
      </trkpt>
      <trkpt lat="43.95879" lon="2.34945">
        <ele>333</ele>
        <time>2021-04-18T11:58:35Z</time>
      </trkpt>
      <trkpt lat="43.95879" lon="2.34945">
        <ele>333</ele>
        <time>2021-04-18T11:58:36Z</time>
      </trkpt>
      <trkpt lat="43.95881" lon="2.34946">
        <ele>334</ele>
        <time>2021-04-18T11:58:37Z</time>
      </trkpt>
      <trkpt lat="43.95882" lon="2.34946">
        <ele>334</ele>
        <time>2021-04-18T11:58:38Z</time>
      </trkpt>
      <trkpt lat="43.95883" lon="2.34947">
        <ele>334</ele>
        <time>2021-04-18T11:58:39Z</time>
      </trkpt>
      <trkpt lat="43.95884" lon="2.34948">
        <ele>334</ele>
        <time>2021-04-18T11:58:40Z</time>
      </trkpt>
      <trkpt lat="43.95885" lon="2.34948">
        <ele>335</ele>
        <time>2021-04-18T11:58:41Z</time>
      </trkpt>
      <trkpt lat="43.95886" lon="2.34949">
        <ele>335</ele>
        <time>2021-04-18T11:58:42Z</time>
      </trkpt>
      <trkpt lat="43.95887" lon="2.3495">
        <ele>335</ele>
        <time>2021-04-18T11:58:43Z</time>
      </trkpt>
      <trkpt lat="43.95887" lon="2.3495">
        <ele>336</ele>
        <time>2021-04-18T11:58:44Z</time>
      </trkpt>
      <trkpt lat="43.95888" lon="2.34951">
        <ele>337</ele>
        <time>2021-04-18T11:58:45Z</time>
      </trkpt>
      <trkpt lat="43.95889" lon="2.34952">
        <ele>337</ele>
        <time>2021-04-18T11:58:46Z</time>
      </trkpt>
      <trkpt lat="43.9589" lon="2.34953">
        <ele>337</ele>
        <time>2021-04-18T11:58:47Z</time>
      </trkpt>
      <trkpt lat="43.95891" lon="2.34954">
        <ele>336</ele>
        <time>2021-04-18T11:58:48Z</time>
      </trkpt>
      <trkpt lat="43.95892" lon="2.34954">
        <ele>336</ele>
        <time>2021-04-18T11:58:49Z</time>
      </trkpt>
      <trkpt lat="43.95892" lon="2.34955">
        <ele>336</ele>
        <time>2021-04-18T11:58:50Z</time>
      </trkpt>
      <trkpt lat="43.95892" lon="2.34956">
        <ele>335</ele>
        <time>2021-04-18T11:58:51Z</time>
      </trkpt>
      <trkpt lat="43.95893" lon="2.34957">
        <ele>335</ele>
        <time>2021-04-18T11:58:52Z</time>
      </trkpt>
      <trkpt lat="43.95893" lon="2.34957">
        <ele>335</ele>
        <time>2021-04-18T11:58:53Z</time>
      </trkpt>
      <trkpt lat="43.95892" lon="2.34958">
        <ele>335</ele>
        <time>2021-04-18T11:58:54Z</time>
      </trkpt>
      <trkpt lat="43.95892" lon="2.34958">
        <ele>334</ele>
        <time>2021-04-18T11:58:55Z</time>
      </trkpt>
      <trkpt lat="43.95891" lon="2.34958">
        <ele>334</ele>
        <time>2021-04-18T11:58:56Z</time>
      </trkpt>
      <trkpt lat="43.95891" lon="2.34958">
        <ele>334</ele>
        <time>2021-04-18T11:58:57Z</time>
      </trkpt>
      <trkpt lat="43.95891" lon="2.34958">
        <ele>334</ele>
        <time>2021-04-18T11:58:58Z</time>
      </trkpt>
      <trkpt lat="43.9589" lon="2.34958">
        <ele>335</ele>
        <time>2021-04-18T11:58:59Z</time>
      </trkpt>
      <trkpt lat="43.9589" lon="2.34957">
        <ele>335</ele>
        <time>2021-04-18T11:59:00Z</time>
      </trkpt>
      <trkpt lat="43.95889" lon="2.34956">
        <ele>335</ele>
        <time>2021-04-18T11:59:01Z</time>
      </trkpt>
      <trkpt lat="43.95889" lon="2.34954">
        <ele>334</ele>
        <time>2021-04-18T11:59:02Z</time>
      </trkpt>
      <trkpt lat="43.95889" lon="2.34954">
        <ele>334</ele>
        <time>2021-04-18T11:59:03Z</time>
      </trkpt>
      <trkpt lat="43.95888" lon="2.34954">
        <ele>334</ele>
        <time>2021-04-18T11:59:04Z</time>
      </trkpt>
      <trkpt lat="43.95887" lon="2.34953">
        <ele>334</ele>
        <time>2021-04-18T11:59:05Z</time>
      </trkpt>
      <trkpt lat="43.95887" lon="2.34953">
        <ele>333</ele>
        <time>2021-04-18T11:59:06Z</time>
      </trkpt>
      <trkpt lat="43.95887" lon="2.34952">
        <ele>334</ele>
        <time>2021-04-18T11:59:07Z</time>
      </trkpt>
      <trkpt lat="43.95886" lon="2.34952">
        <ele>334</ele>
        <time>2021-04-18T11:59:08Z</time>
      </trkpt>
      <trkpt lat="43.95885" lon="2.3495">
        <ele>334</ele>
        <time>2021-04-18T11:59:09Z</time>
      </trkpt>
      <trkpt lat="43.95884" lon="2.3495">
        <ele>334</ele>
        <time>2021-04-18T11:59:10Z</time>
      </trkpt>
      <trkpt lat="43.95883" lon="2.3495">
        <ele>334</ele>
        <time>2021-04-18T11:59:11Z</time>
      </trkpt>
      <trkpt lat="43.95882" lon="2.34949">
        <ele>334</ele>
        <time>2021-04-18T11:59:12Z</time>
      </trkpt>
      <trkpt lat="43.95882" lon="2.3495">
        <ele>334</ele>
        <time>2021-04-18T11:59:13Z</time>
      </trkpt>
      <trkpt lat="43.95881" lon="2.3495">
        <ele>334</ele>
        <time>2021-04-18T11:59:14Z</time>
      </trkpt>
      <trkpt lat="43.95881" lon="2.3495">
        <ele>335</ele>
        <time>2021-04-18T11:59:15Z</time>
      </trkpt>
      <trkpt lat="43.9588" lon="2.34951">
        <ele>335</ele>
        <time>2021-04-18T11:59:16Z</time>
      </trkpt>
      <trkpt lat="43.95879" lon="2.34951">
        <ele>335</ele>
        <time>2021-04-18T11:59:17Z</time>
      </trkpt>
      <trkpt lat="43.95878" lon="2.34952">
        <ele>335</ele>
        <time>2021-04-18T11:59:18Z</time>
      </trkpt>
      <trkpt lat="43.95877" lon="2.34952">
        <ele>335</ele>
        <time>2021-04-18T11:59:19Z</time>
      </trkpt>
      <trkpt lat="43.95876" lon="2.34952">
        <ele>336</ele>
        <time>2021-04-18T11:59:20Z</time>
      </trkpt>
      <trkpt lat="43.95875" lon="2.34952">
        <ele>335</ele>
        <time>2021-04-18T11:59:21Z</time>
      </trkpt>
      <trkpt lat="43.95873" lon="2.34951">
        <ele>336</ele>
        <time>2021-04-18T11:59:22Z</time>
      </trkpt>
      <trkpt lat="43.95872" lon="2.34952">
        <ele>336</ele>
        <time>2021-04-18T11:59:23Z</time>
      </trkpt>
      <trkpt lat="43.95871" lon="2.34952">
        <ele>337</ele>
        <time>2021-04-18T11:59:24Z</time>
      </trkpt>
      <trkpt lat="43.9587" lon="2.34953">
        <ele>337</ele>
        <time>2021-04-18T11:59:25Z</time>
      </trkpt>
      <trkpt lat="43.95868" lon="2.34953">
        <ele>337</ele>
        <time>2021-04-18T11:59:26Z</time>
      </trkpt>
      <trkpt lat="43.95868" lon="2.34953">
        <ele>337</ele>
        <time>2021-04-18T11:59:27Z</time>
      </trkpt>
      <trkpt lat="43.95867" lon="2.34953">
        <ele>337</ele>
        <time>2021-04-18T11:59:28Z</time>
      </trkpt>
      <trkpt lat="43.95866" lon="2.34954">
        <ele>338</ele>
        <time>2021-04-18T11:59:29Z</time>
      </trkpt>
      <trkpt lat="43.95866" lon="2.34954">
        <ele>338</ele>
        <time>2021-04-18T11:59:30Z</time>
      </trkpt>
      <trkpt lat="43.95866" lon="2.34954">
        <ele>338</ele>
        <time>2021-04-18T11:59:31Z</time>
      </trkpt>
      <trkpt lat="43.95865" lon="2.34956">
        <ele>338</ele>
        <time>2021-04-18T11:59:32Z</time>
      </trkpt>
      <trkpt lat="43.95864" lon="2.34956">
        <ele>338</ele>
        <time>2021-04-18T11:59:33Z</time>
      </trkpt>
      <trkpt lat="43.95863" lon="2.34956">
        <ele>338</ele>
        <time>2021-04-18T11:59:34Z</time>
      </trkpt>
      <trkpt lat="43.95862" lon="2.34957">
        <ele>338</ele>
        <time>2021-04-18T11:59:35Z</time>
      </trkpt>
      <trkpt lat="43.95861" lon="2.34957">
        <ele>338</ele>
        <time>2021-04-18T11:59:36Z</time>
      </trkpt>
      <trkpt lat="43.9586" lon="2.34958">
        <ele>339</ele>
        <time>2021-04-18T11:59:37Z</time>
      </trkpt>
      <trkpt lat="43.9586" lon="2.34958">
        <ele>339</ele>
        <time>2021-04-18T11:59:38Z</time>
      </trkpt>
      <trkpt lat="43.95859" lon="2.3496">
        <ele>339</ele>
        <time>2021-04-18T11:59:39Z</time>
      </trkpt>
      <trkpt lat="43.95858" lon="2.34961">
        <ele>339</ele>
        <time>2021-04-18T11:59:40Z</time>
      </trkpt>
      <trkpt lat="43.95858" lon="2.34961">
        <ele>339</ele>
        <time>2021-04-18T11:59:41Z</time>
      </trkpt>
      <trkpt lat="43.95857" lon="2.34963">
        <ele>340</ele>
        <time>2021-04-18T11:59:42Z</time>
      </trkpt>
      <trkpt lat="43.95857" lon="2.34965">
        <ele>339</ele>
        <time>2021-04-18T11:59:43Z</time>
      </trkpt>
      <trkpt lat="43.95857" lon="2.34967">
        <ele>339</ele>
        <time>2021-04-18T11:59:44Z</time>
      </trkpt>
      <trkpt lat="43.95857" lon="2.34968">
        <ele>339</ele>
        <time>2021-04-18T11:59:45Z</time>
      </trkpt>
      <trkpt lat="43.95857" lon="2.34969">
        <ele>339</ele>
        <time>2021-04-18T11:59:46Z</time>
      </trkpt>
      <trkpt lat="43.95857" lon="2.34971">
        <ele>339</ele>
        <time>2021-04-18T11:59:47Z</time>
      </trkpt>
      <trkpt lat="43.95857" lon="2.34973">
        <ele>338</ele>
        <time>2021-04-18T11:59:48Z</time>
      </trkpt>
      <trkpt lat="43.95856" lon="2.34975">
        <ele>337</ele>
        <time>2021-04-18T11:59:49Z</time>
      </trkpt>
      <trkpt lat="43.95856" lon="2.34977">
        <ele>337</ele>
        <time>2021-04-18T11:59:50Z</time>
      </trkpt>
      <trkpt lat="43.95856" lon="2.34978">
        <ele>337</ele>
        <time>2021-04-18T11:59:51Z</time>
      </trkpt>
      <trkpt lat="43.95856" lon="2.34979">
        <ele>337</ele>
        <time>2021-04-18T11:59:52Z</time>
      </trkpt>
      <trkpt lat="43.95856" lon="2.34981">
        <ele>337</ele>
        <time>2021-04-18T11:59:53Z</time>
      </trkpt>
      <trkpt lat="43.95855" lon="2.34982">
        <ele>337</ele>
        <time>2021-04-18T11:59:54Z</time>
      </trkpt>
      <trkpt lat="43.95855" lon="2.34983">
        <ele>337</ele>
        <time>2021-04-18T11:59:55Z</time>
      </trkpt>
      <trkpt lat="43.95855" lon="2.34984">
        <ele>337</ele>
        <time>2021-04-18T11:59:56Z</time>
      </trkpt>
      <trkpt lat="43.95855" lon="2.34985">
        <ele>338</ele>
        <time>2021-04-18T11:59:57Z</time>
      </trkpt>
      <trkpt lat="43.95856" lon="2.34986">
        <ele>339</ele>
        <time>2021-04-18T11:59:58Z</time>
      </trkpt>
      <trkpt lat="43.95855" lon="2.34987">
        <ele>339</ele>
        <time>2021-04-18T11:59:59Z</time>
      </trkpt>
      <trkpt lat="43.95855" lon="2.34988">
        <ele>339</ele>
        <time>2021-04-18T12:00:00Z</time>
      </trkpt>
      <trkpt lat="43.95855" lon="2.34989">
        <ele>340</ele>
        <time>2021-04-18T12:00:01Z</time>
      </trkpt>
      <trkpt lat="43.95855" lon="2.34991">
        <ele>340</ele>
        <time>2021-04-18T12:00:02Z</time>
      </trkpt>
      <trkpt lat="43.95855" lon="2.34992">
        <ele>341</ele>
        <time>2021-04-18T12:00:03Z</time>
      </trkpt>
      <trkpt lat="43.95855" lon="2.34993">
        <ele>341</ele>
        <time>2021-04-18T12:00:04Z</time>
      </trkpt>
      <trkpt lat="43.95855" lon="2.34994">
        <ele>342</ele>
        <time>2021-04-18T12:00:05Z</time>
      </trkpt>
      <trkpt lat="43.95855" lon="2.34995">
        <ele>342</ele>
        <time>2021-04-18T12:00:06Z</time>
      </trkpt>
      <trkpt lat="43.95856" lon="2.34996">
        <ele>342</ele>
        <time>2021-04-18T12:00:07Z</time>
      </trkpt>
      <trkpt lat="43.95856" lon="2.34998">
        <ele>342</ele>
        <time>2021-04-18T12:00:08Z</time>
      </trkpt>
      <trkpt lat="43.95856" lon="2.35">
        <ele>341</ele>
        <time>2021-04-18T12:00:09Z</time>
      </trkpt>
      <trkpt lat="43.95856" lon="2.35001">
        <ele>341</ele>
        <time>2021-04-18T12:00:10Z</time>
      </trkpt>
      <trkpt lat="43.95856" lon="2.35001">
        <ele>341</ele>
        <time>2021-04-18T12:00:11Z</time>
      </trkpt>
      <trkpt lat="43.95856" lon="2.35003">
        <ele>341</ele>
        <time>2021-04-18T12:00:12Z</time>
      </trkpt>
      <trkpt lat="43.95856" lon="2.35004">
        <ele>341</ele>
        <time>2021-04-18T12:00:13Z</time>
      </trkpt>
      <trkpt lat="43.95856" lon="2.35005">
        <ele>341</ele>
        <time>2021-04-18T12:00:14Z</time>
      </trkpt>
      <trkpt lat="43.95856" lon="2.35007">
        <ele>341</ele>
        <time>2021-04-18T12:00:15Z</time>
      </trkpt>
      <trkpt lat="43.95855" lon="2.35008">
        <ele>342</ele>
        <time>2021-04-18T12:00:16Z</time>
      </trkpt>
      <trkpt lat="43.95855" lon="2.35009">
        <ele>342</ele>
        <time>2021-04-18T12:00:17Z</time>
      </trkpt>
      <trkpt lat="43.95855" lon="2.35011">
        <ele>343</ele>
        <time>2021-04-18T12:00:18Z</time>
      </trkpt>
      <trkpt lat="43.95856" lon="2.35012">
        <ele>343</ele>
        <time>2021-04-18T12:00:19Z</time>
      </trkpt>
      <trkpt lat="43.95856" lon="2.35013">
        <ele>343</ele>
        <time>2021-04-18T12:00:20Z</time>
      </trkpt>
      <trkpt lat="43.95856" lon="2.35015">
        <ele>343</ele>
        <time>2021-04-18T12:00:21Z</time>
      </trkpt>
      <trkpt lat="43.95856" lon="2.35017">
        <ele>344</ele>
        <time>2021-04-18T12:00:22Z</time>
      </trkpt>
      <trkpt lat="43.95857" lon="2.35018">
        <ele>344</ele>
        <time>2021-04-18T12:00:23Z</time>
      </trkpt>
      <trkpt lat="43.95857" lon="2.35019">
        <ele>345</ele>
        <time>2021-04-18T12:00:24Z</time>
      </trkpt>
      <trkpt lat="43.95857" lon="2.3502">
        <ele>344</ele>
        <time>2021-04-18T12:00:25Z</time>
      </trkpt>
      <trkpt lat="43.95857" lon="2.35022">
        <ele>344</ele>
        <time>2021-04-18T12:00:26Z</time>
      </trkpt>
      <trkpt lat="43.95858" lon="2.35023">
        <ele>344</ele>
        <time>2021-04-18T12:00:27Z</time>
      </trkpt>
      <trkpt lat="43.95858" lon="2.35025">
        <ele>344</ele>
        <time>2021-04-18T12:00:28Z</time>
      </trkpt>
      <trkpt lat="43.95858" lon="2.35026">
        <ele>344</ele>
        <time>2021-04-18T12:00:29Z</time>
      </trkpt>
      <trkpt lat="43.95858" lon="2.35027">
        <ele>344</ele>
        <time>2021-04-18T12:00:30Z</time>
      </trkpt>
      <trkpt lat="43.95858" lon="2.35028">
        <ele>345</ele>
        <time>2021-04-18T12:00:31Z</time>
      </trkpt>
      <trkpt lat="43.95858" lon="2.3503">
        <ele>345</ele>
        <time>2021-04-18T12:00:32Z</time>
      </trkpt>
      <trkpt lat="43.95858" lon="2.35031">
        <ele>345</ele>
        <time>2021-04-18T12:00:33Z</time>
      </trkpt>
      <trkpt lat="43.95858" lon="2.35033">
        <ele>345</ele>
        <time>2021-04-18T12:00:34Z</time>
      </trkpt>
      <trkpt lat="43.95858" lon="2.35034">
        <ele>346</ele>
        <time>2021-04-18T12:00:35Z</time>
      </trkpt>
      <trkpt lat="43.95858" lon="2.35036">
        <ele>347</ele>
        <time>2021-04-18T12:00:36Z</time>
      </trkpt>
      <trkpt lat="43.95857" lon="2.35038">
        <ele>347</ele>
        <time>2021-04-18T12:00:37Z</time>
      </trkpt>
      <trkpt lat="43.95857" lon="2.35039">
        <ele>347</ele>
        <time>2021-04-18T12:00:38Z</time>
      </trkpt>
      <trkpt lat="43.95857" lon="2.35041">
        <ele>347</ele>
        <time>2021-04-18T12:00:39Z</time>
      </trkpt>
      <trkpt lat="43.95857" lon="2.35042">
        <ele>346</ele>
        <time>2021-04-18T12:00:40Z</time>
      </trkpt>
      <trkpt lat="43.95857" lon="2.35043">
        <ele>346</ele>
        <time>2021-04-18T12:00:41Z</time>
      </trkpt>
      <trkpt lat="43.95857" lon="2.35044">
        <ele>347</ele>
        <time>2021-04-18T12:00:42Z</time>
      </trkpt>
      <trkpt lat="43.95857" lon="2.35046">
        <ele>347</ele>
        <time>2021-04-18T12:00:43Z</time>
      </trkpt>
      <trkpt lat="43.95857" lon="2.35047">
        <ele>347</ele>
        <time>2021-04-18T12:00:44Z</time>
      </trkpt>
      <trkpt lat="43.95857" lon="2.35048">
        <ele>347</ele>
        <time>2021-04-18T12:00:45Z</time>
      </trkpt>
      <trkpt lat="43.95857" lon="2.35049">
        <ele>348</ele>
        <time>2021-04-18T12:00:46Z</time>
      </trkpt>
      <trkpt lat="43.95857" lon="2.35049">
        <ele>348</ele>
        <time>2021-04-18T12:00:47Z</time>
      </trkpt>
      <trkpt lat="43.95857" lon="2.35049">
        <ele>348</ele>
        <time>2021-04-18T12:00:48Z</time>
      </trkpt>
      <trkpt lat="43.95858" lon="2.35053">
        <ele>349</ele>
        <time>2021-04-18T12:00:49Z</time>
      </trkpt>
      <trkpt lat="43.95858" lon="2.35054">
        <ele>349</ele>
        <time>2021-04-18T12:00:50Z</time>
      </trkpt>
      <trkpt lat="43.95858" lon="2.35056">
        <ele>349</ele>
        <time>2021-04-18T12:00:51Z</time>
      </trkpt>
      <trkpt lat="43.95858" lon="2.35058">
        <ele>350</ele>
        <time>2021-04-18T12:00:52Z</time>
      </trkpt>
      <trkpt lat="43.95858" lon="2.35059">
        <ele>350</ele>
        <time>2021-04-18T12:00:53Z</time>
      </trkpt>
      <trkpt lat="43.95858" lon="2.35061">
        <ele>350</ele>
        <time>2021-04-18T12:00:54Z</time>
      </trkpt>
      <trkpt lat="43.95858" lon="2.35063">
        <ele>350</ele>
        <time>2021-04-18T12:00:55Z</time>
      </trkpt>
      <trkpt lat="43.95859" lon="2.35065">
        <ele>350</ele>
        <time>2021-04-18T12:00:56Z</time>
      </trkpt>
      <trkpt lat="43.95858" lon="2.35067">
        <ele>350</ele>
        <time>2021-04-18T12:00:57Z</time>
      </trkpt>
      <trkpt lat="43.95858" lon="2.35068">
        <ele>351</ele>
        <time>2021-04-18T12:00:58Z</time>
      </trkpt>
      <trkpt lat="43.95858" lon="2.3507">
        <ele>350</ele>
        <time>2021-04-18T12:00:59Z</time>
      </trkpt>
      <trkpt lat="43.95858" lon="2.35071">
        <ele>351</ele>
        <time>2021-04-18T12:01:00Z</time>
      </trkpt>
      <trkpt lat="43.95858" lon="2.35072">
        <ele>351</ele>
        <time>2021-04-18T12:01:01Z</time>
      </trkpt>
      <trkpt lat="43.95858" lon="2.35073">
        <ele>351</ele>
        <time>2021-04-18T12:01:02Z</time>
      </trkpt>
      <trkpt lat="43.95858" lon="2.35075">
        <ele>352</ele>
        <time>2021-04-18T12:01:03Z</time>
      </trkpt>
      <trkpt lat="43.95858" lon="2.35075">
        <ele>352</ele>
        <time>2021-04-18T12:01:04Z</time>
      </trkpt>
      <trkpt lat="43.95858" lon="2.35076">
        <ele>353</ele>
        <time>2021-04-18T12:01:05Z</time>
      </trkpt>
      <trkpt lat="43.95858" lon="2.35078">
        <ele>353</ele>
        <time>2021-04-18T12:01:06Z</time>
      </trkpt>
      <trkpt lat="43.95857" lon="2.35079">
        <ele>353</ele>
        <time>2021-04-18T12:01:07Z</time>
      </trkpt>
      <trkpt lat="43.95857" lon="2.35081">
        <ele>353</ele>
        <time>2021-04-18T12:01:08Z</time>
      </trkpt>
      <trkpt lat="43.95857" lon="2.35083">
        <ele>353</ele>
        <time>2021-04-18T12:01:09Z</time>
      </trkpt>
      <trkpt lat="43.95857" lon="2.35085">
        <ele>352</ele>
        <time>2021-04-18T12:01:10Z</time>
      </trkpt>
      <trkpt lat="43.95857" lon="2.35086">
        <ele>352</ele>
        <time>2021-04-18T12:01:11Z</time>
      </trkpt>
      <trkpt lat="43.95857" lon="2.35087">
        <ele>352</ele>
        <time>2021-04-18T12:01:12Z</time>
      </trkpt>
      <trkpt lat="43.95857" lon="2.35089">
        <ele>352</ele>
        <time>2021-04-18T12:01:13Z</time>
      </trkpt>
      <trkpt lat="43.95857" lon="2.3509">
        <ele>352</ele>
        <time>2021-04-18T12:01:14Z</time>
      </trkpt>
      <trkpt lat="43.95857" lon="2.35091">
        <ele>353</ele>
        <time>2021-04-18T12:01:15Z</time>
      </trkpt>
      <trkpt lat="43.95857" lon="2.35092">
        <ele>352</ele>
        <time>2021-04-18T12:01:16Z</time>
      </trkpt>
      <trkpt lat="43.95857" lon="2.35092">
        <ele>352</ele>
        <time>2021-04-18T12:01:17Z</time>
      </trkpt>
      <trkpt lat="43.95857" lon="2.35092">
        <ele>352</ele>
        <time>2021-04-18T12:01:18Z</time>
      </trkpt>
      <trkpt lat="43.95858" lon="2.35095">
        <ele>352</ele>
        <time>2021-04-18T12:01:19Z</time>
      </trkpt>
      <trkpt lat="43.95858" lon="2.35097">
        <ele>352</ele>
        <time>2021-04-18T12:01:20Z</time>
      </trkpt>
      <trkpt lat="43.95858" lon="2.35098">
        <ele>352</ele>
        <time>2021-04-18T12:01:21Z</time>
      </trkpt>
      <trkpt lat="43.95859" lon="2.35099">
        <ele>352</ele>
        <time>2021-04-18T12:01:22Z</time>
      </trkpt>
      <trkpt lat="43.9586" lon="2.351">
        <ele>352</ele>
        <time>2021-04-18T12:01:23Z</time>
      </trkpt>
      <trkpt lat="43.95861" lon="2.35102">
        <ele>352</ele>
        <time>2021-04-18T12:01:24Z</time>
      </trkpt>
      <trkpt lat="43.95862" lon="2.35104">
        <ele>353</ele>
        <time>2021-04-18T12:01:25Z</time>
      </trkpt>
      <trkpt lat="43.95862" lon="2.35105">
        <ele>353</ele>
        <time>2021-04-18T12:01:26Z</time>
      </trkpt>
      <trkpt lat="43.95862" lon="2.35107">
        <ele>353</ele>
        <time>2021-04-18T12:01:27Z</time>
      </trkpt>
      <trkpt lat="43.95862" lon="2.35108">
        <ele>354</ele>
        <time>2021-04-18T12:01:28Z</time>
      </trkpt>
      <trkpt lat="43.95862" lon="2.35109">
        <ele>355</ele>
        <time>2021-04-18T12:01:29Z</time>
      </trkpt>
      <trkpt lat="43.95863" lon="2.35111">
        <ele>355</ele>
        <time>2021-04-18T12:01:30Z</time>
      </trkpt>
      <trkpt lat="43.95863" lon="2.35113">
        <ele>356</ele>
        <time>2021-04-18T12:01:31Z</time>
      </trkpt>
      <trkpt lat="43.95863" lon="2.35114">
        <ele>356</ele>
        <time>2021-04-18T12:01:32Z</time>
      </trkpt>
      <trkpt lat="43.95863" lon="2.35114">
        <ele>356</ele>
        <time>2021-04-18T12:01:33Z</time>
      </trkpt>
      <trkpt lat="43.95863" lon="2.35114">
        <ele>356</ele>
        <time>2021-04-18T12:01:34Z</time>
      </trkpt>
      <trkpt lat="43.95862" lon="2.35118">
        <ele>357</ele>
        <time>2021-04-18T12:01:35Z</time>
      </trkpt>
      <trkpt lat="43.95862" lon="2.3512">
        <ele>357</ele>
        <time>2021-04-18T12:01:36Z</time>
      </trkpt>
      <trkpt lat="43.95862" lon="2.35122">
        <ele>357</ele>
        <time>2021-04-18T12:01:37Z</time>
      </trkpt>
      <trkpt lat="43.95862" lon="2.35124">
        <ele>357</ele>
        <time>2021-04-18T12:01:38Z</time>
      </trkpt>
      <trkpt lat="43.95862" lon="2.35125">
        <ele>357</ele>
        <time>2021-04-18T12:01:39Z</time>
      </trkpt>
      <trkpt lat="43.95861" lon="2.35127">
        <ele>358</ele>
        <time>2021-04-18T12:01:40Z</time>
      </trkpt>
      <trkpt lat="43.95861" lon="2.35129">
        <ele>358</ele>
        <time>2021-04-18T12:01:41Z</time>
      </trkpt>
      <trkpt lat="43.95861" lon="2.3513">
        <ele>359</ele>
        <time>2021-04-18T12:01:42Z</time>
      </trkpt>
      <trkpt lat="43.95861" lon="2.35131">
        <ele>359</ele>
        <time>2021-04-18T12:01:43Z</time>
      </trkpt>
      <trkpt lat="43.95861" lon="2.35133">
        <ele>359</ele>
        <time>2021-04-18T12:01:44Z</time>
      </trkpt>
      <trkpt lat="43.95861" lon="2.35134">
        <ele>359</ele>
        <time>2021-04-18T12:01:45Z</time>
      </trkpt>
      <trkpt lat="43.95861" lon="2.35135">
        <ele>359</ele>
        <time>2021-04-18T12:01:46Z</time>
      </trkpt>
      <trkpt lat="43.95861" lon="2.35136">
        <ele>359</ele>
        <time>2021-04-18T12:01:47Z</time>
      </trkpt>
      <trkpt lat="43.95861" lon="2.35137">
        <ele>359</ele>
        <time>2021-04-18T12:01:48Z</time>
      </trkpt>
      <trkpt lat="43.95861" lon="2.35138">
        <ele>360</ele>
        <time>2021-04-18T12:01:49Z</time>
      </trkpt>
      <trkpt lat="43.95861" lon="2.35139">
        <ele>360</ele>
        <time>2021-04-18T12:01:50Z</time>
      </trkpt>
      <trkpt lat="43.95861" lon="2.3514">
        <ele>360</ele>
        <time>2021-04-18T12:01:51Z</time>
      </trkpt>
      <trkpt lat="43.95861" lon="2.35141">
        <ele>360</ele>
        <time>2021-04-18T12:01:52Z</time>
      </trkpt>
      <trkpt lat="43.95861" lon="2.35142">
        <ele>361</ele>
        <time>2021-04-18T12:01:53Z</time>
      </trkpt>
      <trkpt lat="43.95861" lon="2.35141">
        <ele>361</ele>
        <time>2021-04-18T12:01:54Z</time>
      </trkpt>
      <trkpt lat="43.95863" lon="2.35142">
        <ele>360</ele>
        <time>2021-04-18T12:01:55Z</time>
      </trkpt>
      <trkpt lat="43.95864" lon="2.35142">
        <ele>360</ele>
        <time>2021-04-18T12:01:56Z</time>
      </trkpt>
      <trkpt lat="43.95864" lon="2.35142">
        <ele>360</ele>
        <time>2021-04-18T12:01:56Z</time>
      </trkpt>
      <trkpt lat="43.95864" lon="2.35142">
        <ele>360</ele>
        <time>2021-04-18T12:01:56Z</time>
      </trkpt>
      <trkpt lat="43.95861" lon="2.35151">
        <ele>363</ele>
        <time>2021-04-18T12:02:06Z</time>
      </trkpt>
      <trkpt lat="43.9586" lon="2.35152">
        <ele>363</ele>
        <time>2021-04-18T12:02:07Z</time>
      </trkpt>
      <trkpt lat="43.95859" lon="2.35153">
        <ele>363</ele>
        <time>2021-04-18T12:02:08Z</time>
      </trkpt>
      <trkpt lat="43.95858" lon="2.35154">
        <ele>364</ele>
        <time>2021-04-18T12:02:09Z</time>
      </trkpt>
      <trkpt lat="43.95858" lon="2.35155">
        <ele>364</ele>
        <time>2021-04-18T12:02:10Z</time>
      </trkpt>
      <trkpt lat="43.95857" lon="2.35156">
        <ele>365</ele>
        <time>2021-04-18T12:02:11Z</time>
      </trkpt>
      <trkpt lat="43.95856" lon="2.35157">
        <ele>364</ele>
        <time>2021-04-18T12:02:12Z</time>
      </trkpt>
      <trkpt lat="43.95855" lon="2.35159">
        <ele>365</ele>
        <time>2021-04-18T12:02:13Z</time>
      </trkpt>
      <trkpt lat="43.95854" lon="2.3516">
        <ele>364</ele>
        <time>2021-04-18T12:02:14Z</time>
      </trkpt>
      <trkpt lat="43.95853" lon="2.35161">
        <ele>364</ele>
        <time>2021-04-18T12:02:15Z</time>
      </trkpt>
      <trkpt lat="43.95852" lon="2.35162">
        <ele>364</ele>
        <time>2021-04-18T12:02:16Z</time>
      </trkpt>
      <trkpt lat="43.95852" lon="2.35163">
        <ele>364</ele>
        <time>2021-04-18T12:02:17Z</time>
      </trkpt>
      <trkpt lat="43.95851" lon="2.35164">
        <ele>364</ele>
        <time>2021-04-18T12:02:18Z</time>
      </trkpt>
      <trkpt lat="43.95851" lon="2.35165">
        <ele>364</ele>
        <time>2021-04-18T12:02:19Z</time>
      </trkpt>
      <trkpt lat="43.95851" lon="2.35166">
        <ele>364</ele>
        <time>2021-04-18T12:02:20Z</time>
      </trkpt>
      <trkpt lat="43.95851" lon="2.35166">
        <ele>364</ele>
        <time>2021-04-18T12:02:21Z</time>
      </trkpt>
      <trkpt lat="43.95851" lon="2.35166">
        <ele>364</ele>
        <time>2021-04-18T12:02:22Z</time>
      </trkpt>
      <trkpt lat="43.95849" lon="2.3517">
        <ele>364</ele>
        <time>2021-04-18T12:02:23Z</time>
      </trkpt>
      <trkpt lat="43.95849" lon="2.35171">
        <ele>364</ele>
        <time>2021-04-18T12:02:24Z</time>
      </trkpt>
      <trkpt lat="43.95849" lon="2.35173">
        <ele>364</ele>
        <time>2021-04-18T12:02:25Z</time>
      </trkpt>
      <trkpt lat="43.9585" lon="2.35174">
        <ele>365</ele>
        <time>2021-04-18T12:02:26Z</time>
      </trkpt>
      <trkpt lat="43.9585" lon="2.35175">
        <ele>365</ele>
        <time>2021-04-18T12:02:27Z</time>
      </trkpt>
      <trkpt lat="43.95851" lon="2.35177">
        <ele>365</ele>
        <time>2021-04-18T12:02:28Z</time>
      </trkpt>
      <trkpt lat="43.95852" lon="2.35178">
        <ele>365</ele>
        <time>2021-04-18T12:02:29Z</time>
      </trkpt>
      <trkpt lat="43.95853" lon="2.35179">
        <ele>365</ele>
        <time>2021-04-18T12:02:30Z</time>
      </trkpt>
      <trkpt lat="43.95855" lon="2.35181">
        <ele>365</ele>
        <time>2021-04-18T12:02:31Z</time>
      </trkpt>
      <trkpt lat="43.95855" lon="2.35181">
        <ele>365</ele>
        <time>2021-04-18T12:02:32Z</time>
      </trkpt>
      <trkpt lat="43.95855" lon="2.35181">
        <ele>365</ele>
        <time>2021-04-18T12:02:33Z</time>
      </trkpt>
      <trkpt lat="43.95857" lon="2.35183">
        <ele>365</ele>
        <time>2021-04-18T12:02:34Z</time>
      </trkpt>
      <trkpt lat="43.95858" lon="2.35184">
        <ele>365</ele>
        <time>2021-04-18T12:02:35Z</time>
      </trkpt>
      <trkpt lat="43.95859" lon="2.35186">
        <ele>366</ele>
        <time>2021-04-18T12:02:36Z</time>
      </trkpt>
      <trkpt lat="43.9586" lon="2.35187">
        <ele>366</ele>
        <time>2021-04-18T12:02:37Z</time>
      </trkpt>
      <trkpt lat="43.95861" lon="2.35188">
        <ele>366</ele>
        <time>2021-04-18T12:02:38Z</time>
      </trkpt>
      <trkpt lat="43.95861" lon="2.3519">
        <ele>366</ele>
        <time>2021-04-18T12:02:39Z</time>
      </trkpt>
      <trkpt lat="43.95862" lon="2.35191">
        <ele>366</ele>
        <time>2021-04-18T12:02:40Z</time>
      </trkpt>
      <trkpt lat="43.95863" lon="2.35193">
        <ele>366</ele>
        <time>2021-04-18T12:02:41Z</time>
      </trkpt>
      <trkpt lat="43.95864" lon="2.35194">
        <ele>367</ele>
        <time>2021-04-18T12:02:42Z</time>
      </trkpt>
      <trkpt lat="43.95865" lon="2.35196">
        <ele>366</ele>
        <time>2021-04-18T12:02:43Z</time>
      </trkpt>
      <trkpt lat="43.95866" lon="2.35198">
        <ele>367</ele>
        <time>2021-04-18T12:02:44Z</time>
      </trkpt>
      <trkpt lat="43.95866" lon="2.35199">
        <ele>367</ele>
        <time>2021-04-18T12:02:45Z</time>
      </trkpt>
      <trkpt lat="43.95867" lon="2.352">
        <ele>368</ele>
        <time>2021-04-18T12:02:46Z</time>
      </trkpt>
      <trkpt lat="43.95868" lon="2.35201">
        <ele>369</ele>
        <time>2021-04-18T12:02:47Z</time>
      </trkpt>
      <trkpt lat="43.95868" lon="2.35203">
        <ele>369</ele>
        <time>2021-04-18T12:02:48Z</time>
      </trkpt>
      <trkpt lat="43.95868" lon="2.35204">
        <ele>369</ele>
        <time>2021-04-18T12:02:49Z</time>
      </trkpt>
      <trkpt lat="43.95869" lon="2.35206">
        <ele>370</ele>
        <time>2021-04-18T12:02:50Z</time>
      </trkpt>
      <trkpt lat="43.95869" lon="2.35207">
        <ele>370</ele>
        <time>2021-04-18T12:02:51Z</time>
      </trkpt>
      <trkpt lat="43.95869" lon="2.35209">
        <ele>370</ele>
        <time>2021-04-18T12:02:52Z</time>
      </trkpt>
      <trkpt lat="43.9587" lon="2.35211">
        <ele>370</ele>
        <time>2021-04-18T12:02:53Z</time>
      </trkpt>
      <trkpt lat="43.95869" lon="2.35212">
        <ele>370</ele>
        <time>2021-04-18T12:02:54Z</time>
      </trkpt>
      <trkpt lat="43.95869" lon="2.35214">
        <ele>370</ele>
        <time>2021-04-18T12:02:55Z</time>
      </trkpt>
      <trkpt lat="43.9587" lon="2.35215">
        <ele>371</ele>
        <time>2021-04-18T12:02:56Z</time>
      </trkpt>
      <trkpt lat="43.9587" lon="2.35217">
        <ele>371</ele>
        <time>2021-04-18T12:02:57Z</time>
      </trkpt>
      <trkpt lat="43.9587" lon="2.35218">
        <ele>371</ele>
        <time>2021-04-18T12:02:58Z</time>
      </trkpt>
      <trkpt lat="43.95871" lon="2.3522">
        <ele>371</ele>
        <time>2021-04-18T12:02:59Z</time>
      </trkpt>
      <trkpt lat="43.95871" lon="2.35221">
        <ele>371</ele>
        <time>2021-04-18T12:03:00Z</time>
      </trkpt>
      <trkpt lat="43.95871" lon="2.35221">
        <ele>370</ele>
        <time>2021-04-18T12:03:01Z</time>
      </trkpt>
      <trkpt lat="43.95871" lon="2.35221">
        <ele>370</ele>
        <time>2021-04-18T12:03:02Z</time>
      </trkpt>
      <trkpt lat="43.95871" lon="2.35221">
        <ele>370</ele>
        <time>2021-04-18T12:03:03Z</time>
      </trkpt>
      <trkpt lat="43.95871" lon="2.35221">
        <ele>370</ele>
        <time>2021-04-18T12:03:04Z</time>
      </trkpt>
      <trkpt lat="43.95871" lon="2.35221">
        <ele>370</ele>
        <time>2021-04-18T12:03:05Z</time>
      </trkpt>
      <trkpt lat="43.95871" lon="2.35224">
        <ele>371</ele>
        <time>2021-04-18T12:03:06Z</time>
      </trkpt>
      <trkpt lat="43.9587" lon="2.35224">
        <ele>372</ele>
        <time>2021-04-18T12:03:07Z</time>
      </trkpt>
      <trkpt lat="43.95871" lon="2.35225">
        <ele>372</ele>
        <time>2021-04-18T12:03:08Z</time>
      </trkpt>
      <trkpt lat="43.95871" lon="2.35226">
        <ele>373</ele>
        <time>2021-04-18T12:03:09Z</time>
      </trkpt>
      <trkpt lat="43.95871" lon="2.35226">
        <ele>373</ele>
        <time>2021-04-18T12:03:10Z</time>
      </trkpt>
      <trkpt lat="43.95871" lon="2.35226">
        <ele>373</ele>
        <time>2021-04-18T12:03:11Z</time>
      </trkpt>
      <trkpt lat="43.95871" lon="2.35229">
        <ele>373</ele>
        <time>2021-04-18T12:03:12Z</time>
      </trkpt>
      <trkpt lat="43.95871" lon="2.35231">
        <ele>373</ele>
        <time>2021-04-18T12:03:13Z</time>
      </trkpt>
      <trkpt lat="43.9587" lon="2.35233">
        <ele>373</ele>
        <time>2021-04-18T12:03:14Z</time>
      </trkpt>
      <trkpt lat="43.9587" lon="2.35233">
        <ele>374</ele>
        <time>2021-04-18T12:03:15Z</time>
      </trkpt>
      <trkpt lat="43.9587" lon="2.35234">
        <ele>374</ele>
        <time>2021-04-18T12:03:16Z</time>
      </trkpt>
      <trkpt lat="43.95869" lon="2.35235">
        <ele>375</ele>
        <time>2021-04-18T12:03:17Z</time>
      </trkpt>
      <trkpt lat="43.95869" lon="2.35237">
        <ele>375</ele>
        <time>2021-04-18T12:03:18Z</time>
      </trkpt>
      <trkpt lat="43.95869" lon="2.35239">
        <ele>376</ele>
        <time>2021-04-18T12:03:19Z</time>
      </trkpt>
      <trkpt lat="43.95868" lon="2.3524">
        <ele>376</ele>
        <time>2021-04-18T12:03:20Z</time>
      </trkpt>
      <trkpt lat="43.95868" lon="2.35241">
        <ele>376</ele>
        <time>2021-04-18T12:03:21Z</time>
      </trkpt>
      <trkpt lat="43.95867" lon="2.35243">
        <ele>377</ele>
        <time>2021-04-18T12:03:22Z</time>
      </trkpt>
      <trkpt lat="43.95867" lon="2.35244">
        <ele>377</ele>
        <time>2021-04-18T12:03:23Z</time>
      </trkpt>
      <trkpt lat="43.95867" lon="2.35245">
        <ele>377</ele>
        <time>2021-04-18T12:03:24Z</time>
      </trkpt>
      <trkpt lat="43.95866" lon="2.35246">
        <ele>378</ele>
        <time>2021-04-18T12:03:25Z</time>
      </trkpt>
      <trkpt lat="43.95866" lon="2.35247">
        <ele>379</ele>
        <time>2021-04-18T12:03:26Z</time>
      </trkpt>
      <trkpt lat="43.95865" lon="2.35248">
        <ele>378</ele>
        <time>2021-04-18T12:03:27Z</time>
      </trkpt>
      <trkpt lat="43.95865" lon="2.35248">
        <ele>379</ele>
        <time>2021-04-18T12:03:28Z</time>
      </trkpt>
      <trkpt lat="43.95864" lon="2.35249">
        <ele>379</ele>
        <time>2021-04-18T12:03:29Z</time>
      </trkpt>
      <trkpt lat="43.95863" lon="2.3525">
        <ele>379</ele>
        <time>2021-04-18T12:03:30Z</time>
      </trkpt>
      <trkpt lat="43.95863" lon="2.3525">
        <ele>380</ele>
        <time>2021-04-18T12:03:31Z</time>
      </trkpt>
      <trkpt lat="43.95862" lon="2.35251">
        <ele>380</ele>
        <time>2021-04-18T12:03:32Z</time>
      </trkpt>
      <trkpt lat="43.95861" lon="2.35253">
        <ele>381</ele>
        <time>2021-04-18T12:03:33Z</time>
      </trkpt>
      <trkpt lat="43.9586" lon="2.35254">
        <ele>381</ele>
        <time>2021-04-18T12:03:34Z</time>
      </trkpt>
      <trkpt lat="43.9586" lon="2.35256">
        <ele>382</ele>
        <time>2021-04-18T12:03:35Z</time>
      </trkpt>
      <trkpt lat="43.95859" lon="2.35258">
        <ele>382</ele>
        <time>2021-04-18T12:03:36Z</time>
      </trkpt>
      <trkpt lat="43.95859" lon="2.3526">
        <ele>384</ele>
        <time>2021-04-18T12:03:37Z</time>
      </trkpt>
      <trkpt lat="43.9586" lon="2.35262">
        <ele>384</ele>
        <time>2021-04-18T12:03:38Z</time>
      </trkpt>
      <trkpt lat="43.9586" lon="2.35262">
        <ele>384</ele>
        <time>2021-04-18T12:03:39Z</time>
      </trkpt>
      <trkpt lat="43.9586" lon="2.35261">
        <ele>385</ele>
        <time>2021-04-18T12:03:40Z</time>
      </trkpt>
      <trkpt lat="43.9586" lon="2.35261">
        <ele>385</ele>
        <time>2021-04-18T12:03:40Z</time>
      </trkpt>
      <trkpt lat="43.9586" lon="2.35261">
        <ele>385</ele>
        <time>2021-04-18T12:03:40Z</time>
      </trkpt>
      <trkpt lat="43.95859" lon="2.35267">
        <ele>385</ele>
        <time>2021-04-18T12:03:50Z</time>
      </trkpt>
      <trkpt lat="43.95858" lon="2.35268">
        <ele>385</ele>
        <time>2021-04-18T12:03:51Z</time>
      </trkpt>
      <trkpt lat="43.95857" lon="2.35268">
        <ele>386</ele>
        <time>2021-04-18T12:03:52Z</time>
      </trkpt>
      <trkpt lat="43.95856" lon="2.35269">
        <ele>386</ele>
        <time>2021-04-18T12:03:53Z</time>
      </trkpt>
      <trkpt lat="43.95855" lon="2.3527">
        <ele>386</ele>
        <time>2021-04-18T12:03:54Z</time>
      </trkpt>
      <trkpt lat="43.95855" lon="2.35271">
        <ele>386</ele>
        <time>2021-04-18T12:03:55Z</time>
      </trkpt>
      <trkpt lat="43.95854" lon="2.35273">
        <ele>386</ele>
        <time>2021-04-18T12:03:56Z</time>
      </trkpt>
      <trkpt lat="43.95853" lon="2.35275">
        <ele>386</ele>
        <time>2021-04-18T12:03:57Z</time>
      </trkpt>
      <trkpt lat="43.95853" lon="2.35276">
        <ele>386</ele>
        <time>2021-04-18T12:03:58Z</time>
      </trkpt>
      <trkpt lat="43.95852" lon="2.35277">
        <ele>386</ele>
        <time>2021-04-18T12:03:59Z</time>
      </trkpt>
      <trkpt lat="43.95852" lon="2.35278">
        <ele>386</ele>
        <time>2021-04-18T12:04:00Z</time>
      </trkpt>
      <trkpt lat="43.95853" lon="2.35278">
        <ele>387</ele>
        <time>2021-04-18T12:04:01Z</time>
      </trkpt>
      <trkpt lat="43.95853" lon="2.35278">
        <ele>387</ele>
        <time>2021-04-18T12:04:02Z</time>
      </trkpt>
      <trkpt lat="43.95853" lon="2.3528">
        <ele>387</ele>
        <time>2021-04-18T12:04:03Z</time>
      </trkpt>
      <trkpt lat="43.95852" lon="2.3528">
        <ele>387</ele>
        <time>2021-04-18T12:04:04Z</time>
      </trkpt>
      <trkpt lat="43.95851" lon="2.35281">
        <ele>387</ele>
        <time>2021-04-18T12:04:05Z</time>
      </trkpt>
      <trkpt lat="43.95851" lon="2.35283">
        <ele>387</ele>
        <time>2021-04-18T12:04:06Z</time>
      </trkpt>
      <trkpt lat="43.95851" lon="2.35284">
        <ele>387</ele>
        <time>2021-04-18T12:04:07Z</time>
      </trkpt>
      <trkpt lat="43.9585" lon="2.35285">
        <ele>388</ele>
        <time>2021-04-18T12:04:08Z</time>
      </trkpt>
      <trkpt lat="43.9585" lon="2.35286">
        <ele>388</ele>
        <time>2021-04-18T12:04:09Z</time>
      </trkpt>
      <trkpt lat="43.95849" lon="2.35287">
        <ele>388</ele>
        <time>2021-04-18T12:04:10Z</time>
      </trkpt>
      <trkpt lat="43.95849" lon="2.35287">
        <ele>388</ele>
        <time>2021-04-18T12:04:11Z</time>
      </trkpt>
      <trkpt lat="43.95848" lon="2.35289">
        <ele>388</ele>
        <time>2021-04-18T12:04:12Z</time>
      </trkpt>
      <trkpt lat="43.95847" lon="2.3529">
        <ele>388</ele>
        <time>2021-04-18T12:04:13Z</time>
      </trkpt>
      <trkpt lat="43.95846" lon="2.35291">
        <ele>388</ele>
        <time>2021-04-18T12:04:14Z</time>
      </trkpt>
      <trkpt lat="43.95845" lon="2.35293">
        <ele>389</ele>
        <time>2021-04-18T12:04:15Z</time>
      </trkpt>
      <trkpt lat="43.95844" lon="2.35293">
        <ele>389</ele>
        <time>2021-04-18T12:04:16Z</time>
      </trkpt>
      <trkpt lat="43.95842" lon="2.35294">
        <ele>390</ele>
        <time>2021-04-18T12:04:17Z</time>
      </trkpt>
      <trkpt lat="43.95842" lon="2.35295">
        <ele>390</ele>
        <time>2021-04-18T12:04:18Z</time>
      </trkpt>
      <trkpt lat="43.95842" lon="2.35297">
        <ele>390</ele>
        <time>2021-04-18T12:04:19Z</time>
      </trkpt>
      <trkpt lat="43.95841" lon="2.35298">
        <ele>390</ele>
        <time>2021-04-18T12:04:20Z</time>
      </trkpt>
      <trkpt lat="43.9584" lon="2.35298">
        <ele>391</ele>
        <time>2021-04-18T12:04:21Z</time>
      </trkpt>
      <trkpt lat="43.95839" lon="2.35299">
        <ele>390</ele>
        <time>2021-04-18T12:04:22Z</time>
      </trkpt>
      <trkpt lat="43.95839" lon="2.353">
        <ele>390</ele>
        <time>2021-04-18T12:04:23Z</time>
      </trkpt>
      <trkpt lat="43.95838" lon="2.35301">
        <ele>390</ele>
        <time>2021-04-18T12:04:24Z</time>
      </trkpt>
      <trkpt lat="43.95837" lon="2.35302">
        <ele>391</ele>
        <time>2021-04-18T12:04:25Z</time>
      </trkpt>
      <trkpt lat="43.95837" lon="2.35303">
        <ele>391</ele>
        <time>2021-04-18T12:04:26Z</time>
      </trkpt>
      <trkpt lat="43.95836" lon="2.35304">
        <ele>392</ele>
        <time>2021-04-18T12:04:27Z</time>
      </trkpt>
      <trkpt lat="43.95834" lon="2.35305">
        <ele>392</ele>
        <time>2021-04-18T12:04:28Z</time>
      </trkpt>
      <trkpt lat="43.95833" lon="2.35306">
        <ele>392</ele>
        <time>2021-04-18T12:04:29Z</time>
      </trkpt>
      <trkpt lat="43.95833" lon="2.35307">
        <ele>392</ele>
        <time>2021-04-18T12:04:30Z</time>
      </trkpt>
      <trkpt lat="43.95833" lon="2.35307">
        <ele>392</ele>
        <time>2021-04-18T12:04:31Z</time>
      </trkpt>
      <trkpt lat="43.95833" lon="2.35307">
        <ele>393</ele>
        <time>2021-04-18T12:04:32Z</time>
      </trkpt>
      <trkpt lat="43.95833" lon="2.35307">
        <ele>393</ele>
        <time>2021-04-18T12:04:33Z</time>
      </trkpt>
      <trkpt lat="43.95833" lon="2.35307">
        <ele>393</ele>
        <time>2021-04-18T12:04:33Z</time>
      </trkpt>
      <trkpt lat="43.95833" lon="2.35307">
        <ele>393</ele>
        <time>2021-04-18T12:04:33Z</time>
      </trkpt>
      <trkpt lat="43.95831" lon="2.35312">
        <ele>393</ele>
        <time>2021-04-18T12:04:43Z</time>
      </trkpt>
      <trkpt lat="43.95831" lon="2.35313">
        <ele>393</ele>
        <time>2021-04-18T12:04:44Z</time>
      </trkpt>
      <trkpt lat="43.95831" lon="2.35315">
        <ele>393</ele>
        <time>2021-04-18T12:04:45Z</time>
      </trkpt>
      <trkpt lat="43.9583" lon="2.35315">
        <ele>393</ele>
        <time>2021-04-18T12:04:46Z</time>
      </trkpt>
      <trkpt lat="43.95831" lon="2.35316">
        <ele>393</ele>
        <time>2021-04-18T12:04:47Z</time>
      </trkpt>
      <trkpt lat="43.95831" lon="2.35316">
        <ele>393</ele>
        <time>2021-04-18T12:04:48Z</time>
      </trkpt>
      <trkpt lat="43.95831" lon="2.35318">
        <ele>394</ele>
        <time>2021-04-18T12:04:49Z</time>
      </trkpt>
      <trkpt lat="43.9583" lon="2.3532">
        <ele>394</ele>
        <time>2021-04-18T12:04:50Z</time>
      </trkpt>
      <trkpt lat="43.9583" lon="2.3532">
        <ele>394</ele>
        <time>2021-04-18T12:04:51Z</time>
      </trkpt>
      <trkpt lat="43.95829" lon="2.35322">
        <ele>394</ele>
        <time>2021-04-18T12:04:52Z</time>
      </trkpt>
      <trkpt lat="43.95829" lon="2.35322">
        <ele>394</ele>
        <time>2021-04-18T12:04:53Z</time>
      </trkpt>
      <trkpt lat="43.95828" lon="2.35323">
        <ele>394</ele>
        <time>2021-04-18T12:04:54Z</time>
      </trkpt>
      <trkpt lat="43.95826" lon="2.35324">
        <ele>394</ele>
        <time>2021-04-18T12:04:55Z</time>
      </trkpt>
      <trkpt lat="43.95825" lon="2.35324">
        <ele>394</ele>
        <time>2021-04-18T12:04:56Z</time>
      </trkpt>
      <trkpt lat="43.95824" lon="2.35325">
        <ele>394</ele>
        <time>2021-04-18T12:04:57Z</time>
      </trkpt>
      <trkpt lat="43.95823" lon="2.35326">
        <ele>394</ele>
        <time>2021-04-18T12:04:58Z</time>
      </trkpt>
      <trkpt lat="43.95822" lon="2.35327">
        <ele>394</ele>
        <time>2021-04-18T12:04:59Z</time>
      </trkpt>
      <trkpt lat="43.95821" lon="2.35328">
        <ele>395</ele>
        <time>2021-04-18T12:05:00Z</time>
      </trkpt>
      <trkpt lat="43.9582" lon="2.3533">
        <ele>395</ele>
        <time>2021-04-18T12:05:01Z</time>
      </trkpt>
      <trkpt lat="43.9582" lon="2.35331">
        <ele>395</ele>
        <time>2021-04-18T12:05:02Z</time>
      </trkpt>
      <trkpt lat="43.95819" lon="2.35332">
        <ele>395</ele>
        <time>2021-04-18T12:05:03Z</time>
      </trkpt>
      <trkpt lat="43.95818" lon="2.35332">
        <ele>395</ele>
        <time>2021-04-18T12:05:04Z</time>
      </trkpt>
      <trkpt lat="43.95817" lon="2.35333">
        <ele>395</ele>
        <time>2021-04-18T12:05:05Z</time>
      </trkpt>
      <trkpt lat="43.95816" lon="2.35334">
        <ele>396</ele>
        <time>2021-04-18T12:05:06Z</time>
      </trkpt>
      <trkpt lat="43.95815" lon="2.35335">
        <ele>396</ele>
        <time>2021-04-18T12:05:07Z</time>
      </trkpt>
      <trkpt lat="43.95814" lon="2.35337">
        <ele>396</ele>
        <time>2021-04-18T12:05:08Z</time>
      </trkpt>
      <trkpt lat="43.95813" lon="2.35338">
        <ele>396</ele>
        <time>2021-04-18T12:05:09Z</time>
      </trkpt>
      <trkpt lat="43.95812" lon="2.35339">
        <ele>396</ele>
        <time>2021-04-18T12:05:10Z</time>
      </trkpt>
      <trkpt lat="43.95812" lon="2.3534">
        <ele>396</ele>
        <time>2021-04-18T12:05:11Z</time>
      </trkpt>
      <trkpt lat="43.95811" lon="2.35341">
        <ele>396</ele>
        <time>2021-04-18T12:05:12Z</time>
      </trkpt>
      <trkpt lat="43.9581" lon="2.35343">
        <ele>396</ele>
        <time>2021-04-18T12:05:13Z</time>
      </trkpt>
      <trkpt lat="43.9581" lon="2.35345">
        <ele>396</ele>
        <time>2021-04-18T12:05:14Z</time>
      </trkpt>
      <trkpt lat="43.9581" lon="2.35346">
        <ele>396</ele>
        <time>2021-04-18T12:05:15Z</time>
      </trkpt>
      <trkpt lat="43.9581" lon="2.35348">
        <ele>396</ele>
        <time>2021-04-18T12:05:16Z</time>
      </trkpt>
      <trkpt lat="43.95809" lon="2.3535">
        <ele>395</ele>
        <time>2021-04-18T12:05:17Z</time>
      </trkpt>
      <trkpt lat="43.9581" lon="2.35351">
        <ele>395</ele>
        <time>2021-04-18T12:05:18Z</time>
      </trkpt>
      <trkpt lat="43.95809" lon="2.35353">
        <ele>395</ele>
        <time>2021-04-18T12:05:19Z</time>
      </trkpt>
      <trkpt lat="43.95809" lon="2.35355">
        <ele>395</ele>
        <time>2021-04-18T12:05:20Z</time>
      </trkpt>
      <trkpt lat="43.9581" lon="2.35356">
        <ele>395</ele>
        <time>2021-04-18T12:05:21Z</time>
      </trkpt>
      <trkpt lat="43.95811" lon="2.35358">
        <ele>395</ele>
        <time>2021-04-18T12:05:22Z</time>
      </trkpt>
      <trkpt lat="43.95812" lon="2.3536">
        <ele>395</ele>
        <time>2021-04-18T12:05:23Z</time>
      </trkpt>
      <trkpt lat="43.95813" lon="2.35361">
        <ele>396</ele>
        <time>2021-04-18T12:05:24Z</time>
      </trkpt>
      <trkpt lat="43.95813" lon="2.35363">
        <ele>396</ele>
        <time>2021-04-18T12:05:25Z</time>
      </trkpt>
      <trkpt lat="43.95813" lon="2.35364">
        <ele>396</ele>
        <time>2021-04-18T12:05:26Z</time>
      </trkpt>
      <trkpt lat="43.95814" lon="2.35366">
        <ele>396</ele>
        <time>2021-04-18T12:05:27Z</time>
      </trkpt>
      <trkpt lat="43.95814" lon="2.35367">
        <ele>396</ele>
        <time>2021-04-18T12:05:28Z</time>
      </trkpt>
      <trkpt lat="43.95814" lon="2.35367">
        <ele>396</ele>
        <time>2021-04-18T12:05:29Z</time>
      </trkpt>
      <trkpt lat="43.95815" lon="2.3537">
        <ele>397</ele>
        <time>2021-04-18T12:05:30Z</time>
      </trkpt>
      <trkpt lat="43.95816" lon="2.35371">
        <ele>397</ele>
        <time>2021-04-18T12:05:31Z</time>
      </trkpt>
      <trkpt lat="43.95817" lon="2.35373">
        <ele>397</ele>
        <time>2021-04-18T12:05:32Z</time>
      </trkpt>
      <trkpt lat="43.95817" lon="2.35374">
        <ele>398</ele>
        <time>2021-04-18T12:05:33Z</time>
      </trkpt>
      <trkpt lat="43.95818" lon="2.35375">
        <ele>398</ele>
        <time>2021-04-18T12:05:34Z</time>
      </trkpt>
      <trkpt lat="43.95818" lon="2.35376">
        <ele>399</ele>
        <time>2021-04-18T12:05:35Z</time>
      </trkpt>
      <trkpt lat="43.95818" lon="2.35376">
        <ele>399</ele>
        <time>2021-04-18T12:05:36Z</time>
      </trkpt>
      <trkpt lat="43.9582" lon="2.35377">
        <ele>399</ele>
        <time>2021-04-18T12:05:37Z</time>
      </trkpt>
      <trkpt lat="43.95821" lon="2.35378">
        <ele>399</ele>
        <time>2021-04-18T12:05:38Z</time>
      </trkpt>
      <trkpt lat="43.95821" lon="2.35379">
        <ele>400</ele>
        <time>2021-04-18T12:05:39Z</time>
      </trkpt>
      <trkpt lat="43.95822" lon="2.3538">
        <ele>400</ele>
        <time>2021-04-18T12:05:40Z</time>
      </trkpt>
      <trkpt lat="43.95822" lon="2.35381">
        <ele>400</ele>
        <time>2021-04-18T12:05:41Z</time>
      </trkpt>
      <trkpt lat="43.95823" lon="2.35382">
        <ele>401</ele>
        <time>2021-04-18T12:05:42Z</time>
      </trkpt>
      <trkpt lat="43.95824" lon="2.35383">
        <ele>401</ele>
        <time>2021-04-18T12:05:43Z</time>
      </trkpt>
      <trkpt lat="43.95826" lon="2.35384">
        <ele>401</ele>
        <time>2021-04-18T12:05:44Z</time>
      </trkpt>
      <trkpt lat="43.95826" lon="2.35385">
        <ele>401</ele>
        <time>2021-04-18T12:05:45Z</time>
      </trkpt>
      <trkpt lat="43.95828" lon="2.35386">
        <ele>401</ele>
        <time>2021-04-18T12:05:46Z</time>
      </trkpt>
      <trkpt lat="43.95829" lon="2.35387">
        <ele>402</ele>
        <time>2021-04-18T12:05:47Z</time>
      </trkpt>
      <trkpt lat="43.95831" lon="2.35389">
        <ele>402</ele>
        <time>2021-04-18T12:05:48Z</time>
      </trkpt>
      <trkpt lat="43.95832" lon="2.35391">
        <ele>402</ele>
        <time>2021-04-18T12:05:49Z</time>
      </trkpt>
      <trkpt lat="43.95834" lon="2.35393">
        <ele>403</ele>
        <time>2021-04-18T12:05:50Z</time>
      </trkpt>
      <trkpt lat="43.95836" lon="2.35393">
        <ele>403</ele>
        <time>2021-04-18T12:05:51Z</time>
      </trkpt>
      <trkpt lat="43.95836" lon="2.35395">
        <ele>404</ele>
        <time>2021-04-18T12:05:52Z</time>
      </trkpt>
      <trkpt lat="43.95837" lon="2.35396">
        <ele>404</ele>
        <time>2021-04-18T12:05:53Z</time>
      </trkpt>
      <trkpt lat="43.95838" lon="2.35397">
        <ele>405</ele>
        <time>2021-04-18T12:05:54Z</time>
      </trkpt>
      <trkpt lat="43.95839" lon="2.35399">
        <ele>405</ele>
        <time>2021-04-18T12:05:55Z</time>
      </trkpt>
      <trkpt lat="43.95841" lon="2.354">
        <ele>405</ele>
        <time>2021-04-18T12:05:56Z</time>
      </trkpt>
      <trkpt lat="43.95842" lon="2.35402">
        <ele>405</ele>
        <time>2021-04-18T12:05:57Z</time>
      </trkpt>
      <trkpt lat="43.95843" lon="2.35403">
        <ele>406</ele>
        <time>2021-04-18T12:05:58Z</time>
      </trkpt>
      <trkpt lat="43.95844" lon="2.35404">
        <ele>406</ele>
        <time>2021-04-18T12:05:59Z</time>
      </trkpt>
      <trkpt lat="43.95845" lon="2.35404">
        <ele>406</ele>
        <time>2021-04-18T12:06:00Z</time>
      </trkpt>
      <trkpt lat="43.95847" lon="2.35405">
        <ele>407</ele>
        <time>2021-04-18T12:06:01Z</time>
      </trkpt>
      <trkpt lat="43.95849" lon="2.35407">
        <ele>407</ele>
        <time>2021-04-18T12:06:02Z</time>
      </trkpt>
      <trkpt lat="43.9585" lon="2.35408">
        <ele>407</ele>
        <time>2021-04-18T12:06:03Z</time>
      </trkpt>
      <trkpt lat="43.95851" lon="2.35409">
        <ele>407</ele>
        <time>2021-04-18T12:06:04Z</time>
      </trkpt>
      <trkpt lat="43.95852" lon="2.3541">
        <ele>409</ele>
        <time>2021-04-18T12:06:05Z</time>
      </trkpt>
      <trkpt lat="43.95853" lon="2.35412">
        <ele>408</ele>
        <time>2021-04-18T12:06:06Z</time>
      </trkpt>
      <trkpt lat="43.95854" lon="2.35413">
        <ele>409</ele>
        <time>2021-04-18T12:06:07Z</time>
      </trkpt>
      <trkpt lat="43.95855" lon="2.35414">
        <ele>409</ele>
        <time>2021-04-18T12:06:08Z</time>
      </trkpt>
      <trkpt lat="43.95856" lon="2.35415">
        <ele>409</ele>
        <time>2021-04-18T12:06:09Z</time>
      </trkpt>
      <trkpt lat="43.95857" lon="2.35416">
        <ele>409</ele>
        <time>2021-04-18T12:06:10Z</time>
      </trkpt>
      <trkpt lat="43.95857" lon="2.35417">
        <ele>408</ele>
        <time>2021-04-18T12:06:11Z</time>
      </trkpt>
      <trkpt lat="43.95858" lon="2.35418">
        <ele>408</ele>
        <time>2021-04-18T12:06:12Z</time>
      </trkpt>
      <trkpt lat="43.95858" lon="2.35419">
        <ele>408</ele>
        <time>2021-04-18T12:06:13Z</time>
      </trkpt>
      <trkpt lat="43.95858" lon="2.3542">
        <ele>408</ele>
        <time>2021-04-18T12:06:14Z</time>
      </trkpt>
      <trkpt lat="43.95859" lon="2.35421">
        <ele>408</ele>
        <time>2021-04-18T12:06:15Z</time>
      </trkpt>
      <trkpt lat="43.9586" lon="2.35423">
        <ele>408</ele>
        <time>2021-04-18T12:06:16Z</time>
      </trkpt>
      <trkpt lat="43.9586" lon="2.35425">
        <ele>408</ele>
        <time>2021-04-18T12:06:17Z</time>
      </trkpt>
      <trkpt lat="43.95861" lon="2.35426">
        <ele>409</ele>
        <time>2021-04-18T12:06:18Z</time>
      </trkpt>
      <trkpt lat="43.95861" lon="2.35427">
        <ele>409</ele>
        <time>2021-04-18T12:06:19Z</time>
      </trkpt>
      <trkpt lat="43.95862" lon="2.35428">
        <ele>410</ele>
        <time>2021-04-18T12:06:20Z</time>
      </trkpt>
      <trkpt lat="43.95862" lon="2.3543">
        <ele>410</ele>
        <time>2021-04-18T12:06:21Z</time>
      </trkpt>
      <trkpt lat="43.95863" lon="2.35431">
        <ele>410</ele>
        <time>2021-04-18T12:06:22Z</time>
      </trkpt>
      <trkpt lat="43.95863" lon="2.35432">
        <ele>411</ele>
        <time>2021-04-18T12:06:23Z</time>
      </trkpt>
      <trkpt lat="43.95863" lon="2.35434">
        <ele>411</ele>
        <time>2021-04-18T12:06:24Z</time>
      </trkpt>
      <trkpt lat="43.95863" lon="2.35434">
        <ele>411</ele>
        <time>2021-04-18T12:06:25Z</time>
      </trkpt>
      <trkpt lat="43.95863" lon="2.35436">
        <ele>411</ele>
        <time>2021-04-18T12:06:26Z</time>
      </trkpt>
      <trkpt lat="43.95863" lon="2.35437">
        <ele>411</ele>
        <time>2021-04-18T12:06:27Z</time>
      </trkpt>
      <trkpt lat="43.95863" lon="2.35438">
        <ele>411</ele>
        <time>2021-04-18T12:06:28Z</time>
      </trkpt>
      <trkpt lat="43.95862" lon="2.3544">
        <ele>411</ele>
        <time>2021-04-18T12:06:29Z</time>
      </trkpt>
      <trkpt lat="43.95862" lon="2.35441">
        <ele>411</ele>
        <time>2021-04-18T12:06:30Z</time>
      </trkpt>
      <trkpt lat="43.95862" lon="2.35443">
        <ele>411</ele>
        <time>2021-04-18T12:06:31Z</time>
      </trkpt>
      <trkpt lat="43.95862" lon="2.35445">
        <ele>411</ele>
        <time>2021-04-18T12:06:32Z</time>
      </trkpt>
      <trkpt lat="43.95862" lon="2.35447">
        <ele>411</ele>
        <time>2021-04-18T12:06:33Z</time>
      </trkpt>
      <trkpt lat="43.95861" lon="2.35448">
        <ele>411</ele>
        <time>2021-04-18T12:06:34Z</time>
      </trkpt>
      <trkpt lat="43.95861" lon="2.3545">
        <ele>411</ele>
        <time>2021-04-18T12:06:35Z</time>
      </trkpt>
      <trkpt lat="43.95861" lon="2.35451">
        <ele>412</ele>
        <time>2021-04-18T12:06:36Z</time>
      </trkpt>
      <trkpt lat="43.95861" lon="2.35452">
        <ele>412</ele>
        <time>2021-04-18T12:06:37Z</time>
      </trkpt>
      <trkpt lat="43.9586" lon="2.35453">
        <ele>412</ele>
        <time>2021-04-18T12:06:38Z</time>
      </trkpt>
      <trkpt lat="43.9586" lon="2.35455">
        <ele>412</ele>
        <time>2021-04-18T12:06:39Z</time>
      </trkpt>
      <trkpt lat="43.95859" lon="2.35456">
        <ele>413</ele>
        <time>2021-04-18T12:06:40Z</time>
      </trkpt>
      <trkpt lat="43.95858" lon="2.35457">
        <ele>412</ele>
        <time>2021-04-18T12:06:41Z</time>
      </trkpt>
      <trkpt lat="43.95858" lon="2.35459">
        <ele>412</ele>
        <time>2021-04-18T12:06:42Z</time>
      </trkpt>
      <trkpt lat="43.95857" lon="2.3546">
        <ele>412</ele>
        <time>2021-04-18T12:06:43Z</time>
      </trkpt>
      <trkpt lat="43.95857" lon="2.35461">
        <ele>412</ele>
        <time>2021-04-18T12:06:44Z</time>
      </trkpt>
      <trkpt lat="43.95856" lon="2.35463">
        <ele>412</ele>
        <time>2021-04-18T12:06:45Z</time>
      </trkpt>
      <trkpt lat="43.95855" lon="2.35464">
        <ele>413</ele>
        <time>2021-04-18T12:06:46Z</time>
      </trkpt>
      <trkpt lat="43.95855" lon="2.35466">
        <ele>412</ele>
        <time>2021-04-18T12:06:47Z</time>
      </trkpt>
      <trkpt lat="43.95855" lon="2.35467">
        <ele>412</ele>
        <time>2021-04-18T12:06:48Z</time>
      </trkpt>
      <trkpt lat="43.95854" lon="2.35469">
        <ele>412</ele>
        <time>2021-04-18T12:06:49Z</time>
      </trkpt>
      <trkpt lat="43.95853" lon="2.3547">
        <ele>412</ele>
        <time>2021-04-18T12:06:50Z</time>
      </trkpt>
      <trkpt lat="43.95853" lon="2.35472">
        <ele>412</ele>
        <time>2021-04-18T12:06:51Z</time>
      </trkpt>
      <trkpt lat="43.95852" lon="2.35473">
        <ele>412</ele>
        <time>2021-04-18T12:06:52Z</time>
      </trkpt>
      <trkpt lat="43.95852" lon="2.35474">
        <ele>412</ele>
        <time>2021-04-18T12:06:53Z</time>
      </trkpt>
      <trkpt lat="43.95852" lon="2.35475">
        <ele>413</ele>
        <time>2021-04-18T12:06:54Z</time>
      </trkpt>
      <trkpt lat="43.95851" lon="2.35477">
        <ele>412</ele>
        <time>2021-04-18T12:06:55Z</time>
      </trkpt>
      <trkpt lat="43.95852" lon="2.3548">
        <ele>412</ele>
        <time>2021-04-18T12:06:56Z</time>
      </trkpt>
      <trkpt lat="43.95851" lon="2.35481">
        <ele>412</ele>
        <time>2021-04-18T12:06:57Z</time>
      </trkpt>
      <trkpt lat="43.95851" lon="2.35482">
        <ele>412</ele>
        <time>2021-04-18T12:06:58Z</time>
      </trkpt>
      <trkpt lat="43.9585" lon="2.35484">
        <ele>412</ele>
        <time>2021-04-18T12:06:59Z</time>
      </trkpt>
      <trkpt lat="43.95849" lon="2.35485">
        <ele>412</ele>
        <time>2021-04-18T12:07:00Z</time>
      </trkpt>
      <trkpt lat="43.95849" lon="2.35486">
        <ele>412</ele>
        <time>2021-04-18T12:07:01Z</time>
      </trkpt>
      <trkpt lat="43.95849" lon="2.35487">
        <ele>412</ele>
        <time>2021-04-18T12:07:02Z</time>
      </trkpt>
      <trkpt lat="43.95849" lon="2.35487">
        <ele>412</ele>
        <time>2021-04-18T12:07:03Z</time>
      </trkpt>
      <trkpt lat="43.95848" lon="2.35487">
        <ele>412</ele>
        <time>2021-04-18T12:07:04Z</time>
      </trkpt>
      <trkpt lat="43.95848" lon="2.35489">
        <ele>412</ele>
        <time>2021-04-18T12:07:05Z</time>
      </trkpt>
      <trkpt lat="43.95848" lon="2.35489">
        <ele>412</ele>
        <time>2021-04-18T12:07:06Z</time>
      </trkpt>
      <trkpt lat="43.95847" lon="2.3549">
        <ele>413</ele>
        <time>2021-04-18T12:07:07Z</time>
      </trkpt>
      <trkpt lat="43.95846" lon="2.3549">
        <ele>414</ele>
        <time>2021-04-18T12:07:08Z</time>
      </trkpt>
      <trkpt lat="43.95845" lon="2.3549">
        <ele>413</ele>
        <time>2021-04-18T12:07:09Z</time>
      </trkpt>
      <trkpt lat="43.95844" lon="2.35491">
        <ele>413</ele>
        <time>2021-04-18T12:07:10Z</time>
      </trkpt>
      <trkpt lat="43.95844" lon="2.35492">
        <ele>413</ele>
        <time>2021-04-18T12:07:11Z</time>
      </trkpt>
      <trkpt lat="43.95843" lon="2.35492">
        <ele>414</ele>
        <time>2021-04-18T12:07:12Z</time>
      </trkpt>
      <trkpt lat="43.95842" lon="2.35493">
        <ele>414</ele>
        <time>2021-04-18T12:07:13Z</time>
      </trkpt>
      <trkpt lat="43.95841" lon="2.35494">
        <ele>415</ele>
        <time>2021-04-18T12:07:14Z</time>
      </trkpt>
      <trkpt lat="43.9584" lon="2.35495">
        <ele>415</ele>
        <time>2021-04-18T12:07:15Z</time>
      </trkpt>
      <trkpt lat="43.95839" lon="2.35495">
        <ele>416</ele>
        <time>2021-04-18T12:07:16Z</time>
      </trkpt>
      <trkpt lat="43.95838" lon="2.35496">
        <ele>416</ele>
        <time>2021-04-18T12:07:17Z</time>
      </trkpt>
      <trkpt lat="43.95837" lon="2.35496">
        <ele>416</ele>
        <time>2021-04-18T12:07:18Z</time>
      </trkpt>
      <trkpt lat="43.95837" lon="2.35496">
        <ele>417</ele>
        <time>2021-04-18T12:07:19Z</time>
      </trkpt>
      <trkpt lat="43.95836" lon="2.35497">
        <ele>417</ele>
        <time>2021-04-18T12:07:20Z</time>
      </trkpt>
      <trkpt lat="43.95835" lon="2.35497">
        <ele>418</ele>
        <time>2021-04-18T12:07:21Z</time>
      </trkpt>
      <trkpt lat="43.95835" lon="2.35497">
        <ele>418</ele>
        <time>2021-04-18T12:07:22Z</time>
      </trkpt>
      <trkpt lat="43.95834" lon="2.35498">
        <ele>417</ele>
        <time>2021-04-18T12:07:23Z</time>
      </trkpt>
      <trkpt lat="43.95834" lon="2.35498">
        <ele>418</ele>
        <time>2021-04-18T12:07:24Z</time>
      </trkpt>
      <trkpt lat="43.95834" lon="2.35498">
        <ele>418</ele>
        <time>2021-04-18T12:07:25Z</time>
      </trkpt>
      <trkpt lat="43.95833" lon="2.35499">
        <ele>419</ele>
        <time>2021-04-18T12:07:26Z</time>
      </trkpt>
      <trkpt lat="43.95832" lon="2.35499">
        <ele>419</ele>
        <time>2021-04-18T12:07:27Z</time>
      </trkpt>
      <trkpt lat="43.95831" lon="2.35498">
        <ele>419</ele>
        <time>2021-04-18T12:07:28Z</time>
      </trkpt>
      <trkpt lat="43.95829" lon="2.35498">
        <ele>419</ele>
        <time>2021-04-18T12:07:29Z</time>
      </trkpt>
      <trkpt lat="43.95829" lon="2.35499">
        <ele>419</ele>
        <time>2021-04-18T12:07:30Z</time>
      </trkpt>
      <trkpt lat="43.95828" lon="2.35499">
        <ele>419</ele>
        <time>2021-04-18T12:07:31Z</time>
      </trkpt>
      <trkpt lat="43.95827" lon="2.35499">
        <ele>420</ele>
        <time>2021-04-18T12:07:32Z</time>
      </trkpt>
      <trkpt lat="43.95826" lon="2.35499">
        <ele>420</ele>
        <time>2021-04-18T12:07:33Z</time>
      </trkpt>
      <trkpt lat="43.95824" lon="2.35499">
        <ele>421</ele>
        <time>2021-04-18T12:07:34Z</time>
      </trkpt>
      <trkpt lat="43.95823" lon="2.35499">
        <ele>422</ele>
        <time>2021-04-18T12:07:35Z</time>
      </trkpt>
      <trkpt lat="43.95821" lon="2.35499">
        <ele>422</ele>
        <time>2021-04-18T12:07:36Z</time>
      </trkpt>
      <trkpt lat="43.9582" lon="2.35499">
        <ele>422</ele>
        <time>2021-04-18T12:07:37Z</time>
      </trkpt>
      <trkpt lat="43.9582" lon="2.35499">
        <ele>423</ele>
        <time>2021-04-18T12:07:38Z</time>
      </trkpt>
      <trkpt lat="43.95819" lon="2.35499">
        <ele>423</ele>
        <time>2021-04-18T12:07:39Z</time>
      </trkpt>
      <trkpt lat="43.95818" lon="2.35499">
        <ele>423</ele>
        <time>2021-04-18T12:07:40Z</time>
      </trkpt>
      <trkpt lat="43.95817" lon="2.35499">
        <ele>424</ele>
        <time>2021-04-18T12:07:41Z</time>
      </trkpt>
      <trkpt lat="43.95816" lon="2.35498">
        <ele>424</ele>
        <time>2021-04-18T12:07:42Z</time>
      </trkpt>
      <trkpt lat="43.95815" lon="2.35498">
        <ele>425</ele>
        <time>2021-04-18T12:07:43Z</time>
      </trkpt>
      <trkpt lat="43.95814" lon="2.35497">
        <ele>425</ele>
        <time>2021-04-18T12:07:44Z</time>
      </trkpt>
      <trkpt lat="43.95813" lon="2.35497">
        <ele>425</ele>
        <time>2021-04-18T12:07:45Z</time>
      </trkpt>
      <trkpt lat="43.95813" lon="2.35496">
        <ele>425</ele>
        <time>2021-04-18T12:07:46Z</time>
      </trkpt>
      <trkpt lat="43.95812" lon="2.35496">
        <ele>425</ele>
        <time>2021-04-18T12:07:47Z</time>
      </trkpt>
      <trkpt lat="43.95812" lon="2.35496">
        <ele>425</ele>
        <time>2021-04-18T12:07:48Z</time>
      </trkpt>
      <trkpt lat="43.95812" lon="2.35496">
        <ele>425</ele>
        <time>2021-04-18T12:07:49Z</time>
      </trkpt>
      <trkpt lat="43.95812" lon="2.35496">
        <ele>425</ele>
        <time>2021-04-18T12:07:49Z</time>
      </trkpt>
      <trkpt lat="43.95812" lon="2.35496">
        <ele>425</ele>
        <time>2021-04-18T12:07:49Z</time>
      </trkpt>
      <trkpt lat="43.95806" lon="2.35492">
        <ele>427</ele>
        <time>2021-04-18T12:08:06Z</time>
      </trkpt>
      <trkpt lat="43.95805" lon="2.35492">
        <ele>427</ele>
        <time>2021-04-18T12:08:07Z</time>
      </trkpt>
      <trkpt lat="43.95805" lon="2.35491">
        <ele>427</ele>
        <time>2021-04-18T12:08:08Z</time>
      </trkpt>
      <trkpt lat="43.95804" lon="2.35491">
        <ele>427</ele>
        <time>2021-04-18T12:08:09Z</time>
      </trkpt>
      <trkpt lat="43.95804" lon="2.35491">
        <ele>427</ele>
        <time>2021-04-18T12:08:10Z</time>
      </trkpt>
      <trkpt lat="43.95804" lon="2.35491">
        <ele>427</ele>
        <time>2021-04-18T12:08:11Z</time>
      </trkpt>
      <trkpt lat="43.95803" lon="2.35489">
        <ele>427</ele>
        <time>2021-04-18T12:08:12Z</time>
      </trkpt>
      <trkpt lat="43.95802" lon="2.35488">
        <ele>428</ele>
        <time>2021-04-18T12:08:13Z</time>
      </trkpt>
      <trkpt lat="43.95801" lon="2.35488">
        <ele>428</ele>
        <time>2021-04-18T12:08:14Z</time>
      </trkpt>
      <trkpt lat="43.958" lon="2.35486">
        <ele>428</ele>
        <time>2021-04-18T12:08:15Z</time>
      </trkpt>
      <trkpt lat="43.95799" lon="2.35486">
        <ele>428</ele>
        <time>2021-04-18T12:08:16Z</time>
      </trkpt>
      <trkpt lat="43.95799" lon="2.35485">
        <ele>428</ele>
        <time>2021-04-18T12:08:17Z</time>
      </trkpt>
      <trkpt lat="43.95797" lon="2.35484">
        <ele>428</ele>
        <time>2021-04-18T12:08:18Z</time>
      </trkpt>
      <trkpt lat="43.95796" lon="2.35483">
        <ele>428</ele>
        <time>2021-04-18T12:08:19Z</time>
      </trkpt>
      <trkpt lat="43.95795" lon="2.35482">
        <ele>427</ele>
        <time>2021-04-18T12:08:20Z</time>
      </trkpt>
      <trkpt lat="43.95793" lon="2.35481">
        <ele>428</ele>
        <time>2021-04-18T12:08:21Z</time>
      </trkpt>
      <trkpt lat="43.95792" lon="2.3548">
        <ele>428</ele>
        <time>2021-04-18T12:08:22Z</time>
      </trkpt>
      <trkpt lat="43.9579" lon="2.35479">
        <ele>428</ele>
        <time>2021-04-18T12:08:23Z</time>
      </trkpt>
      <trkpt lat="43.95789" lon="2.35478">
        <ele>429</ele>
        <time>2021-04-18T12:08:24Z</time>
      </trkpt>
      <trkpt lat="43.95787" lon="2.35477">
        <ele>430</ele>
        <time>2021-04-18T12:08:25Z</time>
      </trkpt>
      <trkpt lat="43.95785" lon="2.35476">
        <ele>431</ele>
        <time>2021-04-18T12:08:26Z</time>
      </trkpt>
      <trkpt lat="43.95784" lon="2.35475">
        <ele>431</ele>
        <time>2021-04-18T12:08:27Z</time>
      </trkpt>
      <trkpt lat="43.95783" lon="2.35474">
        <ele>431</ele>
        <time>2021-04-18T12:08:28Z</time>
      </trkpt>
      <trkpt lat="43.95782" lon="2.35473">
        <ele>431</ele>
        <time>2021-04-18T12:08:29Z</time>
      </trkpt>
      <trkpt lat="43.95781" lon="2.35473">
        <ele>430</ele>
        <time>2021-04-18T12:08:30Z</time>
      </trkpt>
      <trkpt lat="43.95779" lon="2.35472">
        <ele>430</ele>
        <time>2021-04-18T12:08:31Z</time>
      </trkpt>
      <trkpt lat="43.95779" lon="2.35472">
        <ele>430</ele>
        <time>2021-04-18T12:08:32Z</time>
      </trkpt>
      <trkpt lat="43.95779" lon="2.35472">
        <ele>430</ele>
        <time>2021-04-18T12:08:33Z</time>
      </trkpt>
      <trkpt lat="43.95778" lon="2.35471">
        <ele>430</ele>
        <time>2021-04-18T12:08:34Z</time>
      </trkpt>
      <trkpt lat="43.95776" lon="2.35471">
        <ele>430</ele>
        <time>2021-04-18T12:08:35Z</time>
      </trkpt>
      <trkpt lat="43.95775" lon="2.35469">
        <ele>430</ele>
        <time>2021-04-18T12:08:36Z</time>
      </trkpt>
      <trkpt lat="43.95774" lon="2.35468">
        <ele>430</ele>
        <time>2021-04-18T12:08:37Z</time>
      </trkpt>
      <trkpt lat="43.95773" lon="2.35467">
        <ele>431</ele>
        <time>2021-04-18T12:08:38Z</time>
      </trkpt>
      <trkpt lat="43.95772" lon="2.35466">
        <ele>431</ele>
        <time>2021-04-18T12:08:39Z</time>
      </trkpt>
      <trkpt lat="43.95769" lon="2.35464">
        <ele>430</ele>
        <time>2021-04-18T12:08:40Z</time>
      </trkpt>
      <trkpt lat="43.95769" lon="2.35464">
        <ele>430</ele>
        <time>2021-04-18T12:08:40Z</time>
      </trkpt>
      <trkpt lat="43.95768" lon="2.35464">
        <ele>430</ele>
        <time>2021-04-18T12:08:42Z</time>
      </trkpt>
      <trkpt lat="43.95766" lon="2.35463">
        <ele>430</ele>
        <time>2021-04-18T12:08:43Z</time>
      </trkpt>
      <trkpt lat="43.95765" lon="2.35462">
        <ele>430</ele>
        <time>2021-04-18T12:08:44Z</time>
      </trkpt>
      <trkpt lat="43.95764" lon="2.35461">
        <ele>430</ele>
        <time>2021-04-18T12:08:45Z</time>
      </trkpt>
      <trkpt lat="43.95763" lon="2.35459">
        <ele>430</ele>
        <time>2021-04-18T12:08:46Z</time>
      </trkpt>
      <trkpt lat="43.95762" lon="2.35459">
        <ele>431</ele>
        <time>2021-04-18T12:08:47Z</time>
      </trkpt>
      <trkpt lat="43.95761" lon="2.35458">
        <ele>431</ele>
        <time>2021-04-18T12:08:48Z</time>
      </trkpt>
      <trkpt lat="43.9576" lon="2.35457">
        <ele>432</ele>
        <time>2021-04-18T12:08:49Z</time>
      </trkpt>
      <trkpt lat="43.95759" lon="2.35457">
        <ele>432</ele>
        <time>2021-04-18T12:08:50Z</time>
      </trkpt>
      <trkpt lat="43.95757" lon="2.35455">
        <ele>432</ele>
        <time>2021-04-18T12:08:51Z</time>
      </trkpt>
      <trkpt lat="43.95757" lon="2.35455">
        <ele>432</ele>
        <time>2021-04-18T12:08:51Z</time>
      </trkpt>
      <trkpt lat="43.95757" lon="2.35455">
        <ele>432</ele>
        <time>2021-04-18T12:08:53Z</time>
      </trkpt>
      <trkpt lat="43.95756" lon="2.35455">
        <ele>432</ele>
        <time>2021-04-18T12:08:54Z</time>
      </trkpt>
      <trkpt lat="43.95755" lon="2.35454">
        <ele>433</ele>
        <time>2021-04-18T12:08:55Z</time>
      </trkpt>
      <trkpt lat="43.95754" lon="2.35454">
        <ele>433</ele>
        <time>2021-04-18T12:08:56Z</time>
      </trkpt>
      <trkpt lat="43.95754" lon="2.35453">
        <ele>433</ele>
        <time>2021-04-18T12:08:57Z</time>
      </trkpt>
      <trkpt lat="43.95754" lon="2.35452">
        <ele>433</ele>
        <time>2021-04-18T12:08:58Z</time>
      </trkpt>
      <trkpt lat="43.95753" lon="2.35452">
        <ele>434</ele>
        <time>2021-04-18T12:08:59Z</time>
      </trkpt>
      <trkpt lat="43.95752" lon="2.3545">
        <ele>435</ele>
        <time>2021-04-18T12:09:00Z</time>
      </trkpt>
      <trkpt lat="43.95752" lon="2.3545">
        <ele>435</ele>
        <time>2021-04-18T12:09:00Z</time>
      </trkpt>
      <trkpt lat="43.95752" lon="2.3545">
        <ele>435</ele>
        <time>2021-04-18T12:09:02Z</time>
      </trkpt>
      <trkpt lat="43.95751" lon="2.35449">
        <ele>435</ele>
        <time>2021-04-18T12:09:03Z</time>
      </trkpt>
      <trkpt lat="43.9575" lon="2.35449">
        <ele>436</ele>
        <time>2021-04-18T12:09:04Z</time>
      </trkpt>
      <trkpt lat="43.95749" lon="2.35447">
        <ele>435</ele>
        <time>2021-04-18T12:09:05Z</time>
      </trkpt>
      <trkpt lat="43.95748" lon="2.35446">
        <ele>436</ele>
        <time>2021-04-18T12:09:06Z</time>
      </trkpt>
      <trkpt lat="43.95747" lon="2.35445">
        <ele>436</ele>
        <time>2021-04-18T12:09:07Z</time>
      </trkpt>
      <trkpt lat="43.95747" lon="2.35444">
        <ele>436</ele>
        <time>2021-04-18T12:09:08Z</time>
      </trkpt>
      <trkpt lat="43.95746" lon="2.35444">
        <ele>436</ele>
        <time>2021-04-18T12:09:09Z</time>
      </trkpt>
      <trkpt lat="43.95745" lon="2.35443">
        <ele>436</ele>
        <time>2021-04-18T12:09:10Z</time>
      </trkpt>
      <trkpt lat="43.95744" lon="2.35442">
        <ele>436</ele>
        <time>2021-04-18T12:09:11Z</time>
      </trkpt>
      <trkpt lat="43.95743" lon="2.35441">
        <ele>436</ele>
        <time>2021-04-18T12:09:12Z</time>
      </trkpt>
      <trkpt lat="43.95742" lon="2.3544">
        <ele>436</ele>
        <time>2021-04-18T12:09:13Z</time>
      </trkpt>
      <trkpt lat="43.95741" lon="2.35439">
        <ele>436</ele>
        <time>2021-04-18T12:09:14Z</time>
      </trkpt>
      <trkpt lat="43.9574" lon="2.35438">
        <ele>435</ele>
        <time>2021-04-18T12:09:15Z</time>
      </trkpt>
      <trkpt lat="43.95739" lon="2.35437">
        <ele>436</ele>
        <time>2021-04-18T12:09:16Z</time>
      </trkpt>
      <trkpt lat="43.95739" lon="2.35437">
        <ele>436</ele>
        <time>2021-04-18T12:09:17Z</time>
      </trkpt>
      <trkpt lat="43.95738" lon="2.35436">
        <ele>436</ele>
        <time>2021-04-18T12:09:18Z</time>
      </trkpt>
      <trkpt lat="43.95738" lon="2.35435">
        <ele>436</ele>
        <time>2021-04-18T12:09:19Z</time>
      </trkpt>
      <trkpt lat="43.95736" lon="2.35434">
        <ele>436</ele>
        <time>2021-04-18T12:09:20Z</time>
      </trkpt>
      <trkpt lat="43.95736" lon="2.35433">
        <ele>436</ele>
        <time>2021-04-18T12:09:21Z</time>
      </trkpt>
      <trkpt lat="43.95733" lon="2.35433">
        <ele>437</ele>
        <time>2021-04-18T12:09:22Z</time>
      </trkpt>
      <trkpt lat="43.95732" lon="2.35431">
        <ele>436</ele>
        <time>2021-04-18T12:09:23Z</time>
      </trkpt>
      <trkpt lat="43.95731" lon="2.35431">
        <ele>437</ele>
        <time>2021-04-18T12:09:24Z</time>
      </trkpt>
      <trkpt lat="43.95731" lon="2.35431">
        <ele>437</ele>
        <time>2021-04-18T12:09:25Z</time>
      </trkpt>
      <trkpt lat="43.95731" lon="2.3543">
        <ele>437</ele>
        <time>2021-04-18T12:09:26Z</time>
      </trkpt>
      <trkpt lat="43.9573" lon="2.35429">
        <ele>436</ele>
        <time>2021-04-18T12:09:27Z</time>
      </trkpt>
      <trkpt lat="43.95729" lon="2.35429">
        <ele>437</ele>
        <time>2021-04-18T12:09:28Z</time>
      </trkpt>
      <trkpt lat="43.95728" lon="2.35428">
        <ele>438</ele>
        <time>2021-04-18T12:09:29Z</time>
      </trkpt>
      <trkpt lat="43.95727" lon="2.35427">
        <ele>438</ele>
        <time>2021-04-18T12:09:30Z</time>
      </trkpt>
      <trkpt lat="43.95726" lon="2.35426">
        <ele>439</ele>
        <time>2021-04-18T12:09:31Z</time>
      </trkpt>
      <trkpt lat="43.95725" lon="2.35425">
        <ele>440</ele>
        <time>2021-04-18T12:09:32Z</time>
      </trkpt>
      <trkpt lat="43.95725" lon="2.35424">
        <ele>440</ele>
        <time>2021-04-18T12:09:33Z</time>
      </trkpt>
      <trkpt lat="43.95724" lon="2.35423">
        <ele>440</ele>
        <time>2021-04-18T12:09:34Z</time>
      </trkpt>
      <trkpt lat="43.95724" lon="2.35422">
        <ele>440</ele>
        <time>2021-04-18T12:09:35Z</time>
      </trkpt>
      <trkpt lat="43.95723" lon="2.35422">
        <ele>440</ele>
        <time>2021-04-18T12:09:36Z</time>
      </trkpt>
      <trkpt lat="43.95723" lon="2.35421">
        <ele>441</ele>
        <time>2021-04-18T12:09:37Z</time>
      </trkpt>
      <trkpt lat="43.95722" lon="2.35421">
        <ele>442</ele>
        <time>2021-04-18T12:09:38Z</time>
      </trkpt>
      <trkpt lat="43.95721" lon="2.35421">
        <ele>442</ele>
        <time>2021-04-18T12:09:39Z</time>
      </trkpt>
      <trkpt lat="43.9572" lon="2.35422">
        <ele>441</ele>
        <time>2021-04-18T12:09:40Z</time>
      </trkpt>
      <trkpt lat="43.95719" lon="2.35422">
        <ele>441</ele>
        <time>2021-04-18T12:09:41Z</time>
      </trkpt>
      <trkpt lat="43.95718" lon="2.35423">
        <ele>441</ele>
        <time>2021-04-18T12:09:42Z</time>
      </trkpt>
      <trkpt lat="43.95718" lon="2.35423">
        <ele>442</ele>
        <time>2021-04-18T12:09:43Z</time>
      </trkpt>
      <trkpt lat="43.95717" lon="2.35423">
        <ele>442</ele>
        <time>2021-04-18T12:09:44Z</time>
      </trkpt>
      <trkpt lat="43.95717" lon="2.35423">
        <ele>442</ele>
        <time>2021-04-18T12:09:45Z</time>
      </trkpt>
      <trkpt lat="43.95717" lon="2.35423">
        <ele>442</ele>
        <time>2021-04-18T12:09:46Z</time>
      </trkpt>
      <trkpt lat="43.95715" lon="2.35424">
        <ele>443</ele>
        <time>2021-04-18T12:09:47Z</time>
      </trkpt>
      <trkpt lat="43.95714" lon="2.35424">
        <ele>443</ele>
        <time>2021-04-18T12:09:48Z</time>
      </trkpt>
      <trkpt lat="43.95713" lon="2.35426">
        <ele>442</ele>
        <time>2021-04-18T12:09:49Z</time>
      </trkpt>
      <trkpt lat="43.95713" lon="2.35427">
        <ele>442</ele>
        <time>2021-04-18T12:09:50Z</time>
      </trkpt>
      <trkpt lat="43.95712" lon="2.35428">
        <ele>441</ele>
        <time>2021-04-18T12:09:51Z</time>
      </trkpt>
      <trkpt lat="43.95712" lon="2.35429">
        <ele>441</ele>
        <time>2021-04-18T12:09:52Z</time>
      </trkpt>
      <trkpt lat="43.95711" lon="2.35429">
        <ele>441</ele>
        <time>2021-04-18T12:09:53Z</time>
      </trkpt>
      <trkpt lat="43.9571" lon="2.3543">
        <ele>441</ele>
        <time>2021-04-18T12:09:54Z</time>
      </trkpt>
      <trkpt lat="43.9571" lon="2.35431">
        <ele>441</ele>
        <time>2021-04-18T12:09:55Z</time>
      </trkpt>
      <trkpt lat="43.95709" lon="2.35432">
        <ele>442</ele>
        <time>2021-04-18T12:09:56Z</time>
      </trkpt>
      <trkpt lat="43.95708" lon="2.35432">
        <ele>441</ele>
        <time>2021-04-18T12:09:57Z</time>
      </trkpt>
      <trkpt lat="43.95707" lon="2.35433">
        <ele>440</ele>
        <time>2021-04-18T12:09:58Z</time>
      </trkpt>
      <trkpt lat="43.95705" lon="2.35433">
        <ele>439</ele>
        <time>2021-04-18T12:09:59Z</time>
      </trkpt>
      <trkpt lat="43.95705" lon="2.35433">
        <ele>439</ele>
        <time>2021-04-18T12:10:00Z</time>
      </trkpt>
      <trkpt lat="43.95704" lon="2.35434">
        <ele>438</ele>
        <time>2021-04-18T12:10:01Z</time>
      </trkpt>
      <trkpt lat="43.95703" lon="2.35433">
        <ele>438</ele>
        <time>2021-04-18T12:10:02Z</time>
      </trkpt>
      <trkpt lat="43.95703" lon="2.35433">
        <ele>439</ele>
        <time>2021-04-18T12:10:03Z</time>
      </trkpt>
      <trkpt lat="43.95702" lon="2.35433">
        <ele>439</ele>
        <time>2021-04-18T12:10:04Z</time>
      </trkpt>
      <trkpt lat="43.95701" lon="2.35434">
        <ele>439</ele>
        <time>2021-04-18T12:10:05Z</time>
      </trkpt>
      <trkpt lat="43.957" lon="2.35434">
        <ele>440</ele>
        <time>2021-04-18T12:10:06Z</time>
      </trkpt>
      <trkpt lat="43.957" lon="2.35435">
        <ele>440</ele>
        <time>2021-04-18T12:10:07Z</time>
      </trkpt>
      <trkpt lat="43.95699" lon="2.35434">
        <ele>441</ele>
        <time>2021-04-18T12:10:08Z</time>
      </trkpt>
      <trkpt lat="43.95699" lon="2.35436">
        <ele>441</ele>
        <time>2021-04-18T12:10:09Z</time>
      </trkpt>
      <trkpt lat="43.95699" lon="2.35436">
        <ele>441</ele>
        <time>2021-04-18T12:10:10Z</time>
      </trkpt>
      <trkpt lat="43.95698" lon="2.35437">
        <ele>442</ele>
        <time>2021-04-18T12:10:11Z</time>
      </trkpt>
      <trkpt lat="43.95697" lon="2.35439">
        <ele>442</ele>
        <time>2021-04-18T12:10:12Z</time>
      </trkpt>
      <trkpt lat="43.95696" lon="2.3544">
        <ele>442</ele>
        <time>2021-04-18T12:10:13Z</time>
      </trkpt>
      <trkpt lat="43.95695" lon="2.35441">
        <ele>442</ele>
        <time>2021-04-18T12:10:14Z</time>
      </trkpt>
      <trkpt lat="43.95694" lon="2.35442">
        <ele>443</ele>
        <time>2021-04-18T12:10:15Z</time>
      </trkpt>
      <trkpt lat="43.95693" lon="2.35444">
        <ele>443</ele>
        <time>2021-04-18T12:10:16Z</time>
      </trkpt>
      <trkpt lat="43.95693" lon="2.35444">
        <ele>443</ele>
        <time>2021-04-18T12:10:16Z</time>
      </trkpt>
      <trkpt lat="43.9569" lon="2.35445">
        <ele>444</ele>
        <time>2021-04-18T12:10:18Z</time>
      </trkpt>
      <trkpt lat="43.95689" lon="2.35446">
        <ele>445</ele>
        <time>2021-04-18T12:10:19Z</time>
      </trkpt>
      <trkpt lat="43.95688" lon="2.35447">
        <ele>445</ele>
        <time>2021-04-18T12:10:20Z</time>
      </trkpt>
      <trkpt lat="43.95687" lon="2.35448">
        <ele>446</ele>
        <time>2021-04-18T12:10:21Z</time>
      </trkpt>
      <trkpt lat="43.95686" lon="2.3545">
        <ele>445</ele>
        <time>2021-04-18T12:10:22Z</time>
      </trkpt>
      <trkpt lat="43.95686" lon="2.35451">
        <ele>446</ele>
        <time>2021-04-18T12:10:23Z</time>
      </trkpt>
      <trkpt lat="43.95685" lon="2.35452">
        <ele>446</ele>
        <time>2021-04-18T12:10:24Z</time>
      </trkpt>
      <trkpt lat="43.95684" lon="2.35453">
        <ele>447</ele>
        <time>2021-04-18T12:10:25Z</time>
      </trkpt>
      <trkpt lat="43.95683" lon="2.35454">
        <ele>447</ele>
        <time>2021-04-18T12:10:26Z</time>
      </trkpt>
      <trkpt lat="43.95681" lon="2.35454">
        <ele>448</ele>
        <time>2021-04-18T12:10:27Z</time>
      </trkpt>
      <trkpt lat="43.9568" lon="2.35455">
        <ele>448</ele>
        <time>2021-04-18T12:10:28Z</time>
      </trkpt>
      <trkpt lat="43.95679" lon="2.35456">
        <ele>448</ele>
        <time>2021-04-18T12:10:29Z</time>
      </trkpt>
      <trkpt lat="43.95678" lon="2.35457">
        <ele>448</ele>
        <time>2021-04-18T12:10:30Z</time>
      </trkpt>
      <trkpt lat="43.95678" lon="2.35457">
        <ele>448</ele>
        <time>2021-04-18T12:10:31Z</time>
      </trkpt>
      <trkpt lat="43.95676" lon="2.35458">
        <ele>449</ele>
        <time>2021-04-18T12:10:32Z</time>
      </trkpt>
      <trkpt lat="43.95676" lon="2.35459">
        <ele>449</ele>
        <time>2021-04-18T12:10:33Z</time>
      </trkpt>
      <trkpt lat="43.95675" lon="2.3546">
        <ele>449</ele>
        <time>2021-04-18T12:10:34Z</time>
      </trkpt>
      <trkpt lat="43.95674" lon="2.35461">
        <ele>450</ele>
        <time>2021-04-18T12:10:35Z</time>
      </trkpt>
      <trkpt lat="43.95673" lon="2.35462">
        <ele>449</ele>
        <time>2021-04-18T12:10:36Z</time>
      </trkpt>
      <trkpt lat="43.95673" lon="2.35464">
        <ele>449</ele>
        <time>2021-04-18T12:10:37Z</time>
      </trkpt>
      <trkpt lat="43.95672" lon="2.35464">
        <ele>450</ele>
        <time>2021-04-18T12:10:38Z</time>
      </trkpt>
      <trkpt lat="43.9567" lon="2.35464">
        <ele>449</ele>
        <time>2021-04-18T12:10:39Z</time>
      </trkpt>
      <trkpt lat="43.9567" lon="2.35465">
        <ele>449</ele>
        <time>2021-04-18T12:10:40Z</time>
      </trkpt>
      <trkpt lat="43.95669" lon="2.35466">
        <ele>449</ele>
        <time>2021-04-18T12:10:41Z</time>
      </trkpt>
      <trkpt lat="43.95668" lon="2.35466">
        <ele>449</ele>
        <time>2021-04-18T12:10:42Z</time>
      </trkpt>
      <trkpt lat="43.95668" lon="2.35467">
        <ele>449</ele>
        <time>2021-04-18T12:10:43Z</time>
      </trkpt>
      <trkpt lat="43.95667" lon="2.35467">
        <ele>449</ele>
        <time>2021-04-18T12:10:44Z</time>
      </trkpt>
      <trkpt lat="43.95666" lon="2.35467">
        <ele>449</ele>
        <time>2021-04-18T12:10:45Z</time>
      </trkpt>
      <trkpt lat="43.95665" lon="2.35467">
        <ele>449</ele>
        <time>2021-04-18T12:10:46Z</time>
      </trkpt>
      <trkpt lat="43.95665" lon="2.35468">
        <ele>450</ele>
        <time>2021-04-18T12:10:47Z</time>
      </trkpt>
      <trkpt lat="43.95664" lon="2.35469">
        <ele>450</ele>
        <time>2021-04-18T12:10:48Z</time>
      </trkpt>
      <trkpt lat="43.95663" lon="2.35469">
        <ele>450</ele>
        <time>2021-04-18T12:10:49Z</time>
      </trkpt>
      <trkpt lat="43.95662" lon="2.3547">
        <ele>451</ele>
        <time>2021-04-18T12:10:50Z</time>
      </trkpt>
      <trkpt lat="43.95662" lon="2.3547">
        <ele>451</ele>
        <time>2021-04-18T12:10:51Z</time>
      </trkpt>
      <trkpt lat="43.9566" lon="2.3547">
        <ele>451</ele>
        <time>2021-04-18T12:10:52Z</time>
      </trkpt>
      <trkpt lat="43.9566" lon="2.35471">
        <ele>451</ele>
        <time>2021-04-18T12:10:53Z</time>
      </trkpt>
      <trkpt lat="43.95659" lon="2.35472">
        <ele>451</ele>
        <time>2021-04-18T12:10:54Z</time>
      </trkpt>
      <trkpt lat="43.95658" lon="2.35474">
        <ele>451</ele>
        <time>2021-04-18T12:10:55Z</time>
      </trkpt>
      <trkpt lat="43.95657" lon="2.35475">
        <ele>451</ele>
        <time>2021-04-18T12:10:56Z</time>
      </trkpt>
      <trkpt lat="43.95655" lon="2.35476">
        <ele>451</ele>
        <time>2021-04-18T12:10:57Z</time>
      </trkpt>
      <trkpt lat="43.95654" lon="2.35477">
        <ele>451</ele>
        <time>2021-04-18T12:10:58Z</time>
      </trkpt>
      <trkpt lat="43.95653" lon="2.35478">
        <ele>451</ele>
        <time>2021-04-18T12:10:59Z</time>
      </trkpt>
      <trkpt lat="43.95651" lon="2.35478">
        <ele>451</ele>
        <time>2021-04-18T12:11:00Z</time>
      </trkpt>
      <trkpt lat="43.9565" lon="2.35479">
        <ele>451</ele>
        <time>2021-04-18T12:11:01Z</time>
      </trkpt>
      <trkpt lat="43.95649" lon="2.35479">
        <ele>451</ele>
        <time>2021-04-18T12:11:02Z</time>
      </trkpt>
      <trkpt lat="43.95647" lon="2.3548">
        <ele>451</ele>
        <time>2021-04-18T12:11:03Z</time>
      </trkpt>
      <trkpt lat="43.95646" lon="2.35481">
        <ele>452</ele>
        <time>2021-04-18T12:11:04Z</time>
      </trkpt>
      <trkpt lat="43.95645" lon="2.35482">
        <ele>452</ele>
        <time>2021-04-18T12:11:05Z</time>
      </trkpt>
      <trkpt lat="43.95644" lon="2.35482">
        <ele>452</ele>
        <time>2021-04-18T12:11:06Z</time>
      </trkpt>
      <trkpt lat="43.95643" lon="2.35483">
        <ele>452</ele>
        <time>2021-04-18T12:11:07Z</time>
      </trkpt>
      <trkpt lat="43.95641" lon="2.35484">
        <ele>452</ele>
        <time>2021-04-18T12:11:08Z</time>
      </trkpt>
      <trkpt lat="43.9564" lon="2.35484">
        <ele>452</ele>
        <time>2021-04-18T12:11:09Z</time>
      </trkpt>
      <trkpt lat="43.95638" lon="2.35485">
        <ele>452</ele>
        <time>2021-04-18T12:11:10Z</time>
      </trkpt>
      <trkpt lat="43.95637" lon="2.35486">
        <ele>452</ele>
        <time>2021-04-18T12:11:11Z</time>
      </trkpt>
      <trkpt lat="43.95636" lon="2.35487">
        <ele>452</ele>
        <time>2021-04-18T12:11:12Z</time>
      </trkpt>
      <trkpt lat="43.95635" lon="2.35488">
        <ele>452</ele>
        <time>2021-04-18T12:11:13Z</time>
      </trkpt>
      <trkpt lat="43.95633" lon="2.35488">
        <ele>452</ele>
        <time>2021-04-18T12:11:14Z</time>
      </trkpt>
      <trkpt lat="43.95631" lon="2.35489">
        <ele>452</ele>
        <time>2021-04-18T12:11:15Z</time>
      </trkpt>
      <trkpt lat="43.9563" lon="2.3549">
        <ele>451</ele>
        <time>2021-04-18T12:11:16Z</time>
      </trkpt>
      <trkpt lat="43.95629" lon="2.35491">
        <ele>451</ele>
        <time>2021-04-18T12:11:17Z</time>
      </trkpt>
      <trkpt lat="43.95627" lon="2.35492">
        <ele>451</ele>
        <time>2021-04-18T12:11:18Z</time>
      </trkpt>
      <trkpt lat="43.95626" lon="2.35493">
        <ele>450</ele>
        <time>2021-04-18T12:11:19Z</time>
      </trkpt>
      <trkpt lat="43.95624" lon="2.35493">
        <ele>450</ele>
        <time>2021-04-18T12:11:20Z</time>
      </trkpt>
      <trkpt lat="43.95622" lon="2.35493">
        <ele>450</ele>
        <time>2021-04-18T12:11:21Z</time>
      </trkpt>
      <trkpt lat="43.9562" lon="2.35494">
        <ele>450</ele>
        <time>2021-04-18T12:11:22Z</time>
      </trkpt>
      <trkpt lat="43.95619" lon="2.35496">
        <ele>450</ele>
        <time>2021-04-18T12:11:23Z</time>
      </trkpt>
      <trkpt lat="43.95618" lon="2.35497">
        <ele>450</ele>
        <time>2021-04-18T12:11:24Z</time>
      </trkpt>
      <trkpt lat="43.95617" lon="2.35498">
        <ele>450</ele>
        <time>2021-04-18T12:11:25Z</time>
      </trkpt>
      <trkpt lat="43.95615" lon="2.35499">
        <ele>450</ele>
        <time>2021-04-18T12:11:26Z</time>
      </trkpt>
      <trkpt lat="43.95615" lon="2.355">
        <ele>450</ele>
        <time>2021-04-18T12:11:27Z</time>
      </trkpt>
      <trkpt lat="43.95614" lon="2.35501">
        <ele>450</ele>
        <time>2021-04-18T12:11:28Z</time>
      </trkpt>
      <trkpt lat="43.95613" lon="2.35502">
        <ele>450</ele>
        <time>2021-04-18T12:11:29Z</time>
      </trkpt>
      <trkpt lat="43.95612" lon="2.35504">
        <ele>450</ele>
        <time>2021-04-18T12:11:30Z</time>
      </trkpt>
      <trkpt lat="43.95612" lon="2.35505">
        <ele>450</ele>
        <time>2021-04-18T12:11:31Z</time>
      </trkpt>
      <trkpt lat="43.9561" lon="2.35507">
        <ele>450</ele>
        <time>2021-04-18T12:11:32Z</time>
      </trkpt>
      <trkpt lat="43.9561" lon="2.35508">
        <ele>450</ele>
        <time>2021-04-18T12:11:33Z</time>
      </trkpt>
      <trkpt lat="43.95609" lon="2.3551">
        <ele>449</ele>
        <time>2021-04-18T12:11:34Z</time>
      </trkpt>
      <trkpt lat="43.95609" lon="2.35511">
        <ele>449</ele>
        <time>2021-04-18T12:11:35Z</time>
      </trkpt>
      <trkpt lat="43.95608" lon="2.35512">
        <ele>449</ele>
        <time>2021-04-18T12:11:36Z</time>
      </trkpt>
      <trkpt lat="43.95607" lon="2.35514">
        <ele>449</ele>
        <time>2021-04-18T12:11:37Z</time>
      </trkpt>
      <trkpt lat="43.95607" lon="2.35515">
        <ele>449</ele>
        <time>2021-04-18T12:11:38Z</time>
      </trkpt>
      <trkpt lat="43.95606" lon="2.35517">
        <ele>450</ele>
        <time>2021-04-18T12:11:39Z</time>
      </trkpt>
      <trkpt lat="43.95606" lon="2.35518">
        <ele>450</ele>
        <time>2021-04-18T12:11:40Z</time>
      </trkpt>
      <trkpt lat="43.95606" lon="2.3552">
        <ele>450</ele>
        <time>2021-04-18T12:11:41Z</time>
      </trkpt>
      <trkpt lat="43.95606" lon="2.35522">
        <ele>450</ele>
        <time>2021-04-18T12:11:42Z</time>
      </trkpt>
      <trkpt lat="43.95606" lon="2.35524">
        <ele>450</ele>
        <time>2021-04-18T12:11:43Z</time>
      </trkpt>
      <trkpt lat="43.95605" lon="2.35525">
        <ele>450</ele>
        <time>2021-04-18T12:11:44Z</time>
      </trkpt>
      <trkpt lat="43.95605" lon="2.35527">
        <ele>451</ele>
        <time>2021-04-18T12:11:45Z</time>
      </trkpt>
      <trkpt lat="43.95605" lon="2.35529">
        <ele>451</ele>
        <time>2021-04-18T12:11:46Z</time>
      </trkpt>
      <trkpt lat="43.95604" lon="2.35531">
        <ele>451</ele>
        <time>2021-04-18T12:11:47Z</time>
      </trkpt>
      <trkpt lat="43.95603" lon="2.35533">
        <ele>451</ele>
        <time>2021-04-18T12:11:48Z</time>
      </trkpt>
      <trkpt lat="43.95603" lon="2.35535">
        <ele>451</ele>
        <time>2021-04-18T12:11:49Z</time>
      </trkpt>
      <trkpt lat="43.95602" lon="2.35537">
        <ele>451</ele>
        <time>2021-04-18T12:11:50Z</time>
      </trkpt>
      <trkpt lat="43.95602" lon="2.35539">
        <ele>451</ele>
        <time>2021-04-18T12:11:51Z</time>
      </trkpt>
      <trkpt lat="43.95601" lon="2.3554">
        <ele>451</ele>
        <time>2021-04-18T12:11:52Z</time>
      </trkpt>
      <trkpt lat="43.956" lon="2.35543">
        <ele>451</ele>
        <time>2021-04-18T12:11:53Z</time>
      </trkpt>
      <trkpt lat="43.95599" lon="2.35545">
        <ele>451</ele>
        <time>2021-04-18T12:11:54Z</time>
      </trkpt>
      <trkpt lat="43.95598" lon="2.35546">
        <ele>451</ele>
        <time>2021-04-18T12:11:55Z</time>
      </trkpt>
      <trkpt lat="43.95596" lon="2.35548">
        <ele>451</ele>
        <time>2021-04-18T12:11:56Z</time>
      </trkpt>
      <trkpt lat="43.95596" lon="2.35549">
        <ele>451</ele>
        <time>2021-04-18T12:11:57Z</time>
      </trkpt>
      <trkpt lat="43.95594" lon="2.35551">
        <ele>451</ele>
        <time>2021-04-18T12:11:58Z</time>
      </trkpt>
      <trkpt lat="43.95594" lon="2.35552">
        <ele>451</ele>
        <time>2021-04-18T12:11:59Z</time>
      </trkpt>
      <trkpt lat="43.95593" lon="2.35554">
        <ele>451</ele>
        <time>2021-04-18T12:12:00Z</time>
      </trkpt>
      <trkpt lat="43.95593" lon="2.35556">
        <ele>451</ele>
        <time>2021-04-18T12:12:01Z</time>
      </trkpt>
      <trkpt lat="43.95593" lon="2.35557">
        <ele>452</ele>
        <time>2021-04-18T12:12:02Z</time>
      </trkpt>
      <trkpt lat="43.95592" lon="2.35558">
        <ele>452</ele>
        <time>2021-04-18T12:12:03Z</time>
      </trkpt>
      <trkpt lat="43.95591" lon="2.35559">
        <ele>452</ele>
        <time>2021-04-18T12:12:04Z</time>
      </trkpt>
      <trkpt lat="43.95591" lon="2.3556">
        <ele>452</ele>
        <time>2021-04-18T12:12:05Z</time>
      </trkpt>
      <trkpt lat="43.9559" lon="2.35561">
        <ele>452</ele>
        <time>2021-04-18T12:12:06Z</time>
      </trkpt>
      <trkpt lat="43.95589" lon="2.35562">
        <ele>452</ele>
        <time>2021-04-18T12:12:07Z</time>
      </trkpt>
      <trkpt lat="43.95588" lon="2.35563">
        <ele>451</ele>
        <time>2021-04-18T12:12:08Z</time>
      </trkpt>
      <trkpt lat="43.95587" lon="2.35565">
        <ele>451</ele>
        <time>2021-04-18T12:12:09Z</time>
      </trkpt>
      <trkpt lat="43.95586" lon="2.35566">
        <ele>451</ele>
        <time>2021-04-18T12:12:10Z</time>
      </trkpt>
      <trkpt lat="43.95585" lon="2.35568">
        <ele>451</ele>
        <time>2021-04-18T12:12:11Z</time>
      </trkpt>
      <trkpt lat="43.95584" lon="2.3557">
        <ele>451</ele>
        <time>2021-04-18T12:12:12Z</time>
      </trkpt>
      <trkpt lat="43.95583" lon="2.35571">
        <ele>451</ele>
        <time>2021-04-18T12:12:13Z</time>
      </trkpt>
      <trkpt lat="43.95583" lon="2.35572">
        <ele>451</ele>
        <time>2021-04-18T12:12:14Z</time>
      </trkpt>
      <trkpt lat="43.95582" lon="2.35573">
        <ele>452</ele>
        <time>2021-04-18T12:12:15Z</time>
      </trkpt>
      <trkpt lat="43.95581" lon="2.35575">
        <ele>452</ele>
        <time>2021-04-18T12:12:16Z</time>
      </trkpt>
      <trkpt lat="43.9558" lon="2.35576">
        <ele>452</ele>
        <time>2021-04-18T12:12:17Z</time>
      </trkpt>
      <trkpt lat="43.95579" lon="2.35578">
        <ele>452</ele>
        <time>2021-04-18T12:12:18Z</time>
      </trkpt>
      <trkpt lat="43.95578" lon="2.35579">
        <ele>453</ele>
        <time>2021-04-18T12:12:19Z</time>
      </trkpt>
      <trkpt lat="43.95578" lon="2.35581">
        <ele>453</ele>
        <time>2021-04-18T12:12:20Z</time>
      </trkpt>
      <trkpt lat="43.95577" lon="2.35582">
        <ele>453</ele>
        <time>2021-04-18T12:12:21Z</time>
      </trkpt>
      <trkpt lat="43.95575" lon="2.35583">
        <ele>453</ele>
        <time>2021-04-18T12:12:22Z</time>
      </trkpt>
      <trkpt lat="43.95574" lon="2.35585">
        <ele>452</ele>
        <time>2021-04-18T12:12:23Z</time>
      </trkpt>
      <trkpt lat="43.95573" lon="2.35587">
        <ele>453</ele>
        <time>2021-04-18T12:12:24Z</time>
      </trkpt>
      <trkpt lat="43.95572" lon="2.35588">
        <ele>452</ele>
        <time>2021-04-18T12:12:25Z</time>
      </trkpt>
      <trkpt lat="43.95572" lon="2.3559">
        <ele>452</ele>
        <time>2021-04-18T12:12:26Z</time>
      </trkpt>
      <trkpt lat="43.9557" lon="2.35591">
        <ele>453</ele>
        <time>2021-04-18T12:12:27Z</time>
      </trkpt>
      <trkpt lat="43.95569" lon="2.35592">
        <ele>453</ele>
        <time>2021-04-18T12:12:28Z</time>
      </trkpt>
      <trkpt lat="43.95568" lon="2.35593">
        <ele>453</ele>
        <time>2021-04-18T12:12:29Z</time>
      </trkpt>
      <trkpt lat="43.95567" lon="2.35594">
        <ele>452</ele>
        <time>2021-04-18T12:12:30Z</time>
      </trkpt>
      <trkpt lat="43.95566" lon="2.35595">
        <ele>452</ele>
        <time>2021-04-18T12:12:31Z</time>
      </trkpt>
      <trkpt lat="43.95565" lon="2.35596">
        <ele>452</ele>
        <time>2021-04-18T12:12:32Z</time>
      </trkpt>
      <trkpt lat="43.95564" lon="2.35598">
        <ele>451</ele>
        <time>2021-04-18T12:12:33Z</time>
      </trkpt>
      <trkpt lat="43.95563" lon="2.35599">
        <ele>452</ele>
        <time>2021-04-18T12:12:34Z</time>
      </trkpt>
      <trkpt lat="43.95562" lon="2.35601">
        <ele>452</ele>
        <time>2021-04-18T12:12:35Z</time>
      </trkpt>
      <trkpt lat="43.95561" lon="2.35603">
        <ele>452</ele>
        <time>2021-04-18T12:12:36Z</time>
      </trkpt>
      <trkpt lat="43.95561" lon="2.35605">
        <ele>452</ele>
        <time>2021-04-18T12:12:37Z</time>
      </trkpt>
      <trkpt lat="43.9556" lon="2.35606">
        <ele>452</ele>
        <time>2021-04-18T12:12:38Z</time>
      </trkpt>
      <trkpt lat="43.9556" lon="2.35607">
        <ele>452</ele>
        <time>2021-04-18T12:12:39Z</time>
      </trkpt>
      <trkpt lat="43.95559" lon="2.35608">
        <ele>452</ele>
        <time>2021-04-18T12:12:40Z</time>
      </trkpt>
      <trkpt lat="43.95557" lon="2.3561">
        <ele>453</ele>
        <time>2021-04-18T12:12:41Z</time>
      </trkpt>
      <trkpt lat="43.95556" lon="2.35611">
        <ele>453</ele>
        <time>2021-04-18T12:12:42Z</time>
      </trkpt>
      <trkpt lat="43.95556" lon="2.35612">
        <ele>453</ele>
        <time>2021-04-18T12:12:43Z</time>
      </trkpt>
      <trkpt lat="43.95554" lon="2.35614">
        <ele>453</ele>
        <time>2021-04-18T12:12:44Z</time>
      </trkpt>
      <trkpt lat="43.95554" lon="2.35615">
        <ele>453</ele>
        <time>2021-04-18T12:12:45Z</time>
      </trkpt>
      <trkpt lat="43.95553" lon="2.35616">
        <ele>453</ele>
        <time>2021-04-18T12:12:46Z</time>
      </trkpt>
      <trkpt lat="43.95552" lon="2.35617">
        <ele>453</ele>
        <time>2021-04-18T12:12:47Z</time>
      </trkpt>
      <trkpt lat="43.95551" lon="2.35618">
        <ele>453</ele>
        <time>2021-04-18T12:12:48Z</time>
      </trkpt>
      <trkpt lat="43.9555" lon="2.3562">
        <ele>453</ele>
        <time>2021-04-18T12:12:49Z</time>
      </trkpt>
      <trkpt lat="43.95549" lon="2.35622">
        <ele>453</ele>
        <time>2021-04-18T12:12:50Z</time>
      </trkpt>
      <trkpt lat="43.95548" lon="2.35623">
        <ele>453</ele>
        <time>2021-04-18T12:12:51Z</time>
      </trkpt>
      <trkpt lat="43.95547" lon="2.35624">
        <ele>453</ele>
        <time>2021-04-18T12:12:52Z</time>
      </trkpt>
      <trkpt lat="43.95547" lon="2.35625">
        <ele>454</ele>
        <time>2021-04-18T12:12:53Z</time>
      </trkpt>
      <trkpt lat="43.95546" lon="2.35626">
        <ele>454</ele>
        <time>2021-04-18T12:12:54Z</time>
      </trkpt>
      <trkpt lat="43.95545" lon="2.35628">
        <ele>454</ele>
        <time>2021-04-18T12:12:55Z</time>
      </trkpt>
      <trkpt lat="43.95544" lon="2.3563">
        <ele>454</ele>
        <time>2021-04-18T12:12:56Z</time>
      </trkpt>
      <trkpt lat="43.95544" lon="2.35632">
        <ele>454</ele>
        <time>2021-04-18T12:12:57Z</time>
      </trkpt>
      <trkpt lat="43.95543" lon="2.35634">
        <ele>454</ele>
        <time>2021-04-18T12:12:58Z</time>
      </trkpt>
      <trkpt lat="43.95543" lon="2.35636">
        <ele>454</ele>
        <time>2021-04-18T12:12:59Z</time>
      </trkpt>
      <trkpt lat="43.95541" lon="2.35637">
        <ele>455</ele>
        <time>2021-04-18T12:13:00Z</time>
      </trkpt>
      <trkpt lat="43.9554" lon="2.35638">
        <ele>455</ele>
        <time>2021-04-18T12:13:01Z</time>
      </trkpt>
      <trkpt lat="43.9554" lon="2.3564">
        <ele>455</ele>
        <time>2021-04-18T12:13:02Z</time>
      </trkpt>
      <trkpt lat="43.95539" lon="2.35641">
        <ele>455</ele>
        <time>2021-04-18T12:13:03Z</time>
      </trkpt>
      <trkpt lat="43.95537" lon="2.35643">
        <ele>455</ele>
        <time>2021-04-18T12:13:04Z</time>
      </trkpt>
      <trkpt lat="43.95536" lon="2.35644">
        <ele>456</ele>
        <time>2021-04-18T12:13:05Z</time>
      </trkpt>
      <trkpt lat="43.95535" lon="2.35646">
        <ele>457</ele>
        <time>2021-04-18T12:13:06Z</time>
      </trkpt>
      <trkpt lat="43.95534" lon="2.35648">
        <ele>457</ele>
        <time>2021-04-18T12:13:07Z</time>
      </trkpt>
      <trkpt lat="43.95533" lon="2.35649">
        <ele>458</ele>
        <time>2021-04-18T12:13:08Z</time>
      </trkpt>
      <trkpt lat="43.95532" lon="2.35651">
        <ele>458</ele>
        <time>2021-04-18T12:13:09Z</time>
      </trkpt>
      <trkpt lat="43.95531" lon="2.35652">
        <ele>459</ele>
        <time>2021-04-18T12:13:10Z</time>
      </trkpt>
      <trkpt lat="43.9553" lon="2.35655">
        <ele>459</ele>
        <time>2021-04-18T12:13:11Z</time>
      </trkpt>
      <trkpt lat="43.9553" lon="2.35657">
        <ele>459</ele>
        <time>2021-04-18T12:13:13Z</time>
      </trkpt>
      <trkpt lat="43.95529" lon="2.35659">
        <ele>460</ele>
        <time>2021-04-18T12:13:14Z</time>
      </trkpt>
      <trkpt lat="43.95529" lon="2.35661">
        <ele>460</ele>
        <time>2021-04-18T12:13:15Z</time>
      </trkpt>
      <trkpt lat="43.95529" lon="2.35663">
        <ele>460</ele>
        <time>2021-04-18T12:13:16Z</time>
      </trkpt>
      <trkpt lat="43.95528" lon="2.35665">
        <ele>460</ele>
        <time>2021-04-18T12:13:17Z</time>
      </trkpt>
      <trkpt lat="43.95528" lon="2.35667">
        <ele>460</ele>
        <time>2021-04-18T12:13:18Z</time>
      </trkpt>
      <trkpt lat="43.95527" lon="2.35669">
        <ele>461</ele>
        <time>2021-04-18T12:13:19Z</time>
      </trkpt>
      <trkpt lat="43.95527" lon="2.35671">
        <ele>461</ele>
        <time>2021-04-18T12:13:20Z</time>
      </trkpt>
      <trkpt lat="43.95527" lon="2.35673">
        <ele>461</ele>
        <time>2021-04-18T12:13:21Z</time>
      </trkpt>
      <trkpt lat="43.95526" lon="2.35675">
        <ele>461</ele>
        <time>2021-04-18T12:13:22Z</time>
      </trkpt>
      <trkpt lat="43.95525" lon="2.35676">
        <ele>461</ele>
        <time>2021-04-18T12:13:23Z</time>
      </trkpt>
      <trkpt lat="43.95525" lon="2.35678">
        <ele>461</ele>
        <time>2021-04-18T12:13:24Z</time>
      </trkpt>
      <trkpt lat="43.95524" lon="2.35679">
        <ele>460</ele>
        <time>2021-04-18T12:13:25Z</time>
      </trkpt>
      <trkpt lat="43.95523" lon="2.3568">
        <ele>460</ele>
        <time>2021-04-18T12:13:26Z</time>
      </trkpt>
      <trkpt lat="43.95522" lon="2.35682">
        <ele>461</ele>
        <time>2021-04-18T12:13:27Z</time>
      </trkpt>
      <trkpt lat="43.95522" lon="2.35683">
        <ele>461</ele>
        <time>2021-04-18T12:13:28Z</time>
      </trkpt>
      <trkpt lat="43.95521" lon="2.35685">
        <ele>461</ele>
        <time>2021-04-18T12:13:29Z</time>
      </trkpt>
      <trkpt lat="43.95521" lon="2.35687">
        <ele>461</ele>
        <time>2021-04-18T12:13:30Z</time>
      </trkpt>
      <trkpt lat="43.9552" lon="2.35688">
        <ele>461</ele>
        <time>2021-04-18T12:13:31Z</time>
      </trkpt>
      <trkpt lat="43.95519" lon="2.3569">
        <ele>460</ele>
        <time>2021-04-18T12:13:32Z</time>
      </trkpt>
      <trkpt lat="43.95518" lon="2.35692">
        <ele>461</ele>
        <time>2021-04-18T12:13:33Z</time>
      </trkpt>
      <trkpt lat="43.95517" lon="2.35694">
        <ele>460</ele>
        <time>2021-04-18T12:13:34Z</time>
      </trkpt>
      <trkpt lat="43.95516" lon="2.35696">
        <ele>460</ele>
        <time>2021-04-18T12:13:35Z</time>
      </trkpt>
      <trkpt lat="43.95515" lon="2.35698">
        <ele>460</ele>
        <time>2021-04-18T12:13:36Z</time>
      </trkpt>
      <trkpt lat="43.95515" lon="2.35701">
        <ele>460</ele>
        <time>2021-04-18T12:13:37Z</time>
      </trkpt>
      <trkpt lat="43.95514" lon="2.35703">
        <ele>460</ele>
        <time>2021-04-18T12:13:38Z</time>
      </trkpt>
      <trkpt lat="43.95514" lon="2.35705">
        <ele>459</ele>
        <time>2021-04-18T12:13:39Z</time>
      </trkpt>
      <trkpt lat="43.95513" lon="2.35708">
        <ele>459</ele>
        <time>2021-04-18T12:13:40Z</time>
      </trkpt>
      <trkpt lat="43.95513" lon="2.3571">
        <ele>459</ele>
        <time>2021-04-18T12:13:41Z</time>
      </trkpt>
      <trkpt lat="43.95512" lon="2.35712">
        <ele>459</ele>
        <time>2021-04-18T12:13:42Z</time>
      </trkpt>
      <trkpt lat="43.95512" lon="2.35714">
        <ele>459</ele>
        <time>2021-04-18T12:13:43Z</time>
      </trkpt>
      <trkpt lat="43.95511" lon="2.35716">
        <ele>459</ele>
        <time>2021-04-18T12:13:44Z</time>
      </trkpt>
      <trkpt lat="43.95511" lon="2.35719">
        <ele>459</ele>
        <time>2021-04-18T12:13:45Z</time>
      </trkpt>
      <trkpt lat="43.95511" lon="2.35721">
        <ele>460</ele>
        <time>2021-04-18T12:13:46Z</time>
      </trkpt>
      <trkpt lat="43.9551" lon="2.35722">
        <ele>460</ele>
        <time>2021-04-18T12:13:47Z</time>
      </trkpt>
      <trkpt lat="43.95509" lon="2.35723">
        <ele>460</ele>
        <time>2021-04-18T12:13:48Z</time>
      </trkpt>
      <trkpt lat="43.95509" lon="2.35725">
        <ele>460</ele>
        <time>2021-04-18T12:13:49Z</time>
      </trkpt>
      <trkpt lat="43.95508" lon="2.35726">
        <ele>461</ele>
        <time>2021-04-18T12:13:50Z</time>
      </trkpt>
      <trkpt lat="43.95508" lon="2.35728">
        <ele>461</ele>
        <time>2021-04-18T12:13:51Z</time>
      </trkpt>
      <trkpt lat="43.95508" lon="2.3573">
        <ele>460</ele>
        <time>2021-04-18T12:13:52Z</time>
      </trkpt>
      <trkpt lat="43.95507" lon="2.35732">
        <ele>460</ele>
        <time>2021-04-18T12:13:53Z</time>
      </trkpt>
      <trkpt lat="43.95507" lon="2.35734">
        <ele>461</ele>
        <time>2021-04-18T12:13:54Z</time>
      </trkpt>
      <trkpt lat="43.95507" lon="2.35736">
        <ele>461</ele>
        <time>2021-04-18T12:13:55Z</time>
      </trkpt>
      <trkpt lat="43.95507" lon="2.35738">
        <ele>461</ele>
        <time>2021-04-18T12:13:56Z</time>
      </trkpt>
      <trkpt lat="43.95507" lon="2.35741">
        <ele>461</ele>
        <time>2021-04-18T12:13:57Z</time>
      </trkpt>
      <trkpt lat="43.95507" lon="2.35743">
        <ele>462</ele>
        <time>2021-04-18T12:13:58Z</time>
      </trkpt>
      <trkpt lat="43.95506" lon="2.35744">
        <ele>462</ele>
        <time>2021-04-18T12:13:59Z</time>
      </trkpt>
      <trkpt lat="43.95506" lon="2.35746">
        <ele>462</ele>
        <time>2021-04-18T12:14:00Z</time>
      </trkpt>
      <trkpt lat="43.95506" lon="2.35748">
        <ele>462</ele>
        <time>2021-04-18T12:14:01Z</time>
      </trkpt>
      <trkpt lat="43.95506" lon="2.35749">
        <ele>462</ele>
        <time>2021-04-18T12:14:02Z</time>
      </trkpt>
      <trkpt lat="43.95506" lon="2.35751">
        <ele>461</ele>
        <time>2021-04-18T12:14:03Z</time>
      </trkpt>
      <trkpt lat="43.95506" lon="2.35753">
        <ele>462</ele>
        <time>2021-04-18T12:14:04Z</time>
      </trkpt>
      <trkpt lat="43.95505" lon="2.35754">
        <ele>462</ele>
        <time>2021-04-18T12:14:05Z</time>
      </trkpt>
      <trkpt lat="43.95505" lon="2.35756">
        <ele>463</ele>
        <time>2021-04-18T12:14:06Z</time>
      </trkpt>
      <trkpt lat="43.95505" lon="2.35757">
        <ele>463</ele>
        <time>2021-04-18T12:14:07Z</time>
      </trkpt>
      <trkpt lat="43.95504" lon="2.35759">
        <ele>464</ele>
        <time>2021-04-18T12:14:08Z</time>
      </trkpt>
      <trkpt lat="43.95504" lon="2.35761">
        <ele>464</ele>
        <time>2021-04-18T12:14:09Z</time>
      </trkpt>
      <trkpt lat="43.95504" lon="2.35763">
        <ele>464</ele>
        <time>2021-04-18T12:14:10Z</time>
      </trkpt>
      <trkpt lat="43.95504" lon="2.35765">
        <ele>464</ele>
        <time>2021-04-18T12:14:11Z</time>
      </trkpt>
      <trkpt lat="43.95504" lon="2.35767">
        <ele>464</ele>
        <time>2021-04-18T12:14:12Z</time>
      </trkpt>
      <trkpt lat="43.95504" lon="2.35769">
        <ele>464</ele>
        <time>2021-04-18T12:14:13Z</time>
      </trkpt>
      <trkpt lat="43.95503" lon="2.35771">
        <ele>465</ele>
        <time>2021-04-18T12:14:14Z</time>
      </trkpt>
      <trkpt lat="43.95503" lon="2.35771">
        <ele>464</ele>
        <time>2021-04-18T12:14:15Z</time>
      </trkpt>
      <trkpt lat="43.95504" lon="2.3577">
        <ele>464</ele>
        <time>2021-04-18T12:14:16Z</time>
      </trkpt>
      <trkpt lat="43.95503" lon="2.35769">
        <ele>464</ele>
        <time>2021-04-18T12:14:17Z</time>
      </trkpt>
      <trkpt lat="43.95503" lon="2.35768">
        <ele>464</ele>
        <time>2021-04-18T12:14:18Z</time>
      </trkpt>
      <trkpt lat="43.95503" lon="2.35769">
        <ele>465</ele>
        <time>2021-04-18T12:14:19Z</time>
      </trkpt>
      <trkpt lat="43.95503" lon="2.35769">
        <ele>465</ele>
        <time>2021-04-18T12:14:20Z</time>
      </trkpt>
      <trkpt lat="43.95503" lon="2.35769">
        <ele>465</ele>
        <time>2021-04-18T12:14:21Z</time>
      </trkpt>
      <trkpt lat="43.95503" lon="2.35769">
        <ele>465</ele>
        <time>2021-04-18T12:14:21Z</time>
      </trkpt>
      <trkpt lat="43.95503" lon="2.35769">
        <ele>465</ele>
        <time>2021-04-18T12:14:21Z</time>
      </trkpt>
      <trkpt lat="43.95503" lon="2.35777">
        <ele>464</ele>
        <time>2021-04-18T12:14:38Z</time>
      </trkpt>
      <trkpt lat="43.95503" lon="2.35779">
        <ele>464</ele>
        <time>2021-04-18T12:14:39Z</time>
      </trkpt>
      <trkpt lat="43.95502" lon="2.35781">
        <ele>463</ele>
        <time>2021-04-18T12:14:40Z</time>
      </trkpt>
      <trkpt lat="43.95501" lon="2.35783">
        <ele>464</ele>
        <time>2021-04-18T12:14:41Z</time>
      </trkpt>
      <trkpt lat="43.95501" lon="2.35785">
        <ele>464</ele>
        <time>2021-04-18T12:14:42Z</time>
      </trkpt>
      <trkpt lat="43.95501" lon="2.35786">
        <ele>465</ele>
        <time>2021-04-18T12:14:43Z</time>
      </trkpt>
      <trkpt lat="43.955" lon="2.35787">
        <ele>464</ele>
        <time>2021-04-18T12:14:44Z</time>
      </trkpt>
      <trkpt lat="43.955" lon="2.35788">
        <ele>464</ele>
        <time>2021-04-18T12:14:45Z</time>
      </trkpt>
      <trkpt lat="43.955" lon="2.35789">
        <ele>464</ele>
        <time>2021-04-18T12:14:46Z</time>
      </trkpt>
      <trkpt lat="43.95499" lon="2.3579">
        <ele>464</ele>
        <time>2021-04-18T12:14:47Z</time>
      </trkpt>
      <trkpt lat="43.95499" lon="2.35792">
        <ele>464</ele>
        <time>2021-04-18T12:14:48Z</time>
      </trkpt>
      <trkpt lat="43.95498" lon="2.35794">
        <ele>464</ele>
        <time>2021-04-18T12:14:49Z</time>
      </trkpt>
      <trkpt lat="43.95497" lon="2.35795">
        <ele>464</ele>
        <time>2021-04-18T12:14:50Z</time>
      </trkpt>
      <trkpt lat="43.95496" lon="2.35797">
        <ele>464</ele>
        <time>2021-04-18T12:14:51Z</time>
      </trkpt>
      <trkpt lat="43.95496" lon="2.35799">
        <ele>463</ele>
        <time>2021-04-18T12:14:52Z</time>
      </trkpt>
      <trkpt lat="43.95495" lon="2.35801">
        <ele>463</ele>
        <time>2021-04-18T12:14:53Z</time>
      </trkpt>
      <trkpt lat="43.95494" lon="2.35803">
        <ele>463</ele>
        <time>2021-04-18T12:14:54Z</time>
      </trkpt>
      <trkpt lat="43.95493" lon="2.35804">
        <ele>463</ele>
        <time>2021-04-18T12:14:55Z</time>
      </trkpt>
      <trkpt lat="43.95492" lon="2.35806">
        <ele>463</ele>
        <time>2021-04-18T12:14:56Z</time>
      </trkpt>
      <trkpt lat="43.95491" lon="2.35808">
        <ele>463</ele>
        <time>2021-04-18T12:14:57Z</time>
      </trkpt>
      <trkpt lat="43.95491" lon="2.3581">
        <ele>462</ele>
        <time>2021-04-18T12:14:58Z</time>
      </trkpt>
      <trkpt lat="43.95491" lon="2.35812">
        <ele>462</ele>
        <time>2021-04-18T12:14:59Z</time>
      </trkpt>
      <trkpt lat="43.95491" lon="2.35815">
        <ele>462</ele>
        <time>2021-04-18T12:15:00Z</time>
      </trkpt>
      <trkpt lat="43.9549" lon="2.35817">
        <ele>462</ele>
        <time>2021-04-18T12:15:01Z</time>
      </trkpt>
      <trkpt lat="43.9549" lon="2.35818">
        <ele>462</ele>
        <time>2021-04-18T12:15:02Z</time>
      </trkpt>
      <trkpt lat="43.95489" lon="2.3582">
        <ele>461</ele>
        <time>2021-04-18T12:15:03Z</time>
      </trkpt>
      <trkpt lat="43.95488" lon="2.35821">
        <ele>461</ele>
        <time>2021-04-18T12:15:04Z</time>
      </trkpt>
      <trkpt lat="43.95488" lon="2.35823">
        <ele>461</ele>
        <time>2021-04-18T12:15:05Z</time>
      </trkpt>
      <trkpt lat="43.95487" lon="2.35824">
        <ele>460</ele>
        <time>2021-04-18T12:15:06Z</time>
      </trkpt>
      <trkpt lat="43.95486" lon="2.35826">
        <ele>460</ele>
        <time>2021-04-18T12:15:07Z</time>
      </trkpt>
      <trkpt lat="43.95485" lon="2.35827">
        <ele>460</ele>
        <time>2021-04-18T12:15:08Z</time>
      </trkpt>
      <trkpt lat="43.95484" lon="2.35829">
        <ele>460</ele>
        <time>2021-04-18T12:15:09Z</time>
      </trkpt>
      <trkpt lat="43.95483" lon="2.35831">
        <ele>460</ele>
        <time>2021-04-18T12:15:10Z</time>
      </trkpt>
      <trkpt lat="43.95482" lon="2.35833">
        <ele>460</ele>
        <time>2021-04-18T12:15:11Z</time>
      </trkpt>
      <trkpt lat="43.95482" lon="2.35834">
        <ele>460</ele>
        <time>2021-04-18T12:15:12Z</time>
      </trkpt>
      <trkpt lat="43.95481" lon="2.35836">
        <ele>460</ele>
        <time>2021-04-18T12:15:13Z</time>
      </trkpt>
      <trkpt lat="43.9548" lon="2.35838">
        <ele>460</ele>
        <time>2021-04-18T12:15:14Z</time>
      </trkpt>
      <trkpt lat="43.9548" lon="2.3584">
        <ele>460</ele>
        <time>2021-04-18T12:15:15Z</time>
      </trkpt>
      <trkpt lat="43.9548" lon="2.35841">
        <ele>460</ele>
        <time>2021-04-18T12:15:16Z</time>
      </trkpt>
      <trkpt lat="43.95479" lon="2.35842">
        <ele>460</ele>
        <time>2021-04-18T12:15:17Z</time>
      </trkpt>
      <trkpt lat="43.95478" lon="2.35844">
        <ele>459</ele>
        <time>2021-04-18T12:15:18Z</time>
      </trkpt>
      <trkpt lat="43.95478" lon="2.35845">
        <ele>459</ele>
        <time>2021-04-18T12:15:19Z</time>
      </trkpt>
      <trkpt lat="43.95477" lon="2.35848">
        <ele>459</ele>
        <time>2021-04-18T12:15:20Z</time>
      </trkpt>
      <trkpt lat="43.95477" lon="2.3585">
        <ele>459</ele>
        <time>2021-04-18T12:15:21Z</time>
      </trkpt>
      <trkpt lat="43.95476" lon="2.35852">
        <ele>459</ele>
        <time>2021-04-18T12:15:22Z</time>
      </trkpt>
      <trkpt lat="43.95475" lon="2.35854">
        <ele>459</ele>
        <time>2021-04-18T12:15:23Z</time>
      </trkpt>
      <trkpt lat="43.95475" lon="2.35856">
        <ele>459</ele>
        <time>2021-04-18T12:15:24Z</time>
      </trkpt>
      <trkpt lat="43.95474" lon="2.35857">
        <ele>458</ele>
        <time>2021-04-18T12:15:25Z</time>
      </trkpt>
      <trkpt lat="43.95473" lon="2.35859">
        <ele>458</ele>
        <time>2021-04-18T12:15:26Z</time>
      </trkpt>
      <trkpt lat="43.95472" lon="2.35861">
        <ele>458</ele>
        <time>2021-04-18T12:15:27Z</time>
      </trkpt>
      <trkpt lat="43.95472" lon="2.35862">
        <ele>458</ele>
        <time>2021-04-18T12:15:28Z</time>
      </trkpt>
      <trkpt lat="43.95472" lon="2.35864">
        <ele>458</ele>
        <time>2021-04-18T12:15:29Z</time>
      </trkpt>
      <trkpt lat="43.95471" lon="2.35865">
        <ele>458</ele>
        <time>2021-04-18T12:15:30Z</time>
      </trkpt>
      <trkpt lat="43.95471" lon="2.35866">
        <ele>458</ele>
        <time>2021-04-18T12:15:31Z</time>
      </trkpt>
      <trkpt lat="43.95471" lon="2.35868">
        <ele>458</ele>
        <time>2021-04-18T12:15:32Z</time>
      </trkpt>
      <trkpt lat="43.9547" lon="2.35869">
        <ele>458</ele>
        <time>2021-04-18T12:15:33Z</time>
      </trkpt>
      <trkpt lat="43.95469" lon="2.35871">
        <ele>458</ele>
        <time>2021-04-18T12:15:34Z</time>
      </trkpt>
      <trkpt lat="43.95469" lon="2.35872">
        <ele>457</ele>
        <time>2021-04-18T12:15:35Z</time>
      </trkpt>
      <trkpt lat="43.95467" lon="2.35874">
        <ele>457</ele>
        <time>2021-04-18T12:15:36Z</time>
      </trkpt>
      <trkpt lat="43.95467" lon="2.35877">
        <ele>456</ele>
        <time>2021-04-18T12:15:37Z</time>
      </trkpt>
      <trkpt lat="43.95467" lon="2.35879">
        <ele>456</ele>
        <time>2021-04-18T12:15:38Z</time>
      </trkpt>
      <trkpt lat="43.95466" lon="2.3588">
        <ele>456</ele>
        <time>2021-04-18T12:15:39Z</time>
      </trkpt>
      <trkpt lat="43.95465" lon="2.35881">
        <ele>457</ele>
        <time>2021-04-18T12:15:40Z</time>
      </trkpt>
      <trkpt lat="43.95464" lon="2.35882">
        <ele>457</ele>
        <time>2021-04-18T12:15:41Z</time>
      </trkpt>
      <trkpt lat="43.95464" lon="2.35884">
        <ele>457</ele>
        <time>2021-04-18T12:15:42Z</time>
      </trkpt>
      <trkpt lat="43.95463" lon="2.35886">
        <ele>457</ele>
        <time>2021-04-18T12:15:43Z</time>
      </trkpt>
      <trkpt lat="43.95462" lon="2.35887">
        <ele>456</ele>
        <time>2021-04-18T12:15:44Z</time>
      </trkpt>
      <trkpt lat="43.95462" lon="2.35888">
        <ele>456</ele>
        <time>2021-04-18T12:15:45Z</time>
      </trkpt>
      <trkpt lat="43.95462" lon="2.3589">
        <ele>456</ele>
        <time>2021-04-18T12:15:46Z</time>
      </trkpt>
      <trkpt lat="43.95461" lon="2.35891">
        <ele>455</ele>
        <time>2021-04-18T12:15:47Z</time>
      </trkpt>
      <trkpt lat="43.9546" lon="2.35892">
        <ele>455</ele>
        <time>2021-04-18T12:15:48Z</time>
      </trkpt>
      <trkpt lat="43.9546" lon="2.35893">
        <ele>455</ele>
        <time>2021-04-18T12:15:49Z</time>
      </trkpt>
      <trkpt lat="43.95459" lon="2.35894">
        <ele>454</ele>
        <time>2021-04-18T12:15:50Z</time>
      </trkpt>
      <trkpt lat="43.95459" lon="2.35896">
        <ele>454</ele>
        <time>2021-04-18T12:15:51Z</time>
      </trkpt>
      <trkpt lat="43.95458" lon="2.35897">
        <ele>454</ele>
        <time>2021-04-18T12:15:52Z</time>
      </trkpt>
      <trkpt lat="43.95457" lon="2.35899">
        <ele>454</ele>
        <time>2021-04-18T12:15:53Z</time>
      </trkpt>
      <trkpt lat="43.95456" lon="2.359">
        <ele>454</ele>
        <time>2021-04-18T12:15:54Z</time>
      </trkpt>
      <trkpt lat="43.95456" lon="2.35902">
        <ele>454</ele>
        <time>2021-04-18T12:15:55Z</time>
      </trkpt>
      <trkpt lat="43.95456" lon="2.35904">
        <ele>454</ele>
        <time>2021-04-18T12:15:56Z</time>
      </trkpt>
      <trkpt lat="43.95455" lon="2.35906">
        <ele>454</ele>
        <time>2021-04-18T12:15:57Z</time>
      </trkpt>
      <trkpt lat="43.95454" lon="2.35908">
        <ele>454</ele>
        <time>2021-04-18T12:15:58Z</time>
      </trkpt>
      <trkpt lat="43.95453" lon="2.3591">
        <ele>454</ele>
        <time>2021-04-18T12:15:59Z</time>
      </trkpt>
      <trkpt lat="43.95453" lon="2.35912">
        <ele>454</ele>
        <time>2021-04-18T12:16:00Z</time>
      </trkpt>
      <trkpt lat="43.95453" lon="2.35914">
        <ele>455</ele>
        <time>2021-04-18T12:16:01Z</time>
      </trkpt>
      <trkpt lat="43.95453" lon="2.35916">
        <ele>454</ele>
        <time>2021-04-18T12:16:02Z</time>
      </trkpt>
      <trkpt lat="43.95452" lon="2.35917">
        <ele>453</ele>
        <time>2021-04-18T12:16:03Z</time>
      </trkpt>
      <trkpt lat="43.95451" lon="2.35919">
        <ele>453</ele>
        <time>2021-04-18T12:16:04Z</time>
      </trkpt>
      <trkpt lat="43.9545" lon="2.3592">
        <ele>452</ele>
        <time>2021-04-18T12:16:05Z</time>
      </trkpt>
      <trkpt lat="43.9545" lon="2.35921">
        <ele>452</ele>
        <time>2021-04-18T12:16:06Z</time>
      </trkpt>
      <trkpt lat="43.9545" lon="2.35922">
        <ele>452</ele>
        <time>2021-04-18T12:16:07Z</time>
      </trkpt>
      <trkpt lat="43.9545" lon="2.35924">
        <ele>452</ele>
        <time>2021-04-18T12:16:08Z</time>
      </trkpt>
      <trkpt lat="43.95449" lon="2.35926">
        <ele>451</ele>
        <time>2021-04-18T12:16:09Z</time>
      </trkpt>
      <trkpt lat="43.95449" lon="2.35927">
        <ele>451</ele>
        <time>2021-04-18T12:16:10Z</time>
      </trkpt>
      <trkpt lat="43.95449" lon="2.35928">
        <ele>451</ele>
        <time>2021-04-18T12:16:11Z</time>
      </trkpt>
      <trkpt lat="43.95448" lon="2.3593">
        <ele>451</ele>
        <time>2021-04-18T12:16:12Z</time>
      </trkpt>
      <trkpt lat="43.95447" lon="2.35932">
        <ele>451</ele>
        <time>2021-04-18T12:16:13Z</time>
      </trkpt>
      <trkpt lat="43.95447" lon="2.35934">
        <ele>451</ele>
        <time>2021-04-18T12:16:14Z</time>
      </trkpt>
      <trkpt lat="43.95446" lon="2.35936">
        <ele>451</ele>
        <time>2021-04-18T12:16:15Z</time>
      </trkpt>
      <trkpt lat="43.95445" lon="2.35937">
        <ele>451</ele>
        <time>2021-04-18T12:16:16Z</time>
      </trkpt>
      <trkpt lat="43.95444" lon="2.35937">
        <ele>451</ele>
        <time>2021-04-18T12:16:17Z</time>
      </trkpt>
      <trkpt lat="43.95444" lon="2.35938">
        <ele>451</ele>
        <time>2021-04-18T12:16:18Z</time>
      </trkpt>
      <trkpt lat="43.95443" lon="2.35939">
        <ele>451</ele>
        <time>2021-04-18T12:16:19Z</time>
      </trkpt>
      <trkpt lat="43.95442" lon="2.3594">
        <ele>451</ele>
        <time>2021-04-18T12:16:20Z</time>
      </trkpt>
      <trkpt lat="43.95441" lon="2.35941">
        <ele>451</ele>
        <time>2021-04-18T12:16:21Z</time>
      </trkpt>
      <trkpt lat="43.9544" lon="2.35941">
        <ele>451</ele>
        <time>2021-04-18T12:16:22Z</time>
      </trkpt>
      <trkpt lat="43.9544" lon="2.35942">
        <ele>451</ele>
        <time>2021-04-18T12:16:23Z</time>
      </trkpt>
      <trkpt lat="43.95439" lon="2.35942">
        <ele>450</ele>
        <time>2021-04-18T12:16:24Z</time>
      </trkpt>
      <trkpt lat="43.95438" lon="2.35943">
        <ele>450</ele>
        <time>2021-04-18T12:16:25Z</time>
      </trkpt>
      <trkpt lat="43.95437" lon="2.35944">
        <ele>450</ele>
        <time>2021-04-18T12:16:26Z</time>
      </trkpt>
      <trkpt lat="43.95436" lon="2.35945">
        <ele>451</ele>
        <time>2021-04-18T12:16:27Z</time>
      </trkpt>
      <trkpt lat="43.95435" lon="2.35946">
        <ele>451</ele>
        <time>2021-04-18T12:16:28Z</time>
      </trkpt>
      <trkpt lat="43.95433" lon="2.35946">
        <ele>451</ele>
        <time>2021-04-18T12:16:29Z</time>
      </trkpt>
      <trkpt lat="43.95432" lon="2.35947">
        <ele>451</ele>
        <time>2021-04-18T12:16:30Z</time>
      </trkpt>
      <trkpt lat="43.9543" lon="2.35948">
        <ele>451</ele>
        <time>2021-04-18T12:16:31Z</time>
      </trkpt>
      <trkpt lat="43.95429" lon="2.35948">
        <ele>451</ele>
        <time>2021-04-18T12:16:32Z</time>
      </trkpt>
      <trkpt lat="43.95428" lon="2.35949">
        <ele>451</ele>
        <time>2021-04-18T12:16:33Z</time>
      </trkpt>
      <trkpt lat="43.95427" lon="2.3595">
        <ele>451</ele>
        <time>2021-04-18T12:16:34Z</time>
      </trkpt>
      <trkpt lat="43.95426" lon="2.35951">
        <ele>451</ele>
        <time>2021-04-18T12:16:35Z</time>
      </trkpt>
      <trkpt lat="43.95425" lon="2.35951">
        <ele>452</ele>
        <time>2021-04-18T12:16:36Z</time>
      </trkpt>
      <trkpt lat="43.95424" lon="2.35952">
        <ele>452</ele>
        <time>2021-04-18T12:16:37Z</time>
      </trkpt>
      <trkpt lat="43.95422" lon="2.35953">
        <ele>451</ele>
        <time>2021-04-18T12:16:38Z</time>
      </trkpt>
      <trkpt lat="43.95421" lon="2.35954">
        <ele>451</ele>
        <time>2021-04-18T12:16:39Z</time>
      </trkpt>
      <trkpt lat="43.95419" lon="2.35955">
        <ele>450</ele>
        <time>2021-04-18T12:16:40Z</time>
      </trkpt>
      <trkpt lat="43.95418" lon="2.35956">
        <ele>450</ele>
        <time>2021-04-18T12:16:41Z</time>
      </trkpt>
      <trkpt lat="43.95417" lon="2.35957">
        <ele>450</ele>
        <time>2021-04-18T12:16:42Z</time>
      </trkpt>
      <trkpt lat="43.95416" lon="2.35959">
        <ele>449</ele>
        <time>2021-04-18T12:16:43Z</time>
      </trkpt>
      <trkpt lat="43.95415" lon="2.3596">
        <ele>450</ele>
        <time>2021-04-18T12:16:44Z</time>
      </trkpt>
      <trkpt lat="43.95414" lon="2.35961">
        <ele>449</ele>
        <time>2021-04-18T12:16:45Z</time>
      </trkpt>
      <trkpt lat="43.95413" lon="2.35963">
        <ele>449</ele>
        <time>2021-04-18T12:16:46Z</time>
      </trkpt>
      <trkpt lat="43.95412" lon="2.35964">
        <ele>449</ele>
        <time>2021-04-18T12:16:47Z</time>
      </trkpt>
      <trkpt lat="43.95411" lon="2.35965">
        <ele>448</ele>
        <time>2021-04-18T12:16:48Z</time>
      </trkpt>
      <trkpt lat="43.9541" lon="2.35965">
        <ele>447</ele>
        <time>2021-04-18T12:16:49Z</time>
      </trkpt>
      <trkpt lat="43.95409" lon="2.35966">
        <ele>447</ele>
        <time>2021-04-18T12:16:50Z</time>
      </trkpt>
      <trkpt lat="43.95408" lon="2.35967">
        <ele>447</ele>
        <time>2021-04-18T12:16:51Z</time>
      </trkpt>
      <trkpt lat="43.95407" lon="2.35968">
        <ele>446</ele>
        <time>2021-04-18T12:16:52Z</time>
      </trkpt>
      <trkpt lat="43.95407" lon="2.35969">
        <ele>446</ele>
        <time>2021-04-18T12:16:53Z</time>
      </trkpt>
      <trkpt lat="43.95406" lon="2.35971">
        <ele>445</ele>
        <time>2021-04-18T12:16:54Z</time>
      </trkpt>
      <trkpt lat="43.95406" lon="2.35972">
        <ele>445</ele>
        <time>2021-04-18T12:16:55Z</time>
      </trkpt>
      <trkpt lat="43.95405" lon="2.35974">
        <ele>445</ele>
        <time>2021-04-18T12:16:56Z</time>
      </trkpt>
      <trkpt lat="43.95404" lon="2.35974">
        <ele>445</ele>
        <time>2021-04-18T12:16:57Z</time>
      </trkpt>
      <trkpt lat="43.95403" lon="2.35975">
        <ele>446</ele>
        <time>2021-04-18T12:16:58Z</time>
      </trkpt>
      <trkpt lat="43.95402" lon="2.35975">
        <ele>446</ele>
        <time>2021-04-18T12:16:59Z</time>
      </trkpt>
      <trkpt lat="43.95401" lon="2.35976">
        <ele>446</ele>
        <time>2021-04-18T12:17:00Z</time>
      </trkpt>
      <trkpt lat="43.95401" lon="2.35977">
        <ele>446</ele>
        <time>2021-04-18T12:17:01Z</time>
      </trkpt>
      <trkpt lat="43.954" lon="2.35978">
        <ele>446</ele>
        <time>2021-04-18T12:17:02Z</time>
      </trkpt>
      <trkpt lat="43.954" lon="2.35979">
        <ele>445</ele>
        <time>2021-04-18T12:17:03Z</time>
      </trkpt>
      <trkpt lat="43.95399" lon="2.3598">
        <ele>445</ele>
        <time>2021-04-18T12:17:04Z</time>
      </trkpt>
      <trkpt lat="43.95398" lon="2.35982">
        <ele>445</ele>
        <time>2021-04-18T12:17:05Z</time>
      </trkpt>
      <trkpt lat="43.95397" lon="2.35983">
        <ele>445</ele>
        <time>2021-04-18T12:17:06Z</time>
      </trkpt>
      <trkpt lat="43.95397" lon="2.35984">
        <ele>445</ele>
        <time>2021-04-18T12:17:07Z</time>
      </trkpt>
      <trkpt lat="43.95397" lon="2.35985">
        <ele>445</ele>
        <time>2021-04-18T12:17:08Z</time>
      </trkpt>
      <trkpt lat="43.95396" lon="2.35986">
        <ele>444</ele>
        <time>2021-04-18T12:17:09Z</time>
      </trkpt>
      <trkpt lat="43.95396" lon="2.35988">
        <ele>444</ele>
        <time>2021-04-18T12:17:10Z</time>
      </trkpt>
      <trkpt lat="43.95395" lon="2.35989">
        <ele>444</ele>
        <time>2021-04-18T12:17:11Z</time>
      </trkpt>
      <trkpt lat="43.95394" lon="2.35991">
        <ele>444</ele>
        <time>2021-04-18T12:17:12Z</time>
      </trkpt>
      <trkpt lat="43.95394" lon="2.35992">
        <ele>444</ele>
        <time>2021-04-18T12:17:13Z</time>
      </trkpt>
      <trkpt lat="43.95394" lon="2.35994">
        <ele>444</ele>
        <time>2021-04-18T12:17:14Z</time>
      </trkpt>
      <trkpt lat="43.95393" lon="2.35996">
        <ele>445</ele>
        <time>2021-04-18T12:17:15Z</time>
      </trkpt>
      <trkpt lat="43.95393" lon="2.35998">
        <ele>445</ele>
        <time>2021-04-18T12:17:16Z</time>
      </trkpt>
      <trkpt lat="43.95392" lon="2.36">
        <ele>445</ele>
        <time>2021-04-18T12:17:17Z</time>
      </trkpt>
      <trkpt lat="43.95391" lon="2.36001">
        <ele>445</ele>
        <time>2021-04-18T12:17:18Z</time>
      </trkpt>
      <trkpt lat="43.9539" lon="2.36003">
        <ele>445</ele>
        <time>2021-04-18T12:17:19Z</time>
      </trkpt>
      <trkpt lat="43.9539" lon="2.36004">
        <ele>444</ele>
        <time>2021-04-18T12:17:20Z</time>
      </trkpt>
      <trkpt lat="43.95389" lon="2.36005">
        <ele>444</ele>
        <time>2021-04-18T12:17:21Z</time>
      </trkpt>
      <trkpt lat="43.95388" lon="2.36006">
        <ele>443</ele>
        <time>2021-04-18T12:17:22Z</time>
      </trkpt>
      <trkpt lat="43.95388" lon="2.36006">
        <ele>443</ele>
        <time>2021-04-18T12:17:23Z</time>
      </trkpt>
      <trkpt lat="43.95387" lon="2.36007">
        <ele>443</ele>
        <time>2021-04-18T12:17:24Z</time>
      </trkpt>
      <trkpt lat="43.95386" lon="2.36007">
        <ele>442</ele>
        <time>2021-04-18T12:17:25Z</time>
      </trkpt>
      <trkpt lat="43.95385" lon="2.36008">
        <ele>442</ele>
        <time>2021-04-18T12:17:26Z</time>
      </trkpt>
      <trkpt lat="43.95384" lon="2.3601">
        <ele>442</ele>
        <time>2021-04-18T12:17:27Z</time>
      </trkpt>
      <trkpt lat="43.95383" lon="2.36011">
        <ele>442</ele>
        <time>2021-04-18T12:17:28Z</time>
      </trkpt>
      <trkpt lat="43.95382" lon="2.36012">
        <ele>442</ele>
        <time>2021-04-18T12:17:29Z</time>
      </trkpt>
      <trkpt lat="43.95382" lon="2.36014">
        <ele>441</ele>
        <time>2021-04-18T12:17:30Z</time>
      </trkpt>
      <trkpt lat="43.95382" lon="2.36015">
        <ele>441</ele>
        <time>2021-04-18T12:17:31Z</time>
      </trkpt>
      <trkpt lat="43.95381" lon="2.36017">
        <ele>441</ele>
        <time>2021-04-18T12:17:32Z</time>
      </trkpt>
      <trkpt lat="43.9538" lon="2.36019">
        <ele>440</ele>
        <time>2021-04-18T12:17:33Z</time>
      </trkpt>
      <trkpt lat="43.9538" lon="2.36019">
        <ele>441</ele>
        <time>2021-04-18T12:17:34Z</time>
      </trkpt>
      <trkpt lat="43.9538" lon="2.3602">
        <ele>441</ele>
        <time>2021-04-18T12:17:35Z</time>
      </trkpt>
      <trkpt lat="43.9538" lon="2.3602">
        <ele>441</ele>
        <time>2021-04-18T12:17:36Z</time>
      </trkpt>
      <trkpt lat="43.9538" lon="2.3602">
        <ele>441</ele>
        <time>2021-04-18T12:17:36Z</time>
      </trkpt>
      <trkpt lat="43.9538" lon="2.3602">
        <ele>441</ele>
        <time>2021-04-18T12:17:36Z</time>
      </trkpt>
      <trkpt lat="43.95375" lon="2.36024">
        <ele>440</ele>
        <time>2021-04-18T12:17:50Z</time>
      </trkpt>
      <trkpt lat="43.95375" lon="2.36025">
        <ele>440</ele>
        <time>2021-04-18T12:17:51Z</time>
      </trkpt>
      <trkpt lat="43.95374" lon="2.36027">
        <ele>440</ele>
        <time>2021-04-18T12:17:52Z</time>
      </trkpt>
      <trkpt lat="43.95373" lon="2.36029">
        <ele>440</ele>
        <time>2021-04-18T12:17:53Z</time>
      </trkpt>
      <trkpt lat="43.95372" lon="2.36031">
        <ele>440</ele>
        <time>2021-04-18T12:17:54Z</time>
      </trkpt>
      <trkpt lat="43.95372" lon="2.36032">
        <ele>439</ele>
        <time>2021-04-18T12:17:55Z</time>
      </trkpt>
      <trkpt lat="43.95372" lon="2.36033">
        <ele>439</ele>
        <time>2021-04-18T12:17:56Z</time>
      </trkpt>
      <trkpt lat="43.95371" lon="2.36035">
        <ele>439</ele>
        <time>2021-04-18T12:17:57Z</time>
      </trkpt>
      <trkpt lat="43.9537" lon="2.36036">
        <ele>440</ele>
        <time>2021-04-18T12:17:58Z</time>
      </trkpt>
      <trkpt lat="43.9537" lon="2.36038">
        <ele>440</ele>
        <time>2021-04-18T12:17:59Z</time>
      </trkpt>
      <trkpt lat="43.95369" lon="2.36038">
        <ele>440</ele>
        <time>2021-04-18T12:18:00Z</time>
      </trkpt>
      <trkpt lat="43.95369" lon="2.36038">
        <ele>439</ele>
        <time>2021-04-18T12:18:01Z</time>
      </trkpt>
      <trkpt lat="43.95369" lon="2.36038">
        <ele>439</ele>
        <time>2021-04-18T12:18:02Z</time>
      </trkpt>
      <trkpt lat="43.95369" lon="2.36037">
        <ele>440</ele>
        <time>2021-04-18T12:18:03Z</time>
      </trkpt>
      <trkpt lat="43.95369" lon="2.36037">
        <ele>440</ele>
        <time>2021-04-18T12:18:04Z</time>
      </trkpt>
      <trkpt lat="43.95369" lon="2.36037">
        <ele>440</ele>
        <time>2021-04-18T12:18:04Z</time>
      </trkpt>
      <trkpt lat="43.95369" lon="2.36037">
        <ele>440</ele>
        <time>2021-04-18T12:18:04Z</time>
      </trkpt>
      <trkpt lat="43.95367" lon="2.36042">
        <ele>438</ele>
        <time>2021-04-18T12:18:17Z</time>
      </trkpt>
      <trkpt lat="43.95367" lon="2.36043">
        <ele>439</ele>
        <time>2021-04-18T12:18:18Z</time>
      </trkpt>
      <trkpt lat="43.95367" lon="2.36045">
        <ele>438</ele>
        <time>2021-04-18T12:18:19Z</time>
      </trkpt>
      <trkpt lat="43.95367" lon="2.36047">
        <ele>439</ele>
        <time>2021-04-18T12:18:20Z</time>
      </trkpt>
      <trkpt lat="43.95367" lon="2.36048">
        <ele>439</ele>
        <time>2021-04-18T12:18:21Z</time>
      </trkpt>
      <trkpt lat="43.95367" lon="2.36048">
        <ele>439</ele>
        <time>2021-04-18T12:18:22Z</time>
      </trkpt>
      <trkpt lat="43.95367" lon="2.36049">
        <ele>439</ele>
        <time>2021-04-18T12:18:23Z</time>
      </trkpt>
      <trkpt lat="43.95367" lon="2.36049">
        <ele>439</ele>
        <time>2021-04-18T12:18:24Z</time>
      </trkpt>
      <trkpt lat="43.95367" lon="2.36049">
        <ele>439</ele>
        <time>2021-04-18T12:18:25Z</time>
      </trkpt>
      <trkpt lat="43.95367" lon="2.36051">
        <ele>438</ele>
        <time>2021-04-18T12:18:26Z</time>
      </trkpt>
      <trkpt lat="43.95366" lon="2.36052">
        <ele>438</ele>
        <time>2021-04-18T12:18:27Z</time>
      </trkpt>
      <trkpt lat="43.95366" lon="2.36053">
        <ele>438</ele>
        <time>2021-04-18T12:18:28Z</time>
      </trkpt>
      <trkpt lat="43.95365" lon="2.36055">
        <ele>438</ele>
        <time>2021-04-18T12:18:29Z</time>
      </trkpt>
      <trkpt lat="43.95365" lon="2.36056">
        <ele>438</ele>
        <time>2021-04-18T12:18:30Z</time>
      </trkpt>
      <trkpt lat="43.95365" lon="2.36057">
        <ele>438</ele>
        <time>2021-04-18T12:18:31Z</time>
      </trkpt>
      <trkpt lat="43.95364" lon="2.36058">
        <ele>437</ele>
        <time>2021-04-18T12:18:32Z</time>
      </trkpt>
      <trkpt lat="43.95364" lon="2.36059">
        <ele>438</ele>
        <time>2021-04-18T12:18:33Z</time>
      </trkpt>
      <trkpt lat="43.95363" lon="2.3606">
        <ele>439</ele>
        <time>2021-04-18T12:18:34Z</time>
      </trkpt>
      <trkpt lat="43.95363" lon="2.36062">
        <ele>439</ele>
        <time>2021-04-18T12:18:35Z</time>
      </trkpt>
      <trkpt lat="43.95363" lon="2.36063">
        <ele>438</ele>
        <time>2021-04-18T12:18:36Z</time>
      </trkpt>
      <trkpt lat="43.95362" lon="2.36064">
        <ele>439</ele>
        <time>2021-04-18T12:18:37Z</time>
      </trkpt>
      <trkpt lat="43.95361" lon="2.36066">
        <ele>439</ele>
        <time>2021-04-18T12:18:38Z</time>
      </trkpt>
      <trkpt lat="43.95361" lon="2.36067">
        <ele>439</ele>
        <time>2021-04-18T12:18:39Z</time>
      </trkpt>
      <trkpt lat="43.9536" lon="2.36069">
        <ele>439</ele>
        <time>2021-04-18T12:18:40Z</time>
      </trkpt>
      <trkpt lat="43.95359" lon="2.36071">
        <ele>439</ele>
        <time>2021-04-18T12:18:41Z</time>
      </trkpt>
      <trkpt lat="43.95359" lon="2.36072">
        <ele>438</ele>
        <time>2021-04-18T12:18:42Z</time>
      </trkpt>
      <trkpt lat="43.95358" lon="2.36074">
        <ele>438</ele>
        <time>2021-04-18T12:18:43Z</time>
      </trkpt>
      <trkpt lat="43.95358" lon="2.36075">
        <ele>438</ele>
        <time>2021-04-18T12:18:44Z</time>
      </trkpt>
      <trkpt lat="43.95358" lon="2.36076">
        <ele>438</ele>
        <time>2021-04-18T12:18:45Z</time>
      </trkpt>
      <trkpt lat="43.95357" lon="2.36077">
        <ele>438</ele>
        <time>2021-04-18T12:18:46Z</time>
      </trkpt>
      <trkpt lat="43.95356" lon="2.36078">
        <ele>437</ele>
        <time>2021-04-18T12:18:47Z</time>
      </trkpt>
      <trkpt lat="43.95356" lon="2.3608">
        <ele>437</ele>
        <time>2021-04-18T12:18:48Z</time>
      </trkpt>
      <trkpt lat="43.95355" lon="2.36081">
        <ele>437</ele>
        <time>2021-04-18T12:18:49Z</time>
      </trkpt>
      <trkpt lat="43.95354" lon="2.36083">
        <ele>436</ele>
        <time>2021-04-18T12:18:50Z</time>
      </trkpt>
      <trkpt lat="43.95354" lon="2.36085">
        <ele>436</ele>
        <time>2021-04-18T12:18:51Z</time>
      </trkpt>
      <trkpt lat="43.95353" lon="2.36086">
        <ele>436</ele>
        <time>2021-04-18T12:18:52Z</time>
      </trkpt>
      <trkpt lat="43.95353" lon="2.36088">
        <ele>435</ele>
        <time>2021-04-18T12:18:53Z</time>
      </trkpt>
      <trkpt lat="43.95353" lon="2.3609">
        <ele>436</ele>
        <time>2021-04-18T12:18:54Z</time>
      </trkpt>
      <trkpt lat="43.95352" lon="2.36091">
        <ele>436</ele>
        <time>2021-04-18T12:18:55Z</time>
      </trkpt>
      <trkpt lat="43.95351" lon="2.36093">
        <ele>435</ele>
        <time>2021-04-18T12:18:56Z</time>
      </trkpt>
      <trkpt lat="43.95351" lon="2.36095">
        <ele>435</ele>
        <time>2021-04-18T12:18:57Z</time>
      </trkpt>
      <trkpt lat="43.95351" lon="2.36097">
        <ele>435</ele>
        <time>2021-04-18T12:18:58Z</time>
      </trkpt>
      <trkpt lat="43.9535" lon="2.36098">
        <ele>435</ele>
        <time>2021-04-18T12:18:59Z</time>
      </trkpt>
      <trkpt lat="43.9535" lon="2.36099">
        <ele>435</ele>
        <time>2021-04-18T12:19:00Z</time>
      </trkpt>
      <trkpt lat="43.95348" lon="2.36101">
        <ele>435</ele>
        <time>2021-04-18T12:19:01Z</time>
      </trkpt>
      <trkpt lat="43.95348" lon="2.36102">
        <ele>435</ele>
        <time>2021-04-18T12:19:02Z</time>
      </trkpt>
      <trkpt lat="43.95347" lon="2.36103">
        <ele>436</ele>
        <time>2021-04-18T12:19:03Z</time>
      </trkpt>
      <trkpt lat="43.95346" lon="2.36105">
        <ele>435</ele>
        <time>2021-04-18T12:19:04Z</time>
      </trkpt>
      <trkpt lat="43.95345" lon="2.36107">
        <ele>435</ele>
        <time>2021-04-18T12:19:05Z</time>
      </trkpt>
      <trkpt lat="43.95345" lon="2.36109">
        <ele>435</ele>
        <time>2021-04-18T12:19:06Z</time>
      </trkpt>
      <trkpt lat="43.95345" lon="2.3611">
        <ele>435</ele>
        <time>2021-04-18T12:19:07Z</time>
      </trkpt>
      <trkpt lat="43.95344" lon="2.36112">
        <ele>435</ele>
        <time>2021-04-18T12:19:08Z</time>
      </trkpt>
      <trkpt lat="43.95343" lon="2.36114">
        <ele>435</ele>
        <time>2021-04-18T12:19:09Z</time>
      </trkpt>
      <trkpt lat="43.95343" lon="2.36116">
        <ele>435</ele>
        <time>2021-04-18T12:19:10Z</time>
      </trkpt>
      <trkpt lat="43.95342" lon="2.36117">
        <ele>434</ele>
        <time>2021-04-18T12:19:11Z</time>
      </trkpt>
      <trkpt lat="43.95342" lon="2.36119">
        <ele>434</ele>
        <time>2021-04-18T12:19:12Z</time>
      </trkpt>
      <trkpt lat="43.95342" lon="2.3612">
        <ele>434</ele>
        <time>2021-04-18T12:19:13Z</time>
      </trkpt>
      <trkpt lat="43.95342" lon="2.36121">
        <ele>435</ele>
        <time>2021-04-18T12:19:14Z</time>
      </trkpt>
      <trkpt lat="43.95341" lon="2.36122">
        <ele>435</ele>
        <time>2021-04-18T12:19:15Z</time>
      </trkpt>
      <trkpt lat="43.95341" lon="2.36123">
        <ele>435</ele>
        <time>2021-04-18T12:19:16Z</time>
      </trkpt>
      <trkpt lat="43.95341" lon="2.36124">
        <ele>435</ele>
        <time>2021-04-18T12:19:17Z</time>
      </trkpt>
      <trkpt lat="43.9534" lon="2.36125">
        <ele>435</ele>
        <time>2021-04-18T12:19:18Z</time>
      </trkpt>
      <trkpt lat="43.9534" lon="2.36126">
        <ele>436</ele>
        <time>2021-04-18T12:19:19Z</time>
      </trkpt>
      <trkpt lat="43.95339" lon="2.36127">
        <ele>436</ele>
        <time>2021-04-18T12:19:20Z</time>
      </trkpt>
      <trkpt lat="43.95338" lon="2.36128">
        <ele>436</ele>
        <time>2021-04-18T12:19:21Z</time>
      </trkpt>
      <trkpt lat="43.95338" lon="2.36129">
        <ele>436</ele>
        <time>2021-04-18T12:19:22Z</time>
      </trkpt>
      <trkpt lat="43.95337" lon="2.36131">
        <ele>435</ele>
        <time>2021-04-18T12:19:23Z</time>
      </trkpt>
      <trkpt lat="43.95337" lon="2.36133">
        <ele>435</ele>
        <time>2021-04-18T12:19:24Z</time>
      </trkpt>
      <trkpt lat="43.95337" lon="2.36135">
        <ele>435</ele>
        <time>2021-04-18T12:19:25Z</time>
      </trkpt>
      <trkpt lat="43.95336" lon="2.36138">
        <ele>435</ele>
        <time>2021-04-18T12:19:26Z</time>
      </trkpt>
      <trkpt lat="43.95335" lon="2.3614">
        <ele>435</ele>
        <time>2021-04-18T12:19:27Z</time>
      </trkpt>
      <trkpt lat="43.95335" lon="2.36142">
        <ele>435</ele>
        <time>2021-04-18T12:19:28Z</time>
      </trkpt>
      <trkpt lat="43.95334" lon="2.36144">
        <ele>435</ele>
        <time>2021-04-18T12:19:29Z</time>
      </trkpt>
      <trkpt lat="43.95334" lon="2.36147">
        <ele>434</ele>
        <time>2021-04-18T12:19:30Z</time>
      </trkpt>
      <trkpt lat="43.95333" lon="2.36149">
        <ele>434</ele>
        <time>2021-04-18T12:19:31Z</time>
      </trkpt>
      <trkpt lat="43.95332" lon="2.3615">
        <ele>434</ele>
        <time>2021-04-18T12:19:32Z</time>
      </trkpt>
      <trkpt lat="43.95331" lon="2.36153">
        <ele>433</ele>
        <time>2021-04-18T12:19:33Z</time>
      </trkpt>
      <trkpt lat="43.9533" lon="2.36154">
        <ele>432</ele>
        <time>2021-04-18T12:19:34Z</time>
      </trkpt>
      <trkpt lat="43.95329" lon="2.36156">
        <ele>432</ele>
        <time>2021-04-18T12:19:35Z</time>
      </trkpt>
      <trkpt lat="43.95329" lon="2.36158">
        <ele>432</ele>
        <time>2021-04-18T12:19:36Z</time>
      </trkpt>
      <trkpt lat="43.95328" lon="2.3616">
        <ele>431</ele>
        <time>2021-04-18T12:19:37Z</time>
      </trkpt>
      <trkpt lat="43.95327" lon="2.36162">
        <ele>431</ele>
        <time>2021-04-18T12:19:38Z</time>
      </trkpt>
      <trkpt lat="43.95326" lon="2.36163">
        <ele>430</ele>
        <time>2021-04-18T12:19:39Z</time>
      </trkpt>
      <trkpt lat="43.95325" lon="2.36165">
        <ele>430</ele>
        <time>2021-04-18T12:19:40Z</time>
      </trkpt>
      <trkpt lat="43.95324" lon="2.36167">
        <ele>430</ele>
        <time>2021-04-18T12:19:41Z</time>
      </trkpt>
      <trkpt lat="43.95324" lon="2.36168">
        <ele>431</ele>
        <time>2021-04-18T12:19:42Z</time>
      </trkpt>
      <trkpt lat="43.95323" lon="2.3617">
        <ele>431</ele>
        <time>2021-04-18T12:19:43Z</time>
      </trkpt>
      <trkpt lat="43.95322" lon="2.36171">
        <ele>431</ele>
        <time>2021-04-18T12:19:44Z</time>
      </trkpt>
      <trkpt lat="43.95322" lon="2.36173">
        <ele>431</ele>
        <time>2021-04-18T12:19:45Z</time>
      </trkpt>
      <trkpt lat="43.95321" lon="2.36175">
        <ele>431</ele>
        <time>2021-04-18T12:19:46Z</time>
      </trkpt>
      <trkpt lat="43.95321" lon="2.36176">
        <ele>432</ele>
        <time>2021-04-18T12:19:47Z</time>
      </trkpt>
      <trkpt lat="43.95321" lon="2.36178">
        <ele>432</ele>
        <time>2021-04-18T12:19:48Z</time>
      </trkpt>
      <trkpt lat="43.95321" lon="2.3618">
        <ele>431</ele>
        <time>2021-04-18T12:19:49Z</time>
      </trkpt>
      <trkpt lat="43.9532" lon="2.36182">
        <ele>431</ele>
        <time>2021-04-18T12:19:50Z</time>
      </trkpt>
      <trkpt lat="43.95319" lon="2.36183">
        <ele>431</ele>
        <time>2021-04-18T12:19:51Z</time>
      </trkpt>
      <trkpt lat="43.95318" lon="2.36185">
        <ele>431</ele>
        <time>2021-04-18T12:19:52Z</time>
      </trkpt>
      <trkpt lat="43.95317" lon="2.36187">
        <ele>430</ele>
        <time>2021-04-18T12:19:53Z</time>
      </trkpt>
      <trkpt lat="43.95316" lon="2.36189">
        <ele>430</ele>
        <time>2021-04-18T12:19:54Z</time>
      </trkpt>
      <trkpt lat="43.95315" lon="2.3619">
        <ele>431</ele>
        <time>2021-04-18T12:19:55Z</time>
      </trkpt>
      <trkpt lat="43.95313" lon="2.36192">
        <ele>430</ele>
        <time>2021-04-18T12:19:56Z</time>
      </trkpt>
      <trkpt lat="43.95312" lon="2.36195">
        <ele>430</ele>
        <time>2021-04-18T12:19:57Z</time>
      </trkpt>
      <trkpt lat="43.95312" lon="2.36196">
        <ele>431</ele>
        <time>2021-04-18T12:19:58Z</time>
      </trkpt>
      <trkpt lat="43.95312" lon="2.36197">
        <ele>430</ele>
        <time>2021-04-18T12:19:59Z</time>
      </trkpt>
      <trkpt lat="43.95311" lon="2.36199">
        <ele>429</ele>
        <time>2021-04-18T12:20:00Z</time>
      </trkpt>
      <trkpt lat="43.95311" lon="2.36201">
        <ele>429</ele>
        <time>2021-04-18T12:20:01Z</time>
      </trkpt>
      <trkpt lat="43.9531" lon="2.36203">
        <ele>429</ele>
        <time>2021-04-18T12:20:02Z</time>
      </trkpt>
      <trkpt lat="43.95309" lon="2.36206">
        <ele>429</ele>
        <time>2021-04-18T12:20:03Z</time>
      </trkpt>
      <trkpt lat="43.95309" lon="2.36208">
        <ele>429</ele>
        <time>2021-04-18T12:20:04Z</time>
      </trkpt>
      <trkpt lat="43.95308" lon="2.3621">
        <ele>430</ele>
        <time>2021-04-18T12:20:05Z</time>
      </trkpt>
      <trkpt lat="43.95307" lon="2.36211">
        <ele>430</ele>
        <time>2021-04-18T12:20:06Z</time>
      </trkpt>
      <trkpt lat="43.95306" lon="2.36212">
        <ele>430</ele>
        <time>2021-04-18T12:20:07Z</time>
      </trkpt>
      <trkpt lat="43.95305" lon="2.36213">
        <ele>430</ele>
        <time>2021-04-18T12:20:08Z</time>
      </trkpt>
      <trkpt lat="43.95305" lon="2.36214">
        <ele>430</ele>
        <time>2021-04-18T12:20:09Z</time>
      </trkpt>
      <trkpt lat="43.95305" lon="2.36216">
        <ele>430</ele>
        <time>2021-04-18T12:20:10Z</time>
      </trkpt>
      <trkpt lat="43.95304" lon="2.36218">
        <ele>429</ele>
        <time>2021-04-18T12:20:11Z</time>
      </trkpt>
      <trkpt lat="43.95304" lon="2.3622">
        <ele>430</ele>
        <time>2021-04-18T12:20:12Z</time>
      </trkpt>
      <trkpt lat="43.95303" lon="2.36222">
        <ele>430</ele>
        <time>2021-04-18T12:20:13Z</time>
      </trkpt>
      <trkpt lat="43.95303" lon="2.36223">
        <ele>429</ele>
        <time>2021-04-18T12:20:14Z</time>
      </trkpt>
      <trkpt lat="43.95301" lon="2.36224">
        <ele>429</ele>
        <time>2021-04-18T12:20:15Z</time>
      </trkpt>
      <trkpt lat="43.953" lon="2.36225">
        <ele>428</ele>
        <time>2021-04-18T12:20:16Z</time>
      </trkpt>
      <trkpt lat="43.95299" lon="2.36226">
        <ele>428</ele>
        <time>2021-04-18T12:20:17Z</time>
      </trkpt>
      <trkpt lat="43.95298" lon="2.36228">
        <ele>427</ele>
        <time>2021-04-18T12:20:18Z</time>
      </trkpt>
      <trkpt lat="43.95297" lon="2.3623">
        <ele>427</ele>
        <time>2021-04-18T12:20:19Z</time>
      </trkpt>
      <trkpt lat="43.95297" lon="2.36231">
        <ele>426</ele>
        <time>2021-04-18T12:20:20Z</time>
      </trkpt>
      <trkpt lat="43.95296" lon="2.36232">
        <ele>426</ele>
        <time>2021-04-18T12:20:21Z</time>
      </trkpt>
      <trkpt lat="43.95295" lon="2.36234">
        <ele>425</ele>
        <time>2021-04-18T12:20:22Z</time>
      </trkpt>
      <trkpt lat="43.95294" lon="2.36236">
        <ele>425</ele>
        <time>2021-04-18T12:20:23Z</time>
      </trkpt>
      <trkpt lat="43.95293" lon="2.36238">
        <ele>425</ele>
        <time>2021-04-18T12:20:24Z</time>
      </trkpt>
      <trkpt lat="43.95292" lon="2.36239">
        <ele>425</ele>
        <time>2021-04-18T12:20:25Z</time>
      </trkpt>
      <trkpt lat="43.95291" lon="2.3624">
        <ele>425</ele>
        <time>2021-04-18T12:20:26Z</time>
      </trkpt>
      <trkpt lat="43.95289" lon="2.36241">
        <ele>424</ele>
        <time>2021-04-18T12:20:27Z</time>
      </trkpt>
      <trkpt lat="43.95288" lon="2.36242">
        <ele>424</ele>
        <time>2021-04-18T12:20:28Z</time>
      </trkpt>
      <trkpt lat="43.95286" lon="2.36243">
        <ele>425</ele>
        <time>2021-04-18T12:20:29Z</time>
      </trkpt>
      <trkpt lat="43.95284" lon="2.36244">
        <ele>425</ele>
        <time>2021-04-18T12:20:30Z</time>
      </trkpt>
      <trkpt lat="43.95282" lon="2.36245">
        <ele>425</ele>
        <time>2021-04-18T12:20:31Z</time>
      </trkpt>
      <trkpt lat="43.95281" lon="2.36246">
        <ele>425</ele>
        <time>2021-04-18T12:20:32Z</time>
      </trkpt>
      <trkpt lat="43.9528" lon="2.36247">
        <ele>424</ele>
        <time>2021-04-18T12:20:33Z</time>
      </trkpt>
      <trkpt lat="43.95279" lon="2.36247">
        <ele>424</ele>
        <time>2021-04-18T12:20:34Z</time>
      </trkpt>
      <trkpt lat="43.95277" lon="2.36248">
        <ele>424</ele>
        <time>2021-04-18T12:20:35Z</time>
      </trkpt>
      <trkpt lat="43.95276" lon="2.36248">
        <ele>424</ele>
        <time>2021-04-18T12:20:36Z</time>
      </trkpt>
      <trkpt lat="43.95275" lon="2.36248">
        <ele>424</ele>
        <time>2021-04-18T12:20:37Z</time>
      </trkpt>
      <trkpt lat="43.95274" lon="2.36249">
        <ele>424</ele>
        <time>2021-04-18T12:20:38Z</time>
      </trkpt>
      <trkpt lat="43.95274" lon="2.36249">
        <ele>424</ele>
        <time>2021-04-18T12:20:39Z</time>
      </trkpt>
      <trkpt lat="43.95273" lon="2.3625">
        <ele>424</ele>
        <time>2021-04-18T12:20:40Z</time>
      </trkpt>
      <trkpt lat="43.95272" lon="2.3625">
        <ele>424</ele>
        <time>2021-04-18T12:20:41Z</time>
      </trkpt>
      <trkpt lat="43.9527" lon="2.36249">
        <ele>424</ele>
        <time>2021-04-18T12:20:42Z</time>
      </trkpt>
      <trkpt lat="43.95269" lon="2.36249">
        <ele>424</ele>
        <time>2021-04-18T12:20:43Z</time>
      </trkpt>
      <trkpt lat="43.95268" lon="2.36249">
        <ele>424</ele>
        <time>2021-04-18T12:20:44Z</time>
      </trkpt>
      <trkpt lat="43.95267" lon="2.36249">
        <ele>424</ele>
        <time>2021-04-18T12:20:45Z</time>
      </trkpt>
      <trkpt lat="43.95266" lon="2.36249">
        <ele>424</ele>
        <time>2021-04-18T12:20:46Z</time>
      </trkpt>
      <trkpt lat="43.95264" lon="2.36249">
        <ele>424</ele>
        <time>2021-04-18T12:20:47Z</time>
      </trkpt>
      <trkpt lat="43.95262" lon="2.36248">
        <ele>424</ele>
        <time>2021-04-18T12:20:48Z</time>
      </trkpt>
      <trkpt lat="43.95261" lon="2.36248">
        <ele>424</ele>
        <time>2021-04-18T12:20:49Z</time>
      </trkpt>
      <trkpt lat="43.9526" lon="2.36249">
        <ele>424</ele>
        <time>2021-04-18T12:20:50Z</time>
      </trkpt>
      <trkpt lat="43.95258" lon="2.36249">
        <ele>423</ele>
        <time>2021-04-18T12:20:51Z</time>
      </trkpt>
      <trkpt lat="43.95257" lon="2.36249">
        <ele>423</ele>
        <time>2021-04-18T12:20:52Z</time>
      </trkpt>
      <trkpt lat="43.95255" lon="2.3625">
        <ele>423</ele>
        <time>2021-04-18T12:20:53Z</time>
      </trkpt>
      <trkpt lat="43.95254" lon="2.3625">
        <ele>424</ele>
        <time>2021-04-18T12:20:54Z</time>
      </trkpt>
      <trkpt lat="43.95253" lon="2.36251">
        <ele>424</ele>
        <time>2021-04-18T12:20:55Z</time>
      </trkpt>
      <trkpt lat="43.95252" lon="2.36251">
        <ele>424</ele>
        <time>2021-04-18T12:20:56Z</time>
      </trkpt>
      <trkpt lat="43.9525" lon="2.36252">
        <ele>425</ele>
        <time>2021-04-18T12:20:57Z</time>
      </trkpt>
      <trkpt lat="43.95248" lon="2.36252">
        <ele>425</ele>
        <time>2021-04-18T12:20:58Z</time>
      </trkpt>
      <trkpt lat="43.95247" lon="2.36253">
        <ele>425</ele>
        <time>2021-04-18T12:20:59Z</time>
      </trkpt>
      <trkpt lat="43.95245" lon="2.36253">
        <ele>425</ele>
        <time>2021-04-18T12:21:00Z</time>
      </trkpt>
      <trkpt lat="43.95244" lon="2.36254">
        <ele>424</ele>
        <time>2021-04-18T12:21:01Z</time>
      </trkpt>
      <trkpt lat="43.95243" lon="2.36255">
        <ele>424</ele>
        <time>2021-04-18T12:21:02Z</time>
      </trkpt>
      <trkpt lat="43.95242" lon="2.36254">
        <ele>424</ele>
        <time>2021-04-18T12:21:03Z</time>
      </trkpt>
      <trkpt lat="43.95242" lon="2.36254">
        <ele>424</ele>
        <time>2021-04-18T12:21:04Z</time>
      </trkpt>
      <trkpt lat="43.95241" lon="2.36254">
        <ele>425</ele>
        <time>2021-04-18T12:21:05Z</time>
      </trkpt>
      <trkpt lat="43.9524" lon="2.36254">
        <ele>425</ele>
        <time>2021-04-18T12:21:06Z</time>
      </trkpt>
      <trkpt lat="43.95239" lon="2.36254">
        <ele>425</ele>
        <time>2021-04-18T12:21:07Z</time>
      </trkpt>
      <trkpt lat="43.95239" lon="2.36254">
        <ele>425</ele>
        <time>2021-04-18T12:21:08Z</time>
      </trkpt>
      <trkpt lat="43.95238" lon="2.36254">
        <ele>426</ele>
        <time>2021-04-18T12:21:09Z</time>
      </trkpt>
      <trkpt lat="43.95237" lon="2.36253">
        <ele>425</ele>
        <time>2021-04-18T12:21:10Z</time>
      </trkpt>
      <trkpt lat="43.95236" lon="2.36254">
        <ele>425</ele>
        <time>2021-04-18T12:21:11Z</time>
      </trkpt>
      <trkpt lat="43.95235" lon="2.36254">
        <ele>425</ele>
        <time>2021-04-18T12:21:12Z</time>
      </trkpt>
      <trkpt lat="43.95233" lon="2.36254">
        <ele>425</ele>
        <time>2021-04-18T12:21:13Z</time>
      </trkpt>
      <trkpt lat="43.95232" lon="2.36254">
        <ele>425</ele>
        <time>2021-04-18T12:21:14Z</time>
      </trkpt>
      <trkpt lat="43.95231" lon="2.36254">
        <ele>425</ele>
        <time>2021-04-18T12:21:15Z</time>
      </trkpt>
      <trkpt lat="43.95229" lon="2.36254">
        <ele>424</ele>
        <time>2021-04-18T12:21:16Z</time>
      </trkpt>
      <trkpt lat="43.95229" lon="2.36254">
        <ele>424</ele>
        <time>2021-04-18T12:21:17Z</time>
      </trkpt>
      <trkpt lat="43.95227" lon="2.36254">
        <ele>424</ele>
        <time>2021-04-18T12:21:18Z</time>
      </trkpt>
      <trkpt lat="43.95227" lon="2.36253">
        <ele>424</ele>
        <time>2021-04-18T12:21:19Z</time>
      </trkpt>
      <trkpt lat="43.95226" lon="2.36253">
        <ele>424</ele>
        <time>2021-04-18T12:21:20Z</time>
      </trkpt>
      <trkpt lat="43.95226" lon="2.36253">
        <ele>424</ele>
        <time>2021-04-18T12:21:21Z</time>
      </trkpt>
      <trkpt lat="43.95226" lon="2.36253">
        <ele>424</ele>
        <time>2021-04-18T12:21:22Z</time>
      </trkpt>
      <trkpt lat="43.95223" lon="2.3625">
        <ele>422</ele>
        <time>2021-04-18T12:21:23Z</time>
      </trkpt>
      <trkpt lat="43.95222" lon="2.36249">
        <ele>422</ele>
        <time>2021-04-18T12:21:24Z</time>
      </trkpt>
      <trkpt lat="43.95221" lon="2.36248">
        <ele>423</ele>
        <time>2021-04-18T12:21:25Z</time>
      </trkpt>
      <trkpt lat="43.9522" lon="2.36247">
        <ele>422</ele>
        <time>2021-04-18T12:21:26Z</time>
      </trkpt>
      <trkpt lat="43.95219" lon="2.36247">
        <ele>421</ele>
        <time>2021-04-18T12:21:27Z</time>
      </trkpt>
      <trkpt lat="43.95217" lon="2.36247">
        <ele>421</ele>
        <time>2021-04-18T12:21:28Z</time>
      </trkpt>
      <trkpt lat="43.95216" lon="2.36246">
        <ele>421</ele>
        <time>2021-04-18T12:21:29Z</time>
      </trkpt>
      <trkpt lat="43.95215" lon="2.36246">
        <ele>421</ele>
        <time>2021-04-18T12:21:30Z</time>
      </trkpt>
      <trkpt lat="43.95213" lon="2.36246">
        <ele>420</ele>
        <time>2021-04-18T12:21:31Z</time>
      </trkpt>
      <trkpt lat="43.9521" lon="2.36247">
        <ele>420</ele>
        <time>2021-04-18T12:21:32Z</time>
      </trkpt>
      <trkpt lat="43.95208" lon="2.36247">
        <ele>420</ele>
        <time>2021-04-18T12:21:33Z</time>
      </trkpt>
      <trkpt lat="43.95207" lon="2.36248">
        <ele>420</ele>
        <time>2021-04-18T12:21:34Z</time>
      </trkpt>
      <trkpt lat="43.95205" lon="2.36248">
        <ele>420</ele>
        <time>2021-04-18T12:21:35Z</time>
      </trkpt>
      <trkpt lat="43.95203" lon="2.36249">
        <ele>420</ele>
        <time>2021-04-18T12:21:36Z</time>
      </trkpt>
      <trkpt lat="43.95202" lon="2.3625">
        <ele>420</ele>
        <time>2021-04-18T12:21:37Z</time>
      </trkpt>
      <trkpt lat="43.952" lon="2.36252">
        <ele>420</ele>
        <time>2021-04-18T12:21:38Z</time>
      </trkpt>
      <trkpt lat="43.95199" lon="2.36253">
        <ele>420</ele>
        <time>2021-04-18T12:21:39Z</time>
      </trkpt>
      <trkpt lat="43.95198" lon="2.36254">
        <ele>419</ele>
        <time>2021-04-18T12:21:40Z</time>
      </trkpt>
      <trkpt lat="43.95197" lon="2.36255">
        <ele>418</ele>
        <time>2021-04-18T12:21:41Z</time>
      </trkpt>
      <trkpt lat="43.95196" lon="2.36257">
        <ele>418</ele>
        <time>2021-04-18T12:21:42Z</time>
      </trkpt>
      <trkpt lat="43.95195" lon="2.36258">
        <ele>418</ele>
        <time>2021-04-18T12:21:43Z</time>
      </trkpt>
      <trkpt lat="43.95194" lon="2.36258">
        <ele>418</ele>
        <time>2021-04-18T12:21:44Z</time>
      </trkpt>
      <trkpt lat="43.95193" lon="2.36258">
        <ele>417</ele>
        <time>2021-04-18T12:21:45Z</time>
      </trkpt>
      <trkpt lat="43.95192" lon="2.36259">
        <ele>416</ele>
        <time>2021-04-18T12:21:46Z</time>
      </trkpt>
      <trkpt lat="43.9519" lon="2.3626">
        <ele>415</ele>
        <time>2021-04-18T12:21:47Z</time>
      </trkpt>
      <trkpt lat="43.95189" lon="2.36261">
        <ele>414</ele>
        <time>2021-04-18T12:21:48Z</time>
      </trkpt>
      <trkpt lat="43.95187" lon="2.36262">
        <ele>413</ele>
        <time>2021-04-18T12:21:49Z</time>
      </trkpt>
      <trkpt lat="43.95186" lon="2.36264">
        <ele>412</ele>
        <time>2021-04-18T12:21:50Z</time>
      </trkpt>
      <trkpt lat="43.95185" lon="2.36264">
        <ele>411</ele>
        <time>2021-04-18T12:21:51Z</time>
      </trkpt>
      <trkpt lat="43.95184" lon="2.36265">
        <ele>411</ele>
        <time>2021-04-18T12:21:52Z</time>
      </trkpt>
      <trkpt lat="43.95182" lon="2.36265">
        <ele>411</ele>
        <time>2021-04-18T12:21:53Z</time>
      </trkpt>
      <trkpt lat="43.95181" lon="2.36265">
        <ele>410</ele>
        <time>2021-04-18T12:21:54Z</time>
      </trkpt>
      <trkpt lat="43.95179" lon="2.36266">
        <ele>409</ele>
        <time>2021-04-18T12:21:55Z</time>
      </trkpt>
      <trkpt lat="43.95178" lon="2.36267">
        <ele>409</ele>
        <time>2021-04-18T12:21:56Z</time>
      </trkpt>
      <trkpt lat="43.95178" lon="2.36267">
        <ele>409</ele>
        <time>2021-04-18T12:21:57Z</time>
      </trkpt>
      <trkpt lat="43.95176" lon="2.36267">
        <ele>408</ele>
        <time>2021-04-18T12:21:58Z</time>
      </trkpt>
      <trkpt lat="43.95174" lon="2.36268">
        <ele>407</ele>
        <time>2021-04-18T12:21:59Z</time>
      </trkpt>
      <trkpt lat="43.95173" lon="2.36268">
        <ele>406</ele>
        <time>2021-04-18T12:22:00Z</time>
      </trkpt>
      <trkpt lat="43.95172" lon="2.36267">
        <ele>406</ele>
        <time>2021-04-18T12:22:01Z</time>
      </trkpt>
      <trkpt lat="43.95171" lon="2.36268">
        <ele>406</ele>
        <time>2021-04-18T12:22:02Z</time>
      </trkpt>
      <trkpt lat="43.9517" lon="2.36269">
        <ele>405</ele>
        <time>2021-04-18T12:22:03Z</time>
      </trkpt>
      <trkpt lat="43.95169" lon="2.3627">
        <ele>405</ele>
        <time>2021-04-18T12:22:04Z</time>
      </trkpt>
      <trkpt lat="43.95167" lon="2.3627">
        <ele>405</ele>
        <time>2021-04-18T12:22:05Z</time>
      </trkpt>
      <trkpt lat="43.95166" lon="2.36271">
        <ele>404</ele>
        <time>2021-04-18T12:22:06Z</time>
      </trkpt>
      <trkpt lat="43.95165" lon="2.36271">
        <ele>404</ele>
        <time>2021-04-18T12:22:07Z</time>
      </trkpt>
      <trkpt lat="43.95164" lon="2.36272">
        <ele>404</ele>
        <time>2021-04-18T12:22:08Z</time>
      </trkpt>
      <trkpt lat="43.95163" lon="2.36273">
        <ele>404</ele>
        <time>2021-04-18T12:22:09Z</time>
      </trkpt>
      <trkpt lat="43.95162" lon="2.36274">
        <ele>403</ele>
        <time>2021-04-18T12:22:10Z</time>
      </trkpt>
      <trkpt lat="43.95161" lon="2.36274">
        <ele>403</ele>
        <time>2021-04-18T12:22:11Z</time>
      </trkpt>
      <trkpt lat="43.95161" lon="2.36274">
        <ele>403</ele>
        <time>2021-04-18T12:22:12Z</time>
      </trkpt>
      <trkpt lat="43.9516" lon="2.36275">
        <ele>403</ele>
        <time>2021-04-18T12:22:13Z</time>
      </trkpt>
      <trkpt lat="43.95158" lon="2.36276">
        <ele>403</ele>
        <time>2021-04-18T12:22:14Z</time>
      </trkpt>
      <trkpt lat="43.95158" lon="2.36277">
        <ele>403</ele>
        <time>2021-04-18T12:22:15Z</time>
      </trkpt>
      <trkpt lat="43.95157" lon="2.36277">
        <ele>403</ele>
        <time>2021-04-18T12:22:16Z</time>
      </trkpt>
      <trkpt lat="43.95157" lon="2.36279">
        <ele>403</ele>
        <time>2021-04-18T12:22:17Z</time>
      </trkpt>
      <trkpt lat="43.95155" lon="2.36279">
        <ele>403</ele>
        <time>2021-04-18T12:22:18Z</time>
      </trkpt>
      <trkpt lat="43.95154" lon="2.3628">
        <ele>403</ele>
        <time>2021-04-18T12:22:19Z</time>
      </trkpt>
      <trkpt lat="43.95153" lon="2.36282">
        <ele>402</ele>
        <time>2021-04-18T12:22:20Z</time>
      </trkpt>
      <trkpt lat="43.95153" lon="2.36283">
        <ele>402</ele>
        <time>2021-04-18T12:22:21Z</time>
      </trkpt>
      <trkpt lat="43.95152" lon="2.36284">
        <ele>402</ele>
        <time>2021-04-18T12:22:22Z</time>
      </trkpt>
      <trkpt lat="43.95151" lon="2.36284">
        <ele>401</ele>
        <time>2021-04-18T12:22:23Z</time>
      </trkpt>
      <trkpt lat="43.9515" lon="2.36285">
        <ele>401</ele>
        <time>2021-04-18T12:22:24Z</time>
      </trkpt>
      <trkpt lat="43.95149" lon="2.36285">
        <ele>401</ele>
        <time>2021-04-18T12:22:25Z</time>
      </trkpt>
      <trkpt lat="43.95147" lon="2.36286">
        <ele>400</ele>
        <time>2021-04-18T12:22:26Z</time>
      </trkpt>
      <trkpt lat="43.95146" lon="2.36288">
        <ele>400</ele>
        <time>2021-04-18T12:22:27Z</time>
      </trkpt>
      <trkpt lat="43.95145" lon="2.36289">
        <ele>400</ele>
        <time>2021-04-18T12:22:28Z</time>
      </trkpt>
      <trkpt lat="43.95144" lon="2.3629">
        <ele>399</ele>
        <time>2021-04-18T12:22:29Z</time>
      </trkpt>
      <trkpt lat="43.95143" lon="2.3629">
        <ele>399</ele>
        <time>2021-04-18T12:22:30Z</time>
      </trkpt>
      <trkpt lat="43.95142" lon="2.36291">
        <ele>399</ele>
        <time>2021-04-18T12:22:31Z</time>
      </trkpt>
      <trkpt lat="43.9514" lon="2.36291">
        <ele>399</ele>
        <time>2021-04-18T12:22:32Z</time>
      </trkpt>
      <trkpt lat="43.95139" lon="2.36292">
        <ele>399</ele>
        <time>2021-04-18T12:22:33Z</time>
      </trkpt>
      <trkpt lat="43.95138" lon="2.36293">
        <ele>399</ele>
        <time>2021-04-18T12:22:34Z</time>
      </trkpt>
      <trkpt lat="43.95137" lon="2.36294">
        <ele>399</ele>
        <time>2021-04-18T12:22:35Z</time>
      </trkpt>
      <trkpt lat="43.95135" lon="2.36295">
        <ele>399</ele>
        <time>2021-04-18T12:22:36Z</time>
      </trkpt>
      <trkpt lat="43.95134" lon="2.36296">
        <ele>398</ele>
        <time>2021-04-18T12:22:37Z</time>
      </trkpt>
      <trkpt lat="43.95132" lon="2.36298">
        <ele>398</ele>
        <time>2021-04-18T12:22:38Z</time>
      </trkpt>
      <trkpt lat="43.95131" lon="2.36298">
        <ele>398</ele>
        <time>2021-04-18T12:22:39Z</time>
      </trkpt>
      <trkpt lat="43.95129" lon="2.36299">
        <ele>397</ele>
        <time>2021-04-18T12:22:40Z</time>
      </trkpt>
      <trkpt lat="43.95128" lon="2.363">
        <ele>397</ele>
        <time>2021-04-18T12:22:41Z</time>
      </trkpt>
      <trkpt lat="43.95127" lon="2.36301">
        <ele>396</ele>
        <time>2021-04-18T12:22:42Z</time>
      </trkpt>
      <trkpt lat="43.95126" lon="2.36302">
        <ele>396</ele>
        <time>2021-04-18T12:22:43Z</time>
      </trkpt>
      <trkpt lat="43.95124" lon="2.36303">
        <ele>395</ele>
        <time>2021-04-18T12:22:44Z</time>
      </trkpt>
      <trkpt lat="43.95123" lon="2.36303">
        <ele>395</ele>
        <time>2021-04-18T12:22:45Z</time>
      </trkpt>
      <trkpt lat="43.95121" lon="2.36304">
        <ele>395</ele>
        <time>2021-04-18T12:22:46Z</time>
      </trkpt>
      <trkpt lat="43.9512" lon="2.36305">
        <ele>395</ele>
        <time>2021-04-18T12:22:47Z</time>
      </trkpt>
      <trkpt lat="43.95118" lon="2.36305">
        <ele>394</ele>
        <time>2021-04-18T12:22:48Z</time>
      </trkpt>
      <trkpt lat="43.95117" lon="2.36305">
        <ele>395</ele>
        <time>2021-04-18T12:22:49Z</time>
      </trkpt>
      <trkpt lat="43.95115" lon="2.36306">
        <ele>394</ele>
        <time>2021-04-18T12:22:50Z</time>
      </trkpt>
      <trkpt lat="43.95113" lon="2.36307">
        <ele>394</ele>
        <time>2021-04-18T12:22:51Z</time>
      </trkpt>
      <trkpt lat="43.95112" lon="2.36308">
        <ele>394</ele>
        <time>2021-04-18T12:22:52Z</time>
      </trkpt>
      <trkpt lat="43.95111" lon="2.36308">
        <ele>395</ele>
        <time>2021-04-18T12:22:53Z</time>
      </trkpt>
      <trkpt lat="43.95111" lon="2.36308">
        <ele>395</ele>
        <time>2021-04-18T12:22:54Z</time>
      </trkpt>
      <trkpt lat="43.9511" lon="2.36309">
        <ele>394</ele>
        <time>2021-04-18T12:22:55Z</time>
      </trkpt>
      <trkpt lat="43.95108" lon="2.3631">
        <ele>394</ele>
        <time>2021-04-18T12:22:56Z</time>
      </trkpt>
      <trkpt lat="43.95108" lon="2.3631">
        <ele>394</ele>
        <time>2021-04-18T12:22:57Z</time>
      </trkpt>
      <trkpt lat="43.95107" lon="2.36311">
        <ele>395</ele>
        <time>2021-04-18T12:22:58Z</time>
      </trkpt>
      <trkpt lat="43.95107" lon="2.36311">
        <ele>395</ele>
        <time>2021-04-18T12:22:59Z</time>
      </trkpt>
      <trkpt lat="43.95106" lon="2.3631">
        <ele>395</ele>
        <time>2021-04-18T12:23:00Z</time>
      </trkpt>
      <trkpt lat="43.95105" lon="2.3631">
        <ele>394</ele>
        <time>2021-04-18T12:23:01Z</time>
      </trkpt>
      <trkpt lat="43.95104" lon="2.36309">
        <ele>395</ele>
        <time>2021-04-18T12:23:02Z</time>
      </trkpt>
      <trkpt lat="43.95103" lon="2.3631">
        <ele>395</ele>
        <time>2021-04-18T12:23:03Z</time>
      </trkpt>
      <trkpt lat="43.95102" lon="2.3631">
        <ele>396</ele>
        <time>2021-04-18T12:23:04Z</time>
      </trkpt>
      <trkpt lat="43.95102" lon="2.3631">
        <ele>395</ele>
        <time>2021-04-18T12:23:05Z</time>
      </trkpt>
      <trkpt lat="43.95101" lon="2.36308">
        <ele>395</ele>
        <time>2021-04-18T12:23:06Z</time>
      </trkpt>
      <trkpt lat="43.951" lon="2.36308">
        <ele>395</ele>
        <time>2021-04-18T12:23:07Z</time>
      </trkpt>
      <trkpt lat="43.95099" lon="2.36308">
        <ele>395</ele>
        <time>2021-04-18T12:23:08Z</time>
      </trkpt>
      <trkpt lat="43.95099" lon="2.36307">
        <ele>394</ele>
        <time>2021-04-18T12:23:09Z</time>
      </trkpt>
      <trkpt lat="43.95098" lon="2.36306">
        <ele>394</ele>
        <time>2021-04-18T12:23:10Z</time>
      </trkpt>
      <trkpt lat="43.95097" lon="2.36305">
        <ele>394</ele>
        <time>2021-04-18T12:23:11Z</time>
      </trkpt>
      <trkpt lat="43.95096" lon="2.36303">
        <ele>394</ele>
        <time>2021-04-18T12:23:12Z</time>
      </trkpt>
      <trkpt lat="43.95094" lon="2.36302">
        <ele>394</ele>
        <time>2021-04-18T12:23:13Z</time>
      </trkpt>
      <trkpt lat="43.95094" lon="2.36301">
        <ele>394</ele>
        <time>2021-04-18T12:23:14Z</time>
      </trkpt>
      <trkpt lat="43.95093" lon="2.36299">
        <ele>394</ele>
        <time>2021-04-18T12:23:15Z</time>
      </trkpt>
      <trkpt lat="43.95092" lon="2.36299">
        <ele>393</ele>
        <time>2021-04-18T12:23:16Z</time>
      </trkpt>
      <trkpt lat="43.95091" lon="2.36298">
        <ele>393</ele>
        <time>2021-04-18T12:23:17Z</time>
      </trkpt>
      <trkpt lat="43.9509" lon="2.36297">
        <ele>393</ele>
        <time>2021-04-18T12:23:18Z</time>
      </trkpt>
      <trkpt lat="43.95089" lon="2.36296">
        <ele>392</ele>
        <time>2021-04-18T12:23:19Z</time>
      </trkpt>
      <trkpt lat="43.95088" lon="2.36297">
        <ele>392</ele>
        <time>2021-04-18T12:23:20Z</time>
      </trkpt>
      <trkpt lat="43.95086" lon="2.36298">
        <ele>391</ele>
        <time>2021-04-18T12:23:21Z</time>
      </trkpt>
      <trkpt lat="43.95085" lon="2.363">
        <ele>391</ele>
        <time>2021-04-18T12:23:22Z</time>
      </trkpt>
      <trkpt lat="43.95084" lon="2.36301">
        <ele>391</ele>
        <time>2021-04-18T12:23:23Z</time>
      </trkpt>
      <trkpt lat="43.95083" lon="2.36302">
        <ele>391</ele>
        <time>2021-04-18T12:23:24Z</time>
      </trkpt>
      <trkpt lat="43.95082" lon="2.36304">
        <ele>391</ele>
        <time>2021-04-18T12:23:25Z</time>
      </trkpt>
      <trkpt lat="43.95081" lon="2.36305">
        <ele>392</ele>
        <time>2021-04-18T12:23:26Z</time>
      </trkpt>
      <trkpt lat="43.9508" lon="2.36307">
        <ele>392</ele>
        <time>2021-04-18T12:23:27Z</time>
      </trkpt>
      <trkpt lat="43.95079" lon="2.36308">
        <ele>392</ele>
        <time>2021-04-18T12:23:28Z</time>
      </trkpt>
      <trkpt lat="43.95078" lon="2.3631">
        <ele>392</ele>
        <time>2021-04-18T12:23:29Z</time>
      </trkpt>
      <trkpt lat="43.95078" lon="2.36312">
        <ele>391</ele>
        <time>2021-04-18T12:23:30Z</time>
      </trkpt>
      <trkpt lat="43.95077" lon="2.36314">
        <ele>391</ele>
        <time>2021-04-18T12:23:31Z</time>
      </trkpt>
      <trkpt lat="43.95076" lon="2.36316">
        <ele>391</ele>
        <time>2021-04-18T12:23:32Z</time>
      </trkpt>
      <trkpt lat="43.95075" lon="2.36318">
        <ele>391</ele>
        <time>2021-04-18T12:23:33Z</time>
      </trkpt>
      <trkpt lat="43.95075" lon="2.36319">
        <ele>391</ele>
        <time>2021-04-18T12:23:34Z</time>
      </trkpt>
      <trkpt lat="43.95073" lon="2.36321">
        <ele>391</ele>
        <time>2021-04-18T12:23:35Z</time>
      </trkpt>
      <trkpt lat="43.95072" lon="2.36324">
        <ele>391</ele>
        <time>2021-04-18T12:23:36Z</time>
      </trkpt>
      <trkpt lat="43.95071" lon="2.36326">
        <ele>391</ele>
        <time>2021-04-18T12:23:37Z</time>
      </trkpt>
      <trkpt lat="43.9507" lon="2.36328">
        <ele>391</ele>
        <time>2021-04-18T12:23:38Z</time>
      </trkpt>
      <trkpt lat="43.9507" lon="2.3633">
        <ele>391</ele>
        <time>2021-04-18T12:23:39Z</time>
      </trkpt>
      <trkpt lat="43.95069" lon="2.36332">
        <ele>390</ele>
        <time>2021-04-18T12:23:40Z</time>
      </trkpt>
      <trkpt lat="43.95068" lon="2.36333">
        <ele>390</ele>
        <time>2021-04-18T12:23:41Z</time>
      </trkpt>
      <trkpt lat="43.95067" lon="2.36335">
        <ele>390</ele>
        <time>2021-04-18T12:23:42Z</time>
      </trkpt>
      <trkpt lat="43.95066" lon="2.36337">
        <ele>389</ele>
        <time>2021-04-18T12:23:43Z</time>
      </trkpt>
      <trkpt lat="43.95065" lon="2.36339">
        <ele>389</ele>
        <time>2021-04-18T12:23:44Z</time>
      </trkpt>
      <trkpt lat="43.95065" lon="2.36342">
        <ele>389</ele>
        <time>2021-04-18T12:23:45Z</time>
      </trkpt>
      <trkpt lat="43.95064" lon="2.36343">
        <ele>388</ele>
        <time>2021-04-18T12:23:46Z</time>
      </trkpt>
      <trkpt lat="43.95063" lon="2.36345">
        <ele>388</ele>
        <time>2021-04-18T12:23:47Z</time>
      </trkpt>
      <trkpt lat="43.95062" lon="2.36346">
        <ele>388</ele>
        <time>2021-04-18T12:23:48Z</time>
      </trkpt>
      <trkpt lat="43.95062" lon="2.36346">
        <ele>387</ele>
        <time>2021-04-18T12:23:49Z</time>
      </trkpt>
      <trkpt lat="43.95061" lon="2.36348">
        <ele>387</ele>
        <time>2021-04-18T12:23:50Z</time>
      </trkpt>
      <trkpt lat="43.9506" lon="2.36349">
        <ele>388</ele>
        <time>2021-04-18T12:23:51Z</time>
      </trkpt>
      <trkpt lat="43.95059" lon="2.3635">
        <ele>387</ele>
        <time>2021-04-18T12:23:52Z</time>
      </trkpt>
      <trkpt lat="43.95058" lon="2.36351">
        <ele>387</ele>
        <time>2021-04-18T12:23:53Z</time>
      </trkpt>
      <trkpt lat="43.95058" lon="2.36352">
        <ele>386</ele>
        <time>2021-04-18T12:23:54Z</time>
      </trkpt>
      <trkpt lat="43.95057" lon="2.36354">
        <ele>385</ele>
        <time>2021-04-18T12:23:55Z</time>
      </trkpt>
      <trkpt lat="43.95057" lon="2.36355">
        <ele>385</ele>
        <time>2021-04-18T12:23:56Z</time>
      </trkpt>
      <trkpt lat="43.95056" lon="2.36355">
        <ele>385</ele>
        <time>2021-04-18T12:23:57Z</time>
      </trkpt>
      <trkpt lat="43.95055" lon="2.36356">
        <ele>385</ele>
        <time>2021-04-18T12:23:58Z</time>
      </trkpt>
      <trkpt lat="43.95054" lon="2.36357">
        <ele>385</ele>
        <time>2021-04-18T12:23:59Z</time>
      </trkpt>
      <trkpt lat="43.95054" lon="2.36358">
        <ele>385</ele>
        <time>2021-04-18T12:24:00Z</time>
      </trkpt>
      <trkpt lat="43.95052" lon="2.3636">
        <ele>385</ele>
        <time>2021-04-18T12:24:01Z</time>
      </trkpt>
      <trkpt lat="43.95051" lon="2.36361">
        <ele>385</ele>
        <time>2021-04-18T12:24:02Z</time>
      </trkpt>
      <trkpt lat="43.95049" lon="2.36363">
        <ele>385</ele>
        <time>2021-04-18T12:24:03Z</time>
      </trkpt>
      <trkpt lat="43.95048" lon="2.36364">
        <ele>385</ele>
        <time>2021-04-18T12:24:04Z</time>
      </trkpt>
      <trkpt lat="43.95047" lon="2.36366">
        <ele>386</ele>
        <time>2021-04-18T12:24:05Z</time>
      </trkpt>
      <trkpt lat="43.95046" lon="2.36367">
        <ele>385</ele>
        <time>2021-04-18T12:24:06Z</time>
      </trkpt>
      <trkpt lat="43.95044" lon="2.36368">
        <ele>385</ele>
        <time>2021-04-18T12:24:07Z</time>
      </trkpt>
      <trkpt lat="43.95043" lon="2.3637">
        <ele>385</ele>
        <time>2021-04-18T12:24:08Z</time>
      </trkpt>
      <trkpt lat="43.95042" lon="2.36371">
        <ele>385</ele>
        <time>2021-04-18T12:24:09Z</time>
      </trkpt>
      <trkpt lat="43.95041" lon="2.36372">
        <ele>385</ele>
        <time>2021-04-18T12:24:10Z</time>
      </trkpt>
      <trkpt lat="43.95039" lon="2.36374">
        <ele>385</ele>
        <time>2021-04-18T12:24:11Z</time>
      </trkpt>
      <trkpt lat="43.95039" lon="2.36374">
        <ele>384</ele>
        <time>2021-04-18T12:24:12Z</time>
      </trkpt>
      <trkpt lat="43.95037" lon="2.36375">
        <ele>384</ele>
        <time>2021-04-18T12:24:13Z</time>
      </trkpt>
      <trkpt lat="43.95036" lon="2.36375">
        <ele>384</ele>
        <time>2021-04-18T12:24:14Z</time>
      </trkpt>
      <trkpt lat="43.95035" lon="2.36376">
        <ele>384</ele>
        <time>2021-04-18T12:24:15Z</time>
      </trkpt>
      <trkpt lat="43.95033" lon="2.36378">
        <ele>383</ele>
        <time>2021-04-18T12:24:16Z</time>
      </trkpt>
      <trkpt lat="43.95032" lon="2.3638">
        <ele>383</ele>
        <time>2021-04-18T12:24:17Z</time>
      </trkpt>
      <trkpt lat="43.95032" lon="2.36382">
        <ele>382</ele>
        <time>2021-04-18T12:24:18Z</time>
      </trkpt>
      <trkpt lat="43.95033" lon="2.36384">
        <ele>382</ele>
        <time>2021-04-18T12:24:19Z</time>
      </trkpt>
      <trkpt lat="43.95033" lon="2.36386">
        <ele>381</ele>
        <time>2021-04-18T12:24:20Z</time>
      </trkpt>
      <trkpt lat="43.95035" lon="2.36387">
        <ele>380</ele>
        <time>2021-04-18T12:24:21Z</time>
      </trkpt>
      <trkpt lat="43.95035" lon="2.36388">
        <ele>380</ele>
        <time>2021-04-18T12:24:22Z</time>
      </trkpt>
      <trkpt lat="43.95036" lon="2.36389">
        <ele>380</ele>
        <time>2021-04-18T12:24:23Z</time>
      </trkpt>
      <trkpt lat="43.95037" lon="2.3639">
        <ele>379</ele>
        <time>2021-04-18T12:24:24Z</time>
      </trkpt>
      <trkpt lat="43.95038" lon="2.36391">
        <ele>379</ele>
        <time>2021-04-18T12:24:25Z</time>
      </trkpt>
      <trkpt lat="43.95039" lon="2.36391">
        <ele>378</ele>
        <time>2021-04-18T12:24:26Z</time>
      </trkpt>
      <trkpt lat="43.9504" lon="2.36391">
        <ele>378</ele>
        <time>2021-04-18T12:24:27Z</time>
      </trkpt>
      <trkpt lat="43.95041" lon="2.3639">
        <ele>378</ele>
        <time>2021-04-18T12:24:28Z</time>
      </trkpt>
      <trkpt lat="43.95042" lon="2.3639">
        <ele>378</ele>
        <time>2021-04-18T12:24:29Z</time>
      </trkpt>
      <trkpt lat="43.95043" lon="2.3639">
        <ele>378</ele>
        <time>2021-04-18T12:24:30Z</time>
      </trkpt>
      <trkpt lat="43.95045" lon="2.3639">
        <ele>378</ele>
        <time>2021-04-18T12:24:31Z</time>
      </trkpt>
      <trkpt lat="43.95046" lon="2.3639">
        <ele>378</ele>
        <time>2021-04-18T12:24:32Z</time>
      </trkpt>
      <trkpt lat="43.95047" lon="2.3639">
        <ele>377</ele>
        <time>2021-04-18T12:24:33Z</time>
      </trkpt>
      <trkpt lat="43.95049" lon="2.3639">
        <ele>377</ele>
        <time>2021-04-18T12:24:34Z</time>
      </trkpt>
      <trkpt lat="43.9505" lon="2.3639">
        <ele>377</ele>
        <time>2021-04-18T12:24:35Z</time>
      </trkpt>
      <trkpt lat="43.95052" lon="2.3639">
        <ele>377</ele>
        <time>2021-04-18T12:24:36Z</time>
      </trkpt>
      <trkpt lat="43.95054" lon="2.36391">
        <ele>377</ele>
        <time>2021-04-18T12:24:37Z</time>
      </trkpt>
      <trkpt lat="43.95055" lon="2.3639">
        <ele>377</ele>
        <time>2021-04-18T12:24:38Z</time>
      </trkpt>
      <trkpt lat="43.95056" lon="2.3639">
        <ele>376</ele>
        <time>2021-04-18T12:24:39Z</time>
      </trkpt>
      <trkpt lat="43.95057" lon="2.36389">
        <ele>376</ele>
        <time>2021-04-18T12:24:40Z</time>
      </trkpt>
      <trkpt lat="43.95058" lon="2.36388">
        <ele>376</ele>
        <time>2021-04-18T12:24:41Z</time>
      </trkpt>
      <trkpt lat="43.9506" lon="2.36388">
        <ele>375</ele>
        <time>2021-04-18T12:24:42Z</time>
      </trkpt>
      <trkpt lat="43.95061" lon="2.36387">
        <ele>375</ele>
        <time>2021-04-18T12:24:43Z</time>
      </trkpt>
      <trkpt lat="43.95062" lon="2.36386">
        <ele>375</ele>
        <time>2021-04-18T12:24:44Z</time>
      </trkpt>
      <trkpt lat="43.95063" lon="2.36386">
        <ele>376</ele>
        <time>2021-04-18T12:24:45Z</time>
      </trkpt>
      <trkpt lat="43.95065" lon="2.36385">
        <ele>376</ele>
        <time>2021-04-18T12:24:46Z</time>
      </trkpt>
      <trkpt lat="43.95066" lon="2.36385">
        <ele>375</ele>
        <time>2021-04-18T12:24:47Z</time>
      </trkpt>
      <trkpt lat="43.95067" lon="2.36384">
        <ele>375</ele>
        <time>2021-04-18T12:24:48Z</time>
      </trkpt>
      <trkpt lat="43.95068" lon="2.36383">
        <ele>375</ele>
        <time>2021-04-18T12:24:49Z</time>
      </trkpt>
      <trkpt lat="43.9507" lon="2.36383">
        <ele>374</ele>
        <time>2021-04-18T12:24:50Z</time>
      </trkpt>
      <trkpt lat="43.9507" lon="2.36382">
        <ele>375</ele>
        <time>2021-04-18T12:24:51Z</time>
      </trkpt>
      <trkpt lat="43.95072" lon="2.36381">
        <ele>375</ele>
        <time>2021-04-18T12:24:52Z</time>
      </trkpt>
      <trkpt lat="43.95073" lon="2.3638">
        <ele>375</ele>
        <time>2021-04-18T12:24:53Z</time>
      </trkpt>
      <trkpt lat="43.95074" lon="2.36378">
        <ele>376</ele>
        <time>2021-04-18T12:24:54Z</time>
      </trkpt>
      <trkpt lat="43.95074" lon="2.36377">
        <ele>376</ele>
        <time>2021-04-18T12:24:55Z</time>
      </trkpt>
      <trkpt lat="43.95075" lon="2.36377">
        <ele>376</ele>
        <time>2021-04-18T12:24:56Z</time>
      </trkpt>
      <trkpt lat="43.95075" lon="2.36377">
        <ele>376</ele>
        <time>2021-04-18T12:24:57Z</time>
      </trkpt>
      <trkpt lat="43.95076" lon="2.36377">
        <ele>375</ele>
        <time>2021-04-18T12:24:58Z</time>
      </trkpt>
      <trkpt lat="43.95078" lon="2.36377">
        <ele>375</ele>
        <time>2021-04-18T12:24:59Z</time>
      </trkpt>
      <trkpt lat="43.95078" lon="2.36377">
        <ele>375</ele>
        <time>2021-04-18T12:25:00Z</time>
      </trkpt>
      <trkpt lat="43.95079" lon="2.36377">
        <ele>376</ele>
        <time>2021-04-18T12:25:01Z</time>
      </trkpt>
      <trkpt lat="43.95079" lon="2.36377">
        <ele>376</ele>
        <time>2021-04-18T12:25:02Z</time>
      </trkpt>
      <trkpt lat="43.95081" lon="2.36378">
        <ele>376</ele>
        <time>2021-04-18T12:25:03Z</time>
      </trkpt>
      <trkpt lat="43.95081" lon="2.36378">
        <ele>376</ele>
        <time>2021-04-18T12:25:04Z</time>
      </trkpt>
      <trkpt lat="43.95082" lon="2.36379">
        <ele>377</ele>
        <time>2021-04-18T12:25:05Z</time>
      </trkpt>
      <trkpt lat="43.95082" lon="2.3638">
        <ele>376</ele>
        <time>2021-04-18T12:25:06Z</time>
      </trkpt>
      <trkpt lat="43.95083" lon="2.36381">
        <ele>376</ele>
        <time>2021-04-18T12:25:07Z</time>
      </trkpt>
      <trkpt lat="43.95083" lon="2.36382">
        <ele>376</ele>
        <time>2021-04-18T12:25:08Z</time>
      </trkpt>
      <trkpt lat="43.95083" lon="2.36383">
        <ele>376</ele>
        <time>2021-04-18T12:25:09Z</time>
      </trkpt>
      <trkpt lat="43.95084" lon="2.36384">
        <ele>376</ele>
        <time>2021-04-18T12:25:10Z</time>
      </trkpt>
      <trkpt lat="43.95085" lon="2.36385">
        <ele>377</ele>
        <time>2021-04-18T12:25:11Z</time>
      </trkpt>
      <trkpt lat="43.95086" lon="2.36386">
        <ele>377</ele>
        <time>2021-04-18T12:25:12Z</time>
      </trkpt>
      <trkpt lat="43.95086" lon="2.36387">
        <ele>377</ele>
        <time>2021-04-18T12:25:13Z</time>
      </trkpt>
      <trkpt lat="43.95087" lon="2.36387">
        <ele>377</ele>
        <time>2021-04-18T12:25:14Z</time>
      </trkpt>
      <trkpt lat="43.95087" lon="2.36388">
        <ele>377</ele>
        <time>2021-04-18T12:25:15Z</time>
      </trkpt>
      <trkpt lat="43.95089" lon="2.36389">
        <ele>376</ele>
        <time>2021-04-18T12:25:16Z</time>
      </trkpt>
      <trkpt lat="43.9509" lon="2.3639">
        <ele>376</ele>
        <time>2021-04-18T12:25:17Z</time>
      </trkpt>
      <trkpt lat="43.95091" lon="2.36391">
        <ele>375</ele>
        <time>2021-04-18T12:25:18Z</time>
      </trkpt>
      <trkpt lat="43.95091" lon="2.36392">
        <ele>376</ele>
        <time>2021-04-18T12:25:19Z</time>
      </trkpt>
      <trkpt lat="43.95092" lon="2.36391">
        <ele>376</ele>
        <time>2021-04-18T12:25:20Z</time>
      </trkpt>
      <trkpt lat="43.95093" lon="2.36391">
        <ele>376</ele>
        <time>2021-04-18T12:25:21Z</time>
      </trkpt>
      <trkpt lat="43.95094" lon="2.36391">
        <ele>376</ele>
        <time>2021-04-18T12:25:22Z</time>
      </trkpt>
      <trkpt lat="43.95095" lon="2.3639">
        <ele>377</ele>
        <time>2021-04-18T12:25:23Z</time>
      </trkpt>
      <trkpt lat="43.95097" lon="2.3639">
        <ele>377</ele>
        <time>2021-04-18T12:25:24Z</time>
      </trkpt>
      <trkpt lat="43.95097" lon="2.3639">
        <ele>378</ele>
        <time>2021-04-18T12:25:25Z</time>
      </trkpt>
      <trkpt lat="43.95098" lon="2.36389">
        <ele>378</ele>
        <time>2021-04-18T12:25:26Z</time>
      </trkpt>
      <trkpt lat="43.95099" lon="2.3639">
        <ele>377</ele>
        <time>2021-04-18T12:25:27Z</time>
      </trkpt>
      <trkpt lat="43.95099" lon="2.3639">
        <ele>377</ele>
        <time>2021-04-18T12:25:28Z</time>
      </trkpt>
      <trkpt lat="43.951" lon="2.3639">
        <ele>377</ele>
        <time>2021-04-18T12:25:29Z</time>
      </trkpt>
      <trkpt lat="43.951" lon="2.36391">
        <ele>377</ele>
        <time>2021-04-18T12:25:30Z</time>
      </trkpt>
      <trkpt lat="43.95101" lon="2.36391">
        <ele>377</ele>
        <time>2021-04-18T12:25:31Z</time>
      </trkpt>
      <trkpt lat="43.95101" lon="2.36391">
        <ele>377</ele>
        <time>2021-04-18T12:25:32Z</time>
      </trkpt>
      <trkpt lat="43.95101" lon="2.3639">
        <ele>377</ele>
        <time>2021-04-18T12:25:33Z</time>
      </trkpt>
      <trkpt lat="43.95102" lon="2.3639">
        <ele>376</ele>
        <time>2021-04-18T12:25:34Z</time>
      </trkpt>
      <trkpt lat="43.95102" lon="2.36389">
        <ele>375</ele>
        <time>2021-04-18T12:25:35Z</time>
      </trkpt>
      <trkpt lat="43.95102" lon="2.36389">
        <ele>376</ele>
        <time>2021-04-18T12:25:36Z</time>
      </trkpt>
      <trkpt lat="43.95101" lon="2.36389">
        <ele>376</ele>
        <time>2021-04-18T12:25:37Z</time>
      </trkpt>
      <trkpt lat="43.95101" lon="2.3639">
        <ele>376</ele>
        <time>2021-04-18T12:25:38Z</time>
      </trkpt>
      <trkpt lat="43.95101" lon="2.36391">
        <ele>376</ele>
        <time>2021-04-18T12:25:39Z</time>
      </trkpt>
      <trkpt lat="43.951" lon="2.36393">
        <ele>375</ele>
        <time>2021-04-18T12:25:40Z</time>
      </trkpt>
      <trkpt lat="43.951" lon="2.36394">
        <ele>376</ele>
        <time>2021-04-18T12:25:41Z</time>
      </trkpt>
      <trkpt lat="43.95099" lon="2.36395">
        <ele>375</ele>
        <time>2021-04-18T12:25:42Z</time>
      </trkpt>
      <trkpt lat="43.95098" lon="2.36396">
        <ele>375</ele>
        <time>2021-04-18T12:25:43Z</time>
      </trkpt>
      <trkpt lat="43.95098" lon="2.36396">
        <ele>375</ele>
        <time>2021-04-18T12:25:44Z</time>
      </trkpt>
      <trkpt lat="43.95097" lon="2.36398">
        <ele>375</ele>
        <time>2021-04-18T12:25:45Z</time>
      </trkpt>
      <trkpt lat="43.95096" lon="2.364">
        <ele>374</ele>
        <time>2021-04-18T12:25:46Z</time>
      </trkpt>
      <trkpt lat="43.95095" lon="2.36403">
        <ele>374</ele>
        <time>2021-04-18T12:25:47Z</time>
      </trkpt>
      <trkpt lat="43.95095" lon="2.36405">
        <ele>375</ele>
        <time>2021-04-18T12:25:48Z</time>
      </trkpt>
      <trkpt lat="43.95094" lon="2.36407">
        <ele>375</ele>
        <time>2021-04-18T12:25:49Z</time>
      </trkpt>
      <trkpt lat="43.95094" lon="2.36408">
        <ele>374</ele>
        <time>2021-04-18T12:25:50Z</time>
      </trkpt>
      <trkpt lat="43.95093" lon="2.3641">
        <ele>373</ele>
        <time>2021-04-18T12:25:51Z</time>
      </trkpt>
      <trkpt lat="43.95092" lon="2.36412">
        <ele>373</ele>
        <time>2021-04-18T12:25:52Z</time>
      </trkpt>
      <trkpt lat="43.95091" lon="2.36413">
        <ele>373</ele>
        <time>2021-04-18T12:25:53Z</time>
      </trkpt>
      <trkpt lat="43.9509" lon="2.36414">
        <ele>372</ele>
        <time>2021-04-18T12:25:54Z</time>
      </trkpt>
      <trkpt lat="43.95089" lon="2.36415">
        <ele>372</ele>
        <time>2021-04-18T12:25:55Z</time>
      </trkpt>
      <trkpt lat="43.95088" lon="2.36416">
        <ele>371</ele>
        <time>2021-04-18T12:25:56Z</time>
      </trkpt>
      <trkpt lat="43.95087" lon="2.36417">
        <ele>371</ele>
        <time>2021-04-18T12:25:57Z</time>
      </trkpt>
      <trkpt lat="43.95087" lon="2.36418">
        <ele>371</ele>
        <time>2021-04-18T12:25:58Z</time>
      </trkpt>
      <trkpt lat="43.95086" lon="2.36419">
        <ele>371</ele>
        <time>2021-04-18T12:25:59Z</time>
      </trkpt>
      <trkpt lat="43.95084" lon="2.3642">
        <ele>371</ele>
        <time>2021-04-18T12:26:00Z</time>
      </trkpt>
      <trkpt lat="43.95083" lon="2.36421">
        <ele>371</ele>
        <time>2021-04-18T12:26:01Z</time>
      </trkpt>
      <trkpt lat="43.95082" lon="2.36422">
        <ele>370</ele>
        <time>2021-04-18T12:26:02Z</time>
      </trkpt>
      <trkpt lat="43.95081" lon="2.36423">
        <ele>371</ele>
        <time>2021-04-18T12:26:03Z</time>
      </trkpt>
      <trkpt lat="43.95079" lon="2.36424">
        <ele>370</ele>
        <time>2021-04-18T12:26:04Z</time>
      </trkpt>
      <trkpt lat="43.95078" lon="2.36425">
        <ele>370</ele>
        <time>2021-04-18T12:26:05Z</time>
      </trkpt>
      <trkpt lat="43.95078" lon="2.36426">
        <ele>370</ele>
        <time>2021-04-18T12:26:06Z</time>
      </trkpt>
      <trkpt lat="43.95077" lon="2.36428">
        <ele>370</ele>
        <time>2021-04-18T12:26:07Z</time>
      </trkpt>
      <trkpt lat="43.95076" lon="2.36429">
        <ele>370</ele>
        <time>2021-04-18T12:26:08Z</time>
      </trkpt>
      <trkpt lat="43.95075" lon="2.36431">
        <ele>369</ele>
        <time>2021-04-18T12:26:09Z</time>
      </trkpt>
      <trkpt lat="43.95075" lon="2.36433">
        <ele>369</ele>
        <time>2021-04-18T12:26:10Z</time>
      </trkpt>
      <trkpt lat="43.95073" lon="2.36434">
        <ele>369</ele>
        <time>2021-04-18T12:26:11Z</time>
      </trkpt>
      <trkpt lat="43.95072" lon="2.36436">
        <ele>368</ele>
        <time>2021-04-18T12:26:12Z</time>
      </trkpt>
      <trkpt lat="43.95071" lon="2.36438">
        <ele>368</ele>
        <time>2021-04-18T12:26:13Z</time>
      </trkpt>
      <trkpt lat="43.9507" lon="2.3644">
        <ele>367</ele>
        <time>2021-04-18T12:26:14Z</time>
      </trkpt>
      <trkpt lat="43.95069" lon="2.36442">
        <ele>367</ele>
        <time>2021-04-18T12:26:15Z</time>
      </trkpt>
      <trkpt lat="43.95068" lon="2.36444">
        <ele>366</ele>
        <time>2021-04-18T12:26:16Z</time>
      </trkpt>
      <trkpt lat="43.95067" lon="2.36446">
        <ele>366</ele>
        <time>2021-04-18T12:26:17Z</time>
      </trkpt>
      <trkpt lat="43.95066" lon="2.36448">
        <ele>366</ele>
        <time>2021-04-18T12:26:18Z</time>
      </trkpt>
      <trkpt lat="43.95065" lon="2.36451">
        <ele>365</ele>
        <time>2021-04-18T12:26:19Z</time>
      </trkpt>
      <trkpt lat="43.95063" lon="2.36452">
        <ele>364</ele>
        <time>2021-04-18T12:26:20Z</time>
      </trkpt>
      <trkpt lat="43.95063" lon="2.36455">
        <ele>364</ele>
        <time>2021-04-18T12:26:21Z</time>
      </trkpt>
      <trkpt lat="43.95062" lon="2.36458">
        <ele>363</ele>
        <time>2021-04-18T12:26:22Z</time>
      </trkpt>
      <trkpt lat="43.95061" lon="2.3646">
        <ele>363</ele>
        <time>2021-04-18T12:26:23Z</time>
      </trkpt>
      <trkpt lat="43.9506" lon="2.36462">
        <ele>362</ele>
        <time>2021-04-18T12:26:24Z</time>
      </trkpt>
      <trkpt lat="43.95058" lon="2.36464">
        <ele>362</ele>
        <time>2021-04-18T12:26:25Z</time>
      </trkpt>
      <trkpt lat="43.95058" lon="2.36466">
        <ele>362</ele>
        <time>2021-04-18T12:26:26Z</time>
      </trkpt>
      <trkpt lat="43.95057" lon="2.36467">
        <ele>362</ele>
        <time>2021-04-18T12:26:27Z</time>
      </trkpt>
      <trkpt lat="43.95056" lon="2.36468">
        <ele>362</ele>
        <time>2021-04-18T12:26:28Z</time>
      </trkpt>
      <trkpt lat="43.95055" lon="2.36469">
        <ele>362</ele>
        <time>2021-04-18T12:26:29Z</time>
      </trkpt>
      <trkpt lat="43.95054" lon="2.36471">
        <ele>362</ele>
        <time>2021-04-18T12:26:30Z</time>
      </trkpt>
      <trkpt lat="43.95054" lon="2.36472">
        <ele>362</ele>
        <time>2021-04-18T12:26:31Z</time>
      </trkpt>
      <trkpt lat="43.95053" lon="2.36474">
        <ele>362</ele>
        <time>2021-04-18T12:26:32Z</time>
      </trkpt>
      <trkpt lat="43.95053" lon="2.36476">
        <ele>362</ele>
        <time>2021-04-18T12:26:33Z</time>
      </trkpt>
      <trkpt lat="43.95053" lon="2.36479">
        <ele>363</ele>
        <time>2021-04-18T12:26:34Z</time>
      </trkpt>
      <trkpt lat="43.95052" lon="2.36481">
        <ele>363</ele>
        <time>2021-04-18T12:26:35Z</time>
      </trkpt>
      <trkpt lat="43.9505" lon="2.36483">
        <ele>363</ele>
        <time>2021-04-18T12:26:36Z</time>
      </trkpt>
      <trkpt lat="43.95049" lon="2.36485">
        <ele>363</ele>
        <time>2021-04-18T12:26:37Z</time>
      </trkpt>
      <trkpt lat="43.95049" lon="2.36487">
        <ele>364</ele>
        <time>2021-04-18T12:26:38Z</time>
      </trkpt>
      <trkpt lat="43.95049" lon="2.36489">
        <ele>364</ele>
        <time>2021-04-18T12:26:39Z</time>
      </trkpt>
      <trkpt lat="43.95048" lon="2.36491">
        <ele>364</ele>
        <time>2021-04-18T12:26:40Z</time>
      </trkpt>
      <trkpt lat="43.95048" lon="2.36493">
        <ele>364</ele>
        <time>2021-04-18T12:26:41Z</time>
      </trkpt>
      <trkpt lat="43.95048" lon="2.36495">
        <ele>364</ele>
        <time>2021-04-18T12:26:42Z</time>
      </trkpt>
      <trkpt lat="43.95048" lon="2.36497">
        <ele>364</ele>
        <time>2021-04-18T12:26:43Z</time>
      </trkpt>
      <trkpt lat="43.95048" lon="2.36499">
        <ele>365</ele>
        <time>2021-04-18T12:26:44Z</time>
      </trkpt>
      <trkpt lat="43.95049" lon="2.36502">
        <ele>365</ele>
        <time>2021-04-18T12:26:45Z</time>
      </trkpt>
      <trkpt lat="43.95048" lon="2.36504">
        <ele>365</ele>
        <time>2021-04-18T12:26:46Z</time>
      </trkpt>
      <trkpt lat="43.95048" lon="2.36505">
        <ele>365</ele>
        <time>2021-04-18T12:26:47Z</time>
      </trkpt>
      <trkpt lat="43.95048" lon="2.36507">
        <ele>366</ele>
        <time>2021-04-18T12:26:48Z</time>
      </trkpt>
      <trkpt lat="43.95047" lon="2.36509">
        <ele>365</ele>
        <time>2021-04-18T12:26:49Z</time>
      </trkpt>
      <trkpt lat="43.95047" lon="2.36511">
        <ele>365</ele>
        <time>2021-04-18T12:26:50Z</time>
      </trkpt>
      <trkpt lat="43.95046" lon="2.36512">
        <ele>365</ele>
        <time>2021-04-18T12:26:51Z</time>
      </trkpt>
      <trkpt lat="43.95045" lon="2.36514">
        <ele>365</ele>
        <time>2021-04-18T12:26:52Z</time>
      </trkpt>
      <trkpt lat="43.95044" lon="2.36515">
        <ele>366</ele>
        <time>2021-04-18T12:26:53Z</time>
      </trkpt>
      <trkpt lat="43.95044" lon="2.36517">
        <ele>366</ele>
        <time>2021-04-18T12:26:54Z</time>
      </trkpt>
      <trkpt lat="43.95043" lon="2.36519">
        <ele>367</ele>
        <time>2021-04-18T12:26:55Z</time>
      </trkpt>
      <trkpt lat="43.95042" lon="2.36521">
        <ele>366</ele>
        <time>2021-04-18T12:26:56Z</time>
      </trkpt>
      <trkpt lat="43.95042" lon="2.36523">
        <ele>367</ele>
        <time>2021-04-18T12:26:57Z</time>
      </trkpt>
      <trkpt lat="43.95042" lon="2.36525">
        <ele>366</ele>
        <time>2021-04-18T12:26:58Z</time>
      </trkpt>
      <trkpt lat="43.95042" lon="2.36526">
        <ele>367</ele>
        <time>2021-04-18T12:26:59Z</time>
      </trkpt>
      <trkpt lat="43.95041" lon="2.36528">
        <ele>367</ele>
        <time>2021-04-18T12:27:00Z</time>
      </trkpt>
      <trkpt lat="43.95041" lon="2.36529">
        <ele>367</ele>
        <time>2021-04-18T12:27:01Z</time>
      </trkpt>
      <trkpt lat="43.95041" lon="2.36531">
        <ele>367</ele>
        <time>2021-04-18T12:27:02Z</time>
      </trkpt>
      <trkpt lat="43.95041" lon="2.36532">
        <ele>367</ele>
        <time>2021-04-18T12:27:03Z</time>
      </trkpt>
      <trkpt lat="43.9504" lon="2.36533">
        <ele>366</ele>
        <time>2021-04-18T12:27:04Z</time>
      </trkpt>
      <trkpt lat="43.95039" lon="2.36535">
        <ele>366</ele>
        <time>2021-04-18T12:27:05Z</time>
      </trkpt>
      <trkpt lat="43.95038" lon="2.36536">
        <ele>366</ele>
        <time>2021-04-18T12:27:06Z</time>
      </trkpt>
      <trkpt lat="43.95037" lon="2.36537">
        <ele>366</ele>
        <time>2021-04-18T12:27:07Z</time>
      </trkpt>
      <trkpt lat="43.95036" lon="2.36538">
        <ele>365</ele>
        <time>2021-04-18T12:27:08Z</time>
      </trkpt>
      <trkpt lat="43.95035" lon="2.36539">
        <ele>366</ele>
        <time>2021-04-18T12:27:09Z</time>
      </trkpt>
      <trkpt lat="43.95034" lon="2.36541">
        <ele>366</ele>
        <time>2021-04-18T12:27:10Z</time>
      </trkpt>
      <trkpt lat="43.95033" lon="2.36542">
        <ele>366</ele>
        <time>2021-04-18T12:27:11Z</time>
      </trkpt>
      <trkpt lat="43.95032" lon="2.36543">
        <ele>366</ele>
        <time>2021-04-18T12:27:12Z</time>
      </trkpt>
      <trkpt lat="43.95031" lon="2.36544">
        <ele>366</ele>
        <time>2021-04-18T12:27:13Z</time>
      </trkpt>
      <trkpt lat="43.9503" lon="2.36544">
        <ele>366</ele>
        <time>2021-04-18T12:27:14Z</time>
      </trkpt>
      <trkpt lat="43.9503" lon="2.36545">
        <ele>366</ele>
        <time>2021-04-18T12:27:15Z</time>
      </trkpt>
      <trkpt lat="43.95029" lon="2.36546">
        <ele>366</ele>
        <time>2021-04-18T12:27:16Z</time>
      </trkpt>
      <trkpt lat="43.95029" lon="2.36547">
        <ele>365</ele>
        <time>2021-04-18T12:27:17Z</time>
      </trkpt>
      <trkpt lat="43.95028" lon="2.36548">
        <ele>365</ele>
        <time>2021-04-18T12:27:18Z</time>
      </trkpt>
      <trkpt lat="43.95027" lon="2.36548">
        <ele>365</ele>
        <time>2021-04-18T12:27:19Z</time>
      </trkpt>
      <trkpt lat="43.95026" lon="2.36549">
        <ele>364</ele>
        <time>2021-04-18T12:27:20Z</time>
      </trkpt>
      <trkpt lat="43.95026" lon="2.36551">
        <ele>364</ele>
        <time>2021-04-18T12:27:21Z</time>
      </trkpt>
      <trkpt lat="43.95025" lon="2.36552">
        <ele>365</ele>
        <time>2021-04-18T12:27:22Z</time>
      </trkpt>
      <trkpt lat="43.95024" lon="2.36553">
        <ele>365</ele>
        <time>2021-04-18T12:27:23Z</time>
      </trkpt>
      <trkpt lat="43.95023" lon="2.36554">
        <ele>365</ele>
        <time>2021-04-18T12:27:24Z</time>
      </trkpt>
      <trkpt lat="43.95021" lon="2.36555">
        <ele>365</ele>
        <time>2021-04-18T12:27:25Z</time>
      </trkpt>
      <trkpt lat="43.95021" lon="2.36556">
        <ele>365</ele>
        <time>2021-04-18T12:27:26Z</time>
      </trkpt>
      <trkpt lat="43.95019" lon="2.36558">
        <ele>365</ele>
        <time>2021-04-18T12:27:27Z</time>
      </trkpt>
      <trkpt lat="43.95018" lon="2.36559">
        <ele>364</ele>
        <time>2021-04-18T12:27:28Z</time>
      </trkpt>
      <trkpt lat="43.95016" lon="2.36561">
        <ele>364</ele>
        <time>2021-04-18T12:27:29Z</time>
      </trkpt>
      <trkpt lat="43.95014" lon="2.36562">
        <ele>364</ele>
        <time>2021-04-18T12:27:30Z</time>
      </trkpt>
      <trkpt lat="43.95013" lon="2.36563">
        <ele>364</ele>
        <time>2021-04-18T12:27:31Z</time>
      </trkpt>
      <trkpt lat="43.95011" lon="2.36564">
        <ele>364</ele>
        <time>2021-04-18T12:27:32Z</time>
      </trkpt>
      <trkpt lat="43.9501" lon="2.36565">
        <ele>364</ele>
        <time>2021-04-18T12:27:33Z</time>
      </trkpt>
      <trkpt lat="43.95008" lon="2.36566">
        <ele>363</ele>
        <time>2021-04-18T12:27:34Z</time>
      </trkpt>
      <trkpt lat="43.95007" lon="2.36567">
        <ele>363</ele>
        <time>2021-04-18T12:27:35Z</time>
      </trkpt>
      <trkpt lat="43.95005" lon="2.36568">
        <ele>362</ele>
        <time>2021-04-18T12:27:36Z</time>
      </trkpt>
      <trkpt lat="43.95004" lon="2.36569">
        <ele>362</ele>
        <time>2021-04-18T12:27:37Z</time>
      </trkpt>
      <trkpt lat="43.95003" lon="2.36571">
        <ele>361</ele>
        <time>2021-04-18T12:27:38Z</time>
      </trkpt>
      <trkpt lat="43.95001" lon="2.36572">
        <ele>361</ele>
        <time>2021-04-18T12:27:39Z</time>
      </trkpt>
      <trkpt lat="43.95" lon="2.36572">
        <ele>361</ele>
        <time>2021-04-18T12:27:40Z</time>
      </trkpt>
      <trkpt lat="43.94999" lon="2.36573">
        <ele>361</ele>
        <time>2021-04-18T12:27:41Z</time>
      </trkpt>
      <trkpt lat="43.94997" lon="2.36573">
        <ele>361</ele>
        <time>2021-04-18T12:27:42Z</time>
      </trkpt>
      <trkpt lat="43.94996" lon="2.36574">
        <ele>360</ele>
        <time>2021-04-18T12:27:43Z</time>
      </trkpt>
      <trkpt lat="43.94996" lon="2.36576">
        <ele>361</ele>
        <time>2021-04-18T12:27:44Z</time>
      </trkpt>
      <trkpt lat="43.94994" lon="2.36577">
        <ele>361</ele>
        <time>2021-04-18T12:27:45Z</time>
      </trkpt>
      <trkpt lat="43.94993" lon="2.36578">
        <ele>360</ele>
        <time>2021-04-18T12:27:46Z</time>
      </trkpt>
      <trkpt lat="43.94992" lon="2.36578">
        <ele>360</ele>
        <time>2021-04-18T12:27:47Z</time>
      </trkpt>
      <trkpt lat="43.94991" lon="2.36578">
        <ele>360</ele>
        <time>2021-04-18T12:27:48Z</time>
      </trkpt>
      <trkpt lat="43.94991" lon="2.36579">
        <ele>359</ele>
        <time>2021-04-18T12:27:49Z</time>
      </trkpt>
      <trkpt lat="43.94989" lon="2.3658">
        <ele>358</ele>
        <time>2021-04-18T12:27:50Z</time>
      </trkpt>
      <trkpt lat="43.94988" lon="2.36581">
        <ele>358</ele>
        <time>2021-04-18T12:27:51Z</time>
      </trkpt>
      <trkpt lat="43.94986" lon="2.36582">
        <ele>359</ele>
        <time>2021-04-18T12:27:52Z</time>
      </trkpt>
      <trkpt lat="43.94985" lon="2.36583">
        <ele>359</ele>
        <time>2021-04-18T12:27:53Z</time>
      </trkpt>
      <trkpt lat="43.94984" lon="2.36584">
        <ele>359</ele>
        <time>2021-04-18T12:27:54Z</time>
      </trkpt>
      <trkpt lat="43.94983" lon="2.36584">
        <ele>359</ele>
        <time>2021-04-18T12:27:55Z</time>
      </trkpt>
      <trkpt lat="43.94981" lon="2.36585">
        <ele>359</ele>
        <time>2021-04-18T12:27:56Z</time>
      </trkpt>
      <trkpt lat="43.9498" lon="2.36586">
        <ele>359</ele>
        <time>2021-04-18T12:27:57Z</time>
      </trkpt>
      <trkpt lat="43.94978" lon="2.36587">
        <ele>359</ele>
        <time>2021-04-18T12:27:58Z</time>
      </trkpt>
      <trkpt lat="43.94977" lon="2.36589">
        <ele>358</ele>
        <time>2021-04-18T12:27:59Z</time>
      </trkpt>
      <trkpt lat="43.94976" lon="2.3659">
        <ele>357</ele>
        <time>2021-04-18T12:28:00Z</time>
      </trkpt>
      <trkpt lat="43.94975" lon="2.36591">
        <ele>357</ele>
        <time>2021-04-18T12:28:01Z</time>
      </trkpt>
      <trkpt lat="43.94973" lon="2.36592">
        <ele>356</ele>
        <time>2021-04-18T12:28:02Z</time>
      </trkpt>
      <trkpt lat="43.94973" lon="2.36593">
        <ele>357</ele>
        <time>2021-04-18T12:28:03Z</time>
      </trkpt>
      <trkpt lat="43.94971" lon="2.36595">
        <ele>356</ele>
        <time>2021-04-18T12:28:04Z</time>
      </trkpt>
      <trkpt lat="43.9497" lon="2.36596">
        <ele>356</ele>
        <time>2021-04-18T12:28:05Z</time>
      </trkpt>
      <trkpt lat="43.94968" lon="2.36597">
        <ele>356</ele>
        <time>2021-04-18T12:28:06Z</time>
      </trkpt>
      <trkpt lat="43.94967" lon="2.36598">
        <ele>356</ele>
        <time>2021-04-18T12:28:07Z</time>
      </trkpt>
      <trkpt lat="43.94966" lon="2.36599">
        <ele>355</ele>
        <time>2021-04-18T12:28:08Z</time>
      </trkpt>
      <trkpt lat="43.94964" lon="2.366">
        <ele>355</ele>
        <time>2021-04-18T12:28:09Z</time>
      </trkpt>
      <trkpt lat="43.94963" lon="2.36601">
        <ele>355</ele>
        <time>2021-04-18T12:28:10Z</time>
      </trkpt>
      <trkpt lat="43.94962" lon="2.36603">
        <ele>355</ele>
        <time>2021-04-18T12:28:11Z</time>
      </trkpt>
      <trkpt lat="43.94962" lon="2.36605">
        <ele>354</ele>
        <time>2021-04-18T12:28:12Z</time>
      </trkpt>
      <trkpt lat="43.9496" lon="2.36607">
        <ele>354</ele>
        <time>2021-04-18T12:28:13Z</time>
      </trkpt>
      <trkpt lat="43.9496" lon="2.36609">
        <ele>353</ele>
        <time>2021-04-18T12:28:14Z</time>
      </trkpt>
      <trkpt lat="43.94959" lon="2.3661">
        <ele>353</ele>
        <time>2021-04-18T12:28:15Z</time>
      </trkpt>
      <trkpt lat="43.94957" lon="2.36612">
        <ele>353</ele>
        <time>2021-04-18T12:28:16Z</time>
      </trkpt>
      <trkpt lat="43.94956" lon="2.36614">
        <ele>353</ele>
        <time>2021-04-18T12:28:17Z</time>
      </trkpt>
      <trkpt lat="43.94955" lon="2.36615">
        <ele>352</ele>
        <time>2021-04-18T12:28:18Z</time>
      </trkpt>
      <trkpt lat="43.94955" lon="2.36617">
        <ele>352</ele>
        <time>2021-04-18T12:28:19Z</time>
      </trkpt>
      <trkpt lat="43.94954" lon="2.36619">
        <ele>351</ele>
        <time>2021-04-18T12:28:20Z</time>
      </trkpt>
      <trkpt lat="43.94953" lon="2.3662">
        <ele>352</ele>
        <time>2021-04-18T12:28:21Z</time>
      </trkpt>
      <trkpt lat="43.94951" lon="2.36622">
        <ele>351</ele>
        <time>2021-04-18T12:28:22Z</time>
      </trkpt>
      <trkpt lat="43.9495" lon="2.36624">
        <ele>351</ele>
        <time>2021-04-18T12:28:23Z</time>
      </trkpt>
      <trkpt lat="43.94949" lon="2.36626">
        <ele>351</ele>
        <time>2021-04-18T12:28:24Z</time>
      </trkpt>
      <trkpt lat="43.94949" lon="2.36627">
        <ele>351</ele>
        <time>2021-04-18T12:28:25Z</time>
      </trkpt>
      <trkpt lat="43.94947" lon="2.36628">
        <ele>350</ele>
        <time>2021-04-18T12:28:26Z</time>
      </trkpt>
      <trkpt lat="43.94947" lon="2.3663">
        <ele>350</ele>
        <time>2021-04-18T12:28:27Z</time>
      </trkpt>
      <trkpt lat="43.94946" lon="2.36632">
        <ele>350</ele>
        <time>2021-04-18T12:28:28Z</time>
      </trkpt>
      <trkpt lat="43.94945" lon="2.36633">
        <ele>349</ele>
        <time>2021-04-18T12:28:29Z</time>
      </trkpt>
      <trkpt lat="43.94944" lon="2.36635">
        <ele>348</ele>
        <time>2021-04-18T12:28:30Z</time>
      </trkpt>
      <trkpt lat="43.94943" lon="2.36636">
        <ele>348</ele>
        <time>2021-04-18T12:28:31Z</time>
      </trkpt>
      <trkpt lat="43.94941" lon="2.36637">
        <ele>348</ele>
        <time>2021-04-18T12:28:32Z</time>
      </trkpt>
      <trkpt lat="43.94941" lon="2.3664">
        <ele>348</ele>
        <time>2021-04-18T12:28:33Z</time>
      </trkpt>
      <trkpt lat="43.9494" lon="2.36642">
        <ele>348</ele>
        <time>2021-04-18T12:28:34Z</time>
      </trkpt>
      <trkpt lat="43.94939" lon="2.36644">
        <ele>348</ele>
        <time>2021-04-18T12:28:35Z</time>
      </trkpt>
      <trkpt lat="43.94938" lon="2.36645">
        <ele>348</ele>
        <time>2021-04-18T12:28:36Z</time>
      </trkpt>
      <trkpt lat="43.94937" lon="2.36646">
        <ele>348</ele>
        <time>2021-04-18T12:28:37Z</time>
      </trkpt>
      <trkpt lat="43.94937" lon="2.36647">
        <ele>348</ele>
        <time>2021-04-18T12:28:38Z</time>
      </trkpt>
      <trkpt lat="43.94936" lon="2.36649">
        <ele>347</ele>
        <time>2021-04-18T12:28:39Z</time>
      </trkpt>
      <trkpt lat="43.94935" lon="2.3665">
        <ele>347</ele>
        <time>2021-04-18T12:28:40Z</time>
      </trkpt>
      <trkpt lat="43.94934" lon="2.36651">
        <ele>346</ele>
        <time>2021-04-18T12:28:41Z</time>
      </trkpt>
      <trkpt lat="43.94933" lon="2.36653">
        <ele>346</ele>
        <time>2021-04-18T12:28:42Z</time>
      </trkpt>
      <trkpt lat="43.94931" lon="2.36655">
        <ele>346</ele>
        <time>2021-04-18T12:28:43Z</time>
      </trkpt>
      <trkpt lat="43.94931" lon="2.36657">
        <ele>345</ele>
        <time>2021-04-18T12:28:44Z</time>
      </trkpt>
      <trkpt lat="43.9493" lon="2.36659">
        <ele>345</ele>
        <time>2021-04-18T12:28:45Z</time>
      </trkpt>
      <trkpt lat="43.94929" lon="2.36661">
        <ele>344</ele>
        <time>2021-04-18T12:28:46Z</time>
      </trkpt>
      <trkpt lat="43.94928" lon="2.36663">
        <ele>344</ele>
        <time>2021-04-18T12:28:47Z</time>
      </trkpt>
      <trkpt lat="43.94927" lon="2.36665">
        <ele>344</ele>
        <time>2021-04-18T12:28:48Z</time>
      </trkpt>
      <trkpt lat="43.94926" lon="2.36666">
        <ele>343</ele>
        <time>2021-04-18T12:28:49Z</time>
      </trkpt>
      <trkpt lat="43.94925" lon="2.36668">
        <ele>343</ele>
        <time>2021-04-18T12:28:50Z</time>
      </trkpt>
      <trkpt lat="43.94924" lon="2.3667">
        <ele>343</ele>
        <time>2021-04-18T12:28:51Z</time>
      </trkpt>
      <trkpt lat="43.94923" lon="2.3667">
        <ele>342</ele>
        <time>2021-04-18T12:28:52Z</time>
      </trkpt>
      <trkpt lat="43.94923" lon="2.36672">
        <ele>342</ele>
        <time>2021-04-18T12:28:53Z</time>
      </trkpt>
      <trkpt lat="43.94922" lon="2.36674">
        <ele>341</ele>
        <time>2021-04-18T12:28:54Z</time>
      </trkpt>
      <trkpt lat="43.9492" lon="2.36677">
        <ele>341</ele>
        <time>2021-04-18T12:28:55Z</time>
      </trkpt>
      <trkpt lat="43.9492" lon="2.36679">
        <ele>340</ele>
        <time>2021-04-18T12:28:56Z</time>
      </trkpt>
      <trkpt lat="43.94919" lon="2.36682">
        <ele>340</ele>
        <time>2021-04-18T12:28:57Z</time>
      </trkpt>
      <trkpt lat="43.94918" lon="2.36685">
        <ele>341</ele>
        <time>2021-04-18T12:28:58Z</time>
      </trkpt>
      <trkpt lat="43.94918" lon="2.36687">
        <ele>340</ele>
        <time>2021-04-18T12:28:59Z</time>
      </trkpt>
      <trkpt lat="43.94917" lon="2.36688">
        <ele>340</ele>
        <time>2021-04-18T12:29:00Z</time>
      </trkpt>
      <trkpt lat="43.94917" lon="2.3669">
        <ele>340</ele>
        <time>2021-04-18T12:29:01Z</time>
      </trkpt>
      <trkpt lat="43.94916" lon="2.36692">
        <ele>341</ele>
        <time>2021-04-18T12:29:02Z</time>
      </trkpt>
      <trkpt lat="43.94915" lon="2.36695">
        <ele>341</ele>
        <time>2021-04-18T12:29:03Z</time>
      </trkpt>
      <trkpt lat="43.94915" lon="2.36697">
        <ele>341</ele>
        <time>2021-04-18T12:29:04Z</time>
      </trkpt>
      <trkpt lat="43.94915" lon="2.367">
        <ele>341</ele>
        <time>2021-04-18T12:29:05Z</time>
      </trkpt>
      <trkpt lat="43.94915" lon="2.36702">
        <ele>342</ele>
        <time>2021-04-18T12:29:06Z</time>
      </trkpt>
      <trkpt lat="43.94914" lon="2.36704">
        <ele>342</ele>
        <time>2021-04-18T12:29:07Z</time>
      </trkpt>
      <trkpt lat="43.94914" lon="2.36705">
        <ele>342</ele>
        <time>2021-04-18T12:29:08Z</time>
      </trkpt>
      <trkpt lat="43.94914" lon="2.36706">
        <ele>342</ele>
        <time>2021-04-18T12:29:09Z</time>
      </trkpt>
      <trkpt lat="43.94914" lon="2.36708">
        <ele>342</ele>
        <time>2021-04-18T12:29:10Z</time>
      </trkpt>
      <trkpt lat="43.94914" lon="2.3671">
        <ele>342</ele>
        <time>2021-04-18T12:29:11Z</time>
      </trkpt>
      <trkpt lat="43.94912" lon="2.36711">
        <ele>341</ele>
        <time>2021-04-18T12:29:12Z</time>
      </trkpt>
      <trkpt lat="43.94912" lon="2.36712">
        <ele>342</ele>
        <time>2021-04-18T12:29:13Z</time>
      </trkpt>
      <trkpt lat="43.94912" lon="2.36712">
        <ele>341</ele>
        <time>2021-04-18T12:29:14Z</time>
      </trkpt>
      <trkpt lat="43.94912" lon="2.36712">
        <ele>341</ele>
        <time>2021-04-18T12:29:15Z</time>
      </trkpt>
      <trkpt lat="43.94912" lon="2.36711">
        <ele>341</ele>
        <time>2021-04-18T12:29:16Z</time>
      </trkpt>
      <trkpt lat="43.94912" lon="2.3671">
        <ele>341</ele>
        <time>2021-04-18T12:29:17Z</time>
      </trkpt>
      <trkpt lat="43.94912" lon="2.36709">
        <ele>341</ele>
        <time>2021-04-18T12:29:18Z</time>
      </trkpt>
      <trkpt lat="43.94913" lon="2.36709">
        <ele>341</ele>
        <time>2021-04-18T12:29:19Z</time>
      </trkpt>
      <trkpt lat="43.94913" lon="2.36708">
        <ele>341</ele>
        <time>2021-04-18T12:29:20Z</time>
      </trkpt>
      <trkpt lat="43.94913" lon="2.36706">
        <ele>341</ele>
        <time>2021-04-18T12:29:21Z</time>
      </trkpt>
      <trkpt lat="43.94913" lon="2.36706">
        <ele>342</ele>
        <time>2021-04-18T12:29:22Z</time>
      </trkpt>
      <trkpt lat="43.94913" lon="2.36704">
        <ele>341</ele>
        <time>2021-04-18T12:29:23Z</time>
      </trkpt>
      <trkpt lat="43.94913" lon="2.36702">
        <ele>341</ele>
        <time>2021-04-18T12:29:24Z</time>
      </trkpt>
      <trkpt lat="43.94913" lon="2.36701">
        <ele>341</ele>
        <time>2021-04-18T12:29:25Z</time>
      </trkpt>
      <trkpt lat="43.94913" lon="2.36699">
        <ele>340</ele>
        <time>2021-04-18T12:29:26Z</time>
      </trkpt>
      <trkpt lat="43.94913" lon="2.36699">
        <ele>340</ele>
        <time>2021-04-18T12:29:27Z</time>
      </trkpt>
      <trkpt lat="43.94913" lon="2.36697">
        <ele>339</ele>
        <time>2021-04-18T12:29:28Z</time>
      </trkpt>
      <trkpt lat="43.94913" lon="2.36696">
        <ele>339</ele>
        <time>2021-04-18T12:29:29Z</time>
      </trkpt>
      <trkpt lat="43.94913" lon="2.36695">
        <ele>338</ele>
        <time>2021-04-18T12:29:30Z</time>
      </trkpt>
      <trkpt lat="43.94913" lon="2.36694">
        <ele>339</ele>
        <time>2021-04-18T12:29:31Z</time>
      </trkpt>
      <trkpt lat="43.94913" lon="2.36693">
        <ele>338</ele>
        <time>2021-04-18T12:29:32Z</time>
      </trkpt>
      <trkpt lat="43.94913" lon="2.36691">
        <ele>338</ele>
        <time>2021-04-18T12:29:33Z</time>
      </trkpt>
      <trkpt lat="43.94913" lon="2.36689">
        <ele>337</ele>
        <time>2021-04-18T12:29:34Z</time>
      </trkpt>
      <trkpt lat="43.94912" lon="2.36688">
        <ele>337</ele>
        <time>2021-04-18T12:29:35Z</time>
      </trkpt>
      <trkpt lat="43.94912" lon="2.36687">
        <ele>337</ele>
        <time>2021-04-18T12:29:36Z</time>
      </trkpt>
      <trkpt lat="43.94912" lon="2.36685">
        <ele>336</ele>
        <time>2021-04-18T12:29:37Z</time>
      </trkpt>
      <trkpt lat="43.94912" lon="2.36684">
        <ele>336</ele>
        <time>2021-04-18T12:29:38Z</time>
      </trkpt>
      <trkpt lat="43.94912" lon="2.36683">
        <ele>336</ele>
        <time>2021-04-18T12:29:39Z</time>
      </trkpt>
      <trkpt lat="43.94912" lon="2.36681">
        <ele>336</ele>
        <time>2021-04-18T12:29:40Z</time>
      </trkpt>
      <trkpt lat="43.94911" lon="2.36679">
        <ele>335</ele>
        <time>2021-04-18T12:29:41Z</time>
      </trkpt>
      <trkpt lat="43.94911" lon="2.36678">
        <ele>335</ele>
        <time>2021-04-18T12:29:42Z</time>
      </trkpt>
      <trkpt lat="43.9491" lon="2.36676">
        <ele>335</ele>
        <time>2021-04-18T12:29:43Z</time>
      </trkpt>
      <trkpt lat="43.9491" lon="2.36674">
        <ele>335</ele>
        <time>2021-04-18T12:29:44Z</time>
      </trkpt>
      <trkpt lat="43.94909" lon="2.36673">
        <ele>334</ele>
        <time>2021-04-18T12:29:45Z</time>
      </trkpt>
      <trkpt lat="43.94909" lon="2.36671">
        <ele>334</ele>
        <time>2021-04-18T12:29:46Z</time>
      </trkpt>
      <trkpt lat="43.94909" lon="2.36668">
        <ele>333</ele>
        <time>2021-04-18T12:29:47Z</time>
      </trkpt>
      <trkpt lat="43.9491" lon="2.36667">
        <ele>332</ele>
        <time>2021-04-18T12:29:48Z</time>
      </trkpt>
      <trkpt lat="43.9491" lon="2.36665">
        <ele>332</ele>
        <time>2021-04-18T12:29:49Z</time>
      </trkpt>
      <trkpt lat="43.9491" lon="2.36663">
        <ele>332</ele>
        <time>2021-04-18T12:29:50Z</time>
      </trkpt>
      <trkpt lat="43.9491" lon="2.36662">
        <ele>331</ele>
        <time>2021-04-18T12:29:51Z</time>
      </trkpt>
      <trkpt lat="43.94911" lon="2.3666">
        <ele>330</ele>
        <time>2021-04-18T12:29:52Z</time>
      </trkpt>
      <trkpt lat="43.9491" lon="2.36659">
        <ele>330</ele>
        <time>2021-04-18T12:29:53Z</time>
      </trkpt>
      <trkpt lat="43.94911" lon="2.36658">
        <ele>330</ele>
        <time>2021-04-18T12:29:54Z</time>
      </trkpt>
      <trkpt lat="43.94912" lon="2.36657">
        <ele>330</ele>
        <time>2021-04-18T12:29:55Z</time>
      </trkpt>
      <trkpt lat="43.94912" lon="2.36655">
        <ele>330</ele>
        <time>2021-04-18T12:29:56Z</time>
      </trkpt>
      <trkpt lat="43.94912" lon="2.36654">
        <ele>330</ele>
        <time>2021-04-18T12:29:57Z</time>
      </trkpt>
      <trkpt lat="43.94913" lon="2.36652">
        <ele>330</ele>
        <time>2021-04-18T12:29:58Z</time>
      </trkpt>
      <trkpt lat="43.94914" lon="2.36651">
        <ele>331</ele>
        <time>2021-04-18T12:29:59Z</time>
      </trkpt>
      <trkpt lat="43.94914" lon="2.36649">
        <ele>331</ele>
        <time>2021-04-18T12:30:00Z</time>
      </trkpt>
      <trkpt lat="43.94915" lon="2.36647">
        <ele>331</ele>
        <time>2021-04-18T12:30:01Z</time>
      </trkpt>
      <trkpt lat="43.94915" lon="2.36646">
        <ele>332</ele>
        <time>2021-04-18T12:30:02Z</time>
      </trkpt>
      <trkpt lat="43.94915" lon="2.36644">
        <ele>332</ele>
        <time>2021-04-18T12:30:03Z</time>
      </trkpt>
      <trkpt lat="43.94915" lon="2.36642">
        <ele>332</ele>
        <time>2021-04-18T12:30:04Z</time>
      </trkpt>
      <trkpt lat="43.94915" lon="2.3664">
        <ele>332</ele>
        <time>2021-04-18T12:30:05Z</time>
      </trkpt>
      <trkpt lat="43.94915" lon="2.36638">
        <ele>333</ele>
        <time>2021-04-18T12:30:06Z</time>
      </trkpt>
      <trkpt lat="43.94915" lon="2.36636">
        <ele>333</ele>
        <time>2021-04-18T12:30:07Z</time>
      </trkpt>
      <trkpt lat="43.94916" lon="2.36634">
        <ele>332</ele>
        <time>2021-04-18T12:30:08Z</time>
      </trkpt>
      <trkpt lat="43.94916" lon="2.36632">
        <ele>333</ele>
        <time>2021-04-18T12:30:09Z</time>
      </trkpt>
      <trkpt lat="43.94917" lon="2.3663">
        <ele>332</ele>
        <time>2021-04-18T12:30:10Z</time>
      </trkpt>
      <trkpt lat="43.94916" lon="2.36628">
        <ele>333</ele>
        <time>2021-04-18T12:30:11Z</time>
      </trkpt>
      <trkpt lat="43.94917" lon="2.36627">
        <ele>332</ele>
        <time>2021-04-18T12:30:12Z</time>
      </trkpt>
      <trkpt lat="43.94916" lon="2.36625">
        <ele>332</ele>
        <time>2021-04-18T12:30:13Z</time>
      </trkpt>
      <trkpt lat="43.94916" lon="2.36623">
        <ele>332</ele>
        <time>2021-04-18T12:30:14Z</time>
      </trkpt>
      <trkpt lat="43.94917" lon="2.3662">
        <ele>332</ele>
        <time>2021-04-18T12:30:15Z</time>
      </trkpt>
      <trkpt lat="43.94917" lon="2.36619">
        <ele>332</ele>
        <time>2021-04-18T12:30:16Z</time>
      </trkpt>
      <trkpt lat="43.94917" lon="2.36616">
        <ele>332</ele>
        <time>2021-04-18T12:30:17Z</time>
      </trkpt>
      <trkpt lat="43.94918" lon="2.36614">
        <ele>332</ele>
        <time>2021-04-18T12:30:18Z</time>
      </trkpt>
      <trkpt lat="43.94918" lon="2.36612">
        <ele>332</ele>
        <time>2021-04-18T12:30:19Z</time>
      </trkpt>
      <trkpt lat="43.94918" lon="2.36609">
        <ele>332</ele>
        <time>2021-04-18T12:30:20Z</time>
      </trkpt>
      <trkpt lat="43.94918" lon="2.36608">
        <ele>331</ele>
        <time>2021-04-18T12:30:21Z</time>
      </trkpt>
      <trkpt lat="43.94918" lon="2.36607">
        <ele>331</ele>
        <time>2021-04-18T12:30:22Z</time>
      </trkpt>
      <trkpt lat="43.94917" lon="2.36606">
        <ele>331</ele>
        <time>2021-04-18T12:30:23Z</time>
      </trkpt>
      <trkpt lat="43.94916" lon="2.36604">
        <ele>331</ele>
        <time>2021-04-18T12:30:24Z</time>
      </trkpt>
      <trkpt lat="43.94914" lon="2.36603">
        <ele>331</ele>
        <time>2021-04-18T12:30:25Z</time>
      </trkpt>
      <trkpt lat="43.94913" lon="2.36602">
        <ele>330</ele>
        <time>2021-04-18T12:30:26Z</time>
      </trkpt>
      <trkpt lat="43.94913" lon="2.36602">
        <ele>330</ele>
        <time>2021-04-18T12:30:27Z</time>
      </trkpt>
      <trkpt lat="43.94912" lon="2.36603">
        <ele>330</ele>
        <time>2021-04-18T12:30:28Z</time>
      </trkpt>
      <trkpt lat="43.94912" lon="2.36604">
        <ele>331</ele>
        <time>2021-04-18T12:30:29Z</time>
      </trkpt>
      <trkpt lat="43.94912" lon="2.36604">
        <ele>331</ele>
        <time>2021-04-18T12:30:30Z</time>
      </trkpt>
      <trkpt lat="43.9491" lon="2.36605">
        <ele>330</ele>
        <time>2021-04-18T12:30:31Z</time>
      </trkpt>
      <trkpt lat="43.94909" lon="2.36607">
        <ele>330</ele>
        <time>2021-04-18T12:30:32Z</time>
      </trkpt>
      <trkpt lat="43.94909" lon="2.36608">
        <ele>330</ele>
        <time>2021-04-18T12:30:33Z</time>
      </trkpt>
      <trkpt lat="43.94907" lon="2.3661">
        <ele>330</ele>
        <time>2021-04-18T12:30:34Z</time>
      </trkpt>
      <trkpt lat="43.94906" lon="2.36611">
        <ele>330</ele>
        <time>2021-04-18T12:30:35Z</time>
      </trkpt>
      <trkpt lat="43.94905" lon="2.36613">
        <ele>330</ele>
        <time>2021-04-18T12:30:36Z</time>
      </trkpt>
      <trkpt lat="43.94904" lon="2.36614">
        <ele>330</ele>
        <time>2021-04-18T12:30:37Z</time>
      </trkpt>
      <trkpt lat="43.94902" lon="2.36615">
        <ele>329</ele>
        <time>2021-04-18T12:30:38Z</time>
      </trkpt>
      <trkpt lat="43.94901" lon="2.36616">
        <ele>329</ele>
        <time>2021-04-18T12:30:39Z</time>
      </trkpt>
      <trkpt lat="43.949" lon="2.36618">
        <ele>329</ele>
        <time>2021-04-18T12:30:40Z</time>
      </trkpt>
      <trkpt lat="43.94899" lon="2.36619">
        <ele>328</ele>
        <time>2021-04-18T12:30:41Z</time>
      </trkpt>
      <trkpt lat="43.94897" lon="2.36623">
        <ele>329</ele>
        <time>2021-04-18T12:30:42Z</time>
      </trkpt>
      <trkpt lat="43.94896" lon="2.36625">
        <ele>329</ele>
        <time>2021-04-18T12:30:43Z</time>
      </trkpt>
      <trkpt lat="43.94895" lon="2.36626">
        <ele>328</ele>
        <time>2021-04-18T12:30:44Z</time>
      </trkpt>
      <trkpt lat="43.94894" lon="2.36627">
        <ele>328</ele>
        <time>2021-04-18T12:30:45Z</time>
      </trkpt>
      <trkpt lat="43.94894" lon="2.36629">
        <ele>328</ele>
        <time>2021-04-18T12:30:46Z</time>
      </trkpt>
      <trkpt lat="43.94893" lon="2.3663">
        <ele>328</ele>
        <time>2021-04-18T12:30:47Z</time>
      </trkpt>
      <trkpt lat="43.94893" lon="2.3663">
        <ele>328</ele>
        <time>2021-04-18T12:30:47Z</time>
      </trkpt>
      <trkpt lat="43.94892" lon="2.36633">
        <ele>328</ele>
        <time>2021-04-18T12:30:49Z</time>
      </trkpt>
      <trkpt lat="43.94891" lon="2.36634">
        <ele>328</ele>
        <time>2021-04-18T12:30:50Z</time>
      </trkpt>
      <trkpt lat="43.94891" lon="2.36635">
        <ele>328</ele>
        <time>2021-04-18T12:30:51Z</time>
      </trkpt>
      <trkpt lat="43.9489" lon="2.36637">
        <ele>327</ele>
        <time>2021-04-18T12:30:52Z</time>
      </trkpt>
      <trkpt lat="43.9489" lon="2.36639">
        <ele>326</ele>
        <time>2021-04-18T12:30:53Z</time>
      </trkpt>
      <trkpt lat="43.94889" lon="2.3664">
        <ele>326</ele>
        <time>2021-04-18T12:30:54Z</time>
      </trkpt>
      <trkpt lat="43.94888" lon="2.36641">
        <ele>326</ele>
        <time>2021-04-18T12:30:55Z</time>
      </trkpt>
      <trkpt lat="43.94887" lon="2.36643">
        <ele>326</ele>
        <time>2021-04-18T12:30:56Z</time>
      </trkpt>
      <trkpt lat="43.94886" lon="2.36644">
        <ele>326</ele>
        <time>2021-04-18T12:30:57Z</time>
      </trkpt>
      <trkpt lat="43.94885" lon="2.36645">
        <ele>326</ele>
        <time>2021-04-18T12:30:58Z</time>
      </trkpt>
      <trkpt lat="43.94884" lon="2.36647">
        <ele>326</ele>
        <time>2021-04-18T12:30:59Z</time>
      </trkpt>
      <trkpt lat="43.94883" lon="2.3665">
        <ele>325</ele>
        <time>2021-04-18T12:31:00Z</time>
      </trkpt>
      <trkpt lat="43.94882" lon="2.36652">
        <ele>325</ele>
        <time>2021-04-18T12:31:01Z</time>
      </trkpt>
      <trkpt lat="43.94881" lon="2.36654">
        <ele>325</ele>
        <time>2021-04-18T12:31:02Z</time>
      </trkpt>
      <trkpt lat="43.94881" lon="2.36657">
        <ele>325</ele>
        <time>2021-04-18T12:31:03Z</time>
      </trkpt>
      <trkpt lat="43.9488" lon="2.36659">
        <ele>325</ele>
        <time>2021-04-18T12:31:04Z</time>
      </trkpt>
      <trkpt lat="43.9488" lon="2.36661">
        <ele>325</ele>
        <time>2021-04-18T12:31:05Z</time>
      </trkpt>
      <trkpt lat="43.94879" lon="2.36663">
        <ele>325</ele>
        <time>2021-04-18T12:31:06Z</time>
      </trkpt>
      <trkpt lat="43.94878" lon="2.36665">
        <ele>325</ele>
        <time>2021-04-18T12:31:07Z</time>
      </trkpt>
      <trkpt lat="43.94878" lon="2.36667">
        <ele>325</ele>
        <time>2021-04-18T12:31:08Z</time>
      </trkpt>
      <trkpt lat="43.94877" lon="2.36669">
        <ele>324</ele>
        <time>2021-04-18T12:31:09Z</time>
      </trkpt>
      <trkpt lat="43.94877" lon="2.36672">
        <ele>324</ele>
        <time>2021-04-18T12:31:10Z</time>
      </trkpt>
      <trkpt lat="43.94876" lon="2.36673">
        <ele>324</ele>
        <time>2021-04-18T12:31:11Z</time>
      </trkpt>
      <trkpt lat="43.94876" lon="2.36674">
        <ele>324</ele>
        <time>2021-04-18T12:31:12Z</time>
      </trkpt>
      <trkpt lat="43.94876" lon="2.36676">
        <ele>324</ele>
        <time>2021-04-18T12:31:13Z</time>
      </trkpt>
      <trkpt lat="43.94875" lon="2.36677">
        <ele>323</ele>
        <time>2021-04-18T12:31:14Z</time>
      </trkpt>
      <trkpt lat="43.94875" lon="2.36678">
        <ele>323</ele>
        <time>2021-04-18T12:31:15Z</time>
      </trkpt>
      <trkpt lat="43.94874" lon="2.36679">
        <ele>322</ele>
        <time>2021-04-18T12:31:16Z</time>
      </trkpt>
      <trkpt lat="43.94874" lon="2.36682">
        <ele>322</ele>
        <time>2021-04-18T12:31:17Z</time>
      </trkpt>
      <trkpt lat="43.94874" lon="2.36684">
        <ele>322</ele>
        <time>2021-04-18T12:31:18Z</time>
      </trkpt>
      <trkpt lat="43.94874" lon="2.36687">
        <ele>321</ele>
        <time>2021-04-18T12:31:19Z</time>
      </trkpt>
      <trkpt lat="43.94874" lon="2.36689">
        <ele>320</ele>
        <time>2021-04-18T12:31:20Z</time>
      </trkpt>
      <trkpt lat="43.94873" lon="2.3669">
        <ele>320</ele>
        <time>2021-04-18T12:31:21Z</time>
      </trkpt>
      <trkpt lat="43.94872" lon="2.36692">
        <ele>320</ele>
        <time>2021-04-18T12:31:22Z</time>
      </trkpt>
      <trkpt lat="43.94872" lon="2.36694">
        <ele>321</ele>
        <time>2021-04-18T12:31:23Z</time>
      </trkpt>
      <trkpt lat="43.94872" lon="2.36695">
        <ele>321</ele>
        <time>2021-04-18T12:31:24Z</time>
      </trkpt>
      <trkpt lat="43.9487" lon="2.36697">
        <ele>321</ele>
        <time>2021-04-18T12:31:25Z</time>
      </trkpt>
      <trkpt lat="43.9487" lon="2.36698">
        <ele>321</ele>
        <time>2021-04-18T12:31:26Z</time>
      </trkpt>
      <trkpt lat="43.94869" lon="2.367">
        <ele>320</ele>
        <time>2021-04-18T12:31:27Z</time>
      </trkpt>
      <trkpt lat="43.94868" lon="2.36702">
        <ele>321</ele>
        <time>2021-04-18T12:31:28Z</time>
      </trkpt>
      <trkpt lat="43.94868" lon="2.36704">
        <ele>321</ele>
        <time>2021-04-18T12:31:29Z</time>
      </trkpt>
      <trkpt lat="43.94867" lon="2.36706">
        <ele>321</ele>
        <time>2021-04-18T12:31:30Z</time>
      </trkpt>
      <trkpt lat="43.94866" lon="2.36707">
        <ele>321</ele>
        <time>2021-04-18T12:31:31Z</time>
      </trkpt>
      <trkpt lat="43.94865" lon="2.3671">
        <ele>320</ele>
        <time>2021-04-18T12:31:32Z</time>
      </trkpt>
      <trkpt lat="43.94864" lon="2.36713">
        <ele>319</ele>
        <time>2021-04-18T12:31:33Z</time>
      </trkpt>
      <trkpt lat="43.94863" lon="2.36715">
        <ele>319</ele>
        <time>2021-04-18T12:31:34Z</time>
      </trkpt>
      <trkpt lat="43.94862" lon="2.36716">
        <ele>319</ele>
        <time>2021-04-18T12:31:35Z</time>
      </trkpt>
      <trkpt lat="43.94862" lon="2.36718">
        <ele>319</ele>
        <time>2021-04-18T12:31:36Z</time>
      </trkpt>
      <trkpt lat="43.94861" lon="2.3672">
        <ele>318</ele>
        <time>2021-04-18T12:31:37Z</time>
      </trkpt>
      <trkpt lat="43.9486" lon="2.36723">
        <ele>317</ele>
        <time>2021-04-18T12:31:38Z</time>
      </trkpt>
      <trkpt lat="43.94859" lon="2.36725">
        <ele>316</ele>
        <time>2021-04-18T12:31:39Z</time>
      </trkpt>
      <trkpt lat="43.94859" lon="2.36727">
        <ele>316</ele>
        <time>2021-04-18T12:31:40Z</time>
      </trkpt>
      <trkpt lat="43.94858" lon="2.36729">
        <ele>316</ele>
        <time>2021-04-18T12:31:41Z</time>
      </trkpt>
      <trkpt lat="43.94857" lon="2.36731">
        <ele>315</ele>
        <time>2021-04-18T12:31:42Z</time>
      </trkpt>
      <trkpt lat="43.94857" lon="2.36733">
        <ele>315</ele>
        <time>2021-04-18T12:31:43Z</time>
      </trkpt>
      <trkpt lat="43.94857" lon="2.36735">
        <ele>315</ele>
        <time>2021-04-18T12:31:44Z</time>
      </trkpt>
      <trkpt lat="43.94857" lon="2.36738">
        <ele>315</ele>
        <time>2021-04-18T12:31:45Z</time>
      </trkpt>
      <trkpt lat="43.94857" lon="2.3674">
        <ele>315</ele>
        <time>2021-04-18T12:31:46Z</time>
      </trkpt>
      <trkpt lat="43.94857" lon="2.36743">
        <ele>315</ele>
        <time>2021-04-18T12:31:47Z</time>
      </trkpt>
      <trkpt lat="43.94857" lon="2.36745">
        <ele>315</ele>
        <time>2021-04-18T12:31:48Z</time>
      </trkpt>
      <trkpt lat="43.94857" lon="2.36747">
        <ele>315</ele>
        <time>2021-04-18T12:31:49Z</time>
      </trkpt>
      <trkpt lat="43.94858" lon="2.36748">
        <ele>315</ele>
        <time>2021-04-18T12:31:50Z</time>
      </trkpt>
      <trkpt lat="43.94858" lon="2.3675">
        <ele>315</ele>
        <time>2021-04-18T12:31:51Z</time>
      </trkpt>
      <trkpt lat="43.94859" lon="2.36751">
        <ele>315</ele>
        <time>2021-04-18T12:31:52Z</time>
      </trkpt>
      <trkpt lat="43.94861" lon="2.36754">
        <ele>314</ele>
        <time>2021-04-18T12:31:53Z</time>
      </trkpt>
      <trkpt lat="43.94862" lon="2.36756">
        <ele>315</ele>
        <time>2021-04-18T12:31:54Z</time>
      </trkpt>
      <trkpt lat="43.94864" lon="2.36758">
        <ele>314</ele>
        <time>2021-04-18T12:31:55Z</time>
      </trkpt>
      <trkpt lat="43.94865" lon="2.3676">
        <ele>314</ele>
        <time>2021-04-18T12:31:56Z</time>
      </trkpt>
      <trkpt lat="43.94866" lon="2.36761">
        <ele>314</ele>
        <time>2021-04-18T12:31:57Z</time>
      </trkpt>
      <trkpt lat="43.94867" lon="2.36762">
        <ele>314</ele>
        <time>2021-04-18T12:31:58Z</time>
      </trkpt>
      <trkpt lat="43.94867" lon="2.36763">
        <ele>314</ele>
        <time>2021-04-18T12:31:59Z</time>
      </trkpt>
      <trkpt lat="43.94867" lon="2.36763">
        <ele>313</ele>
        <time>2021-04-18T12:32:00Z</time>
      </trkpt>
      <trkpt lat="43.94868" lon="2.36765">
        <ele>313</ele>
        <time>2021-04-18T12:32:01Z</time>
      </trkpt>
      <trkpt lat="43.94868" lon="2.36766">
        <ele>312</ele>
        <time>2021-04-18T12:32:02Z</time>
      </trkpt>
      <trkpt lat="43.94868" lon="2.36767">
        <ele>311</ele>
        <time>2021-04-18T12:32:03Z</time>
      </trkpt>
      <trkpt lat="43.94867" lon="2.36769">
        <ele>311</ele>
        <time>2021-04-18T12:32:04Z</time>
      </trkpt>
      <trkpt lat="43.94867" lon="2.3677">
        <ele>311</ele>
        <time>2021-04-18T12:32:05Z</time>
      </trkpt>
      <trkpt lat="43.94867" lon="2.36771">
        <ele>311</ele>
        <time>2021-04-18T12:32:06Z</time>
      </trkpt>
      <trkpt lat="43.94867" lon="2.36772">
        <ele>311</ele>
        <time>2021-04-18T12:32:07Z</time>
      </trkpt>
      <trkpt lat="43.94867" lon="2.36774">
        <ele>311</ele>
        <time>2021-04-18T12:32:08Z</time>
      </trkpt>
      <trkpt lat="43.94866" lon="2.36776">
        <ele>311</ele>
        <time>2021-04-18T12:32:09Z</time>
      </trkpt>
      <trkpt lat="43.94866" lon="2.36779">
        <ele>311</ele>
        <time>2021-04-18T12:32:10Z</time>
      </trkpt>
      <trkpt lat="43.94866" lon="2.36782">
        <ele>312</ele>
        <time>2021-04-18T12:32:11Z</time>
      </trkpt>
      <trkpt lat="43.94866" lon="2.36784">
        <ele>311</ele>
        <time>2021-04-18T12:32:12Z</time>
      </trkpt>
      <trkpt lat="43.94866" lon="2.36785">
        <ele>312</ele>
        <time>2021-04-18T12:32:13Z</time>
      </trkpt>
      <trkpt lat="43.94865" lon="2.36787">
        <ele>312</ele>
        <time>2021-04-18T12:32:14Z</time>
      </trkpt>
      <trkpt lat="43.94865" lon="2.36789">
        <ele>312</ele>
        <time>2021-04-18T12:32:15Z</time>
      </trkpt>
      <trkpt lat="43.94865" lon="2.3679">
        <ele>313</ele>
        <time>2021-04-18T12:32:16Z</time>
      </trkpt>
      <trkpt lat="43.94865" lon="2.36792">
        <ele>313</ele>
        <time>2021-04-18T12:32:17Z</time>
      </trkpt>
      <trkpt lat="43.94864" lon="2.36793">
        <ele>313</ele>
        <time>2021-04-18T12:32:18Z</time>
      </trkpt>
      <trkpt lat="43.94864" lon="2.36795">
        <ele>314</ele>
        <time>2021-04-18T12:32:19Z</time>
      </trkpt>
      <trkpt lat="43.94863" lon="2.36797">
        <ele>314</ele>
        <time>2021-04-18T12:32:20Z</time>
      </trkpt>
      <trkpt lat="43.94862" lon="2.36798">
        <ele>313</ele>
        <time>2021-04-18T12:32:21Z</time>
      </trkpt>
      <trkpt lat="43.94862" lon="2.368">
        <ele>313</ele>
        <time>2021-04-18T12:32:22Z</time>
      </trkpt>
      <trkpt lat="43.94861" lon="2.36802">
        <ele>313</ele>
        <time>2021-04-18T12:32:23Z</time>
      </trkpt>
      <trkpt lat="43.94861" lon="2.36803">
        <ele>313</ele>
        <time>2021-04-18T12:32:24Z</time>
      </trkpt>
      <trkpt lat="43.94861" lon="2.36806">
        <ele>313</ele>
        <time>2021-04-18T12:32:25Z</time>
      </trkpt>
      <trkpt lat="43.94861" lon="2.36807">
        <ele>313</ele>
        <time>2021-04-18T12:32:26Z</time>
      </trkpt>
      <trkpt lat="43.9486" lon="2.36809">
        <ele>313</ele>
        <time>2021-04-18T12:32:27Z</time>
      </trkpt>
      <trkpt lat="43.94859" lon="2.36811">
        <ele>313</ele>
        <time>2021-04-18T12:32:28Z</time>
      </trkpt>
      <trkpt lat="43.94859" lon="2.36812">
        <ele>313</ele>
        <time>2021-04-18T12:32:29Z</time>
      </trkpt>
      <trkpt lat="43.94858" lon="2.36814">
        <ele>313</ele>
        <time>2021-04-18T12:32:30Z</time>
      </trkpt>
      <trkpt lat="43.94857" lon="2.36814">
        <ele>313</ele>
        <time>2021-04-18T12:32:31Z</time>
      </trkpt>
      <trkpt lat="43.94856" lon="2.36815">
        <ele>314</ele>
        <time>2021-04-18T12:32:32Z</time>
      </trkpt>
      <trkpt lat="43.94856" lon="2.36816">
        <ele>314</ele>
        <time>2021-04-18T12:32:33Z</time>
      </trkpt>
      <trkpt lat="43.94854" lon="2.36817">
        <ele>313</ele>
        <time>2021-04-18T12:32:34Z</time>
      </trkpt>
      <trkpt lat="43.94854" lon="2.36819">
        <ele>313</ele>
        <time>2021-04-18T12:32:35Z</time>
      </trkpt>
      <trkpt lat="43.94852" lon="2.36821">
        <ele>312</ele>
        <time>2021-04-18T12:32:36Z</time>
      </trkpt>
      <trkpt lat="43.94852" lon="2.36822">
        <ele>312</ele>
        <time>2021-04-18T12:32:37Z</time>
      </trkpt>
      <trkpt lat="43.94851" lon="2.36823">
        <ele>312</ele>
        <time>2021-04-18T12:32:38Z</time>
      </trkpt>
      <trkpt lat="43.94849" lon="2.36823">
        <ele>312</ele>
        <time>2021-04-18T12:32:39Z</time>
      </trkpt>
      <trkpt lat="43.94848" lon="2.36825">
        <ele>312</ele>
        <time>2021-04-18T12:32:40Z</time>
      </trkpt>
      <trkpt lat="43.94847" lon="2.36826">
        <ele>312</ele>
        <time>2021-04-18T12:32:41Z</time>
      </trkpt>
      <trkpt lat="43.94845" lon="2.36827">
        <ele>312</ele>
        <time>2021-04-18T12:32:42Z</time>
      </trkpt>
      <trkpt lat="43.94844" lon="2.36829">
        <ele>311</ele>
        <time>2021-04-18T12:32:43Z</time>
      </trkpt>
      <trkpt lat="43.94843" lon="2.36831">
        <ele>311</ele>
        <time>2021-04-18T12:32:44Z</time>
      </trkpt>
      <trkpt lat="43.94842" lon="2.36832">
        <ele>310</ele>
        <time>2021-04-18T12:32:45Z</time>
      </trkpt>
      <trkpt lat="43.94841" lon="2.36833">
        <ele>311</ele>
        <time>2021-04-18T12:32:46Z</time>
      </trkpt>
      <trkpt lat="43.9484" lon="2.36835">
        <ele>310</ele>
        <time>2021-04-18T12:32:47Z</time>
      </trkpt>
      <trkpt lat="43.9484" lon="2.36836">
        <ele>310</ele>
        <time>2021-04-18T12:32:48Z</time>
      </trkpt>
      <trkpt lat="43.94839" lon="2.36838">
        <ele>310</ele>
        <time>2021-04-18T12:32:49Z</time>
      </trkpt>
      <trkpt lat="43.94838" lon="2.36839">
        <ele>310</ele>
        <time>2021-04-18T12:32:50Z</time>
      </trkpt>
      <trkpt lat="43.94836" lon="2.3684">
        <ele>310</ele>
        <time>2021-04-18T12:32:51Z</time>
      </trkpt>
      <trkpt lat="43.94835" lon="2.36841">
        <ele>310</ele>
        <time>2021-04-18T12:32:52Z</time>
      </trkpt>
      <trkpt lat="43.94833" lon="2.36842">
        <ele>310</ele>
        <time>2021-04-18T12:32:53Z</time>
      </trkpt>
      <trkpt lat="43.94832" lon="2.36843">
        <ele>310</ele>
        <time>2021-04-18T12:32:54Z</time>
      </trkpt>
      <trkpt lat="43.94831" lon="2.36844">
        <ele>310</ele>
        <time>2021-04-18T12:32:55Z</time>
      </trkpt>
      <trkpt lat="43.9483" lon="2.36846">
        <ele>309</ele>
        <time>2021-04-18T12:32:56Z</time>
      </trkpt>
      <trkpt lat="43.94828" lon="2.36847">
        <ele>309</ele>
        <time>2021-04-18T12:32:57Z</time>
      </trkpt>
      <trkpt lat="43.94827" lon="2.36849">
        <ele>310</ele>
        <time>2021-04-18T12:32:58Z</time>
      </trkpt>
      <trkpt lat="43.94826" lon="2.3685">
        <ele>310</ele>
        <time>2021-04-18T12:32:59Z</time>
      </trkpt>
      <trkpt lat="43.94825" lon="2.36852">
        <ele>310</ele>
        <time>2021-04-18T12:33:00Z</time>
      </trkpt>
      <trkpt lat="43.94824" lon="2.36854">
        <ele>311</ele>
        <time>2021-04-18T12:33:01Z</time>
      </trkpt>
      <trkpt lat="43.94822" lon="2.36855">
        <ele>310</ele>
        <time>2021-04-18T12:33:02Z</time>
      </trkpt>
      <trkpt lat="43.94821" lon="2.36856">
        <ele>310</ele>
        <time>2021-04-18T12:33:03Z</time>
      </trkpt>
      <trkpt lat="43.9482" lon="2.36857">
        <ele>310</ele>
        <time>2021-04-18T12:33:04Z</time>
      </trkpt>
      <trkpt lat="43.94819" lon="2.36859">
        <ele>310</ele>
        <time>2021-04-18T12:33:05Z</time>
      </trkpt>
      <trkpt lat="43.94817" lon="2.3686">
        <ele>310</ele>
        <time>2021-04-18T12:33:06Z</time>
      </trkpt>
      <trkpt lat="43.94815" lon="2.36861">
        <ele>310</ele>
        <time>2021-04-18T12:33:07Z</time>
      </trkpt>
      <trkpt lat="43.94815" lon="2.36864">
        <ele>310</ele>
        <time>2021-04-18T12:33:08Z</time>
      </trkpt>
      <trkpt lat="43.94814" lon="2.36866">
        <ele>310</ele>
        <time>2021-04-18T12:33:09Z</time>
      </trkpt>
      <trkpt lat="43.94813" lon="2.36867">
        <ele>310</ele>
        <time>2021-04-18T12:33:10Z</time>
      </trkpt>
      <trkpt lat="43.94812" lon="2.36869">
        <ele>310</ele>
        <time>2021-04-18T12:33:11Z</time>
      </trkpt>
      <trkpt lat="43.94811" lon="2.3687">
        <ele>310</ele>
        <time>2021-04-18T12:33:12Z</time>
      </trkpt>
      <trkpt lat="43.94811" lon="2.3687">
        <ele>310</ele>
        <time>2021-04-18T12:33:13Z</time>
      </trkpt>
      <trkpt lat="43.94811" lon="2.36873">
        <ele>310</ele>
        <time>2021-04-18T12:33:14Z</time>
      </trkpt>
      <trkpt lat="43.9481" lon="2.36875">
        <ele>310</ele>
        <time>2021-04-18T12:33:15Z</time>
      </trkpt>
      <trkpt lat="43.94809" lon="2.36877">
        <ele>310</ele>
        <time>2021-04-18T12:33:16Z</time>
      </trkpt>
      <trkpt lat="43.94809" lon="2.36879">
        <ele>311</ele>
        <time>2021-04-18T12:33:17Z</time>
      </trkpt>
      <trkpt lat="43.94809" lon="2.36881">
        <ele>312</ele>
        <time>2021-04-18T12:33:18Z</time>
      </trkpt>
      <trkpt lat="43.94808" lon="2.36883">
        <ele>312</ele>
        <time>2021-04-18T12:33:19Z</time>
      </trkpt>
      <trkpt lat="43.94808" lon="2.36886">
        <ele>312</ele>
        <time>2021-04-18T12:33:20Z</time>
      </trkpt>
      <trkpt lat="43.94807" lon="2.36888">
        <ele>312</ele>
        <time>2021-04-18T12:33:21Z</time>
      </trkpt>
      <trkpt lat="43.94806" lon="2.3689">
        <ele>312</ele>
        <time>2021-04-18T12:33:22Z</time>
      </trkpt>
      <trkpt lat="43.94806" lon="2.36892">
        <ele>313</ele>
        <time>2021-04-18T12:33:23Z</time>
      </trkpt>
      <trkpt lat="43.94805" lon="2.36894">
        <ele>313</ele>
        <time>2021-04-18T12:33:24Z</time>
      </trkpt>
      <trkpt lat="43.94804" lon="2.36896">
        <ele>313</ele>
        <time>2021-04-18T12:33:25Z</time>
      </trkpt>
      <trkpt lat="43.94803" lon="2.36897">
        <ele>313</ele>
        <time>2021-04-18T12:33:26Z</time>
      </trkpt>
      <trkpt lat="43.94802" lon="2.36899">
        <ele>313</ele>
        <time>2021-04-18T12:33:27Z</time>
      </trkpt>
      <trkpt lat="43.94801" lon="2.369">
        <ele>314</ele>
        <time>2021-04-18T12:33:28Z</time>
      </trkpt>
      <trkpt lat="43.94801" lon="2.36902">
        <ele>313</ele>
        <time>2021-04-18T12:33:29Z</time>
      </trkpt>
      <trkpt lat="43.948" lon="2.36904">
        <ele>313</ele>
        <time>2021-04-18T12:33:30Z</time>
      </trkpt>
      <trkpt lat="43.94799" lon="2.36906">
        <ele>313</ele>
        <time>2021-04-18T12:33:31Z</time>
      </trkpt>
      <trkpt lat="43.94798" lon="2.36908">
        <ele>313</ele>
        <time>2021-04-18T12:33:32Z</time>
      </trkpt>
      <trkpt lat="43.94798" lon="2.3691">
        <ele>314</ele>
        <time>2021-04-18T12:33:33Z</time>
      </trkpt>
      <trkpt lat="43.94797" lon="2.36912">
        <ele>314</ele>
        <time>2021-04-18T12:33:34Z</time>
      </trkpt>
      <trkpt lat="43.94796" lon="2.36914">
        <ele>314</ele>
        <time>2021-04-18T12:33:35Z</time>
      </trkpt>
      <trkpt lat="43.94795" lon="2.36915">
        <ele>314</ele>
        <time>2021-04-18T12:33:36Z</time>
      </trkpt>
      <trkpt lat="43.94795" lon="2.36917">
        <ele>314</ele>
        <time>2021-04-18T12:33:37Z</time>
      </trkpt>
      <trkpt lat="43.94794" lon="2.36918">
        <ele>314</ele>
        <time>2021-04-18T12:33:38Z</time>
      </trkpt>
      <trkpt lat="43.94793" lon="2.3692">
        <ele>314</ele>
        <time>2021-04-18T12:33:39Z</time>
      </trkpt>
      <trkpt lat="43.94792" lon="2.36922">
        <ele>314</ele>
        <time>2021-04-18T12:33:40Z</time>
      </trkpt>
      <trkpt lat="43.94791" lon="2.36924">
        <ele>314</ele>
        <time>2021-04-18T12:33:41Z</time>
      </trkpt>
      <trkpt lat="43.9479" lon="2.36925">
        <ele>314</ele>
        <time>2021-04-18T12:33:42Z</time>
      </trkpt>
      <trkpt lat="43.94789" lon="2.36926">
        <ele>314</ele>
        <time>2021-04-18T12:33:43Z</time>
      </trkpt>
      <trkpt lat="43.94787" lon="2.36927">
        <ele>314</ele>
        <time>2021-04-18T12:33:44Z</time>
      </trkpt>
      <trkpt lat="43.94787" lon="2.36929">
        <ele>314</ele>
        <time>2021-04-18T12:33:45Z</time>
      </trkpt>
      <trkpt lat="43.94785" lon="2.3693">
        <ele>314</ele>
        <time>2021-04-18T12:33:46Z</time>
      </trkpt>
      <trkpt lat="43.94784" lon="2.36933">
        <ele>314</ele>
        <time>2021-04-18T12:33:47Z</time>
      </trkpt>
      <trkpt lat="43.94783" lon="2.36935">
        <ele>314</ele>
        <time>2021-04-18T12:33:48Z</time>
      </trkpt>
      <trkpt lat="43.94782" lon="2.36937">
        <ele>314</ele>
        <time>2021-04-18T12:33:49Z</time>
      </trkpt>
      <trkpt lat="43.94781" lon="2.36939">
        <ele>314</ele>
        <time>2021-04-18T12:33:50Z</time>
      </trkpt>
      <trkpt lat="43.9478" lon="2.36941">
        <ele>314</ele>
        <time>2021-04-18T12:33:51Z</time>
      </trkpt>
      <trkpt lat="43.9478" lon="2.36943">
        <ele>314</ele>
        <time>2021-04-18T12:33:52Z</time>
      </trkpt>
      <trkpt lat="43.94779" lon="2.36945">
        <ele>315</ele>
        <time>2021-04-18T12:33:53Z</time>
      </trkpt>
      <trkpt lat="43.94779" lon="2.36948">
        <ele>315</ele>
        <time>2021-04-18T12:33:54Z</time>
      </trkpt>
      <trkpt lat="43.94779" lon="2.3695">
        <ele>314</ele>
        <time>2021-04-18T12:33:55Z</time>
      </trkpt>
      <trkpt lat="43.94779" lon="2.36953">
        <ele>314</ele>
        <time>2021-04-18T12:33:56Z</time>
      </trkpt>
      <trkpt lat="43.94778" lon="2.36955">
        <ele>314</ele>
        <time>2021-04-18T12:33:57Z</time>
      </trkpt>
      <trkpt lat="43.94777" lon="2.36956">
        <ele>314</ele>
        <time>2021-04-18T12:33:58Z</time>
      </trkpt>
      <trkpt lat="43.94777" lon="2.36957">
        <ele>315</ele>
        <time>2021-04-18T12:33:59Z</time>
      </trkpt>
      <trkpt lat="43.94776" lon="2.36959">
        <ele>314</ele>
        <time>2021-04-18T12:34:00Z</time>
      </trkpt>
      <trkpt lat="43.94775" lon="2.36961">
        <ele>314</ele>
        <time>2021-04-18T12:34:01Z</time>
      </trkpt>
      <trkpt lat="43.94775" lon="2.36963">
        <ele>314</ele>
        <time>2021-04-18T12:34:02Z</time>
      </trkpt>
      <trkpt lat="43.94774" lon="2.36965">
        <ele>315</ele>
        <time>2021-04-18T12:34:03Z</time>
      </trkpt>
      <trkpt lat="43.94774" lon="2.36967">
        <ele>314</ele>
        <time>2021-04-18T12:34:04Z</time>
      </trkpt>
      <trkpt lat="43.94774" lon="2.36969">
        <ele>314</ele>
        <time>2021-04-18T12:34:05Z</time>
      </trkpt>
      <trkpt lat="43.94774" lon="2.36971">
        <ele>314</ele>
        <time>2021-04-18T12:34:06Z</time>
      </trkpt>
      <trkpt lat="43.94773" lon="2.36973">
        <ele>314</ele>
        <time>2021-04-18T12:34:07Z</time>
      </trkpt>
      <trkpt lat="43.94773" lon="2.36975">
        <ele>314</ele>
        <time>2021-04-18T12:34:08Z</time>
      </trkpt>
      <trkpt lat="43.94772" lon="2.36977">
        <ele>314</ele>
        <time>2021-04-18T12:34:09Z</time>
      </trkpt>
      <trkpt lat="43.94771" lon="2.36979">
        <ele>314</ele>
        <time>2021-04-18T12:34:10Z</time>
      </trkpt>
      <trkpt lat="43.9477" lon="2.3698">
        <ele>314</ele>
        <time>2021-04-18T12:34:11Z</time>
      </trkpt>
      <trkpt lat="43.9477" lon="2.36982">
        <ele>315</ele>
        <time>2021-04-18T12:34:12Z</time>
      </trkpt>
      <trkpt lat="43.9477" lon="2.36984">
        <ele>314</ele>
        <time>2021-04-18T12:34:13Z</time>
      </trkpt>
      <trkpt lat="43.94769" lon="2.36986">
        <ele>315</ele>
        <time>2021-04-18T12:34:14Z</time>
      </trkpt>
      <trkpt lat="43.94769" lon="2.36987">
        <ele>315</ele>
        <time>2021-04-18T12:34:15Z</time>
      </trkpt>
      <trkpt lat="43.94769" lon="2.36989">
        <ele>315</ele>
        <time>2021-04-18T12:34:16Z</time>
      </trkpt>
      <trkpt lat="43.94769" lon="2.36991">
        <ele>316</ele>
        <time>2021-04-18T12:34:17Z</time>
      </trkpt>
      <trkpt lat="43.94768" lon="2.36992">
        <ele>316</ele>
        <time>2021-04-18T12:34:18Z</time>
      </trkpt>
      <trkpt lat="43.94767" lon="2.36995">
        <ele>316</ele>
        <time>2021-04-18T12:34:19Z</time>
      </trkpt>
      <trkpt lat="43.94766" lon="2.36997">
        <ele>316</ele>
        <time>2021-04-18T12:34:20Z</time>
      </trkpt>
      <trkpt lat="43.94765" lon="2.36998">
        <ele>315</ele>
        <time>2021-04-18T12:34:21Z</time>
      </trkpt>
      <trkpt lat="43.94764" lon="2.37">
        <ele>315</ele>
        <time>2021-04-18T12:34:22Z</time>
      </trkpt>
      <trkpt lat="43.94764" lon="2.37003">
        <ele>315</ele>
        <time>2021-04-18T12:34:23Z</time>
      </trkpt>
      <trkpt lat="43.94763" lon="2.37005">
        <ele>315</ele>
        <time>2021-04-18T12:34:24Z</time>
      </trkpt>
      <trkpt lat="43.94763" lon="2.37007">
        <ele>315</ele>
        <time>2021-04-18T12:34:25Z</time>
      </trkpt>
      <trkpt lat="43.94762" lon="2.37008">
        <ele>316</ele>
        <time>2021-04-18T12:34:26Z</time>
      </trkpt>
      <trkpt lat="43.94762" lon="2.3701">
        <ele>316</ele>
        <time>2021-04-18T12:34:27Z</time>
      </trkpt>
      <trkpt lat="43.94761" lon="2.37011">
        <ele>316</ele>
        <time>2021-04-18T12:34:28Z</time>
      </trkpt>
      <trkpt lat="43.94761" lon="2.37013">
        <ele>316</ele>
        <time>2021-04-18T12:34:29Z</time>
      </trkpt>
      <trkpt lat="43.94761" lon="2.37014">
        <ele>317</ele>
        <time>2021-04-18T12:34:30Z</time>
      </trkpt>
      <trkpt lat="43.94759" lon="2.37016">
        <ele>317</ele>
        <time>2021-04-18T12:34:31Z</time>
      </trkpt>
      <trkpt lat="43.94759" lon="2.37018">
        <ele>317</ele>
        <time>2021-04-18T12:34:32Z</time>
      </trkpt>
      <trkpt lat="43.94758" lon="2.3702">
        <ele>317</ele>
        <time>2021-04-18T12:34:33Z</time>
      </trkpt>
      <trkpt lat="43.94757" lon="2.37021">
        <ele>317</ele>
        <time>2021-04-18T12:34:34Z</time>
      </trkpt>
      <trkpt lat="43.94756" lon="2.37022">
        <ele>317</ele>
        <time>2021-04-18T12:34:35Z</time>
      </trkpt>
      <trkpt lat="43.94755" lon="2.37024">
        <ele>317</ele>
        <time>2021-04-18T12:34:36Z</time>
      </trkpt>
      <trkpt lat="43.94754" lon="2.37025">
        <ele>317</ele>
        <time>2021-04-18T12:34:37Z</time>
      </trkpt>
      <trkpt lat="43.94754" lon="2.37027">
        <ele>317</ele>
        <time>2021-04-18T12:34:38Z</time>
      </trkpt>
      <trkpt lat="43.94754" lon="2.37029">
        <ele>317</ele>
        <time>2021-04-18T12:34:39Z</time>
      </trkpt>
      <trkpt lat="43.94753" lon="2.37031">
        <ele>317</ele>
        <time>2021-04-18T12:34:40Z</time>
      </trkpt>
      <trkpt lat="43.94753" lon="2.37032">
        <ele>317</ele>
        <time>2021-04-18T12:34:41Z</time>
      </trkpt>
      <trkpt lat="43.94752" lon="2.37033">
        <ele>317</ele>
        <time>2021-04-18T12:34:42Z</time>
      </trkpt>
      <trkpt lat="43.94751" lon="2.37035">
        <ele>316</ele>
        <time>2021-04-18T12:34:43Z</time>
      </trkpt>
      <trkpt lat="43.9475" lon="2.37038">
        <ele>316</ele>
        <time>2021-04-18T12:34:44Z</time>
      </trkpt>
      <trkpt lat="43.94749" lon="2.37039">
        <ele>317</ele>
        <time>2021-04-18T12:34:45Z</time>
      </trkpt>
      <trkpt lat="43.94748" lon="2.3704">
        <ele>317</ele>
        <time>2021-04-18T12:34:46Z</time>
      </trkpt>
      <trkpt lat="43.94747" lon="2.37042">
        <ele>318</ele>
        <time>2021-04-18T12:34:47Z</time>
      </trkpt>
      <trkpt lat="43.94746" lon="2.37043">
        <ele>317</ele>
        <time>2021-04-18T12:34:48Z</time>
      </trkpt>
      <trkpt lat="43.94745" lon="2.37044">
        <ele>317</ele>
        <time>2021-04-18T12:34:49Z</time>
      </trkpt>
      <trkpt lat="43.94743" lon="2.37045">
        <ele>317</ele>
        <time>2021-04-18T12:34:50Z</time>
      </trkpt>
      <trkpt lat="43.94742" lon="2.37046">
        <ele>317</ele>
        <time>2021-04-18T12:34:51Z</time>
      </trkpt>
      <trkpt lat="43.94741" lon="2.37047">
        <ele>317</ele>
        <time>2021-04-18T12:34:52Z</time>
      </trkpt>
      <trkpt lat="43.9474" lon="2.37048">
        <ele>318</ele>
        <time>2021-04-18T12:34:53Z</time>
      </trkpt>
      <trkpt lat="43.94738" lon="2.37049">
        <ele>318</ele>
        <time>2021-04-18T12:34:54Z</time>
      </trkpt>
      <trkpt lat="43.94737" lon="2.37049">
        <ele>318</ele>
        <time>2021-04-18T12:34:55Z</time>
      </trkpt>
      <trkpt lat="43.94736" lon="2.3705">
        <ele>318</ele>
        <time>2021-04-18T12:34:56Z</time>
      </trkpt>
      <trkpt lat="43.94734" lon="2.37051">
        <ele>317</ele>
        <time>2021-04-18T12:34:57Z</time>
      </trkpt>
      <trkpt lat="43.94733" lon="2.37051">
        <ele>318</ele>
        <time>2021-04-18T12:34:58Z</time>
      </trkpt>
      <trkpt lat="43.94732" lon="2.37052">
        <ele>318</ele>
        <time>2021-04-18T12:34:59Z</time>
      </trkpt>
      <trkpt lat="43.94732" lon="2.37054">
        <ele>318</ele>
        <time>2021-04-18T12:35:00Z</time>
      </trkpt>
      <trkpt lat="43.94731" lon="2.37055">
        <ele>318</ele>
        <time>2021-04-18T12:35:01Z</time>
      </trkpt>
      <trkpt lat="43.9473" lon="2.37056">
        <ele>318</ele>
        <time>2021-04-18T12:35:02Z</time>
      </trkpt>
      <trkpt lat="43.9473" lon="2.37058">
        <ele>319</ele>
        <time>2021-04-18T12:35:03Z</time>
      </trkpt>
      <trkpt lat="43.94729" lon="2.37059">
        <ele>319</ele>
        <time>2021-04-18T12:35:04Z</time>
      </trkpt>
      <trkpt lat="43.94727" lon="2.3706">
        <ele>318</ele>
        <time>2021-04-18T12:35:05Z</time>
      </trkpt>
      <trkpt lat="43.94726" lon="2.37062">
        <ele>318</ele>
        <time>2021-04-18T12:35:06Z</time>
      </trkpt>
      <trkpt lat="43.94725" lon="2.37063">
        <ele>318</ele>
        <time>2021-04-18T12:35:07Z</time>
      </trkpt>
      <trkpt lat="43.94724" lon="2.37065">
        <ele>319</ele>
        <time>2021-04-18T12:35:08Z</time>
      </trkpt>
      <trkpt lat="43.94723" lon="2.37066">
        <ele>319</ele>
        <time>2021-04-18T12:35:09Z</time>
      </trkpt>
      <trkpt lat="43.94722" lon="2.37066">
        <ele>319</ele>
        <time>2021-04-18T12:35:10Z</time>
      </trkpt>
      <trkpt lat="43.94721" lon="2.37068">
        <ele>320</ele>
        <time>2021-04-18T12:35:11Z</time>
      </trkpt>
      <trkpt lat="43.94721" lon="2.37069">
        <ele>320</ele>
        <time>2021-04-18T12:35:12Z</time>
      </trkpt>
      <trkpt lat="43.94719" lon="2.37071">
        <ele>321</ele>
        <time>2021-04-18T12:35:13Z</time>
      </trkpt>
      <trkpt lat="43.94718" lon="2.37073">
        <ele>322</ele>
        <time>2021-04-18T12:35:14Z</time>
      </trkpt>
      <trkpt lat="43.94717" lon="2.37075">
        <ele>322</ele>
        <time>2021-04-18T12:35:15Z</time>
      </trkpt>
      <trkpt lat="43.94717" lon="2.37076">
        <ele>322</ele>
        <time>2021-04-18T12:35:16Z</time>
      </trkpt>
      <trkpt lat="43.94715" lon="2.37078">
        <ele>322</ele>
        <time>2021-04-18T12:35:17Z</time>
      </trkpt>
      <trkpt lat="43.94714" lon="2.37078">
        <ele>322</ele>
        <time>2021-04-18T12:35:18Z</time>
      </trkpt>
      <trkpt lat="43.94713" lon="2.3708">
        <ele>322</ele>
        <time>2021-04-18T12:35:19Z</time>
      </trkpt>
      <trkpt lat="43.94712" lon="2.37082">
        <ele>323</ele>
        <time>2021-04-18T12:35:20Z</time>
      </trkpt>
      <trkpt lat="43.94711" lon="2.37084">
        <ele>323</ele>
        <time>2021-04-18T12:35:21Z</time>
      </trkpt>
      <trkpt lat="43.9471" lon="2.37086">
        <ele>323</ele>
        <time>2021-04-18T12:35:22Z</time>
      </trkpt>
      <trkpt lat="43.94709" lon="2.37087">
        <ele>323</ele>
        <time>2021-04-18T12:35:23Z</time>
      </trkpt>
      <trkpt lat="43.94708" lon="2.37088">
        <ele>324</ele>
        <time>2021-04-18T12:35:24Z</time>
      </trkpt>
      <trkpt lat="43.94706" lon="2.37089">
        <ele>324</ele>
        <time>2021-04-18T12:35:25Z</time>
      </trkpt>
      <trkpt lat="43.94706" lon="2.3709">
        <ele>324</ele>
        <time>2021-04-18T12:35:26Z</time>
      </trkpt>
      <trkpt lat="43.94705" lon="2.37091">
        <ele>324</ele>
        <time>2021-04-18T12:35:27Z</time>
      </trkpt>
      <trkpt lat="43.94704" lon="2.37091">
        <ele>324</ele>
        <time>2021-04-18T12:35:28Z</time>
      </trkpt>
      <trkpt lat="43.94704" lon="2.37091">
        <ele>324</ele>
        <time>2021-04-18T12:35:29Z</time>
      </trkpt>
      <trkpt lat="43.94704" lon="2.37092">
        <ele>323</ele>
        <time>2021-04-18T12:35:30Z</time>
      </trkpt>
      <trkpt lat="43.94704" lon="2.37092">
        <ele>323</ele>
        <time>2021-04-18T12:35:31Z</time>
      </trkpt>
      <trkpt lat="43.94704" lon="2.37092">
        <ele>323</ele>
        <time>2021-04-18T12:35:32Z</time>
      </trkpt>
      <trkpt lat="43.94704" lon="2.37092">
        <ele>323</ele>
        <time>2021-04-18T12:35:33Z</time>
      </trkpt>
      <trkpt lat="43.94704" lon="2.37092">
        <ele>323</ele>
        <time>2021-04-18T12:35:34Z</time>
      </trkpt>
      <trkpt lat="43.94704" lon="2.37093">
        <ele>323</ele>
        <time>2021-04-18T12:35:35Z</time>
      </trkpt>
      <trkpt lat="43.94704" lon="2.37094">
        <ele>323</ele>
        <time>2021-04-18T12:35:36Z</time>
      </trkpt>
      <trkpt lat="43.94703" lon="2.37094">
        <ele>324</ele>
        <time>2021-04-18T12:35:37Z</time>
      </trkpt>
      <trkpt lat="43.94702" lon="2.37095">
        <ele>324</ele>
        <time>2021-04-18T12:35:38Z</time>
      </trkpt>
      <trkpt lat="43.94701" lon="2.37095">
        <ele>324</ele>
        <time>2021-04-18T12:35:39Z</time>
      </trkpt>
      <trkpt lat="43.947" lon="2.37096">
        <ele>324</ele>
        <time>2021-04-18T12:35:40Z</time>
      </trkpt>
      <trkpt lat="43.94699" lon="2.37097">
        <ele>323</ele>
        <time>2021-04-18T12:35:41Z</time>
      </trkpt>
      <trkpt lat="43.94698" lon="2.37098">
        <ele>323</ele>
        <time>2021-04-18T12:35:42Z</time>
      </trkpt>
      <trkpt lat="43.94697" lon="2.37099">
        <ele>323</ele>
        <time>2021-04-18T12:35:43Z</time>
      </trkpt>
      <trkpt lat="43.94696" lon="2.371">
        <ele>323</ele>
        <time>2021-04-18T12:35:44Z</time>
      </trkpt>
      <trkpt lat="43.94695" lon="2.37101">
        <ele>323</ele>
        <time>2021-04-18T12:35:45Z</time>
      </trkpt>
      <trkpt lat="43.94694" lon="2.37103">
        <ele>324</ele>
        <time>2021-04-18T12:35:46Z</time>
      </trkpt>
      <trkpt lat="43.94693" lon="2.37105">
        <ele>324</ele>
        <time>2021-04-18T12:35:47Z</time>
      </trkpt>
      <trkpt lat="43.94692" lon="2.37107">
        <ele>324</ele>
        <time>2021-04-18T12:35:48Z</time>
      </trkpt>
      <trkpt lat="43.94691" lon="2.37108">
        <ele>324</ele>
        <time>2021-04-18T12:35:49Z</time>
      </trkpt>
      <trkpt lat="43.9469" lon="2.37109">
        <ele>324</ele>
        <time>2021-04-18T12:35:50Z</time>
      </trkpt>
      <trkpt lat="43.94688" lon="2.3711">
        <ele>324</ele>
        <time>2021-04-18T12:35:51Z</time>
      </trkpt>
      <trkpt lat="43.94687" lon="2.37111">
        <ele>324</ele>
        <time>2021-04-18T12:35:52Z</time>
      </trkpt>
      <trkpt lat="43.94685" lon="2.37112">
        <ele>324</ele>
        <time>2021-04-18T12:35:53Z</time>
      </trkpt>
      <trkpt lat="43.94684" lon="2.37112">
        <ele>324</ele>
        <time>2021-04-18T12:35:54Z</time>
      </trkpt>
      <trkpt lat="43.94682" lon="2.37113">
        <ele>323</ele>
        <time>2021-04-18T12:35:55Z</time>
      </trkpt>
      <trkpt lat="43.94681" lon="2.37114">
        <ele>323</ele>
        <time>2021-04-18T12:35:56Z</time>
      </trkpt>
      <trkpt lat="43.9468" lon="2.37115">
        <ele>324</ele>
        <time>2021-04-18T12:35:57Z</time>
      </trkpt>
      <trkpt lat="43.94679" lon="2.37116">
        <ele>324</ele>
        <time>2021-04-18T12:35:58Z</time>
      </trkpt>
      <trkpt lat="43.94677" lon="2.37118">
        <ele>324</ele>
        <time>2021-04-18T12:35:59Z</time>
      </trkpt>
      <trkpt lat="43.94676" lon="2.37119">
        <ele>324</ele>
        <time>2021-04-18T12:36:00Z</time>
      </trkpt>
      <trkpt lat="43.94675" lon="2.3712">
        <ele>325</ele>
        <time>2021-04-18T12:36:01Z</time>
      </trkpt>
      <trkpt lat="43.94673" lon="2.37121">
        <ele>325</ele>
        <time>2021-04-18T12:36:02Z</time>
      </trkpt>
      <trkpt lat="43.94672" lon="2.37121">
        <ele>325</ele>
        <time>2021-04-18T12:36:03Z</time>
      </trkpt>
      <trkpt lat="43.94671" lon="2.37122">
        <ele>325</ele>
        <time>2021-04-18T12:36:04Z</time>
      </trkpt>
      <trkpt lat="43.94669" lon="2.37123">
        <ele>325</ele>
        <time>2021-04-18T12:36:05Z</time>
      </trkpt>
      <trkpt lat="43.94669" lon="2.37124">
        <ele>325</ele>
        <time>2021-04-18T12:36:06Z</time>
      </trkpt>
      <trkpt lat="43.94667" lon="2.37125">
        <ele>325</ele>
        <time>2021-04-18T12:36:07Z</time>
      </trkpt>
      <trkpt lat="43.94667" lon="2.37126">
        <ele>325</ele>
        <time>2021-04-18T12:36:08Z</time>
      </trkpt>
      <trkpt lat="43.94666" lon="2.37127">
        <ele>325</ele>
        <time>2021-04-18T12:36:09Z</time>
      </trkpt>
      <trkpt lat="43.94665" lon="2.37129">
        <ele>325</ele>
        <time>2021-04-18T12:36:10Z</time>
      </trkpt>
      <trkpt lat="43.94664" lon="2.3713">
        <ele>325</ele>
        <time>2021-04-18T12:36:11Z</time>
      </trkpt>
      <trkpt lat="43.94663" lon="2.37132">
        <ele>326</ele>
        <time>2021-04-18T12:36:12Z</time>
      </trkpt>
      <trkpt lat="43.94661" lon="2.37133">
        <ele>325</ele>
        <time>2021-04-18T12:36:13Z</time>
      </trkpt>
      <trkpt lat="43.9466" lon="2.37135">
        <ele>325</ele>
        <time>2021-04-18T12:36:14Z</time>
      </trkpt>
      <trkpt lat="43.94659" lon="2.37137">
        <ele>325</ele>
        <time>2021-04-18T12:36:15Z</time>
      </trkpt>
      <trkpt lat="43.94658" lon="2.37139">
        <ele>325</ele>
        <time>2021-04-18T12:36:16Z</time>
      </trkpt>
      <trkpt lat="43.94657" lon="2.37141">
        <ele>325</ele>
        <time>2021-04-18T12:36:17Z</time>
      </trkpt>
      <trkpt lat="43.94656" lon="2.37143">
        <ele>326</ele>
        <time>2021-04-18T12:36:18Z</time>
      </trkpt>
      <trkpt lat="43.94655" lon="2.37144">
        <ele>326</ele>
        <time>2021-04-18T12:36:19Z</time>
      </trkpt>
      <trkpt lat="43.94654" lon="2.37145">
        <ele>327</ele>
        <time>2021-04-18T12:36:20Z</time>
      </trkpt>
      <trkpt lat="43.94653" lon="2.37146">
        <ele>327</ele>
        <time>2021-04-18T12:36:21Z</time>
      </trkpt>
      <trkpt lat="43.94653" lon="2.37148">
        <ele>327</ele>
        <time>2021-04-18T12:36:22Z</time>
      </trkpt>
      <trkpt lat="43.94653" lon="2.37149">
        <ele>327</ele>
        <time>2021-04-18T12:36:23Z</time>
      </trkpt>
      <trkpt lat="43.94652" lon="2.37151">
        <ele>327</ele>
        <time>2021-04-18T12:36:24Z</time>
      </trkpt>
      <trkpt lat="43.94651" lon="2.37153">
        <ele>326</ele>
        <time>2021-04-18T12:36:25Z</time>
      </trkpt>
      <trkpt lat="43.94651" lon="2.37155">
        <ele>327</ele>
        <time>2021-04-18T12:36:26Z</time>
      </trkpt>
      <trkpt lat="43.94651" lon="2.37156">
        <ele>327</ele>
        <time>2021-04-18T12:36:27Z</time>
      </trkpt>
      <trkpt lat="43.94651" lon="2.37158">
        <ele>327</ele>
        <time>2021-04-18T12:36:28Z</time>
      </trkpt>
      <trkpt lat="43.9465" lon="2.37161">
        <ele>326</ele>
        <time>2021-04-18T12:36:29Z</time>
      </trkpt>
      <trkpt lat="43.9465" lon="2.37163">
        <ele>326</ele>
        <time>2021-04-18T12:36:30Z</time>
      </trkpt>
      <trkpt lat="43.9465" lon="2.37165">
        <ele>326</ele>
        <time>2021-04-18T12:36:31Z</time>
      </trkpt>
      <trkpt lat="43.9465" lon="2.37167">
        <ele>326</ele>
        <time>2021-04-18T12:36:32Z</time>
      </trkpt>
      <trkpt lat="43.9465" lon="2.3717">
        <ele>326</ele>
        <time>2021-04-18T12:36:33Z</time>
      </trkpt>
      <trkpt lat="43.9465" lon="2.37172">
        <ele>326</ele>
        <time>2021-04-18T12:36:34Z</time>
      </trkpt>
      <trkpt lat="43.94651" lon="2.37173">
        <ele>326</ele>
        <time>2021-04-18T12:36:35Z</time>
      </trkpt>
      <trkpt lat="43.94651" lon="2.37176">
        <ele>325</ele>
        <time>2021-04-18T12:36:36Z</time>
      </trkpt>
      <trkpt lat="43.94651" lon="2.37178">
        <ele>325</ele>
        <time>2021-04-18T12:36:37Z</time>
      </trkpt>
      <trkpt lat="43.94651" lon="2.3718">
        <ele>325</ele>
        <time>2021-04-18T12:36:38Z</time>
      </trkpt>
      <trkpt lat="43.9465" lon="2.37181">
        <ele>326</ele>
        <time>2021-04-18T12:36:39Z</time>
      </trkpt>
      <trkpt lat="43.9465" lon="2.37183">
        <ele>326</ele>
        <time>2021-04-18T12:36:40Z</time>
      </trkpt>
      <trkpt lat="43.9465" lon="2.37185">
        <ele>326</ele>
        <time>2021-04-18T12:36:41Z</time>
      </trkpt>
      <trkpt lat="43.94649" lon="2.37186">
        <ele>327</ele>
        <time>2021-04-18T12:36:42Z</time>
      </trkpt>
      <trkpt lat="43.94649" lon="2.37187">
        <ele>328</ele>
        <time>2021-04-18T12:36:43Z</time>
      </trkpt>
      <trkpt lat="43.94649" lon="2.37189">
        <ele>328</ele>
        <time>2021-04-18T12:36:44Z</time>
      </trkpt>
      <trkpt lat="43.94649" lon="2.37191">
        <ele>329</ele>
        <time>2021-04-18T12:36:45Z</time>
      </trkpt>
      <trkpt lat="43.94649" lon="2.37193">
        <ele>329</ele>
        <time>2021-04-18T12:36:46Z</time>
      </trkpt>
      <trkpt lat="43.94649" lon="2.37195">
        <ele>330</ele>
        <time>2021-04-18T12:36:47Z</time>
      </trkpt>
      <trkpt lat="43.9465" lon="2.37197">
        <ele>330</ele>
        <time>2021-04-18T12:36:48Z</time>
      </trkpt>
      <trkpt lat="43.9465" lon="2.37198">
        <ele>330</ele>
        <time>2021-04-18T12:36:49Z</time>
      </trkpt>
      <trkpt lat="43.9465" lon="2.37199">
        <ele>330</ele>
        <time>2021-04-18T12:36:50Z</time>
      </trkpt>
      <trkpt lat="43.94651" lon="2.37201">
        <ele>329</ele>
        <time>2021-04-18T12:36:51Z</time>
      </trkpt>
      <trkpt lat="43.94651" lon="2.37203">
        <ele>329</ele>
        <time>2021-04-18T12:36:52Z</time>
      </trkpt>
      <trkpt lat="43.94651" lon="2.37204">
        <ele>329</ele>
        <time>2021-04-18T12:36:53Z</time>
      </trkpt>
      <trkpt lat="43.94652" lon="2.37206">
        <ele>328</ele>
        <time>2021-04-18T12:36:54Z</time>
      </trkpt>
      <trkpt lat="43.94652" lon="2.37208">
        <ele>328</ele>
        <time>2021-04-18T12:36:55Z</time>
      </trkpt>
      <trkpt lat="43.94652" lon="2.37209">
        <ele>329</ele>
        <time>2021-04-18T12:36:56Z</time>
      </trkpt>
      <trkpt lat="43.94652" lon="2.37211">
        <ele>328</ele>
        <time>2021-04-18T12:36:57Z</time>
      </trkpt>
      <trkpt lat="43.94652" lon="2.37213">
        <ele>328</ele>
        <time>2021-04-18T12:36:58Z</time>
      </trkpt>
      <trkpt lat="43.94652" lon="2.37215">
        <ele>328</ele>
        <time>2021-04-18T12:36:59Z</time>
      </trkpt>
      <trkpt lat="43.94651" lon="2.37216">
        <ele>328</ele>
        <time>2021-04-18T12:37:00Z</time>
      </trkpt>
      <trkpt lat="43.94651" lon="2.37218">
        <ele>328</ele>
        <time>2021-04-18T12:37:01Z</time>
      </trkpt>
      <trkpt lat="43.94651" lon="2.37219">
        <ele>328</ele>
        <time>2021-04-18T12:37:02Z</time>
      </trkpt>
      <trkpt lat="43.9465" lon="2.37221">
        <ele>328</ele>
        <time>2021-04-18T12:37:03Z</time>
      </trkpt>
      <trkpt lat="43.9465" lon="2.37222">
        <ele>329</ele>
        <time>2021-04-18T12:37:04Z</time>
      </trkpt>
      <trkpt lat="43.9465" lon="2.37223">
        <ele>329</ele>
        <time>2021-04-18T12:37:05Z</time>
      </trkpt>
      <trkpt lat="43.9465" lon="2.37225">
        <ele>329</ele>
        <time>2021-04-18T12:37:06Z</time>
      </trkpt>
      <trkpt lat="43.9465" lon="2.37227">
        <ele>329</ele>
        <time>2021-04-18T12:37:07Z</time>
      </trkpt>
      <trkpt lat="43.9465" lon="2.37229">
        <ele>330</ele>
        <time>2021-04-18T12:37:08Z</time>
      </trkpt>
      <trkpt lat="43.9465" lon="2.37231">
        <ele>330</ele>
        <time>2021-04-18T12:37:09Z</time>
      </trkpt>
      <trkpt lat="43.94651" lon="2.37232">
        <ele>330</ele>
        <time>2021-04-18T12:37:10Z</time>
      </trkpt>
      <trkpt lat="43.94651" lon="2.37234">
        <ele>330</ele>
        <time>2021-04-18T12:37:11Z</time>
      </trkpt>
      <trkpt lat="43.94651" lon="2.37236">
        <ele>331</ele>
        <time>2021-04-18T12:37:12Z</time>
      </trkpt>
      <trkpt lat="43.94652" lon="2.37237">
        <ele>331</ele>
        <time>2021-04-18T12:37:13Z</time>
      </trkpt>
      <trkpt lat="43.94651" lon="2.37239">
        <ele>331</ele>
        <time>2021-04-18T12:37:14Z</time>
      </trkpt>
      <trkpt lat="43.94651" lon="2.37241">
        <ele>331</ele>
        <time>2021-04-18T12:37:15Z</time>
      </trkpt>
      <trkpt lat="43.94651" lon="2.37243">
        <ele>332</ele>
        <time>2021-04-18T12:37:16Z</time>
      </trkpt>
      <trkpt lat="43.94651" lon="2.37244">
        <ele>332</ele>
        <time>2021-04-18T12:37:17Z</time>
      </trkpt>
      <trkpt lat="43.94651" lon="2.37246">
        <ele>332</ele>
        <time>2021-04-18T12:37:18Z</time>
      </trkpt>
      <trkpt lat="43.94652" lon="2.37248">
        <ele>333</ele>
        <time>2021-04-18T12:37:19Z</time>
      </trkpt>
      <trkpt lat="43.94651" lon="2.3725">
        <ele>333</ele>
        <time>2021-04-18T12:37:20Z</time>
      </trkpt>
      <trkpt lat="43.94651" lon="2.37252">
        <ele>333</ele>
        <time>2021-04-18T12:37:21Z</time>
      </trkpt>
      <trkpt lat="43.94651" lon="2.37253">
        <ele>332</ele>
        <time>2021-04-18T12:37:22Z</time>
      </trkpt>
      <trkpt lat="43.94651" lon="2.37255">
        <ele>332</ele>
        <time>2021-04-18T12:37:23Z</time>
      </trkpt>
      <trkpt lat="43.94651" lon="2.37257">
        <ele>332</ele>
        <time>2021-04-18T12:37:24Z</time>
      </trkpt>
      <trkpt lat="43.94651" lon="2.37259">
        <ele>331</ele>
        <time>2021-04-18T12:37:25Z</time>
      </trkpt>
      <trkpt lat="43.94651" lon="2.37261">
        <ele>331</ele>
        <time>2021-04-18T12:37:26Z</time>
      </trkpt>
      <trkpt lat="43.94651" lon="2.37264">
        <ele>331</ele>
        <time>2021-04-18T12:37:27Z</time>
      </trkpt>
      <trkpt lat="43.94652" lon="2.37266">
        <ele>331</ele>
        <time>2021-04-18T12:37:28Z</time>
      </trkpt>
      <trkpt lat="43.94651" lon="2.37268">
        <ele>330</ele>
        <time>2021-04-18T12:37:29Z</time>
      </trkpt>
      <trkpt lat="43.94652" lon="2.3727">
        <ele>330</ele>
        <time>2021-04-18T12:37:30Z</time>
      </trkpt>
      <trkpt lat="43.94651" lon="2.37272">
        <ele>330</ele>
        <time>2021-04-18T12:37:31Z</time>
      </trkpt>
      <trkpt lat="43.94651" lon="2.37273">
        <ele>330</ele>
        <time>2021-04-18T12:37:32Z</time>
      </trkpt>
      <trkpt lat="43.9465" lon="2.37275">
        <ele>330</ele>
        <time>2021-04-18T12:37:33Z</time>
      </trkpt>
      <trkpt lat="43.9465" lon="2.37277">
        <ele>330</ele>
        <time>2021-04-18T12:37:34Z</time>
      </trkpt>
      <trkpt lat="43.9465" lon="2.37279">
        <ele>330</ele>
        <time>2021-04-18T12:37:35Z</time>
      </trkpt>
      <trkpt lat="43.9465" lon="2.3728">
        <ele>330</ele>
        <time>2021-04-18T12:37:36Z</time>
      </trkpt>
      <trkpt lat="43.9465" lon="2.37282">
        <ele>329</ele>
        <time>2021-04-18T12:37:37Z</time>
      </trkpt>
      <trkpt lat="43.9465" lon="2.37284">
        <ele>329</ele>
        <time>2021-04-18T12:37:38Z</time>
      </trkpt>
      <trkpt lat="43.9465" lon="2.37286">
        <ele>329</ele>
        <time>2021-04-18T12:37:39Z</time>
      </trkpt>
      <trkpt lat="43.9465" lon="2.37288">
        <ele>329</ele>
        <time>2021-04-18T12:37:40Z</time>
      </trkpt>
      <trkpt lat="43.9465" lon="2.37291">
        <ele>328</ele>
        <time>2021-04-18T12:37:41Z</time>
      </trkpt>
      <trkpt lat="43.9465" lon="2.37293">
        <ele>329</ele>
        <time>2021-04-18T12:37:42Z</time>
      </trkpt>
      <trkpt lat="43.9465" lon="2.37295">
        <ele>329</ele>
        <time>2021-04-18T12:37:43Z</time>
      </trkpt>
      <trkpt lat="43.9465" lon="2.37297">
        <ele>328</ele>
        <time>2021-04-18T12:37:44Z</time>
      </trkpt>
      <trkpt lat="43.9465" lon="2.37299">
        <ele>328</ele>
        <time>2021-04-18T12:37:45Z</time>
      </trkpt>
      <trkpt lat="43.9465" lon="2.37301">
        <ele>328</ele>
        <time>2021-04-18T12:37:46Z</time>
      </trkpt>
      <trkpt lat="43.9465" lon="2.37303">
        <ele>328</ele>
        <time>2021-04-18T12:37:47Z</time>
      </trkpt>
      <trkpt lat="43.9465" lon="2.37305">
        <ele>328</ele>
        <time>2021-04-18T12:37:48Z</time>
      </trkpt>
      <trkpt lat="43.9465" lon="2.37307">
        <ele>328</ele>
        <time>2021-04-18T12:37:49Z</time>
      </trkpt>
      <trkpt lat="43.9465" lon="2.37308">
        <ele>328</ele>
        <time>2021-04-18T12:37:50Z</time>
      </trkpt>
      <trkpt lat="43.9465" lon="2.3731">
        <ele>328</ele>
        <time>2021-04-18T12:37:51Z</time>
      </trkpt>
      <trkpt lat="43.9465" lon="2.37313">
        <ele>328</ele>
        <time>2021-04-18T12:37:52Z</time>
      </trkpt>
      <trkpt lat="43.9465" lon="2.37315">
        <ele>327</ele>
        <time>2021-04-18T12:37:53Z</time>
      </trkpt>
      <trkpt lat="43.9465" lon="2.37317">
        <ele>327</ele>
        <time>2021-04-18T12:37:54Z</time>
      </trkpt>
      <trkpt lat="43.9465" lon="2.3732">
        <ele>327</ele>
        <time>2021-04-18T12:37:55Z</time>
      </trkpt>
      <trkpt lat="43.9465" lon="2.37321">
        <ele>326</ele>
        <time>2021-04-18T12:37:56Z</time>
      </trkpt>
      <trkpt lat="43.9465" lon="2.37323">
        <ele>326</ele>
        <time>2021-04-18T12:37:57Z</time>
      </trkpt>
      <trkpt lat="43.9465" lon="2.37326">
        <ele>326</ele>
        <time>2021-04-18T12:37:58Z</time>
      </trkpt>
      <trkpt lat="43.94651" lon="2.37328">
        <ele>325</ele>
        <time>2021-04-18T12:37:59Z</time>
      </trkpt>
      <trkpt lat="43.94651" lon="2.3733">
        <ele>325</ele>
        <time>2021-04-18T12:38:00Z</time>
      </trkpt>
      <trkpt lat="43.94651" lon="2.37332">
        <ele>324</ele>
        <time>2021-04-18T12:38:01Z</time>
      </trkpt>
      <trkpt lat="43.94651" lon="2.37334">
        <ele>324</ele>
        <time>2021-04-18T12:38:02Z</time>
      </trkpt>
      <trkpt lat="43.94651" lon="2.37336">
        <ele>324</ele>
        <time>2021-04-18T12:38:03Z</time>
      </trkpt>
      <trkpt lat="43.94651" lon="2.37338">
        <ele>324</ele>
        <time>2021-04-18T12:38:04Z</time>
      </trkpt>
      <trkpt lat="43.94652" lon="2.3734">
        <ele>323</ele>
        <time>2021-04-18T12:38:05Z</time>
      </trkpt>
      <trkpt lat="43.94653" lon="2.37342">
        <ele>323</ele>
        <time>2021-04-18T12:38:06Z</time>
      </trkpt>
      <trkpt lat="43.94653" lon="2.37344">
        <ele>323</ele>
        <time>2021-04-18T12:38:07Z</time>
      </trkpt>
      <trkpt lat="43.94652" lon="2.37345">
        <ele>323</ele>
        <time>2021-04-18T12:38:08Z</time>
      </trkpt>
      <trkpt lat="43.94652" lon="2.37347">
        <ele>322</ele>
        <time>2021-04-18T12:38:09Z</time>
      </trkpt>
      <trkpt lat="43.94652" lon="2.37348">
        <ele>322</ele>
        <time>2021-04-18T12:38:10Z</time>
      </trkpt>
      <trkpt lat="43.94652" lon="2.37351">
        <ele>322</ele>
        <time>2021-04-18T12:38:11Z</time>
      </trkpt>
      <trkpt lat="43.94652" lon="2.37353">
        <ele>321</ele>
        <time>2021-04-18T12:38:12Z</time>
      </trkpt>
      <trkpt lat="43.94652" lon="2.37355">
        <ele>321</ele>
        <time>2021-04-18T12:38:13Z</time>
      </trkpt>
      <trkpt lat="43.94651" lon="2.37356">
        <ele>321</ele>
        <time>2021-04-18T12:38:14Z</time>
      </trkpt>
      <trkpt lat="43.94651" lon="2.37355">
        <ele>322</ele>
        <time>2021-04-18T12:38:15Z</time>
      </trkpt>
      <trkpt lat="43.94651" lon="2.37355">
        <ele>322</ele>
        <time>2021-04-18T12:38:16Z</time>
      </trkpt>
      <trkpt lat="43.94651" lon="2.37355">
        <ele>322</ele>
        <time>2021-04-18T12:38:17Z</time>
      </trkpt>
      <trkpt lat="43.94651" lon="2.37356">
        <ele>322</ele>
        <time>2021-04-18T12:38:18Z</time>
      </trkpt>
      <trkpt lat="43.94652" lon="2.37358">
        <ele>321</ele>
        <time>2021-04-18T12:38:19Z</time>
      </trkpt>
      <trkpt lat="43.94651" lon="2.3736">
        <ele>321</ele>
        <time>2021-04-18T12:38:20Z</time>
      </trkpt>
      <trkpt lat="43.94651" lon="2.37361">
        <ele>320</ele>
        <time>2021-04-18T12:38:21Z</time>
      </trkpt>
      <trkpt lat="43.94652" lon="2.37363">
        <ele>319</ele>
        <time>2021-04-18T12:38:22Z</time>
      </trkpt>
      <trkpt lat="43.94651" lon="2.37365">
        <ele>318</ele>
        <time>2021-04-18T12:38:23Z</time>
      </trkpt>
      <trkpt lat="43.94652" lon="2.37367">
        <ele>318</ele>
        <time>2021-04-18T12:38:24Z</time>
      </trkpt>
      <trkpt lat="43.94653" lon="2.37369">
        <ele>317</ele>
        <time>2021-04-18T12:38:26Z</time>
      </trkpt>
      <trkpt lat="43.94653" lon="2.37371">
        <ele>317</ele>
        <time>2021-04-18T12:38:27Z</time>
      </trkpt>
      <trkpt lat="43.94653" lon="2.37373">
        <ele>317</ele>
        <time>2021-04-18T12:38:28Z</time>
      </trkpt>
      <trkpt lat="43.94654" lon="2.37374">
        <ele>316</ele>
        <time>2021-04-18T12:38:29Z</time>
      </trkpt>
      <trkpt lat="43.94654" lon="2.37375">
        <ele>315</ele>
        <time>2021-04-18T12:38:30Z</time>
      </trkpt>
      <trkpt lat="43.94654" lon="2.37376">
        <ele>315</ele>
        <time>2021-04-18T12:38:31Z</time>
      </trkpt>
      <trkpt lat="43.94655" lon="2.37375">
        <ele>315</ele>
        <time>2021-04-18T12:38:32Z</time>
      </trkpt>
      <trkpt lat="43.94655" lon="2.37376">
        <ele>315</ele>
        <time>2021-04-18T12:38:33Z</time>
      </trkpt>
      <trkpt lat="43.94655" lon="2.37378">
        <ele>315</ele>
        <time>2021-04-18T12:38:34Z</time>
      </trkpt>
      <trkpt lat="43.94655" lon="2.37379">
        <ele>316</ele>
        <time>2021-04-18T12:38:35Z</time>
      </trkpt>
      <trkpt lat="43.94655" lon="2.37381">
        <ele>316</ele>
        <time>2021-04-18T12:38:36Z</time>
      </trkpt>
      <trkpt lat="43.94655" lon="2.37382">
        <ele>316</ele>
        <time>2021-04-18T12:38:37Z</time>
      </trkpt>
      <trkpt lat="43.94655" lon="2.37384">
        <ele>316</ele>
        <time>2021-04-18T12:38:38Z</time>
      </trkpt>
      <trkpt lat="43.94655" lon="2.37386">
        <ele>315</ele>
        <time>2021-04-18T12:38:39Z</time>
      </trkpt>
      <trkpt lat="43.94655" lon="2.37388">
        <ele>315</ele>
        <time>2021-04-18T12:38:40Z</time>
      </trkpt>
      <trkpt lat="43.94655" lon="2.37391">
        <ele>315</ele>
        <time>2021-04-18T12:38:41Z</time>
      </trkpt>
      <trkpt lat="43.94655" lon="2.37392">
        <ele>315</ele>
        <time>2021-04-18T12:38:42Z</time>
      </trkpt>
      <trkpt lat="43.94655" lon="2.37394">
        <ele>315</ele>
        <time>2021-04-18T12:38:43Z</time>
      </trkpt>
      <trkpt lat="43.94655" lon="2.37395">
        <ele>315</ele>
        <time>2021-04-18T12:38:44Z</time>
      </trkpt>
      <trkpt lat="43.94655" lon="2.37397">
        <ele>315</ele>
        <time>2021-04-18T12:38:45Z</time>
      </trkpt>
      <trkpt lat="43.94654" lon="2.37399">
        <ele>315</ele>
        <time>2021-04-18T12:38:46Z</time>
      </trkpt>
      <trkpt lat="43.94654" lon="2.374">
        <ele>315</ele>
        <time>2021-04-18T12:38:47Z</time>
      </trkpt>
      <trkpt lat="43.94654" lon="2.37403">
        <ele>315</ele>
        <time>2021-04-18T12:38:48Z</time>
      </trkpt>
      <trkpt lat="43.94654" lon="2.37405">
        <ele>315</ele>
        <time>2021-04-18T12:38:49Z</time>
      </trkpt>
      <trkpt lat="43.94654" lon="2.37406">
        <ele>315</ele>
        <time>2021-04-18T12:38:50Z</time>
      </trkpt>
      <trkpt lat="43.94654" lon="2.37408">
        <ele>314</ele>
        <time>2021-04-18T12:38:51Z</time>
      </trkpt>
      <trkpt lat="43.94654" lon="2.37409">
        <ele>314</ele>
        <time>2021-04-18T12:38:52Z</time>
      </trkpt>
      <trkpt lat="43.94654" lon="2.37411">
        <ele>314</ele>
        <time>2021-04-18T12:38:53Z</time>
      </trkpt>
      <trkpt lat="43.94654" lon="2.37412">
        <ele>313</ele>
        <time>2021-04-18T12:38:54Z</time>
      </trkpt>
      <trkpt lat="43.94653" lon="2.37414">
        <ele>313</ele>
        <time>2021-04-18T12:38:55Z</time>
      </trkpt>
      <trkpt lat="43.94654" lon="2.37417">
        <ele>314</ele>
        <time>2021-04-18T12:38:56Z</time>
      </trkpt>
      <trkpt lat="43.94654" lon="2.37419">
        <ele>314</ele>
        <time>2021-04-18T12:38:57Z</time>
      </trkpt>
      <trkpt lat="43.94655" lon="2.37421">
        <ele>314</ele>
        <time>2021-04-18T12:38:58Z</time>
      </trkpt>
      <trkpt lat="43.94655" lon="2.37423">
        <ele>313</ele>
        <time>2021-04-18T12:38:59Z</time>
      </trkpt>
      <trkpt lat="43.94655" lon="2.37425">
        <ele>313</ele>
        <time>2021-04-18T12:39:00Z</time>
      </trkpt>
      <trkpt lat="43.94655" lon="2.37427">
        <ele>313</ele>
        <time>2021-04-18T12:39:01Z</time>
      </trkpt>
      <trkpt lat="43.94655" lon="2.37429">
        <ele>313</ele>
        <time>2021-04-18T12:39:02Z</time>
      </trkpt>
      <trkpt lat="43.94655" lon="2.37431">
        <ele>313</ele>
        <time>2021-04-18T12:39:03Z</time>
      </trkpt>
      <trkpt lat="43.94655" lon="2.37433">
        <ele>313</ele>
        <time>2021-04-18T12:39:04Z</time>
      </trkpt>
      <trkpt lat="43.94655" lon="2.37436">
        <ele>312</ele>
        <time>2021-04-18T12:39:05Z</time>
      </trkpt>
      <trkpt lat="43.94656" lon="2.37438">
        <ele>312</ele>
        <time>2021-04-18T12:39:06Z</time>
      </trkpt>
      <trkpt lat="43.94656" lon="2.37441">
        <ele>311</ele>
        <time>2021-04-18T12:39:07Z</time>
      </trkpt>
      <trkpt lat="43.94656" lon="2.37443">
        <ele>311</ele>
        <time>2021-04-18T12:39:08Z</time>
      </trkpt>
      <trkpt lat="43.94657" lon="2.37445">
        <ele>311</ele>
        <time>2021-04-18T12:39:09Z</time>
      </trkpt>
      <trkpt lat="43.94656" lon="2.37448">
        <ele>310</ele>
        <time>2021-04-18T12:39:10Z</time>
      </trkpt>
      <trkpt lat="43.94657" lon="2.3745">
        <ele>310</ele>
        <time>2021-04-18T12:39:11Z</time>
      </trkpt>
      <trkpt lat="43.94657" lon="2.37452">
        <ele>310</ele>
        <time>2021-04-18T12:39:12Z</time>
      </trkpt>
      <trkpt lat="43.94658" lon="2.37454">
        <ele>310</ele>
        <time>2021-04-18T12:39:13Z</time>
      </trkpt>
      <trkpt lat="43.94658" lon="2.37456">
        <ele>309</ele>
        <time>2021-04-18T12:39:14Z</time>
      </trkpt>
      <trkpt lat="43.94658" lon="2.37457">
        <ele>309</ele>
        <time>2021-04-18T12:39:15Z</time>
      </trkpt>
      <trkpt lat="43.94658" lon="2.3746">
        <ele>309</ele>
        <time>2021-04-18T12:39:16Z</time>
      </trkpt>
      <trkpt lat="43.94658" lon="2.37462">
        <ele>309</ele>
        <time>2021-04-18T12:39:17Z</time>
      </trkpt>
      <trkpt lat="43.94658" lon="2.37463">
        <ele>309</ele>
        <time>2021-04-18T12:39:18Z</time>
      </trkpt>
      <trkpt lat="43.94659" lon="2.37464">
        <ele>309</ele>
        <time>2021-04-18T12:39:19Z</time>
      </trkpt>
      <trkpt lat="43.94659" lon="2.37465">
        <ele>310</ele>
        <time>2021-04-18T12:39:20Z</time>
      </trkpt>
      <trkpt lat="43.9466" lon="2.37467">
        <ele>309</ele>
        <time>2021-04-18T12:39:21Z</time>
      </trkpt>
      <trkpt lat="43.94661" lon="2.37468">
        <ele>309</ele>
        <time>2021-04-18T12:39:22Z</time>
      </trkpt>
      <trkpt lat="43.94662" lon="2.3747">
        <ele>309</ele>
        <time>2021-04-18T12:39:23Z</time>
      </trkpt>
      <trkpt lat="43.94663" lon="2.37472">
        <ele>309</ele>
        <time>2021-04-18T12:39:24Z</time>
      </trkpt>
      <trkpt lat="43.94663" lon="2.37473">
        <ele>309</ele>
        <time>2021-04-18T12:39:25Z</time>
      </trkpt>
      <trkpt lat="43.94664" lon="2.37475">
        <ele>308</ele>
        <time>2021-04-18T12:39:26Z</time>
      </trkpt>
      <trkpt lat="43.94664" lon="2.37477">
        <ele>308</ele>
        <time>2021-04-18T12:39:27Z</time>
      </trkpt>
      <trkpt lat="43.94665" lon="2.37478">
        <ele>308</ele>
        <time>2021-04-18T12:39:28Z</time>
      </trkpt>
      <trkpt lat="43.94666" lon="2.3748">
        <ele>307</ele>
        <time>2021-04-18T12:39:29Z</time>
      </trkpt>
      <trkpt lat="43.94667" lon="2.37482">
        <ele>307</ele>
        <time>2021-04-18T12:39:30Z</time>
      </trkpt>
      <trkpt lat="43.94668" lon="2.37484">
        <ele>307</ele>
        <time>2021-04-18T12:39:31Z</time>
      </trkpt>
      <trkpt lat="43.94669" lon="2.37486">
        <ele>307</ele>
        <time>2021-04-18T12:39:32Z</time>
      </trkpt>
      <trkpt lat="43.94669" lon="2.37489">
        <ele>306</ele>
        <time>2021-04-18T12:39:33Z</time>
      </trkpt>
      <trkpt lat="43.9467" lon="2.3749">
        <ele>306</ele>
        <time>2021-04-18T12:39:34Z</time>
      </trkpt>
      <trkpt lat="43.94671" lon="2.37492">
        <ele>305</ele>
        <time>2021-04-18T12:39:35Z</time>
      </trkpt>
      <trkpt lat="43.94672" lon="2.37493">
        <ele>306</ele>
        <time>2021-04-18T12:39:36Z</time>
      </trkpt>
      <trkpt lat="43.94672" lon="2.37495">
        <ele>305</ele>
        <time>2021-04-18T12:39:37Z</time>
      </trkpt>
      <trkpt lat="43.94674" lon="2.37497">
        <ele>306</ele>
        <time>2021-04-18T12:39:38Z</time>
      </trkpt>
      <trkpt lat="43.94674" lon="2.37498">
        <ele>305</ele>
        <time>2021-04-18T12:39:39Z</time>
      </trkpt>
      <trkpt lat="43.94675" lon="2.37499">
        <ele>306</ele>
        <time>2021-04-18T12:39:40Z</time>
      </trkpt>
      <trkpt lat="43.94675" lon="2.375">
        <ele>306</ele>
        <time>2021-04-18T12:39:41Z</time>
      </trkpt>
      <trkpt lat="43.94676" lon="2.37501">
        <ele>305</ele>
        <time>2021-04-18T12:39:42Z</time>
      </trkpt>
      <trkpt lat="43.94676" lon="2.37502">
        <ele>305</ele>
        <time>2021-04-18T12:39:43Z</time>
      </trkpt>
      <trkpt lat="43.94677" lon="2.37504">
        <ele>304</ele>
        <time>2021-04-18T12:39:44Z</time>
      </trkpt>
      <trkpt lat="43.94677" lon="2.37505">
        <ele>304</ele>
        <time>2021-04-18T12:39:45Z</time>
      </trkpt>
      <trkpt lat="43.94678" lon="2.37507">
        <ele>304</ele>
        <time>2021-04-18T12:39:46Z</time>
      </trkpt>
      <trkpt lat="43.94679" lon="2.37509">
        <ele>304</ele>
        <time>2021-04-18T12:39:47Z</time>
      </trkpt>
      <trkpt lat="43.9468" lon="2.37511">
        <ele>304</ele>
        <time>2021-04-18T12:39:48Z</time>
      </trkpt>
      <trkpt lat="43.94682" lon="2.37512">
        <ele>304</ele>
        <time>2021-04-18T12:39:49Z</time>
      </trkpt>
      <trkpt lat="43.94683" lon="2.37514">
        <ele>304</ele>
        <time>2021-04-18T12:39:50Z</time>
      </trkpt>
      <trkpt lat="43.94684" lon="2.37515">
        <ele>304</ele>
        <time>2021-04-18T12:39:51Z</time>
      </trkpt>
      <trkpt lat="43.94685" lon="2.37516">
        <ele>304</ele>
        <time>2021-04-18T12:39:52Z</time>
      </trkpt>
      <trkpt lat="43.94686" lon="2.37517">
        <ele>304</ele>
        <time>2021-04-18T12:39:53Z</time>
      </trkpt>
      <trkpt lat="43.94687" lon="2.37518">
        <ele>303</ele>
        <time>2021-04-18T12:39:54Z</time>
      </trkpt>
      <trkpt lat="43.94688" lon="2.37519">
        <ele>304</ele>
        <time>2021-04-18T12:39:55Z</time>
      </trkpt>
      <trkpt lat="43.94689" lon="2.37519">
        <ele>304</ele>
        <time>2021-04-18T12:39:56Z</time>
      </trkpt>
      <trkpt lat="43.9469" lon="2.3752">
        <ele>304</ele>
        <time>2021-04-18T12:39:57Z</time>
      </trkpt>
      <trkpt lat="43.94691" lon="2.37521">
        <ele>304</ele>
        <time>2021-04-18T12:39:58Z</time>
      </trkpt>
      <trkpt lat="43.94693" lon="2.37521">
        <ele>303</ele>
        <time>2021-04-18T12:39:59Z</time>
      </trkpt>
      <trkpt lat="43.94694" lon="2.37522">
        <ele>303</ele>
        <time>2021-04-18T12:40:00Z</time>
      </trkpt>
      <trkpt lat="43.94696" lon="2.37522">
        <ele>303</ele>
        <time>2021-04-18T12:40:01Z</time>
      </trkpt>
      <trkpt lat="43.94698" lon="2.37522">
        <ele>303</ele>
        <time>2021-04-18T12:40:02Z</time>
      </trkpt>
      <trkpt lat="43.94699" lon="2.37522">
        <ele>303</ele>
        <time>2021-04-18T12:40:03Z</time>
      </trkpt>
      <trkpt lat="43.947" lon="2.37522">
        <ele>303</ele>
        <time>2021-04-18T12:40:04Z</time>
      </trkpt>
      <trkpt lat="43.94701" lon="2.37523">
        <ele>303</ele>
        <time>2021-04-18T12:40:05Z</time>
      </trkpt>
      <trkpt lat="43.94703" lon="2.37523">
        <ele>303</ele>
        <time>2021-04-18T12:40:06Z</time>
      </trkpt>
      <trkpt lat="43.94704" lon="2.37522">
        <ele>303</ele>
        <time>2021-04-18T12:40:07Z</time>
      </trkpt>
      <trkpt lat="43.94705" lon="2.37522">
        <ele>303</ele>
        <time>2021-04-18T12:40:08Z</time>
      </trkpt>
      <trkpt lat="43.94705" lon="2.37522">
        <ele>303</ele>
        <time>2021-04-18T12:40:09Z</time>
      </trkpt>
      <trkpt lat="43.94706" lon="2.37522">
        <ele>303</ele>
        <time>2021-04-18T12:40:10Z</time>
      </trkpt>
      <trkpt lat="43.94706" lon="2.37522">
        <ele>303</ele>
        <time>2021-04-18T12:40:11Z</time>
      </trkpt>
      <trkpt lat="43.94707" lon="2.37521">
        <ele>302</ele>
        <time>2021-04-18T12:40:12Z</time>
      </trkpt>
      <trkpt lat="43.94707" lon="2.37522">
        <ele>302</ele>
        <time>2021-04-18T12:40:13Z</time>
      </trkpt>
      <trkpt lat="43.94707" lon="2.37522">
        <ele>302</ele>
        <time>2021-04-18T12:40:14Z</time>
      </trkpt>
      <trkpt lat="43.94707" lon="2.37522">
        <ele>301</ele>
        <time>2021-04-18T12:40:15Z</time>
      </trkpt>
      <trkpt lat="43.94707" lon="2.37522">
        <ele>301</ele>
        <time>2021-04-18T12:40:16Z</time>
      </trkpt>
      <trkpt lat="43.94707" lon="2.37522">
        <ele>301</ele>
        <time>2021-04-18T12:40:17Z</time>
      </trkpt>
      <trkpt lat="43.94707" lon="2.37522">
        <ele>301</ele>
        <time>2021-04-18T12:40:18Z</time>
      </trkpt>
      <trkpt lat="43.94708" lon="2.37523">
        <ele>300</ele>
        <time>2021-04-18T12:40:19Z</time>
      </trkpt>
      <trkpt lat="43.94708" lon="2.37523">
        <ele>300</ele>
        <time>2021-04-18T12:40:20Z</time>
      </trkpt>
      <trkpt lat="43.94707" lon="2.37522">
        <ele>299</ele>
        <time>2021-04-18T12:40:21Z</time>
      </trkpt>
      <trkpt lat="43.94707" lon="2.37522">
        <ele>299</ele>
        <time>2021-04-18T12:40:22Z</time>
      </trkpt>
      <trkpt lat="43.94706" lon="2.37522">
        <ele>299</ele>
        <time>2021-04-18T12:40:23Z</time>
      </trkpt>
      <trkpt lat="43.94705" lon="2.37522">
        <ele>299</ele>
        <time>2021-04-18T12:40:24Z</time>
      </trkpt>
      <trkpt lat="43.94705" lon="2.37522">
        <ele>299</ele>
        <time>2021-04-18T12:40:25Z</time>
      </trkpt>
      <trkpt lat="43.94704" lon="2.37523">
        <ele>299</ele>
        <time>2021-04-18T12:40:26Z</time>
      </trkpt>
      <trkpt lat="43.94703" lon="2.37524">
        <ele>299</ele>
        <time>2021-04-18T12:40:27Z</time>
      </trkpt>
      <trkpt lat="43.94703" lon="2.37525">
        <ele>298</ele>
        <time>2021-04-18T12:40:28Z</time>
      </trkpt>
      <trkpt lat="43.94701" lon="2.37526">
        <ele>298</ele>
        <time>2021-04-18T12:40:29Z</time>
      </trkpt>
      <trkpt lat="43.94701" lon="2.37527">
        <ele>298</ele>
        <time>2021-04-18T12:40:30Z</time>
      </trkpt>
      <trkpt lat="43.947" lon="2.37528">
        <ele>298</ele>
        <time>2021-04-18T12:40:31Z</time>
      </trkpt>
      <trkpt lat="43.94698" lon="2.37528">
        <ele>298</ele>
        <time>2021-04-18T12:40:32Z</time>
      </trkpt>
      <trkpt lat="43.94697" lon="2.37528">
        <ele>298</ele>
        <time>2021-04-18T12:40:33Z</time>
      </trkpt>
      <trkpt lat="43.94696" lon="2.37529">
        <ele>297</ele>
        <time>2021-04-18T12:40:34Z</time>
      </trkpt>
      <trkpt lat="43.94696" lon="2.3753">
        <ele>297</ele>
        <time>2021-04-18T12:40:35Z</time>
      </trkpt>
      <trkpt lat="43.94695" lon="2.37531">
        <ele>297</ele>
        <time>2021-04-18T12:40:36Z</time>
      </trkpt>
      <trkpt lat="43.94694" lon="2.37532">
        <ele>297</ele>
        <time>2021-04-18T12:40:37Z</time>
      </trkpt>
      <trkpt lat="43.94693" lon="2.37533">
        <ele>296</ele>
        <time>2021-04-18T12:40:38Z</time>
      </trkpt>
      <trkpt lat="43.94692" lon="2.37533">
        <ele>296</ele>
        <time>2021-04-18T12:40:39Z</time>
      </trkpt>
      <trkpt lat="43.94691" lon="2.37534">
        <ele>296</ele>
        <time>2021-04-18T12:40:40Z</time>
      </trkpt>
      <trkpt lat="43.9469" lon="2.37534">
        <ele>296</ele>
        <time>2021-04-18T12:40:41Z</time>
      </trkpt>
      <trkpt lat="43.94689" lon="2.37535">
        <ele>296</ele>
        <time>2021-04-18T12:40:42Z</time>
      </trkpt>
      <trkpt lat="43.94689" lon="2.37535">
        <ele>295</ele>
        <time>2021-04-18T12:40:43Z</time>
      </trkpt>
      <trkpt lat="43.94688" lon="2.37534">
        <ele>295</ele>
        <time>2021-04-18T12:40:44Z</time>
      </trkpt>
      <trkpt lat="43.94687" lon="2.37534">
        <ele>294</ele>
        <time>2021-04-18T12:40:45Z</time>
      </trkpt>
      <trkpt lat="43.94687" lon="2.37534">
        <ele>295</ele>
        <time>2021-04-18T12:40:46Z</time>
      </trkpt>
      <trkpt lat="43.94686" lon="2.37534">
        <ele>294</ele>
        <time>2021-04-18T12:40:47Z</time>
      </trkpt>
      <trkpt lat="43.94685" lon="2.37534">
        <ele>294</ele>
        <time>2021-04-18T12:40:48Z</time>
      </trkpt>
      <trkpt lat="43.94684" lon="2.37534">
        <ele>293</ele>
        <time>2021-04-18T12:40:49Z</time>
      </trkpt>
      <trkpt lat="43.94684" lon="2.37534">
        <ele>293</ele>
        <time>2021-04-18T12:40:50Z</time>
      </trkpt>
      <trkpt lat="43.94683" lon="2.37535">
        <ele>293</ele>
        <time>2021-04-18T12:40:51Z</time>
      </trkpt>
      <trkpt lat="43.94682" lon="2.37535">
        <ele>292</ele>
        <time>2021-04-18T12:40:52Z</time>
      </trkpt>
      <trkpt lat="43.94681" lon="2.37536">
        <ele>292</ele>
        <time>2021-04-18T12:40:53Z</time>
      </trkpt>
      <trkpt lat="43.94681" lon="2.37536">
        <ele>292</ele>
        <time>2021-04-18T12:40:54Z</time>
      </trkpt>
      <trkpt lat="43.9468" lon="2.37536">
        <ele>292</ele>
        <time>2021-04-18T12:40:55Z</time>
      </trkpt>
      <trkpt lat="43.94679" lon="2.37537">
        <ele>292</ele>
        <time>2021-04-18T12:40:56Z</time>
      </trkpt>
      <trkpt lat="43.94678" lon="2.37538">
        <ele>292</ele>
        <time>2021-04-18T12:40:57Z</time>
      </trkpt>
      <trkpt lat="43.94677" lon="2.37538">
        <ele>292</ele>
        <time>2021-04-18T12:40:58Z</time>
      </trkpt>
      <trkpt lat="43.94677" lon="2.37539">
        <ele>291</ele>
        <time>2021-04-18T12:40:59Z</time>
      </trkpt>
      <trkpt lat="43.94676" lon="2.3754">
        <ele>291</ele>
        <time>2021-04-18T12:41:00Z</time>
      </trkpt>
      <trkpt lat="43.94676" lon="2.3754">
        <ele>291</ele>
        <time>2021-04-18T12:41:01Z</time>
      </trkpt>
      <trkpt lat="43.94676" lon="2.3754">
        <ele>291</ele>
        <time>2021-04-18T12:41:02Z</time>
      </trkpt>
      <trkpt lat="43.94675" lon="2.37542">
        <ele>290</ele>
        <time>2021-04-18T12:41:03Z</time>
      </trkpt>
      <trkpt lat="43.94674" lon="2.37543">
        <ele>290</ele>
        <time>2021-04-18T12:41:04Z</time>
      </trkpt>
      <trkpt lat="43.94674" lon="2.37544">
        <ele>289</ele>
        <time>2021-04-18T12:41:05Z</time>
      </trkpt>
      <trkpt lat="43.94673" lon="2.37545">
        <ele>289</ele>
        <time>2021-04-18T12:41:06Z</time>
      </trkpt>
      <trkpt lat="43.94673" lon="2.37545">
        <ele>289</ele>
        <time>2021-04-18T12:41:07Z</time>
      </trkpt>
      <trkpt lat="43.94673" lon="2.37545">
        <ele>289</ele>
        <time>2021-04-18T12:41:08Z</time>
      </trkpt>
      <trkpt lat="43.94673" lon="2.37545">
        <ele>289</ele>
        <time>2021-04-18T12:41:09Z</time>
      </trkpt>
      <trkpt lat="43.94671" lon="2.37546">
        <ele>289</ele>
        <time>2021-04-18T12:41:10Z</time>
      </trkpt>
      <trkpt lat="43.9467" lon="2.37546">
        <ele>289</ele>
        <time>2021-04-18T12:41:11Z</time>
      </trkpt>
      <trkpt lat="43.94669" lon="2.37547">
        <ele>289</ele>
        <time>2021-04-18T12:41:12Z</time>
      </trkpt>
      <trkpt lat="43.94667" lon="2.37547">
        <ele>289</ele>
        <time>2021-04-18T12:41:13Z</time>
      </trkpt>
      <trkpt lat="43.94667" lon="2.37548">
        <ele>289</ele>
        <time>2021-04-18T12:41:14Z</time>
      </trkpt>
      <trkpt lat="43.94666" lon="2.37548">
        <ele>288</ele>
        <time>2021-04-18T12:41:15Z</time>
      </trkpt>
      <trkpt lat="43.94665" lon="2.37548">
        <ele>288</ele>
        <time>2021-04-18T12:41:16Z</time>
      </trkpt>
      <trkpt lat="43.94664" lon="2.37548">
        <ele>288</ele>
        <time>2021-04-18T12:41:17Z</time>
      </trkpt>
      <trkpt lat="43.94663" lon="2.37548">
        <ele>288</ele>
        <time>2021-04-18T12:41:18Z</time>
      </trkpt>
      <trkpt lat="43.94662" lon="2.37548">
        <ele>287</ele>
        <time>2021-04-18T12:41:19Z</time>
      </trkpt>
      <trkpt lat="43.94661" lon="2.37549">
        <ele>287</ele>
        <time>2021-04-18T12:41:20Z</time>
      </trkpt>
      <trkpt lat="43.9466" lon="2.37549">
        <ele>286</ele>
        <time>2021-04-18T12:41:21Z</time>
      </trkpt>
      <trkpt lat="43.94659" lon="2.37551">
        <ele>286</ele>
        <time>2021-04-18T12:41:22Z</time>
      </trkpt>
      <trkpt lat="43.94658" lon="2.3755">
        <ele>285</ele>
        <time>2021-04-18T12:41:23Z</time>
      </trkpt>
      <trkpt lat="43.94657" lon="2.3755">
        <ele>285</ele>
        <time>2021-04-18T12:41:24Z</time>
      </trkpt>
      <trkpt lat="43.94656" lon="2.3755">
        <ele>285</ele>
        <time>2021-04-18T12:41:25Z</time>
      </trkpt>
      <trkpt lat="43.94655" lon="2.3755">
        <ele>285</ele>
        <time>2021-04-18T12:41:26Z</time>
      </trkpt>
      <trkpt lat="43.94653" lon="2.3755">
        <ele>285</ele>
        <time>2021-04-18T12:41:27Z</time>
      </trkpt>
      <trkpt lat="43.94652" lon="2.37551">
        <ele>284</ele>
        <time>2021-04-18T12:41:28Z</time>
      </trkpt>
      <trkpt lat="43.94651" lon="2.37552">
        <ele>284</ele>
        <time>2021-04-18T12:41:29Z</time>
      </trkpt>
      <trkpt lat="43.9465" lon="2.37553">
        <ele>284</ele>
        <time>2021-04-18T12:41:30Z</time>
      </trkpt>
      <trkpt lat="43.94649" lon="2.37554">
        <ele>283</ele>
        <time>2021-04-18T12:41:31Z</time>
      </trkpt>
      <trkpt lat="43.94649" lon="2.37554">
        <ele>284</ele>
        <time>2021-04-18T12:41:32Z</time>
      </trkpt>
      <trkpt lat="43.94648" lon="2.37554">
        <ele>283</ele>
        <time>2021-04-18T12:41:33Z</time>
      </trkpt>
      <trkpt lat="43.94648" lon="2.37555">
        <ele>283</ele>
        <time>2021-04-18T12:41:34Z</time>
      </trkpt>
      <trkpt lat="43.94647" lon="2.37556">
        <ele>282</ele>
        <time>2021-04-18T12:41:35Z</time>
      </trkpt>
      <trkpt lat="43.94646" lon="2.37555">
        <ele>282</ele>
        <time>2021-04-18T12:41:36Z</time>
      </trkpt>
      <trkpt lat="43.94645" lon="2.37554">
        <ele>282</ele>
        <time>2021-04-18T12:41:37Z</time>
      </trkpt>
      <trkpt lat="43.94645" lon="2.37554">
        <ele>282</ele>
        <time>2021-04-18T12:41:38Z</time>
      </trkpt>
      <trkpt lat="43.94646" lon="2.37554">
        <ele>282</ele>
        <time>2021-04-18T12:41:39Z</time>
      </trkpt>
      <trkpt lat="43.94646" lon="2.37554">
        <ele>282</ele>
        <time>2021-04-18T12:41:40Z</time>
      </trkpt>
      <trkpt lat="43.94646" lon="2.37553">
        <ele>282</ele>
        <time>2021-04-18T12:41:41Z</time>
      </trkpt>
      <trkpt lat="43.94645" lon="2.37553">
        <ele>281</ele>
        <time>2021-04-18T12:41:42Z</time>
      </trkpt>
      <trkpt lat="43.94645" lon="2.37552">
        <ele>282</ele>
        <time>2021-04-18T12:41:43Z</time>
      </trkpt>
      <trkpt lat="43.94644" lon="2.37551">
        <ele>282</ele>
        <time>2021-04-18T12:41:44Z</time>
      </trkpt>
      <trkpt lat="43.94643" lon="2.3755">
        <ele>282</ele>
        <time>2021-04-18T12:41:45Z</time>
      </trkpt>
      <trkpt lat="43.94643" lon="2.37549">
        <ele>282</ele>
        <time>2021-04-18T12:41:46Z</time>
      </trkpt>
      <trkpt lat="43.94642" lon="2.37549">
        <ele>282</ele>
        <time>2021-04-18T12:41:47Z</time>
      </trkpt>
      <trkpt lat="43.94641" lon="2.37547">
        <ele>282</ele>
        <time>2021-04-18T12:41:48Z</time>
      </trkpt>
      <trkpt lat="43.9464" lon="2.37545">
        <ele>282</ele>
        <time>2021-04-18T12:41:49Z</time>
      </trkpt>
      <trkpt lat="43.94639" lon="2.37545">
        <ele>282</ele>
        <time>2021-04-18T12:41:50Z</time>
      </trkpt>
      <trkpt lat="43.94638" lon="2.37544">
        <ele>282</ele>
        <time>2021-04-18T12:41:51Z</time>
      </trkpt>
      <trkpt lat="43.94637" lon="2.37544">
        <ele>282</ele>
        <time>2021-04-18T12:41:52Z</time>
      </trkpt>
      <trkpt lat="43.94636" lon="2.37545">
        <ele>282</ele>
        <time>2021-04-18T12:41:53Z</time>
      </trkpt>
      <trkpt lat="43.94635" lon="2.37546">
        <ele>281</ele>
        <time>2021-04-18T12:41:54Z</time>
      </trkpt>
      <trkpt lat="43.94635" lon="2.37546">
        <ele>281</ele>
        <time>2021-04-18T12:41:55Z</time>
      </trkpt>
      <trkpt lat="43.94635" lon="2.37546">
        <ele>281</ele>
        <time>2021-04-18T12:41:56Z</time>
      </trkpt>
      <trkpt lat="43.94635" lon="2.37546">
        <ele>281</ele>
        <time>2021-04-18T12:41:56Z</time>
      </trkpt>
      <trkpt lat="43.94635" lon="2.37546">
        <ele>281</ele>
        <time>2021-04-18T12:41:56Z</time>
      </trkpt>
      <trkpt lat="43.9463" lon="2.37537">
        <ele>281</ele>
        <time>2021-04-18T12:42:07Z</time>
      </trkpt>
      <trkpt lat="43.94629" lon="2.37536">
        <ele>281</ele>
        <time>2021-04-18T12:42:08Z</time>
      </trkpt>
      <trkpt lat="43.94629" lon="2.37535">
        <ele>281</ele>
        <time>2021-04-18T12:42:09Z</time>
      </trkpt>
      <trkpt lat="43.94628" lon="2.37533">
        <ele>281</ele>
        <time>2021-04-18T12:42:10Z</time>
      </trkpt>
      <trkpt lat="43.94627" lon="2.37532">
        <ele>280</ele>
        <time>2021-04-18T12:42:11Z</time>
      </trkpt>
      <trkpt lat="43.94626" lon="2.37531">
        <ele>279</ele>
        <time>2021-04-18T12:42:12Z</time>
      </trkpt>
      <trkpt lat="43.94626" lon="2.3753">
        <ele>278</ele>
        <time>2021-04-18T12:42:13Z</time>
      </trkpt>
      <trkpt lat="43.94626" lon="2.37529">
        <ele>278</ele>
        <time>2021-04-18T12:42:14Z</time>
      </trkpt>
      <trkpt lat="43.94624" lon="2.37528">
        <ele>278</ele>
        <time>2021-04-18T12:42:15Z</time>
      </trkpt>
      <trkpt lat="43.94624" lon="2.37528">
        <ele>277</ele>
        <time>2021-04-18T12:42:16Z</time>
      </trkpt>
      <trkpt lat="43.94624" lon="2.37527">
        <ele>277</ele>
        <time>2021-04-18T12:42:17Z</time>
      </trkpt>
      <trkpt lat="43.94623" lon="2.37526">
        <ele>276</ele>
        <time>2021-04-18T12:42:18Z</time>
      </trkpt>
      <trkpt lat="43.94622" lon="2.37525">
        <ele>276</ele>
        <time>2021-04-18T12:42:19Z</time>
      </trkpt>
      <trkpt lat="43.94621" lon="2.37525">
        <ele>276</ele>
        <time>2021-04-18T12:42:20Z</time>
      </trkpt>
      <trkpt lat="43.9462" lon="2.37525">
        <ele>275</ele>
        <time>2021-04-18T12:42:21Z</time>
      </trkpt>
      <trkpt lat="43.94619" lon="2.37524">
        <ele>275</ele>
        <time>2021-04-18T12:42:22Z</time>
      </trkpt>
      <trkpt lat="43.94618" lon="2.37524">
        <ele>275</ele>
        <time>2021-04-18T12:42:23Z</time>
      </trkpt>
      <trkpt lat="43.94617" lon="2.37524">
        <ele>276</ele>
        <time>2021-04-18T12:42:24Z</time>
      </trkpt>
      <trkpt lat="43.94616" lon="2.37525">
        <ele>275</ele>
        <time>2021-04-18T12:42:25Z</time>
      </trkpt>
      <trkpt lat="43.94616" lon="2.37524">
        <ele>276</ele>
        <time>2021-04-18T12:42:26Z</time>
      </trkpt>
      <trkpt lat="43.94615" lon="2.37525">
        <ele>276</ele>
        <time>2021-04-18T12:42:27Z</time>
      </trkpt>
      <trkpt lat="43.94614" lon="2.37526">
        <ele>275</ele>
        <time>2021-04-18T12:42:28Z</time>
      </trkpt>
      <trkpt lat="43.94613" lon="2.37527">
        <ele>275</ele>
        <time>2021-04-18T12:42:29Z</time>
      </trkpt>
      <trkpt lat="43.94613" lon="2.37528">
        <ele>275</ele>
        <time>2021-04-18T12:42:30Z</time>
      </trkpt>
      <trkpt lat="43.94613" lon="2.37529">
        <ele>275</ele>
        <time>2021-04-18T12:42:31Z</time>
      </trkpt>
      <trkpt lat="43.94611" lon="2.3753">
        <ele>275</ele>
        <time>2021-04-18T12:42:32Z</time>
      </trkpt>
      <trkpt lat="43.94611" lon="2.37532">
        <ele>275</ele>
        <time>2021-04-18T12:42:33Z</time>
      </trkpt>
      <trkpt lat="43.9461" lon="2.37534">
        <ele>275</ele>
        <time>2021-04-18T12:42:34Z</time>
      </trkpt>
      <trkpt lat="43.9461" lon="2.37535">
        <ele>274</ele>
        <time>2021-04-18T12:42:35Z</time>
      </trkpt>
      <trkpt lat="43.94611" lon="2.37537">
        <ele>274</ele>
        <time>2021-04-18T12:42:36Z</time>
      </trkpt>
      <trkpt lat="43.94611" lon="2.37539">
        <ele>274</ele>
        <time>2021-04-18T12:42:37Z</time>
      </trkpt>
      <trkpt lat="43.94611" lon="2.3754">
        <ele>273</ele>
        <time>2021-04-18T12:42:38Z</time>
      </trkpt>
      <trkpt lat="43.94611" lon="2.37542">
        <ele>273</ele>
        <time>2021-04-18T12:42:39Z</time>
      </trkpt>
      <trkpt lat="43.94611" lon="2.37543">
        <ele>273</ele>
        <time>2021-04-18T12:42:40Z</time>
      </trkpt>
      <trkpt lat="43.94611" lon="2.37544">
        <ele>273</ele>
        <time>2021-04-18T12:42:41Z</time>
      </trkpt>
      <trkpt lat="43.94611" lon="2.37544">
        <ele>273</ele>
        <time>2021-04-18T12:42:42Z</time>
      </trkpt>
      <trkpt lat="43.94612" lon="2.37544">
        <ele>273</ele>
        <time>2021-04-18T12:42:43Z</time>
      </trkpt>
      <trkpt lat="43.94612" lon="2.37545">
        <ele>273</ele>
        <time>2021-04-18T12:42:44Z</time>
      </trkpt>
      <trkpt lat="43.94612" lon="2.37546">
        <ele>272</ele>
        <time>2021-04-18T12:42:45Z</time>
      </trkpt>
      <trkpt lat="43.94611" lon="2.37547">
        <ele>272</ele>
        <time>2021-04-18T12:42:46Z</time>
      </trkpt>
      <trkpt lat="43.94611" lon="2.37548">
        <ele>272</ele>
        <time>2021-04-18T12:42:47Z</time>
      </trkpt>
      <trkpt lat="43.94611" lon="2.37548">
        <ele>272</ele>
        <time>2021-04-18T12:42:48Z</time>
      </trkpt>
      <trkpt lat="43.94611" lon="2.37548">
        <ele>272</ele>
        <time>2021-04-18T12:42:49Z</time>
      </trkpt>
      <trkpt lat="43.94611" lon="2.37548">
        <ele>272</ele>
        <time>2021-04-18T12:42:50Z</time>
      </trkpt>
      <trkpt lat="43.94611" lon="2.37548">
        <ele>272</ele>
        <time>2021-04-18T12:42:51Z</time>
      </trkpt>
      <trkpt lat="43.94611" lon="2.37549">
        <ele>272</ele>
        <time>2021-04-18T12:42:52Z</time>
      </trkpt>
      <trkpt lat="43.94611" lon="2.3755">
        <ele>272</ele>
        <time>2021-04-18T12:42:53Z</time>
      </trkpt>
      <trkpt lat="43.94612" lon="2.37552">
        <ele>272</ele>
        <time>2021-04-18T12:42:54Z</time>
      </trkpt>
      <trkpt lat="43.94612" lon="2.37554">
        <ele>272</ele>
        <time>2021-04-18T12:42:55Z</time>
      </trkpt>
      <trkpt lat="43.94612" lon="2.37555">
        <ele>272</ele>
        <time>2021-04-18T12:42:56Z</time>
      </trkpt>
      <trkpt lat="43.94613" lon="2.37556">
        <ele>272</ele>
        <time>2021-04-18T12:42:57Z</time>
      </trkpt>
      <trkpt lat="43.94613" lon="2.37558">
        <ele>272</ele>
        <time>2021-04-18T12:42:58Z</time>
      </trkpt>
      <trkpt lat="43.94614" lon="2.37558">
        <ele>272</ele>
        <time>2021-04-18T12:42:59Z</time>
      </trkpt>
      <trkpt lat="43.94615" lon="2.37559">
        <ele>271</ele>
        <time>2021-04-18T12:43:00Z</time>
      </trkpt>
      <trkpt lat="43.94615" lon="2.3756">
        <ele>271</ele>
        <time>2021-04-18T12:43:01Z</time>
      </trkpt>
      <trkpt lat="43.94615" lon="2.37561">
        <ele>271</ele>
        <time>2021-04-18T12:43:02Z</time>
      </trkpt>
      <trkpt lat="43.94616" lon="2.37562">
        <ele>270</ele>
        <time>2021-04-18T12:43:03Z</time>
      </trkpt>
      <trkpt lat="43.94616" lon="2.37564">
        <ele>270</ele>
        <time>2021-04-18T12:43:04Z</time>
      </trkpt>
      <trkpt lat="43.94616" lon="2.37566">
        <ele>270</ele>
        <time>2021-04-18T12:43:05Z</time>
      </trkpt>
      <trkpt lat="43.94616" lon="2.37567">
        <ele>269</ele>
        <time>2021-04-18T12:43:06Z</time>
      </trkpt>
      <trkpt lat="43.94616" lon="2.37568">
        <ele>269</ele>
        <time>2021-04-18T12:43:07Z</time>
      </trkpt>
      <trkpt lat="43.94617" lon="2.3757">
        <ele>269</ele>
        <time>2021-04-18T12:43:08Z</time>
      </trkpt>
      <trkpt lat="43.94618" lon="2.37572">
        <ele>269</ele>
        <time>2021-04-18T12:43:09Z</time>
      </trkpt>
      <trkpt lat="43.94618" lon="2.37573">
        <ele>268</ele>
        <time>2021-04-18T12:43:10Z</time>
      </trkpt>
      <trkpt lat="43.94618" lon="2.37575">
        <ele>269</ele>
        <time>2021-04-18T12:43:11Z</time>
      </trkpt>
      <trkpt lat="43.94619" lon="2.37576">
        <ele>268</ele>
        <time>2021-04-18T12:43:12Z</time>
      </trkpt>
      <trkpt lat="43.94619" lon="2.37577">
        <ele>268</ele>
        <time>2021-04-18T12:43:13Z</time>
      </trkpt>
      <trkpt lat="43.9462" lon="2.37578">
        <ele>268</ele>
        <time>2021-04-18T12:43:14Z</time>
      </trkpt>
      <trkpt lat="43.94621" lon="2.37578">
        <ele>268</ele>
        <time>2021-04-18T12:43:15Z</time>
      </trkpt>
      <trkpt lat="43.94622" lon="2.37578">
        <ele>269</ele>
        <time>2021-04-18T12:43:16Z</time>
      </trkpt>
      <trkpt lat="43.94622" lon="2.37578">
        <ele>269</ele>
        <time>2021-04-18T12:43:17Z</time>
      </trkpt>
      <trkpt lat="43.94622" lon="2.37578">
        <ele>269</ele>
        <time>2021-04-18T12:43:18Z</time>
      </trkpt>
      <trkpt lat="43.94622" lon="2.37578">
        <ele>269</ele>
        <time>2021-04-18T12:43:18Z</time>
      </trkpt>
      <trkpt lat="43.94622" lon="2.37578">
        <ele>269</ele>
        <time>2021-04-18T12:43:18Z</time>
      </trkpt>
      <trkpt lat="43.94624" lon="2.37583">
        <ele>269</ele>
        <time>2021-04-18T12:43:30Z</time>
      </trkpt>
      <trkpt lat="43.94625" lon="2.37585">
        <ele>268</ele>
        <time>2021-04-18T12:43:31Z</time>
      </trkpt>
      <trkpt lat="43.94625" lon="2.37586">
        <ele>268</ele>
        <time>2021-04-18T12:43:32Z</time>
      </trkpt>
      <trkpt lat="43.94626" lon="2.37587">
        <ele>268</ele>
        <time>2021-04-18T12:43:33Z</time>
      </trkpt>
      <trkpt lat="43.94626" lon="2.37588">
        <ele>267</ele>
        <time>2021-04-18T12:43:34Z</time>
      </trkpt>
      <trkpt lat="43.94627" lon="2.37589">
        <ele>266</ele>
        <time>2021-04-18T12:43:35Z</time>
      </trkpt>
      <trkpt lat="43.94629" lon="2.3759">
        <ele>267</ele>
        <time>2021-04-18T12:43:36Z</time>
      </trkpt>
      <trkpt lat="43.9463" lon="2.37591">
        <ele>267</ele>
        <time>2021-04-18T12:43:37Z</time>
      </trkpt>
      <trkpt lat="43.94631" lon="2.37592">
        <ele>267</ele>
        <time>2021-04-18T12:43:38Z</time>
      </trkpt>
      <trkpt lat="43.94632" lon="2.37594">
        <ele>267</ele>
        <time>2021-04-18T12:43:39Z</time>
      </trkpt>
      <trkpt lat="43.94633" lon="2.37595">
        <ele>267</ele>
        <time>2021-04-18T12:43:40Z</time>
      </trkpt>
      <trkpt lat="43.94634" lon="2.37595">
        <ele>267</ele>
        <time>2021-04-18T12:43:41Z</time>
      </trkpt>
      <trkpt lat="43.94635" lon="2.37596">
        <ele>266</ele>
        <time>2021-04-18T12:43:42Z</time>
      </trkpt>
      <trkpt lat="43.94635" lon="2.37598">
        <ele>266</ele>
        <time>2021-04-18T12:43:43Z</time>
      </trkpt>
      <trkpt lat="43.94636" lon="2.37598">
        <ele>266</ele>
        <time>2021-04-18T12:43:44Z</time>
      </trkpt>
      <trkpt lat="43.94637" lon="2.37598">
        <ele>266</ele>
        <time>2021-04-18T12:43:45Z</time>
      </trkpt>
      <trkpt lat="43.94637" lon="2.37599">
        <ele>266</ele>
        <time>2021-04-18T12:43:46Z</time>
      </trkpt>
      <trkpt lat="43.94639" lon="2.376">
        <ele>267</ele>
        <time>2021-04-18T12:43:47Z</time>
      </trkpt>
      <trkpt lat="43.9464" lon="2.376">
        <ele>266</ele>
        <time>2021-04-18T12:43:48Z</time>
      </trkpt>
      <trkpt lat="43.94641" lon="2.37601">
        <ele>265</ele>
        <time>2021-04-18T12:43:49Z</time>
      </trkpt>
      <trkpt lat="43.94641" lon="2.37602">
        <ele>266</ele>
        <time>2021-04-18T12:43:50Z</time>
      </trkpt>
      <trkpt lat="43.94642" lon="2.37603">
        <ele>266</ele>
        <time>2021-04-18T12:43:51Z</time>
      </trkpt>
      <trkpt lat="43.94642" lon="2.37604">
        <ele>266</ele>
        <time>2021-04-18T12:43:52Z</time>
      </trkpt>
      <trkpt lat="43.94643" lon="2.37604">
        <ele>267</ele>
        <time>2021-04-18T12:43:53Z</time>
      </trkpt>
      <trkpt lat="43.94643" lon="2.37604">
        <ele>267</ele>
        <time>2021-04-18T12:43:54Z</time>
      </trkpt>
      <trkpt lat="43.94642" lon="2.37604">
        <ele>267</ele>
        <time>2021-04-18T12:43:55Z</time>
      </trkpt>
      <trkpt lat="43.94642" lon="2.37604">
        <ele>266</ele>
        <time>2021-04-18T12:43:56Z</time>
      </trkpt>
      <trkpt lat="43.94642" lon="2.37604">
        <ele>266</ele>
        <time>2021-04-18T12:43:57Z</time>
      </trkpt>
      <trkpt lat="43.94642" lon="2.37604">
        <ele>265</ele>
        <time>2021-04-18T12:43:58Z</time>
      </trkpt>
      <trkpt lat="43.94642" lon="2.37604">
        <ele>264</ele>
        <time>2021-04-18T12:43:59Z</time>
      </trkpt>
      <trkpt lat="43.94642" lon="2.37604">
        <ele>264</ele>
        <time>2021-04-18T12:44:00Z</time>
      </trkpt>
      <trkpt lat="43.94642" lon="2.37604">
        <ele>264</ele>
        <time>2021-04-18T12:44:00Z</time>
      </trkpt>
      <trkpt lat="43.94642" lon="2.37604">
        <ele>264</ele>
        <time>2021-04-18T12:44:00Z</time>
      </trkpt>
      <trkpt lat="43.94641" lon="2.37609">
        <ele>264</ele>
        <time>2021-04-18T12:44:06Z</time>
      </trkpt>
      <trkpt lat="43.94641" lon="2.3761">
        <ele>263</ele>
        <time>2021-04-18T12:44:07Z</time>
      </trkpt>
      <trkpt lat="43.94641" lon="2.37611">
        <ele>263</ele>
        <time>2021-04-18T12:44:08Z</time>
      </trkpt>
      <trkpt lat="43.94641" lon="2.37612">
        <ele>263</ele>
        <time>2021-04-18T12:44:09Z</time>
      </trkpt>
      <trkpt lat="43.94641" lon="2.37613">
        <ele>263</ele>
        <time>2021-04-18T12:44:10Z</time>
      </trkpt>
      <trkpt lat="43.94642" lon="2.37614">
        <ele>262</ele>
        <time>2021-04-18T12:44:11Z</time>
      </trkpt>
      <trkpt lat="43.94642" lon="2.37615">
        <ele>262</ele>
        <time>2021-04-18T12:44:12Z</time>
      </trkpt>
      <trkpt lat="43.9464" lon="2.37616">
        <ele>261</ele>
        <time>2021-04-18T12:44:13Z</time>
      </trkpt>
      <trkpt lat="43.9464" lon="2.37616">
        <ele>262</ele>
        <time>2021-04-18T12:44:14Z</time>
      </trkpt>
      <trkpt lat="43.9464" lon="2.37616">
        <ele>262</ele>
        <time>2021-04-18T12:44:15Z</time>
      </trkpt>
      <trkpt lat="43.94639" lon="2.37615">
        <ele>262</ele>
        <time>2021-04-18T12:44:16Z</time>
      </trkpt>
      <trkpt lat="43.94638" lon="2.37615">
        <ele>262</ele>
        <time>2021-04-18T12:44:17Z</time>
      </trkpt>
      <trkpt lat="43.94637" lon="2.37615">
        <ele>261</ele>
        <time>2021-04-18T12:44:18Z</time>
      </trkpt>
      <trkpt lat="43.94636" lon="2.37614">
        <ele>261</ele>
        <time>2021-04-18T12:44:19Z</time>
      </trkpt>
      <trkpt lat="43.94635" lon="2.37614">
        <ele>261</ele>
        <time>2021-04-18T12:44:20Z</time>
      </trkpt>
      <trkpt lat="43.94634" lon="2.37614">
        <ele>261</ele>
        <time>2021-04-18T12:44:21Z</time>
      </trkpt>
      <trkpt lat="43.94634" lon="2.37614">
        <ele>260</ele>
        <time>2021-04-18T12:44:22Z</time>
      </trkpt>
      <trkpt lat="43.94634" lon="2.37613">
        <ele>260</ele>
        <time>2021-04-18T12:44:23Z</time>
      </trkpt>
      <trkpt lat="43.94633" lon="2.37612">
        <ele>260</ele>
        <time>2021-04-18T12:44:24Z</time>
      </trkpt>
      <trkpt lat="43.94632" lon="2.37611">
        <ele>260</ele>
        <time>2021-04-18T12:44:25Z</time>
      </trkpt>
      <trkpt lat="43.94631" lon="2.3761">
        <ele>260</ele>
        <time>2021-04-18T12:44:26Z</time>
      </trkpt>
      <trkpt lat="43.94629" lon="2.37608">
        <ele>260</ele>
        <time>2021-04-18T12:44:27Z</time>
      </trkpt>
      <trkpt lat="43.94628" lon="2.37607">
        <ele>260</ele>
        <time>2021-04-18T12:44:28Z</time>
      </trkpt>
      <trkpt lat="43.94627" lon="2.37605">
        <ele>260</ele>
        <time>2021-04-18T12:44:29Z</time>
      </trkpt>
      <trkpt lat="43.94627" lon="2.37604">
        <ele>260</ele>
        <time>2021-04-18T12:44:30Z</time>
      </trkpt>
      <trkpt lat="43.94626" lon="2.37603">
        <ele>260</ele>
        <time>2021-04-18T12:44:31Z</time>
      </trkpt>
      <trkpt lat="43.94625" lon="2.37602">
        <ele>259</ele>
        <time>2021-04-18T12:44:32Z</time>
      </trkpt>
      <trkpt lat="43.94624" lon="2.37601">
        <ele>259</ele>
        <time>2021-04-18T12:44:33Z</time>
      </trkpt>
      <trkpt lat="43.94624" lon="2.376">
        <ele>259</ele>
        <time>2021-04-18T12:44:34Z</time>
      </trkpt>
      <trkpt lat="43.94624" lon="2.37598">
        <ele>259</ele>
        <time>2021-04-18T12:44:35Z</time>
      </trkpt>
      <trkpt lat="43.94623" lon="2.37596">
        <ele>258</ele>
        <time>2021-04-18T12:44:36Z</time>
      </trkpt>
      <trkpt lat="43.94623" lon="2.37594">
        <ele>258</ele>
        <time>2021-04-18T12:44:37Z</time>
      </trkpt>
      <trkpt lat="43.94622" lon="2.37592">
        <ele>258</ele>
        <time>2021-04-18T12:44:38Z</time>
      </trkpt>
      <trkpt lat="43.94621" lon="2.37591">
        <ele>258</ele>
        <time>2021-04-18T12:44:39Z</time>
      </trkpt>
      <trkpt lat="43.94621" lon="2.3759">
        <ele>258</ele>
        <time>2021-04-18T12:44:40Z</time>
      </trkpt>
      <trkpt lat="43.9462" lon="2.37589">
        <ele>258</ele>
        <time>2021-04-18T12:44:41Z</time>
      </trkpt>
      <trkpt lat="43.94619" lon="2.37587">
        <ele>258</ele>
        <time>2021-04-18T12:44:42Z</time>
      </trkpt>
      <trkpt lat="43.94618" lon="2.37586">
        <ele>257</ele>
        <time>2021-04-18T12:44:43Z</time>
      </trkpt>
      <trkpt lat="43.94617" lon="2.37585">
        <ele>257</ele>
        <time>2021-04-18T12:44:44Z</time>
      </trkpt>
      <trkpt lat="43.94616" lon="2.37583">
        <ele>257</ele>
        <time>2021-04-18T12:44:45Z</time>
      </trkpt>
      <trkpt lat="43.94615" lon="2.37582">
        <ele>257</ele>
        <time>2021-04-18T12:44:46Z</time>
      </trkpt>
      <trkpt lat="43.94614" lon="2.37581">
        <ele>257</ele>
        <time>2021-04-18T12:44:47Z</time>
      </trkpt>
      <trkpt lat="43.94613" lon="2.37579">
        <ele>257</ele>
        <time>2021-04-18T12:44:48Z</time>
      </trkpt>
      <trkpt lat="43.94612" lon="2.37578">
        <ele>257</ele>
        <time>2021-04-18T12:44:49Z</time>
      </trkpt>
      <trkpt lat="43.94611" lon="2.37577">
        <ele>257</ele>
        <time>2021-04-18T12:44:50Z</time>
      </trkpt>
      <trkpt lat="43.94611" lon="2.37577">
        <ele>258</ele>
        <time>2021-04-18T12:44:51Z</time>
      </trkpt>
      <trkpt lat="43.94611" lon="2.37576">
        <ele>258</ele>
        <time>2021-04-18T12:44:52Z</time>
      </trkpt>
      <trkpt lat="43.9461" lon="2.37576">
        <ele>258</ele>
        <time>2021-04-18T12:44:53Z</time>
      </trkpt>
      <trkpt lat="43.9461" lon="2.37576">
        <ele>259</ele>
        <time>2021-04-18T12:44:54Z</time>
      </trkpt>
      <trkpt lat="43.94608" lon="2.37576">
        <ele>257</ele>
        <time>2021-04-18T12:44:55Z</time>
      </trkpt>
      <trkpt lat="43.94607" lon="2.37577">
        <ele>257</ele>
        <time>2021-04-18T12:44:56Z</time>
      </trkpt>
      <trkpt lat="43.94606" lon="2.37578">
        <ele>258</ele>
        <time>2021-04-18T12:44:57Z</time>
      </trkpt>
      <trkpt lat="43.94606" lon="2.37578">
        <ele>257</ele>
        <time>2021-04-18T12:44:58Z</time>
      </trkpt>
      <trkpt lat="43.94606" lon="2.37579">
        <ele>257</ele>
        <time>2021-04-18T12:44:59Z</time>
      </trkpt>
      <trkpt lat="43.94606" lon="2.37581">
        <ele>257</ele>
        <time>2021-04-18T12:45:00Z</time>
      </trkpt>
      <trkpt lat="43.94605" lon="2.37582">
        <ele>256</ele>
        <time>2021-04-18T12:45:01Z</time>
      </trkpt>
      <trkpt lat="43.94605" lon="2.37583">
        <ele>256</ele>
        <time>2021-04-18T12:45:02Z</time>
      </trkpt>
      <trkpt lat="43.94604" lon="2.37585">
        <ele>256</ele>
        <time>2021-04-18T12:45:03Z</time>
      </trkpt>
      <trkpt lat="43.94603" lon="2.37586">
        <ele>256</ele>
        <time>2021-04-18T12:45:04Z</time>
      </trkpt>
      <trkpt lat="43.94602" lon="2.37587">
        <ele>256</ele>
        <time>2021-04-18T12:45:05Z</time>
      </trkpt>
      <trkpt lat="43.94601" lon="2.37588">
        <ele>256</ele>
        <time>2021-04-18T12:45:06Z</time>
      </trkpt>
      <trkpt lat="43.946" lon="2.37589">
        <ele>255</ele>
        <time>2021-04-18T12:45:07Z</time>
      </trkpt>
      <trkpt lat="43.94598" lon="2.3759">
        <ele>255</ele>
        <time>2021-04-18T12:45:08Z</time>
      </trkpt>
      <trkpt lat="43.94597" lon="2.37591">
        <ele>254</ele>
        <time>2021-04-18T12:45:09Z</time>
      </trkpt>
      <trkpt lat="43.94597" lon="2.37593">
        <ele>255</ele>
        <time>2021-04-18T12:45:10Z</time>
      </trkpt>
      <trkpt lat="43.94596" lon="2.37595">
        <ele>255</ele>
        <time>2021-04-18T12:45:11Z</time>
      </trkpt>
      <trkpt lat="43.94596" lon="2.37596">
        <ele>255</ele>
        <time>2021-04-18T12:45:12Z</time>
      </trkpt>
      <trkpt lat="43.94596" lon="2.37597">
        <ele>255</ele>
        <time>2021-04-18T12:45:13Z</time>
      </trkpt>
      <trkpt lat="43.94595" lon="2.37599">
        <ele>255</ele>
        <time>2021-04-18T12:45:14Z</time>
      </trkpt>
      <trkpt lat="43.94594" lon="2.376">
        <ele>256</ele>
        <time>2021-04-18T12:45:15Z</time>
      </trkpt>
      <trkpt lat="43.94594" lon="2.37601">
        <ele>256</ele>
        <time>2021-04-18T12:45:16Z</time>
      </trkpt>
      <trkpt lat="43.94594" lon="2.37603">
        <ele>256</ele>
        <time>2021-04-18T12:45:17Z</time>
      </trkpt>
      <trkpt lat="43.94593" lon="2.37604">
        <ele>257</ele>
        <time>2021-04-18T12:45:18Z</time>
      </trkpt>
      <trkpt lat="43.94593" lon="2.37605">
        <ele>257</ele>
        <time>2021-04-18T12:45:19Z</time>
      </trkpt>
      <trkpt lat="43.94593" lon="2.37605">
        <ele>257</ele>
        <time>2021-04-18T12:45:20Z</time>
      </trkpt>
      <trkpt lat="43.94592" lon="2.37606">
        <ele>257</ele>
        <time>2021-04-18T12:45:21Z</time>
      </trkpt>
      <trkpt lat="43.94592" lon="2.37606">
        <ele>258</ele>
        <time>2021-04-18T12:45:22Z</time>
      </trkpt>
      <trkpt lat="43.94591" lon="2.37608">
        <ele>258</ele>
        <time>2021-04-18T12:45:23Z</time>
      </trkpt>
      <trkpt lat="43.9459" lon="2.3761">
        <ele>258</ele>
        <time>2021-04-18T12:45:24Z</time>
      </trkpt>
      <trkpt lat="43.9459" lon="2.37611">
        <ele>258</ele>
        <time>2021-04-18T12:45:25Z</time>
      </trkpt>
      <trkpt lat="43.94589" lon="2.37612">
        <ele>258</ele>
        <time>2021-04-18T12:45:26Z</time>
      </trkpt>
      <trkpt lat="43.94589" lon="2.37612">
        <ele>258</ele>
        <time>2021-04-18T12:45:27Z</time>
      </trkpt>
      <trkpt lat="43.94589" lon="2.37613">
        <ele>258</ele>
        <time>2021-04-18T12:45:28Z</time>
      </trkpt>
      <trkpt lat="43.94588" lon="2.37613">
        <ele>258</ele>
        <time>2021-04-18T12:45:29Z</time>
      </trkpt>
      <trkpt lat="43.94588" lon="2.37613">
        <ele>258</ele>
        <time>2021-04-18T12:45:30Z</time>
      </trkpt>
      <trkpt lat="43.94588" lon="2.37613">
        <ele>258</ele>
        <time>2021-04-18T12:45:31Z</time>
      </trkpt>
      <trkpt lat="43.94588" lon="2.37613">
        <ele>258</ele>
        <time>2021-04-18T12:45:31Z</time>
      </trkpt>
      <trkpt lat="43.94588" lon="2.37613">
        <ele>258</ele>
        <time>2021-04-18T12:45:31Z</time>
      </trkpt>
      <trkpt lat="43.94589" lon="2.37608">
        <ele>257</ele>
        <time>2021-04-18T12:46:53Z</time>
      </trkpt>
      <trkpt lat="43.9459" lon="2.37607">
        <ele>258</ele>
        <time>2021-04-18T12:46:54Z</time>
      </trkpt>
      <trkpt lat="43.94591" lon="2.37606">
        <ele>258</ele>
        <time>2021-04-18T12:46:55Z</time>
      </trkpt>
      <trkpt lat="43.94592" lon="2.37604">
        <ele>258</ele>
        <time>2021-04-18T12:46:56Z</time>
      </trkpt>
      <trkpt lat="43.94592" lon="2.37603">
        <ele>259</ele>
        <time>2021-04-18T12:46:57Z</time>
      </trkpt>
      <trkpt lat="43.94591" lon="2.37601">
        <ele>259</ele>
        <time>2021-04-18T12:46:58Z</time>
      </trkpt>
      <trkpt lat="43.9459" lon="2.37601">
        <ele>259</ele>
        <time>2021-04-18T12:46:59Z</time>
      </trkpt>
      <trkpt lat="43.94589" lon="2.37602">
        <ele>259</ele>
        <time>2021-04-18T12:47:00Z</time>
      </trkpt>
      <trkpt lat="43.94589" lon="2.37602">
        <ele>260</ele>
        <time>2021-04-18T12:47:01Z</time>
      </trkpt>
      <trkpt lat="43.94589" lon="2.37603">
        <ele>260</ele>
        <time>2021-04-18T12:47:02Z</time>
      </trkpt>
      <trkpt lat="43.94589" lon="2.37603">
        <ele>260</ele>
        <time>2021-04-18T12:47:03Z</time>
      </trkpt>
      <trkpt lat="43.94589" lon="2.37603">
        <ele>260</ele>
        <time>2021-04-18T12:47:04Z</time>
      </trkpt>
      <trkpt lat="43.94589" lon="2.37603">
        <ele>260</ele>
        <time>2021-04-18T12:47:04Z</time>
      </trkpt>
      <trkpt lat="43.94589" lon="2.37603">
        <ele>260</ele>
        <time>2021-04-18T12:47:04Z</time>
      </trkpt>
      <trkpt lat="43.94586" lon="2.376">
        <ele>262</ele>
        <time>2021-04-18T12:54:03Z</time>
      </trkpt>
      <trkpt lat="43.94586" lon="2.376">
        <ele>262</ele>
        <time>2021-04-18T12:54:04Z</time>
      </trkpt>
      <trkpt lat="43.94586" lon="2.376">
        <ele>262</ele>
        <time>2021-04-18T12:54:05Z</time>
      </trkpt>
      <trkpt lat="43.94586" lon="2.376">
        <ele>262</ele>
        <time>2021-04-18T12:54:06Z</time>
      </trkpt>
      <trkpt lat="43.94586" lon="2.376">
        <ele>262</ele>
        <time>2021-04-18T12:54:07Z</time>
      </trkpt>
      <trkpt lat="43.94586" lon="2.376">
        <ele>262</ele>
        <time>2021-04-18T12:54:08Z</time>
      </trkpt>
      <trkpt lat="43.94586" lon="2.376">
        <ele>262</ele>
        <time>2021-04-18T12:54:09Z</time>
      </trkpt>
      <trkpt lat="43.94586" lon="2.376">
        <ele>262</ele>
        <time>2021-04-18T12:54:10Z</time>
      </trkpt>
      <trkpt lat="43.94586" lon="2.376">
        <ele>262</ele>
        <time>2021-04-18T12:54:11Z</time>
      </trkpt>
      <trkpt lat="43.94586" lon="2.376">
        <ele>262</ele>
        <time>2021-04-18T12:54:12Z</time>
      </trkpt>
      <trkpt lat="43.94586" lon="2.376">
        <ele>262</ele>
        <time>2021-04-18T12:54:13Z</time>
      </trkpt>
      <trkpt lat="43.94586" lon="2.376">
        <ele>262</ele>
        <time>2021-04-18T12:54:13Z</time>
      </trkpt>
      <trkpt lat="43.94586" lon="2.376">
        <ele>262</ele>
        <time>2021-04-18T12:54:13Z</time>
      </trkpt>
      <trkpt lat="43.94589" lon="2.37602">
        <ele>265</ele>
        <time>2021-04-18T12:56:08Z</time>
      </trkpt>
      <trkpt lat="43.94589" lon="2.37602">
        <ele>265</ele>
        <time>2021-04-18T12:56:09Z</time>
      </trkpt>
      <trkpt lat="43.94589" lon="2.37602">
        <ele>265</ele>
        <time>2021-04-18T12:56:10Z</time>
      </trkpt>
      <trkpt lat="43.94589" lon="2.37602">
        <ele>265</ele>
        <time>2021-04-18T12:56:11Z</time>
      </trkpt>
      <trkpt lat="43.94589" lon="2.37602">
        <ele>265</ele>
        <time>2021-04-18T12:56:11Z</time>
      </trkpt>
      <trkpt lat="43.94589" lon="2.37602">
        <ele>265</ele>
        <time>2021-04-18T12:56:11Z</time>
      </trkpt>
      <trkpt lat="43.94588" lon="2.376">
        <ele>266</ele>
        <time>2021-04-18T12:56:17Z</time>
      </trkpt>
      <trkpt lat="43.94588" lon="2.37601">
        <ele>265</ele>
        <time>2021-04-18T12:56:18Z</time>
      </trkpt>
      <trkpt lat="43.94588" lon="2.37601">
        <ele>264</ele>
        <time>2021-04-18T12:56:19Z</time>
      </trkpt>
      <trkpt lat="43.94587" lon="2.37601">
        <ele>263</ele>
        <time>2021-04-18T12:56:20Z</time>
      </trkpt>
      <trkpt lat="43.94587" lon="2.37601">
        <ele>263</ele>
        <time>2021-04-18T12:56:21Z</time>
      </trkpt>
      <trkpt lat="43.94587" lon="2.37602">
        <ele>263</ele>
        <time>2021-04-18T12:56:22Z</time>
      </trkpt>
      <trkpt lat="43.94587" lon="2.37602">
        <ele>263</ele>
        <time>2021-04-18T12:56:22Z</time>
      </trkpt>
      <trkpt lat="43.94587" lon="2.37602">
        <ele>263</ele>
        <time>2021-04-18T12:56:22Z</time>
      </trkpt>
      <trkpt lat="43.94589" lon="2.37603">
        <ele>259</ele>
        <time>2021-04-18T12:57:14Z</time>
      </trkpt>
      <trkpt lat="43.94589" lon="2.37603">
        <ele>258</ele>
        <time>2021-04-18T12:57:15Z</time>
      </trkpt>
      <trkpt lat="43.94589" lon="2.37603">
        <ele>259</ele>
        <time>2021-04-18T12:57:16Z</time>
      </trkpt>
      <trkpt lat="43.94589" lon="2.37604">
        <ele>260</ele>
        <time>2021-04-18T12:57:17Z</time>
      </trkpt>
      <trkpt lat="43.94589" lon="2.37604">
        <ele>260</ele>
        <time>2021-04-18T12:57:18Z</time>
      </trkpt>
      <trkpt lat="43.94588" lon="2.37605">
        <ele>261</ele>
        <time>2021-04-18T12:57:19Z</time>
      </trkpt>
      <trkpt lat="43.94588" lon="2.37605">
        <ele>261</ele>
        <time>2021-04-18T12:57:19Z</time>
      </trkpt>
      <trkpt lat="43.94588" lon="2.37605">
        <ele>261</ele>
        <time>2021-04-18T12:57:19Z</time>
      </trkpt>
      <trkpt lat="43.94589" lon="2.376">
        <ele>259</ele>
        <time>2021-04-18T12:58:12Z</time>
      </trkpt>
      <trkpt lat="43.94589" lon="2.376">
        <ele>259</ele>
        <time>2021-04-18T12:58:13Z</time>
      </trkpt>
      <trkpt lat="43.94589" lon="2.376">
        <ele>260</ele>
        <time>2021-04-18T12:58:14Z</time>
      </trkpt>
      <trkpt lat="43.94589" lon="2.37599">
        <ele>260</ele>
        <time>2021-04-18T12:58:15Z</time>
      </trkpt>
      <trkpt lat="43.94589" lon="2.37599">
        <ele>260</ele>
        <time>2021-04-18T12:58:15Z</time>
      </trkpt>
      <trkpt lat="43.94589" lon="2.37599">
        <ele>260</ele>
        <time>2021-04-18T12:58:15Z</time>
      </trkpt>
      <trkpt lat="43.94591" lon="2.37597">
        <ele>260</ele>
        <time>2021-04-18T12:58:32Z</time>
      </trkpt>
      <trkpt lat="43.94592" lon="2.37596">
        <ele>260</ele>
        <time>2021-04-18T12:58:33Z</time>
      </trkpt>
      <trkpt lat="43.94592" lon="2.37594">
        <ele>260</ele>
        <time>2021-04-18T12:58:34Z</time>
      </trkpt>
      <trkpt lat="43.94593" lon="2.37592">
        <ele>260</ele>
        <time>2021-04-18T12:58:35Z</time>
      </trkpt>
      <trkpt lat="43.94593" lon="2.37591">
        <ele>260</ele>
        <time>2021-04-18T12:58:36Z</time>
      </trkpt>
      <trkpt lat="43.94594" lon="2.3759">
        <ele>260</ele>
        <time>2021-04-18T12:58:37Z</time>
      </trkpt>
      <trkpt lat="43.94595" lon="2.37589">
        <ele>260</ele>
        <time>2021-04-18T12:58:38Z</time>
      </trkpt>
      <trkpt lat="43.94595" lon="2.37589">
        <ele>259</ele>
        <time>2021-04-18T12:58:39Z</time>
      </trkpt>
      <trkpt lat="43.94596" lon="2.37588">
        <ele>260</ele>
        <time>2021-04-18T12:58:40Z</time>
      </trkpt>
      <trkpt lat="43.94597" lon="2.37588">
        <ele>260</ele>
        <time>2021-04-18T12:58:41Z</time>
      </trkpt>
      <trkpt lat="43.94597" lon="2.37588">
        <ele>260</ele>
        <time>2021-04-18T12:58:42Z</time>
      </trkpt>
      <trkpt lat="43.94598" lon="2.37587">
        <ele>260</ele>
        <time>2021-04-18T12:58:43Z</time>
      </trkpt>
      <trkpt lat="43.94598" lon="2.37586">
        <ele>260</ele>
        <time>2021-04-18T12:58:44Z</time>
      </trkpt>
      <trkpt lat="43.94599" lon="2.37584">
        <ele>259</ele>
        <time>2021-04-18T12:58:45Z</time>
      </trkpt>
      <trkpt lat="43.946" lon="2.37583">
        <ele>259</ele>
        <time>2021-04-18T12:58:46Z</time>
      </trkpt>
      <trkpt lat="43.94601" lon="2.37582">
        <ele>259</ele>
        <time>2021-04-18T12:58:47Z</time>
      </trkpt>
      <trkpt lat="43.94603" lon="2.37582">
        <ele>259</ele>
        <time>2021-04-18T12:58:48Z</time>
      </trkpt>
      <trkpt lat="43.94605" lon="2.37583">
        <ele>260</ele>
        <time>2021-04-18T12:58:49Z</time>
      </trkpt>
      <trkpt lat="43.94606" lon="2.37582">
        <ele>260</ele>
        <time>2021-04-18T12:58:50Z</time>
      </trkpt>
      <trkpt lat="43.94607" lon="2.37583">
        <ele>260</ele>
        <time>2021-04-18T12:58:51Z</time>
      </trkpt>
      <trkpt lat="43.94608" lon="2.37584">
        <ele>260</ele>
        <time>2021-04-18T12:58:52Z</time>
      </trkpt>
      <trkpt lat="43.94609" lon="2.37585">
        <ele>260</ele>
        <time>2021-04-18T12:58:53Z</time>
      </trkpt>
      <trkpt lat="43.9461" lon="2.37586">
        <ele>260</ele>
        <time>2021-04-18T12:58:54Z</time>
      </trkpt>
      <trkpt lat="43.94611" lon="2.37588">
        <ele>260</ele>
        <time>2021-04-18T12:58:55Z</time>
      </trkpt>
      <trkpt lat="43.94612" lon="2.37589">
        <ele>260</ele>
        <time>2021-04-18T12:58:56Z</time>
      </trkpt>
      <trkpt lat="43.94613" lon="2.37591">
        <ele>260</ele>
        <time>2021-04-18T12:58:57Z</time>
      </trkpt>
      <trkpt lat="43.94614" lon="2.37592">
        <ele>260</ele>
        <time>2021-04-18T12:58:58Z</time>
      </trkpt>
      <trkpt lat="43.94615" lon="2.37593">
        <ele>260</ele>
        <time>2021-04-18T12:58:59Z</time>
      </trkpt>
      <trkpt lat="43.94616" lon="2.37594">
        <ele>260</ele>
        <time>2021-04-18T12:59:00Z</time>
      </trkpt>
      <trkpt lat="43.94617" lon="2.37595">
        <ele>259</ele>
        <time>2021-04-18T12:59:01Z</time>
      </trkpt>
      <trkpt lat="43.94618" lon="2.37596">
        <ele>259</ele>
        <time>2021-04-18T12:59:02Z</time>
      </trkpt>
      <trkpt lat="43.94618" lon="2.37596">
        <ele>259</ele>
        <time>2021-04-18T12:59:03Z</time>
      </trkpt>
      <trkpt lat="43.94619" lon="2.37597">
        <ele>259</ele>
        <time>2021-04-18T12:59:04Z</time>
      </trkpt>
      <trkpt lat="43.9462" lon="2.37599">
        <ele>259</ele>
        <time>2021-04-18T12:59:05Z</time>
      </trkpt>
      <trkpt lat="43.94621" lon="2.37599">
        <ele>259</ele>
        <time>2021-04-18T12:59:06Z</time>
      </trkpt>
      <trkpt lat="43.94621" lon="2.37601">
        <ele>259</ele>
        <time>2021-04-18T12:59:07Z</time>
      </trkpt>
      <trkpt lat="43.94621" lon="2.37603">
        <ele>259</ele>
        <time>2021-04-18T12:59:08Z</time>
      </trkpt>
      <trkpt lat="43.94621" lon="2.37605">
        <ele>259</ele>
        <time>2021-04-18T12:59:09Z</time>
      </trkpt>
      <trkpt lat="43.94622" lon="2.37607">
        <ele>259</ele>
        <time>2021-04-18T12:59:10Z</time>
      </trkpt>
      <trkpt lat="43.94622" lon="2.37609">
        <ele>259</ele>
        <time>2021-04-18T12:59:11Z</time>
      </trkpt>
      <trkpt lat="43.94623" lon="2.37611">
        <ele>259</ele>
        <time>2021-04-18T12:59:12Z</time>
      </trkpt>
      <trkpt lat="43.94623" lon="2.37612">
        <ele>260</ele>
        <time>2021-04-18T12:59:13Z</time>
      </trkpt>
      <trkpt lat="43.94624" lon="2.37613">
        <ele>260</ele>
        <time>2021-04-18T12:59:14Z</time>
      </trkpt>
      <trkpt lat="43.94625" lon="2.37615">
        <ele>260</ele>
        <time>2021-04-18T12:59:15Z</time>
      </trkpt>
      <trkpt lat="43.94626" lon="2.37616">
        <ele>261</ele>
        <time>2021-04-18T12:59:16Z</time>
      </trkpt>
      <trkpt lat="43.94626" lon="2.37618">
        <ele>261</ele>
        <time>2021-04-18T12:59:17Z</time>
      </trkpt>
      <trkpt lat="43.94627" lon="2.37619">
        <ele>261</ele>
        <time>2021-04-18T12:59:18Z</time>
      </trkpt>
      <trkpt lat="43.94628" lon="2.3762">
        <ele>262</ele>
        <time>2021-04-18T12:59:19Z</time>
      </trkpt>
      <trkpt lat="43.94629" lon="2.37621">
        <ele>261</ele>
        <time>2021-04-18T12:59:20Z</time>
      </trkpt>
      <trkpt lat="43.9463" lon="2.37622">
        <ele>261</ele>
        <time>2021-04-18T12:59:21Z</time>
      </trkpt>
      <trkpt lat="43.94629" lon="2.37622">
        <ele>261</ele>
        <time>2021-04-18T12:59:22Z</time>
      </trkpt>
      <trkpt lat="43.94629" lon="2.37622">
        <ele>261</ele>
        <time>2021-04-18T12:59:23Z</time>
      </trkpt>
      <trkpt lat="43.94629" lon="2.37622">
        <ele>261</ele>
        <time>2021-04-18T12:59:24Z</time>
      </trkpt>
      <trkpt lat="43.94629" lon="2.37622">
        <ele>261</ele>
        <time>2021-04-18T12:59:25Z</time>
      </trkpt>
      <trkpt lat="43.94629" lon="2.37622">
        <ele>261</ele>
        <time>2021-04-18T12:59:25Z</time>
      </trkpt>
      <trkpt lat="43.94629" lon="2.37622">
        <ele>261</ele>
        <time>2021-04-18T12:59:25Z</time>
      </trkpt>
      <trkpt lat="43.94634" lon="2.37625">
        <ele>260</ele>
        <time>2021-04-18T12:59:35Z</time>
      </trkpt>
      <trkpt lat="43.94635" lon="2.37624">
        <ele>259</ele>
        <time>2021-04-18T12:59:36Z</time>
      </trkpt>
      <trkpt lat="43.94635" lon="2.37624">
        <ele>260</ele>
        <time>2021-04-18T12:59:37Z</time>
      </trkpt>
      <trkpt lat="43.94635" lon="2.37625">
        <ele>260</ele>
        <time>2021-04-18T12:59:38Z</time>
      </trkpt>
      <trkpt lat="43.94636" lon="2.37625">
        <ele>260</ele>
        <time>2021-04-18T12:59:39Z</time>
      </trkpt>
      <trkpt lat="43.94637" lon="2.37625">
        <ele>260</ele>
        <time>2021-04-18T12:59:40Z</time>
      </trkpt>
      <trkpt lat="43.94637" lon="2.37625">
        <ele>260</ele>
        <time>2021-04-18T12:59:41Z</time>
      </trkpt>
      <trkpt lat="43.94637" lon="2.37624">
        <ele>261</ele>
        <time>2021-04-18T12:59:42Z</time>
      </trkpt>
      <trkpt lat="43.94637" lon="2.37624">
        <ele>261</ele>
        <time>2021-04-18T12:59:42Z</time>
      </trkpt>
      <trkpt lat="43.94637" lon="2.37624">
        <ele>261</ele>
        <time>2021-04-18T12:59:42Z</time>
      </trkpt>
      <trkpt lat="43.94638" lon="2.37617">
        <ele>261</ele>
        <time>2021-04-18T12:59:52Z</time>
      </trkpt>
      <trkpt lat="43.94638" lon="2.37617">
        <ele>261</ele>
        <time>2021-04-18T12:59:53Z</time>
      </trkpt>
      <trkpt lat="43.94638" lon="2.37617">
        <ele>261</ele>
        <time>2021-04-18T12:59:54Z</time>
      </trkpt>
      <trkpt lat="43.94638" lon="2.37617">
        <ele>261</ele>
        <time>2021-04-18T12:59:54Z</time>
      </trkpt>
      <trkpt lat="43.94638" lon="2.37617">
        <ele>261</ele>
        <time>2021-04-18T12:59:54Z</time>
      </trkpt>
      <trkpt lat="43.94639" lon="2.37612">
        <ele>262</ele>
        <time>2021-04-18T13:00:03Z</time>
      </trkpt>
      <trkpt lat="43.94639" lon="2.3761">
        <ele>263</ele>
        <time>2021-04-18T13:00:04Z</time>
      </trkpt>
      <trkpt lat="43.94639" lon="2.37609">
        <ele>263</ele>
        <time>2021-04-18T13:00:05Z</time>
      </trkpt>
      <trkpt lat="43.9464" lon="2.37608">
        <ele>263</ele>
        <time>2021-04-18T13:00:06Z</time>
      </trkpt>
      <trkpt lat="43.94641" lon="2.37606">
        <ele>263</ele>
        <time>2021-04-18T13:00:07Z</time>
      </trkpt>
      <trkpt lat="43.94641" lon="2.37605">
        <ele>264</ele>
        <time>2021-04-18T13:00:08Z</time>
      </trkpt>
      <trkpt lat="43.94641" lon="2.37605">
        <ele>264</ele>
        <time>2021-04-18T13:00:09Z</time>
      </trkpt>
      <trkpt lat="43.9464" lon="2.37604">
        <ele>264</ele>
        <time>2021-04-18T13:00:10Z</time>
      </trkpt>
      <trkpt lat="43.94641" lon="2.37603">
        <ele>263</ele>
        <time>2021-04-18T13:00:11Z</time>
      </trkpt>
      <trkpt lat="43.94642" lon="2.37602">
        <ele>262</ele>
        <time>2021-04-18T13:00:12Z</time>
      </trkpt>
      <trkpt lat="43.94642" lon="2.37602">
        <ele>262</ele>
        <time>2021-04-18T13:00:13Z</time>
      </trkpt>
      <trkpt lat="43.94643" lon="2.37602">
        <ele>262</ele>
        <time>2021-04-18T13:00:14Z</time>
      </trkpt>
      <trkpt lat="43.94643" lon="2.37602">
        <ele>262</ele>
        <time>2021-04-18T13:00:14Z</time>
      </trkpt>
      <trkpt lat="43.94643" lon="2.37602">
        <ele>262</ele>
        <time>2021-04-18T13:00:14Z</time>
      </trkpt>
      <trkpt lat="43.94642" lon="2.37598">
        <ele>265</ele>
        <time>2021-04-18T13:00:25Z</time>
      </trkpt>
      <trkpt lat="43.9464" lon="2.37598">
        <ele>265</ele>
        <time>2021-04-18T13:00:26Z</time>
      </trkpt>
      <trkpt lat="43.94639" lon="2.37597">
        <ele>265</ele>
        <time>2021-04-18T13:00:27Z</time>
      </trkpt>
      <trkpt lat="43.94638" lon="2.37596">
        <ele>266</ele>
        <time>2021-04-18T13:00:28Z</time>
      </trkpt>
      <trkpt lat="43.94637" lon="2.37596">
        <ele>266</ele>
        <time>2021-04-18T13:00:29Z</time>
      </trkpt>
      <trkpt lat="43.94636" lon="2.37595">
        <ele>267</ele>
        <time>2021-04-18T13:00:30Z</time>
      </trkpt>
      <trkpt lat="43.94635" lon="2.37595">
        <ele>267</ele>
        <time>2021-04-18T13:00:31Z</time>
      </trkpt>
      <trkpt lat="43.94634" lon="2.37594">
        <ele>267</ele>
        <time>2021-04-18T13:00:32Z</time>
      </trkpt>
      <trkpt lat="43.94634" lon="2.37594">
        <ele>268</ele>
        <time>2021-04-18T13:00:33Z</time>
      </trkpt>
      <trkpt lat="43.94633" lon="2.37593">
        <ele>268</ele>
        <time>2021-04-18T13:00:34Z</time>
      </trkpt>
      <trkpt lat="43.94633" lon="2.37593">
        <ele>268</ele>
        <time>2021-04-18T13:00:35Z</time>
      </trkpt>
      <trkpt lat="43.94633" lon="2.37592">
        <ele>269</ele>
        <time>2021-04-18T13:00:36Z</time>
      </trkpt>
      <trkpt lat="43.94632" lon="2.37591">
        <ele>269</ele>
        <time>2021-04-18T13:00:37Z</time>
      </trkpt>
      <trkpt lat="43.94632" lon="2.37589">
        <ele>269</ele>
        <time>2021-04-18T13:00:38Z</time>
      </trkpt>
      <trkpt lat="43.94632" lon="2.37588">
        <ele>269</ele>
        <time>2021-04-18T13:00:39Z</time>
      </trkpt>
      <trkpt lat="43.94631" lon="2.37587">
        <ele>270</ele>
        <time>2021-04-18T13:00:40Z</time>
      </trkpt>
      <trkpt lat="43.9463" lon="2.37586">
        <ele>270</ele>
        <time>2021-04-18T13:00:41Z</time>
      </trkpt>
      <trkpt lat="43.94629" lon="2.37585">
        <ele>270</ele>
        <time>2021-04-18T13:00:42Z</time>
      </trkpt>
      <trkpt lat="43.94628" lon="2.37583">
        <ele>270</ele>
        <time>2021-04-18T13:00:43Z</time>
      </trkpt>
      <trkpt lat="43.94627" lon="2.37582">
        <ele>270</ele>
        <time>2021-04-18T13:00:44Z</time>
      </trkpt>
      <trkpt lat="43.94626" lon="2.37581">
        <ele>270</ele>
        <time>2021-04-18T13:00:45Z</time>
      </trkpt>
      <trkpt lat="43.94625" lon="2.37581">
        <ele>270</ele>
        <time>2021-04-18T13:00:46Z</time>
      </trkpt>
      <trkpt lat="43.94625" lon="2.37581">
        <ele>270</ele>
        <time>2021-04-18T13:00:47Z</time>
      </trkpt>
      <trkpt lat="43.94624" lon="2.37579">
        <ele>270</ele>
        <time>2021-04-18T13:00:48Z</time>
      </trkpt>
      <trkpt lat="43.94624" lon="2.37578">
        <ele>271</ele>
        <time>2021-04-18T13:00:49Z</time>
      </trkpt>
      <trkpt lat="43.94623" lon="2.37577">
        <ele>270</ele>
        <time>2021-04-18T13:00:50Z</time>
      </trkpt>
      <trkpt lat="43.94622" lon="2.37576">
        <ele>270</ele>
        <time>2021-04-18T13:00:51Z</time>
      </trkpt>
      <trkpt lat="43.94622" lon="2.37574">
        <ele>270</ele>
        <time>2021-04-18T13:00:52Z</time>
      </trkpt>
      <trkpt lat="43.94621" lon="2.37572">
        <ele>270</ele>
        <time>2021-04-18T13:00:53Z</time>
      </trkpt>
      <trkpt lat="43.94621" lon="2.37571">
        <ele>270</ele>
        <time>2021-04-18T13:00:54Z</time>
      </trkpt>
      <trkpt lat="43.94621" lon="2.3757">
        <ele>270</ele>
        <time>2021-04-18T13:00:55Z</time>
      </trkpt>
      <trkpt lat="43.9462" lon="2.37568">
        <ele>269</ele>
        <time>2021-04-18T13:00:56Z</time>
      </trkpt>
      <trkpt lat="43.94619" lon="2.37567">
        <ele>269</ele>
        <time>2021-04-18T13:00:57Z</time>
      </trkpt>
      <trkpt lat="43.94618" lon="2.37566">
        <ele>270</ele>
        <time>2021-04-18T13:00:58Z</time>
      </trkpt>
      <trkpt lat="43.94618" lon="2.37565">
        <ele>270</ele>
        <time>2021-04-18T13:00:59Z</time>
      </trkpt>
      <trkpt lat="43.94617" lon="2.37564">
        <ele>271</ele>
        <time>2021-04-18T13:01:00Z</time>
      </trkpt>
      <trkpt lat="43.94617" lon="2.37563">
        <ele>271</ele>
        <time>2021-04-18T13:01:01Z</time>
      </trkpt>
      <trkpt lat="43.94616" lon="2.37561">
        <ele>272</ele>
        <time>2021-04-18T13:01:02Z</time>
      </trkpt>
      <trkpt lat="43.94616" lon="2.3756">
        <ele>273</ele>
        <time>2021-04-18T13:01:03Z</time>
      </trkpt>
      <trkpt lat="43.94615" lon="2.37558">
        <ele>272</ele>
        <time>2021-04-18T13:01:04Z</time>
      </trkpt>
      <trkpt lat="43.94614" lon="2.37557">
        <ele>271</ele>
        <time>2021-04-18T13:01:05Z</time>
      </trkpt>
      <trkpt lat="43.94614" lon="2.37555">
        <ele>271</ele>
        <time>2021-04-18T13:01:06Z</time>
      </trkpt>
      <trkpt lat="43.94613" lon="2.37554">
        <ele>271</ele>
        <time>2021-04-18T13:01:07Z</time>
      </trkpt>
      <trkpt lat="43.94613" lon="2.37552">
        <ele>272</ele>
        <time>2021-04-18T13:01:08Z</time>
      </trkpt>
      <trkpt lat="43.94613" lon="2.37551">
        <ele>272</ele>
        <time>2021-04-18T13:01:09Z</time>
      </trkpt>
      <trkpt lat="43.94613" lon="2.37549">
        <ele>272</ele>
        <time>2021-04-18T13:01:10Z</time>
      </trkpt>
      <trkpt lat="43.94612" lon="2.37548">
        <ele>272</ele>
        <time>2021-04-18T13:01:11Z</time>
      </trkpt>
      <trkpt lat="43.94612" lon="2.37547">
        <ele>272</ele>
        <time>2021-04-18T13:01:12Z</time>
      </trkpt>
      <trkpt lat="43.94611" lon="2.37546">
        <ele>272</ele>
        <time>2021-04-18T13:01:13Z</time>
      </trkpt>
      <trkpt lat="43.94611" lon="2.37545">
        <ele>272</ele>
        <time>2021-04-18T13:01:14Z</time>
      </trkpt>
      <trkpt lat="43.94611" lon="2.37545">
        <ele>272</ele>
        <time>2021-04-18T13:01:15Z</time>
      </trkpt>
      <trkpt lat="43.94611" lon="2.37545">
        <ele>272</ele>
        <time>2021-04-18T13:01:16Z</time>
      </trkpt>
      <trkpt lat="43.94611" lon="2.37545">
        <ele>272</ele>
        <time>2021-04-18T13:01:17Z</time>
      </trkpt>
      <trkpt lat="43.94611" lon="2.37544">
        <ele>273</ele>
        <time>2021-04-18T13:01:18Z</time>
      </trkpt>
      <trkpt lat="43.94611" lon="2.37543">
        <ele>273</ele>
        <time>2021-04-18T13:01:19Z</time>
      </trkpt>
      <trkpt lat="43.94611" lon="2.37542">
        <ele>272</ele>
        <time>2021-04-18T13:01:20Z</time>
      </trkpt>
      <trkpt lat="43.94611" lon="2.37541">
        <ele>273</ele>
        <time>2021-04-18T13:01:21Z</time>
      </trkpt>
      <trkpt lat="43.9461" lon="2.3754">
        <ele>273</ele>
        <time>2021-04-18T13:01:22Z</time>
      </trkpt>
      <trkpt lat="43.9461" lon="2.37539">
        <ele>273</ele>
        <time>2021-04-18T13:01:23Z</time>
      </trkpt>
      <trkpt lat="43.9461" lon="2.37537">
        <ele>273</ele>
        <time>2021-04-18T13:01:24Z</time>
      </trkpt>
      <trkpt lat="43.9461" lon="2.37536">
        <ele>273</ele>
        <time>2021-04-18T13:01:25Z</time>
      </trkpt>
      <trkpt lat="43.9461" lon="2.37535">
        <ele>274</ele>
        <time>2021-04-18T13:01:26Z</time>
      </trkpt>
      <trkpt lat="43.9461" lon="2.37535">
        <ele>274</ele>
        <time>2021-04-18T13:01:27Z</time>
      </trkpt>
      <trkpt lat="43.9461" lon="2.37533">
        <ele>274</ele>
        <time>2021-04-18T13:01:28Z</time>
      </trkpt>
      <trkpt lat="43.9461" lon="2.37532">
        <ele>275</ele>
        <time>2021-04-18T13:01:29Z</time>
      </trkpt>
      <trkpt lat="43.94611" lon="2.37531">
        <ele>274</ele>
        <time>2021-04-18T13:01:30Z</time>
      </trkpt>
      <trkpt lat="43.94611" lon="2.3753">
        <ele>275</ele>
        <time>2021-04-18T13:01:31Z</time>
      </trkpt>
      <trkpt lat="43.94612" lon="2.37529">
        <ele>275</ele>
        <time>2021-04-18T13:01:32Z</time>
      </trkpt>
      <trkpt lat="43.94613" lon="2.37529">
        <ele>275</ele>
        <time>2021-04-18T13:01:33Z</time>
      </trkpt>
      <trkpt lat="43.94614" lon="2.37529">
        <ele>275</ele>
        <time>2021-04-18T13:01:34Z</time>
      </trkpt>
      <trkpt lat="43.94613" lon="2.37529">
        <ele>275</ele>
        <time>2021-04-18T13:01:35Z</time>
      </trkpt>
      <trkpt lat="43.94614" lon="2.3753">
        <ele>275</ele>
        <time>2021-04-18T13:01:36Z</time>
      </trkpt>
      <trkpt lat="43.94615" lon="2.37529">
        <ele>276</ele>
        <time>2021-04-18T13:01:37Z</time>
      </trkpt>
      <trkpt lat="43.94615" lon="2.3753">
        <ele>276</ele>
        <time>2021-04-18T13:01:38Z</time>
      </trkpt>
      <trkpt lat="43.94616" lon="2.3753">
        <ele>276</ele>
        <time>2021-04-18T13:01:39Z</time>
      </trkpt>
      <trkpt lat="43.94616" lon="2.37531">
        <ele>276</ele>
        <time>2021-04-18T13:01:40Z</time>
      </trkpt>
      <trkpt lat="43.94617" lon="2.37531">
        <ele>275</ele>
        <time>2021-04-18T13:01:41Z</time>
      </trkpt>
      <trkpt lat="43.94618" lon="2.37531">
        <ele>275</ele>
        <time>2021-04-18T13:01:42Z</time>
      </trkpt>
      <trkpt lat="43.94619" lon="2.37531">
        <ele>275</ele>
        <time>2021-04-18T13:01:43Z</time>
      </trkpt>
      <trkpt lat="43.94619" lon="2.37532">
        <ele>275</ele>
        <time>2021-04-18T13:01:44Z</time>
      </trkpt>
      <trkpt lat="43.94619" lon="2.37533">
        <ele>275</ele>
        <time>2021-04-18T13:01:45Z</time>
      </trkpt>
      <trkpt lat="43.9462" lon="2.37534">
        <ele>275</ele>
        <time>2021-04-18T13:01:46Z</time>
      </trkpt>
      <trkpt lat="43.9462" lon="2.37535">
        <ele>275</ele>
        <time>2021-04-18T13:01:47Z</time>
      </trkpt>
      <trkpt lat="43.94621" lon="2.37537">
        <ele>275</ele>
        <time>2021-04-18T13:01:48Z</time>
      </trkpt>
      <trkpt lat="43.94622" lon="2.37537">
        <ele>275</ele>
        <time>2021-04-18T13:01:49Z</time>
      </trkpt>
      <trkpt lat="43.94623" lon="2.37538">
        <ele>274</ele>
        <time>2021-04-18T13:01:50Z</time>
      </trkpt>
      <trkpt lat="43.94624" lon="2.37539">
        <ele>275</ele>
        <time>2021-04-18T13:01:51Z</time>
      </trkpt>
      <trkpt lat="43.94625" lon="2.3754">
        <ele>274</ele>
        <time>2021-04-18T13:01:52Z</time>
      </trkpt>
      <trkpt lat="43.94626" lon="2.37541">
        <ele>274</ele>
        <time>2021-04-18T13:01:53Z</time>
      </trkpt>
      <trkpt lat="43.94626" lon="2.37542">
        <ele>274</ele>
        <time>2021-04-18T13:01:54Z</time>
      </trkpt>
      <trkpt lat="43.94626" lon="2.37543">
        <ele>273</ele>
        <time>2021-04-18T13:01:55Z</time>
      </trkpt>
      <trkpt lat="43.94626" lon="2.37543">
        <ele>273</ele>
        <time>2021-04-18T13:01:56Z</time>
      </trkpt>
      <trkpt lat="43.94627" lon="2.37544">
        <ele>273</ele>
        <time>2021-04-18T13:01:57Z</time>
      </trkpt>
      <trkpt lat="43.94627" lon="2.37545">
        <ele>273</ele>
        <time>2021-04-18T13:01:58Z</time>
      </trkpt>
      <trkpt lat="43.94627" lon="2.37546">
        <ele>273</ele>
        <time>2021-04-18T13:01:59Z</time>
      </trkpt>
      <trkpt lat="43.94628" lon="2.37547">
        <ele>273</ele>
        <time>2021-04-18T13:02:00Z</time>
      </trkpt>
      <trkpt lat="43.94629" lon="2.37548">
        <ele>272</ele>
        <time>2021-04-18T13:02:01Z</time>
      </trkpt>
      <trkpt lat="43.9463" lon="2.37549">
        <ele>273</ele>
        <time>2021-04-18T13:02:02Z</time>
      </trkpt>
      <trkpt lat="43.9463" lon="2.3755">
        <ele>273</ele>
        <time>2021-04-18T13:02:03Z</time>
      </trkpt>
      <trkpt lat="43.94631" lon="2.37549">
        <ele>273</ele>
        <time>2021-04-18T13:02:04Z</time>
      </trkpt>
      <trkpt lat="43.94632" lon="2.37551">
        <ele>273</ele>
        <time>2021-04-18T13:02:05Z</time>
      </trkpt>
      <trkpt lat="43.94632" lon="2.37551">
        <ele>274</ele>
        <time>2021-04-18T13:02:06Z</time>
      </trkpt>
      <trkpt lat="43.94633" lon="2.37551">
        <ele>275</ele>
        <time>2021-04-18T13:02:07Z</time>
      </trkpt>
      <trkpt lat="43.94634" lon="2.37552">
        <ele>275</ele>
        <time>2021-04-18T13:02:08Z</time>
      </trkpt>
      <trkpt lat="43.94635" lon="2.37553">
        <ele>275</ele>
        <time>2021-04-18T13:02:09Z</time>
      </trkpt>
      <trkpt lat="43.94635" lon="2.37554">
        <ele>275</ele>
        <time>2021-04-18T13:02:10Z</time>
      </trkpt>
      <trkpt lat="43.94636" lon="2.37555">
        <ele>276</ele>
        <time>2021-04-18T13:02:11Z</time>
      </trkpt>
      <trkpt lat="43.94637" lon="2.37556">
        <ele>276</ele>
        <time>2021-04-18T13:02:12Z</time>
      </trkpt>
      <trkpt lat="43.94638" lon="2.37557">
        <ele>276</ele>
        <time>2021-04-18T13:02:13Z</time>
      </trkpt>
      <trkpt lat="43.9464" lon="2.37558">
        <ele>275</ele>
        <time>2021-04-18T13:02:14Z</time>
      </trkpt>
      <trkpt lat="43.94641" lon="2.37558">
        <ele>276</ele>
        <time>2021-04-18T13:02:15Z</time>
      </trkpt>
      <trkpt lat="43.94642" lon="2.37559">
        <ele>276</ele>
        <time>2021-04-18T13:02:16Z</time>
      </trkpt>
      <trkpt lat="43.94642" lon="2.37558">
        <ele>277</ele>
        <time>2021-04-18T13:02:17Z</time>
      </trkpt>
      <trkpt lat="43.94643" lon="2.37558">
        <ele>277</ele>
        <time>2021-04-18T13:02:18Z</time>
      </trkpt>
      <trkpt lat="43.94644" lon="2.37558">
        <ele>277</ele>
        <time>2021-04-18T13:02:19Z</time>
      </trkpt>
      <trkpt lat="43.94645" lon="2.37559">
        <ele>278</ele>
        <time>2021-04-18T13:02:20Z</time>
      </trkpt>
      <trkpt lat="43.94646" lon="2.37558">
        <ele>278</ele>
        <time>2021-04-18T13:02:21Z</time>
      </trkpt>
      <trkpt lat="43.94647" lon="2.37558">
        <ele>278</ele>
        <time>2021-04-18T13:02:22Z</time>
      </trkpt>
      <trkpt lat="43.94647" lon="2.37558">
        <ele>278</ele>
        <time>2021-04-18T13:02:23Z</time>
      </trkpt>
      <trkpt lat="43.94647" lon="2.37559">
        <ele>278</ele>
        <time>2021-04-18T13:02:24Z</time>
      </trkpt>
      <trkpt lat="43.94648" lon="2.37558">
        <ele>279</ele>
        <time>2021-04-18T13:02:25Z</time>
      </trkpt>
      <trkpt lat="43.94649" lon="2.37559">
        <ele>279</ele>
        <time>2021-04-18T13:02:26Z</time>
      </trkpt>
      <trkpt lat="43.9465" lon="2.37559">
        <ele>279</ele>
        <time>2021-04-18T13:02:27Z</time>
      </trkpt>
      <trkpt lat="43.9465" lon="2.37559">
        <ele>278</ele>
        <time>2021-04-18T13:02:28Z</time>
      </trkpt>
      <trkpt lat="43.94651" lon="2.37559">
        <ele>279</ele>
        <time>2021-04-18T13:02:29Z</time>
      </trkpt>
      <trkpt lat="43.94651" lon="2.37558">
        <ele>279</ele>
        <time>2021-04-18T13:02:30Z</time>
      </trkpt>
      <trkpt lat="43.94653" lon="2.37558">
        <ele>280</ele>
        <time>2021-04-18T13:02:31Z</time>
      </trkpt>
      <trkpt lat="43.94653" lon="2.37558">
        <ele>280</ele>
        <time>2021-04-18T13:02:32Z</time>
      </trkpt>
      <trkpt lat="43.94655" lon="2.37557">
        <ele>281</ele>
        <time>2021-04-18T13:02:33Z</time>
      </trkpt>
      <trkpt lat="43.94655" lon="2.37557">
        <ele>281</ele>
        <time>2021-04-18T13:02:34Z</time>
      </trkpt>
      <trkpt lat="43.94656" lon="2.37557">
        <ele>281</ele>
        <time>2021-04-18T13:02:35Z</time>
      </trkpt>
      <trkpt lat="43.94656" lon="2.37556">
        <ele>281</ele>
        <time>2021-04-18T13:02:36Z</time>
      </trkpt>
      <trkpt lat="43.94658" lon="2.37556">
        <ele>282</ele>
        <time>2021-04-18T13:02:37Z</time>
      </trkpt>
      <trkpt lat="43.94658" lon="2.37556">
        <ele>282</ele>
        <time>2021-04-18T13:02:38Z</time>
      </trkpt>
      <trkpt lat="43.94659" lon="2.37556">
        <ele>282</ele>
        <time>2021-04-18T13:02:39Z</time>
      </trkpt>
      <trkpt lat="43.9466" lon="2.37556">
        <ele>282</ele>
        <time>2021-04-18T13:02:40Z</time>
      </trkpt>
      <trkpt lat="43.94661" lon="2.37555">
        <ele>282</ele>
        <time>2021-04-18T13:02:41Z</time>
      </trkpt>
      <trkpt lat="43.94663" lon="2.37554">
        <ele>282</ele>
        <time>2021-04-18T13:02:42Z</time>
      </trkpt>
      <trkpt lat="43.94663" lon="2.37553">
        <ele>282</ele>
        <time>2021-04-18T13:02:43Z</time>
      </trkpt>
      <trkpt lat="43.94664" lon="2.37554">
        <ele>283</ele>
        <time>2021-04-18T13:02:44Z</time>
      </trkpt>
      <trkpt lat="43.94665" lon="2.37554">
        <ele>283</ele>
        <time>2021-04-18T13:02:45Z</time>
      </trkpt>
      <trkpt lat="43.94666" lon="2.37554">
        <ele>283</ele>
        <time>2021-04-18T13:02:46Z</time>
      </trkpt>
      <trkpt lat="43.94667" lon="2.37554">
        <ele>283</ele>
        <time>2021-04-18T13:02:47Z</time>
      </trkpt>
      <trkpt lat="43.94667" lon="2.37553">
        <ele>284</ele>
        <time>2021-04-18T13:02:48Z</time>
      </trkpt>
      <trkpt lat="43.94668" lon="2.37553">
        <ele>284</ele>
        <time>2021-04-18T13:02:49Z</time>
      </trkpt>
      <trkpt lat="43.94668" lon="2.37553">
        <ele>284</ele>
        <time>2021-04-18T13:02:50Z</time>
      </trkpt>
      <trkpt lat="43.94668" lon="2.37553">
        <ele>284</ele>
        <time>2021-04-18T13:02:51Z</time>
      </trkpt>
      <trkpt lat="43.94668" lon="2.37553">
        <ele>284</ele>
        <time>2021-04-18T13:02:52Z</time>
      </trkpt>
      <trkpt lat="43.94668" lon="2.37553">
        <ele>284</ele>
        <time>2021-04-18T13:02:53Z</time>
      </trkpt>
      <trkpt lat="43.94668" lon="2.37553">
        <ele>284</ele>
        <time>2021-04-18T13:02:54Z</time>
      </trkpt>
      <trkpt lat="43.94669" lon="2.37552">
        <ele>286</ele>
        <time>2021-04-18T13:02:55Z</time>
      </trkpt>
      <trkpt lat="43.9467" lon="2.37551">
        <ele>287</ele>
        <time>2021-04-18T13:02:56Z</time>
      </trkpt>
      <trkpt lat="43.9467" lon="2.3755">
        <ele>287</ele>
        <time>2021-04-18T13:02:57Z</time>
      </trkpt>
      <trkpt lat="43.94671" lon="2.3755">
        <ele>287</ele>
        <time>2021-04-18T13:02:58Z</time>
      </trkpt>
      <trkpt lat="43.94671" lon="2.3755">
        <ele>287</ele>
        <time>2021-04-18T13:02:59Z</time>
      </trkpt>
      <trkpt lat="43.94672" lon="2.37549">
        <ele>288</ele>
        <time>2021-04-18T13:03:00Z</time>
      </trkpt>
      <trkpt lat="43.94673" lon="2.37549">
        <ele>288</ele>
        <time>2021-04-18T13:03:01Z</time>
      </trkpt>
      <trkpt lat="43.94675" lon="2.37548">
        <ele>289</ele>
        <time>2021-04-18T13:03:02Z</time>
      </trkpt>
      <trkpt lat="43.94676" lon="2.37548">
        <ele>289</ele>
        <time>2021-04-18T13:03:03Z</time>
      </trkpt>
      <trkpt lat="43.94676" lon="2.37548">
        <ele>289</ele>
        <time>2021-04-18T13:03:04Z</time>
      </trkpt>
      <trkpt lat="43.94677" lon="2.37547">
        <ele>290</ele>
        <time>2021-04-18T13:03:05Z</time>
      </trkpt>
      <trkpt lat="43.94677" lon="2.37547">
        <ele>290</ele>
        <time>2021-04-18T13:03:06Z</time>
      </trkpt>
      <trkpt lat="43.94677" lon="2.37547">
        <ele>290</ele>
        <time>2021-04-18T13:03:07Z</time>
      </trkpt>
      <trkpt lat="43.94677" lon="2.37547">
        <ele>290</ele>
        <time>2021-04-18T13:03:08Z</time>
      </trkpt>
      <trkpt lat="43.94679" lon="2.37546">
        <ele>290</ele>
        <time>2021-04-18T13:03:09Z</time>
      </trkpt>
      <trkpt lat="43.94679" lon="2.37545">
        <ele>290</ele>
        <time>2021-04-18T13:03:10Z</time>
      </trkpt>
      <trkpt lat="43.9468" lon="2.37545">
        <ele>290</ele>
        <time>2021-04-18T13:03:11Z</time>
      </trkpt>
      <trkpt lat="43.94682" lon="2.37545">
        <ele>291</ele>
        <time>2021-04-18T13:03:12Z</time>
      </trkpt>
      <trkpt lat="43.94682" lon="2.37544">
        <ele>291</ele>
        <time>2021-04-18T13:03:13Z</time>
      </trkpt>
      <trkpt lat="43.94684" lon="2.37544">
        <ele>291</ele>
        <time>2021-04-18T13:03:14Z</time>
      </trkpt>
      <trkpt lat="43.94684" lon="2.37544">
        <ele>291</ele>
        <time>2021-04-18T13:03:15Z</time>
      </trkpt>
      <trkpt lat="43.94685" lon="2.37544">
        <ele>291</ele>
        <time>2021-04-18T13:03:16Z</time>
      </trkpt>
      <trkpt lat="43.94685" lon="2.37543">
        <ele>292</ele>
        <time>2021-04-18T13:03:17Z</time>
      </trkpt>
      <trkpt lat="43.94686" lon="2.37542">
        <ele>292</ele>
        <time>2021-04-18T13:03:18Z</time>
      </trkpt>
      <trkpt lat="43.94687" lon="2.3754">
        <ele>291</ele>
        <time>2021-04-18T13:03:19Z</time>
      </trkpt>
      <trkpt lat="43.94688" lon="2.3754">
        <ele>291</ele>
        <time>2021-04-18T13:03:20Z</time>
      </trkpt>
      <trkpt lat="43.94689" lon="2.3754">
        <ele>292</ele>
        <time>2021-04-18T13:03:21Z</time>
      </trkpt>
      <trkpt lat="43.94689" lon="2.37539">
        <ele>293</ele>
        <time>2021-04-18T13:03:22Z</time>
      </trkpt>
      <trkpt lat="43.9469" lon="2.37539">
        <ele>293</ele>
        <time>2021-04-18T13:03:23Z</time>
      </trkpt>
      <trkpt lat="43.94691" lon="2.37538">
        <ele>293</ele>
        <time>2021-04-18T13:03:24Z</time>
      </trkpt>
      <trkpt lat="43.94692" lon="2.37538">
        <ele>294</ele>
        <time>2021-04-18T13:03:25Z</time>
      </trkpt>
      <trkpt lat="43.94692" lon="2.37538">
        <ele>293</ele>
        <time>2021-04-18T13:03:26Z</time>
      </trkpt>
      <trkpt lat="43.94693" lon="2.37538">
        <ele>293</ele>
        <time>2021-04-18T13:03:27Z</time>
      </trkpt>
      <trkpt lat="43.94694" lon="2.37538">
        <ele>293</ele>
        <time>2021-04-18T13:03:28Z</time>
      </trkpt>
      <trkpt lat="43.94695" lon="2.37537">
        <ele>294</ele>
        <time>2021-04-18T13:03:29Z</time>
      </trkpt>
      <trkpt lat="43.94695" lon="2.37536">
        <ele>294</ele>
        <time>2021-04-18T13:03:30Z</time>
      </trkpt>
      <trkpt lat="43.94696" lon="2.37535">
        <ele>295</ele>
        <time>2021-04-18T13:03:31Z</time>
      </trkpt>
      <trkpt lat="43.94697" lon="2.37534">
        <ele>294</ele>
        <time>2021-04-18T13:03:32Z</time>
      </trkpt>
      <trkpt lat="43.94698" lon="2.37533">
        <ele>295</ele>
        <time>2021-04-18T13:03:33Z</time>
      </trkpt>
      <trkpt lat="43.94699" lon="2.37533">
        <ele>295</ele>
        <time>2021-04-18T13:03:34Z</time>
      </trkpt>
      <trkpt lat="43.947" lon="2.37533">
        <ele>295</ele>
        <time>2021-04-18T13:03:35Z</time>
      </trkpt>
      <trkpt lat="43.94701" lon="2.37533">
        <ele>295</ele>
        <time>2021-04-18T13:03:36Z</time>
      </trkpt>
      <trkpt lat="43.94701" lon="2.37533">
        <ele>295</ele>
        <time>2021-04-18T13:03:37Z</time>
      </trkpt>
      <trkpt lat="43.94702" lon="2.37533">
        <ele>294</ele>
        <time>2021-04-18T13:03:38Z</time>
      </trkpt>
      <trkpt lat="43.94703" lon="2.37532">
        <ele>295</ele>
        <time>2021-04-18T13:03:39Z</time>
      </trkpt>
      <trkpt lat="43.94704" lon="2.37532">
        <ele>295</ele>
        <time>2021-04-18T13:03:40Z</time>
      </trkpt>
      <trkpt lat="43.94705" lon="2.37532">
        <ele>294</ele>
        <time>2021-04-18T13:03:41Z</time>
      </trkpt>
      <trkpt lat="43.94706" lon="2.37532">
        <ele>295</ele>
        <time>2021-04-18T13:03:42Z</time>
      </trkpt>
      <trkpt lat="43.94706" lon="2.37532">
        <ele>295</ele>
        <time>2021-04-18T13:03:43Z</time>
      </trkpt>
      <trkpt lat="43.94707" lon="2.37531">
        <ele>296</ele>
        <time>2021-04-18T13:03:44Z</time>
      </trkpt>
      <trkpt lat="43.94708" lon="2.37531">
        <ele>296</ele>
        <time>2021-04-18T13:03:45Z</time>
      </trkpt>
      <trkpt lat="43.94709" lon="2.37532">
        <ele>296</ele>
        <time>2021-04-18T13:03:46Z</time>
      </trkpt>
      <trkpt lat="43.9471" lon="2.37531">
        <ele>296</ele>
        <time>2021-04-18T13:03:47Z</time>
      </trkpt>
      <trkpt lat="43.94711" lon="2.3753">
        <ele>296</ele>
        <time>2021-04-18T13:03:48Z</time>
      </trkpt>
      <trkpt lat="43.94711" lon="2.37529">
        <ele>296</ele>
        <time>2021-04-18T13:03:49Z</time>
      </trkpt>
      <trkpt lat="43.94712" lon="2.37529">
        <ele>296</ele>
        <time>2021-04-18T13:03:50Z</time>
      </trkpt>
      <trkpt lat="43.94712" lon="2.37528">
        <ele>297</ele>
        <time>2021-04-18T13:03:51Z</time>
      </trkpt>
      <trkpt lat="43.94713" lon="2.37527">
        <ele>297</ele>
        <time>2021-04-18T13:03:52Z</time>
      </trkpt>
      <trkpt lat="43.94713" lon="2.37527">
        <ele>297</ele>
        <time>2021-04-18T13:03:53Z</time>
      </trkpt>
      <trkpt lat="43.94713" lon="2.37522">
        <ele>297</ele>
        <time>2021-04-18T13:03:54Z</time>
      </trkpt>
      <trkpt lat="43.94712" lon="2.3752">
        <ele>297</ele>
        <time>2021-04-18T13:03:55Z</time>
      </trkpt>
      <trkpt lat="43.94712" lon="2.3752">
        <ele>297</ele>
        <time>2021-04-18T13:03:56Z</time>
      </trkpt>
      <trkpt lat="43.94711" lon="2.37519">
        <ele>298</ele>
        <time>2021-04-18T13:03:57Z</time>
      </trkpt>
      <trkpt lat="43.94711" lon="2.37519">
        <ele>298</ele>
        <time>2021-04-18T13:03:58Z</time>
      </trkpt>
      <trkpt lat="43.94711" lon="2.37519">
        <ele>298</ele>
        <time>2021-04-18T13:03:59Z</time>
      </trkpt>
      <trkpt lat="43.9471" lon="2.37517">
        <ele>298</ele>
        <time>2021-04-18T13:04:00Z</time>
      </trkpt>
      <trkpt lat="43.94709" lon="2.37516">
        <ele>298</ele>
        <time>2021-04-18T13:04:01Z</time>
      </trkpt>
      <trkpt lat="43.94708" lon="2.37516">
        <ele>298</ele>
        <time>2021-04-18T13:04:02Z</time>
      </trkpt>
      <trkpt lat="43.94708" lon="2.37516">
        <ele>298</ele>
        <time>2021-04-18T13:04:03Z</time>
      </trkpt>
      <trkpt lat="43.94706" lon="2.37516">
        <ele>298</ele>
        <time>2021-04-18T13:04:04Z</time>
      </trkpt>
      <trkpt lat="43.94705" lon="2.37516">
        <ele>298</ele>
        <time>2021-04-18T13:04:05Z</time>
      </trkpt>
      <trkpt lat="43.94704" lon="2.37516">
        <ele>298</ele>
        <time>2021-04-18T13:04:06Z</time>
      </trkpt>
      <trkpt lat="43.94704" lon="2.37516">
        <ele>299</ele>
        <time>2021-04-18T13:04:07Z</time>
      </trkpt>
      <trkpt lat="43.94703" lon="2.37515">
        <ele>299</ele>
        <time>2021-04-18T13:04:08Z</time>
      </trkpt>
      <trkpt lat="43.94703" lon="2.37515">
        <ele>298</ele>
        <time>2021-04-18T13:04:09Z</time>
      </trkpt>
      <trkpt lat="43.94702" lon="2.37515">
        <ele>298</ele>
        <time>2021-04-18T13:04:10Z</time>
      </trkpt>
      <trkpt lat="43.94701" lon="2.37514">
        <ele>299</ele>
        <time>2021-04-18T13:04:11Z</time>
      </trkpt>
      <trkpt lat="43.94701" lon="2.37513">
        <ele>299</ele>
        <time>2021-04-18T13:04:12Z</time>
      </trkpt>
      <trkpt lat="43.947" lon="2.37511">
        <ele>299</ele>
        <time>2021-04-18T13:04:13Z</time>
      </trkpt>
      <trkpt lat="43.94699" lon="2.3751">
        <ele>299</ele>
        <time>2021-04-18T13:04:14Z</time>
      </trkpt>
      <trkpt lat="43.94698" lon="2.3751">
        <ele>299</ele>
        <time>2021-04-18T13:04:15Z</time>
      </trkpt>
      <trkpt lat="43.94696" lon="2.37509">
        <ele>300</ele>
        <time>2021-04-18T13:04:16Z</time>
      </trkpt>
      <trkpt lat="43.94695" lon="2.37509">
        <ele>301</ele>
        <time>2021-04-18T13:04:17Z</time>
      </trkpt>
      <trkpt lat="43.94694" lon="2.37508">
        <ele>301</ele>
        <time>2021-04-18T13:04:18Z</time>
      </trkpt>
      <trkpt lat="43.94693" lon="2.37508">
        <ele>300</ele>
        <time>2021-04-18T13:04:19Z</time>
      </trkpt>
      <trkpt lat="43.94692" lon="2.37507">
        <ele>300</ele>
        <time>2021-04-18T13:04:20Z</time>
      </trkpt>
      <trkpt lat="43.94692" lon="2.37506">
        <ele>300</ele>
        <time>2021-04-18T13:04:21Z</time>
      </trkpt>
      <trkpt lat="43.94691" lon="2.37506">
        <ele>301</ele>
        <time>2021-04-18T13:04:22Z</time>
      </trkpt>
      <trkpt lat="43.9469" lon="2.37505">
        <ele>301</ele>
        <time>2021-04-18T13:04:23Z</time>
      </trkpt>
      <trkpt lat="43.94689" lon="2.37504">
        <ele>302</ele>
        <time>2021-04-18T13:04:24Z</time>
      </trkpt>
      <trkpt lat="43.94689" lon="2.37504">
        <ele>302</ele>
        <time>2021-04-18T13:04:25Z</time>
      </trkpt>
      <trkpt lat="43.94688" lon="2.37503">
        <ele>302</ele>
        <time>2021-04-18T13:04:26Z</time>
      </trkpt>
      <trkpt lat="43.94687" lon="2.37502">
        <ele>303</ele>
        <time>2021-04-18T13:04:27Z</time>
      </trkpt>
      <trkpt lat="43.94687" lon="2.37502">
        <ele>303</ele>
        <time>2021-04-18T13:04:28Z</time>
      </trkpt>
      <trkpt lat="43.94686" lon="2.37501">
        <ele>302</ele>
        <time>2021-04-18T13:04:29Z</time>
      </trkpt>
      <trkpt lat="43.94686" lon="2.375">
        <ele>302</ele>
        <time>2021-04-18T13:04:30Z</time>
      </trkpt>
      <trkpt lat="43.94685" lon="2.37499">
        <ele>303</ele>
        <time>2021-04-18T13:04:31Z</time>
      </trkpt>
      <trkpt lat="43.94685" lon="2.37498">
        <ele>303</ele>
        <time>2021-04-18T13:04:32Z</time>
      </trkpt>
      <trkpt lat="43.94685" lon="2.37496">
        <ele>304</ele>
        <time>2021-04-18T13:04:33Z</time>
      </trkpt>
      <trkpt lat="43.94685" lon="2.37495">
        <ele>304</ele>
        <time>2021-04-18T13:04:34Z</time>
      </trkpt>
      <trkpt lat="43.94684" lon="2.37495">
        <ele>304</ele>
        <time>2021-04-18T13:04:35Z</time>
      </trkpt>
      <trkpt lat="43.94683" lon="2.37494">
        <ele>303</ele>
        <time>2021-04-18T13:04:36Z</time>
      </trkpt>
      <trkpt lat="43.94682" lon="2.37493">
        <ele>303</ele>
        <time>2021-04-18T13:04:37Z</time>
      </trkpt>
      <trkpt lat="43.94682" lon="2.37492">
        <ele>304</ele>
        <time>2021-04-18T13:04:38Z</time>
      </trkpt>
      <trkpt lat="43.94681" lon="2.37491">
        <ele>304</ele>
        <time>2021-04-18T13:04:39Z</time>
      </trkpt>
      <trkpt lat="43.9468" lon="2.37489">
        <ele>304</ele>
        <time>2021-04-18T13:04:40Z</time>
      </trkpt>
      <trkpt lat="43.9468" lon="2.37488">
        <ele>305</ele>
        <time>2021-04-18T13:04:41Z</time>
      </trkpt>
      <trkpt lat="43.94679" lon="2.37487">
        <ele>305</ele>
        <time>2021-04-18T13:04:42Z</time>
      </trkpt>
      <trkpt lat="43.94678" lon="2.37487">
        <ele>305</ele>
        <time>2021-04-18T13:04:43Z</time>
      </trkpt>
      <trkpt lat="43.94678" lon="2.37487">
        <ele>305</ele>
        <time>2021-04-18T13:04:44Z</time>
      </trkpt>
      <trkpt lat="43.94678" lon="2.37486">
        <ele>305</ele>
        <time>2021-04-18T13:04:45Z</time>
      </trkpt>
      <trkpt lat="43.94678" lon="2.37484">
        <ele>305</ele>
        <time>2021-04-18T13:04:46Z</time>
      </trkpt>
      <trkpt lat="43.94678" lon="2.37484">
        <ele>305</ele>
        <time>2021-04-18T13:04:47Z</time>
      </trkpt>
      <trkpt lat="43.94678" lon="2.37483">
        <ele>305</ele>
        <time>2021-04-18T13:04:48Z</time>
      </trkpt>
      <trkpt lat="43.94677" lon="2.37482">
        <ele>306</ele>
        <time>2021-04-18T13:04:49Z</time>
      </trkpt>
      <trkpt lat="43.94677" lon="2.37481">
        <ele>306</ele>
        <time>2021-04-18T13:04:50Z</time>
      </trkpt>
      <trkpt lat="43.94676" lon="2.37479">
        <ele>307</ele>
        <time>2021-04-18T13:04:51Z</time>
      </trkpt>
      <trkpt lat="43.94676" lon="2.37478">
        <ele>308</ele>
        <time>2021-04-18T13:04:52Z</time>
      </trkpt>
      <trkpt lat="43.94675" lon="2.37477">
        <ele>308</ele>
        <time>2021-04-18T13:04:53Z</time>
      </trkpt>
      <trkpt lat="43.94674" lon="2.37476">
        <ele>309</ele>
        <time>2021-04-18T13:04:54Z</time>
      </trkpt>
      <trkpt lat="43.94674" lon="2.37475">
        <ele>309</ele>
        <time>2021-04-18T13:04:55Z</time>
      </trkpt>
      <trkpt lat="43.94673" lon="2.37474">
        <ele>309</ele>
        <time>2021-04-18T13:04:56Z</time>
      </trkpt>
      <trkpt lat="43.94672" lon="2.37473">
        <ele>309</ele>
        <time>2021-04-18T13:04:57Z</time>
      </trkpt>
      <trkpt lat="43.94672" lon="2.37471">
        <ele>308</ele>
        <time>2021-04-18T13:04:58Z</time>
      </trkpt>
      <trkpt lat="43.94672" lon="2.37469">
        <ele>308</ele>
        <time>2021-04-18T13:04:59Z</time>
      </trkpt>
      <trkpt lat="43.94672" lon="2.37468">
        <ele>308</ele>
        <time>2021-04-18T13:05:00Z</time>
      </trkpt>
      <trkpt lat="43.94671" lon="2.37467">
        <ele>309</ele>
        <time>2021-04-18T13:05:01Z</time>
      </trkpt>
      <trkpt lat="43.94671" lon="2.37466">
        <ele>309</ele>
        <time>2021-04-18T13:05:02Z</time>
      </trkpt>
      <trkpt lat="43.9467" lon="2.37464">
        <ele>310</ele>
        <time>2021-04-18T13:05:03Z</time>
      </trkpt>
      <trkpt lat="43.9467" lon="2.37463">
        <ele>309</ele>
        <time>2021-04-18T13:05:04Z</time>
      </trkpt>
      <trkpt lat="43.94669" lon="2.37462">
        <ele>309</ele>
        <time>2021-04-18T13:05:05Z</time>
      </trkpt>
      <trkpt lat="43.9467" lon="2.3746">
        <ele>309</ele>
        <time>2021-04-18T13:05:06Z</time>
      </trkpt>
      <trkpt lat="43.9467" lon="2.37458">
        <ele>309</ele>
        <time>2021-04-18T13:05:07Z</time>
      </trkpt>
      <trkpt lat="43.9467" lon="2.37457">
        <ele>310</ele>
        <time>2021-04-18T13:05:08Z</time>
      </trkpt>
      <trkpt lat="43.9467" lon="2.37455">
        <ele>310</ele>
        <time>2021-04-18T13:05:09Z</time>
      </trkpt>
      <trkpt lat="43.9467" lon="2.37454">
        <ele>310</ele>
        <time>2021-04-18T13:05:10Z</time>
      </trkpt>
      <trkpt lat="43.94669" lon="2.37453">
        <ele>310</ele>
        <time>2021-04-18T13:05:11Z</time>
      </trkpt>
      <trkpt lat="43.94669" lon="2.37451">
        <ele>310</ele>
        <time>2021-04-18T13:05:12Z</time>
      </trkpt>
      <trkpt lat="43.94669" lon="2.3745">
        <ele>310</ele>
        <time>2021-04-18T13:05:13Z</time>
      </trkpt>
      <trkpt lat="43.94669" lon="2.37448">
        <ele>310</ele>
        <time>2021-04-18T13:05:14Z</time>
      </trkpt>
      <trkpt lat="43.94669" lon="2.37447">
        <ele>311</ele>
        <time>2021-04-18T13:05:15Z</time>
      </trkpt>
      <trkpt lat="43.94669" lon="2.37446">
        <ele>311</ele>
        <time>2021-04-18T13:05:16Z</time>
      </trkpt>
      <trkpt lat="43.94668" lon="2.37445">
        <ele>311</ele>
        <time>2021-04-18T13:05:17Z</time>
      </trkpt>
      <trkpt lat="43.94667" lon="2.37445">
        <ele>310</ele>
        <time>2021-04-18T13:05:18Z</time>
      </trkpt>
      <trkpt lat="43.94666" lon="2.37445">
        <ele>311</ele>
        <time>2021-04-18T13:05:19Z</time>
      </trkpt>
      <trkpt lat="43.94666" lon="2.37443">
        <ele>311</ele>
        <time>2021-04-18T13:05:20Z</time>
      </trkpt>
      <trkpt lat="43.94666" lon="2.37442">
        <ele>311</ele>
        <time>2021-04-18T13:05:21Z</time>
      </trkpt>
      <trkpt lat="43.94666" lon="2.3744">
        <ele>311</ele>
        <time>2021-04-18T13:05:22Z</time>
      </trkpt>
      <trkpt lat="43.94666" lon="2.37439">
        <ele>312</ele>
        <time>2021-04-18T13:05:23Z</time>
      </trkpt>
      <trkpt lat="43.94666" lon="2.37438">
        <ele>313</ele>
        <time>2021-04-18T13:05:24Z</time>
      </trkpt>
      <trkpt lat="43.94666" lon="2.37438">
        <ele>313</ele>
        <time>2021-04-18T13:05:25Z</time>
      </trkpt>
      <trkpt lat="43.94666" lon="2.37438">
        <ele>313</ele>
        <time>2021-04-18T13:05:26Z</time>
      </trkpt>
      <trkpt lat="43.94665" lon="2.37434">
        <ele>314</ele>
        <time>2021-04-18T13:05:27Z</time>
      </trkpt>
      <trkpt lat="43.94665" lon="2.37434">
        <ele>314</ele>
        <time>2021-04-18T13:05:28Z</time>
      </trkpt>
      <trkpt lat="43.94664" lon="2.37432">
        <ele>314</ele>
        <time>2021-04-18T13:05:29Z</time>
      </trkpt>
      <trkpt lat="43.94664" lon="2.37431">
        <ele>314</ele>
        <time>2021-04-18T13:05:30Z</time>
      </trkpt>
      <trkpt lat="43.94664" lon="2.37429">
        <ele>315</ele>
        <time>2021-04-18T13:05:31Z</time>
      </trkpt>
      <trkpt lat="43.94663" lon="2.37428">
        <ele>315</ele>
        <time>2021-04-18T13:05:32Z</time>
      </trkpt>
      <trkpt lat="43.94663" lon="2.37427">
        <ele>315</ele>
        <time>2021-04-18T13:05:33Z</time>
      </trkpt>
      <trkpt lat="43.94663" lon="2.37425">
        <ele>315</ele>
        <time>2021-04-18T13:05:34Z</time>
      </trkpt>
      <trkpt lat="43.94663" lon="2.37424">
        <ele>316</ele>
        <time>2021-04-18T13:05:35Z</time>
      </trkpt>
      <trkpt lat="43.94664" lon="2.37423">
        <ele>317</ele>
        <time>2021-04-18T13:05:36Z</time>
      </trkpt>
      <trkpt lat="43.94664" lon="2.37422">
        <ele>317</ele>
        <time>2021-04-18T13:05:37Z</time>
      </trkpt>
      <trkpt lat="43.94663" lon="2.3742">
        <ele>317</ele>
        <time>2021-04-18T13:05:38Z</time>
      </trkpt>
      <trkpt lat="43.94663" lon="2.37418">
        <ele>317</ele>
        <time>2021-04-18T13:05:39Z</time>
      </trkpt>
      <trkpt lat="43.94663" lon="2.37417">
        <ele>317</ele>
        <time>2021-04-18T13:05:40Z</time>
      </trkpt>
      <trkpt lat="43.94663" lon="2.37415">
        <ele>316</ele>
        <time>2021-04-18T13:05:41Z</time>
      </trkpt>
      <trkpt lat="43.94663" lon="2.37413">
        <ele>316</ele>
        <time>2021-04-18T13:05:42Z</time>
      </trkpt>
      <trkpt lat="43.94663" lon="2.37411">
        <ele>317</ele>
        <time>2021-04-18T13:05:43Z</time>
      </trkpt>
      <trkpt lat="43.94663" lon="2.37409">
        <ele>317</ele>
        <time>2021-04-18T13:05:45Z</time>
      </trkpt>
      <trkpt lat="43.94661" lon="2.37409">
        <ele>316</ele>
        <time>2021-04-18T13:05:46Z</time>
      </trkpt>
      <trkpt lat="43.94661" lon="2.37408">
        <ele>315</ele>
        <time>2021-04-18T13:05:47Z</time>
      </trkpt>
      <trkpt lat="43.94661" lon="2.37407">
        <ele>316</ele>
        <time>2021-04-18T13:05:48Z</time>
      </trkpt>
      <trkpt lat="43.94661" lon="2.37406">
        <ele>316</ele>
        <time>2021-04-18T13:05:49Z</time>
      </trkpt>
      <trkpt lat="43.94661" lon="2.37406">
        <ele>317</ele>
        <time>2021-04-18T13:05:50Z</time>
      </trkpt>
      <trkpt lat="43.94662" lon="2.37405">
        <ele>318</ele>
        <time>2021-04-18T13:05:51Z</time>
      </trkpt>
      <trkpt lat="43.94662" lon="2.37403">
        <ele>318</ele>
        <time>2021-04-18T13:05:52Z</time>
      </trkpt>
      <trkpt lat="43.94662" lon="2.37401">
        <ele>319</ele>
        <time>2021-04-18T13:05:53Z</time>
      </trkpt>
      <trkpt lat="43.94662" lon="2.37399">
        <ele>319</ele>
        <time>2021-04-18T13:05:54Z</time>
      </trkpt>
      <trkpt lat="43.94662" lon="2.37398">
        <ele>319</ele>
        <time>2021-04-18T13:05:55Z</time>
      </trkpt>
      <trkpt lat="43.94662" lon="2.37396">
        <ele>319</ele>
        <time>2021-04-18T13:05:56Z</time>
      </trkpt>
      <trkpt lat="43.94662" lon="2.37394">
        <ele>319</ele>
        <time>2021-04-18T13:05:57Z</time>
      </trkpt>
      <trkpt lat="43.94661" lon="2.37392">
        <ele>320</ele>
        <time>2021-04-18T13:05:58Z</time>
      </trkpt>
      <trkpt lat="43.94661" lon="2.37391">
        <ele>320</ele>
        <time>2021-04-18T13:05:59Z</time>
      </trkpt>
      <trkpt lat="43.94661" lon="2.37389">
        <ele>320</ele>
        <time>2021-04-18T13:06:00Z</time>
      </trkpt>
      <trkpt lat="43.94662" lon="2.37387">
        <ele>320</ele>
        <time>2021-04-18T13:06:01Z</time>
      </trkpt>
      <trkpt lat="43.94662" lon="2.37385">
        <ele>320</ele>
        <time>2021-04-18T13:06:02Z</time>
      </trkpt>
      <trkpt lat="43.94662" lon="2.37384">
        <ele>320</ele>
        <time>2021-04-18T13:06:03Z</time>
      </trkpt>
      <trkpt lat="43.94662" lon="2.37382">
        <ele>320</ele>
        <time>2021-04-18T13:06:04Z</time>
      </trkpt>
      <trkpt lat="43.94662" lon="2.3738">
        <ele>321</ele>
        <time>2021-04-18T13:06:05Z</time>
      </trkpt>
      <trkpt lat="43.94662" lon="2.37379">
        <ele>321</ele>
        <time>2021-04-18T13:06:06Z</time>
      </trkpt>
      <trkpt lat="43.94661" lon="2.37378">
        <ele>321</ele>
        <time>2021-04-18T13:06:07Z</time>
      </trkpt>
      <trkpt lat="43.9466" lon="2.37378">
        <ele>320</ele>
        <time>2021-04-18T13:06:08Z</time>
      </trkpt>
      <trkpt lat="43.9466" lon="2.37378">
        <ele>319</ele>
        <time>2021-04-18T13:06:09Z</time>
      </trkpt>
      <trkpt lat="43.9466" lon="2.37378">
        <ele>319</ele>
        <time>2021-04-18T13:06:10Z</time>
      </trkpt>
      <trkpt lat="43.94659" lon="2.37376">
        <ele>320</ele>
        <time>2021-04-18T13:06:11Z</time>
      </trkpt>
      <trkpt lat="43.94659" lon="2.37374">
        <ele>319</ele>
        <time>2021-04-18T13:06:12Z</time>
      </trkpt>
      <trkpt lat="43.94659" lon="2.37373">
        <ele>319</ele>
        <time>2021-04-18T13:06:13Z</time>
      </trkpt>
      <trkpt lat="43.94658" lon="2.37371">
        <ele>319</ele>
        <time>2021-04-18T13:06:14Z</time>
      </trkpt>
      <trkpt lat="43.94658" lon="2.37369">
        <ele>320</ele>
        <time>2021-04-18T13:06:15Z</time>
      </trkpt>
      <trkpt lat="43.94658" lon="2.37368">
        <ele>320</ele>
        <time>2021-04-18T13:06:16Z</time>
      </trkpt>
      <trkpt lat="43.94658" lon="2.37366">
        <ele>320</ele>
        <time>2021-04-18T13:06:17Z</time>
      </trkpt>
      <trkpt lat="43.94658" lon="2.37364">
        <ele>320</ele>
        <time>2021-04-18T13:06:18Z</time>
      </trkpt>
      <trkpt lat="43.94658" lon="2.37362">
        <ele>320</ele>
        <time>2021-04-18T13:06:19Z</time>
      </trkpt>
      <trkpt lat="43.94659" lon="2.3736">
        <ele>320</ele>
        <time>2021-04-18T13:06:20Z</time>
      </trkpt>
      <trkpt lat="43.94659" lon="2.37359">
        <ele>320</ele>
        <time>2021-04-18T13:06:21Z</time>
      </trkpt>
      <trkpt lat="43.94659" lon="2.37357">
        <ele>321</ele>
        <time>2021-04-18T13:06:22Z</time>
      </trkpt>
      <trkpt lat="43.94659" lon="2.37356">
        <ele>321</ele>
        <time>2021-04-18T13:06:23Z</time>
      </trkpt>
      <trkpt lat="43.94659" lon="2.37354">
        <ele>321</ele>
        <time>2021-04-18T13:06:24Z</time>
      </trkpt>
      <trkpt lat="43.94658" lon="2.37353">
        <ele>320</ele>
        <time>2021-04-18T13:06:25Z</time>
      </trkpt>
      <trkpt lat="43.94658" lon="2.37351">
        <ele>320</ele>
        <time>2021-04-18T13:06:26Z</time>
      </trkpt>
      <trkpt lat="43.94658" lon="2.37349">
        <ele>320</ele>
        <time>2021-04-18T13:06:27Z</time>
      </trkpt>
      <trkpt lat="43.94659" lon="2.37347">
        <ele>319</ele>
        <time>2021-04-18T13:06:28Z</time>
      </trkpt>
      <trkpt lat="43.94659" lon="2.37345">
        <ele>320</ele>
        <time>2021-04-18T13:06:29Z</time>
      </trkpt>
      <trkpt lat="43.94659" lon="2.37344">
        <ele>320</ele>
        <time>2021-04-18T13:06:30Z</time>
      </trkpt>
      <trkpt lat="43.94659" lon="2.37342">
        <ele>321</ele>
        <time>2021-04-18T13:06:31Z</time>
      </trkpt>
      <trkpt lat="43.94659" lon="2.3734">
        <ele>322</ele>
        <time>2021-04-18T13:06:32Z</time>
      </trkpt>
      <trkpt lat="43.94659" lon="2.37338">
        <ele>323</ele>
        <time>2021-04-18T13:06:33Z</time>
      </trkpt>
      <trkpt lat="43.94658" lon="2.37336">
        <ele>323</ele>
        <time>2021-04-18T13:06:34Z</time>
      </trkpt>
      <trkpt lat="43.94658" lon="2.37336">
        <ele>323</ele>
        <time>2021-04-18T13:06:35Z</time>
      </trkpt>
      <trkpt lat="43.94657" lon="2.37336">
        <ele>323</ele>
        <time>2021-04-18T13:06:36Z</time>
      </trkpt>
      <trkpt lat="43.94657" lon="2.37335">
        <ele>324</ele>
        <time>2021-04-18T13:06:37Z</time>
      </trkpt>
      <trkpt lat="43.94656" lon="2.37334">
        <ele>324</ele>
        <time>2021-04-18T13:06:38Z</time>
      </trkpt>
      <trkpt lat="43.94656" lon="2.37332">
        <ele>324</ele>
        <time>2021-04-18T13:06:39Z</time>
      </trkpt>
      <trkpt lat="43.94656" lon="2.3733">
        <ele>325</ele>
        <time>2021-04-18T13:06:40Z</time>
      </trkpt>
      <trkpt lat="43.94655" lon="2.37328">
        <ele>325</ele>
        <time>2021-04-18T13:06:41Z</time>
      </trkpt>
      <trkpt lat="43.94655" lon="2.37327">
        <ele>325</ele>
        <time>2021-04-18T13:06:42Z</time>
      </trkpt>
      <trkpt lat="43.94655" lon="2.37325">
        <ele>326</ele>
        <time>2021-04-18T13:06:43Z</time>
      </trkpt>
      <trkpt lat="43.94655" lon="2.37324">
        <ele>326</ele>
        <time>2021-04-18T13:06:44Z</time>
      </trkpt>
      <trkpt lat="43.94655" lon="2.37324">
        <ele>326</ele>
        <time>2021-04-18T13:06:45Z</time>
      </trkpt>
      <trkpt lat="43.94655" lon="2.37322">
        <ele>326</ele>
        <time>2021-04-18T13:06:46Z</time>
      </trkpt>
      <trkpt lat="43.94655" lon="2.3732">
        <ele>327</ele>
        <time>2021-04-18T13:06:47Z</time>
      </trkpt>
      <trkpt lat="43.94655" lon="2.37319">
        <ele>327</ele>
        <time>2021-04-18T13:06:48Z</time>
      </trkpt>
      <trkpt lat="43.94655" lon="2.37318">
        <ele>327</ele>
        <time>2021-04-18T13:06:49Z</time>
      </trkpt>
      <trkpt lat="43.94656" lon="2.37316">
        <ele>326</ele>
        <time>2021-04-18T13:06:50Z</time>
      </trkpt>
      <trkpt lat="43.94656" lon="2.37316">
        <ele>326</ele>
        <time>2021-04-18T13:06:51Z</time>
      </trkpt>
      <trkpt lat="43.94656" lon="2.37314">
        <ele>326</ele>
        <time>2021-04-18T13:06:52Z</time>
      </trkpt>
      <trkpt lat="43.94656" lon="2.37312">
        <ele>327</ele>
        <time>2021-04-18T13:06:53Z</time>
      </trkpt>
      <trkpt lat="43.94656" lon="2.37311">
        <ele>327</ele>
        <time>2021-04-18T13:06:54Z</time>
      </trkpt>
      <trkpt lat="43.94657" lon="2.37309">
        <ele>327</ele>
        <time>2021-04-18T13:06:55Z</time>
      </trkpt>
      <trkpt lat="43.94656" lon="2.37308">
        <ele>328</ele>
        <time>2021-04-18T13:06:56Z</time>
      </trkpt>
      <trkpt lat="43.94656" lon="2.37307">
        <ele>328</ele>
        <time>2021-04-18T13:06:57Z</time>
      </trkpt>
      <trkpt lat="43.94656" lon="2.37306">
        <ele>328</ele>
        <time>2021-04-18T13:06:58Z</time>
      </trkpt>
      <trkpt lat="43.94656" lon="2.37305">
        <ele>329</ele>
        <time>2021-04-18T13:06:59Z</time>
      </trkpt>
      <trkpt lat="43.94656" lon="2.37304">
        <ele>329</ele>
        <time>2021-04-18T13:07:00Z</time>
      </trkpt>
      <trkpt lat="43.94656" lon="2.37303">
        <ele>330</ele>
        <time>2021-04-18T13:07:01Z</time>
      </trkpt>
      <trkpt lat="43.94657" lon="2.37301">
        <ele>330</ele>
        <time>2021-04-18T13:07:02Z</time>
      </trkpt>
      <trkpt lat="43.94656" lon="2.37299">
        <ele>330</ele>
        <time>2021-04-18T13:07:03Z</time>
      </trkpt>
      <trkpt lat="43.94656" lon="2.37298">
        <ele>330</ele>
        <time>2021-04-18T13:07:04Z</time>
      </trkpt>
      <trkpt lat="43.94656" lon="2.37296">
        <ele>329</ele>
        <time>2021-04-18T13:07:05Z</time>
      </trkpt>
      <trkpt lat="43.94656" lon="2.37295">
        <ele>329</ele>
        <time>2021-04-18T13:07:06Z</time>
      </trkpt>
      <trkpt lat="43.94656" lon="2.37293">
        <ele>329</ele>
        <time>2021-04-18T13:07:07Z</time>
      </trkpt>
      <trkpt lat="43.94656" lon="2.37292">
        <ele>330</ele>
        <time>2021-04-18T13:07:08Z</time>
      </trkpt>
      <trkpt lat="43.94656" lon="2.37292">
        <ele>331</ele>
        <time>2021-04-18T13:07:09Z</time>
      </trkpt>
      <trkpt lat="43.94655" lon="2.37292">
        <ele>331</ele>
        <time>2021-04-18T13:07:10Z</time>
      </trkpt>
      <trkpt lat="43.94655" lon="2.37292">
        <ele>331</ele>
        <time>2021-04-18T13:07:11Z</time>
      </trkpt>
      <trkpt lat="43.94655" lon="2.37292">
        <ele>331</ele>
        <time>2021-04-18T13:07:12Z</time>
      </trkpt>
      <trkpt lat="43.94656" lon="2.3729">
        <ele>331</ele>
        <time>2021-04-18T13:07:13Z</time>
      </trkpt>
      <trkpt lat="43.94656" lon="2.37289">
        <ele>331</ele>
        <time>2021-04-18T13:07:14Z</time>
      </trkpt>
      <trkpt lat="43.94656" lon="2.37288">
        <ele>331</ele>
        <time>2021-04-18T13:07:15Z</time>
      </trkpt>
      <trkpt lat="43.94656" lon="2.37287">
        <ele>331</ele>
        <time>2021-04-18T13:07:16Z</time>
      </trkpt>
      <trkpt lat="43.94656" lon="2.37285">
        <ele>332</ele>
        <time>2021-04-18T13:07:17Z</time>
      </trkpt>
      <trkpt lat="43.94656" lon="2.37284">
        <ele>333</ele>
        <time>2021-04-18T13:07:18Z</time>
      </trkpt>
      <trkpt lat="43.94655" lon="2.37282">
        <ele>333</ele>
        <time>2021-04-18T13:07:19Z</time>
      </trkpt>
      <trkpt lat="43.94656" lon="2.3728">
        <ele>334</ele>
        <time>2021-04-18T13:07:20Z</time>
      </trkpt>
      <trkpt lat="43.94655" lon="2.37279">
        <ele>334</ele>
        <time>2021-04-18T13:07:21Z</time>
      </trkpt>
      <trkpt lat="43.94655" lon="2.37279">
        <ele>334</ele>
        <time>2021-04-18T13:07:22Z</time>
      </trkpt>
      <trkpt lat="43.94655" lon="2.37278">
        <ele>335</ele>
        <time>2021-04-18T13:07:23Z</time>
      </trkpt>
      <trkpt lat="43.94656" lon="2.37277">
        <ele>335</ele>
        <time>2021-04-18T13:07:24Z</time>
      </trkpt>
      <trkpt lat="43.94656" lon="2.37275">
        <ele>335</ele>
        <time>2021-04-18T13:07:25Z</time>
      </trkpt>
      <trkpt lat="43.94656" lon="2.37275">
        <ele>335</ele>
        <time>2021-04-18T13:07:26Z</time>
      </trkpt>
      <trkpt lat="43.94656" lon="2.37275">
        <ele>335</ele>
        <time>2021-04-18T13:07:27Z</time>
      </trkpt>
      <trkpt lat="43.94656" lon="2.37272">
        <ele>335</ele>
        <time>2021-04-18T13:07:28Z</time>
      </trkpt>
      <trkpt lat="43.94657" lon="2.37271">
        <ele>335</ele>
        <time>2021-04-18T13:07:29Z</time>
      </trkpt>
      <trkpt lat="43.94657" lon="2.37269">
        <ele>336</ele>
        <time>2021-04-18T13:07:30Z</time>
      </trkpt>
      <trkpt lat="43.94656" lon="2.37268">
        <ele>336</ele>
        <time>2021-04-18T13:07:31Z</time>
      </trkpt>
      <trkpt lat="43.94656" lon="2.37266">
        <ele>336</ele>
        <time>2021-04-18T13:07:32Z</time>
      </trkpt>
      <trkpt lat="43.94657" lon="2.37265">
        <ele>337</ele>
        <time>2021-04-18T13:07:33Z</time>
      </trkpt>
      <trkpt lat="43.94657" lon="2.37264">
        <ele>338</ele>
        <time>2021-04-18T13:07:34Z</time>
      </trkpt>
      <trkpt lat="43.94657" lon="2.37262">
        <ele>338</ele>
        <time>2021-04-18T13:07:35Z</time>
      </trkpt>
      <trkpt lat="43.94658" lon="2.37261">
        <ele>338</ele>
        <time>2021-04-18T13:07:36Z</time>
      </trkpt>
      <trkpt lat="43.94658" lon="2.3726">
        <ele>338</ele>
        <time>2021-04-18T13:07:37Z</time>
      </trkpt>
      <trkpt lat="43.94658" lon="2.3726">
        <ele>338</ele>
        <time>2021-04-18T13:07:38Z</time>
      </trkpt>
      <trkpt lat="43.94658" lon="2.3726">
        <ele>338</ele>
        <time>2021-04-18T13:07:39Z</time>
      </trkpt>
      <trkpt lat="43.94657" lon="2.37257">
        <ele>338</ele>
        <time>2021-04-18T13:07:40Z</time>
      </trkpt>
      <trkpt lat="43.94658" lon="2.37255">
        <ele>339</ele>
        <time>2021-04-18T13:07:41Z</time>
      </trkpt>
      <trkpt lat="43.94658" lon="2.37253">
        <ele>339</ele>
        <time>2021-04-18T13:07:42Z</time>
      </trkpt>
      <trkpt lat="43.94658" lon="2.37251">
        <ele>339</ele>
        <time>2021-04-18T13:07:43Z</time>
      </trkpt>
      <trkpt lat="43.94658" lon="2.37249">
        <ele>339</ele>
        <time>2021-04-18T13:07:44Z</time>
      </trkpt>
      <trkpt lat="43.94659" lon="2.37249">
        <ele>339</ele>
        <time>2021-04-18T13:07:45Z</time>
      </trkpt>
      <trkpt lat="43.94659" lon="2.37247">
        <ele>340</ele>
        <time>2021-04-18T13:07:46Z</time>
      </trkpt>
      <trkpt lat="43.94659" lon="2.37247">
        <ele>340</ele>
        <time>2021-04-18T13:07:47Z</time>
      </trkpt>
      <trkpt lat="43.94659" lon="2.37247">
        <ele>340</ele>
        <time>2021-04-18T13:07:48Z</time>
      </trkpt>
      <trkpt lat="43.94659" lon="2.37244">
        <ele>340</ele>
        <time>2021-04-18T13:07:49Z</time>
      </trkpt>
      <trkpt lat="43.94659" lon="2.37242">
        <ele>340</ele>
        <time>2021-04-18T13:07:50Z</time>
      </trkpt>
      <trkpt lat="43.94659" lon="2.3724">
        <ele>341</ele>
        <time>2021-04-18T13:07:51Z</time>
      </trkpt>
      <trkpt lat="43.94658" lon="2.37238">
        <ele>341</ele>
        <time>2021-04-18T13:07:52Z</time>
      </trkpt>
      <trkpt lat="43.94658" lon="2.37236">
        <ele>340</ele>
        <time>2021-04-18T13:07:53Z</time>
      </trkpt>
      <trkpt lat="43.94658" lon="2.37234">
        <ele>339</ele>
        <time>2021-04-18T13:07:54Z</time>
      </trkpt>
      <trkpt lat="43.94658" lon="2.37232">
        <ele>339</ele>
        <time>2021-04-18T13:07:55Z</time>
      </trkpt>
      <trkpt lat="43.94658" lon="2.3723">
        <ele>340</ele>
        <time>2021-04-18T13:07:56Z</time>
      </trkpt>
      <trkpt lat="43.94658" lon="2.37228">
        <ele>340</ele>
        <time>2021-04-18T13:07:57Z</time>
      </trkpt>
      <trkpt lat="43.94659" lon="2.37226">
        <ele>340</ele>
        <time>2021-04-18T13:07:58Z</time>
      </trkpt>
      <trkpt lat="43.94659" lon="2.37225">
        <ele>340</ele>
        <time>2021-04-18T13:07:59Z</time>
      </trkpt>
      <trkpt lat="43.94659" lon="2.37223">
        <ele>340</ele>
        <time>2021-04-18T13:08:00Z</time>
      </trkpt>
      <trkpt lat="43.94659" lon="2.37221">
        <ele>340</ele>
        <time>2021-04-18T13:08:01Z</time>
      </trkpt>
      <trkpt lat="43.94658" lon="2.37218">
        <ele>340</ele>
        <time>2021-04-18T13:08:02Z</time>
      </trkpt>
      <trkpt lat="43.94658" lon="2.37216">
        <ele>341</ele>
        <time>2021-04-18T13:08:03Z</time>
      </trkpt>
      <trkpt lat="43.94657" lon="2.37213">
        <ele>341</ele>
        <time>2021-04-18T13:08:04Z</time>
      </trkpt>
      <trkpt lat="43.94656" lon="2.37211">
        <ele>341</ele>
        <time>2021-04-18T13:08:05Z</time>
      </trkpt>
      <trkpt lat="43.94656" lon="2.37209">
        <ele>342</ele>
        <time>2021-04-18T13:08:06Z</time>
      </trkpt>
      <trkpt lat="43.94656" lon="2.37207">
        <ele>343</ele>
        <time>2021-04-18T13:08:07Z</time>
      </trkpt>
      <trkpt lat="43.94655" lon="2.37205">
        <ele>343</ele>
        <time>2021-04-18T13:08:08Z</time>
      </trkpt>
      <trkpt lat="43.94655" lon="2.37203">
        <ele>343</ele>
        <time>2021-04-18T13:08:09Z</time>
      </trkpt>
      <trkpt lat="43.94656" lon="2.37201">
        <ele>343</ele>
        <time>2021-04-18T13:08:10Z</time>
      </trkpt>
      <trkpt lat="43.94656" lon="2.37198">
        <ele>343</ele>
        <time>2021-04-18T13:08:11Z</time>
      </trkpt>
      <trkpt lat="43.94655" lon="2.37196">
        <ele>343</ele>
        <time>2021-04-18T13:08:12Z</time>
      </trkpt>
      <trkpt lat="43.94655" lon="2.37194">
        <ele>343</ele>
        <time>2021-04-18T13:08:13Z</time>
      </trkpt>
      <trkpt lat="43.94655" lon="2.37192">
        <ele>343</ele>
        <time>2021-04-18T13:08:14Z</time>
      </trkpt>
      <trkpt lat="43.94655" lon="2.37192">
        <ele>343</ele>
        <time>2021-04-18T13:08:15Z</time>
      </trkpt>
      <trkpt lat="43.94655" lon="2.37191">
        <ele>343</ele>
        <time>2021-04-18T13:08:16Z</time>
      </trkpt>
      <trkpt lat="43.94655" lon="2.3719">
        <ele>342</ele>
        <time>2021-04-18T13:08:17Z</time>
      </trkpt>
      <trkpt lat="43.94655" lon="2.37189">
        <ele>342</ele>
        <time>2021-04-18T13:08:18Z</time>
      </trkpt>
      <trkpt lat="43.94655" lon="2.37188">
        <ele>342</ele>
        <time>2021-04-18T13:08:19Z</time>
      </trkpt>
      <trkpt lat="43.94655" lon="2.37186">
        <ele>342</ele>
        <time>2021-04-18T13:08:20Z</time>
      </trkpt>
      <trkpt lat="43.94655" lon="2.37184">
        <ele>342</ele>
        <time>2021-04-18T13:08:21Z</time>
      </trkpt>
      <trkpt lat="43.94655" lon="2.37183">
        <ele>342</ele>
        <time>2021-04-18T13:08:22Z</time>
      </trkpt>
      <trkpt lat="43.94655" lon="2.37181">
        <ele>342</ele>
        <time>2021-04-18T13:08:23Z</time>
      </trkpt>
      <trkpt lat="43.94655" lon="2.3718">
        <ele>342</ele>
        <time>2021-04-18T13:08:24Z</time>
      </trkpt>
      <trkpt lat="43.94655" lon="2.37179">
        <ele>342</ele>
        <time>2021-04-18T13:08:25Z</time>
      </trkpt>
      <trkpt lat="43.94655" lon="2.37177">
        <ele>341</ele>
        <time>2021-04-18T13:08:26Z</time>
      </trkpt>
      <trkpt lat="43.94656" lon="2.37176">
        <ele>341</ele>
        <time>2021-04-18T13:08:27Z</time>
      </trkpt>
      <trkpt lat="43.94656" lon="2.37174">
        <ele>341</ele>
        <time>2021-04-18T13:08:28Z</time>
      </trkpt>
      <trkpt lat="43.94657" lon="2.37172">
        <ele>340</ele>
        <time>2021-04-18T13:08:29Z</time>
      </trkpt>
      <trkpt lat="43.94657" lon="2.37171">
        <ele>340</ele>
        <time>2021-04-18T13:08:30Z</time>
      </trkpt>
      <trkpt lat="43.94658" lon="2.37169">
        <ele>340</ele>
        <time>2021-04-18T13:08:31Z</time>
      </trkpt>
      <trkpt lat="43.94658" lon="2.37167">
        <ele>340</ele>
        <time>2021-04-18T13:08:32Z</time>
      </trkpt>
      <trkpt lat="43.94658" lon="2.37165">
        <ele>339</ele>
        <time>2021-04-18T13:08:33Z</time>
      </trkpt>
      <trkpt lat="43.94658" lon="2.37163">
        <ele>340</ele>
        <time>2021-04-18T13:08:34Z</time>
      </trkpt>
      <trkpt lat="43.94657" lon="2.37163">
        <ele>339</ele>
        <time>2021-04-18T13:08:35Z</time>
      </trkpt>
      <trkpt lat="43.94657" lon="2.37162">
        <ele>339</ele>
        <time>2021-04-18T13:08:36Z</time>
      </trkpt>
      <trkpt lat="43.94658" lon="2.37161">
        <ele>340</ele>
        <time>2021-04-18T13:08:37Z</time>
      </trkpt>
      <trkpt lat="43.94658" lon="2.37161">
        <ele>340</ele>
        <time>2021-04-18T13:08:38Z</time>
      </trkpt>
      <trkpt lat="43.94658" lon="2.37159">
        <ele>339</ele>
        <time>2021-04-18T13:08:39Z</time>
      </trkpt>
      <trkpt lat="43.94658" lon="2.37157">
        <ele>340</ele>
        <time>2021-04-18T13:08:40Z</time>
      </trkpt>
      <trkpt lat="43.94658" lon="2.37156">
        <ele>339</ele>
        <time>2021-04-18T13:08:41Z</time>
      </trkpt>
      <trkpt lat="43.94658" lon="2.37154">
        <ele>338</ele>
        <time>2021-04-18T13:08:42Z</time>
      </trkpt>
      <trkpt lat="43.94658" lon="2.37154">
        <ele>338</ele>
        <time>2021-04-18T13:08:43Z</time>
      </trkpt>
      <trkpt lat="43.94658" lon="2.37154">
        <ele>338</ele>
        <time>2021-04-18T13:08:44Z</time>
      </trkpt>
      <trkpt lat="43.94659" lon="2.37153">
        <ele>339</ele>
        <time>2021-04-18T13:08:45Z</time>
      </trkpt>
      <trkpt lat="43.94659" lon="2.37152">
        <ele>339</ele>
        <time>2021-04-18T13:08:46Z</time>
      </trkpt>
      <trkpt lat="43.9466" lon="2.37152">
        <ele>339</ele>
        <time>2021-04-18T13:08:47Z</time>
      </trkpt>
      <trkpt lat="43.94661" lon="2.3715">
        <ele>339</ele>
        <time>2021-04-18T13:08:48Z</time>
      </trkpt>
      <trkpt lat="43.94662" lon="2.37149">
        <ele>339</ele>
        <time>2021-04-18T13:08:49Z</time>
      </trkpt>
      <trkpt lat="43.94663" lon="2.37148">
        <ele>339</ele>
        <time>2021-04-18T13:08:50Z</time>
      </trkpt>
      <trkpt lat="43.94663" lon="2.37147">
        <ele>339</ele>
        <time>2021-04-18T13:08:51Z</time>
      </trkpt>
      <trkpt lat="43.94664" lon="2.37145">
        <ele>339</ele>
        <time>2021-04-18T13:08:52Z</time>
      </trkpt>
      <trkpt lat="43.94664" lon="2.37144">
        <ele>339</ele>
        <time>2021-04-18T13:08:53Z</time>
      </trkpt>
      <trkpt lat="43.94664" lon="2.37143">
        <ele>339</ele>
        <time>2021-04-18T13:08:54Z</time>
      </trkpt>
      <trkpt lat="43.94665" lon="2.37142">
        <ele>339</ele>
        <time>2021-04-18T13:08:55Z</time>
      </trkpt>
      <trkpt lat="43.94666" lon="2.37141">
        <ele>339</ele>
        <time>2021-04-18T13:08:56Z</time>
      </trkpt>
      <trkpt lat="43.94667" lon="2.3714">
        <ele>339</ele>
        <time>2021-04-18T13:08:57Z</time>
      </trkpt>
      <trkpt lat="43.94668" lon="2.37139">
        <ele>339</ele>
        <time>2021-04-18T13:08:58Z</time>
      </trkpt>
      <trkpt lat="43.94669" lon="2.37139">
        <ele>339</ele>
        <time>2021-04-18T13:08:59Z</time>
      </trkpt>
      <trkpt lat="43.94669" lon="2.37138">
        <ele>338</ele>
        <time>2021-04-18T13:09:00Z</time>
      </trkpt>
      <trkpt lat="43.94671" lon="2.37138">
        <ele>338</ele>
        <time>2021-04-18T13:09:01Z</time>
      </trkpt>
      <trkpt lat="43.94672" lon="2.37137">
        <ele>338</ele>
        <time>2021-04-18T13:09:02Z</time>
      </trkpt>
      <trkpt lat="43.94673" lon="2.37137">
        <ele>339</ele>
        <time>2021-04-18T13:09:03Z</time>
      </trkpt>
      <trkpt lat="43.94674" lon="2.37136">
        <ele>338</ele>
        <time>2021-04-18T13:09:04Z</time>
      </trkpt>
      <trkpt lat="43.94675" lon="2.37135">
        <ele>338</ele>
        <time>2021-04-18T13:09:05Z</time>
      </trkpt>
      <trkpt lat="43.94676" lon="2.37134">
        <ele>339</ele>
        <time>2021-04-18T13:09:06Z</time>
      </trkpt>
      <trkpt lat="43.94677" lon="2.37134">
        <ele>338</ele>
        <time>2021-04-18T13:09:07Z</time>
      </trkpt>
      <trkpt lat="43.94678" lon="2.37133">
        <ele>338</ele>
        <time>2021-04-18T13:09:08Z</time>
      </trkpt>
      <trkpt lat="43.94679" lon="2.37132">
        <ele>338</ele>
        <time>2021-04-18T13:09:09Z</time>
      </trkpt>
      <trkpt lat="43.9468" lon="2.37132">
        <ele>338</ele>
        <time>2021-04-18T13:09:10Z</time>
      </trkpt>
      <trkpt lat="43.94681" lon="2.37131">
        <ele>338</ele>
        <time>2021-04-18T13:09:11Z</time>
      </trkpt>
      <trkpt lat="43.94682" lon="2.3713">
        <ele>338</ele>
        <time>2021-04-18T13:09:12Z</time>
      </trkpt>
      <trkpt lat="43.94684" lon="2.37129">
        <ele>338</ele>
        <time>2021-04-18T13:09:13Z</time>
      </trkpt>
      <trkpt lat="43.94685" lon="2.37129">
        <ele>338</ele>
        <time>2021-04-18T13:09:14Z</time>
      </trkpt>
      <trkpt lat="43.94685" lon="2.37129">
        <ele>338</ele>
        <time>2021-04-18T13:09:15Z</time>
      </trkpt>
      <trkpt lat="43.94686" lon="2.37128">
        <ele>338</ele>
        <time>2021-04-18T13:09:16Z</time>
      </trkpt>
      <trkpt lat="43.94687" lon="2.37128">
        <ele>338</ele>
        <time>2021-04-18T13:09:17Z</time>
      </trkpt>
      <trkpt lat="43.94688" lon="2.37127">
        <ele>338</ele>
        <time>2021-04-18T13:09:18Z</time>
      </trkpt>
      <trkpt lat="43.94688" lon="2.37126">
        <ele>337</ele>
        <time>2021-04-18T13:09:19Z</time>
      </trkpt>
      <trkpt lat="43.9469" lon="2.37125">
        <ele>337</ele>
        <time>2021-04-18T13:09:20Z</time>
      </trkpt>
      <trkpt lat="43.94691" lon="2.37124">
        <ele>337</ele>
        <time>2021-04-18T13:09:21Z</time>
      </trkpt>
      <trkpt lat="43.94692" lon="2.37123">
        <ele>337</ele>
        <time>2021-04-18T13:09:22Z</time>
      </trkpt>
      <trkpt lat="43.94693" lon="2.37123">
        <ele>336</ele>
        <time>2021-04-18T13:09:23Z</time>
      </trkpt>
      <trkpt lat="43.94693" lon="2.37122">
        <ele>336</ele>
        <time>2021-04-18T13:09:24Z</time>
      </trkpt>
      <trkpt lat="43.94694" lon="2.37121">
        <ele>336</ele>
        <time>2021-04-18T13:09:25Z</time>
      </trkpt>
      <trkpt lat="43.94695" lon="2.3712">
        <ele>337</ele>
        <time>2021-04-18T13:09:26Z</time>
      </trkpt>
      <trkpt lat="43.94695" lon="2.37119">
        <ele>337</ele>
        <time>2021-04-18T13:09:27Z</time>
      </trkpt>
      <trkpt lat="43.94694" lon="2.37118">
        <ele>337</ele>
        <time>2021-04-18T13:09:28Z</time>
      </trkpt>
      <trkpt lat="43.94694" lon="2.37118">
        <ele>337</ele>
        <time>2021-04-18T13:09:29Z</time>
      </trkpt>
      <trkpt lat="43.94694" lon="2.37118">
        <ele>337</ele>
        <time>2021-04-18T13:09:30Z</time>
      </trkpt>
      <trkpt lat="43.94695" lon="2.37117">
        <ele>337</ele>
        <time>2021-04-18T13:09:31Z</time>
      </trkpt>
      <trkpt lat="43.94696" lon="2.37117">
        <ele>338</ele>
        <time>2021-04-18T13:09:32Z</time>
      </trkpt>
      <trkpt lat="43.94698" lon="2.37116">
        <ele>338</ele>
        <time>2021-04-18T13:09:33Z</time>
      </trkpt>
      <trkpt lat="43.94699" lon="2.37116">
        <ele>338</ele>
        <time>2021-04-18T13:09:34Z</time>
      </trkpt>
      <trkpt lat="43.947" lon="2.37115">
        <ele>338</ele>
        <time>2021-04-18T13:09:35Z</time>
      </trkpt>
      <trkpt lat="43.947" lon="2.37114">
        <ele>338</ele>
        <time>2021-04-18T13:09:36Z</time>
      </trkpt>
      <trkpt lat="43.947" lon="2.37114">
        <ele>337</ele>
        <time>2021-04-18T13:09:37Z</time>
      </trkpt>
      <trkpt lat="43.94701" lon="2.37113">
        <ele>337</ele>
        <time>2021-04-18T13:09:38Z</time>
      </trkpt>
      <trkpt lat="43.94703" lon="2.37113">
        <ele>336</ele>
        <time>2021-04-18T13:09:39Z</time>
      </trkpt>
      <trkpt lat="43.94704" lon="2.37112">
        <ele>336</ele>
        <time>2021-04-18T13:09:40Z</time>
      </trkpt>
      <trkpt lat="43.94705" lon="2.3711">
        <ele>336</ele>
        <time>2021-04-18T13:09:41Z</time>
      </trkpt>
      <trkpt lat="43.94707" lon="2.37109">
        <ele>336</ele>
        <time>2021-04-18T13:09:42Z</time>
      </trkpt>
      <trkpt lat="43.94708" lon="2.37108">
        <ele>336</ele>
        <time>2021-04-18T13:09:43Z</time>
      </trkpt>
      <trkpt lat="43.94709" lon="2.37107">
        <ele>336</ele>
        <time>2021-04-18T13:09:44Z</time>
      </trkpt>
      <trkpt lat="43.94711" lon="2.37106">
        <ele>336</ele>
        <time>2021-04-18T13:09:45Z</time>
      </trkpt>
      <trkpt lat="43.94712" lon="2.37104">
        <ele>336</ele>
        <time>2021-04-18T13:09:46Z</time>
      </trkpt>
      <trkpt lat="43.94713" lon="2.37103">
        <ele>336</ele>
        <time>2021-04-18T13:09:47Z</time>
      </trkpt>
      <trkpt lat="43.94714" lon="2.37102">
        <ele>336</ele>
        <time>2021-04-18T13:09:48Z</time>
      </trkpt>
      <trkpt lat="43.94715" lon="2.371">
        <ele>336</ele>
        <time>2021-04-18T13:09:49Z</time>
      </trkpt>
      <trkpt lat="43.94716" lon="2.37099">
        <ele>336</ele>
        <time>2021-04-18T13:09:50Z</time>
      </trkpt>
      <trkpt lat="43.94718" lon="2.37098">
        <ele>336</ele>
        <time>2021-04-18T13:09:51Z</time>
      </trkpt>
      <trkpt lat="43.94719" lon="2.37096">
        <ele>336</ele>
        <time>2021-04-18T13:09:52Z</time>
      </trkpt>
      <trkpt lat="43.9472" lon="2.37095">
        <ele>335</ele>
        <time>2021-04-18T13:09:53Z</time>
      </trkpt>
      <trkpt lat="43.94721" lon="2.37095">
        <ele>335</ele>
        <time>2021-04-18T13:09:54Z</time>
      </trkpt>
      <trkpt lat="43.94722" lon="2.37094">
        <ele>334</ele>
        <time>2021-04-18T13:09:55Z</time>
      </trkpt>
      <trkpt lat="43.94723" lon="2.37092">
        <ele>334</ele>
        <time>2021-04-18T13:09:56Z</time>
      </trkpt>
      <trkpt lat="43.94725" lon="2.37091">
        <ele>334</ele>
        <time>2021-04-18T13:09:57Z</time>
      </trkpt>
      <trkpt lat="43.94726" lon="2.3709">
        <ele>334</ele>
        <time>2021-04-18T13:09:58Z</time>
      </trkpt>
      <trkpt lat="43.94727" lon="2.37089">
        <ele>334</ele>
        <time>2021-04-18T13:09:59Z</time>
      </trkpt>
      <trkpt lat="43.94729" lon="2.37086">
        <ele>334</ele>
        <time>2021-04-18T13:10:00Z</time>
      </trkpt>
      <trkpt lat="43.9473" lon="2.37085">
        <ele>333</ele>
        <time>2021-04-18T13:10:01Z</time>
      </trkpt>
      <trkpt lat="43.94732" lon="2.37083">
        <ele>332</ele>
        <time>2021-04-18T13:10:02Z</time>
      </trkpt>
      <trkpt lat="43.94733" lon="2.37082">
        <ele>331</ele>
        <time>2021-04-18T13:10:03Z</time>
      </trkpt>
      <trkpt lat="43.94734" lon="2.3708">
        <ele>331</ele>
        <time>2021-04-18T13:10:04Z</time>
      </trkpt>
      <trkpt lat="43.94736" lon="2.37078">
        <ele>332</ele>
        <time>2021-04-18T13:10:05Z</time>
      </trkpt>
      <trkpt lat="43.94737" lon="2.37076">
        <ele>331</ele>
        <time>2021-04-18T13:10:06Z</time>
      </trkpt>
      <trkpt lat="43.94738" lon="2.37074">
        <ele>331</ele>
        <time>2021-04-18T13:10:07Z</time>
      </trkpt>
      <trkpt lat="43.94739" lon="2.37073">
        <ele>331</ele>
        <time>2021-04-18T13:10:08Z</time>
      </trkpt>
      <trkpt lat="43.9474" lon="2.37071">
        <ele>331</ele>
        <time>2021-04-18T13:10:09Z</time>
      </trkpt>
      <trkpt lat="43.94741" lon="2.3707">
        <ele>331</ele>
        <time>2021-04-18T13:10:10Z</time>
      </trkpt>
      <trkpt lat="43.94742" lon="2.37069">
        <ele>331</ele>
        <time>2021-04-18T13:10:11Z</time>
      </trkpt>
      <trkpt lat="43.94743" lon="2.37068">
        <ele>332</ele>
        <time>2021-04-18T13:10:12Z</time>
      </trkpt>
      <trkpt lat="43.94745" lon="2.37067">
        <ele>331</ele>
        <time>2021-04-18T13:10:13Z</time>
      </trkpt>
      <trkpt lat="43.94746" lon="2.37065">
        <ele>331</ele>
        <time>2021-04-18T13:10:14Z</time>
      </trkpt>
      <trkpt lat="43.94746" lon="2.37063">
        <ele>331</ele>
        <time>2021-04-18T13:10:15Z</time>
      </trkpt>
      <trkpt lat="43.94747" lon="2.37061">
        <ele>331</ele>
        <time>2021-04-18T13:10:16Z</time>
      </trkpt>
      <trkpt lat="43.94748" lon="2.3706">
        <ele>330</ele>
        <time>2021-04-18T13:10:17Z</time>
      </trkpt>
      <trkpt lat="43.94748" lon="2.37059">
        <ele>330</ele>
        <time>2021-04-18T13:10:18Z</time>
      </trkpt>
      <trkpt lat="43.9475" lon="2.37057">
        <ele>329</ele>
        <time>2021-04-18T13:10:19Z</time>
      </trkpt>
      <trkpt lat="43.94751" lon="2.37055">
        <ele>330</ele>
        <time>2021-04-18T13:10:20Z</time>
      </trkpt>
      <trkpt lat="43.94752" lon="2.37053">
        <ele>329</ele>
        <time>2021-04-18T13:10:21Z</time>
      </trkpt>
      <trkpt lat="43.94753" lon="2.37051">
        <ele>329</ele>
        <time>2021-04-18T13:10:22Z</time>
      </trkpt>
      <trkpt lat="43.94754" lon="2.37049">
        <ele>329</ele>
        <time>2021-04-18T13:10:23Z</time>
      </trkpt>
      <trkpt lat="43.94755" lon="2.37047">
        <ele>328</ele>
        <time>2021-04-18T13:10:24Z</time>
      </trkpt>
      <trkpt lat="43.94756" lon="2.37045">
        <ele>329</ele>
        <time>2021-04-18T13:10:25Z</time>
      </trkpt>
      <trkpt lat="43.94756" lon="2.37043">
        <ele>328</ele>
        <time>2021-04-18T13:10:26Z</time>
      </trkpt>
      <trkpt lat="43.94757" lon="2.37041">
        <ele>328</ele>
        <time>2021-04-18T13:10:27Z</time>
      </trkpt>
      <trkpt lat="43.94758" lon="2.37039">
        <ele>328</ele>
        <time>2021-04-18T13:10:28Z</time>
      </trkpt>
      <trkpt lat="43.94759" lon="2.37037">
        <ele>328</ele>
        <time>2021-04-18T13:10:29Z</time>
      </trkpt>
      <trkpt lat="43.9476" lon="2.37035">
        <ele>327</ele>
        <time>2021-04-18T13:10:30Z</time>
      </trkpt>
      <trkpt lat="43.94761" lon="2.37033">
        <ele>327</ele>
        <time>2021-04-18T13:10:31Z</time>
      </trkpt>
      <trkpt lat="43.94761" lon="2.37032">
        <ele>327</ele>
        <time>2021-04-18T13:10:32Z</time>
      </trkpt>
      <trkpt lat="43.94762" lon="2.3703">
        <ele>327</ele>
        <time>2021-04-18T13:10:33Z</time>
      </trkpt>
      <trkpt lat="43.94762" lon="2.37028">
        <ele>327</ele>
        <time>2021-04-18T13:10:34Z</time>
      </trkpt>
      <trkpt lat="43.94762" lon="2.37025">
        <ele>326</ele>
        <time>2021-04-18T13:10:35Z</time>
      </trkpt>
      <trkpt lat="43.94763" lon="2.37023">
        <ele>326</ele>
        <time>2021-04-18T13:10:36Z</time>
      </trkpt>
      <trkpt lat="43.94764" lon="2.37021">
        <ele>327</ele>
        <time>2021-04-18T13:10:37Z</time>
      </trkpt>
      <trkpt lat="43.94764" lon="2.37019">
        <ele>326</ele>
        <time>2021-04-18T13:10:38Z</time>
      </trkpt>
      <trkpt lat="43.94764" lon="2.37017">
        <ele>326</ele>
        <time>2021-04-18T13:10:39Z</time>
      </trkpt>
      <trkpt lat="43.94765" lon="2.37014">
        <ele>326</ele>
        <time>2021-04-18T13:10:40Z</time>
      </trkpt>
      <trkpt lat="43.94766" lon="2.37012">
        <ele>326</ele>
        <time>2021-04-18T13:10:41Z</time>
      </trkpt>
      <trkpt lat="43.94766" lon="2.3701">
        <ele>326</ele>
        <time>2021-04-18T13:10:42Z</time>
      </trkpt>
      <trkpt lat="43.94767" lon="2.37007">
        <ele>326</ele>
        <time>2021-04-18T13:10:43Z</time>
      </trkpt>
      <trkpt lat="43.94768" lon="2.37005">
        <ele>326</ele>
        <time>2021-04-18T13:10:44Z</time>
      </trkpt>
      <trkpt lat="43.94769" lon="2.37003">
        <ele>326</ele>
        <time>2021-04-18T13:10:45Z</time>
      </trkpt>
      <trkpt lat="43.94769" lon="2.37001">
        <ele>326</ele>
        <time>2021-04-18T13:10:46Z</time>
      </trkpt>
      <trkpt lat="43.9477" lon="2.37">
        <ele>325</ele>
        <time>2021-04-18T13:10:47Z</time>
      </trkpt>
      <trkpt lat="43.9477" lon="2.36998">
        <ele>324</ele>
        <time>2021-04-18T13:10:48Z</time>
      </trkpt>
      <trkpt lat="43.94772" lon="2.36996">
        <ele>324</ele>
        <time>2021-04-18T13:10:49Z</time>
      </trkpt>
      <trkpt lat="43.94772" lon="2.36994">
        <ele>323</ele>
        <time>2021-04-18T13:10:50Z</time>
      </trkpt>
      <trkpt lat="43.94773" lon="2.36992">
        <ele>323</ele>
        <time>2021-04-18T13:10:51Z</time>
      </trkpt>
      <trkpt lat="43.94774" lon="2.36991">
        <ele>322</ele>
        <time>2021-04-18T13:10:52Z</time>
      </trkpt>
      <trkpt lat="43.94775" lon="2.36989">
        <ele>322</ele>
        <time>2021-04-18T13:10:53Z</time>
      </trkpt>
      <trkpt lat="43.94775" lon="2.36987">
        <ele>321</ele>
        <time>2021-04-18T13:10:54Z</time>
      </trkpt>
      <trkpt lat="43.94776" lon="2.36984">
        <ele>322</ele>
        <time>2021-04-18T13:10:55Z</time>
      </trkpt>
      <trkpt lat="43.94777" lon="2.36982">
        <ele>321</ele>
        <time>2021-04-18T13:10:56Z</time>
      </trkpt>
      <trkpt lat="43.94777" lon="2.3698">
        <ele>322</ele>
        <time>2021-04-18T13:10:57Z</time>
      </trkpt>
      <trkpt lat="43.94778" lon="2.36978">
        <ele>322</ele>
        <time>2021-04-18T13:10:58Z</time>
      </trkpt>
      <trkpt lat="43.94779" lon="2.36976">
        <ele>322</ele>
        <time>2021-04-18T13:10:59Z</time>
      </trkpt>
      <trkpt lat="43.9478" lon="2.36975">
        <ele>321</ele>
        <time>2021-04-18T13:11:00Z</time>
      </trkpt>
      <trkpt lat="43.9478" lon="2.36973">
        <ele>320</ele>
        <time>2021-04-18T13:11:01Z</time>
      </trkpt>
      <trkpt lat="43.9478" lon="2.36971">
        <ele>320</ele>
        <time>2021-04-18T13:11:02Z</time>
      </trkpt>
      <trkpt lat="43.94781" lon="2.3697">
        <ele>320</ele>
        <time>2021-04-18T13:11:03Z</time>
      </trkpt>
      <trkpt lat="43.94782" lon="2.36968">
        <ele>320</ele>
        <time>2021-04-18T13:11:04Z</time>
      </trkpt>
      <trkpt lat="43.94783" lon="2.36966">
        <ele>321</ele>
        <time>2021-04-18T13:11:05Z</time>
      </trkpt>
      <trkpt lat="43.94783" lon="2.36964">
        <ele>320</ele>
        <time>2021-04-18T13:11:06Z</time>
      </trkpt>
      <trkpt lat="43.94784" lon="2.36962">
        <ele>320</ele>
        <time>2021-04-18T13:11:07Z</time>
      </trkpt>
      <trkpt lat="43.94785" lon="2.3696">
        <ele>320</ele>
        <time>2021-04-18T13:11:08Z</time>
      </trkpt>
      <trkpt lat="43.94786" lon="2.36958">
        <ele>320</ele>
        <time>2021-04-18T13:11:09Z</time>
      </trkpt>
      <trkpt lat="43.94787" lon="2.36956">
        <ele>320</ele>
        <time>2021-04-18T13:11:10Z</time>
      </trkpt>
      <trkpt lat="43.94788" lon="2.36954">
        <ele>321</ele>
        <time>2021-04-18T13:11:11Z</time>
      </trkpt>
      <trkpt lat="43.94789" lon="2.36952">
        <ele>321</ele>
        <time>2021-04-18T13:11:12Z</time>
      </trkpt>
      <trkpt lat="43.9479" lon="2.3695">
        <ele>320</ele>
        <time>2021-04-18T13:11:13Z</time>
      </trkpt>
      <trkpt lat="43.9479" lon="2.36947">
        <ele>321</ele>
        <time>2021-04-18T13:11:14Z</time>
      </trkpt>
      <trkpt lat="43.94791" lon="2.36945">
        <ele>321</ele>
        <time>2021-04-18T13:11:15Z</time>
      </trkpt>
      <trkpt lat="43.94791" lon="2.36943">
        <ele>321</ele>
        <time>2021-04-18T13:11:16Z</time>
      </trkpt>
      <trkpt lat="43.94792" lon="2.36941">
        <ele>320</ele>
        <time>2021-04-18T13:11:17Z</time>
      </trkpt>
      <trkpt lat="43.94793" lon="2.3694">
        <ele>320</ele>
        <time>2021-04-18T13:11:18Z</time>
      </trkpt>
      <trkpt lat="43.94794" lon="2.36938">
        <ele>320</ele>
        <time>2021-04-18T13:11:19Z</time>
      </trkpt>
      <trkpt lat="43.94794" lon="2.36936">
        <ele>320</ele>
        <time>2021-04-18T13:11:20Z</time>
      </trkpt>
      <trkpt lat="43.94795" lon="2.36935">
        <ele>320</ele>
        <time>2021-04-18T13:11:21Z</time>
      </trkpt>
      <trkpt lat="43.94796" lon="2.36934">
        <ele>319</ele>
        <time>2021-04-18T13:11:22Z</time>
      </trkpt>
      <trkpt lat="43.94797" lon="2.36932">
        <ele>320</ele>
        <time>2021-04-18T13:11:23Z</time>
      </trkpt>
      <trkpt lat="43.94798" lon="2.36931">
        <ele>319</ele>
        <time>2021-04-18T13:11:24Z</time>
      </trkpt>
      <trkpt lat="43.94799" lon="2.36929">
        <ele>319</ele>
        <time>2021-04-18T13:11:25Z</time>
      </trkpt>
      <trkpt lat="43.948" lon="2.36927">
        <ele>320</ele>
        <time>2021-04-18T13:11:26Z</time>
      </trkpt>
      <trkpt lat="43.94801" lon="2.36926">
        <ele>320</ele>
        <time>2021-04-18T13:11:27Z</time>
      </trkpt>
      <trkpt lat="43.94802" lon="2.36924">
        <ele>320</ele>
        <time>2021-04-18T13:11:28Z</time>
      </trkpt>
      <trkpt lat="43.94803" lon="2.36923">
        <ele>321</ele>
        <time>2021-04-18T13:11:29Z</time>
      </trkpt>
      <trkpt lat="43.94803" lon="2.36921">
        <ele>320</ele>
        <time>2021-04-18T13:11:30Z</time>
      </trkpt>
      <trkpt lat="43.94804" lon="2.3692">
        <ele>320</ele>
        <time>2021-04-18T13:11:31Z</time>
      </trkpt>
      <trkpt lat="43.94804" lon="2.36918">
        <ele>320</ele>
        <time>2021-04-18T13:11:32Z</time>
      </trkpt>
      <trkpt lat="43.94805" lon="2.36916">
        <ele>320</ele>
        <time>2021-04-18T13:11:33Z</time>
      </trkpt>
      <trkpt lat="43.94806" lon="2.36914">
        <ele>319</ele>
        <time>2021-04-18T13:11:34Z</time>
      </trkpt>
      <trkpt lat="43.94807" lon="2.36912">
        <ele>320</ele>
        <time>2021-04-18T13:11:35Z</time>
      </trkpt>
      <trkpt lat="43.94807" lon="2.3691">
        <ele>319</ele>
        <time>2021-04-18T13:11:36Z</time>
      </trkpt>
      <trkpt lat="43.94808" lon="2.36908">
        <ele>319</ele>
        <time>2021-04-18T13:11:37Z</time>
      </trkpt>
      <trkpt lat="43.94809" lon="2.36906">
        <ele>319</ele>
        <time>2021-04-18T13:11:38Z</time>
      </trkpt>
      <trkpt lat="43.94809" lon="2.36905">
        <ele>319</ele>
        <time>2021-04-18T13:11:39Z</time>
      </trkpt>
      <trkpt lat="43.9481" lon="2.36903">
        <ele>319</ele>
        <time>2021-04-18T13:11:40Z</time>
      </trkpt>
      <trkpt lat="43.94811" lon="2.36901">
        <ele>318</ele>
        <time>2021-04-18T13:11:41Z</time>
      </trkpt>
      <trkpt lat="43.94812" lon="2.36898">
        <ele>319</ele>
        <time>2021-04-18T13:11:42Z</time>
      </trkpt>
      <trkpt lat="43.94813" lon="2.36896">
        <ele>318</ele>
        <time>2021-04-18T13:11:43Z</time>
      </trkpt>
      <trkpt lat="43.94814" lon="2.36894">
        <ele>319</ele>
        <time>2021-04-18T13:11:44Z</time>
      </trkpt>
      <trkpt lat="43.94815" lon="2.36892">
        <ele>319</ele>
        <time>2021-04-18T13:11:45Z</time>
      </trkpt>
      <trkpt lat="43.94816" lon="2.36891">
        <ele>318</ele>
        <time>2021-04-18T13:11:46Z</time>
      </trkpt>
      <trkpt lat="43.94817" lon="2.36889">
        <ele>318</ele>
        <time>2021-04-18T13:11:47Z</time>
      </trkpt>
      <trkpt lat="43.94818" lon="2.36887">
        <ele>317</ele>
        <time>2021-04-18T13:11:48Z</time>
      </trkpt>
      <trkpt lat="43.94819" lon="2.36885">
        <ele>317</ele>
        <time>2021-04-18T13:11:49Z</time>
      </trkpt>
      <trkpt lat="43.9482" lon="2.36883">
        <ele>317</ele>
        <time>2021-04-18T13:11:50Z</time>
      </trkpt>
      <trkpt lat="43.94821" lon="2.36881">
        <ele>317</ele>
        <time>2021-04-18T13:11:51Z</time>
      </trkpt>
      <trkpt lat="43.94822" lon="2.36879">
        <ele>317</ele>
        <time>2021-04-18T13:11:52Z</time>
      </trkpt>
      <trkpt lat="43.94822" lon="2.36877">
        <ele>317</ele>
        <time>2021-04-18T13:11:53Z</time>
      </trkpt>
      <trkpt lat="43.94823" lon="2.36876">
        <ele>317</ele>
        <time>2021-04-18T13:11:54Z</time>
      </trkpt>
      <trkpt lat="43.94824" lon="2.36874">
        <ele>317</ele>
        <time>2021-04-18T13:11:55Z</time>
      </trkpt>
      <trkpt lat="43.94824" lon="2.36872">
        <ele>318</ele>
        <time>2021-04-18T13:11:56Z</time>
      </trkpt>
      <trkpt lat="43.94825" lon="2.3687">
        <ele>317</ele>
        <time>2021-04-18T13:11:57Z</time>
      </trkpt>
      <trkpt lat="43.94826" lon="2.36869">
        <ele>316</ele>
        <time>2021-04-18T13:11:58Z</time>
      </trkpt>
      <trkpt lat="43.94826" lon="2.36867">
        <ele>317</ele>
        <time>2021-04-18T13:11:59Z</time>
      </trkpt>
      <trkpt lat="43.94827" lon="2.36865">
        <ele>317</ele>
        <time>2021-04-18T13:12:00Z</time>
      </trkpt>
      <trkpt lat="43.94828" lon="2.36864">
        <ele>317</ele>
        <time>2021-04-18T13:12:01Z</time>
      </trkpt>
      <trkpt lat="43.94829" lon="2.36863">
        <ele>317</ele>
        <time>2021-04-18T13:12:02Z</time>
      </trkpt>
      <trkpt lat="43.94831" lon="2.36862">
        <ele>317</ele>
        <time>2021-04-18T13:12:03Z</time>
      </trkpt>
      <trkpt lat="43.94832" lon="2.36861">
        <ele>316</ele>
        <time>2021-04-18T13:12:04Z</time>
      </trkpt>
      <trkpt lat="43.94833" lon="2.36859">
        <ele>316</ele>
        <time>2021-04-18T13:12:05Z</time>
      </trkpt>
      <trkpt lat="43.94834" lon="2.36858">
        <ele>315</ele>
        <time>2021-04-18T13:12:06Z</time>
      </trkpt>
      <trkpt lat="43.94835" lon="2.36857">
        <ele>315</ele>
        <time>2021-04-18T13:12:07Z</time>
      </trkpt>
      <trkpt lat="43.94836" lon="2.36856">
        <ele>315</ele>
        <time>2021-04-18T13:12:08Z</time>
      </trkpt>
      <trkpt lat="43.94837" lon="2.36855">
        <ele>315</ele>
        <time>2021-04-18T13:12:09Z</time>
      </trkpt>
      <trkpt lat="43.94838" lon="2.36853">
        <ele>315</ele>
        <time>2021-04-18T13:12:10Z</time>
      </trkpt>
      <trkpt lat="43.94838" lon="2.36851">
        <ele>315</ele>
        <time>2021-04-18T13:12:11Z</time>
      </trkpt>
      <trkpt lat="43.9484" lon="2.3685">
        <ele>314</ele>
        <time>2021-04-18T13:12:12Z</time>
      </trkpt>
      <trkpt lat="43.94841" lon="2.36848">
        <ele>314</ele>
        <time>2021-04-18T13:12:13Z</time>
      </trkpt>
      <trkpt lat="43.94843" lon="2.36847">
        <ele>315</ele>
        <time>2021-04-18T13:12:14Z</time>
      </trkpt>
      <trkpt lat="43.94844" lon="2.36845">
        <ele>314</ele>
        <time>2021-04-18T13:12:15Z</time>
      </trkpt>
      <trkpt lat="43.94844" lon="2.36844">
        <ele>314</ele>
        <time>2021-04-18T13:12:16Z</time>
      </trkpt>
      <trkpt lat="43.94846" lon="2.36842">
        <ele>314</ele>
        <time>2021-04-18T13:12:17Z</time>
      </trkpt>
      <trkpt lat="43.94847" lon="2.36841">
        <ele>315</ele>
        <time>2021-04-18T13:12:18Z</time>
      </trkpt>
      <trkpt lat="43.94848" lon="2.36839">
        <ele>315</ele>
        <time>2021-04-18T13:12:19Z</time>
      </trkpt>
      <trkpt lat="43.94849" lon="2.36838">
        <ele>314</ele>
        <time>2021-04-18T13:12:20Z</time>
      </trkpt>
      <trkpt lat="43.94851" lon="2.36837">
        <ele>315</ele>
        <time>2021-04-18T13:12:21Z</time>
      </trkpt>
      <trkpt lat="43.94852" lon="2.36835">
        <ele>314</ele>
        <time>2021-04-18T13:12:22Z</time>
      </trkpt>
      <trkpt lat="43.94853" lon="2.36834">
        <ele>314</ele>
        <time>2021-04-18T13:12:23Z</time>
      </trkpt>
      <trkpt lat="43.94855" lon="2.36833">
        <ele>315</ele>
        <time>2021-04-18T13:12:24Z</time>
      </trkpt>
      <trkpt lat="43.94856" lon="2.36832">
        <ele>315</ele>
        <time>2021-04-18T13:12:25Z</time>
      </trkpt>
      <trkpt lat="43.94857" lon="2.3683">
        <ele>315</ele>
        <time>2021-04-18T13:12:26Z</time>
      </trkpt>
      <trkpt lat="43.94858" lon="2.36829">
        <ele>315</ele>
        <time>2021-04-18T13:12:27Z</time>
      </trkpt>
      <trkpt lat="43.94859" lon="2.36827">
        <ele>314</ele>
        <time>2021-04-18T13:12:28Z</time>
      </trkpt>
      <trkpt lat="43.94861" lon="2.36826">
        <ele>314</ele>
        <time>2021-04-18T13:12:29Z</time>
      </trkpt>
      <trkpt lat="43.94862" lon="2.36824">
        <ele>314</ele>
        <time>2021-04-18T13:12:30Z</time>
      </trkpt>
      <trkpt lat="43.94862" lon="2.36822">
        <ele>314</ele>
        <time>2021-04-18T13:12:31Z</time>
      </trkpt>
      <trkpt lat="43.94864" lon="2.3682">
        <ele>314</ele>
        <time>2021-04-18T13:12:32Z</time>
      </trkpt>
      <trkpt lat="43.94864" lon="2.36818">
        <ele>314</ele>
        <time>2021-04-18T13:12:33Z</time>
      </trkpt>
      <trkpt lat="43.94865" lon="2.36816">
        <ele>313</ele>
        <time>2021-04-18T13:12:34Z</time>
      </trkpt>
      <trkpt lat="43.94867" lon="2.36814">
        <ele>313</ele>
        <time>2021-04-18T13:12:35Z</time>
      </trkpt>
      <trkpt lat="43.94867" lon="2.36813">
        <ele>313</ele>
        <time>2021-04-18T13:12:36Z</time>
      </trkpt>
      <trkpt lat="43.94868" lon="2.36812">
        <ele>313</ele>
        <time>2021-04-18T13:12:37Z</time>
      </trkpt>
      <trkpt lat="43.94869" lon="2.3681">
        <ele>314</ele>
        <time>2021-04-18T13:12:38Z</time>
      </trkpt>
      <trkpt lat="43.9487" lon="2.36808">
        <ele>313</ele>
        <time>2021-04-18T13:12:39Z</time>
      </trkpt>
      <trkpt lat="43.94871" lon="2.36806">
        <ele>313</ele>
        <time>2021-04-18T13:12:40Z</time>
      </trkpt>
      <trkpt lat="43.94872" lon="2.36804">
        <ele>314</ele>
        <time>2021-04-18T13:12:41Z</time>
      </trkpt>
      <trkpt lat="43.94872" lon="2.36802">
        <ele>314</ele>
        <time>2021-04-18T13:12:42Z</time>
      </trkpt>
      <trkpt lat="43.94873" lon="2.368">
        <ele>314</ele>
        <time>2021-04-18T13:12:43Z</time>
      </trkpt>
      <trkpt lat="43.94874" lon="2.36798">
        <ele>315</ele>
        <time>2021-04-18T13:12:44Z</time>
      </trkpt>
      <trkpt lat="43.94875" lon="2.36796">
        <ele>314</ele>
        <time>2021-04-18T13:12:45Z</time>
      </trkpt>
      <trkpt lat="43.94876" lon="2.36794">
        <ele>314</ele>
        <time>2021-04-18T13:12:46Z</time>
      </trkpt>
      <trkpt lat="43.94876" lon="2.36792">
        <ele>314</ele>
        <time>2021-04-18T13:12:47Z</time>
      </trkpt>
      <trkpt lat="43.94876" lon="2.3679">
        <ele>315</ele>
        <time>2021-04-18T13:12:48Z</time>
      </trkpt>
      <trkpt lat="43.94877" lon="2.36789">
        <ele>315</ele>
        <time>2021-04-18T13:12:49Z</time>
      </trkpt>
      <trkpt lat="43.94877" lon="2.36787">
        <ele>315</ele>
        <time>2021-04-18T13:12:50Z</time>
      </trkpt>
      <trkpt lat="43.94877" lon="2.36785">
        <ele>316</ele>
        <time>2021-04-18T13:12:51Z</time>
      </trkpt>
      <trkpt lat="43.94877" lon="2.36784">
        <ele>315</ele>
        <time>2021-04-18T13:12:52Z</time>
      </trkpt>
      <trkpt lat="43.94877" lon="2.36783">
        <ele>316</ele>
        <time>2021-04-18T13:12:53Z</time>
      </trkpt>
      <trkpt lat="43.94877" lon="2.36781">
        <ele>316</ele>
        <time>2021-04-18T13:12:54Z</time>
      </trkpt>
      <trkpt lat="43.94877" lon="2.3678">
        <ele>316</ele>
        <time>2021-04-18T13:12:55Z</time>
      </trkpt>
      <trkpt lat="43.94877" lon="2.36778">
        <ele>315</ele>
        <time>2021-04-18T13:12:56Z</time>
      </trkpt>
      <trkpt lat="43.94877" lon="2.36776">
        <ele>315</ele>
        <time>2021-04-18T13:12:57Z</time>
      </trkpt>
      <trkpt lat="43.94877" lon="2.36776">
        <ele>315</ele>
        <time>2021-04-18T13:12:58Z</time>
      </trkpt>
      <trkpt lat="43.94877" lon="2.36776">
        <ele>315</ele>
        <time>2021-04-18T13:12:59Z</time>
      </trkpt>
      <trkpt lat="43.94876" lon="2.36774">
        <ele>315</ele>
        <time>2021-04-18T13:13:00Z</time>
      </trkpt>
      <trkpt lat="43.94876" lon="2.36772">
        <ele>315</ele>
        <time>2021-04-18T13:13:01Z</time>
      </trkpt>
      <trkpt lat="43.94876" lon="2.3677">
        <ele>316</ele>
        <time>2021-04-18T13:13:02Z</time>
      </trkpt>
      <trkpt lat="43.94876" lon="2.36768">
        <ele>316</ele>
        <time>2021-04-18T13:13:03Z</time>
      </trkpt>
      <trkpt lat="43.94875" lon="2.36766">
        <ele>316</ele>
        <time>2021-04-18T13:13:04Z</time>
      </trkpt>
      <trkpt lat="43.94875" lon="2.36764">
        <ele>316</ele>
        <time>2021-04-18T13:13:05Z</time>
      </trkpt>
      <trkpt lat="43.94875" lon="2.36763">
        <ele>317</ele>
        <time>2021-04-18T13:13:06Z</time>
      </trkpt>
      <trkpt lat="43.94873" lon="2.36761">
        <ele>317</ele>
        <time>2021-04-18T13:13:07Z</time>
      </trkpt>
      <trkpt lat="43.94871" lon="2.36759">
        <ele>318</ele>
        <time>2021-04-18T13:13:08Z</time>
      </trkpt>
      <trkpt lat="43.9487" lon="2.36757">
        <ele>318</ele>
        <time>2021-04-18T13:13:09Z</time>
      </trkpt>
      <trkpt lat="43.94869" lon="2.36755">
        <ele>318</ele>
        <time>2021-04-18T13:13:10Z</time>
      </trkpt>
      <trkpt lat="43.94869" lon="2.36754">
        <ele>319</ele>
        <time>2021-04-18T13:13:11Z</time>
      </trkpt>
      <trkpt lat="43.94868" lon="2.36752">
        <ele>319</ele>
        <time>2021-04-18T13:13:12Z</time>
      </trkpt>
      <trkpt lat="43.94867" lon="2.36751">
        <ele>319</ele>
        <time>2021-04-18T13:13:13Z</time>
      </trkpt>
      <trkpt lat="43.94867" lon="2.3675">
        <ele>319</ele>
        <time>2021-04-18T13:13:14Z</time>
      </trkpt>
      <trkpt lat="43.94867" lon="2.36748">
        <ele>319</ele>
        <time>2021-04-18T13:13:15Z</time>
      </trkpt>
      <trkpt lat="43.94866" lon="2.36747">
        <ele>318</ele>
        <time>2021-04-18T13:13:16Z</time>
      </trkpt>
      <trkpt lat="43.94865" lon="2.36746">
        <ele>319</ele>
        <time>2021-04-18T13:13:17Z</time>
      </trkpt>
      <trkpt lat="43.94865" lon="2.36744">
        <ele>319</ele>
        <time>2021-04-18T13:13:18Z</time>
      </trkpt>
      <trkpt lat="43.94865" lon="2.36742">
        <ele>319</ele>
        <time>2021-04-18T13:13:19Z</time>
      </trkpt>
      <trkpt lat="43.94865" lon="2.36742">
        <ele>319</ele>
        <time>2021-04-18T13:13:20Z</time>
      </trkpt>
      <trkpt lat="43.94866" lon="2.3674">
        <ele>319</ele>
        <time>2021-04-18T13:13:21Z</time>
      </trkpt>
      <trkpt lat="43.94866" lon="2.36739">
        <ele>319</ele>
        <time>2021-04-18T13:13:22Z</time>
      </trkpt>
      <trkpt lat="43.94866" lon="2.36739">
        <ele>319</ele>
        <time>2021-04-18T13:13:23Z</time>
      </trkpt>
      <trkpt lat="43.94867" lon="2.36739">
        <ele>319</ele>
        <time>2021-04-18T13:13:24Z</time>
      </trkpt>
      <trkpt lat="43.94868" lon="2.36738">
        <ele>319</ele>
        <time>2021-04-18T13:13:25Z</time>
      </trkpt>
      <trkpt lat="43.94869" lon="2.36737">
        <ele>319</ele>
        <time>2021-04-18T13:13:26Z</time>
      </trkpt>
      <trkpt lat="43.94869" lon="2.36735">
        <ele>319</ele>
        <time>2021-04-18T13:13:27Z</time>
      </trkpt>
      <trkpt lat="43.9487" lon="2.36733">
        <ele>318</ele>
        <time>2021-04-18T13:13:28Z</time>
      </trkpt>
      <trkpt lat="43.94871" lon="2.36732">
        <ele>318</ele>
        <time>2021-04-18T13:13:29Z</time>
      </trkpt>
      <trkpt lat="43.94872" lon="2.3673">
        <ele>318</ele>
        <time>2021-04-18T13:13:30Z</time>
      </trkpt>
      <trkpt lat="43.94873" lon="2.36729">
        <ele>318</ele>
        <time>2021-04-18T13:13:31Z</time>
      </trkpt>
      <trkpt lat="43.94873" lon="2.36727">
        <ele>318</ele>
        <time>2021-04-18T13:13:32Z</time>
      </trkpt>
      <trkpt lat="43.94873" lon="2.36726">
        <ele>319</ele>
        <time>2021-04-18T13:13:33Z</time>
      </trkpt>
      <trkpt lat="43.94872" lon="2.36725">
        <ele>319</ele>
        <time>2021-04-18T13:13:34Z</time>
      </trkpt>
      <trkpt lat="43.94873" lon="2.36724">
        <ele>318</ele>
        <time>2021-04-18T13:13:35Z</time>
      </trkpt>
      <trkpt lat="43.94873" lon="2.36723">
        <ele>318</ele>
        <time>2021-04-18T13:13:36Z</time>
      </trkpt>
      <trkpt lat="43.94873" lon="2.36721">
        <ele>318</ele>
        <time>2021-04-18T13:13:37Z</time>
      </trkpt>
      <trkpt lat="43.94874" lon="2.36719">
        <ele>318</ele>
        <time>2021-04-18T13:13:38Z</time>
      </trkpt>
      <trkpt lat="43.94874" lon="2.36718">
        <ele>319</ele>
        <time>2021-04-18T13:13:39Z</time>
      </trkpt>
      <trkpt lat="43.94875" lon="2.36717">
        <ele>319</ele>
        <time>2021-04-18T13:13:40Z</time>
      </trkpt>
      <trkpt lat="43.94875" lon="2.36715">
        <ele>319</ele>
        <time>2021-04-18T13:13:41Z</time>
      </trkpt>
      <trkpt lat="43.94877" lon="2.36713">
        <ele>320</ele>
        <time>2021-04-18T13:13:42Z</time>
      </trkpt>
      <trkpt lat="43.94877" lon="2.36711">
        <ele>320</ele>
        <time>2021-04-18T13:13:43Z</time>
      </trkpt>
      <trkpt lat="43.94878" lon="2.36709">
        <ele>320</ele>
        <time>2021-04-18T13:13:44Z</time>
      </trkpt>
      <trkpt lat="43.94878" lon="2.36707">
        <ele>320</ele>
        <time>2021-04-18T13:13:45Z</time>
      </trkpt>
      <trkpt lat="43.94879" lon="2.36705">
        <ele>320</ele>
        <time>2021-04-18T13:13:46Z</time>
      </trkpt>
      <trkpt lat="43.9488" lon="2.36704">
        <ele>320</ele>
        <time>2021-04-18T13:13:47Z</time>
      </trkpt>
      <trkpt lat="43.94881" lon="2.36702">
        <ele>320</ele>
        <time>2021-04-18T13:13:48Z</time>
      </trkpt>
      <trkpt lat="43.94881" lon="2.367">
        <ele>321</ele>
        <time>2021-04-18T13:13:49Z</time>
      </trkpt>
      <trkpt lat="43.94882" lon="2.36698">
        <ele>321</ele>
        <time>2021-04-18T13:13:50Z</time>
      </trkpt>
      <trkpt lat="43.94883" lon="2.36697">
        <ele>321</ele>
        <time>2021-04-18T13:13:51Z</time>
      </trkpt>
      <trkpt lat="43.94883" lon="2.36695">
        <ele>321</ele>
        <time>2021-04-18T13:13:52Z</time>
      </trkpt>
      <trkpt lat="43.94884" lon="2.36693">
        <ele>321</ele>
        <time>2021-04-18T13:13:53Z</time>
      </trkpt>
      <trkpt lat="43.94884" lon="2.36692">
        <ele>321</ele>
        <time>2021-04-18T13:13:54Z</time>
      </trkpt>
      <trkpt lat="43.94885" lon="2.3669">
        <ele>321</ele>
        <time>2021-04-18T13:13:55Z</time>
      </trkpt>
      <trkpt lat="43.94885" lon="2.36688">
        <ele>321</ele>
        <time>2021-04-18T13:13:56Z</time>
      </trkpt>
      <trkpt lat="43.94885" lon="2.36686">
        <ele>321</ele>
        <time>2021-04-18T13:13:57Z</time>
      </trkpt>
      <trkpt lat="43.94885" lon="2.36684">
        <ele>322</ele>
        <time>2021-04-18T13:13:58Z</time>
      </trkpt>
      <trkpt lat="43.94886" lon="2.36681">
        <ele>322</ele>
        <time>2021-04-18T13:13:59Z</time>
      </trkpt>
      <trkpt lat="43.94886" lon="2.3668">
        <ele>321</ele>
        <time>2021-04-18T13:14:00Z</time>
      </trkpt>
      <trkpt lat="43.94887" lon="2.36677">
        <ele>322</ele>
        <time>2021-04-18T13:14:01Z</time>
      </trkpt>
      <trkpt lat="43.94888" lon="2.36675">
        <ele>322</ele>
        <time>2021-04-18T13:14:02Z</time>
      </trkpt>
      <trkpt lat="43.94888" lon="2.36674">
        <ele>323</ele>
        <time>2021-04-18T13:14:03Z</time>
      </trkpt>
      <trkpt lat="43.94888" lon="2.36672">
        <ele>323</ele>
        <time>2021-04-18T13:14:04Z</time>
      </trkpt>
      <trkpt lat="43.94888" lon="2.36669">
        <ele>324</ele>
        <time>2021-04-18T13:14:05Z</time>
      </trkpt>
      <trkpt lat="43.94889" lon="2.36667">
        <ele>324</ele>
        <time>2021-04-18T13:14:06Z</time>
      </trkpt>
      <trkpt lat="43.9489" lon="2.36665">
        <ele>324</ele>
        <time>2021-04-18T13:14:07Z</time>
      </trkpt>
      <trkpt lat="43.9489" lon="2.36664">
        <ele>324</ele>
        <time>2021-04-18T13:14:08Z</time>
      </trkpt>
      <trkpt lat="43.94891" lon="2.36662">
        <ele>324</ele>
        <time>2021-04-18T13:14:09Z</time>
      </trkpt>
      <trkpt lat="43.94891" lon="2.36661">
        <ele>324</ele>
        <time>2021-04-18T13:14:10Z</time>
      </trkpt>
      <trkpt lat="43.94891" lon="2.36659">
        <ele>324</ele>
        <time>2021-04-18T13:14:11Z</time>
      </trkpt>
      <trkpt lat="43.94891" lon="2.36658">
        <ele>324</ele>
        <time>2021-04-18T13:14:12Z</time>
      </trkpt>
      <trkpt lat="43.94891" lon="2.36657">
        <ele>323</ele>
        <time>2021-04-18T13:14:13Z</time>
      </trkpt>
      <trkpt lat="43.94892" lon="2.36655">
        <ele>324</ele>
        <time>2021-04-18T13:14:14Z</time>
      </trkpt>
      <trkpt lat="43.94893" lon="2.36654">
        <ele>325</ele>
        <time>2021-04-18T13:14:15Z</time>
      </trkpt>
      <trkpt lat="43.94893" lon="2.36653">
        <ele>324</ele>
        <time>2021-04-18T13:14:16Z</time>
      </trkpt>
      <trkpt lat="43.94893" lon="2.36652">
        <ele>325</ele>
        <time>2021-04-18T13:14:17Z</time>
      </trkpt>
      <trkpt lat="43.94894" lon="2.36651">
        <ele>325</ele>
        <time>2021-04-18T13:14:18Z</time>
      </trkpt>
      <trkpt lat="43.94895" lon="2.36649">
        <ele>325</ele>
        <time>2021-04-18T13:14:19Z</time>
      </trkpt>
      <trkpt lat="43.94895" lon="2.36647">
        <ele>325</ele>
        <time>2021-04-18T13:14:20Z</time>
      </trkpt>
      <trkpt lat="43.94896" lon="2.36645">
        <ele>325</ele>
        <time>2021-04-18T13:14:21Z</time>
      </trkpt>
      <trkpt lat="43.94896" lon="2.36644">
        <ele>326</ele>
        <time>2021-04-18T13:14:22Z</time>
      </trkpt>
      <trkpt lat="43.94897" lon="2.36643">
        <ele>326</ele>
        <time>2021-04-18T13:14:23Z</time>
      </trkpt>
      <trkpt lat="43.94898" lon="2.36643">
        <ele>326</ele>
        <time>2021-04-18T13:14:24Z</time>
      </trkpt>
      <trkpt lat="43.94898" lon="2.36641">
        <ele>327</ele>
        <time>2021-04-18T13:14:25Z</time>
      </trkpt>
      <trkpt lat="43.94899" lon="2.3664">
        <ele>326</ele>
        <time>2021-04-18T13:14:26Z</time>
      </trkpt>
      <trkpt lat="43.94898" lon="2.36638">
        <ele>326</ele>
        <time>2021-04-18T13:14:27Z</time>
      </trkpt>
      <trkpt lat="43.94898" lon="2.36638">
        <ele>326</ele>
        <time>2021-04-18T13:14:28Z</time>
      </trkpt>
      <trkpt lat="43.94898" lon="2.36638">
        <ele>326</ele>
        <time>2021-04-18T13:14:29Z</time>
      </trkpt>
      <trkpt lat="43.94898" lon="2.36638">
        <ele>326</ele>
        <time>2021-04-18T13:14:30Z</time>
      </trkpt>
      <trkpt lat="43.94898" lon="2.36638">
        <ele>326</ele>
        <time>2021-04-18T13:14:31Z</time>
      </trkpt>
      <trkpt lat="43.94899" lon="2.36636">
        <ele>325</ele>
        <time>2021-04-18T13:14:32Z</time>
      </trkpt>
      <trkpt lat="43.949" lon="2.36635">
        <ele>326</ele>
        <time>2021-04-18T13:14:33Z</time>
      </trkpt>
      <trkpt lat="43.949" lon="2.36634">
        <ele>326</ele>
        <time>2021-04-18T13:14:34Z</time>
      </trkpt>
      <trkpt lat="43.94901" lon="2.36633">
        <ele>327</ele>
        <time>2021-04-18T13:14:35Z</time>
      </trkpt>
      <trkpt lat="43.94901" lon="2.36632">
        <ele>328</ele>
        <time>2021-04-18T13:14:36Z</time>
      </trkpt>
      <trkpt lat="43.94902" lon="2.36631">
        <ele>328</ele>
        <time>2021-04-18T13:14:37Z</time>
      </trkpt>
      <trkpt lat="43.94903" lon="2.36631">
        <ele>329</ele>
        <time>2021-04-18T13:14:38Z</time>
      </trkpt>
      <trkpt lat="43.94904" lon="2.36631">
        <ele>330</ele>
        <time>2021-04-18T13:14:39Z</time>
      </trkpt>
      <trkpt lat="43.94905" lon="2.3663">
        <ele>330</ele>
        <time>2021-04-18T13:14:40Z</time>
      </trkpt>
      <trkpt lat="43.94906" lon="2.3663">
        <ele>331</ele>
        <time>2021-04-18T13:14:41Z</time>
      </trkpt>
      <trkpt lat="43.94906" lon="2.36629">
        <ele>331</ele>
        <time>2021-04-18T13:14:42Z</time>
      </trkpt>
      <trkpt lat="43.94907" lon="2.36629">
        <ele>332</ele>
        <time>2021-04-18T13:14:43Z</time>
      </trkpt>
      <trkpt lat="43.94907" lon="2.36628">
        <ele>332</ele>
        <time>2021-04-18T13:14:44Z</time>
      </trkpt>
      <trkpt lat="43.94908" lon="2.36628">
        <ele>332</ele>
        <time>2021-04-18T13:14:45Z</time>
      </trkpt>
      <trkpt lat="43.94909" lon="2.36628">
        <ele>332</ele>
        <time>2021-04-18T13:14:46Z</time>
      </trkpt>
      <trkpt lat="43.94909" lon="2.36628">
        <ele>332</ele>
        <time>2021-04-18T13:14:47Z</time>
      </trkpt>
      <trkpt lat="43.94909" lon="2.36628">
        <ele>332</ele>
        <time>2021-04-18T13:14:48Z</time>
      </trkpt>
      <trkpt lat="43.94909" lon="2.36628">
        <ele>333</ele>
        <time>2021-04-18T13:14:49Z</time>
      </trkpt>
      <trkpt lat="43.94908" lon="2.36627">
        <ele>333</ele>
        <time>2021-04-18T13:14:50Z</time>
      </trkpt>
      <trkpt lat="43.94907" lon="2.36627">
        <ele>334</ele>
        <time>2021-04-18T13:14:51Z</time>
      </trkpt>
      <trkpt lat="43.94908" lon="2.36627">
        <ele>334</ele>
        <time>2021-04-18T13:14:52Z</time>
      </trkpt>
      <trkpt lat="43.94908" lon="2.36626">
        <ele>334</ele>
        <time>2021-04-18T13:14:53Z</time>
      </trkpt>
      <trkpt lat="43.94907" lon="2.36626">
        <ele>333</ele>
        <time>2021-04-18T13:14:54Z</time>
      </trkpt>
      <trkpt lat="43.94907" lon="2.36626">
        <ele>333</ele>
        <time>2021-04-18T13:14:55Z</time>
      </trkpt>
      <trkpt lat="43.94907" lon="2.36625">
        <ele>333</ele>
        <time>2021-04-18T13:14:56Z</time>
      </trkpt>
      <trkpt lat="43.94907" lon="2.36625">
        <ele>333</ele>
        <time>2021-04-18T13:14:57Z</time>
      </trkpt>
      <trkpt lat="43.94907" lon="2.36625">
        <ele>333</ele>
        <time>2021-04-18T13:14:58Z</time>
      </trkpt>
      <trkpt lat="43.94906" lon="2.36625">
        <ele>332</ele>
        <time>2021-04-18T13:14:59Z</time>
      </trkpt>
      <trkpt lat="43.94907" lon="2.36626">
        <ele>333</ele>
        <time>2021-04-18T13:15:00Z</time>
      </trkpt>
      <trkpt lat="43.94907" lon="2.36627">
        <ele>332</ele>
        <time>2021-04-18T13:15:01Z</time>
      </trkpt>
      <trkpt lat="43.94907" lon="2.36627">
        <ele>332</ele>
        <time>2021-04-18T13:15:02Z</time>
      </trkpt>
      <trkpt lat="43.94907" lon="2.36628">
        <ele>331</ele>
        <time>2021-04-18T13:15:03Z</time>
      </trkpt>
      <trkpt lat="43.94907" lon="2.36629">
        <ele>331</ele>
        <time>2021-04-18T13:15:04Z</time>
      </trkpt>
      <trkpt lat="43.94908" lon="2.3663">
        <ele>331</ele>
        <time>2021-04-18T13:15:05Z</time>
      </trkpt>
      <trkpt lat="43.94908" lon="2.36631">
        <ele>331</ele>
        <time>2021-04-18T13:15:06Z</time>
      </trkpt>
      <trkpt lat="43.94908" lon="2.36632">
        <ele>330</ele>
        <time>2021-04-18T13:15:07Z</time>
      </trkpt>
      <trkpt lat="43.94909" lon="2.36632">
        <ele>330</ele>
        <time>2021-04-18T13:15:08Z</time>
      </trkpt>
      <trkpt lat="43.94908" lon="2.36633">
        <ele>330</ele>
        <time>2021-04-18T13:15:09Z</time>
      </trkpt>
      <trkpt lat="43.94908" lon="2.36634">
        <ele>330</ele>
        <time>2021-04-18T13:15:10Z</time>
      </trkpt>
      <trkpt lat="43.94908" lon="2.36634">
        <ele>330</ele>
        <time>2021-04-18T13:15:11Z</time>
      </trkpt>
      <trkpt lat="43.94909" lon="2.36636">
        <ele>331</ele>
        <time>2021-04-18T13:15:12Z</time>
      </trkpt>
      <trkpt lat="43.94909" lon="2.36637">
        <ele>331</ele>
        <time>2021-04-18T13:15:13Z</time>
      </trkpt>
      <trkpt lat="43.94908" lon="2.36638">
        <ele>330</ele>
        <time>2021-04-18T13:15:14Z</time>
      </trkpt>
      <trkpt lat="43.94908" lon="2.36639">
        <ele>330</ele>
        <time>2021-04-18T13:15:15Z</time>
      </trkpt>
      <trkpt lat="43.94908" lon="2.36641">
        <ele>330</ele>
        <time>2021-04-18T13:15:16Z</time>
      </trkpt>
      <trkpt lat="43.94908" lon="2.36643">
        <ele>330</ele>
        <time>2021-04-18T13:15:17Z</time>
      </trkpt>
      <trkpt lat="43.94908" lon="2.36644">
        <ele>330</ele>
        <time>2021-04-18T13:15:18Z</time>
      </trkpt>
      <trkpt lat="43.94908" lon="2.36646">
        <ele>330</ele>
        <time>2021-04-18T13:15:19Z</time>
      </trkpt>
      <trkpt lat="43.94908" lon="2.36647">
        <ele>331</ele>
        <time>2021-04-18T13:15:20Z</time>
      </trkpt>
      <trkpt lat="43.94908" lon="2.36649">
        <ele>331</ele>
        <time>2021-04-18T13:15:21Z</time>
      </trkpt>
      <trkpt lat="43.94908" lon="2.36651">
        <ele>331</ele>
        <time>2021-04-18T13:15:22Z</time>
      </trkpt>
      <trkpt lat="43.94907" lon="2.36652">
        <ele>331</ele>
        <time>2021-04-18T13:15:23Z</time>
      </trkpt>
      <trkpt lat="43.94907" lon="2.36654">
        <ele>331</ele>
        <time>2021-04-18T13:15:24Z</time>
      </trkpt>
      <trkpt lat="43.94907" lon="2.36656">
        <ele>330</ele>
        <time>2021-04-18T13:15:25Z</time>
      </trkpt>
      <trkpt lat="43.94906" lon="2.36657">
        <ele>330</ele>
        <time>2021-04-18T13:15:26Z</time>
      </trkpt>
      <trkpt lat="43.94906" lon="2.36658">
        <ele>330</ele>
        <time>2021-04-18T13:15:27Z</time>
      </trkpt>
      <trkpt lat="43.94905" lon="2.3666">
        <ele>330</ele>
        <time>2021-04-18T13:15:28Z</time>
      </trkpt>
      <trkpt lat="43.94905" lon="2.36661">
        <ele>330</ele>
        <time>2021-04-18T13:15:29Z</time>
      </trkpt>
      <trkpt lat="43.94905" lon="2.36662">
        <ele>329</ele>
        <time>2021-04-18T13:15:30Z</time>
      </trkpt>
      <trkpt lat="43.94905" lon="2.36663">
        <ele>329</ele>
        <time>2021-04-18T13:15:31Z</time>
      </trkpt>
      <trkpt lat="43.94905" lon="2.36665">
        <ele>330</ele>
        <time>2021-04-18T13:15:32Z</time>
      </trkpt>
      <trkpt lat="43.94904" lon="2.36666">
        <ele>329</ele>
        <time>2021-04-18T13:15:33Z</time>
      </trkpt>
      <trkpt lat="43.94904" lon="2.36668">
        <ele>329</ele>
        <time>2021-04-18T13:15:34Z</time>
      </trkpt>
      <trkpt lat="43.94904" lon="2.36669">
        <ele>329</ele>
        <time>2021-04-18T13:15:35Z</time>
      </trkpt>
      <trkpt lat="43.94904" lon="2.36671">
        <ele>329</ele>
        <time>2021-04-18T13:15:36Z</time>
      </trkpt>
      <trkpt lat="43.94904" lon="2.36673">
        <ele>330</ele>
        <time>2021-04-18T13:15:37Z</time>
      </trkpt>
      <trkpt lat="43.94904" lon="2.36674">
        <ele>329</ele>
        <time>2021-04-18T13:15:38Z</time>
      </trkpt>
      <trkpt lat="43.94904" lon="2.36676">
        <ele>329</ele>
        <time>2021-04-18T13:15:39Z</time>
      </trkpt>
      <trkpt lat="43.94904" lon="2.36678">
        <ele>329</ele>
        <time>2021-04-18T13:15:40Z</time>
      </trkpt>
      <trkpt lat="43.94905" lon="2.3668">
        <ele>329</ele>
        <time>2021-04-18T13:15:41Z</time>
      </trkpt>
      <trkpt lat="43.94905" lon="2.36682">
        <ele>330</ele>
        <time>2021-04-18T13:15:42Z</time>
      </trkpt>
      <trkpt lat="43.94905" lon="2.36683">
        <ele>329</ele>
        <time>2021-04-18T13:15:43Z</time>
      </trkpt>
      <trkpt lat="43.94906" lon="2.36685">
        <ele>330</ele>
        <time>2021-04-18T13:15:44Z</time>
      </trkpt>
      <trkpt lat="43.94906" lon="2.36686">
        <ele>330</ele>
        <time>2021-04-18T13:15:45Z</time>
      </trkpt>
      <trkpt lat="43.94906" lon="2.36687">
        <ele>330</ele>
        <time>2021-04-18T13:15:46Z</time>
      </trkpt>
      <trkpt lat="43.94907" lon="2.36688">
        <ele>330</ele>
        <time>2021-04-18T13:15:47Z</time>
      </trkpt>
      <trkpt lat="43.94908" lon="2.3669">
        <ele>330</ele>
        <time>2021-04-18T13:15:48Z</time>
      </trkpt>
      <trkpt lat="43.94908" lon="2.36691">
        <ele>330</ele>
        <time>2021-04-18T13:15:49Z</time>
      </trkpt>
      <trkpt lat="43.94908" lon="2.36693">
        <ele>330</ele>
        <time>2021-04-18T13:15:50Z</time>
      </trkpt>
      <trkpt lat="43.94909" lon="2.36694">
        <ele>331</ele>
        <time>2021-04-18T13:15:51Z</time>
      </trkpt>
      <trkpt lat="43.94909" lon="2.36695">
        <ele>330</ele>
        <time>2021-04-18T13:15:52Z</time>
      </trkpt>
      <trkpt lat="43.94909" lon="2.36696">
        <ele>330</ele>
        <time>2021-04-18T13:15:53Z</time>
      </trkpt>
      <trkpt lat="43.94909" lon="2.36697">
        <ele>330</ele>
        <time>2021-04-18T13:15:54Z</time>
      </trkpt>
      <trkpt lat="43.94909" lon="2.36698">
        <ele>329</ele>
        <time>2021-04-18T13:15:55Z</time>
      </trkpt>
      <trkpt lat="43.94909" lon="2.36699">
        <ele>329</ele>
        <time>2021-04-18T13:15:56Z</time>
      </trkpt>
      <trkpt lat="43.9491" lon="2.36701">
        <ele>329</ele>
        <time>2021-04-18T13:15:57Z</time>
      </trkpt>
      <trkpt lat="43.94909" lon="2.36702">
        <ele>329</ele>
        <time>2021-04-18T13:15:58Z</time>
      </trkpt>
      <trkpt lat="43.94909" lon="2.36704">
        <ele>330</ele>
        <time>2021-04-18T13:15:59Z</time>
      </trkpt>
      <trkpt lat="43.94908" lon="2.36705">
        <ele>330</ele>
        <time>2021-04-18T13:16:00Z</time>
      </trkpt>
      <trkpt lat="43.94908" lon="2.36707">
        <ele>330</ele>
        <time>2021-04-18T13:16:01Z</time>
      </trkpt>
      <trkpt lat="43.94908" lon="2.36709">
        <ele>330</ele>
        <time>2021-04-18T13:16:02Z</time>
      </trkpt>
      <trkpt lat="43.94908" lon="2.3671">
        <ele>330</ele>
        <time>2021-04-18T13:16:03Z</time>
      </trkpt>
      <trkpt lat="43.94908" lon="2.36711">
        <ele>331</ele>
        <time>2021-04-18T13:16:04Z</time>
      </trkpt>
      <trkpt lat="43.94908" lon="2.36713">
        <ele>331</ele>
        <time>2021-04-18T13:16:05Z</time>
      </trkpt>
      <trkpt lat="43.94907" lon="2.36714">
        <ele>332</ele>
        <time>2021-04-18T13:16:06Z</time>
      </trkpt>
      <trkpt lat="43.94908" lon="2.36716">
        <ele>333</ele>
        <time>2021-04-18T13:16:07Z</time>
      </trkpt>
      <trkpt lat="43.94909" lon="2.36716">
        <ele>332</ele>
        <time>2021-04-18T13:16:08Z</time>
      </trkpt>
      <trkpt lat="43.9491" lon="2.36717">
        <ele>332</ele>
        <time>2021-04-18T13:16:09Z</time>
      </trkpt>
      <trkpt lat="43.94912" lon="2.36717">
        <ele>331</ele>
        <time>2021-04-18T13:16:10Z</time>
      </trkpt>
      <trkpt lat="43.94914" lon="2.36718">
        <ele>331</ele>
        <time>2021-04-18T13:16:11Z</time>
      </trkpt>
      <trkpt lat="43.94915" lon="2.36719">
        <ele>330</ele>
        <time>2021-04-18T13:16:12Z</time>
      </trkpt>
      <trkpt lat="43.94917" lon="2.3672">
        <ele>331</ele>
        <time>2021-04-18T13:16:13Z</time>
      </trkpt>
      <trkpt lat="43.94918" lon="2.3672">
        <ele>331</ele>
        <time>2021-04-18T13:16:14Z</time>
      </trkpt>
      <trkpt lat="43.94918" lon="2.36719">
        <ele>331</ele>
        <time>2021-04-18T13:16:15Z</time>
      </trkpt>
      <trkpt lat="43.94919" lon="2.36718">
        <ele>331</ele>
        <time>2021-04-18T13:16:16Z</time>
      </trkpt>
      <trkpt lat="43.94919" lon="2.36717">
        <ele>332</ele>
        <time>2021-04-18T13:16:17Z</time>
      </trkpt>
      <trkpt lat="43.9492" lon="2.36716">
        <ele>333</ele>
        <time>2021-04-18T13:16:18Z</time>
      </trkpt>
      <trkpt lat="43.9492" lon="2.36715">
        <ele>334</ele>
        <time>2021-04-18T13:16:19Z</time>
      </trkpt>
      <trkpt lat="43.94921" lon="2.36715">
        <ele>334</ele>
        <time>2021-04-18T13:16:20Z</time>
      </trkpt>
      <trkpt lat="43.94922" lon="2.36714">
        <ele>334</ele>
        <time>2021-04-18T13:16:21Z</time>
      </trkpt>
      <trkpt lat="43.94922" lon="2.36713">
        <ele>335</ele>
        <time>2021-04-18T13:16:22Z</time>
      </trkpt>
      <trkpt lat="43.94922" lon="2.36712">
        <ele>335</ele>
        <time>2021-04-18T13:16:23Z</time>
      </trkpt>
      <trkpt lat="43.94922" lon="2.36711">
        <ele>335</ele>
        <time>2021-04-18T13:16:24Z</time>
      </trkpt>
      <trkpt lat="43.94923" lon="2.3671">
        <ele>336</ele>
        <time>2021-04-18T13:16:25Z</time>
      </trkpt>
      <trkpt lat="43.94924" lon="2.36709">
        <ele>336</ele>
        <time>2021-04-18T13:16:26Z</time>
      </trkpt>
      <trkpt lat="43.94925" lon="2.36708">
        <ele>335</ele>
        <time>2021-04-18T13:16:27Z</time>
      </trkpt>
      <trkpt lat="43.94925" lon="2.36707">
        <ele>336</ele>
        <time>2021-04-18T13:16:28Z</time>
      </trkpt>
      <trkpt lat="43.94927" lon="2.36705">
        <ele>336</ele>
        <time>2021-04-18T13:16:29Z</time>
      </trkpt>
      <trkpt lat="43.94927" lon="2.36704">
        <ele>336</ele>
        <time>2021-04-18T13:16:30Z</time>
      </trkpt>
      <trkpt lat="43.94928" lon="2.36703">
        <ele>337</ele>
        <time>2021-04-18T13:16:31Z</time>
      </trkpt>
      <trkpt lat="43.94929" lon="2.36702">
        <ele>337</ele>
        <time>2021-04-18T13:16:32Z</time>
      </trkpt>
      <trkpt lat="43.9493" lon="2.367">
        <ele>338</ele>
        <time>2021-04-18T13:16:33Z</time>
      </trkpt>
      <trkpt lat="43.9493" lon="2.367">
        <ele>337</ele>
        <time>2021-04-18T13:16:34Z</time>
      </trkpt>
      <trkpt lat="43.94931" lon="2.36698">
        <ele>337</ele>
        <time>2021-04-18T13:16:35Z</time>
      </trkpt>
      <trkpt lat="43.94931" lon="2.36696">
        <ele>337</ele>
        <time>2021-04-18T13:16:36Z</time>
      </trkpt>
      <trkpt lat="43.94932" lon="2.36696">
        <ele>337</ele>
        <time>2021-04-18T13:16:37Z</time>
      </trkpt>
      <trkpt lat="43.94933" lon="2.36694">
        <ele>338</ele>
        <time>2021-04-18T13:16:38Z</time>
      </trkpt>
      <trkpt lat="43.94933" lon="2.36692">
        <ele>338</ele>
        <time>2021-04-18T13:16:39Z</time>
      </trkpt>
      <trkpt lat="43.94933" lon="2.3669">
        <ele>337</ele>
        <time>2021-04-18T13:16:40Z</time>
      </trkpt>
      <trkpt lat="43.94933" lon="2.36689">
        <ele>338</ele>
        <time>2021-04-18T13:16:41Z</time>
      </trkpt>
      <trkpt lat="43.94934" lon="2.36687">
        <ele>338</ele>
        <time>2021-04-18T13:16:42Z</time>
      </trkpt>
      <trkpt lat="43.94935" lon="2.36686">
        <ele>337</ele>
        <time>2021-04-18T13:16:43Z</time>
      </trkpt>
      <trkpt lat="43.94935" lon="2.36685">
        <ele>338</ele>
        <time>2021-04-18T13:16:44Z</time>
      </trkpt>
      <trkpt lat="43.94935" lon="2.36685">
        <ele>338</ele>
        <time>2021-04-18T13:16:45Z</time>
      </trkpt>
      <trkpt lat="43.94935" lon="2.36685">
        <ele>338</ele>
        <time>2021-04-18T13:16:46Z</time>
      </trkpt>
      <trkpt lat="43.94935" lon="2.36684">
        <ele>337</ele>
        <time>2021-04-18T13:16:47Z</time>
      </trkpt>
      <trkpt lat="43.94935" lon="2.36683">
        <ele>337</ele>
        <time>2021-04-18T13:16:48Z</time>
      </trkpt>
      <trkpt lat="43.94935" lon="2.36681">
        <ele>338</ele>
        <time>2021-04-18T13:16:49Z</time>
      </trkpt>
      <trkpt lat="43.94936" lon="2.3668">
        <ele>339</ele>
        <time>2021-04-18T13:16:50Z</time>
      </trkpt>
      <trkpt lat="43.94936" lon="2.36679">
        <ele>340</ele>
        <time>2021-04-18T13:16:51Z</time>
      </trkpt>
      <trkpt lat="43.94936" lon="2.36678">
        <ele>340</ele>
        <time>2021-04-18T13:16:52Z</time>
      </trkpt>
      <trkpt lat="43.94936" lon="2.36677">
        <ele>340</ele>
        <time>2021-04-18T13:16:53Z</time>
      </trkpt>
      <trkpt lat="43.94936" lon="2.36676">
        <ele>341</ele>
        <time>2021-04-18T13:16:54Z</time>
      </trkpt>
      <trkpt lat="43.94937" lon="2.36675">
        <ele>341</ele>
        <time>2021-04-18T13:16:55Z</time>
      </trkpt>
      <trkpt lat="43.94938" lon="2.36674">
        <ele>341</ele>
        <time>2021-04-18T13:16:56Z</time>
      </trkpt>
      <trkpt lat="43.94939" lon="2.36672">
        <ele>341</ele>
        <time>2021-04-18T13:16:57Z</time>
      </trkpt>
      <trkpt lat="43.94939" lon="2.36672">
        <ele>341</ele>
        <time>2021-04-18T13:16:58Z</time>
      </trkpt>
      <trkpt lat="43.9494" lon="2.36671">
        <ele>342</ele>
        <time>2021-04-18T13:16:59Z</time>
      </trkpt>
      <trkpt lat="43.9494" lon="2.36669">
        <ele>342</ele>
        <time>2021-04-18T13:17:00Z</time>
      </trkpt>
      <trkpt lat="43.94941" lon="2.36668">
        <ele>342</ele>
        <time>2021-04-18T13:17:01Z</time>
      </trkpt>
      <trkpt lat="43.94942" lon="2.36667">
        <ele>342</ele>
        <time>2021-04-18T13:17:02Z</time>
      </trkpt>
      <trkpt lat="43.94942" lon="2.36666">
        <ele>343</ele>
        <time>2021-04-18T13:17:03Z</time>
      </trkpt>
      <trkpt lat="43.94943" lon="2.36664">
        <ele>343</ele>
        <time>2021-04-18T13:17:04Z</time>
      </trkpt>
      <trkpt lat="43.94943" lon="2.36663">
        <ele>342</ele>
        <time>2021-04-18T13:17:05Z</time>
      </trkpt>
      <trkpt lat="43.94944" lon="2.36661">
        <ele>342</ele>
        <time>2021-04-18T13:17:06Z</time>
      </trkpt>
      <trkpt lat="43.94944" lon="2.3666">
        <ele>342</ele>
        <time>2021-04-18T13:17:07Z</time>
      </trkpt>
      <trkpt lat="43.94944" lon="2.36659">
        <ele>342</ele>
        <time>2021-04-18T13:17:08Z</time>
      </trkpt>
      <trkpt lat="43.94945" lon="2.36657">
        <ele>342</ele>
        <time>2021-04-18T13:17:09Z</time>
      </trkpt>
      <trkpt lat="43.94946" lon="2.36657">
        <ele>341</ele>
        <time>2021-04-18T13:17:10Z</time>
      </trkpt>
      <trkpt lat="43.94947" lon="2.36656">
        <ele>342</ele>
        <time>2021-04-18T13:17:11Z</time>
      </trkpt>
      <trkpt lat="43.94948" lon="2.36654">
        <ele>342</ele>
        <time>2021-04-18T13:17:12Z</time>
      </trkpt>
      <trkpt lat="43.94948" lon="2.36653">
        <ele>342</ele>
        <time>2021-04-18T13:17:13Z</time>
      </trkpt>
      <trkpt lat="43.94948" lon="2.36652">
        <ele>343</ele>
        <time>2021-04-18T13:17:14Z</time>
      </trkpt>
      <trkpt lat="43.94949" lon="2.3665">
        <ele>344</ele>
        <time>2021-04-18T13:17:15Z</time>
      </trkpt>
      <trkpt lat="43.94949" lon="2.36649">
        <ele>344</ele>
        <time>2021-04-18T13:17:16Z</time>
      </trkpt>
      <trkpt lat="43.9495" lon="2.36648">
        <ele>344</ele>
        <time>2021-04-18T13:17:17Z</time>
      </trkpt>
      <trkpt lat="43.9495" lon="2.36646">
        <ele>345</ele>
        <time>2021-04-18T13:17:18Z</time>
      </trkpt>
      <trkpt lat="43.94951" lon="2.36646">
        <ele>345</ele>
        <time>2021-04-18T13:17:19Z</time>
      </trkpt>
      <trkpt lat="43.94951" lon="2.36644">
        <ele>345</ele>
        <time>2021-04-18T13:17:20Z</time>
      </trkpt>
      <trkpt lat="43.94951" lon="2.36643">
        <ele>346</ele>
        <time>2021-04-18T13:17:21Z</time>
      </trkpt>
      <trkpt lat="43.94951" lon="2.36642">
        <ele>346</ele>
        <time>2021-04-18T13:17:22Z</time>
      </trkpt>
      <trkpt lat="43.94952" lon="2.36641">
        <ele>347</ele>
        <time>2021-04-18T13:17:23Z</time>
      </trkpt>
      <trkpt lat="43.94953" lon="2.36639">
        <ele>347</ele>
        <time>2021-04-18T13:17:24Z</time>
      </trkpt>
      <trkpt lat="43.94954" lon="2.36638">
        <ele>347</ele>
        <time>2021-04-18T13:17:25Z</time>
      </trkpt>
      <trkpt lat="43.94955" lon="2.36637">
        <ele>347</ele>
        <time>2021-04-18T13:17:26Z</time>
      </trkpt>
      <trkpt lat="43.94956" lon="2.36637">
        <ele>348</ele>
        <time>2021-04-18T13:17:27Z</time>
      </trkpt>
      <trkpt lat="43.94957" lon="2.36636">
        <ele>349</ele>
        <time>2021-04-18T13:17:28Z</time>
      </trkpt>
      <trkpt lat="43.94958" lon="2.36635">
        <ele>349</ele>
        <time>2021-04-18T13:17:29Z</time>
      </trkpt>
      <trkpt lat="43.94958" lon="2.36633">
        <ele>349</ele>
        <time>2021-04-18T13:17:30Z</time>
      </trkpt>
      <trkpt lat="43.94959" lon="2.36632">
        <ele>350</ele>
        <time>2021-04-18T13:17:31Z</time>
      </trkpt>
      <trkpt lat="43.94959" lon="2.36631">
        <ele>349</ele>
        <time>2021-04-18T13:17:32Z</time>
      </trkpt>
      <trkpt lat="43.9496" lon="2.3663">
        <ele>350</ele>
        <time>2021-04-18T13:17:33Z</time>
      </trkpt>
      <trkpt lat="43.94961" lon="2.36628">
        <ele>351</ele>
        <time>2021-04-18T13:17:34Z</time>
      </trkpt>
      <trkpt lat="43.94962" lon="2.36627">
        <ele>351</ele>
        <time>2021-04-18T13:17:35Z</time>
      </trkpt>
      <trkpt lat="43.94963" lon="2.36626">
        <ele>351</ele>
        <time>2021-04-18T13:17:36Z</time>
      </trkpt>
      <trkpt lat="43.94964" lon="2.36625">
        <ele>352</ele>
        <time>2021-04-18T13:17:37Z</time>
      </trkpt>
      <trkpt lat="43.94964" lon="2.36624">
        <ele>352</ele>
        <time>2021-04-18T13:17:38Z</time>
      </trkpt>
      <trkpt lat="43.94965" lon="2.36623">
        <ele>352</ele>
        <time>2021-04-18T13:17:39Z</time>
      </trkpt>
      <trkpt lat="43.94965" lon="2.36622">
        <ele>352</ele>
        <time>2021-04-18T13:17:40Z</time>
      </trkpt>
      <trkpt lat="43.94965" lon="2.36621">
        <ele>352</ele>
        <time>2021-04-18T13:17:41Z</time>
      </trkpt>
      <trkpt lat="43.94965" lon="2.3662">
        <ele>352</ele>
        <time>2021-04-18T13:17:42Z</time>
      </trkpt>
      <trkpt lat="43.94966" lon="2.3662">
        <ele>352</ele>
        <time>2021-04-18T13:17:43Z</time>
      </trkpt>
      <trkpt lat="43.94967" lon="2.36618">
        <ele>352</ele>
        <time>2021-04-18T13:17:44Z</time>
      </trkpt>
      <trkpt lat="43.94967" lon="2.36617">
        <ele>352</ele>
        <time>2021-04-18T13:17:45Z</time>
      </trkpt>
      <trkpt lat="43.94968" lon="2.36616">
        <ele>352</ele>
        <time>2021-04-18T13:17:46Z</time>
      </trkpt>
      <trkpt lat="43.94968" lon="2.36615">
        <ele>352</ele>
        <time>2021-04-18T13:17:47Z</time>
      </trkpt>
      <trkpt lat="43.94968" lon="2.36614">
        <ele>352</ele>
        <time>2021-04-18T13:17:48Z</time>
      </trkpt>
      <trkpt lat="43.9497" lon="2.36614">
        <ele>353</ele>
        <time>2021-04-18T13:17:49Z</time>
      </trkpt>
      <trkpt lat="43.94971" lon="2.36614">
        <ele>353</ele>
        <time>2021-04-18T13:17:50Z</time>
      </trkpt>
      <trkpt lat="43.94972" lon="2.36612">
        <ele>354</ele>
        <time>2021-04-18T13:17:51Z</time>
      </trkpt>
      <trkpt lat="43.94973" lon="2.36611">
        <ele>353</ele>
        <time>2021-04-18T13:17:52Z</time>
      </trkpt>
      <trkpt lat="43.94975" lon="2.3661">
        <ele>354</ele>
        <time>2021-04-18T13:17:53Z</time>
      </trkpt>
      <trkpt lat="43.94976" lon="2.36609">
        <ele>354</ele>
        <time>2021-04-18T13:17:54Z</time>
      </trkpt>
      <trkpt lat="43.94977" lon="2.36608">
        <ele>354</ele>
        <time>2021-04-18T13:17:55Z</time>
      </trkpt>
      <trkpt lat="43.94978" lon="2.36606">
        <ele>355</ele>
        <time>2021-04-18T13:17:56Z</time>
      </trkpt>
      <trkpt lat="43.94978" lon="2.36605">
        <ele>355</ele>
        <time>2021-04-18T13:17:57Z</time>
      </trkpt>
      <trkpt lat="43.94979" lon="2.36605">
        <ele>355</ele>
        <time>2021-04-18T13:17:58Z</time>
      </trkpt>
      <trkpt lat="43.9498" lon="2.36604">
        <ele>355</ele>
        <time>2021-04-18T13:17:59Z</time>
      </trkpt>
      <trkpt lat="43.94981" lon="2.36602">
        <ele>355</ele>
        <time>2021-04-18T13:18:00Z</time>
      </trkpt>
      <trkpt lat="43.94982" lon="2.36601">
        <ele>356</ele>
        <time>2021-04-18T13:18:01Z</time>
      </trkpt>
      <trkpt lat="43.94983" lon="2.36599">
        <ele>356</ele>
        <time>2021-04-18T13:18:02Z</time>
      </trkpt>
      <trkpt lat="43.94984" lon="2.36599">
        <ele>357</ele>
        <time>2021-04-18T13:18:03Z</time>
      </trkpt>
      <trkpt lat="43.94985" lon="2.36598">
        <ele>356</ele>
        <time>2021-04-18T13:18:04Z</time>
      </trkpt>
      <trkpt lat="43.94986" lon="2.36598">
        <ele>356</ele>
        <time>2021-04-18T13:18:05Z</time>
      </trkpt>
      <trkpt lat="43.94988" lon="2.36598">
        <ele>356</ele>
        <time>2021-04-18T13:18:06Z</time>
      </trkpt>
      <trkpt lat="43.94989" lon="2.36597">
        <ele>355</ele>
        <time>2021-04-18T13:18:07Z</time>
      </trkpt>
      <trkpt lat="43.9499" lon="2.36596">
        <ele>355</ele>
        <time>2021-04-18T13:18:08Z</time>
      </trkpt>
      <trkpt lat="43.9499" lon="2.36595">
        <ele>355</ele>
        <time>2021-04-18T13:18:09Z</time>
      </trkpt>
      <trkpt lat="43.94991" lon="2.36595">
        <ele>355</ele>
        <time>2021-04-18T13:18:10Z</time>
      </trkpt>
      <trkpt lat="43.94991" lon="2.36594">
        <ele>356</ele>
        <time>2021-04-18T13:18:11Z</time>
      </trkpt>
      <trkpt lat="43.94992" lon="2.36593">
        <ele>356</ele>
        <time>2021-04-18T13:18:12Z</time>
      </trkpt>
      <trkpt lat="43.94993" lon="2.36592">
        <ele>356</ele>
        <time>2021-04-18T13:18:13Z</time>
      </trkpt>
      <trkpt lat="43.94994" lon="2.36591">
        <ele>356</ele>
        <time>2021-04-18T13:18:14Z</time>
      </trkpt>
      <trkpt lat="43.94994" lon="2.3659">
        <ele>356</ele>
        <time>2021-04-18T13:18:15Z</time>
      </trkpt>
      <trkpt lat="43.94995" lon="2.3659">
        <ele>356</ele>
        <time>2021-04-18T13:18:16Z</time>
      </trkpt>
      <trkpt lat="43.94996" lon="2.36589">
        <ele>357</ele>
        <time>2021-04-18T13:18:17Z</time>
      </trkpt>
      <trkpt lat="43.94996" lon="2.36588">
        <ele>357</ele>
        <time>2021-04-18T13:18:18Z</time>
      </trkpt>
      <trkpt lat="43.94997" lon="2.36588">
        <ele>357</ele>
        <time>2021-04-18T13:18:19Z</time>
      </trkpt>
      <trkpt lat="43.94999" lon="2.36587">
        <ele>357</ele>
        <time>2021-04-18T13:18:20Z</time>
      </trkpt>
      <trkpt lat="43.95" lon="2.36586">
        <ele>358</ele>
        <time>2021-04-18T13:18:21Z</time>
      </trkpt>
      <trkpt lat="43.95001" lon="2.36586">
        <ele>358</ele>
        <time>2021-04-18T13:18:22Z</time>
      </trkpt>
      <trkpt lat="43.95001" lon="2.36586">
        <ele>358</ele>
        <time>2021-04-18T13:18:23Z</time>
      </trkpt>
      <trkpt lat="43.95002" lon="2.36586">
        <ele>358</ele>
        <time>2021-04-18T13:18:24Z</time>
      </trkpt>
      <trkpt lat="43.95003" lon="2.36585">
        <ele>358</ele>
        <time>2021-04-18T13:18:25Z</time>
      </trkpt>
      <trkpt lat="43.95003" lon="2.36584">
        <ele>358</ele>
        <time>2021-04-18T13:18:26Z</time>
      </trkpt>
      <trkpt lat="43.95004" lon="2.36583">
        <ele>358</ele>
        <time>2021-04-18T13:18:27Z</time>
      </trkpt>
      <trkpt lat="43.95005" lon="2.36583">
        <ele>358</ele>
        <time>2021-04-18T13:18:28Z</time>
      </trkpt>
      <trkpt lat="43.95006" lon="2.36583">
        <ele>358</ele>
        <time>2021-04-18T13:18:29Z</time>
      </trkpt>
      <trkpt lat="43.95007" lon="2.36582">
        <ele>358</ele>
        <time>2021-04-18T13:18:30Z</time>
      </trkpt>
      <trkpt lat="43.95009" lon="2.36582">
        <ele>359</ele>
        <time>2021-04-18T13:18:31Z</time>
      </trkpt>
      <trkpt lat="43.9501" lon="2.36582">
        <ele>358</ele>
        <time>2021-04-18T13:18:32Z</time>
      </trkpt>
      <trkpt lat="43.9501" lon="2.36582">
        <ele>359</ele>
        <time>2021-04-18T13:18:33Z</time>
      </trkpt>
      <trkpt lat="43.95011" lon="2.36582">
        <ele>360</ele>
        <time>2021-04-18T13:18:34Z</time>
      </trkpt>
      <trkpt lat="43.95013" lon="2.36582">
        <ele>360</ele>
        <time>2021-04-18T13:18:35Z</time>
      </trkpt>
      <trkpt lat="43.95014" lon="2.36582">
        <ele>360</ele>
        <time>2021-04-18T13:18:36Z</time>
      </trkpt>
      <trkpt lat="43.95015" lon="2.36581">
        <ele>360</ele>
        <time>2021-04-18T13:18:37Z</time>
      </trkpt>
      <trkpt lat="43.95016" lon="2.3658">
        <ele>361</ele>
        <time>2021-04-18T13:18:38Z</time>
      </trkpt>
      <trkpt lat="43.95017" lon="2.3658">
        <ele>361</ele>
        <time>2021-04-18T13:18:39Z</time>
      </trkpt>
      <trkpt lat="43.95019" lon="2.36578">
        <ele>361</ele>
        <time>2021-04-18T13:18:40Z</time>
      </trkpt>
      <trkpt lat="43.9502" lon="2.36577">
        <ele>361</ele>
        <time>2021-04-18T13:18:41Z</time>
      </trkpt>
      <trkpt lat="43.95021" lon="2.36576">
        <ele>361</ele>
        <time>2021-04-18T13:18:42Z</time>
      </trkpt>
      <trkpt lat="43.95023" lon="2.36575">
        <ele>360</ele>
        <time>2021-04-18T13:18:43Z</time>
      </trkpt>
      <trkpt lat="43.95025" lon="2.36574">
        <ele>361</ele>
        <time>2021-04-18T13:18:44Z</time>
      </trkpt>
      <trkpt lat="43.95026" lon="2.36573">
        <ele>361</ele>
        <time>2021-04-18T13:18:45Z</time>
      </trkpt>
      <trkpt lat="43.95027" lon="2.36572">
        <ele>361</ele>
        <time>2021-04-18T13:18:46Z</time>
      </trkpt>
      <trkpt lat="43.95028" lon="2.36572">
        <ele>361</ele>
        <time>2021-04-18T13:18:47Z</time>
      </trkpt>
      <trkpt lat="43.95028" lon="2.36572">
        <ele>361</ele>
        <time>2021-04-18T13:18:48Z</time>
      </trkpt>
      <trkpt lat="43.95029" lon="2.36572">
        <ele>362</ele>
        <time>2021-04-18T13:18:49Z</time>
      </trkpt>
      <trkpt lat="43.95029" lon="2.36571">
        <ele>361</ele>
        <time>2021-04-18T13:18:50Z</time>
      </trkpt>
      <trkpt lat="43.9503" lon="2.36571">
        <ele>362</ele>
        <time>2021-04-18T13:18:51Z</time>
      </trkpt>
      <trkpt lat="43.95031" lon="2.36569">
        <ele>363</ele>
        <time>2021-04-18T13:18:52Z</time>
      </trkpt>
      <trkpt lat="43.95032" lon="2.36568">
        <ele>363</ele>
        <time>2021-04-18T13:18:53Z</time>
      </trkpt>
      <trkpt lat="43.95033" lon="2.36567">
        <ele>363</ele>
        <time>2021-04-18T13:18:54Z</time>
      </trkpt>
      <trkpt lat="43.95034" lon="2.36567">
        <ele>364</ele>
        <time>2021-04-18T13:18:55Z</time>
      </trkpt>
      <trkpt lat="43.95034" lon="2.36566">
        <ele>364</ele>
        <time>2021-04-18T13:18:56Z</time>
      </trkpt>
      <trkpt lat="43.95036" lon="2.36565">
        <ele>364</ele>
        <time>2021-04-18T13:18:57Z</time>
      </trkpt>
      <trkpt lat="43.95036" lon="2.36563">
        <ele>364</ele>
        <time>2021-04-18T13:18:58Z</time>
      </trkpt>
      <trkpt lat="43.95038" lon="2.36562">
        <ele>365</ele>
        <time>2021-04-18T13:18:59Z</time>
      </trkpt>
      <trkpt lat="43.95039" lon="2.36561">
        <ele>364</ele>
        <time>2021-04-18T13:19:00Z</time>
      </trkpt>
      <trkpt lat="43.9504" lon="2.3656">
        <ele>365</ele>
        <time>2021-04-18T13:19:01Z</time>
      </trkpt>
      <trkpt lat="43.95041" lon="2.36558">
        <ele>365</ele>
        <time>2021-04-18T13:19:02Z</time>
      </trkpt>
      <trkpt lat="43.95041" lon="2.36556">
        <ele>365</ele>
        <time>2021-04-18T13:19:03Z</time>
      </trkpt>
      <trkpt lat="43.95042" lon="2.36555">
        <ele>365</ele>
        <time>2021-04-18T13:19:04Z</time>
      </trkpt>
      <trkpt lat="43.95043" lon="2.36552">
        <ele>365</ele>
        <time>2021-04-18T13:19:05Z</time>
      </trkpt>
      <trkpt lat="43.95044" lon="2.36551">
        <ele>366</ele>
        <time>2021-04-18T13:19:06Z</time>
      </trkpt>
      <trkpt lat="43.95044" lon="2.3655">
        <ele>366</ele>
        <time>2021-04-18T13:19:07Z</time>
      </trkpt>
      <trkpt lat="43.95045" lon="2.36548">
        <ele>366</ele>
        <time>2021-04-18T13:19:08Z</time>
      </trkpt>
      <trkpt lat="43.95046" lon="2.36547">
        <ele>367</ele>
        <time>2021-04-18T13:19:09Z</time>
      </trkpt>
      <trkpt lat="43.95047" lon="2.36545">
        <ele>367</ele>
        <time>2021-04-18T13:19:10Z</time>
      </trkpt>
      <trkpt lat="43.95048" lon="2.36543">
        <ele>367</ele>
        <time>2021-04-18T13:19:11Z</time>
      </trkpt>
      <trkpt lat="43.95049" lon="2.36541">
        <ele>366</ele>
        <time>2021-04-18T13:19:12Z</time>
      </trkpt>
      <trkpt lat="43.95049" lon="2.3654">
        <ele>366</ele>
        <time>2021-04-18T13:19:13Z</time>
      </trkpt>
      <trkpt lat="43.9505" lon="2.36538">
        <ele>367</ele>
        <time>2021-04-18T13:19:14Z</time>
      </trkpt>
      <trkpt lat="43.9505" lon="2.36536">
        <ele>367</ele>
        <time>2021-04-18T13:19:15Z</time>
      </trkpt>
      <trkpt lat="43.9505" lon="2.36535">
        <ele>367</ele>
        <time>2021-04-18T13:19:16Z</time>
      </trkpt>
      <trkpt lat="43.9505" lon="2.36534">
        <ele>367</ele>
        <time>2021-04-18T13:19:17Z</time>
      </trkpt>
      <trkpt lat="43.95051" lon="2.36532">
        <ele>368</ele>
        <time>2021-04-18T13:19:18Z</time>
      </trkpt>
      <trkpt lat="43.95052" lon="2.36531">
        <ele>368</ele>
        <time>2021-04-18T13:19:19Z</time>
      </trkpt>
      <trkpt lat="43.95052" lon="2.36529">
        <ele>368</ele>
        <time>2021-04-18T13:19:20Z</time>
      </trkpt>
      <trkpt lat="43.95053" lon="2.36526">
        <ele>368</ele>
        <time>2021-04-18T13:19:21Z</time>
      </trkpt>
      <trkpt lat="43.95054" lon="2.36525">
        <ele>368</ele>
        <time>2021-04-18T13:19:22Z</time>
      </trkpt>
      <trkpt lat="43.95054" lon="2.36522">
        <ele>369</ele>
        <time>2021-04-18T13:19:23Z</time>
      </trkpt>
      <trkpt lat="43.95054" lon="2.3652">
        <ele>368</ele>
        <time>2021-04-18T13:19:24Z</time>
      </trkpt>
      <trkpt lat="43.95054" lon="2.36518">
        <ele>368</ele>
        <time>2021-04-18T13:19:25Z</time>
      </trkpt>
      <trkpt lat="43.95054" lon="2.36516">
        <ele>369</ele>
        <time>2021-04-18T13:19:26Z</time>
      </trkpt>
      <trkpt lat="43.95054" lon="2.36514">
        <ele>369</ele>
        <time>2021-04-18T13:19:27Z</time>
      </trkpt>
      <trkpt lat="43.95054" lon="2.36513">
        <ele>369</ele>
        <time>2021-04-18T13:19:28Z</time>
      </trkpt>
      <trkpt lat="43.95054" lon="2.36511">
        <ele>370</ele>
        <time>2021-04-18T13:19:29Z</time>
      </trkpt>
      <trkpt lat="43.95054" lon="2.36509">
        <ele>370</ele>
        <time>2021-04-18T13:19:30Z</time>
      </trkpt>
      <trkpt lat="43.95055" lon="2.36508">
        <ele>369</ele>
        <time>2021-04-18T13:19:31Z</time>
      </trkpt>
      <trkpt lat="43.95055" lon="2.36506">
        <ele>369</ele>
        <time>2021-04-18T13:19:32Z</time>
      </trkpt>
      <trkpt lat="43.95056" lon="2.36504">
        <ele>369</ele>
        <time>2021-04-18T13:19:33Z</time>
      </trkpt>
      <trkpt lat="43.95056" lon="2.36503">
        <ele>368</ele>
        <time>2021-04-18T13:19:34Z</time>
      </trkpt>
      <trkpt lat="43.95057" lon="2.36501">
        <ele>369</ele>
        <time>2021-04-18T13:19:35Z</time>
      </trkpt>
      <trkpt lat="43.95057" lon="2.36499">
        <ele>369</ele>
        <time>2021-04-18T13:19:36Z</time>
      </trkpt>
      <trkpt lat="43.95057" lon="2.36497">
        <ele>369</ele>
        <time>2021-04-18T13:19:37Z</time>
      </trkpt>
      <trkpt lat="43.95058" lon="2.36495">
        <ele>370</ele>
        <time>2021-04-18T13:19:38Z</time>
      </trkpt>
      <trkpt lat="43.95058" lon="2.36494">
        <ele>370</ele>
        <time>2021-04-18T13:19:39Z</time>
      </trkpt>
      <trkpt lat="43.95059" lon="2.36492">
        <ele>369</ele>
        <time>2021-04-18T13:19:40Z</time>
      </trkpt>
      <trkpt lat="43.9506" lon="2.3649">
        <ele>370</ele>
        <time>2021-04-18T13:19:41Z</time>
      </trkpt>
      <trkpt lat="43.9506" lon="2.36489">
        <ele>370</ele>
        <time>2021-04-18T13:19:42Z</time>
      </trkpt>
      <trkpt lat="43.95061" lon="2.36488">
        <ele>370</ele>
        <time>2021-04-18T13:19:43Z</time>
      </trkpt>
      <trkpt lat="43.95062" lon="2.36487">
        <ele>370</ele>
        <time>2021-04-18T13:19:44Z</time>
      </trkpt>
      <trkpt lat="43.95063" lon="2.36486">
        <ele>369</ele>
        <time>2021-04-18T13:19:45Z</time>
      </trkpt>
      <trkpt lat="43.95063" lon="2.36486">
        <ele>369</ele>
        <time>2021-04-18T13:19:46Z</time>
      </trkpt>
      <trkpt lat="43.95063" lon="2.36484">
        <ele>369</ele>
        <time>2021-04-18T13:19:47Z</time>
      </trkpt>
      <trkpt lat="43.95064" lon="2.36483">
        <ele>369</ele>
        <time>2021-04-18T13:19:48Z</time>
      </trkpt>
      <trkpt lat="43.95065" lon="2.36481">
        <ele>369</ele>
        <time>2021-04-18T13:19:49Z</time>
      </trkpt>
      <trkpt lat="43.95065" lon="2.3648">
        <ele>368</ele>
        <time>2021-04-18T13:19:50Z</time>
      </trkpt>
      <trkpt lat="43.95066" lon="2.36477">
        <ele>369</ele>
        <time>2021-04-18T13:19:51Z</time>
      </trkpt>
      <trkpt lat="43.95067" lon="2.36475">
        <ele>369</ele>
        <time>2021-04-18T13:19:52Z</time>
      </trkpt>
      <trkpt lat="43.95067" lon="2.36473">
        <ele>368</ele>
        <time>2021-04-18T13:19:53Z</time>
      </trkpt>
      <trkpt lat="43.95068" lon="2.36471">
        <ele>369</ele>
        <time>2021-04-18T13:19:54Z</time>
      </trkpt>
      <trkpt lat="43.95069" lon="2.36469">
        <ele>368</ele>
        <time>2021-04-18T13:19:55Z</time>
      </trkpt>
      <trkpt lat="43.9507" lon="2.36466">
        <ele>368</ele>
        <time>2021-04-18T13:19:56Z</time>
      </trkpt>
      <trkpt lat="43.9507" lon="2.36464">
        <ele>368</ele>
        <time>2021-04-18T13:19:57Z</time>
      </trkpt>
      <trkpt lat="43.95071" lon="2.36462">
        <ele>368</ele>
        <time>2021-04-18T13:19:58Z</time>
      </trkpt>
      <trkpt lat="43.95072" lon="2.3646">
        <ele>368</ele>
        <time>2021-04-18T13:19:59Z</time>
      </trkpt>
      <trkpt lat="43.95073" lon="2.36458">
        <ele>369</ele>
        <time>2021-04-18T13:20:00Z</time>
      </trkpt>
      <trkpt lat="43.95074" lon="2.36456">
        <ele>369</ele>
        <time>2021-04-18T13:20:01Z</time>
      </trkpt>
      <trkpt lat="43.95075" lon="2.36454">
        <ele>370</ele>
        <time>2021-04-18T13:20:02Z</time>
      </trkpt>
      <trkpt lat="43.95075" lon="2.36453">
        <ele>370</ele>
        <time>2021-04-18T13:20:03Z</time>
      </trkpt>
      <trkpt lat="43.95076" lon="2.36452">
        <ele>370</ele>
        <time>2021-04-18T13:20:04Z</time>
      </trkpt>
      <trkpt lat="43.95077" lon="2.36451">
        <ele>370</ele>
        <time>2021-04-18T13:20:05Z</time>
      </trkpt>
      <trkpt lat="43.95077" lon="2.3645">
        <ele>370</ele>
        <time>2021-04-18T13:20:06Z</time>
      </trkpt>
      <trkpt lat="43.95078" lon="2.36449">
        <ele>371</ele>
        <time>2021-04-18T13:20:07Z</time>
      </trkpt>
      <trkpt lat="43.95079" lon="2.36449">
        <ele>371</ele>
        <time>2021-04-18T13:20:08Z</time>
      </trkpt>
      <trkpt lat="43.95079" lon="2.36448">
        <ele>371</ele>
        <time>2021-04-18T13:20:09Z</time>
      </trkpt>
      <trkpt lat="43.95079" lon="2.36448">
        <ele>371</ele>
        <time>2021-04-18T13:20:10Z</time>
      </trkpt>
      <trkpt lat="43.95079" lon="2.36448">
        <ele>371</ele>
        <time>2021-04-18T13:20:11Z</time>
      </trkpt>
      <trkpt lat="43.95082" lon="2.36447">
        <ele>372</ele>
        <time>2021-04-18T13:20:12Z</time>
      </trkpt>
      <trkpt lat="43.95083" lon="2.36445">
        <ele>373</ele>
        <time>2021-04-18T13:20:13Z</time>
      </trkpt>
      <trkpt lat="43.95084" lon="2.36443">
        <ele>372</ele>
        <time>2021-04-18T13:20:14Z</time>
      </trkpt>
      <trkpt lat="43.95085" lon="2.36442">
        <ele>372</ele>
        <time>2021-04-18T13:20:15Z</time>
      </trkpt>
      <trkpt lat="43.95086" lon="2.3644">
        <ele>371</ele>
        <time>2021-04-18T13:20:16Z</time>
      </trkpt>
      <trkpt lat="43.95087" lon="2.36438">
        <ele>371</ele>
        <time>2021-04-18T13:20:17Z</time>
      </trkpt>
      <trkpt lat="43.95087" lon="2.36436">
        <ele>372</ele>
        <time>2021-04-18T13:20:18Z</time>
      </trkpt>
      <trkpt lat="43.95089" lon="2.36433">
        <ele>372</ele>
        <time>2021-04-18T13:20:19Z</time>
      </trkpt>
      <trkpt lat="43.9509" lon="2.36431">
        <ele>372</ele>
        <time>2021-04-18T13:20:20Z</time>
      </trkpt>
      <trkpt lat="43.95091" lon="2.3643">
        <ele>372</ele>
        <time>2021-04-18T13:20:21Z</time>
      </trkpt>
      <trkpt lat="43.95092" lon="2.36428">
        <ele>373</ele>
        <time>2021-04-18T13:20:22Z</time>
      </trkpt>
      <trkpt lat="43.95094" lon="2.36426">
        <ele>373</ele>
        <time>2021-04-18T13:20:23Z</time>
      </trkpt>
      <trkpt lat="43.95094" lon="2.36424">
        <ele>373</ele>
        <time>2021-04-18T13:20:24Z</time>
      </trkpt>
      <trkpt lat="43.95095" lon="2.36422">
        <ele>373</ele>
        <time>2021-04-18T13:20:25Z</time>
      </trkpt>
      <trkpt lat="43.95097" lon="2.36421">
        <ele>374</ele>
        <time>2021-04-18T13:20:26Z</time>
      </trkpt>
      <trkpt lat="43.95097" lon="2.36419">
        <ele>374</ele>
        <time>2021-04-18T13:20:27Z</time>
      </trkpt>
      <trkpt lat="43.95098" lon="2.36417">
        <ele>375</ele>
        <time>2021-04-18T13:20:28Z</time>
      </trkpt>
      <trkpt lat="43.95099" lon="2.36415">
        <ele>375</ele>
        <time>2021-04-18T13:20:29Z</time>
      </trkpt>
      <trkpt lat="43.95099" lon="2.36414">
        <ele>376</ele>
        <time>2021-04-18T13:20:30Z</time>
      </trkpt>
      <trkpt lat="43.951" lon="2.36413">
        <ele>376</ele>
        <time>2021-04-18T13:20:31Z</time>
      </trkpt>
      <trkpt lat="43.95101" lon="2.36411">
        <ele>376</ele>
        <time>2021-04-18T13:20:32Z</time>
      </trkpt>
      <trkpt lat="43.95103" lon="2.36409">
        <ele>376</ele>
        <time>2021-04-18T13:20:33Z</time>
      </trkpt>
      <trkpt lat="43.95104" lon="2.36407">
        <ele>376</ele>
        <time>2021-04-18T13:20:34Z</time>
      </trkpt>
      <trkpt lat="43.95105" lon="2.36405">
        <ele>376</ele>
        <time>2021-04-18T13:20:35Z</time>
      </trkpt>
      <trkpt lat="43.95105" lon="2.36404">
        <ele>376</ele>
        <time>2021-04-18T13:20:36Z</time>
      </trkpt>
      <trkpt lat="43.95107" lon="2.36403">
        <ele>377</ele>
        <time>2021-04-18T13:20:37Z</time>
      </trkpt>
      <trkpt lat="43.95107" lon="2.36401">
        <ele>377</ele>
        <time>2021-04-18T13:20:38Z</time>
      </trkpt>
      <trkpt lat="43.95108" lon="2.36399">
        <ele>378</ele>
        <time>2021-04-18T13:20:39Z</time>
      </trkpt>
      <trkpt lat="43.95109" lon="2.36398">
        <ele>378</ele>
        <time>2021-04-18T13:20:40Z</time>
      </trkpt>
      <trkpt lat="43.95109" lon="2.36396">
        <ele>378</ele>
        <time>2021-04-18T13:20:41Z</time>
      </trkpt>
      <trkpt lat="43.9511" lon="2.36394">
        <ele>378</ele>
        <time>2021-04-18T13:20:42Z</time>
      </trkpt>
      <trkpt lat="43.9511" lon="2.36392">
        <ele>378</ele>
        <time>2021-04-18T13:20:43Z</time>
      </trkpt>
      <trkpt lat="43.95109" lon="2.3639">
        <ele>378</ele>
        <time>2021-04-18T13:20:44Z</time>
      </trkpt>
      <trkpt lat="43.95108" lon="2.36389">
        <ele>379</ele>
        <time>2021-04-18T13:20:45Z</time>
      </trkpt>
      <trkpt lat="43.95107" lon="2.36389">
        <ele>378</ele>
        <time>2021-04-18T13:20:46Z</time>
      </trkpt>
      <trkpt lat="43.95107" lon="2.36387">
        <ele>378</ele>
        <time>2021-04-18T13:20:47Z</time>
      </trkpt>
      <trkpt lat="43.95106" lon="2.36387">
        <ele>379</ele>
        <time>2021-04-18T13:20:48Z</time>
      </trkpt>
      <trkpt lat="43.95105" lon="2.36386">
        <ele>378</ele>
        <time>2021-04-18T13:20:49Z</time>
      </trkpt>
      <trkpt lat="43.95104" lon="2.36386">
        <ele>379</ele>
        <time>2021-04-18T13:20:50Z</time>
      </trkpt>
      <trkpt lat="43.95103" lon="2.36386">
        <ele>379</ele>
        <time>2021-04-18T13:20:51Z</time>
      </trkpt>
      <trkpt lat="43.95102" lon="2.36386">
        <ele>379</ele>
        <time>2021-04-18T13:20:52Z</time>
      </trkpt>
      <trkpt lat="43.95101" lon="2.36385">
        <ele>379</ele>
        <time>2021-04-18T13:20:53Z</time>
      </trkpt>
      <trkpt lat="43.951" lon="2.36384">
        <ele>379</ele>
        <time>2021-04-18T13:20:54Z</time>
      </trkpt>
      <trkpt lat="43.95099" lon="2.36384">
        <ele>379</ele>
        <time>2021-04-18T13:20:55Z</time>
      </trkpt>
      <trkpt lat="43.95099" lon="2.36384">
        <ele>379</ele>
        <time>2021-04-18T13:20:56Z</time>
      </trkpt>
      <trkpt lat="43.95099" lon="2.36382">
        <ele>379</ele>
        <time>2021-04-18T13:20:57Z</time>
      </trkpt>
      <trkpt lat="43.95098" lon="2.36381">
        <ele>379</ele>
        <time>2021-04-18T13:20:58Z</time>
      </trkpt>
      <trkpt lat="43.95097" lon="2.3638">
        <ele>379</ele>
        <time>2021-04-18T13:20:59Z</time>
      </trkpt>
      <trkpt lat="43.95096" lon="2.3638">
        <ele>379</ele>
        <time>2021-04-18T13:21:00Z</time>
      </trkpt>
      <trkpt lat="43.95096" lon="2.36378">
        <ele>379</ele>
        <time>2021-04-18T13:21:01Z</time>
      </trkpt>
      <trkpt lat="43.95095" lon="2.36377">
        <ele>380</ele>
        <time>2021-04-18T13:21:02Z</time>
      </trkpt>
      <trkpt lat="43.95094" lon="2.36376">
        <ele>380</ele>
        <time>2021-04-18T13:21:03Z</time>
      </trkpt>
      <trkpt lat="43.95094" lon="2.36375">
        <ele>380</ele>
        <time>2021-04-18T13:21:04Z</time>
      </trkpt>
      <trkpt lat="43.95093" lon="2.36373">
        <ele>381</ele>
        <time>2021-04-18T13:21:05Z</time>
      </trkpt>
      <trkpt lat="43.95092" lon="2.36372">
        <ele>381</ele>
        <time>2021-04-18T13:21:06Z</time>
      </trkpt>
      <trkpt lat="43.95091" lon="2.36371">
        <ele>381</ele>
        <time>2021-04-18T13:21:07Z</time>
      </trkpt>
      <trkpt lat="43.9509" lon="2.3637">
        <ele>381</ele>
        <time>2021-04-18T13:21:08Z</time>
      </trkpt>
      <trkpt lat="43.95089" lon="2.36369">
        <ele>381</ele>
        <time>2021-04-18T13:21:09Z</time>
      </trkpt>
      <trkpt lat="43.95087" lon="2.36368">
        <ele>381</ele>
        <time>2021-04-18T13:21:10Z</time>
      </trkpt>
      <trkpt lat="43.95086" lon="2.36368">
        <ele>381</ele>
        <time>2021-04-18T13:21:11Z</time>
      </trkpt>
      <trkpt lat="43.95084" lon="2.36368">
        <ele>381</ele>
        <time>2021-04-18T13:21:12Z</time>
      </trkpt>
      <trkpt lat="43.95083" lon="2.36368">
        <ele>381</ele>
        <time>2021-04-18T13:21:13Z</time>
      </trkpt>
      <trkpt lat="43.95081" lon="2.36368">
        <ele>382</ele>
        <time>2021-04-18T13:21:14Z</time>
      </trkpt>
      <trkpt lat="43.95081" lon="2.36369">
        <ele>382</ele>
        <time>2021-04-18T13:21:15Z</time>
      </trkpt>
      <trkpt lat="43.95079" lon="2.36369">
        <ele>382</ele>
        <time>2021-04-18T13:21:16Z</time>
      </trkpt>
      <trkpt lat="43.95078" lon="2.36369">
        <ele>381</ele>
        <time>2021-04-18T13:21:17Z</time>
      </trkpt>
      <trkpt lat="43.95077" lon="2.3637">
        <ele>381</ele>
        <time>2021-04-18T13:21:18Z</time>
      </trkpt>
      <trkpt lat="43.95077" lon="2.36371">
        <ele>380</ele>
        <time>2021-04-18T13:21:19Z</time>
      </trkpt>
      <trkpt lat="43.95076" lon="2.36372">
        <ele>380</ele>
        <time>2021-04-18T13:21:20Z</time>
      </trkpt>
      <trkpt lat="43.95076" lon="2.36373">
        <ele>381</ele>
        <time>2021-04-18T13:21:21Z</time>
      </trkpt>
      <trkpt lat="43.95075" lon="2.36374">
        <ele>381</ele>
        <time>2021-04-18T13:21:22Z</time>
      </trkpt>
      <trkpt lat="43.95073" lon="2.36374">
        <ele>380</ele>
        <time>2021-04-18T13:21:23Z</time>
      </trkpt>
      <trkpt lat="43.95073" lon="2.36375">
        <ele>380</ele>
        <time>2021-04-18T13:21:24Z</time>
      </trkpt>
      <trkpt lat="43.95071" lon="2.36376">
        <ele>380</ele>
        <time>2021-04-18T13:21:25Z</time>
      </trkpt>
      <trkpt lat="43.9507" lon="2.36376">
        <ele>380</ele>
        <time>2021-04-18T13:21:26Z</time>
      </trkpt>
      <trkpt lat="43.95069" lon="2.36375">
        <ele>380</ele>
        <time>2021-04-18T13:21:27Z</time>
      </trkpt>
      <trkpt lat="43.95068" lon="2.36375">
        <ele>381</ele>
        <time>2021-04-18T13:21:28Z</time>
      </trkpt>
      <trkpt lat="43.95067" lon="2.36375">
        <ele>380</ele>
        <time>2021-04-18T13:21:29Z</time>
      </trkpt>
      <trkpt lat="43.95065" lon="2.36375">
        <ele>381</ele>
        <time>2021-04-18T13:21:30Z</time>
      </trkpt>
      <trkpt lat="43.95065" lon="2.36376">
        <ele>381</ele>
        <time>2021-04-18T13:21:31Z</time>
      </trkpt>
      <trkpt lat="43.95063" lon="2.36375">
        <ele>381</ele>
        <time>2021-04-18T13:21:32Z</time>
      </trkpt>
      <trkpt lat="43.95062" lon="2.36375">
        <ele>382</ele>
        <time>2021-04-18T13:21:33Z</time>
      </trkpt>
      <trkpt lat="43.95061" lon="2.36376">
        <ele>383</ele>
        <time>2021-04-18T13:21:34Z</time>
      </trkpt>
      <trkpt lat="43.9506" lon="2.36376">
        <ele>383</ele>
        <time>2021-04-18T13:21:35Z</time>
      </trkpt>
      <trkpt lat="43.95059" lon="2.36377">
        <ele>383</ele>
        <time>2021-04-18T13:21:36Z</time>
      </trkpt>
      <trkpt lat="43.95058" lon="2.36378">
        <ele>384</ele>
        <time>2021-04-18T13:21:37Z</time>
      </trkpt>
      <trkpt lat="43.95057" lon="2.36378">
        <ele>384</ele>
        <time>2021-04-18T13:21:38Z</time>
      </trkpt>
      <trkpt lat="43.95055" lon="2.36379">
        <ele>384</ele>
        <time>2021-04-18T13:21:39Z</time>
      </trkpt>
      <trkpt lat="43.95054" lon="2.3638">
        <ele>384</ele>
        <time>2021-04-18T13:21:40Z</time>
      </trkpt>
      <trkpt lat="43.95054" lon="2.3638">
        <ele>384</ele>
        <time>2021-04-18T13:21:41Z</time>
      </trkpt>
      <trkpt lat="43.95053" lon="2.36381">
        <ele>385</ele>
        <time>2021-04-18T13:21:42Z</time>
      </trkpt>
      <trkpt lat="43.95052" lon="2.36382">
        <ele>385</ele>
        <time>2021-04-18T13:21:43Z</time>
      </trkpt>
      <trkpt lat="43.95052" lon="2.36382">
        <ele>385</ele>
        <time>2021-04-18T13:21:44Z</time>
      </trkpt>
      <trkpt lat="43.95051" lon="2.36383">
        <ele>385</ele>
        <time>2021-04-18T13:21:45Z</time>
      </trkpt>
      <trkpt lat="43.95051" lon="2.36383">
        <ele>385</ele>
        <time>2021-04-18T13:21:46Z</time>
      </trkpt>
      <trkpt lat="43.95048" lon="2.36383">
        <ele>386</ele>
        <time>2021-04-18T13:21:47Z</time>
      </trkpt>
      <trkpt lat="43.95047" lon="2.36384">
        <ele>385</ele>
        <time>2021-04-18T13:21:48Z</time>
      </trkpt>
      <trkpt lat="43.95046" lon="2.36384">
        <ele>385</ele>
        <time>2021-04-18T13:21:49Z</time>
      </trkpt>
      <trkpt lat="43.95044" lon="2.36384">
        <ele>386</ele>
        <time>2021-04-18T13:21:50Z</time>
      </trkpt>
      <trkpt lat="43.95043" lon="2.36384">
        <ele>386</ele>
        <time>2021-04-18T13:21:51Z</time>
      </trkpt>
      <trkpt lat="43.95042" lon="2.36384">
        <ele>386</ele>
        <time>2021-04-18T13:21:52Z</time>
      </trkpt>
      <trkpt lat="43.95041" lon="2.36384">
        <ele>387</ele>
        <time>2021-04-18T13:21:53Z</time>
      </trkpt>
      <trkpt lat="43.95041" lon="2.36383">
        <ele>387</ele>
        <time>2021-04-18T13:21:54Z</time>
      </trkpt>
      <trkpt lat="43.9504" lon="2.36383">
        <ele>388</ele>
        <time>2021-04-18T13:21:55Z</time>
      </trkpt>
      <trkpt lat="43.95039" lon="2.36382">
        <ele>387</ele>
        <time>2021-04-18T13:21:56Z</time>
      </trkpt>
      <trkpt lat="43.95039" lon="2.36383">
        <ele>387</ele>
        <time>2021-04-18T13:21:57Z</time>
      </trkpt>
      <trkpt lat="43.95039" lon="2.36383">
        <ele>387</ele>
        <time>2021-04-18T13:21:58Z</time>
      </trkpt>
      <trkpt lat="43.95038" lon="2.36383">
        <ele>387</ele>
        <time>2021-04-18T13:21:59Z</time>
      </trkpt>
      <trkpt lat="43.95038" lon="2.36384">
        <ele>387</ele>
        <time>2021-04-18T13:22:00Z</time>
      </trkpt>
      <trkpt lat="43.95038" lon="2.36384">
        <ele>388</ele>
        <time>2021-04-18T13:22:01Z</time>
      </trkpt>
      <trkpt lat="43.95038" lon="2.36385">
        <ele>387</ele>
        <time>2021-04-18T13:22:02Z</time>
      </trkpt>
      <trkpt lat="43.95039" lon="2.36384">
        <ele>387</ele>
        <time>2021-04-18T13:22:03Z</time>
      </trkpt>
      <trkpt lat="43.95039" lon="2.36384">
        <ele>387</ele>
        <time>2021-04-18T13:22:04Z</time>
      </trkpt>
      <trkpt lat="43.9504" lon="2.36384">
        <ele>387</ele>
        <time>2021-04-18T13:22:05Z</time>
      </trkpt>
      <trkpt lat="43.95041" lon="2.36385">
        <ele>387</ele>
        <time>2021-04-18T13:22:06Z</time>
      </trkpt>
      <trkpt lat="43.95042" lon="2.36384">
        <ele>388</ele>
        <time>2021-04-18T13:22:07Z</time>
      </trkpt>
      <trkpt lat="43.95042" lon="2.36384">
        <ele>388</ele>
        <time>2021-04-18T13:22:08Z</time>
      </trkpt>
      <trkpt lat="43.95042" lon="2.36384">
        <ele>388</ele>
        <time>2021-04-18T13:22:09Z</time>
      </trkpt>
      <trkpt lat="43.95043" lon="2.36384">
        <ele>388</ele>
        <time>2021-04-18T13:22:10Z</time>
      </trkpt>
      <trkpt lat="43.95044" lon="2.36383">
        <ele>388</ele>
        <time>2021-04-18T13:22:11Z</time>
      </trkpt>
      <trkpt lat="43.95044" lon="2.36382">
        <ele>388</ele>
        <time>2021-04-18T13:22:12Z</time>
      </trkpt>
      <trkpt lat="43.95045" lon="2.36381">
        <ele>388</ele>
        <time>2021-04-18T13:22:13Z</time>
      </trkpt>
      <trkpt lat="43.95046" lon="2.3638">
        <ele>388</ele>
        <time>2021-04-18T13:22:14Z</time>
      </trkpt>
      <trkpt lat="43.95046" lon="2.36379">
        <ele>387</ele>
        <time>2021-04-18T13:22:15Z</time>
      </trkpt>
      <trkpt lat="43.95047" lon="2.36378">
        <ele>387</ele>
        <time>2021-04-18T13:22:16Z</time>
      </trkpt>
      <trkpt lat="43.95048" lon="2.36377">
        <ele>388</ele>
        <time>2021-04-18T13:22:17Z</time>
      </trkpt>
      <trkpt lat="43.95049" lon="2.36377">
        <ele>388</ele>
        <time>2021-04-18T13:22:18Z</time>
      </trkpt>
      <trkpt lat="43.9505" lon="2.36377">
        <ele>388</ele>
        <time>2021-04-18T13:22:19Z</time>
      </trkpt>
      <trkpt lat="43.95051" lon="2.36376">
        <ele>390</ele>
        <time>2021-04-18T13:22:20Z</time>
      </trkpt>
      <trkpt lat="43.95052" lon="2.36375">
        <ele>391</ele>
        <time>2021-04-18T13:22:21Z</time>
      </trkpt>
      <trkpt lat="43.95053" lon="2.36375">
        <ele>390</ele>
        <time>2021-04-18T13:22:22Z</time>
      </trkpt>
      <trkpt lat="43.95054" lon="2.36374">
        <ele>391</ele>
        <time>2021-04-18T13:22:23Z</time>
      </trkpt>
      <trkpt lat="43.95055" lon="2.36373">
        <ele>391</ele>
        <time>2021-04-18T13:22:24Z</time>
      </trkpt>
      <trkpt lat="43.95055" lon="2.36372">
        <ele>391</ele>
        <time>2021-04-18T13:22:25Z</time>
      </trkpt>
      <trkpt lat="43.95055" lon="2.3637">
        <ele>392</ele>
        <time>2021-04-18T13:22:26Z</time>
      </trkpt>
      <trkpt lat="43.95055" lon="2.36369">
        <ele>392</ele>
        <time>2021-04-18T13:22:27Z</time>
      </trkpt>
      <trkpt lat="43.95055" lon="2.3637">
        <ele>392</ele>
        <time>2021-04-18T13:22:28Z</time>
      </trkpt>
      <trkpt lat="43.95055" lon="2.3637">
        <ele>393</ele>
        <time>2021-04-18T13:22:29Z</time>
      </trkpt>
      <trkpt lat="43.95056" lon="2.36369">
        <ele>393</ele>
        <time>2021-04-18T13:22:30Z</time>
      </trkpt>
      <trkpt lat="43.95057" lon="2.36368">
        <ele>392</ele>
        <time>2021-04-18T13:22:31Z</time>
      </trkpt>
      <trkpt lat="43.95058" lon="2.36367">
        <ele>392</ele>
        <time>2021-04-18T13:22:32Z</time>
      </trkpt>
      <trkpt lat="43.9506" lon="2.36366">
        <ele>392</ele>
        <time>2021-04-18T13:22:33Z</time>
      </trkpt>
      <trkpt lat="43.95061" lon="2.36366">
        <ele>392</ele>
        <time>2021-04-18T13:22:34Z</time>
      </trkpt>
      <trkpt lat="43.95062" lon="2.36365">
        <ele>392</ele>
        <time>2021-04-18T13:22:35Z</time>
      </trkpt>
      <trkpt lat="43.95063" lon="2.36363">
        <ele>392</ele>
        <time>2021-04-18T13:22:36Z</time>
      </trkpt>
      <trkpt lat="43.95065" lon="2.36362">
        <ele>393</ele>
        <time>2021-04-18T13:22:37Z</time>
      </trkpt>
      <trkpt lat="43.95065" lon="2.36361">
        <ele>393</ele>
        <time>2021-04-18T13:22:38Z</time>
      </trkpt>
      <trkpt lat="43.95067" lon="2.3636">
        <ele>393</ele>
        <time>2021-04-18T13:22:39Z</time>
      </trkpt>
      <trkpt lat="43.95067" lon="2.36358">
        <ele>394</ele>
        <time>2021-04-18T13:22:40Z</time>
      </trkpt>
      <trkpt lat="43.95068" lon="2.36356">
        <ele>394</ele>
        <time>2021-04-18T13:22:41Z</time>
      </trkpt>
      <trkpt lat="43.95069" lon="2.36355">
        <ele>395</ele>
        <time>2021-04-18T13:22:42Z</time>
      </trkpt>
      <trkpt lat="43.9507" lon="2.36353">
        <ele>395</ele>
        <time>2021-04-18T13:22:43Z</time>
      </trkpt>
      <trkpt lat="43.9507" lon="2.36351">
        <ele>395</ele>
        <time>2021-04-18T13:22:44Z</time>
      </trkpt>
      <trkpt lat="43.9507" lon="2.3635">
        <ele>396</ele>
        <time>2021-04-18T13:22:45Z</time>
      </trkpt>
      <trkpt lat="43.9507" lon="2.36348">
        <ele>395</ele>
        <time>2021-04-18T13:22:46Z</time>
      </trkpt>
      <trkpt lat="43.95071" lon="2.36346">
        <ele>395</ele>
        <time>2021-04-18T13:22:47Z</time>
      </trkpt>
      <trkpt lat="43.95071" lon="2.36346">
        <ele>395</ele>
        <time>2021-04-18T13:22:48Z</time>
      </trkpt>
      <trkpt lat="43.95071" lon="2.36345">
        <ele>395</ele>
        <time>2021-04-18T13:22:49Z</time>
      </trkpt>
      <trkpt lat="43.95071" lon="2.36343">
        <ele>396</ele>
        <time>2021-04-18T13:22:50Z</time>
      </trkpt>
      <trkpt lat="43.95071" lon="2.36342">
        <ele>396</ele>
        <time>2021-04-18T13:22:51Z</time>
      </trkpt>
      <trkpt lat="43.9507" lon="2.3634">
        <ele>396</ele>
        <time>2021-04-18T13:22:52Z</time>
      </trkpt>
      <trkpt lat="43.95069" lon="2.3634">
        <ele>395</ele>
        <time>2021-04-18T13:22:53Z</time>
      </trkpt>
      <trkpt lat="43.95069" lon="2.3634">
        <ele>395</ele>
        <time>2021-04-18T13:22:54Z</time>
      </trkpt>
      <trkpt lat="43.95069" lon="2.3634">
        <ele>395</ele>
        <time>2021-04-18T13:22:54Z</time>
      </trkpt>
      <trkpt lat="43.95069" lon="2.3634">
        <ele>395</ele>
        <time>2021-04-18T13:22:54Z</time>
      </trkpt>
      <trkpt lat="43.95073" lon="2.36336">
        <ele>396</ele>
        <time>2021-04-18T13:23:00Z</time>
      </trkpt>
      <trkpt lat="43.95074" lon="2.36335">
        <ele>396</ele>
        <time>2021-04-18T13:23:01Z</time>
      </trkpt>
      <trkpt lat="43.95075" lon="2.36333">
        <ele>395</ele>
        <time>2021-04-18T13:23:02Z</time>
      </trkpt>
      <trkpt lat="43.95075" lon="2.36332">
        <ele>396</ele>
        <time>2021-04-18T13:23:03Z</time>
      </trkpt>
      <trkpt lat="43.95075" lon="2.36331">
        <ele>397</ele>
        <time>2021-04-18T13:23:04Z</time>
      </trkpt>
      <trkpt lat="43.95075" lon="2.36329">
        <ele>397</ele>
        <time>2021-04-18T13:23:05Z</time>
      </trkpt>
      <trkpt lat="43.95076" lon="2.36328">
        <ele>397</ele>
        <time>2021-04-18T13:23:06Z</time>
      </trkpt>
      <trkpt lat="43.95077" lon="2.36327">
        <ele>398</ele>
        <time>2021-04-18T13:23:07Z</time>
      </trkpt>
      <trkpt lat="43.95078" lon="2.36326">
        <ele>398</ele>
        <time>2021-04-18T13:23:08Z</time>
      </trkpt>
      <trkpt lat="43.95078" lon="2.36324">
        <ele>398</ele>
        <time>2021-04-18T13:23:09Z</time>
      </trkpt>
      <trkpt lat="43.95079" lon="2.36322">
        <ele>398</ele>
        <time>2021-04-18T13:23:10Z</time>
      </trkpt>
      <trkpt lat="43.9508" lon="2.3632">
        <ele>398</ele>
        <time>2021-04-18T13:23:11Z</time>
      </trkpt>
      <trkpt lat="43.9508" lon="2.36319">
        <ele>398</ele>
        <time>2021-04-18T13:23:12Z</time>
      </trkpt>
      <trkpt lat="43.95079" lon="2.36318">
        <ele>399</ele>
        <time>2021-04-18T13:23:13Z</time>
      </trkpt>
      <trkpt lat="43.95079" lon="2.36318">
        <ele>399</ele>
        <time>2021-04-18T13:23:14Z</time>
      </trkpt>
      <trkpt lat="43.95079" lon="2.36317">
        <ele>399</ele>
        <time>2021-04-18T13:23:15Z</time>
      </trkpt>
      <trkpt lat="43.95078" lon="2.36316">
        <ele>400</ele>
        <time>2021-04-18T13:23:16Z</time>
      </trkpt>
      <trkpt lat="43.95078" lon="2.36316">
        <ele>400</ele>
        <time>2021-04-18T13:23:16Z</time>
      </trkpt>
      <trkpt lat="43.95078" lon="2.36316">
        <ele>400</ele>
        <time>2021-04-18T13:23:16Z</time>
      </trkpt>
      <trkpt lat="43.95083" lon="2.36311">
        <ele>401</ele>
        <time>2021-04-18T13:23:23Z</time>
      </trkpt>
      <trkpt lat="43.95084" lon="2.36311">
        <ele>401</ele>
        <time>2021-04-18T13:23:24Z</time>
      </trkpt>
      <trkpt lat="43.95084" lon="2.36311">
        <ele>400</ele>
        <time>2021-04-18T13:23:25Z</time>
      </trkpt>
      <trkpt lat="43.95085" lon="2.36312">
        <ele>400</ele>
        <time>2021-04-18T13:23:26Z</time>
      </trkpt>
      <trkpt lat="43.95086" lon="2.36313">
        <ele>400</ele>
        <time>2021-04-18T13:23:27Z</time>
      </trkpt>
      <trkpt lat="43.95086" lon="2.36314">
        <ele>399</ele>
        <time>2021-04-18T13:23:28Z</time>
      </trkpt>
      <trkpt lat="43.95086" lon="2.36315">
        <ele>400</ele>
        <time>2021-04-18T13:23:29Z</time>
      </trkpt>
      <trkpt lat="43.95087" lon="2.36315">
        <ele>399</ele>
        <time>2021-04-18T13:23:30Z</time>
      </trkpt>
      <trkpt lat="43.95087" lon="2.36316">
        <ele>399</ele>
        <time>2021-04-18T13:23:31Z</time>
      </trkpt>
      <trkpt lat="43.95087" lon="2.36317">
        <ele>398</ele>
        <time>2021-04-18T13:23:32Z</time>
      </trkpt>
      <trkpt lat="43.95088" lon="2.36317">
        <ele>398</ele>
        <time>2021-04-18T13:23:33Z</time>
      </trkpt>
      <trkpt lat="43.95088" lon="2.36319">
        <ele>398</ele>
        <time>2021-04-18T13:23:34Z</time>
      </trkpt>
      <trkpt lat="43.95089" lon="2.3632">
        <ele>397</ele>
        <time>2021-04-18T13:23:35Z</time>
      </trkpt>
      <trkpt lat="43.95089" lon="2.3632">
        <ele>398</ele>
        <time>2021-04-18T13:23:36Z</time>
      </trkpt>
      <trkpt lat="43.9509" lon="2.36321">
        <ele>398</ele>
        <time>2021-04-18T13:23:37Z</time>
      </trkpt>
      <trkpt lat="43.95091" lon="2.36323">
        <ele>399</ele>
        <time>2021-04-18T13:23:38Z</time>
      </trkpt>
      <trkpt lat="43.95092" lon="2.36324">
        <ele>399</ele>
        <time>2021-04-18T13:23:39Z</time>
      </trkpt>
      <trkpt lat="43.95093" lon="2.36325">
        <ele>399</ele>
        <time>2021-04-18T13:23:40Z</time>
      </trkpt>
      <trkpt lat="43.95094" lon="2.36325">
        <ele>399</ele>
        <time>2021-04-18T13:23:41Z</time>
      </trkpt>
      <trkpt lat="43.95095" lon="2.36326">
        <ele>399</ele>
        <time>2021-04-18T13:23:42Z</time>
      </trkpt>
      <trkpt lat="43.95096" lon="2.36327">
        <ele>399</ele>
        <time>2021-04-18T13:23:43Z</time>
      </trkpt>
      <trkpt lat="43.95097" lon="2.36327">
        <ele>400</ele>
        <time>2021-04-18T13:23:44Z</time>
      </trkpt>
      <trkpt lat="43.95099" lon="2.36327">
        <ele>400</ele>
        <time>2021-04-18T13:23:45Z</time>
      </trkpt>
      <trkpt lat="43.951" lon="2.36328">
        <ele>400</ele>
        <time>2021-04-18T13:23:46Z</time>
      </trkpt>
      <trkpt lat="43.95102" lon="2.36328">
        <ele>400</ele>
        <time>2021-04-18T13:23:47Z</time>
      </trkpt>
      <trkpt lat="43.95104" lon="2.36328">
        <ele>399</ele>
        <time>2021-04-18T13:23:48Z</time>
      </trkpt>
      <trkpt lat="43.95105" lon="2.36328">
        <ele>399</ele>
        <time>2021-04-18T13:23:49Z</time>
      </trkpt>
      <trkpt lat="43.95105" lon="2.36328">
        <ele>397</ele>
        <time>2021-04-18T13:23:50Z</time>
      </trkpt>
      <trkpt lat="43.95106" lon="2.36327">
        <ele>397</ele>
        <time>2021-04-18T13:23:51Z</time>
      </trkpt>
      <trkpt lat="43.95107" lon="2.36326">
        <ele>397</ele>
        <time>2021-04-18T13:23:52Z</time>
      </trkpt>
      <trkpt lat="43.95108" lon="2.36327">
        <ele>397</ele>
        <time>2021-04-18T13:23:53Z</time>
      </trkpt>
      <trkpt lat="43.9511" lon="2.36327">
        <ele>397</ele>
        <time>2021-04-18T13:23:54Z</time>
      </trkpt>
      <trkpt lat="43.95111" lon="2.36328">
        <ele>397</ele>
        <time>2021-04-18T13:23:55Z</time>
      </trkpt>
      <trkpt lat="43.95112" lon="2.36328">
        <ele>397</ele>
        <time>2021-04-18T13:23:56Z</time>
      </trkpt>
      <trkpt lat="43.95113" lon="2.36328">
        <ele>397</ele>
        <time>2021-04-18T13:23:57Z</time>
      </trkpt>
      <trkpt lat="43.95114" lon="2.36329">
        <ele>396</ele>
        <time>2021-04-18T13:23:58Z</time>
      </trkpt>
      <trkpt lat="43.95115" lon="2.36329">
        <ele>395</ele>
        <time>2021-04-18T13:23:59Z</time>
      </trkpt>
      <trkpt lat="43.95116" lon="2.36329">
        <ele>395</ele>
        <time>2021-04-18T13:24:00Z</time>
      </trkpt>
      <trkpt lat="43.95118" lon="2.36328">
        <ele>395</ele>
        <time>2021-04-18T13:24:01Z</time>
      </trkpt>
      <trkpt lat="43.9512" lon="2.36327">
        <ele>395</ele>
        <time>2021-04-18T13:24:02Z</time>
      </trkpt>
      <trkpt lat="43.95121" lon="2.36327">
        <ele>396</ele>
        <time>2021-04-18T13:24:03Z</time>
      </trkpt>
      <trkpt lat="43.9512" lon="2.36327">
        <ele>396</ele>
        <time>2021-04-18T13:24:04Z</time>
      </trkpt>
      <trkpt lat="43.9512" lon="2.36326">
        <ele>396</ele>
        <time>2021-04-18T13:24:05Z</time>
      </trkpt>
      <trkpt lat="43.95121" lon="2.36326">
        <ele>395</ele>
        <time>2021-04-18T13:24:06Z</time>
      </trkpt>
      <trkpt lat="43.95121" lon="2.36325">
        <ele>395</ele>
        <time>2021-04-18T13:24:07Z</time>
      </trkpt>
      <trkpt lat="43.95121" lon="2.36325">
        <ele>395</ele>
        <time>2021-04-18T13:24:08Z</time>
      </trkpt>
      <trkpt lat="43.95121" lon="2.36325">
        <ele>395</ele>
        <time>2021-04-18T13:24:09Z</time>
      </trkpt>
      <trkpt lat="43.95123" lon="2.36322">
        <ele>395</ele>
        <time>2021-04-18T13:24:10Z</time>
      </trkpt>
      <trkpt lat="43.95124" lon="2.36321">
        <ele>395</ele>
        <time>2021-04-18T13:24:11Z</time>
      </trkpt>
      <trkpt lat="43.95125" lon="2.3632">
        <ele>397</ele>
        <time>2021-04-18T13:24:12Z</time>
      </trkpt>
      <trkpt lat="43.95126" lon="2.3632">
        <ele>396</ele>
        <time>2021-04-18T13:24:13Z</time>
      </trkpt>
      <trkpt lat="43.95128" lon="2.3632">
        <ele>396</ele>
        <time>2021-04-18T13:24:14Z</time>
      </trkpt>
      <trkpt lat="43.95129" lon="2.3632">
        <ele>398</ele>
        <time>2021-04-18T13:24:15Z</time>
      </trkpt>
      <trkpt lat="43.9513" lon="2.36319">
        <ele>398</ele>
        <time>2021-04-18T13:24:16Z</time>
      </trkpt>
      <trkpt lat="43.95131" lon="2.36318">
        <ele>398</ele>
        <time>2021-04-18T13:24:17Z</time>
      </trkpt>
      <trkpt lat="43.95132" lon="2.36317">
        <ele>398</ele>
        <time>2021-04-18T13:24:18Z</time>
      </trkpt>
      <trkpt lat="43.95132" lon="2.36316">
        <ele>398</ele>
        <time>2021-04-18T13:24:19Z</time>
      </trkpt>
      <trkpt lat="43.95133" lon="2.36316">
        <ele>398</ele>
        <time>2021-04-18T13:24:20Z</time>
      </trkpt>
      <trkpt lat="43.95133" lon="2.36316">
        <ele>398</ele>
        <time>2021-04-18T13:24:21Z</time>
      </trkpt>
      <trkpt lat="43.95136" lon="2.36314">
        <ele>398</ele>
        <time>2021-04-18T13:24:22Z</time>
      </trkpt>
      <trkpt lat="43.95136" lon="2.36314">
        <ele>398</ele>
        <time>2021-04-18T13:24:22Z</time>
      </trkpt>
      <trkpt lat="43.95137" lon="2.36314">
        <ele>397</ele>
        <time>2021-04-18T13:24:24Z</time>
      </trkpt>
      <trkpt lat="43.95139" lon="2.36313">
        <ele>397</ele>
        <time>2021-04-18T13:24:25Z</time>
      </trkpt>
      <trkpt lat="43.9514" lon="2.36312">
        <ele>397</ele>
        <time>2021-04-18T13:24:26Z</time>
      </trkpt>
      <trkpt lat="43.95141" lon="2.36311">
        <ele>398</ele>
        <time>2021-04-18T13:24:27Z</time>
      </trkpt>
      <trkpt lat="43.95142" lon="2.3631">
        <ele>398</ele>
        <time>2021-04-18T13:24:28Z</time>
      </trkpt>
      <trkpt lat="43.95143" lon="2.36308">
        <ele>398</ele>
        <time>2021-04-18T13:24:29Z</time>
      </trkpt>
      <trkpt lat="43.95144" lon="2.36307">
        <ele>399</ele>
        <time>2021-04-18T13:24:30Z</time>
      </trkpt>
      <trkpt lat="43.95144" lon="2.36307">
        <ele>399</ele>
        <time>2021-04-18T13:24:31Z</time>
      </trkpt>
      <trkpt lat="43.95145" lon="2.36307">
        <ele>399</ele>
        <time>2021-04-18T13:24:32Z</time>
      </trkpt>
      <trkpt lat="43.95146" lon="2.36307">
        <ele>399</ele>
        <time>2021-04-18T13:24:33Z</time>
      </trkpt>
      <trkpt lat="43.95147" lon="2.36307">
        <ele>399</ele>
        <time>2021-04-18T13:24:34Z</time>
      </trkpt>
      <trkpt lat="43.95149" lon="2.36306">
        <ele>399</ele>
        <time>2021-04-18T13:24:35Z</time>
      </trkpt>
      <trkpt lat="43.9515" lon="2.36306">
        <ele>399</ele>
        <time>2021-04-18T13:24:36Z</time>
      </trkpt>
      <trkpt lat="43.95151" lon="2.36306">
        <ele>399</ele>
        <time>2021-04-18T13:24:37Z</time>
      </trkpt>
      <trkpt lat="43.95152" lon="2.36305">
        <ele>400</ele>
        <time>2021-04-18T13:24:38Z</time>
      </trkpt>
      <trkpt lat="43.95153" lon="2.36305">
        <ele>400</ele>
        <time>2021-04-18T13:24:39Z</time>
      </trkpt>
      <trkpt lat="43.95154" lon="2.36305">
        <ele>400</ele>
        <time>2021-04-18T13:24:40Z</time>
      </trkpt>
      <trkpt lat="43.95155" lon="2.36304">
        <ele>401</ele>
        <time>2021-04-18T13:24:41Z</time>
      </trkpt>
      <trkpt lat="43.95158" lon="2.36301">
        <ele>401</ele>
        <time>2021-04-18T13:24:42Z</time>
      </trkpt>
      <trkpt lat="43.95159" lon="2.363">
        <ele>400</ele>
        <time>2021-04-18T13:24:43Z</time>
      </trkpt>
      <trkpt lat="43.95159" lon="2.363">
        <ele>400</ele>
        <time>2021-04-18T13:24:43Z</time>
      </trkpt>
      <trkpt lat="43.9516" lon="2.36299">
        <ele>401</ele>
        <time>2021-04-18T13:24:45Z</time>
      </trkpt>
      <trkpt lat="43.95161" lon="2.36298">
        <ele>401</ele>
        <time>2021-04-18T13:24:46Z</time>
      </trkpt>
      <trkpt lat="43.95162" lon="2.36298">
        <ele>402</ele>
        <time>2021-04-18T13:24:47Z</time>
      </trkpt>
      <trkpt lat="43.95163" lon="2.36297">
        <ele>403</ele>
        <time>2021-04-18T13:24:48Z</time>
      </trkpt>
      <trkpt lat="43.95164" lon="2.36297">
        <ele>402</ele>
        <time>2021-04-18T13:24:49Z</time>
      </trkpt>
      <trkpt lat="43.95164" lon="2.36297">
        <ele>402</ele>
        <time>2021-04-18T13:24:50Z</time>
      </trkpt>
      <trkpt lat="43.95164" lon="2.36297">
        <ele>402</ele>
        <time>2021-04-18T13:24:51Z</time>
      </trkpt>
      <trkpt lat="43.95166" lon="2.36295">
        <ele>403</ele>
        <time>2021-04-18T13:24:52Z</time>
      </trkpt>
      <trkpt lat="43.95168" lon="2.36295">
        <ele>403</ele>
        <time>2021-04-18T13:24:53Z</time>
      </trkpt>
      <trkpt lat="43.95168" lon="2.36294">
        <ele>404</ele>
        <time>2021-04-18T13:24:54Z</time>
      </trkpt>
      <trkpt lat="43.95169" lon="2.36294">
        <ele>404</ele>
        <time>2021-04-18T13:24:55Z</time>
      </trkpt>
      <trkpt lat="43.9517" lon="2.36293">
        <ele>404</ele>
        <time>2021-04-18T13:24:56Z</time>
      </trkpt>
      <trkpt lat="43.95171" lon="2.36293">
        <ele>405</ele>
        <time>2021-04-18T13:24:57Z</time>
      </trkpt>
      <trkpt lat="43.95173" lon="2.36293">
        <ele>405</ele>
        <time>2021-04-18T13:24:58Z</time>
      </trkpt>
      <trkpt lat="43.95174" lon="2.36291">
        <ele>406</ele>
        <time>2021-04-18T13:24:59Z</time>
      </trkpt>
      <trkpt lat="43.95174" lon="2.3629">
        <ele>406</ele>
        <time>2021-04-18T13:25:00Z</time>
      </trkpt>
      <trkpt lat="43.95175" lon="2.3629">
        <ele>406</ele>
        <time>2021-04-18T13:25:01Z</time>
      </trkpt>
      <trkpt lat="43.95176" lon="2.36289">
        <ele>406</ele>
        <time>2021-04-18T13:25:02Z</time>
      </trkpt>
      <trkpt lat="43.95177" lon="2.36289">
        <ele>406</ele>
        <time>2021-04-18T13:25:03Z</time>
      </trkpt>
      <trkpt lat="43.95178" lon="2.36289">
        <ele>407</ele>
        <time>2021-04-18T13:25:04Z</time>
      </trkpt>
      <trkpt lat="43.95179" lon="2.36288">
        <ele>407</ele>
        <time>2021-04-18T13:25:05Z</time>
      </trkpt>
      <trkpt lat="43.9518" lon="2.36287">
        <ele>407</ele>
        <time>2021-04-18T13:25:06Z</time>
      </trkpt>
      <trkpt lat="43.95181" lon="2.36286">
        <ele>407</ele>
        <time>2021-04-18T13:25:07Z</time>
      </trkpt>
      <trkpt lat="43.95181" lon="2.36285">
        <ele>406</ele>
        <time>2021-04-18T13:25:08Z</time>
      </trkpt>
      <trkpt lat="43.95182" lon="2.36284">
        <ele>407</ele>
        <time>2021-04-18T13:25:09Z</time>
      </trkpt>
      <trkpt lat="43.95183" lon="2.36283">
        <ele>407</ele>
        <time>2021-04-18T13:25:10Z</time>
      </trkpt>
      <trkpt lat="43.95184" lon="2.36283">
        <ele>408</ele>
        <time>2021-04-18T13:25:11Z</time>
      </trkpt>
      <trkpt lat="43.95184" lon="2.36282">
        <ele>408</ele>
        <time>2021-04-18T13:25:12Z</time>
      </trkpt>
      <trkpt lat="43.95185" lon="2.36281">
        <ele>410</ele>
        <time>2021-04-18T13:25:13Z</time>
      </trkpt>
      <trkpt lat="43.95186" lon="2.3628">
        <ele>409</ele>
        <time>2021-04-18T13:25:14Z</time>
      </trkpt>
      <trkpt lat="43.95186" lon="2.3628">
        <ele>409</ele>
        <time>2021-04-18T13:25:15Z</time>
      </trkpt>
      <trkpt lat="43.95186" lon="2.3628">
        <ele>409</ele>
        <time>2021-04-18T13:25:16Z</time>
      </trkpt>
      <trkpt lat="43.95188" lon="2.36278">
        <ele>410</ele>
        <time>2021-04-18T13:25:17Z</time>
      </trkpt>
      <trkpt lat="43.95189" lon="2.36276">
        <ele>410</ele>
        <time>2021-04-18T13:25:18Z</time>
      </trkpt>
      <trkpt lat="43.9519" lon="2.36274">
        <ele>410</ele>
        <time>2021-04-18T13:25:19Z</time>
      </trkpt>
      <trkpt lat="43.95192" lon="2.36273">
        <ele>411</ele>
        <time>2021-04-18T13:25:20Z</time>
      </trkpt>
      <trkpt lat="43.95192" lon="2.36271">
        <ele>411</ele>
        <time>2021-04-18T13:25:21Z</time>
      </trkpt>
      <trkpt lat="43.95192" lon="2.36271">
        <ele>411</ele>
        <time>2021-04-18T13:25:22Z</time>
      </trkpt>
      <trkpt lat="43.95192" lon="2.3627">
        <ele>413</ele>
        <time>2021-04-18T13:25:23Z</time>
      </trkpt>
      <trkpt lat="43.95192" lon="2.3627">
        <ele>413</ele>
        <time>2021-04-18T13:25:24Z</time>
      </trkpt>
      <trkpt lat="43.95192" lon="2.3627">
        <ele>413</ele>
        <time>2021-04-18T13:25:25Z</time>
      </trkpt>
      <trkpt lat="43.95192" lon="2.3627">
        <ele>413</ele>
        <time>2021-04-18T13:25:26Z</time>
      </trkpt>
      <trkpt lat="43.95194" lon="2.36269">
        <ele>413</ele>
        <time>2021-04-18T13:25:27Z</time>
      </trkpt>
      <trkpt lat="43.95194" lon="2.36268">
        <ele>414</ele>
        <time>2021-04-18T13:25:28Z</time>
      </trkpt>
      <trkpt lat="43.95194" lon="2.36266">
        <ele>414</ele>
        <time>2021-04-18T13:25:29Z</time>
      </trkpt>
      <trkpt lat="43.95194" lon="2.36265">
        <ele>415</ele>
        <time>2021-04-18T13:25:30Z</time>
      </trkpt>
      <trkpt lat="43.95194" lon="2.36264">
        <ele>415</ele>
        <time>2021-04-18T13:25:31Z</time>
      </trkpt>
      <trkpt lat="43.95194" lon="2.36264">
        <ele>415</ele>
        <time>2021-04-18T13:25:32Z</time>
      </trkpt>
      <trkpt lat="43.95195" lon="2.36263">
        <ele>416</ele>
        <time>2021-04-18T13:25:33Z</time>
      </trkpt>
      <trkpt lat="43.95196" lon="2.36262">
        <ele>416</ele>
        <time>2021-04-18T13:25:34Z</time>
      </trkpt>
      <trkpt lat="43.95197" lon="2.36262">
        <ele>416</ele>
        <time>2021-04-18T13:25:35Z</time>
      </trkpt>
      <trkpt lat="43.95198" lon="2.36261">
        <ele>416</ele>
        <time>2021-04-18T13:25:36Z</time>
      </trkpt>
      <trkpt lat="43.95198" lon="2.36261">
        <ele>417</ele>
        <time>2021-04-18T13:25:37Z</time>
      </trkpt>
      <trkpt lat="43.95199" lon="2.36261">
        <ele>417</ele>
        <time>2021-04-18T13:25:38Z</time>
      </trkpt>
      <trkpt lat="43.952" lon="2.36261">
        <ele>417</ele>
        <time>2021-04-18T13:25:39Z</time>
      </trkpt>
      <trkpt lat="43.952" lon="2.36261">
        <ele>417</ele>
        <time>2021-04-18T13:25:40Z</time>
      </trkpt>
      <trkpt lat="43.952" lon="2.36261">
        <ele>417</ele>
        <time>2021-04-18T13:25:41Z</time>
      </trkpt>
      <trkpt lat="43.952" lon="2.36261">
        <ele>417</ele>
        <time>2021-04-18T13:25:42Z</time>
      </trkpt>
      <trkpt lat="43.95202" lon="2.36261">
        <ele>418</ele>
        <time>2021-04-18T13:25:43Z</time>
      </trkpt>
      <trkpt lat="43.95202" lon="2.3626">
        <ele>418</ele>
        <time>2021-04-18T13:25:44Z</time>
      </trkpt>
      <trkpt lat="43.95203" lon="2.36258">
        <ele>417</ele>
        <time>2021-04-18T13:25:45Z</time>
      </trkpt>
      <trkpt lat="43.95203" lon="2.36259">
        <ele>417</ele>
        <time>2021-04-18T13:25:46Z</time>
      </trkpt>
      <trkpt lat="43.95204" lon="2.3626">
        <ele>418</ele>
        <time>2021-04-18T13:25:47Z</time>
      </trkpt>
      <trkpt lat="43.95205" lon="2.3626">
        <ele>418</ele>
        <time>2021-04-18T13:25:48Z</time>
      </trkpt>
      <trkpt lat="43.95207" lon="2.3626">
        <ele>418</ele>
        <time>2021-04-18T13:25:49Z</time>
      </trkpt>
      <trkpt lat="43.95208" lon="2.36261">
        <ele>418</ele>
        <time>2021-04-18T13:25:50Z</time>
      </trkpt>
      <trkpt lat="43.95208" lon="2.36261">
        <ele>418</ele>
        <time>2021-04-18T13:25:51Z</time>
      </trkpt>
      <trkpt lat="43.95208" lon="2.36261">
        <ele>418</ele>
        <time>2021-04-18T13:25:52Z</time>
      </trkpt>
      <trkpt lat="43.95208" lon="2.36261">
        <ele>418</ele>
        <time>2021-04-18T13:25:53Z</time>
      </trkpt>
      <trkpt lat="43.9521" lon="2.36263">
        <ele>418</ele>
        <time>2021-04-18T13:25:54Z</time>
      </trkpt>
      <trkpt lat="43.95211" lon="2.36263">
        <ele>418</ele>
        <time>2021-04-18T13:25:55Z</time>
      </trkpt>
      <trkpt lat="43.95212" lon="2.36264">
        <ele>418</ele>
        <time>2021-04-18T13:25:56Z</time>
      </trkpt>
      <trkpt lat="43.95214" lon="2.36264">
        <ele>418</ele>
        <time>2021-04-18T13:25:57Z</time>
      </trkpt>
      <trkpt lat="43.95215" lon="2.36265">
        <ele>418</ele>
        <time>2021-04-18T13:25:58Z</time>
      </trkpt>
      <trkpt lat="43.95216" lon="2.36266">
        <ele>419</ele>
        <time>2021-04-18T13:25:59Z</time>
      </trkpt>
      <trkpt lat="43.95217" lon="2.36266">
        <ele>419</ele>
        <time>2021-04-18T13:26:00Z</time>
      </trkpt>
      <trkpt lat="43.95218" lon="2.36267">
        <ele>418</ele>
        <time>2021-04-18T13:26:01Z</time>
      </trkpt>
      <trkpt lat="43.95219" lon="2.36268">
        <ele>418</ele>
        <time>2021-04-18T13:26:02Z</time>
      </trkpt>
      <trkpt lat="43.9522" lon="2.36269">
        <ele>417</ele>
        <time>2021-04-18T13:26:03Z</time>
      </trkpt>
      <trkpt lat="43.9522" lon="2.36269">
        <ele>417</ele>
        <time>2021-04-18T13:26:04Z</time>
      </trkpt>
      <trkpt lat="43.9522" lon="2.36269">
        <ele>417</ele>
        <time>2021-04-18T13:26:05Z</time>
      </trkpt>
      <trkpt lat="43.95223" lon="2.36271">
        <ele>417</ele>
        <time>2021-04-18T13:26:06Z</time>
      </trkpt>
      <trkpt lat="43.95224" lon="2.36271">
        <ele>416</ele>
        <time>2021-04-18T13:26:07Z</time>
      </trkpt>
      <trkpt lat="43.95224" lon="2.36272">
        <ele>416</ele>
        <time>2021-04-18T13:26:08Z</time>
      </trkpt>
      <trkpt lat="43.95225" lon="2.36272">
        <ele>416</ele>
        <time>2021-04-18T13:26:09Z</time>
      </trkpt>
      <trkpt lat="43.95226" lon="2.36271">
        <ele>416</ele>
        <time>2021-04-18T13:26:10Z</time>
      </trkpt>
      <trkpt lat="43.95226" lon="2.36271">
        <ele>416</ele>
        <time>2021-04-18T13:26:11Z</time>
      </trkpt>
      <trkpt lat="43.95226" lon="2.36271">
        <ele>416</ele>
        <time>2021-04-18T13:26:12Z</time>
      </trkpt>
      <trkpt lat="43.95229" lon="2.36272">
        <ele>417</ele>
        <time>2021-04-18T13:26:13Z</time>
      </trkpt>
      <trkpt lat="43.95231" lon="2.36272">
        <ele>418</ele>
        <time>2021-04-18T13:26:14Z</time>
      </trkpt>
      <trkpt lat="43.95233" lon="2.36272">
        <ele>418</ele>
        <time>2021-04-18T13:26:15Z</time>
      </trkpt>
      <trkpt lat="43.95234" lon="2.36271">
        <ele>418</ele>
        <time>2021-04-18T13:26:16Z</time>
      </trkpt>
      <trkpt lat="43.95235" lon="2.36271">
        <ele>418</ele>
        <time>2021-04-18T13:26:17Z</time>
      </trkpt>
      <trkpt lat="43.95236" lon="2.3627">
        <ele>418</ele>
        <time>2021-04-18T13:26:18Z</time>
      </trkpt>
      <trkpt lat="43.95237" lon="2.36269">
        <ele>417</ele>
        <time>2021-04-18T13:26:19Z</time>
      </trkpt>
      <trkpt lat="43.95239" lon="2.36269">
        <ele>417</ele>
        <time>2021-04-18T13:26:20Z</time>
      </trkpt>
      <trkpt lat="43.9524" lon="2.36269">
        <ele>417</ele>
        <time>2021-04-18T13:26:21Z</time>
      </trkpt>
      <trkpt lat="43.95242" lon="2.36268">
        <ele>418</ele>
        <time>2021-04-18T13:26:22Z</time>
      </trkpt>
      <trkpt lat="43.95243" lon="2.36268">
        <ele>418</ele>
        <time>2021-04-18T13:26:23Z</time>
      </trkpt>
      <trkpt lat="43.95244" lon="2.36268">
        <ele>418</ele>
        <time>2021-04-18T13:26:24Z</time>
      </trkpt>
      <trkpt lat="43.95245" lon="2.36268">
        <ele>419</ele>
        <time>2021-04-18T13:26:25Z</time>
      </trkpt>
      <trkpt lat="43.95246" lon="2.36267">
        <ele>419</ele>
        <time>2021-04-18T13:26:26Z</time>
      </trkpt>
      <trkpt lat="43.95246" lon="2.36267">
        <ele>419</ele>
        <time>2021-04-18T13:26:27Z</time>
      </trkpt>
      <trkpt lat="43.95246" lon="2.36267">
        <ele>419</ele>
        <time>2021-04-18T13:26:28Z</time>
      </trkpt>
      <trkpt lat="43.95249" lon="2.36268">
        <ele>420</ele>
        <time>2021-04-18T13:26:29Z</time>
      </trkpt>
      <trkpt lat="43.9525" lon="2.36268">
        <ele>420</ele>
        <time>2021-04-18T13:26:30Z</time>
      </trkpt>
      <trkpt lat="43.95251" lon="2.36268">
        <ele>420</ele>
        <time>2021-04-18T13:26:31Z</time>
      </trkpt>
      <trkpt lat="43.95252" lon="2.36267">
        <ele>421</ele>
        <time>2021-04-18T13:26:32Z</time>
      </trkpt>
      <trkpt lat="43.95253" lon="2.36267">
        <ele>421</ele>
        <time>2021-04-18T13:26:33Z</time>
      </trkpt>
      <trkpt lat="43.95254" lon="2.36267">
        <ele>420</ele>
        <time>2021-04-18T13:26:34Z</time>
      </trkpt>
      <trkpt lat="43.95256" lon="2.36267">
        <ele>421</ele>
        <time>2021-04-18T13:26:35Z</time>
      </trkpt>
      <trkpt lat="43.95256" lon="2.36267">
        <ele>422</ele>
        <time>2021-04-18T13:26:36Z</time>
      </trkpt>
      <trkpt lat="43.95257" lon="2.36268">
        <ele>422</ele>
        <time>2021-04-18T13:26:37Z</time>
      </trkpt>
      <trkpt lat="43.95258" lon="2.36267">
        <ele>422</ele>
        <time>2021-04-18T13:26:38Z</time>
      </trkpt>
      <trkpt lat="43.95259" lon="2.36267">
        <ele>422</ele>
        <time>2021-04-18T13:26:39Z</time>
      </trkpt>
      <trkpt lat="43.95261" lon="2.36266">
        <ele>422</ele>
        <time>2021-04-18T13:26:40Z</time>
      </trkpt>
      <trkpt lat="43.95262" lon="2.36266">
        <ele>422</ele>
        <time>2021-04-18T13:26:41Z</time>
      </trkpt>
      <trkpt lat="43.95263" lon="2.36266">
        <ele>422</ele>
        <time>2021-04-18T13:26:42Z</time>
      </trkpt>
      <trkpt lat="43.95264" lon="2.36266">
        <ele>423</ele>
        <time>2021-04-18T13:26:43Z</time>
      </trkpt>
      <trkpt lat="43.95265" lon="2.36266">
        <ele>423</ele>
        <time>2021-04-18T13:26:44Z</time>
      </trkpt>
      <trkpt lat="43.95266" lon="2.36266">
        <ele>423</ele>
        <time>2021-04-18T13:26:45Z</time>
      </trkpt>
      <trkpt lat="43.95268" lon="2.36266">
        <ele>423</ele>
        <time>2021-04-18T13:26:46Z</time>
      </trkpt>
      <trkpt lat="43.95268" lon="2.36265">
        <ele>423</ele>
        <time>2021-04-18T13:26:47Z</time>
      </trkpt>
      <trkpt lat="43.95269" lon="2.36264">
        <ele>423</ele>
        <time>2021-04-18T13:26:48Z</time>
      </trkpt>
      <trkpt lat="43.9527" lon="2.36264">
        <ele>423</ele>
        <time>2021-04-18T13:26:49Z</time>
      </trkpt>
      <trkpt lat="43.95271" lon="2.36263">
        <ele>424</ele>
        <time>2021-04-18T13:26:50Z</time>
      </trkpt>
      <trkpt lat="43.95272" lon="2.36263">
        <ele>425</ele>
        <time>2021-04-18T13:26:51Z</time>
      </trkpt>
      <trkpt lat="43.95273" lon="2.36262">
        <ele>426</ele>
        <time>2021-04-18T13:26:52Z</time>
      </trkpt>
      <trkpt lat="43.95274" lon="2.36262">
        <ele>426</ele>
        <time>2021-04-18T13:26:53Z</time>
      </trkpt>
      <trkpt lat="43.95276" lon="2.36261">
        <ele>427</ele>
        <time>2021-04-18T13:26:54Z</time>
      </trkpt>
      <trkpt lat="43.95277" lon="2.36261">
        <ele>426</ele>
        <time>2021-04-18T13:26:55Z</time>
      </trkpt>
      <trkpt lat="43.95278" lon="2.36261">
        <ele>427</ele>
        <time>2021-04-18T13:26:56Z</time>
      </trkpt>
      <trkpt lat="43.95279" lon="2.3626">
        <ele>428</ele>
        <time>2021-04-18T13:26:57Z</time>
      </trkpt>
      <trkpt lat="43.95281" lon="2.3626">
        <ele>428</ele>
        <time>2021-04-18T13:26:58Z</time>
      </trkpt>
      <trkpt lat="43.95282" lon="2.36259">
        <ele>429</ele>
        <time>2021-04-18T13:26:59Z</time>
      </trkpt>
      <trkpt lat="43.95282" lon="2.36258">
        <ele>430</ele>
        <time>2021-04-18T13:27:00Z</time>
      </trkpt>
      <trkpt lat="43.95284" lon="2.36256">
        <ele>429</ele>
        <time>2021-04-18T13:27:01Z</time>
      </trkpt>
      <trkpt lat="43.95285" lon="2.36254">
        <ele>429</ele>
        <time>2021-04-18T13:27:02Z</time>
      </trkpt>
      <trkpt lat="43.95285" lon="2.36252">
        <ele>430</ele>
        <time>2021-04-18T13:27:03Z</time>
      </trkpt>
      <trkpt lat="43.95285" lon="2.36251">
        <ele>430</ele>
        <time>2021-04-18T13:27:04Z</time>
      </trkpt>
      <trkpt lat="43.95286" lon="2.36251">
        <ele>431</ele>
        <time>2021-04-18T13:27:05Z</time>
      </trkpt>
      <trkpt lat="43.95287" lon="2.3625">
        <ele>431</ele>
        <time>2021-04-18T13:27:06Z</time>
      </trkpt>
      <trkpt lat="43.95287" lon="2.3625">
        <ele>431</ele>
        <time>2021-04-18T13:27:07Z</time>
      </trkpt>
      <trkpt lat="43.95288" lon="2.3625">
        <ele>431</ele>
        <time>2021-04-18T13:27:08Z</time>
      </trkpt>
      <trkpt lat="43.95288" lon="2.3625">
        <ele>431</ele>
        <time>2021-04-18T13:27:09Z</time>
      </trkpt>
      <trkpt lat="43.95288" lon="2.3625">
        <ele>431</ele>
        <time>2021-04-18T13:27:10Z</time>
      </trkpt>
      <trkpt lat="43.9529" lon="2.36248">
        <ele>430</ele>
        <time>2021-04-18T13:27:11Z</time>
      </trkpt>
      <trkpt lat="43.9529" lon="2.36247">
        <ele>431</ele>
        <time>2021-04-18T13:27:12Z</time>
      </trkpt>
      <trkpt lat="43.95291" lon="2.36246">
        <ele>431</ele>
        <time>2021-04-18T13:27:13Z</time>
      </trkpt>
      <trkpt lat="43.95292" lon="2.36245">
        <ele>431</ele>
        <time>2021-04-18T13:27:14Z</time>
      </trkpt>
      <trkpt lat="43.95292" lon="2.36243">
        <ele>431</ele>
        <time>2021-04-18T13:27:15Z</time>
      </trkpt>
      <trkpt lat="43.95293" lon="2.36243">
        <ele>430</ele>
        <time>2021-04-18T13:27:16Z</time>
      </trkpt>
      <trkpt lat="43.95294" lon="2.36241">
        <ele>430</ele>
        <time>2021-04-18T13:27:17Z</time>
      </trkpt>
      <trkpt lat="43.95294" lon="2.36241">
        <ele>430</ele>
        <time>2021-04-18T13:27:18Z</time>
      </trkpt>
      <trkpt lat="43.95295" lon="2.3624">
        <ele>430</ele>
        <time>2021-04-18T13:27:19Z</time>
      </trkpt>
      <trkpt lat="43.95295" lon="2.36239">
        <ele>430</ele>
        <time>2021-04-18T13:27:20Z</time>
      </trkpt>
      <trkpt lat="43.95296" lon="2.36239">
        <ele>430</ele>
        <time>2021-04-18T13:27:21Z</time>
      </trkpt>
      <trkpt lat="43.95297" lon="2.36239">
        <ele>430</ele>
        <time>2021-04-18T13:27:22Z</time>
      </trkpt>
      <trkpt lat="43.95298" lon="2.36238">
        <ele>430</ele>
        <time>2021-04-18T13:27:23Z</time>
      </trkpt>
      <trkpt lat="43.95298" lon="2.36236">
        <ele>430</ele>
        <time>2021-04-18T13:27:24Z</time>
      </trkpt>
      <trkpt lat="43.95298" lon="2.36236">
        <ele>430</ele>
        <time>2021-04-18T13:27:25Z</time>
      </trkpt>
      <trkpt lat="43.95298" lon="2.36236">
        <ele>430</ele>
        <time>2021-04-18T13:27:26Z</time>
      </trkpt>
      <trkpt lat="43.953" lon="2.36233">
        <ele>430</ele>
        <time>2021-04-18T13:27:27Z</time>
      </trkpt>
      <trkpt lat="43.953" lon="2.36232">
        <ele>431</ele>
        <time>2021-04-18T13:27:28Z</time>
      </trkpt>
      <trkpt lat="43.95301" lon="2.3623">
        <ele>431</ele>
        <time>2021-04-18T13:27:29Z</time>
      </trkpt>
      <trkpt lat="43.95301" lon="2.36229">
        <ele>432</ele>
        <time>2021-04-18T13:27:30Z</time>
      </trkpt>
      <trkpt lat="43.95303" lon="2.36227">
        <ele>432</ele>
        <time>2021-04-18T13:27:31Z</time>
      </trkpt>
      <trkpt lat="43.95303" lon="2.36226">
        <ele>433</ele>
        <time>2021-04-18T13:27:32Z</time>
      </trkpt>
      <trkpt lat="43.95304" lon="2.36225">
        <ele>433</ele>
        <time>2021-04-18T13:27:33Z</time>
      </trkpt>
      <trkpt lat="43.95305" lon="2.36223">
        <ele>434</ele>
        <time>2021-04-18T13:27:34Z</time>
      </trkpt>
      <trkpt lat="43.95306" lon="2.36221">
        <ele>434</ele>
        <time>2021-04-18T13:27:35Z</time>
      </trkpt>
      <trkpt lat="43.95307" lon="2.36219">
        <ele>435</ele>
        <time>2021-04-18T13:27:36Z</time>
      </trkpt>
      <trkpt lat="43.95308" lon="2.36217">
        <ele>435</ele>
        <time>2021-04-18T13:27:37Z</time>
      </trkpt>
      <trkpt lat="43.95308" lon="2.36216">
        <ele>435</ele>
        <time>2021-04-18T13:27:38Z</time>
      </trkpt>
      <trkpt lat="43.95308" lon="2.36214">
        <ele>436</ele>
        <time>2021-04-18T13:27:39Z</time>
      </trkpt>
      <trkpt lat="43.95309" lon="2.36212">
        <ele>436</ele>
        <time>2021-04-18T13:27:40Z</time>
      </trkpt>
      <trkpt lat="43.9531" lon="2.3621">
        <ele>437</ele>
        <time>2021-04-18T13:27:41Z</time>
      </trkpt>
      <trkpt lat="43.95311" lon="2.36209">
        <ele>438</ele>
        <time>2021-04-18T13:27:42Z</time>
      </trkpt>
      <trkpt lat="43.95311" lon="2.36207">
        <ele>438</ele>
        <time>2021-04-18T13:27:43Z</time>
      </trkpt>
      <trkpt lat="43.95312" lon="2.36206">
        <ele>439</ele>
        <time>2021-04-18T13:27:44Z</time>
      </trkpt>
      <trkpt lat="43.95314" lon="2.36205">
        <ele>440</ele>
        <time>2021-04-18T13:27:45Z</time>
      </trkpt>
      <trkpt lat="43.95314" lon="2.36204">
        <ele>440</ele>
        <time>2021-04-18T13:27:46Z</time>
      </trkpt>
      <trkpt lat="43.95314" lon="2.36203">
        <ele>439</ele>
        <time>2021-04-18T13:27:47Z</time>
      </trkpt>
      <trkpt lat="43.95315" lon="2.36203">
        <ele>439</ele>
        <time>2021-04-18T13:27:48Z</time>
      </trkpt>
      <trkpt lat="43.95315" lon="2.36202">
        <ele>439</ele>
        <time>2021-04-18T13:27:49Z</time>
      </trkpt>
      <trkpt lat="43.95316" lon="2.36201">
        <ele>439</ele>
        <time>2021-04-18T13:27:50Z</time>
      </trkpt>
      <trkpt lat="43.95316" lon="2.362">
        <ele>439</ele>
        <time>2021-04-18T13:27:51Z</time>
      </trkpt>
      <trkpt lat="43.95317" lon="2.36199">
        <ele>439</ele>
        <time>2021-04-18T13:27:52Z</time>
      </trkpt>
      <trkpt lat="43.95317" lon="2.36199">
        <ele>439</ele>
        <time>2021-04-18T13:27:53Z</time>
      </trkpt>
      <trkpt lat="43.95317" lon="2.36199">
        <ele>439</ele>
        <time>2021-04-18T13:27:54Z</time>
      </trkpt>
      <trkpt lat="43.95318" lon="2.36195">
        <ele>440</ele>
        <time>2021-04-18T13:27:55Z</time>
      </trkpt>
      <trkpt lat="43.95318" lon="2.36193">
        <ele>440</ele>
        <time>2021-04-18T13:27:56Z</time>
      </trkpt>
      <trkpt lat="43.95318" lon="2.36192">
        <ele>440</ele>
        <time>2021-04-18T13:27:57Z</time>
      </trkpt>
      <trkpt lat="43.95319" lon="2.36191">
        <ele>440</ele>
        <time>2021-04-18T13:27:58Z</time>
      </trkpt>
      <trkpt lat="43.95319" lon="2.36191">
        <ele>440</ele>
        <time>2021-04-18T13:27:59Z</time>
      </trkpt>
      <trkpt lat="43.95319" lon="2.36191">
        <ele>440</ele>
        <time>2021-04-18T13:28:00Z</time>
      </trkpt>
      <trkpt lat="43.95321" lon="2.36186">
        <ele>441</ele>
        <time>2021-04-18T13:28:01Z</time>
      </trkpt>
      <trkpt lat="43.95322" lon="2.36184">
        <ele>441</ele>
        <time>2021-04-18T13:28:02Z</time>
      </trkpt>
      <trkpt lat="43.95322" lon="2.36182">
        <ele>442</ele>
        <time>2021-04-18T13:28:03Z</time>
      </trkpt>
      <trkpt lat="43.95323" lon="2.3618">
        <ele>442</ele>
        <time>2021-04-18T13:28:04Z</time>
      </trkpt>
      <trkpt lat="43.95324" lon="2.36179">
        <ele>442</ele>
        <time>2021-04-18T13:28:05Z</time>
      </trkpt>
      <trkpt lat="43.95324" lon="2.36178">
        <ele>443</ele>
        <time>2021-04-18T13:28:06Z</time>
      </trkpt>
      <trkpt lat="43.95325" lon="2.36176">
        <ele>443</ele>
        <time>2021-04-18T13:28:07Z</time>
      </trkpt>
      <trkpt lat="43.95326" lon="2.36174">
        <ele>443</ele>
        <time>2021-04-18T13:28:08Z</time>
      </trkpt>
      <trkpt lat="43.95326" lon="2.36173">
        <ele>443</ele>
        <time>2021-04-18T13:28:09Z</time>
      </trkpt>
      <trkpt lat="43.95326" lon="2.36173">
        <ele>443</ele>
        <time>2021-04-18T13:28:10Z</time>
      </trkpt>
      <trkpt lat="43.95326" lon="2.36173">
        <ele>443</ele>
        <time>2021-04-18T13:28:11Z</time>
      </trkpt>
      <trkpt lat="43.95328" lon="2.3617">
        <ele>444</ele>
        <time>2021-04-18T13:28:12Z</time>
      </trkpt>
      <trkpt lat="43.95329" lon="2.36168">
        <ele>444</ele>
        <time>2021-04-18T13:28:13Z</time>
      </trkpt>
      <trkpt lat="43.95329" lon="2.36167">
        <ele>445</ele>
        <time>2021-04-18T13:28:14Z</time>
      </trkpt>
      <trkpt lat="43.95329" lon="2.36165">
        <ele>446</ele>
        <time>2021-04-18T13:28:15Z</time>
      </trkpt>
      <trkpt lat="43.95329" lon="2.36165">
        <ele>446</ele>
        <time>2021-04-18T13:28:16Z</time>
      </trkpt>
      <trkpt lat="43.95329" lon="2.36165">
        <ele>446</ele>
        <time>2021-04-18T13:28:17Z</time>
      </trkpt>
      <trkpt lat="43.9533" lon="2.36161">
        <ele>446</ele>
        <time>2021-04-18T13:28:18Z</time>
      </trkpt>
      <trkpt lat="43.9533" lon="2.3616">
        <ele>446</ele>
        <time>2021-04-18T13:28:19Z</time>
      </trkpt>
      <trkpt lat="43.9533" lon="2.36158">
        <ele>446</ele>
        <time>2021-04-18T13:28:20Z</time>
      </trkpt>
      <trkpt lat="43.95331" lon="2.36156">
        <ele>446</ele>
        <time>2021-04-18T13:28:21Z</time>
      </trkpt>
      <trkpt lat="43.95332" lon="2.36154">
        <ele>447</ele>
        <time>2021-04-18T13:28:22Z</time>
      </trkpt>
      <trkpt lat="43.95332" lon="2.36152">
        <ele>447</ele>
        <time>2021-04-18T13:28:23Z</time>
      </trkpt>
      <trkpt lat="43.95333" lon="2.3615">
        <ele>447</ele>
        <time>2021-04-18T13:28:24Z</time>
      </trkpt>
      <trkpt lat="43.95333" lon="2.36149">
        <ele>447</ele>
        <time>2021-04-18T13:28:25Z</time>
      </trkpt>
      <trkpt lat="43.95334" lon="2.36147">
        <ele>447</ele>
        <time>2021-04-18T13:28:26Z</time>
      </trkpt>
      <trkpt lat="43.95334" lon="2.36147">
        <ele>447</ele>
        <time>2021-04-18T13:28:27Z</time>
      </trkpt>
      <trkpt lat="43.95334" lon="2.36147">
        <ele>447</ele>
        <time>2021-04-18T13:28:28Z</time>
      </trkpt>
      <trkpt lat="43.95335" lon="2.36143">
        <ele>447</ele>
        <time>2021-04-18T13:28:29Z</time>
      </trkpt>
      <trkpt lat="43.95336" lon="2.36141">
        <ele>448</ele>
        <time>2021-04-18T13:28:30Z</time>
      </trkpt>
      <trkpt lat="43.95336" lon="2.36139">
        <ele>448</ele>
        <time>2021-04-18T13:28:31Z</time>
      </trkpt>
      <trkpt lat="43.95337" lon="2.36137">
        <ele>448</ele>
        <time>2021-04-18T13:28:32Z</time>
      </trkpt>
      <trkpt lat="43.95338" lon="2.36135">
        <ele>448</ele>
        <time>2021-04-18T13:28:33Z</time>
      </trkpt>
      <trkpt lat="43.95338" lon="2.36132">
        <ele>447</ele>
        <time>2021-04-18T13:28:34Z</time>
      </trkpt>
      <trkpt lat="43.95339" lon="2.36131">
        <ele>447</ele>
        <time>2021-04-18T13:28:35Z</time>
      </trkpt>
      <trkpt lat="43.9534" lon="2.36129">
        <ele>446</ele>
        <time>2021-04-18T13:28:36Z</time>
      </trkpt>
      <trkpt lat="43.9534" lon="2.36127">
        <ele>447</ele>
        <time>2021-04-18T13:28:37Z</time>
      </trkpt>
      <trkpt lat="43.95341" lon="2.36125">
        <ele>447</ele>
        <time>2021-04-18T13:28:38Z</time>
      </trkpt>
      <trkpt lat="43.95342" lon="2.36122">
        <ele>447</ele>
        <time>2021-04-18T13:28:39Z</time>
      </trkpt>
      <trkpt lat="43.95343" lon="2.36119">
        <ele>447</ele>
        <time>2021-04-18T13:28:40Z</time>
      </trkpt>
      <trkpt lat="43.95345" lon="2.36117">
        <ele>447</ele>
        <time>2021-04-18T13:28:41Z</time>
      </trkpt>
      <trkpt lat="43.95345" lon="2.36116">
        <ele>447</ele>
        <time>2021-04-18T13:28:42Z</time>
      </trkpt>
      <trkpt lat="43.95347" lon="2.36113">
        <ele>446</ele>
        <time>2021-04-18T13:28:43Z</time>
      </trkpt>
      <trkpt lat="43.95347" lon="2.36112">
        <ele>446</ele>
        <time>2021-04-18T13:28:44Z</time>
      </trkpt>
      <trkpt lat="43.95348" lon="2.3611">
        <ele>446</ele>
        <time>2021-04-18T13:28:45Z</time>
      </trkpt>
      <trkpt lat="43.9535" lon="2.36108">
        <ele>446</ele>
        <time>2021-04-18T13:28:46Z</time>
      </trkpt>
      <trkpt lat="43.95351" lon="2.36106">
        <ele>446</ele>
        <time>2021-04-18T13:28:47Z</time>
      </trkpt>
      <trkpt lat="43.95352" lon="2.36103">
        <ele>446</ele>
        <time>2021-04-18T13:28:48Z</time>
      </trkpt>
      <trkpt lat="43.95352" lon="2.36102">
        <ele>446</ele>
        <time>2021-04-18T13:28:49Z</time>
      </trkpt>
      <trkpt lat="43.95353" lon="2.361">
        <ele>446</ele>
        <time>2021-04-18T13:28:50Z</time>
      </trkpt>
      <trkpt lat="43.95354" lon="2.36098">
        <ele>447</ele>
        <time>2021-04-18T13:28:51Z</time>
      </trkpt>
      <trkpt lat="43.95354" lon="2.36097">
        <ele>447</ele>
        <time>2021-04-18T13:28:52Z</time>
      </trkpt>
      <trkpt lat="43.95355" lon="2.36097">
        <ele>446</ele>
        <time>2021-04-18T13:28:53Z</time>
      </trkpt>
      <trkpt lat="43.95354" lon="2.36097">
        <ele>446</ele>
        <time>2021-04-18T13:28:54Z</time>
      </trkpt>
      <trkpt lat="43.95354" lon="2.36097">
        <ele>446</ele>
        <time>2021-04-18T13:28:55Z</time>
      </trkpt>
      <trkpt lat="43.95354" lon="2.36097">
        <ele>446</ele>
        <time>2021-04-18T13:28:56Z</time>
      </trkpt>
      <trkpt lat="43.95354" lon="2.36097">
        <ele>446</ele>
        <time>2021-04-18T13:28:56Z</time>
      </trkpt>
      <trkpt lat="43.95354" lon="2.36097">
        <ele>446</ele>
        <time>2021-04-18T13:28:56Z</time>
      </trkpt>
      <trkpt lat="43.95356" lon="2.36084">
        <ele>446</ele>
        <time>2021-04-18T13:29:15Z</time>
      </trkpt>
      <trkpt lat="43.95357" lon="2.36083">
        <ele>445</ele>
        <time>2021-04-18T13:29:16Z</time>
      </trkpt>
      <trkpt lat="43.95357" lon="2.36082">
        <ele>446</ele>
        <time>2021-04-18T13:29:17Z</time>
      </trkpt>
      <trkpt lat="43.95357" lon="2.36082">
        <ele>447</ele>
        <time>2021-04-18T13:29:18Z</time>
      </trkpt>
      <trkpt lat="43.95358" lon="2.36082">
        <ele>446</ele>
        <time>2021-04-18T13:29:19Z</time>
      </trkpt>
      <trkpt lat="43.95358" lon="2.36081">
        <ele>447</ele>
        <time>2021-04-18T13:29:20Z</time>
      </trkpt>
      <trkpt lat="43.95358" lon="2.36081">
        <ele>447</ele>
        <time>2021-04-18T13:29:20Z</time>
      </trkpt>
      <trkpt lat="43.95358" lon="2.36081">
        <ele>447</ele>
        <time>2021-04-18T13:29:20Z</time>
      </trkpt>
      <trkpt lat="43.95362" lon="2.36075">
        <ele>448</ele>
        <time>2021-04-18T13:29:36Z</time>
      </trkpt>
      <trkpt lat="43.95363" lon="2.36075">
        <ele>448</ele>
        <time>2021-04-18T13:29:37Z</time>
      </trkpt>
      <trkpt lat="43.95363" lon="2.36073">
        <ele>448</ele>
        <time>2021-04-18T13:29:38Z</time>
      </trkpt>
      <trkpt lat="43.95364" lon="2.36072">
        <ele>448</ele>
        <time>2021-04-18T13:29:39Z</time>
      </trkpt>
      <trkpt lat="43.95364" lon="2.3607">
        <ele>448</ele>
        <time>2021-04-18T13:29:40Z</time>
      </trkpt>
      <trkpt lat="43.95365" lon="2.36068">
        <ele>448</ele>
        <time>2021-04-18T13:29:41Z</time>
      </trkpt>
      <trkpt lat="43.95366" lon="2.36067">
        <ele>448</ele>
        <time>2021-04-18T13:29:42Z</time>
      </trkpt>
      <trkpt lat="43.95366" lon="2.36065">
        <ele>448</ele>
        <time>2021-04-18T13:29:43Z</time>
      </trkpt>
      <trkpt lat="43.95366" lon="2.36064">
        <ele>448</ele>
        <time>2021-04-18T13:29:44Z</time>
      </trkpt>
      <trkpt lat="43.95367" lon="2.36062">
        <ele>447</ele>
        <time>2021-04-18T13:29:45Z</time>
      </trkpt>
      <trkpt lat="43.95367" lon="2.3606">
        <ele>447</ele>
        <time>2021-04-18T13:29:46Z</time>
      </trkpt>
      <trkpt lat="43.95368" lon="2.36058">
        <ele>447</ele>
        <time>2021-04-18T13:29:47Z</time>
      </trkpt>
      <trkpt lat="43.95368" lon="2.36056">
        <ele>448</ele>
        <time>2021-04-18T13:29:48Z</time>
      </trkpt>
      <trkpt lat="43.95368" lon="2.36055">
        <ele>448</ele>
        <time>2021-04-18T13:29:49Z</time>
      </trkpt>
      <trkpt lat="43.95369" lon="2.36053">
        <ele>448</ele>
        <time>2021-04-18T13:29:50Z</time>
      </trkpt>
      <trkpt lat="43.9537" lon="2.36052">
        <ele>448</ele>
        <time>2021-04-18T13:29:51Z</time>
      </trkpt>
      <trkpt lat="43.95371" lon="2.3605">
        <ele>448</ele>
        <time>2021-04-18T13:29:52Z</time>
      </trkpt>
      <trkpt lat="43.95371" lon="2.36049">
        <ele>448</ele>
        <time>2021-04-18T13:29:53Z</time>
      </trkpt>
      <trkpt lat="43.95372" lon="2.36047">
        <ele>448</ele>
        <time>2021-04-18T13:29:54Z</time>
      </trkpt>
      <trkpt lat="43.95372" lon="2.36046">
        <ele>448</ele>
        <time>2021-04-18T13:29:55Z</time>
      </trkpt>
      <trkpt lat="43.95373" lon="2.36045">
        <ele>448</ele>
        <time>2021-04-18T13:29:56Z</time>
      </trkpt>
      <trkpt lat="43.95373" lon="2.36044">
        <ele>448</ele>
        <time>2021-04-18T13:29:57Z</time>
      </trkpt>
      <trkpt lat="43.95374" lon="2.36043">
        <ele>448</ele>
        <time>2021-04-18T13:29:58Z</time>
      </trkpt>
      <trkpt lat="43.95374" lon="2.36041">
        <ele>448</ele>
        <time>2021-04-18T13:29:59Z</time>
      </trkpt>
      <trkpt lat="43.95375" lon="2.36039">
        <ele>448</ele>
        <time>2021-04-18T13:30:00Z</time>
      </trkpt>
      <trkpt lat="43.95375" lon="2.36037">
        <ele>448</ele>
        <time>2021-04-18T13:30:01Z</time>
      </trkpt>
      <trkpt lat="43.95375" lon="2.36035">
        <ele>448</ele>
        <time>2021-04-18T13:30:02Z</time>
      </trkpt>
      <trkpt lat="43.95375" lon="2.36034">
        <ele>448</ele>
        <time>2021-04-18T13:30:03Z</time>
      </trkpt>
      <trkpt lat="43.95376" lon="2.36032">
        <ele>449</ele>
        <time>2021-04-18T13:30:04Z</time>
      </trkpt>
      <trkpt lat="43.95377" lon="2.3603">
        <ele>449</ele>
        <time>2021-04-18T13:30:05Z</time>
      </trkpt>
      <trkpt lat="43.95378" lon="2.36029">
        <ele>449</ele>
        <time>2021-04-18T13:30:06Z</time>
      </trkpt>
      <trkpt lat="43.95379" lon="2.36027">
        <ele>450</ele>
        <time>2021-04-18T13:30:07Z</time>
      </trkpt>
      <trkpt lat="43.95379" lon="2.36026">
        <ele>450</ele>
        <time>2021-04-18T13:30:08Z</time>
      </trkpt>
      <trkpt lat="43.9538" lon="2.36025">
        <ele>450</ele>
        <time>2021-04-18T13:30:09Z</time>
      </trkpt>
      <trkpt lat="43.9538" lon="2.36024">
        <ele>450</ele>
        <time>2021-04-18T13:30:10Z</time>
      </trkpt>
      <trkpt lat="43.95381" lon="2.36022">
        <ele>449</ele>
        <time>2021-04-18T13:30:11Z</time>
      </trkpt>
      <trkpt lat="43.95382" lon="2.36021">
        <ele>450</ele>
        <time>2021-04-18T13:30:12Z</time>
      </trkpt>
      <trkpt lat="43.95382" lon="2.3602">
        <ele>451</ele>
        <time>2021-04-18T13:30:13Z</time>
      </trkpt>
      <trkpt lat="43.95383" lon="2.36019">
        <ele>451</ele>
        <time>2021-04-18T13:30:14Z</time>
      </trkpt>
      <trkpt lat="43.95384" lon="2.36019">
        <ele>452</ele>
        <time>2021-04-18T13:30:15Z</time>
      </trkpt>
      <trkpt lat="43.95385" lon="2.36018">
        <ele>453</ele>
        <time>2021-04-18T13:30:16Z</time>
      </trkpt>
      <trkpt lat="43.95385" lon="2.36017">
        <ele>453</ele>
        <time>2021-04-18T13:30:17Z</time>
      </trkpt>
      <trkpt lat="43.95386" lon="2.36015">
        <ele>453</ele>
        <time>2021-04-18T13:30:18Z</time>
      </trkpt>
      <trkpt lat="43.95386" lon="2.36014">
        <ele>454</ele>
        <time>2021-04-18T13:30:19Z</time>
      </trkpt>
      <trkpt lat="43.95387" lon="2.36013">
        <ele>454</ele>
        <time>2021-04-18T13:30:20Z</time>
      </trkpt>
      <trkpt lat="43.95388" lon="2.36013">
        <ele>454</ele>
        <time>2021-04-18T13:30:21Z</time>
      </trkpt>
      <trkpt lat="43.95388" lon="2.36012">
        <ele>454</ele>
        <time>2021-04-18T13:30:22Z</time>
      </trkpt>
      <trkpt lat="43.95389" lon="2.36011">
        <ele>455</ele>
        <time>2021-04-18T13:30:23Z</time>
      </trkpt>
      <trkpt lat="43.95389" lon="2.3601">
        <ele>454</ele>
        <time>2021-04-18T13:30:24Z</time>
      </trkpt>
      <trkpt lat="43.95389" lon="2.36009">
        <ele>454</ele>
        <time>2021-04-18T13:30:25Z</time>
      </trkpt>
      <trkpt lat="43.9539" lon="2.36007">
        <ele>454</ele>
        <time>2021-04-18T13:30:26Z</time>
      </trkpt>
      <trkpt lat="43.9539" lon="2.36006">
        <ele>454</ele>
        <time>2021-04-18T13:30:27Z</time>
      </trkpt>
      <trkpt lat="43.95391" lon="2.36004">
        <ele>454</ele>
        <time>2021-04-18T13:30:28Z</time>
      </trkpt>
      <trkpt lat="43.95391" lon="2.36003">
        <ele>454</ele>
        <time>2021-04-18T13:30:29Z</time>
      </trkpt>
      <trkpt lat="43.95392" lon="2.36002">
        <ele>454</ele>
        <time>2021-04-18T13:30:30Z</time>
      </trkpt>
      <trkpt lat="43.95392" lon="2.36">
        <ele>454</ele>
        <time>2021-04-18T13:30:31Z</time>
      </trkpt>
      <trkpt lat="43.95393" lon="2.35998">
        <ele>454</ele>
        <time>2021-04-18T13:30:32Z</time>
      </trkpt>
      <trkpt lat="43.95393" lon="2.35996">
        <ele>454</ele>
        <time>2021-04-18T13:30:33Z</time>
      </trkpt>
      <trkpt lat="43.95394" lon="2.35995">
        <ele>454</ele>
        <time>2021-04-18T13:30:34Z</time>
      </trkpt>
      <trkpt lat="43.95395" lon="2.35994">
        <ele>455</ele>
        <time>2021-04-18T13:30:35Z</time>
      </trkpt>
      <trkpt lat="43.95395" lon="2.35992">
        <ele>455</ele>
        <time>2021-04-18T13:30:36Z</time>
      </trkpt>
      <trkpt lat="43.95396" lon="2.35991">
        <ele>455</ele>
        <time>2021-04-18T13:30:37Z</time>
      </trkpt>
      <trkpt lat="43.95396" lon="2.3599">
        <ele>454</ele>
        <time>2021-04-18T13:30:38Z</time>
      </trkpt>
      <trkpt lat="43.95396" lon="2.35989">
        <ele>454</ele>
        <time>2021-04-18T13:30:39Z</time>
      </trkpt>
      <trkpt lat="43.95397" lon="2.35988">
        <ele>455</ele>
        <time>2021-04-18T13:30:40Z</time>
      </trkpt>
      <trkpt lat="43.95398" lon="2.35987">
        <ele>455</ele>
        <time>2021-04-18T13:30:41Z</time>
      </trkpt>
      <trkpt lat="43.95398" lon="2.35986">
        <ele>455</ele>
        <time>2021-04-18T13:30:42Z</time>
      </trkpt>
      <trkpt lat="43.95399" lon="2.35984">
        <ele>454</ele>
        <time>2021-04-18T13:30:43Z</time>
      </trkpt>
      <trkpt lat="43.954" lon="2.35982">
        <ele>454</ele>
        <time>2021-04-18T13:30:44Z</time>
      </trkpt>
      <trkpt lat="43.95401" lon="2.35981">
        <ele>454</ele>
        <time>2021-04-18T13:30:45Z</time>
      </trkpt>
      <trkpt lat="43.95402" lon="2.3598">
        <ele>455</ele>
        <time>2021-04-18T13:30:46Z</time>
      </trkpt>
      <trkpt lat="43.95403" lon="2.35979">
        <ele>455</ele>
        <time>2021-04-18T13:30:47Z</time>
      </trkpt>
      <trkpt lat="43.95403" lon="2.35978">
        <ele>455</ele>
        <time>2021-04-18T13:30:48Z</time>
      </trkpt>
      <trkpt lat="43.95404" lon="2.35977">
        <ele>455</ele>
        <time>2021-04-18T13:30:49Z</time>
      </trkpt>
      <trkpt lat="43.95405" lon="2.35975">
        <ele>456</ele>
        <time>2021-04-18T13:30:50Z</time>
      </trkpt>
      <trkpt lat="43.95406" lon="2.35973">
        <ele>456</ele>
        <time>2021-04-18T13:30:51Z</time>
      </trkpt>
      <trkpt lat="43.95406" lon="2.35972">
        <ele>456</ele>
        <time>2021-04-18T13:30:52Z</time>
      </trkpt>
      <trkpt lat="43.95407" lon="2.35972">
        <ele>456</ele>
        <time>2021-04-18T13:30:53Z</time>
      </trkpt>
      <trkpt lat="43.95407" lon="2.35972">
        <ele>456</ele>
        <time>2021-04-18T13:30:54Z</time>
      </trkpt>
      <trkpt lat="43.95409" lon="2.3597">
        <ele>456</ele>
        <time>2021-04-18T13:30:55Z</time>
      </trkpt>
      <trkpt lat="43.9541" lon="2.35969">
        <ele>456</ele>
        <time>2021-04-18T13:30:56Z</time>
      </trkpt>
      <trkpt lat="43.95412" lon="2.35968">
        <ele>456</ele>
        <time>2021-04-18T13:30:57Z</time>
      </trkpt>
      <trkpt lat="43.95413" lon="2.35967">
        <ele>456</ele>
        <time>2021-04-18T13:30:58Z</time>
      </trkpt>
      <trkpt lat="43.95414" lon="2.35966">
        <ele>456</ele>
        <time>2021-04-18T13:30:59Z</time>
      </trkpt>
      <trkpt lat="43.95415" lon="2.35965">
        <ele>455</ele>
        <time>2021-04-18T13:31:00Z</time>
      </trkpt>
      <trkpt lat="43.95416" lon="2.35963">
        <ele>455</ele>
        <time>2021-04-18T13:31:01Z</time>
      </trkpt>
      <trkpt lat="43.95417" lon="2.35962">
        <ele>456</ele>
        <time>2021-04-18T13:31:02Z</time>
      </trkpt>
      <trkpt lat="43.95419" lon="2.35961">
        <ele>456</ele>
        <time>2021-04-18T13:31:03Z</time>
      </trkpt>
      <trkpt lat="43.9542" lon="2.35961">
        <ele>456</ele>
        <time>2021-04-18T13:31:04Z</time>
      </trkpt>
      <trkpt lat="43.95421" lon="2.3596">
        <ele>456</ele>
        <time>2021-04-18T13:31:05Z</time>
      </trkpt>
      <trkpt lat="43.95422" lon="2.3596">
        <ele>456</ele>
        <time>2021-04-18T13:31:06Z</time>
      </trkpt>
      <trkpt lat="43.95423" lon="2.35959">
        <ele>456</ele>
        <time>2021-04-18T13:31:07Z</time>
      </trkpt>
      <trkpt lat="43.95424" lon="2.35959">
        <ele>456</ele>
        <time>2021-04-18T13:31:08Z</time>
      </trkpt>
      <trkpt lat="43.95425" lon="2.35959">
        <ele>456</ele>
        <time>2021-04-18T13:31:09Z</time>
      </trkpt>
      <trkpt lat="43.95426" lon="2.35958">
        <ele>456</ele>
        <time>2021-04-18T13:31:10Z</time>
      </trkpt>
      <trkpt lat="43.95427" lon="2.35958">
        <ele>456</ele>
        <time>2021-04-18T13:31:11Z</time>
      </trkpt>
      <trkpt lat="43.95428" lon="2.35958">
        <ele>456</ele>
        <time>2021-04-18T13:31:12Z</time>
      </trkpt>
      <trkpt lat="43.95429" lon="2.35957">
        <ele>457</ele>
        <time>2021-04-18T13:31:13Z</time>
      </trkpt>
      <trkpt lat="43.9543" lon="2.35957">
        <ele>457</ele>
        <time>2021-04-18T13:31:14Z</time>
      </trkpt>
      <trkpt lat="43.95431" lon="2.35956">
        <ele>457</ele>
        <time>2021-04-18T13:31:15Z</time>
      </trkpt>
      <trkpt lat="43.95432" lon="2.35955">
        <ele>457</ele>
        <time>2021-04-18T13:31:16Z</time>
      </trkpt>
      <trkpt lat="43.95433" lon="2.35954">
        <ele>458</ele>
        <time>2021-04-18T13:31:17Z</time>
      </trkpt>
      <trkpt lat="43.95435" lon="2.35953">
        <ele>458</ele>
        <time>2021-04-18T13:31:18Z</time>
      </trkpt>
      <trkpt lat="43.95436" lon="2.35952">
        <ele>458</ele>
        <time>2021-04-18T13:31:19Z</time>
      </trkpt>
      <trkpt lat="43.95437" lon="2.3595">
        <ele>458</ele>
        <time>2021-04-18T13:31:20Z</time>
      </trkpt>
      <trkpt lat="43.95438" lon="2.35949">
        <ele>458</ele>
        <time>2021-04-18T13:31:21Z</time>
      </trkpt>
      <trkpt lat="43.9544" lon="2.35946">
        <ele>458</ele>
        <time>2021-04-18T13:31:22Z</time>
      </trkpt>
      <trkpt lat="43.95441" lon="2.35945">
        <ele>459</ele>
        <time>2021-04-18T13:31:23Z</time>
      </trkpt>
      <trkpt lat="43.95441" lon="2.35943">
        <ele>459</ele>
        <time>2021-04-18T13:31:24Z</time>
      </trkpt>
      <trkpt lat="43.95442" lon="2.35942">
        <ele>460</ele>
        <time>2021-04-18T13:31:25Z</time>
      </trkpt>
      <trkpt lat="43.95442" lon="2.3594">
        <ele>459</ele>
        <time>2021-04-18T13:31:26Z</time>
      </trkpt>
      <trkpt lat="43.95443" lon="2.35939">
        <ele>460</ele>
        <time>2021-04-18T13:31:27Z</time>
      </trkpt>
      <trkpt lat="43.95444" lon="2.35938">
        <ele>460</ele>
        <time>2021-04-18T13:31:28Z</time>
      </trkpt>
      <trkpt lat="43.95444" lon="2.35938">
        <ele>460</ele>
        <time>2021-04-18T13:31:29Z</time>
      </trkpt>
      <trkpt lat="43.95444" lon="2.35938">
        <ele>460</ele>
        <time>2021-04-18T13:31:30Z</time>
      </trkpt>
      <trkpt lat="43.95444" lon="2.35936">
        <ele>461</ele>
        <time>2021-04-18T13:31:31Z</time>
      </trkpt>
      <trkpt lat="43.95445" lon="2.35935">
        <ele>461</ele>
        <time>2021-04-18T13:31:32Z</time>
      </trkpt>
      <trkpt lat="43.95445" lon="2.35933">
        <ele>461</ele>
        <time>2021-04-18T13:31:33Z</time>
      </trkpt>
      <trkpt lat="43.95445" lon="2.35932">
        <ele>462</ele>
        <time>2021-04-18T13:31:34Z</time>
      </trkpt>
      <trkpt lat="43.95446" lon="2.3593">
        <ele>462</ele>
        <time>2021-04-18T13:31:36Z</time>
      </trkpt>
      <trkpt lat="43.95446" lon="2.35928">
        <ele>462</ele>
        <time>2021-04-18T13:31:37Z</time>
      </trkpt>
      <trkpt lat="43.95448" lon="2.35927">
        <ele>463</ele>
        <time>2021-04-18T13:31:38Z</time>
      </trkpt>
      <trkpt lat="43.95448" lon="2.35926">
        <ele>463</ele>
        <time>2021-04-18T13:31:39Z</time>
      </trkpt>
      <trkpt lat="43.95449" lon="2.35924">
        <ele>463</ele>
        <time>2021-04-18T13:31:40Z</time>
      </trkpt>
      <trkpt lat="43.9545" lon="2.35923">
        <ele>464</ele>
        <time>2021-04-18T13:31:41Z</time>
      </trkpt>
      <trkpt lat="43.95451" lon="2.35922">
        <ele>465</ele>
        <time>2021-04-18T13:31:42Z</time>
      </trkpt>
      <trkpt lat="43.95451" lon="2.3592">
        <ele>465</ele>
        <time>2021-04-18T13:31:43Z</time>
      </trkpt>
      <trkpt lat="43.95452" lon="2.35919">
        <ele>466</ele>
        <time>2021-04-18T13:31:44Z</time>
      </trkpt>
      <trkpt lat="43.95453" lon="2.35918">
        <ele>466</ele>
        <time>2021-04-18T13:31:45Z</time>
      </trkpt>
      <trkpt lat="43.95454" lon="2.35916">
        <ele>467</ele>
        <time>2021-04-18T13:31:46Z</time>
      </trkpt>
      <trkpt lat="43.95455" lon="2.35914">
        <ele>466</ele>
        <time>2021-04-18T13:31:47Z</time>
      </trkpt>
      <trkpt lat="43.95456" lon="2.35913">
        <ele>466</ele>
        <time>2021-04-18T13:31:48Z</time>
      </trkpt>
      <trkpt lat="43.95456" lon="2.35911">
        <ele>466</ele>
        <time>2021-04-18T13:31:49Z</time>
      </trkpt>
      <trkpt lat="43.95457" lon="2.3591">
        <ele>466</ele>
        <time>2021-04-18T13:31:50Z</time>
      </trkpt>
      <trkpt lat="43.95457" lon="2.35908">
        <ele>465</ele>
        <time>2021-04-18T13:31:51Z</time>
      </trkpt>
      <trkpt lat="43.95458" lon="2.35907">
        <ele>465</ele>
        <time>2021-04-18T13:31:52Z</time>
      </trkpt>
      <trkpt lat="43.95459" lon="2.35906">
        <ele>465</ele>
        <time>2021-04-18T13:31:53Z</time>
      </trkpt>
      <trkpt lat="43.95459" lon="2.35905">
        <ele>465</ele>
        <time>2021-04-18T13:31:54Z</time>
      </trkpt>
      <trkpt lat="43.95461" lon="2.35902">
        <ele>466</ele>
        <time>2021-04-18T13:31:55Z</time>
      </trkpt>
      <trkpt lat="43.95461" lon="2.359">
        <ele>467</ele>
        <time>2021-04-18T13:31:56Z</time>
      </trkpt>
      <trkpt lat="43.95461" lon="2.35899">
        <ele>467</ele>
        <time>2021-04-18T13:31:57Z</time>
      </trkpt>
      <trkpt lat="43.95462" lon="2.35898">
        <ele>466</ele>
        <time>2021-04-18T13:31:58Z</time>
      </trkpt>
      <trkpt lat="43.95462" lon="2.35896">
        <ele>466</ele>
        <time>2021-04-18T13:31:59Z</time>
      </trkpt>
      <trkpt lat="43.95463" lon="2.35894">
        <ele>467</ele>
        <time>2021-04-18T13:32:00Z</time>
      </trkpt>
      <trkpt lat="43.95464" lon="2.35892">
        <ele>467</ele>
        <time>2021-04-18T13:32:01Z</time>
      </trkpt>
      <trkpt lat="43.95464" lon="2.3589">
        <ele>467</ele>
        <time>2021-04-18T13:32:02Z</time>
      </trkpt>
      <trkpt lat="43.95464" lon="2.35888">
        <ele>467</ele>
        <time>2021-04-18T13:32:03Z</time>
      </trkpt>
      <trkpt lat="43.95464" lon="2.35886">
        <ele>467</ele>
        <time>2021-04-18T13:32:04Z</time>
      </trkpt>
      <trkpt lat="43.95465" lon="2.35885">
        <ele>468</ele>
        <time>2021-04-18T13:32:05Z</time>
      </trkpt>
      <trkpt lat="43.95466" lon="2.35883">
        <ele>468</ele>
        <time>2021-04-18T13:32:06Z</time>
      </trkpt>
      <trkpt lat="43.95466" lon="2.35882">
        <ele>468</ele>
        <time>2021-04-18T13:32:07Z</time>
      </trkpt>
      <trkpt lat="43.95467" lon="2.3588">
        <ele>468</ele>
        <time>2021-04-18T13:32:08Z</time>
      </trkpt>
      <trkpt lat="43.95467" lon="2.35879">
        <ele>468</ele>
        <time>2021-04-18T13:32:09Z</time>
      </trkpt>
      <trkpt lat="43.95468" lon="2.35877">
        <ele>468</ele>
        <time>2021-04-18T13:32:10Z</time>
      </trkpt>
      <trkpt lat="43.95468" lon="2.35876">
        <ele>468</ele>
        <time>2021-04-18T13:32:11Z</time>
      </trkpt>
      <trkpt lat="43.95469" lon="2.35875">
        <ele>468</ele>
        <time>2021-04-18T13:32:12Z</time>
      </trkpt>
      <trkpt lat="43.95469" lon="2.35874">
        <ele>469</ele>
        <time>2021-04-18T13:32:13Z</time>
      </trkpt>
      <trkpt lat="43.9547" lon="2.35872">
        <ele>469</ele>
        <time>2021-04-18T13:32:14Z</time>
      </trkpt>
      <trkpt lat="43.95471" lon="2.3587">
        <ele>469</ele>
        <time>2021-04-18T13:32:15Z</time>
      </trkpt>
      <trkpt lat="43.95472" lon="2.35868">
        <ele>469</ele>
        <time>2021-04-18T13:32:16Z</time>
      </trkpt>
      <trkpt lat="43.95472" lon="2.35866">
        <ele>470</ele>
        <time>2021-04-18T13:32:17Z</time>
      </trkpt>
      <trkpt lat="43.95473" lon="2.35865">
        <ele>470</ele>
        <time>2021-04-18T13:32:18Z</time>
      </trkpt>
      <trkpt lat="43.95474" lon="2.35863">
        <ele>471</ele>
        <time>2021-04-18T13:32:19Z</time>
      </trkpt>
      <trkpt lat="43.95474" lon="2.35862">
        <ele>471</ele>
        <time>2021-04-18T13:32:20Z</time>
      </trkpt>
      <trkpt lat="43.95474" lon="2.3586">
        <ele>471</ele>
        <time>2021-04-18T13:32:21Z</time>
      </trkpt>
      <trkpt lat="43.95474" lon="2.3586">
        <ele>471</ele>
        <time>2021-04-18T13:32:22Z</time>
      </trkpt>
      <trkpt lat="43.95474" lon="2.3586">
        <ele>471</ele>
        <time>2021-04-18T13:32:23Z</time>
      </trkpt>
      <trkpt lat="43.95474" lon="2.3586">
        <ele>471</ele>
        <time>2021-04-18T13:32:24Z</time>
      </trkpt>
      <trkpt lat="43.95475" lon="2.3586">
        <ele>471</ele>
        <time>2021-04-18T13:32:25Z</time>
      </trkpt>
      <trkpt lat="43.95475" lon="2.35859">
        <ele>471</ele>
        <time>2021-04-18T13:32:26Z</time>
      </trkpt>
      <trkpt lat="43.95476" lon="2.35857">
        <ele>471</ele>
        <time>2021-04-18T13:32:27Z</time>
      </trkpt>
      <trkpt lat="43.95477" lon="2.35855">
        <ele>471</ele>
        <time>2021-04-18T13:32:28Z</time>
      </trkpt>
      <trkpt lat="43.95477" lon="2.35853">
        <ele>473</ele>
        <time>2021-04-18T13:32:29Z</time>
      </trkpt>
      <trkpt lat="43.95477" lon="2.35851">
        <ele>474</ele>
        <time>2021-04-18T13:32:30Z</time>
      </trkpt>
      <trkpt lat="43.95478" lon="2.35849">
        <ele>474</ele>
        <time>2021-04-18T13:32:31Z</time>
      </trkpt>
      <trkpt lat="43.95478" lon="2.35847">
        <ele>474</ele>
        <time>2021-04-18T13:32:32Z</time>
      </trkpt>
      <trkpt lat="43.95479" lon="2.35845">
        <ele>474</ele>
        <time>2021-04-18T13:32:33Z</time>
      </trkpt>
      <trkpt lat="43.9548" lon="2.35843">
        <ele>474</ele>
        <time>2021-04-18T13:32:34Z</time>
      </trkpt>
      <trkpt lat="43.9548" lon="2.35842">
        <ele>474</ele>
        <time>2021-04-18T13:32:35Z</time>
      </trkpt>
      <trkpt lat="43.95481" lon="2.3584">
        <ele>474</ele>
        <time>2021-04-18T13:32:36Z</time>
      </trkpt>
      <trkpt lat="43.95481" lon="2.35839">
        <ele>475</ele>
        <time>2021-04-18T13:32:37Z</time>
      </trkpt>
      <trkpt lat="43.95482" lon="2.35838">
        <ele>475</ele>
        <time>2021-04-18T13:32:38Z</time>
      </trkpt>
      <trkpt lat="43.95483" lon="2.35836">
        <ele>475</ele>
        <time>2021-04-18T13:32:39Z</time>
      </trkpt>
      <trkpt lat="43.95483" lon="2.35834">
        <ele>475</ele>
        <time>2021-04-18T13:32:40Z</time>
      </trkpt>
      <trkpt lat="43.95483" lon="2.35833">
        <ele>474</ele>
        <time>2021-04-18T13:32:41Z</time>
      </trkpt>
      <trkpt lat="43.95484" lon="2.35831">
        <ele>474</ele>
        <time>2021-04-18T13:32:42Z</time>
      </trkpt>
      <trkpt lat="43.95485" lon="2.3583">
        <ele>474</ele>
        <time>2021-04-18T13:32:43Z</time>
      </trkpt>
      <trkpt lat="43.95486" lon="2.35827">
        <ele>474</ele>
        <time>2021-04-18T13:32:44Z</time>
      </trkpt>
      <trkpt lat="43.95487" lon="2.35826">
        <ele>474</ele>
        <time>2021-04-18T13:32:45Z</time>
      </trkpt>
      <trkpt lat="43.95487" lon="2.35824">
        <ele>474</ele>
        <time>2021-04-18T13:32:46Z</time>
      </trkpt>
      <trkpt lat="43.95487" lon="2.35823">
        <ele>474</ele>
        <time>2021-04-18T13:32:47Z</time>
      </trkpt>
      <trkpt lat="43.95487" lon="2.35821">
        <ele>473</ele>
        <time>2021-04-18T13:32:48Z</time>
      </trkpt>
      <trkpt lat="43.95488" lon="2.35819">
        <ele>474</ele>
        <time>2021-04-18T13:32:49Z</time>
      </trkpt>
      <trkpt lat="43.95489" lon="2.35817">
        <ele>474</ele>
        <time>2021-04-18T13:32:50Z</time>
      </trkpt>
      <trkpt lat="43.9549" lon="2.35815">
        <ele>474</ele>
        <time>2021-04-18T13:32:51Z</time>
      </trkpt>
      <trkpt lat="43.9549" lon="2.35812">
        <ele>474</ele>
        <time>2021-04-18T13:32:52Z</time>
      </trkpt>
      <trkpt lat="43.95491" lon="2.3581">
        <ele>474</ele>
        <time>2021-04-18T13:32:53Z</time>
      </trkpt>
      <trkpt lat="43.95491" lon="2.35808">
        <ele>473</ele>
        <time>2021-04-18T13:32:54Z</time>
      </trkpt>
      <trkpt lat="43.95492" lon="2.35807">
        <ele>473</ele>
        <time>2021-04-18T13:32:55Z</time>
      </trkpt>
      <trkpt lat="43.95493" lon="2.35805">
        <ele>473</ele>
        <time>2021-04-18T13:32:56Z</time>
      </trkpt>
      <trkpt lat="43.95493" lon="2.35803">
        <ele>473</ele>
        <time>2021-04-18T13:32:57Z</time>
      </trkpt>
      <trkpt lat="43.95495" lon="2.35801">
        <ele>473</ele>
        <time>2021-04-18T13:32:58Z</time>
      </trkpt>
      <trkpt lat="43.95496" lon="2.35799">
        <ele>473</ele>
        <time>2021-04-18T13:32:59Z</time>
      </trkpt>
      <trkpt lat="43.95496" lon="2.35798">
        <ele>472</ele>
        <time>2021-04-18T13:33:00Z</time>
      </trkpt>
      <trkpt lat="43.95498" lon="2.35796">
        <ele>473</ele>
        <time>2021-04-18T13:33:01Z</time>
      </trkpt>
      <trkpt lat="43.95499" lon="2.35793">
        <ele>473</ele>
        <time>2021-04-18T13:33:02Z</time>
      </trkpt>
      <trkpt lat="43.95499" lon="2.35791">
        <ele>473</ele>
        <time>2021-04-18T13:33:03Z</time>
      </trkpt>
      <trkpt lat="43.955" lon="2.35789">
        <ele>473</ele>
        <time>2021-04-18T13:33:04Z</time>
      </trkpt>
      <trkpt lat="43.95501" lon="2.35787">
        <ele>473</ele>
        <time>2021-04-18T13:33:05Z</time>
      </trkpt>
      <trkpt lat="43.95501" lon="2.35785">
        <ele>472</ele>
        <time>2021-04-18T13:33:06Z</time>
      </trkpt>
      <trkpt lat="43.95502" lon="2.35783">
        <ele>472</ele>
        <time>2021-04-18T13:33:07Z</time>
      </trkpt>
      <trkpt lat="43.95502" lon="2.35781">
        <ele>472</ele>
        <time>2021-04-18T13:33:08Z</time>
      </trkpt>
      <trkpt lat="43.95502" lon="2.35779">
        <ele>471</ele>
        <time>2021-04-18T13:33:09Z</time>
      </trkpt>
      <trkpt lat="43.95503" lon="2.35776">
        <ele>471</ele>
        <time>2021-04-18T13:33:10Z</time>
      </trkpt>
      <trkpt lat="43.95503" lon="2.35774">
        <ele>471</ele>
        <time>2021-04-18T13:33:11Z</time>
      </trkpt>
      <trkpt lat="43.95503" lon="2.35772">
        <ele>471</ele>
        <time>2021-04-18T13:33:12Z</time>
      </trkpt>
      <trkpt lat="43.95503" lon="2.3577">
        <ele>471</ele>
        <time>2021-04-18T13:33:13Z</time>
      </trkpt>
      <trkpt lat="43.95503" lon="2.35768">
        <ele>471</ele>
        <time>2021-04-18T13:33:14Z</time>
      </trkpt>
      <trkpt lat="43.95504" lon="2.35766">
        <ele>470</ele>
        <time>2021-04-18T13:33:15Z</time>
      </trkpt>
      <trkpt lat="43.95504" lon="2.35764">
        <ele>470</ele>
        <time>2021-04-18T13:33:16Z</time>
      </trkpt>
      <trkpt lat="43.95504" lon="2.35762">
        <ele>470</ele>
        <time>2021-04-18T13:33:17Z</time>
      </trkpt>
      <trkpt lat="43.95504" lon="2.3576">
        <ele>470</ele>
        <time>2021-04-18T13:33:18Z</time>
      </trkpt>
      <trkpt lat="43.95504" lon="2.35758">
        <ele>470</ele>
        <time>2021-04-18T13:33:19Z</time>
      </trkpt>
      <trkpt lat="43.95504" lon="2.35755">
        <ele>470</ele>
        <time>2021-04-18T13:33:20Z</time>
      </trkpt>
      <trkpt lat="43.95504" lon="2.35753">
        <ele>470</ele>
        <time>2021-04-18T13:33:21Z</time>
      </trkpt>
      <trkpt lat="43.95505" lon="2.35751">
        <ele>469</ele>
        <time>2021-04-18T13:33:22Z</time>
      </trkpt>
      <trkpt lat="43.95505" lon="2.35749">
        <ele>469</ele>
        <time>2021-04-18T13:33:23Z</time>
      </trkpt>
      <trkpt lat="43.95506" lon="2.35747">
        <ele>469</ele>
        <time>2021-04-18T13:33:24Z</time>
      </trkpt>
      <trkpt lat="43.95506" lon="2.35745">
        <ele>469</ele>
        <time>2021-04-18T13:33:25Z</time>
      </trkpt>
      <trkpt lat="43.95507" lon="2.35743">
        <ele>469</ele>
        <time>2021-04-18T13:33:26Z</time>
      </trkpt>
      <trkpt lat="43.95507" lon="2.35741">
        <ele>468</ele>
        <time>2021-04-18T13:33:27Z</time>
      </trkpt>
      <trkpt lat="43.95507" lon="2.35739">
        <ele>468</ele>
        <time>2021-04-18T13:33:28Z</time>
      </trkpt>
      <trkpt lat="43.95508" lon="2.35736">
        <ele>468</ele>
        <time>2021-04-18T13:33:29Z</time>
      </trkpt>
      <trkpt lat="43.95509" lon="2.35735">
        <ele>468</ele>
        <time>2021-04-18T13:33:30Z</time>
      </trkpt>
      <trkpt lat="43.95509" lon="2.35733">
        <ele>468</ele>
        <time>2021-04-18T13:33:31Z</time>
      </trkpt>
      <trkpt lat="43.9551" lon="2.35731">
        <ele>468</ele>
        <time>2021-04-18T13:33:32Z</time>
      </trkpt>
      <trkpt lat="43.95511" lon="2.35729">
        <ele>469</ele>
        <time>2021-04-18T13:33:33Z</time>
      </trkpt>
      <trkpt lat="43.95511" lon="2.35727">
        <ele>468</ele>
        <time>2021-04-18T13:33:34Z</time>
      </trkpt>
      <trkpt lat="43.95511" lon="2.35725">
        <ele>468</ele>
        <time>2021-04-18T13:33:35Z</time>
      </trkpt>
      <trkpt lat="43.95512" lon="2.35723">
        <ele>468</ele>
        <time>2021-04-18T13:33:36Z</time>
      </trkpt>
      <trkpt lat="43.95512" lon="2.3572">
        <ele>468</ele>
        <time>2021-04-18T13:33:37Z</time>
      </trkpt>
      <trkpt lat="43.95512" lon="2.35718">
        <ele>468</ele>
        <time>2021-04-18T13:33:38Z</time>
      </trkpt>
      <trkpt lat="43.95512" lon="2.35716">
        <ele>468</ele>
        <time>2021-04-18T13:33:39Z</time>
      </trkpt>
      <trkpt lat="43.95512" lon="2.35714">
        <ele>468</ele>
        <time>2021-04-18T13:33:40Z</time>
      </trkpt>
      <trkpt lat="43.95513" lon="2.35713">
        <ele>467</ele>
        <time>2021-04-18T13:33:41Z</time>
      </trkpt>
      <trkpt lat="43.95514" lon="2.35711">
        <ele>466</ele>
        <time>2021-04-18T13:33:42Z</time>
      </trkpt>
      <trkpt lat="43.95514" lon="2.35709">
        <ele>466</ele>
        <time>2021-04-18T13:33:43Z</time>
      </trkpt>
      <trkpt lat="43.95514" lon="2.35707">
        <ele>466</ele>
        <time>2021-04-18T13:33:44Z</time>
      </trkpt>
      <trkpt lat="43.95515" lon="2.35704">
        <ele>466</ele>
        <time>2021-04-18T13:33:45Z</time>
      </trkpt>
      <trkpt lat="43.95515" lon="2.35703">
        <ele>466</ele>
        <time>2021-04-18T13:33:46Z</time>
      </trkpt>
      <trkpt lat="43.95516" lon="2.35701">
        <ele>466</ele>
        <time>2021-04-18T13:33:47Z</time>
      </trkpt>
      <trkpt lat="43.95517" lon="2.357">
        <ele>466</ele>
        <time>2021-04-18T13:33:48Z</time>
      </trkpt>
      <trkpt lat="43.95517" lon="2.35698">
        <ele>466</ele>
        <time>2021-04-18T13:33:49Z</time>
      </trkpt>
      <trkpt lat="43.95519" lon="2.35696">
        <ele>466</ele>
        <time>2021-04-18T13:33:50Z</time>
      </trkpt>
      <trkpt lat="43.95519" lon="2.35694">
        <ele>466</ele>
        <time>2021-04-18T13:33:51Z</time>
      </trkpt>
      <trkpt lat="43.95519" lon="2.35692">
        <ele>466</ele>
        <time>2021-04-18T13:33:52Z</time>
      </trkpt>
      <trkpt lat="43.9552" lon="2.3569">
        <ele>466</ele>
        <time>2021-04-18T13:33:53Z</time>
      </trkpt>
      <trkpt lat="43.95521" lon="2.35689">
        <ele>466</ele>
        <time>2021-04-18T13:33:54Z</time>
      </trkpt>
      <trkpt lat="43.95522" lon="2.35687">
        <ele>465</ele>
        <time>2021-04-18T13:33:55Z</time>
      </trkpt>
      <trkpt lat="43.95523" lon="2.35686">
        <ele>466</ele>
        <time>2021-04-18T13:33:56Z</time>
      </trkpt>
      <trkpt lat="43.95524" lon="2.35684">
        <ele>466</ele>
        <time>2021-04-18T13:33:57Z</time>
      </trkpt>
      <trkpt lat="43.95525" lon="2.35682">
        <ele>466</ele>
        <time>2021-04-18T13:33:58Z</time>
      </trkpt>
      <trkpt lat="43.95527" lon="2.3568">
        <ele>467</ele>
        <time>2021-04-18T13:33:59Z</time>
      </trkpt>
      <trkpt lat="43.95527" lon="2.35678">
        <ele>466</ele>
        <time>2021-04-18T13:34:00Z</time>
      </trkpt>
      <trkpt lat="43.95528" lon="2.35676">
        <ele>466</ele>
        <time>2021-04-18T13:34:01Z</time>
      </trkpt>
      <trkpt lat="43.95529" lon="2.35674">
        <ele>466</ele>
        <time>2021-04-18T13:34:02Z</time>
      </trkpt>
      <trkpt lat="43.9553" lon="2.35672">
        <ele>466</ele>
        <time>2021-04-18T13:34:03Z</time>
      </trkpt>
      <trkpt lat="43.95531" lon="2.3567">
        <ele>465</ele>
        <time>2021-04-18T13:34:04Z</time>
      </trkpt>
      <trkpt lat="43.95532" lon="2.35668">
        <ele>465</ele>
        <time>2021-04-18T13:34:05Z</time>
      </trkpt>
      <trkpt lat="43.95533" lon="2.35666">
        <ele>465</ele>
        <time>2021-04-18T13:34:06Z</time>
      </trkpt>
      <trkpt lat="43.95533" lon="2.35663">
        <ele>466</ele>
        <time>2021-04-18T13:34:07Z</time>
      </trkpt>
      <trkpt lat="43.95535" lon="2.35661">
        <ele>465</ele>
        <time>2021-04-18T13:34:08Z</time>
      </trkpt>
      <trkpt lat="43.95535" lon="2.35659">
        <ele>464</ele>
        <time>2021-04-18T13:34:09Z</time>
      </trkpt>
      <trkpt lat="43.95536" lon="2.35657">
        <ele>464</ele>
        <time>2021-04-18T13:34:10Z</time>
      </trkpt>
      <trkpt lat="43.95537" lon="2.35655">
        <ele>464</ele>
        <time>2021-04-18T13:34:11Z</time>
      </trkpt>
      <trkpt lat="43.95538" lon="2.35653">
        <ele>464</ele>
        <time>2021-04-18T13:34:12Z</time>
      </trkpt>
      <trkpt lat="43.95539" lon="2.35651">
        <ele>464</ele>
        <time>2021-04-18T13:34:13Z</time>
      </trkpt>
      <trkpt lat="43.9554" lon="2.3565">
        <ele>464</ele>
        <time>2021-04-18T13:34:14Z</time>
      </trkpt>
      <trkpt lat="43.95541" lon="2.35648">
        <ele>465</ele>
        <time>2021-04-18T13:34:15Z</time>
      </trkpt>
      <trkpt lat="43.95542" lon="2.35646">
        <ele>464</ele>
        <time>2021-04-18T13:34:16Z</time>
      </trkpt>
      <trkpt lat="43.95543" lon="2.35645">
        <ele>464</ele>
        <time>2021-04-18T13:34:17Z</time>
      </trkpt>
      <trkpt lat="43.95544" lon="2.35643">
        <ele>464</ele>
        <time>2021-04-18T13:34:18Z</time>
      </trkpt>
      <trkpt lat="43.95545" lon="2.35641">
        <ele>464</ele>
        <time>2021-04-18T13:34:19Z</time>
      </trkpt>
      <trkpt lat="43.95545" lon="2.35639">
        <ele>464</ele>
        <time>2021-04-18T13:34:20Z</time>
      </trkpt>
      <trkpt lat="43.95546" lon="2.35638">
        <ele>466</ele>
        <time>2021-04-18T13:34:21Z</time>
      </trkpt>
      <trkpt lat="43.95547" lon="2.35636">
        <ele>465</ele>
        <time>2021-04-18T13:34:22Z</time>
      </trkpt>
      <trkpt lat="43.95548" lon="2.35634">
        <ele>466</ele>
        <time>2021-04-18T13:34:23Z</time>
      </trkpt>
      <trkpt lat="43.95549" lon="2.35632">
        <ele>466</ele>
        <time>2021-04-18T13:34:24Z</time>
      </trkpt>
      <trkpt lat="43.95549" lon="2.3563">
        <ele>466</ele>
        <time>2021-04-18T13:34:25Z</time>
      </trkpt>
      <trkpt lat="43.95551" lon="2.35628">
        <ele>466</ele>
        <time>2021-04-18T13:34:26Z</time>
      </trkpt>
      <trkpt lat="43.95552" lon="2.35627">
        <ele>466</ele>
        <time>2021-04-18T13:34:27Z</time>
      </trkpt>
      <trkpt lat="43.95553" lon="2.35625">
        <ele>466</ele>
        <time>2021-04-18T13:34:28Z</time>
      </trkpt>
      <trkpt lat="43.95554" lon="2.35623">
        <ele>466</ele>
        <time>2021-04-18T13:34:29Z</time>
      </trkpt>
      <trkpt lat="43.95554" lon="2.35622">
        <ele>466</ele>
        <time>2021-04-18T13:34:30Z</time>
      </trkpt>
      <trkpt lat="43.95555" lon="2.35621">
        <ele>466</ele>
        <time>2021-04-18T13:34:31Z</time>
      </trkpt>
      <trkpt lat="43.95556" lon="2.35619">
        <ele>466</ele>
        <time>2021-04-18T13:34:32Z</time>
      </trkpt>
      <trkpt lat="43.95556" lon="2.35618">
        <ele>465</ele>
        <time>2021-04-18T13:34:33Z</time>
      </trkpt>
      <trkpt lat="43.95557" lon="2.35617">
        <ele>465</ele>
        <time>2021-04-18T13:34:34Z</time>
      </trkpt>
      <trkpt lat="43.95558" lon="2.35616">
        <ele>464</ele>
        <time>2021-04-18T13:34:35Z</time>
      </trkpt>
      <trkpt lat="43.95559" lon="2.35614">
        <ele>464</ele>
        <time>2021-04-18T13:34:36Z</time>
      </trkpt>
      <trkpt lat="43.9556" lon="2.35613">
        <ele>464</ele>
        <time>2021-04-18T13:34:37Z</time>
      </trkpt>
      <trkpt lat="43.95561" lon="2.35612">
        <ele>463</ele>
        <time>2021-04-18T13:34:38Z</time>
      </trkpt>
      <trkpt lat="43.95562" lon="2.3561">
        <ele>463</ele>
        <time>2021-04-18T13:34:39Z</time>
      </trkpt>
      <trkpt lat="43.95562" lon="2.35608">
        <ele>462</ele>
        <time>2021-04-18T13:34:40Z</time>
      </trkpt>
      <trkpt lat="43.95563" lon="2.35607">
        <ele>462</ele>
        <time>2021-04-18T13:34:41Z</time>
      </trkpt>
      <trkpt lat="43.95564" lon="2.35606">
        <ele>461</ele>
        <time>2021-04-18T13:34:42Z</time>
      </trkpt>
      <trkpt lat="43.95565" lon="2.35604">
        <ele>461</ele>
        <time>2021-04-18T13:34:43Z</time>
      </trkpt>
      <trkpt lat="43.95566" lon="2.35603">
        <ele>461</ele>
        <time>2021-04-18T13:34:44Z</time>
      </trkpt>
      <trkpt lat="43.95567" lon="2.35601">
        <ele>461</ele>
        <time>2021-04-18T13:34:45Z</time>
      </trkpt>
      <trkpt lat="43.95568" lon="2.356">
        <ele>461</ele>
        <time>2021-04-18T13:34:46Z</time>
      </trkpt>
      <trkpt lat="43.95569" lon="2.35598">
        <ele>462</ele>
        <time>2021-04-18T13:34:47Z</time>
      </trkpt>
      <trkpt lat="43.9557" lon="2.35597">
        <ele>461</ele>
        <time>2021-04-18T13:34:48Z</time>
      </trkpt>
      <trkpt lat="43.95572" lon="2.35595">
        <ele>461</ele>
        <time>2021-04-18T13:34:49Z</time>
      </trkpt>
      <trkpt lat="43.95573" lon="2.35593">
        <ele>462</ele>
        <time>2021-04-18T13:34:50Z</time>
      </trkpt>
      <trkpt lat="43.95574" lon="2.35591">
        <ele>463</ele>
        <time>2021-04-18T13:34:51Z</time>
      </trkpt>
      <trkpt lat="43.95575" lon="2.3559">
        <ele>463</ele>
        <time>2021-04-18T13:34:52Z</time>
      </trkpt>
      <trkpt lat="43.95577" lon="2.35588">
        <ele>463</ele>
        <time>2021-04-18T13:34:53Z</time>
      </trkpt>
      <trkpt lat="43.95578" lon="2.35586">
        <ele>463</ele>
        <time>2021-04-18T13:34:54Z</time>
      </trkpt>
      <trkpt lat="43.95579" lon="2.35584">
        <ele>463</ele>
        <time>2021-04-18T13:34:55Z</time>
      </trkpt>
      <trkpt lat="43.9558" lon="2.35583">
        <ele>463</ele>
        <time>2021-04-18T13:34:56Z</time>
      </trkpt>
      <trkpt lat="43.95581" lon="2.35582">
        <ele>463</ele>
        <time>2021-04-18T13:34:57Z</time>
      </trkpt>
      <trkpt lat="43.95582" lon="2.35581">
        <ele>463</ele>
        <time>2021-04-18T13:34:58Z</time>
      </trkpt>
      <trkpt lat="43.95583" lon="2.35579">
        <ele>463</ele>
        <time>2021-04-18T13:34:59Z</time>
      </trkpt>
      <trkpt lat="43.95584" lon="2.35578">
        <ele>463</ele>
        <time>2021-04-18T13:35:00Z</time>
      </trkpt>
      <trkpt lat="43.95585" lon="2.35577">
        <ele>463</ele>
        <time>2021-04-18T13:35:01Z</time>
      </trkpt>
      <trkpt lat="43.95585" lon="2.35577">
        <ele>463</ele>
        <time>2021-04-18T13:35:01Z</time>
      </trkpt>
      <trkpt lat="43.95586" lon="2.35575">
        <ele>464</ele>
        <time>2021-04-18T13:35:03Z</time>
      </trkpt>
      <trkpt lat="43.95588" lon="2.35573">
        <ele>464</ele>
        <time>2021-04-18T13:35:04Z</time>
      </trkpt>
      <trkpt lat="43.95589" lon="2.35572">
        <ele>463</ele>
        <time>2021-04-18T13:35:05Z</time>
      </trkpt>
      <trkpt lat="43.9559" lon="2.35571">
        <ele>463</ele>
        <time>2021-04-18T13:35:06Z</time>
      </trkpt>
      <trkpt lat="43.95591" lon="2.3557">
        <ele>464</ele>
        <time>2021-04-18T13:35:07Z</time>
      </trkpt>
      <trkpt lat="43.95593" lon="2.35569">
        <ele>464</ele>
        <time>2021-04-18T13:35:08Z</time>
      </trkpt>
      <trkpt lat="43.95594" lon="2.35566">
        <ele>464</ele>
        <time>2021-04-18T13:35:09Z</time>
      </trkpt>
      <trkpt lat="43.95595" lon="2.35565">
        <ele>464</ele>
        <time>2021-04-18T13:35:10Z</time>
      </trkpt>
      <trkpt lat="43.95596" lon="2.35563">
        <ele>464</ele>
        <time>2021-04-18T13:35:11Z</time>
      </trkpt>
      <trkpt lat="43.95597" lon="2.35562">
        <ele>464</ele>
        <time>2021-04-18T13:35:12Z</time>
      </trkpt>
      <trkpt lat="43.95598" lon="2.3556">
        <ele>465</ele>
        <time>2021-04-18T13:35:13Z</time>
      </trkpt>
      <trkpt lat="43.95598" lon="2.35558">
        <ele>466</ele>
        <time>2021-04-18T13:35:14Z</time>
      </trkpt>
      <trkpt lat="43.95599" lon="2.35556">
        <ele>466</ele>
        <time>2021-04-18T13:35:15Z</time>
      </trkpt>
      <trkpt lat="43.956" lon="2.35554">
        <ele>466</ele>
        <time>2021-04-18T13:35:16Z</time>
      </trkpt>
      <trkpt lat="43.95601" lon="2.35551">
        <ele>466</ele>
        <time>2021-04-18T13:35:17Z</time>
      </trkpt>
      <trkpt lat="43.95601" lon="2.35549">
        <ele>466</ele>
        <time>2021-04-18T13:35:18Z</time>
      </trkpt>
      <trkpt lat="43.95602" lon="2.35547">
        <ele>467</ele>
        <time>2021-04-18T13:35:19Z</time>
      </trkpt>
      <trkpt lat="43.95602" lon="2.35545">
        <ele>466</ele>
        <time>2021-04-18T13:35:20Z</time>
      </trkpt>
      <trkpt lat="43.95603" lon="2.35542">
        <ele>467</ele>
        <time>2021-04-18T13:35:21Z</time>
      </trkpt>
      <trkpt lat="43.95603" lon="2.35541">
        <ele>467</ele>
        <time>2021-04-18T13:35:22Z</time>
      </trkpt>
      <trkpt lat="43.95604" lon="2.35539">
        <ele>466</ele>
        <time>2021-04-18T13:35:23Z</time>
      </trkpt>
      <trkpt lat="43.95605" lon="2.35537">
        <ele>466</ele>
        <time>2021-04-18T13:35:24Z</time>
      </trkpt>
      <trkpt lat="43.95605" lon="2.35535">
        <ele>466</ele>
        <time>2021-04-18T13:35:25Z</time>
      </trkpt>
      <trkpt lat="43.95605" lon="2.35534">
        <ele>466</ele>
        <time>2021-04-18T13:35:26Z</time>
      </trkpt>
      <trkpt lat="43.95606" lon="2.35531">
        <ele>466</ele>
        <time>2021-04-18T13:35:27Z</time>
      </trkpt>
      <trkpt lat="43.95606" lon="2.35528">
        <ele>465</ele>
        <time>2021-04-18T13:35:28Z</time>
      </trkpt>
      <trkpt lat="43.95606" lon="2.35526">
        <ele>465</ele>
        <time>2021-04-18T13:35:29Z</time>
      </trkpt>
      <trkpt lat="43.95607" lon="2.35524">
        <ele>465</ele>
        <time>2021-04-18T13:35:30Z</time>
      </trkpt>
      <trkpt lat="43.95608" lon="2.35523">
        <ele>465</ele>
        <time>2021-04-18T13:35:31Z</time>
      </trkpt>
      <trkpt lat="43.95609" lon="2.35521">
        <ele>464</ele>
        <time>2021-04-18T13:35:32Z</time>
      </trkpt>
      <trkpt lat="43.9561" lon="2.35519">
        <ele>464</ele>
        <time>2021-04-18T13:35:33Z</time>
      </trkpt>
      <trkpt lat="43.9561" lon="2.35517">
        <ele>463</ele>
        <time>2021-04-18T13:35:34Z</time>
      </trkpt>
      <trkpt lat="43.95611" lon="2.35515">
        <ele>463</ele>
        <time>2021-04-18T13:35:35Z</time>
      </trkpt>
      <trkpt lat="43.95612" lon="2.35513">
        <ele>462</ele>
        <time>2021-04-18T13:35:36Z</time>
      </trkpt>
      <trkpt lat="43.95613" lon="2.35511">
        <ele>462</ele>
        <time>2021-04-18T13:35:37Z</time>
      </trkpt>
      <trkpt lat="43.95614" lon="2.35509">
        <ele>463</ele>
        <time>2021-04-18T13:35:38Z</time>
      </trkpt>
      <trkpt lat="43.95616" lon="2.35508">
        <ele>463</ele>
        <time>2021-04-18T13:35:39Z</time>
      </trkpt>
      <trkpt lat="43.95617" lon="2.35507">
        <ele>463</ele>
        <time>2021-04-18T13:35:40Z</time>
      </trkpt>
      <trkpt lat="43.95618" lon="2.35506">
        <ele>463</ele>
        <time>2021-04-18T13:35:41Z</time>
      </trkpt>
      <trkpt lat="43.95619" lon="2.35506">
        <ele>463</ele>
        <time>2021-04-18T13:35:42Z</time>
      </trkpt>
      <trkpt lat="43.9562" lon="2.35505">
        <ele>463</ele>
        <time>2021-04-18T13:35:43Z</time>
      </trkpt>
      <trkpt lat="43.95621" lon="2.35504">
        <ele>463</ele>
        <time>2021-04-18T13:35:44Z</time>
      </trkpt>
      <trkpt lat="43.95622" lon="2.35503">
        <ele>463</ele>
        <time>2021-04-18T13:35:45Z</time>
      </trkpt>
      <trkpt lat="43.95623" lon="2.35502">
        <ele>463</ele>
        <time>2021-04-18T13:35:46Z</time>
      </trkpt>
      <trkpt lat="43.95624" lon="2.35502">
        <ele>464</ele>
        <time>2021-04-18T13:35:47Z</time>
      </trkpt>
      <trkpt lat="43.95625" lon="2.35501">
        <ele>464</ele>
        <time>2021-04-18T13:35:48Z</time>
      </trkpt>
      <trkpt lat="43.95626" lon="2.35501">
        <ele>463</ele>
        <time>2021-04-18T13:35:49Z</time>
      </trkpt>
      <trkpt lat="43.95627" lon="2.35501">
        <ele>464</ele>
        <time>2021-04-18T13:35:50Z</time>
      </trkpt>
      <trkpt lat="43.95629" lon="2.355">
        <ele>464</ele>
        <time>2021-04-18T13:35:51Z</time>
      </trkpt>
      <trkpt lat="43.9563" lon="2.355">
        <ele>464</ele>
        <time>2021-04-18T13:35:52Z</time>
      </trkpt>
      <trkpt lat="43.95631" lon="2.35498">
        <ele>464</ele>
        <time>2021-04-18T13:35:53Z</time>
      </trkpt>
      <trkpt lat="43.95632" lon="2.35497">
        <ele>464</ele>
        <time>2021-04-18T13:35:54Z</time>
      </trkpt>
      <trkpt lat="43.95633" lon="2.35496">
        <ele>464</ele>
        <time>2021-04-18T13:35:55Z</time>
      </trkpt>
      <trkpt lat="43.95635" lon="2.35494">
        <ele>463</ele>
        <time>2021-04-18T13:35:56Z</time>
      </trkpt>
      <trkpt lat="43.95636" lon="2.35493">
        <ele>463</ele>
        <time>2021-04-18T13:35:57Z</time>
      </trkpt>
      <trkpt lat="43.95638" lon="2.35492">
        <ele>464</ele>
        <time>2021-04-18T13:35:58Z</time>
      </trkpt>
      <trkpt lat="43.95639" lon="2.35492">
        <ele>463</ele>
        <time>2021-04-18T13:35:59Z</time>
      </trkpt>
      <trkpt lat="43.9564" lon="2.35491">
        <ele>463</ele>
        <time>2021-04-18T13:36:00Z</time>
      </trkpt>
      <trkpt lat="43.95641" lon="2.35491">
        <ele>463</ele>
        <time>2021-04-18T13:36:01Z</time>
      </trkpt>
      <trkpt lat="43.95643" lon="2.3549">
        <ele>463</ele>
        <time>2021-04-18T13:36:02Z</time>
      </trkpt>
      <trkpt lat="43.95643" lon="2.35489">
        <ele>463</ele>
        <time>2021-04-18T13:36:03Z</time>
      </trkpt>
      <trkpt lat="43.95645" lon="2.35488">
        <ele>463</ele>
        <time>2021-04-18T13:36:04Z</time>
      </trkpt>
      <trkpt lat="43.95646" lon="2.35487">
        <ele>463</ele>
        <time>2021-04-18T13:36:05Z</time>
      </trkpt>
      <trkpt lat="43.95647" lon="2.35487">
        <ele>463</ele>
        <time>2021-04-18T13:36:06Z</time>
      </trkpt>
      <trkpt lat="43.95649" lon="2.35486">
        <ele>463</ele>
        <time>2021-04-18T13:36:07Z</time>
      </trkpt>
      <trkpt lat="43.95651" lon="2.35485">
        <ele>463</ele>
        <time>2021-04-18T13:36:08Z</time>
      </trkpt>
      <trkpt lat="43.95652" lon="2.35485">
        <ele>464</ele>
        <time>2021-04-18T13:36:09Z</time>
      </trkpt>
      <trkpt lat="43.95654" lon="2.35484">
        <ele>464</ele>
        <time>2021-04-18T13:36:10Z</time>
      </trkpt>
      <trkpt lat="43.95656" lon="2.35482">
        <ele>463</ele>
        <time>2021-04-18T13:36:11Z</time>
      </trkpt>
      <trkpt lat="43.95657" lon="2.35481">
        <ele>463</ele>
        <time>2021-04-18T13:36:12Z</time>
      </trkpt>
      <trkpt lat="43.95659" lon="2.3548">
        <ele>463</ele>
        <time>2021-04-18T13:36:13Z</time>
      </trkpt>
      <trkpt lat="43.9566" lon="2.35479">
        <ele>462</ele>
        <time>2021-04-18T13:36:14Z</time>
      </trkpt>
      <trkpt lat="43.95662" lon="2.35478">
        <ele>462</ele>
        <time>2021-04-18T13:36:15Z</time>
      </trkpt>
      <trkpt lat="43.95663" lon="2.35477">
        <ele>461</ele>
        <time>2021-04-18T13:36:16Z</time>
      </trkpt>
      <trkpt lat="43.95664" lon="2.35477">
        <ele>461</ele>
        <time>2021-04-18T13:36:17Z</time>
      </trkpt>
      <trkpt lat="43.95666" lon="2.35476">
        <ele>461</ele>
        <time>2021-04-18T13:36:18Z</time>
      </trkpt>
      <trkpt lat="43.95667" lon="2.35475">
        <ele>461</ele>
        <time>2021-04-18T13:36:19Z</time>
      </trkpt>
      <trkpt lat="43.95668" lon="2.35474">
        <ele>462</ele>
        <time>2021-04-18T13:36:20Z</time>
      </trkpt>
      <trkpt lat="43.95669" lon="2.35474">
        <ele>462</ele>
        <time>2021-04-18T13:36:21Z</time>
      </trkpt>
      <trkpt lat="43.9567" lon="2.35472">
        <ele>461</ele>
        <time>2021-04-18T13:36:22Z</time>
      </trkpt>
      <trkpt lat="43.95671" lon="2.35471">
        <ele>461</ele>
        <time>2021-04-18T13:36:23Z</time>
      </trkpt>
      <trkpt lat="43.95673" lon="2.3547">
        <ele>461</ele>
        <time>2021-04-18T13:36:24Z</time>
      </trkpt>
      <trkpt lat="43.95674" lon="2.35469">
        <ele>461</ele>
        <time>2021-04-18T13:36:25Z</time>
      </trkpt>
      <trkpt lat="43.95676" lon="2.35468">
        <ele>461</ele>
        <time>2021-04-18T13:36:26Z</time>
      </trkpt>
      <trkpt lat="43.95676" lon="2.35467">
        <ele>461</ele>
        <time>2021-04-18T13:36:27Z</time>
      </trkpt>
      <trkpt lat="43.95677" lon="2.35466">
        <ele>461</ele>
        <time>2021-04-18T13:36:28Z</time>
      </trkpt>
      <trkpt lat="43.95678" lon="2.35465">
        <ele>462</ele>
        <time>2021-04-18T13:36:29Z</time>
      </trkpt>
      <trkpt lat="43.9568" lon="2.35464">
        <ele>462</ele>
        <time>2021-04-18T13:36:30Z</time>
      </trkpt>
      <trkpt lat="43.95681" lon="2.35463">
        <ele>462</ele>
        <time>2021-04-18T13:36:31Z</time>
      </trkpt>
      <trkpt lat="43.95682" lon="2.35462">
        <ele>462</ele>
        <time>2021-04-18T13:36:32Z</time>
      </trkpt>
      <trkpt lat="43.95683" lon="2.35461">
        <ele>461</ele>
        <time>2021-04-18T13:36:33Z</time>
      </trkpt>
      <trkpt lat="43.95684" lon="2.3546">
        <ele>461</ele>
        <time>2021-04-18T13:36:34Z</time>
      </trkpt>
      <trkpt lat="43.95686" lon="2.35458">
        <ele>461</ele>
        <time>2021-04-18T13:36:35Z</time>
      </trkpt>
      <trkpt lat="43.95686" lon="2.35458">
        <ele>461</ele>
        <time>2021-04-18T13:36:36Z</time>
      </trkpt>
      <trkpt lat="43.95688" lon="2.35457">
        <ele>461</ele>
        <time>2021-04-18T13:36:37Z</time>
      </trkpt>
      <trkpt lat="43.95689" lon="2.35456">
        <ele>461</ele>
        <time>2021-04-18T13:36:38Z</time>
      </trkpt>
      <trkpt lat="43.9569" lon="2.35455">
        <ele>461</ele>
        <time>2021-04-18T13:36:39Z</time>
      </trkpt>
      <trkpt lat="43.95691" lon="2.35454">
        <ele>461</ele>
        <time>2021-04-18T13:36:40Z</time>
      </trkpt>
      <trkpt lat="43.95692" lon="2.35453">
        <ele>461</ele>
        <time>2021-04-18T13:36:41Z</time>
      </trkpt>
      <trkpt lat="43.95694" lon="2.35451">
        <ele>461</ele>
        <time>2021-04-18T13:36:42Z</time>
      </trkpt>
      <trkpt lat="43.95695" lon="2.3545">
        <ele>460</ele>
        <time>2021-04-18T13:36:43Z</time>
      </trkpt>
      <trkpt lat="43.95696" lon="2.35448">
        <ele>460</ele>
        <time>2021-04-18T13:36:44Z</time>
      </trkpt>
      <trkpt lat="43.95697" lon="2.35446">
        <ele>460</ele>
        <time>2021-04-18T13:36:45Z</time>
      </trkpt>
      <trkpt lat="43.95698" lon="2.35445">
        <ele>460</ele>
        <time>2021-04-18T13:36:46Z</time>
      </trkpt>
      <trkpt lat="43.95699" lon="2.35445">
        <ele>459</ele>
        <time>2021-04-18T13:36:47Z</time>
      </trkpt>
      <trkpt lat="43.957" lon="2.35443">
        <ele>459</ele>
        <time>2021-04-18T13:36:48Z</time>
      </trkpt>
      <trkpt lat="43.95701" lon="2.35442">
        <ele>459</ele>
        <time>2021-04-18T13:36:49Z</time>
      </trkpt>
      <trkpt lat="43.95702" lon="2.35441">
        <ele>458</ele>
        <time>2021-04-18T13:36:50Z</time>
      </trkpt>
      <trkpt lat="43.95703" lon="2.35439">
        <ele>458</ele>
        <time>2021-04-18T13:36:51Z</time>
      </trkpt>
      <trkpt lat="43.95704" lon="2.35438">
        <ele>457</ele>
        <time>2021-04-18T13:36:52Z</time>
      </trkpt>
      <trkpt lat="43.95705" lon="2.35436">
        <ele>457</ele>
        <time>2021-04-18T13:36:53Z</time>
      </trkpt>
      <trkpt lat="43.95707" lon="2.35434">
        <ele>456</ele>
        <time>2021-04-18T13:36:54Z</time>
      </trkpt>
      <trkpt lat="43.95708" lon="2.35432">
        <ele>456</ele>
        <time>2021-04-18T13:36:55Z</time>
      </trkpt>
      <trkpt lat="43.95709" lon="2.35431">
        <ele>455</ele>
        <time>2021-04-18T13:36:56Z</time>
      </trkpt>
      <trkpt lat="43.9571" lon="2.3543">
        <ele>455</ele>
        <time>2021-04-18T13:36:57Z</time>
      </trkpt>
      <trkpt lat="43.95711" lon="2.35429">
        <ele>454</ele>
        <time>2021-04-18T13:36:58Z</time>
      </trkpt>
      <trkpt lat="43.95712" lon="2.35429">
        <ele>454</ele>
        <time>2021-04-18T13:36:59Z</time>
      </trkpt>
      <trkpt lat="43.95713" lon="2.35429">
        <ele>454</ele>
        <time>2021-04-18T13:37:00Z</time>
      </trkpt>
      <trkpt lat="43.95714" lon="2.35429">
        <ele>454</ele>
        <time>2021-04-18T13:37:01Z</time>
      </trkpt>
      <trkpt lat="43.95715" lon="2.3543">
        <ele>453</ele>
        <time>2021-04-18T13:37:02Z</time>
      </trkpt>
      <trkpt lat="43.95715" lon="2.3543">
        <ele>452</ele>
        <time>2021-04-18T13:37:03Z</time>
      </trkpt>
      <trkpt lat="43.95717" lon="2.35431">
        <ele>451</ele>
        <time>2021-04-18T13:37:04Z</time>
      </trkpt>
      <trkpt lat="43.95718" lon="2.35431">
        <ele>451</ele>
        <time>2021-04-18T13:37:05Z</time>
      </trkpt>
      <trkpt lat="43.9572" lon="2.35432">
        <ele>450</ele>
        <time>2021-04-18T13:37:06Z</time>
      </trkpt>
      <trkpt lat="43.95721" lon="2.35433">
        <ele>449</ele>
        <time>2021-04-18T13:37:07Z</time>
      </trkpt>
      <trkpt lat="43.95722" lon="2.35434">
        <ele>449</ele>
        <time>2021-04-18T13:37:08Z</time>
      </trkpt>
      <trkpt lat="43.95723" lon="2.35435">
        <ele>449</ele>
        <time>2021-04-18T13:37:09Z</time>
      </trkpt>
      <trkpt lat="43.95725" lon="2.35436">
        <ele>449</ele>
        <time>2021-04-18T13:37:10Z</time>
      </trkpt>
      <trkpt lat="43.95726" lon="2.35437">
        <ele>449</ele>
        <time>2021-04-18T13:37:11Z</time>
      </trkpt>
      <trkpt lat="43.95728" lon="2.35438">
        <ele>449</ele>
        <time>2021-04-18T13:37:12Z</time>
      </trkpt>
      <trkpt lat="43.95729" lon="2.35439">
        <ele>448</ele>
        <time>2021-04-18T13:37:13Z</time>
      </trkpt>
      <trkpt lat="43.95731" lon="2.3544">
        <ele>448</ele>
        <time>2021-04-18T13:37:14Z</time>
      </trkpt>
      <trkpt lat="43.95733" lon="2.3544">
        <ele>447</ele>
        <time>2021-04-18T13:37:15Z</time>
      </trkpt>
      <trkpt lat="43.95734" lon="2.35442">
        <ele>447</ele>
        <time>2021-04-18T13:37:16Z</time>
      </trkpt>
      <trkpt lat="43.95735" lon="2.35443">
        <ele>446</ele>
        <time>2021-04-18T13:37:17Z</time>
      </trkpt>
      <trkpt lat="43.95736" lon="2.35444">
        <ele>446</ele>
        <time>2021-04-18T13:37:18Z</time>
      </trkpt>
      <trkpt lat="43.95737" lon="2.35445">
        <ele>446</ele>
        <time>2021-04-18T13:37:19Z</time>
      </trkpt>
      <trkpt lat="43.95738" lon="2.35447">
        <ele>446</ele>
        <time>2021-04-18T13:37:20Z</time>
      </trkpt>
      <trkpt lat="43.95739" lon="2.35448">
        <ele>446</ele>
        <time>2021-04-18T13:37:21Z</time>
      </trkpt>
      <trkpt lat="43.95741" lon="2.35449">
        <ele>446</ele>
        <time>2021-04-18T13:37:22Z</time>
      </trkpt>
      <trkpt lat="43.95742" lon="2.3545">
        <ele>446</ele>
        <time>2021-04-18T13:37:23Z</time>
      </trkpt>
      <trkpt lat="43.95743" lon="2.35451">
        <ele>445</ele>
        <time>2021-04-18T13:37:24Z</time>
      </trkpt>
      <trkpt lat="43.95744" lon="2.35452">
        <ele>445</ele>
        <time>2021-04-18T13:37:25Z</time>
      </trkpt>
      <trkpt lat="43.95745" lon="2.35453">
        <ele>444</ele>
        <time>2021-04-18T13:37:26Z</time>
      </trkpt>
      <trkpt lat="43.95746" lon="2.35454">
        <ele>444</ele>
        <time>2021-04-18T13:37:27Z</time>
      </trkpt>
      <trkpt lat="43.95747" lon="2.35454">
        <ele>444</ele>
        <time>2021-04-18T13:37:28Z</time>
      </trkpt>
      <trkpt lat="43.95748" lon="2.35455">
        <ele>444</ele>
        <time>2021-04-18T13:37:29Z</time>
      </trkpt>
      <trkpt lat="43.95749" lon="2.35456">
        <ele>443</ele>
        <time>2021-04-18T13:37:30Z</time>
      </trkpt>
      <trkpt lat="43.9575" lon="2.35456">
        <ele>442</ele>
        <time>2021-04-18T13:37:31Z</time>
      </trkpt>
      <trkpt lat="43.9575" lon="2.35457">
        <ele>442</ele>
        <time>2021-04-18T13:37:32Z</time>
      </trkpt>
      <trkpt lat="43.95751" lon="2.35457">
        <ele>441</ele>
        <time>2021-04-18T13:37:33Z</time>
      </trkpt>
      <trkpt lat="43.95752" lon="2.35458">
        <ele>441</ele>
        <time>2021-04-18T13:37:34Z</time>
      </trkpt>
      <trkpt lat="43.95754" lon="2.35459">
        <ele>440</ele>
        <time>2021-04-18T13:37:35Z</time>
      </trkpt>
      <trkpt lat="43.95755" lon="2.35459">
        <ele>440</ele>
        <time>2021-04-18T13:37:36Z</time>
      </trkpt>
      <trkpt lat="43.95756" lon="2.35461">
        <ele>440</ele>
        <time>2021-04-18T13:37:37Z</time>
      </trkpt>
      <trkpt lat="43.95757" lon="2.35462">
        <ele>440</ele>
        <time>2021-04-18T13:37:38Z</time>
      </trkpt>
      <trkpt lat="43.95759" lon="2.35463">
        <ele>440</ele>
        <time>2021-04-18T13:37:39Z</time>
      </trkpt>
      <trkpt lat="43.9576" lon="2.35464">
        <ele>440</ele>
        <time>2021-04-18T13:37:40Z</time>
      </trkpt>
      <trkpt lat="43.95762" lon="2.35465">
        <ele>439</ele>
        <time>2021-04-18T13:37:41Z</time>
      </trkpt>
      <trkpt lat="43.95763" lon="2.35466">
        <ele>439</ele>
        <time>2021-04-18T13:37:42Z</time>
      </trkpt>
      <trkpt lat="43.95764" lon="2.35467">
        <ele>439</ele>
        <time>2021-04-18T13:37:43Z</time>
      </trkpt>
      <trkpt lat="43.95765" lon="2.35468">
        <ele>438</ele>
        <time>2021-04-18T13:37:44Z</time>
      </trkpt>
      <trkpt lat="43.95767" lon="2.35468">
        <ele>438</ele>
        <time>2021-04-18T13:37:45Z</time>
      </trkpt>
      <trkpt lat="43.95768" lon="2.3547">
        <ele>437</ele>
        <time>2021-04-18T13:37:46Z</time>
      </trkpt>
      <trkpt lat="43.9577" lon="2.35471">
        <ele>437</ele>
        <time>2021-04-18T13:37:47Z</time>
      </trkpt>
      <trkpt lat="43.95771" lon="2.35472">
        <ele>437</ele>
        <time>2021-04-18T13:37:48Z</time>
      </trkpt>
      <trkpt lat="43.95773" lon="2.35474">
        <ele>436</ele>
        <time>2021-04-18T13:37:49Z</time>
      </trkpt>
      <trkpt lat="43.95774" lon="2.35475">
        <ele>436</ele>
        <time>2021-04-18T13:37:50Z</time>
      </trkpt>
      <trkpt lat="43.95775" lon="2.35476">
        <ele>436</ele>
        <time>2021-04-18T13:37:51Z</time>
      </trkpt>
      <trkpt lat="43.95776" lon="2.35477">
        <ele>436</ele>
        <time>2021-04-18T13:37:52Z</time>
      </trkpt>
      <trkpt lat="43.95776" lon="2.35478">
        <ele>436</ele>
        <time>2021-04-18T13:37:53Z</time>
      </trkpt>
      <trkpt lat="43.95778" lon="2.35479">
        <ele>436</ele>
        <time>2021-04-18T13:37:54Z</time>
      </trkpt>
      <trkpt lat="43.95779" lon="2.3548">
        <ele>436</ele>
        <time>2021-04-18T13:37:55Z</time>
      </trkpt>
      <trkpt lat="43.9578" lon="2.35481">
        <ele>436</ele>
        <time>2021-04-18T13:37:56Z</time>
      </trkpt>
      <trkpt lat="43.95781" lon="2.35482">
        <ele>435</ele>
        <time>2021-04-18T13:37:57Z</time>
      </trkpt>
      <trkpt lat="43.95783" lon="2.35483">
        <ele>435</ele>
        <time>2021-04-18T13:37:58Z</time>
      </trkpt>
      <trkpt lat="43.95784" lon="2.35484">
        <ele>434</ele>
        <time>2021-04-18T13:37:59Z</time>
      </trkpt>
      <trkpt lat="43.95785" lon="2.35485">
        <ele>435</ele>
        <time>2021-04-18T13:38:00Z</time>
      </trkpt>
      <trkpt lat="43.95786" lon="2.35486">
        <ele>435</ele>
        <time>2021-04-18T13:38:01Z</time>
      </trkpt>
      <trkpt lat="43.95787" lon="2.35488">
        <ele>435</ele>
        <time>2021-04-18T13:38:02Z</time>
      </trkpt>
      <trkpt lat="43.95787" lon="2.35489">
        <ele>434</ele>
        <time>2021-04-18T13:38:03Z</time>
      </trkpt>
      <trkpt lat="43.95788" lon="2.3549">
        <ele>434</ele>
        <time>2021-04-18T13:38:04Z</time>
      </trkpt>
      <trkpt lat="43.95789" lon="2.3549">
        <ele>434</ele>
        <time>2021-04-18T13:38:05Z</time>
      </trkpt>
      <trkpt lat="43.9579" lon="2.35491">
        <ele>434</ele>
        <time>2021-04-18T13:38:06Z</time>
      </trkpt>
      <trkpt lat="43.9579" lon="2.35492">
        <ele>433</ele>
        <time>2021-04-18T13:38:07Z</time>
      </trkpt>
      <trkpt lat="43.95791" lon="2.35491">
        <ele>433</ele>
        <time>2021-04-18T13:38:08Z</time>
      </trkpt>
      <trkpt lat="43.95791" lon="2.3549">
        <ele>432</ele>
        <time>2021-04-18T13:38:09Z</time>
      </trkpt>
      <trkpt lat="43.95791" lon="2.35491">
        <ele>432</ele>
        <time>2021-04-18T13:38:10Z</time>
      </trkpt>
      <trkpt lat="43.95791" lon="2.35492">
        <ele>432</ele>
        <time>2021-04-18T13:38:11Z</time>
      </trkpt>
      <trkpt lat="43.95792" lon="2.35493">
        <ele>431</ele>
        <time>2021-04-18T13:38:12Z</time>
      </trkpt>
      <trkpt lat="43.95792" lon="2.35493">
        <ele>431</ele>
        <time>2021-04-18T13:38:13Z</time>
      </trkpt>
      <trkpt lat="43.95792" lon="2.35493">
        <ele>431</ele>
        <time>2021-04-18T13:38:13Z</time>
      </trkpt>
      <trkpt lat="43.95792" lon="2.35493">
        <ele>431</ele>
        <time>2021-04-18T13:38:13Z</time>
      </trkpt>
      <trkpt lat="43.95797" lon="2.35497">
        <ele>432</ele>
        <time>2021-04-18T13:38:19Z</time>
      </trkpt>
      <trkpt lat="43.95799" lon="2.35498">
        <ele>431</ele>
        <time>2021-04-18T13:38:20Z</time>
      </trkpt>
      <trkpt lat="43.958" lon="2.35499">
        <ele>432</ele>
        <time>2021-04-18T13:38:21Z</time>
      </trkpt>
      <trkpt lat="43.95801" lon="2.355">
        <ele>432</ele>
        <time>2021-04-18T13:38:22Z</time>
      </trkpt>
      <trkpt lat="43.95802" lon="2.35501">
        <ele>433</ele>
        <time>2021-04-18T13:38:23Z</time>
      </trkpt>
      <trkpt lat="43.95804" lon="2.35501">
        <ele>433</ele>
        <time>2021-04-18T13:38:24Z</time>
      </trkpt>
      <trkpt lat="43.95805" lon="2.35501">
        <ele>433</ele>
        <time>2021-04-18T13:38:25Z</time>
      </trkpt>
      <trkpt lat="43.95807" lon="2.35502">
        <ele>433</ele>
        <time>2021-04-18T13:38:26Z</time>
      </trkpt>
      <trkpt lat="43.95808" lon="2.35502">
        <ele>433</ele>
        <time>2021-04-18T13:38:27Z</time>
      </trkpt>
      <trkpt lat="43.9581" lon="2.35503">
        <ele>433</ele>
        <time>2021-04-18T13:38:28Z</time>
      </trkpt>
      <trkpt lat="43.95812" lon="2.35503">
        <ele>432</ele>
        <time>2021-04-18T13:38:29Z</time>
      </trkpt>
      <trkpt lat="43.95813" lon="2.35504">
        <ele>433</ele>
        <time>2021-04-18T13:38:30Z</time>
      </trkpt>
      <trkpt lat="43.95815" lon="2.35504">
        <ele>432</ele>
        <time>2021-04-18T13:38:31Z</time>
      </trkpt>
      <trkpt lat="43.95816" lon="2.35504">
        <ele>433</ele>
        <time>2021-04-18T13:38:32Z</time>
      </trkpt>
      <trkpt lat="43.95818" lon="2.35504">
        <ele>433</ele>
        <time>2021-04-18T13:38:33Z</time>
      </trkpt>
      <trkpt lat="43.9582" lon="2.35505">
        <ele>433</ele>
        <time>2021-04-18T13:38:34Z</time>
      </trkpt>
      <trkpt lat="43.95821" lon="2.35505">
        <ele>433</ele>
        <time>2021-04-18T13:38:35Z</time>
      </trkpt>
      <trkpt lat="43.95823" lon="2.35504">
        <ele>433</ele>
        <time>2021-04-18T13:38:36Z</time>
      </trkpt>
      <trkpt lat="43.95825" lon="2.35504">
        <ele>434</ele>
        <time>2021-04-18T13:38:37Z</time>
      </trkpt>
      <trkpt lat="43.95826" lon="2.35504">
        <ele>433</ele>
        <time>2021-04-18T13:38:38Z</time>
      </trkpt>
      <trkpt lat="43.95828" lon="2.35503">
        <ele>433</ele>
        <time>2021-04-18T13:38:39Z</time>
      </trkpt>
      <trkpt lat="43.95829" lon="2.35503">
        <ele>433</ele>
        <time>2021-04-18T13:38:40Z</time>
      </trkpt>
      <trkpt lat="43.95831" lon="2.35502">
        <ele>433</ele>
        <time>2021-04-18T13:38:41Z</time>
      </trkpt>
      <trkpt lat="43.95832" lon="2.35502">
        <ele>432</ele>
        <time>2021-04-18T13:38:42Z</time>
      </trkpt>
      <trkpt lat="43.95834" lon="2.35502">
        <ele>432</ele>
        <time>2021-04-18T13:38:43Z</time>
      </trkpt>
      <trkpt lat="43.95836" lon="2.35501">
        <ele>432</ele>
        <time>2021-04-18T13:38:44Z</time>
      </trkpt>
      <trkpt lat="43.95837" lon="2.35501">
        <ele>432</ele>
        <time>2021-04-18T13:38:45Z</time>
      </trkpt>
      <trkpt lat="43.95838" lon="2.35501">
        <ele>432</ele>
        <time>2021-04-18T13:38:46Z</time>
      </trkpt>
      <trkpt lat="43.95839" lon="2.35501">
        <ele>432</ele>
        <time>2021-04-18T13:38:47Z</time>
      </trkpt>
      <trkpt lat="43.95841" lon="2.35501">
        <ele>432</ele>
        <time>2021-04-18T13:38:48Z</time>
      </trkpt>
      <trkpt lat="43.95842" lon="2.355">
        <ele>431</ele>
        <time>2021-04-18T13:38:49Z</time>
      </trkpt>
      <trkpt lat="43.95842" lon="2.355">
        <ele>432</ele>
        <time>2021-04-18T13:38:50Z</time>
      </trkpt>
      <trkpt lat="43.95843" lon="2.35499">
        <ele>431</ele>
        <time>2021-04-18T13:38:51Z</time>
      </trkpt>
      <trkpt lat="43.95844" lon="2.35499">
        <ele>431</ele>
        <time>2021-04-18T13:38:52Z</time>
      </trkpt>
      <trkpt lat="43.95845" lon="2.35498">
        <ele>431</ele>
        <time>2021-04-18T13:38:53Z</time>
      </trkpt>
      <trkpt lat="43.95846" lon="2.35497">
        <ele>431</ele>
        <time>2021-04-18T13:38:54Z</time>
      </trkpt>
      <trkpt lat="43.95847" lon="2.35496">
        <ele>430</ele>
        <time>2021-04-18T13:38:55Z</time>
      </trkpt>
      <trkpt lat="43.95848" lon="2.35495">
        <ele>430</ele>
        <time>2021-04-18T13:38:56Z</time>
      </trkpt>
      <trkpt lat="43.95849" lon="2.35494">
        <ele>430</ele>
        <time>2021-04-18T13:38:57Z</time>
      </trkpt>
      <trkpt lat="43.9585" lon="2.35492">
        <ele>429</ele>
        <time>2021-04-18T13:38:58Z</time>
      </trkpt>
      <trkpt lat="43.95851" lon="2.35491">
        <ele>429</ele>
        <time>2021-04-18T13:38:59Z</time>
      </trkpt>
      <trkpt lat="43.95852" lon="2.35491">
        <ele>428</ele>
        <time>2021-04-18T13:39:00Z</time>
      </trkpt>
      <trkpt lat="43.95853" lon="2.35489">
        <ele>427</ele>
        <time>2021-04-18T13:39:01Z</time>
      </trkpt>
      <trkpt lat="43.95854" lon="2.35488">
        <ele>427</ele>
        <time>2021-04-18T13:39:02Z</time>
      </trkpt>
      <trkpt lat="43.95855" lon="2.35486">
        <ele>427</ele>
        <time>2021-04-18T13:39:03Z</time>
      </trkpt>
      <trkpt lat="43.95857" lon="2.35484">
        <ele>427</ele>
        <time>2021-04-18T13:39:04Z</time>
      </trkpt>
      <trkpt lat="43.95858" lon="2.35482">
        <ele>427</ele>
        <time>2021-04-18T13:39:05Z</time>
      </trkpt>
      <trkpt lat="43.95858" lon="2.3548">
        <ele>427</ele>
        <time>2021-04-18T13:39:06Z</time>
      </trkpt>
      <trkpt lat="43.95859" lon="2.35478">
        <ele>427</ele>
        <time>2021-04-18T13:39:07Z</time>
      </trkpt>
      <trkpt lat="43.95859" lon="2.35475">
        <ele>427</ele>
        <time>2021-04-18T13:39:08Z</time>
      </trkpt>
      <trkpt lat="43.9586" lon="2.35473">
        <ele>427</ele>
        <time>2021-04-18T13:39:09Z</time>
      </trkpt>
      <trkpt lat="43.95861" lon="2.35471">
        <ele>427</ele>
        <time>2021-04-18T13:39:10Z</time>
      </trkpt>
      <trkpt lat="43.95861" lon="2.35469">
        <ele>426</ele>
        <time>2021-04-18T13:39:11Z</time>
      </trkpt>
      <trkpt lat="43.95862" lon="2.35467">
        <ele>426</ele>
        <time>2021-04-18T13:39:12Z</time>
      </trkpt>
      <trkpt lat="43.95863" lon="2.35466">
        <ele>424</ele>
        <time>2021-04-18T13:39:13Z</time>
      </trkpt>
      <trkpt lat="43.95864" lon="2.35463">
        <ele>424</ele>
        <time>2021-04-18T13:39:14Z</time>
      </trkpt>
      <trkpt lat="43.95865" lon="2.35461">
        <ele>425</ele>
        <time>2021-04-18T13:39:15Z</time>
      </trkpt>
      <trkpt lat="43.95866" lon="2.35459">
        <ele>424</ele>
        <time>2021-04-18T13:39:16Z</time>
      </trkpt>
      <trkpt lat="43.95866" lon="2.35457">
        <ele>424</ele>
        <time>2021-04-18T13:39:17Z</time>
      </trkpt>
      <trkpt lat="43.95867" lon="2.35455">
        <ele>424</ele>
        <time>2021-04-18T13:39:18Z</time>
      </trkpt>
      <trkpt lat="43.95868" lon="2.35453">
        <ele>424</ele>
        <time>2021-04-18T13:39:19Z</time>
      </trkpt>
      <trkpt lat="43.95868" lon="2.35451">
        <ele>424</ele>
        <time>2021-04-18T13:39:20Z</time>
      </trkpt>
      <trkpt lat="43.95868" lon="2.3545">
        <ele>423</ele>
        <time>2021-04-18T13:39:21Z</time>
      </trkpt>
      <trkpt lat="43.95869" lon="2.35448">
        <ele>423</ele>
        <time>2021-04-18T13:39:22Z</time>
      </trkpt>
      <trkpt lat="43.95869" lon="2.35446">
        <ele>424</ele>
        <time>2021-04-18T13:39:23Z</time>
      </trkpt>
      <trkpt lat="43.95869" lon="2.35445">
        <ele>423</ele>
        <time>2021-04-18T13:39:24Z</time>
      </trkpt>
      <trkpt lat="43.95869" lon="2.35443">
        <ele>422</ele>
        <time>2021-04-18T13:39:25Z</time>
      </trkpt>
      <trkpt lat="43.95869" lon="2.35442">
        <ele>422</ele>
        <time>2021-04-18T13:39:26Z</time>
      </trkpt>
      <trkpt lat="43.95869" lon="2.3544">
        <ele>422</ele>
        <time>2021-04-18T13:39:27Z</time>
      </trkpt>
      <trkpt lat="43.95868" lon="2.35438">
        <ele>422</ele>
        <time>2021-04-18T13:39:28Z</time>
      </trkpt>
      <trkpt lat="43.95868" lon="2.35436">
        <ele>421</ele>
        <time>2021-04-18T13:39:29Z</time>
      </trkpt>
      <trkpt lat="43.95868" lon="2.35434">
        <ele>421</ele>
        <time>2021-04-18T13:39:30Z</time>
      </trkpt>
      <trkpt lat="43.95867" lon="2.35433">
        <ele>420</ele>
        <time>2021-04-18T13:39:31Z</time>
      </trkpt>
      <trkpt lat="43.95866" lon="2.35431">
        <ele>420</ele>
        <time>2021-04-18T13:39:32Z</time>
      </trkpt>
      <trkpt lat="43.95866" lon="2.35429">
        <ele>420</ele>
        <time>2021-04-18T13:39:33Z</time>
      </trkpt>
      <trkpt lat="43.95865" lon="2.35428">
        <ele>419</ele>
        <time>2021-04-18T13:39:34Z</time>
      </trkpt>
      <trkpt lat="43.95865" lon="2.35426">
        <ele>419</ele>
        <time>2021-04-18T13:39:35Z</time>
      </trkpt>
      <trkpt lat="43.95864" lon="2.35424">
        <ele>420</ele>
        <time>2021-04-18T13:39:36Z</time>
      </trkpt>
      <trkpt lat="43.95862" lon="2.35422">
        <ele>420</ele>
        <time>2021-04-18T13:39:37Z</time>
      </trkpt>
      <trkpt lat="43.95861" lon="2.35421">
        <ele>419</ele>
        <time>2021-04-18T13:39:38Z</time>
      </trkpt>
      <trkpt lat="43.95861" lon="2.3542">
        <ele>420</ele>
        <time>2021-04-18T13:39:39Z</time>
      </trkpt>
      <trkpt lat="43.9586" lon="2.35419">
        <ele>419</ele>
        <time>2021-04-18T13:39:40Z</time>
      </trkpt>
      <trkpt lat="43.95859" lon="2.35417">
        <ele>418</ele>
        <time>2021-04-18T13:39:41Z</time>
      </trkpt>
      <trkpt lat="43.95858" lon="2.35416">
        <ele>419</ele>
        <time>2021-04-18T13:39:42Z</time>
      </trkpt>
      <trkpt lat="43.95857" lon="2.35415">
        <ele>419</ele>
        <time>2021-04-18T13:39:43Z</time>
      </trkpt>
      <trkpt lat="43.95856" lon="2.35414">
        <ele>418</ele>
        <time>2021-04-18T13:39:44Z</time>
      </trkpt>
      <trkpt lat="43.95855" lon="2.35413">
        <ele>418</ele>
        <time>2021-04-18T13:39:45Z</time>
      </trkpt>
      <trkpt lat="43.95854" lon="2.35411">
        <ele>417</ele>
        <time>2021-04-18T13:39:46Z</time>
      </trkpt>
      <trkpt lat="43.95853" lon="2.3541">
        <ele>416</ele>
        <time>2021-04-18T13:39:47Z</time>
      </trkpt>
      <trkpt lat="43.95852" lon="2.35408">
        <ele>416</ele>
        <time>2021-04-18T13:39:48Z</time>
      </trkpt>
      <trkpt lat="43.9585" lon="2.35407">
        <ele>416</ele>
        <time>2021-04-18T13:39:49Z</time>
      </trkpt>
      <trkpt lat="43.9585" lon="2.35406">
        <ele>415</ele>
        <time>2021-04-18T13:39:50Z</time>
      </trkpt>
      <trkpt lat="43.95848" lon="2.35405">
        <ele>415</ele>
        <time>2021-04-18T13:39:51Z</time>
      </trkpt>
      <trkpt lat="43.95848" lon="2.35403">
        <ele>416</ele>
        <time>2021-04-18T13:39:52Z</time>
      </trkpt>
      <trkpt lat="43.95847" lon="2.35402">
        <ele>416</ele>
        <time>2021-04-18T13:39:53Z</time>
      </trkpt>
      <trkpt lat="43.95847" lon="2.35401">
        <ele>415</ele>
        <time>2021-04-18T13:39:54Z</time>
      </trkpt>
      <trkpt lat="43.95847" lon="2.35401">
        <ele>415</ele>
        <time>2021-04-18T13:39:55Z</time>
      </trkpt>
      <trkpt lat="43.95847" lon="2.35401">
        <ele>415</ele>
        <time>2021-04-18T13:39:56Z</time>
      </trkpt>
      <trkpt lat="43.95844" lon="2.35397">
        <ele>415</ele>
        <time>2021-04-18T13:39:57Z</time>
      </trkpt>
      <trkpt lat="43.95844" lon="2.35396">
        <ele>415</ele>
        <time>2021-04-18T13:39:58Z</time>
      </trkpt>
      <trkpt lat="43.95842" lon="2.35395">
        <ele>415</ele>
        <time>2021-04-18T13:39:59Z</time>
      </trkpt>
      <trkpt lat="43.95841" lon="2.35393">
        <ele>415</ele>
        <time>2021-04-18T13:40:00Z</time>
      </trkpt>
      <trkpt lat="43.9584" lon="2.35392">
        <ele>415</ele>
        <time>2021-04-18T13:40:01Z</time>
      </trkpt>
      <trkpt lat="43.95839" lon="2.35391">
        <ele>416</ele>
        <time>2021-04-18T13:40:02Z</time>
      </trkpt>
      <trkpt lat="43.95838" lon="2.3539">
        <ele>415</ele>
        <time>2021-04-18T13:40:03Z</time>
      </trkpt>
      <trkpt lat="43.95838" lon="2.3539">
        <ele>415</ele>
        <time>2021-04-18T13:40:04Z</time>
      </trkpt>
      <trkpt lat="43.95838" lon="2.3539">
        <ele>415</ele>
        <time>2021-04-18T13:40:05Z</time>
      </trkpt>
      <trkpt lat="43.95836" lon="2.35389">
        <ele>415</ele>
        <time>2021-04-18T13:40:06Z</time>
      </trkpt>
      <trkpt lat="43.95834" lon="2.35388">
        <ele>415</ele>
        <time>2021-04-18T13:40:07Z</time>
      </trkpt>
      <trkpt lat="43.95834" lon="2.35387">
        <ele>415</ele>
        <time>2021-04-18T13:40:08Z</time>
      </trkpt>
      <trkpt lat="43.95833" lon="2.35386">
        <ele>416</ele>
        <time>2021-04-18T13:40:09Z</time>
      </trkpt>
      <trkpt lat="43.95832" lon="2.35385">
        <ele>415</ele>
        <time>2021-04-18T13:40:10Z</time>
      </trkpt>
      <trkpt lat="43.95831" lon="2.35384">
        <ele>416</ele>
        <time>2021-04-18T13:40:11Z</time>
      </trkpt>
      <trkpt lat="43.95831" lon="2.35381">
        <ele>416</ele>
        <time>2021-04-18T13:40:12Z</time>
      </trkpt>
      <trkpt lat="43.95829" lon="2.35379">
        <ele>415</ele>
        <time>2021-04-18T13:40:13Z</time>
      </trkpt>
      <trkpt lat="43.95829" lon="2.35377">
        <ele>415</ele>
        <time>2021-04-18T13:40:14Z</time>
      </trkpt>
      <trkpt lat="43.95828" lon="2.35375">
        <ele>416</ele>
        <time>2021-04-18T13:40:15Z</time>
      </trkpt>
      <trkpt lat="43.95827" lon="2.35374">
        <ele>415</ele>
        <time>2021-04-18T13:40:16Z</time>
      </trkpt>
      <trkpt lat="43.95826" lon="2.35373">
        <ele>416</ele>
        <time>2021-04-18T13:40:17Z</time>
      </trkpt>
      <trkpt lat="43.95826" lon="2.35371">
        <ele>415</ele>
        <time>2021-04-18T13:40:18Z</time>
      </trkpt>
      <trkpt lat="43.95825" lon="2.3537">
        <ele>416</ele>
        <time>2021-04-18T13:40:19Z</time>
      </trkpt>
      <trkpt lat="43.95825" lon="2.35368">
        <ele>415</ele>
        <time>2021-04-18T13:40:20Z</time>
      </trkpt>
      <trkpt lat="43.95825" lon="2.35366">
        <ele>415</ele>
        <time>2021-04-18T13:40:21Z</time>
      </trkpt>
      <trkpt lat="43.95825" lon="2.35365">
        <ele>415</ele>
        <time>2021-04-18T13:40:22Z</time>
      </trkpt>
      <trkpt lat="43.95825" lon="2.35364">
        <ele>415</ele>
        <time>2021-04-18T13:40:23Z</time>
      </trkpt>
      <trkpt lat="43.95825" lon="2.35363">
        <ele>415</ele>
        <time>2021-04-18T13:40:24Z</time>
      </trkpt>
      <trkpt lat="43.95825" lon="2.35361">
        <ele>416</ele>
        <time>2021-04-18T13:40:25Z</time>
      </trkpt>
      <trkpt lat="43.95826" lon="2.3536">
        <ele>416</ele>
        <time>2021-04-18T13:40:26Z</time>
      </trkpt>
      <trkpt lat="43.95826" lon="2.35359">
        <ele>418</ele>
        <time>2021-04-18T13:40:27Z</time>
      </trkpt>
      <trkpt lat="43.95827" lon="2.35358">
        <ele>418</ele>
        <time>2021-04-18T13:40:28Z</time>
      </trkpt>
      <trkpt lat="43.95827" lon="2.35357">
        <ele>418</ele>
        <time>2021-04-18T13:40:29Z</time>
      </trkpt>
      <trkpt lat="43.95827" lon="2.35357">
        <ele>417</ele>
        <time>2021-04-18T13:40:30Z</time>
      </trkpt>
      <trkpt lat="43.95828" lon="2.35357">
        <ele>417</ele>
        <time>2021-04-18T13:40:31Z</time>
      </trkpt>
      <trkpt lat="43.95828" lon="2.35356">
        <ele>417</ele>
        <time>2021-04-18T13:40:32Z</time>
      </trkpt>
      <trkpt lat="43.95829" lon="2.35356">
        <ele>417</ele>
        <time>2021-04-18T13:40:33Z</time>
      </trkpt>
      <trkpt lat="43.95829" lon="2.35355">
        <ele>418</ele>
        <time>2021-04-18T13:40:34Z</time>
      </trkpt>
      <trkpt lat="43.95829" lon="2.35355">
        <ele>418</ele>
        <time>2021-04-18T13:40:35Z</time>
      </trkpt>
      <trkpt lat="43.95829" lon="2.35355">
        <ele>419</ele>
        <time>2021-04-18T13:40:36Z</time>
      </trkpt>
      <trkpt lat="43.9583" lon="2.35355">
        <ele>419</ele>
        <time>2021-04-18T13:40:37Z</time>
      </trkpt>
      <trkpt lat="43.95831" lon="2.35354">
        <ele>420</ele>
        <time>2021-04-18T13:40:38Z</time>
      </trkpt>
      <trkpt lat="43.95832" lon="2.35353">
        <ele>420</ele>
        <time>2021-04-18T13:40:39Z</time>
      </trkpt>
      <trkpt lat="43.95833" lon="2.35352">
        <ele>420</ele>
        <time>2021-04-18T13:40:40Z</time>
      </trkpt>
      <trkpt lat="43.95834" lon="2.3535">
        <ele>421</ele>
        <time>2021-04-18T13:40:41Z</time>
      </trkpt>
      <trkpt lat="43.95836" lon="2.35349">
        <ele>420</ele>
        <time>2021-04-18T13:40:42Z</time>
      </trkpt>
      <trkpt lat="43.95837" lon="2.35348">
        <ele>419</ele>
        <time>2021-04-18T13:40:43Z</time>
      </trkpt>
      <trkpt lat="43.95837" lon="2.35348">
        <ele>419</ele>
        <time>2021-04-18T13:40:44Z</time>
      </trkpt>
      <trkpt lat="43.95837" lon="2.35348">
        <ele>419</ele>
        <time>2021-04-18T13:40:45Z</time>
      </trkpt>
      <trkpt lat="43.95838" lon="2.35346">
        <ele>418</ele>
        <time>2021-04-18T13:40:46Z</time>
      </trkpt>
      <trkpt lat="43.9584" lon="2.35345">
        <ele>418</ele>
        <time>2021-04-18T13:40:47Z</time>
      </trkpt>
      <trkpt lat="43.95841" lon="2.35343">
        <ele>418</ele>
        <time>2021-04-18T13:40:48Z</time>
      </trkpt>
      <trkpt lat="43.95842" lon="2.35341">
        <ele>418</ele>
        <time>2021-04-18T13:40:49Z</time>
      </trkpt>
      <trkpt lat="43.95844" lon="2.3534">
        <ele>417</ele>
        <time>2021-04-18T13:40:50Z</time>
      </trkpt>
      <trkpt lat="43.95845" lon="2.35339">
        <ele>417</ele>
        <time>2021-04-18T13:40:51Z</time>
      </trkpt>
      <trkpt lat="43.95846" lon="2.35337">
        <ele>416</ele>
        <time>2021-04-18T13:40:52Z</time>
      </trkpt>
      <trkpt lat="43.95847" lon="2.35337">
        <ele>416</ele>
        <time>2021-04-18T13:40:53Z</time>
      </trkpt>
      <trkpt lat="43.95847" lon="2.35336">
        <ele>416</ele>
        <time>2021-04-18T13:40:54Z</time>
      </trkpt>
      <trkpt lat="43.95849" lon="2.35334">
        <ele>416</ele>
        <time>2021-04-18T13:40:55Z</time>
      </trkpt>
      <trkpt lat="43.95849" lon="2.35333">
        <ele>415</ele>
        <time>2021-04-18T13:40:56Z</time>
      </trkpt>
      <trkpt lat="43.9585" lon="2.35332">
        <ele>415</ele>
        <time>2021-04-18T13:40:57Z</time>
      </trkpt>
      <trkpt lat="43.95852" lon="2.3533">
        <ele>415</ele>
        <time>2021-04-18T13:40:58Z</time>
      </trkpt>
      <trkpt lat="43.95853" lon="2.35328">
        <ele>415</ele>
        <time>2021-04-18T13:40:59Z</time>
      </trkpt>
      <trkpt lat="43.95854" lon="2.35327">
        <ele>415</ele>
        <time>2021-04-18T13:41:00Z</time>
      </trkpt>
      <trkpt lat="43.95855" lon="2.35325">
        <ele>414</ele>
        <time>2021-04-18T13:41:01Z</time>
      </trkpt>
      <trkpt lat="43.95856" lon="2.35324">
        <ele>414</ele>
        <time>2021-04-18T13:41:02Z</time>
      </trkpt>
      <trkpt lat="43.95857" lon="2.35322">
        <ele>415</ele>
        <time>2021-04-18T13:41:03Z</time>
      </trkpt>
      <trkpt lat="43.95857" lon="2.3532">
        <ele>415</ele>
        <time>2021-04-18T13:41:04Z</time>
      </trkpt>
      <trkpt lat="43.95858" lon="2.35319">
        <ele>415</ele>
        <time>2021-04-18T13:41:05Z</time>
      </trkpt>
      <trkpt lat="43.95858" lon="2.35318">
        <ele>414</ele>
        <time>2021-04-18T13:41:06Z</time>
      </trkpt>
      <trkpt lat="43.9586" lon="2.35316">
        <ele>414</ele>
        <time>2021-04-18T13:41:07Z</time>
      </trkpt>
      <trkpt lat="43.9586" lon="2.35315">
        <ele>413</ele>
        <time>2021-04-18T13:41:08Z</time>
      </trkpt>
      <trkpt lat="43.95861" lon="2.35313">
        <ele>413</ele>
        <time>2021-04-18T13:41:09Z</time>
      </trkpt>
      <trkpt lat="43.95862" lon="2.35311">
        <ele>413</ele>
        <time>2021-04-18T13:41:10Z</time>
      </trkpt>
      <trkpt lat="43.95863" lon="2.3531">
        <ele>413</ele>
        <time>2021-04-18T13:41:11Z</time>
      </trkpt>
      <trkpt lat="43.95864" lon="2.35308">
        <ele>412</ele>
        <time>2021-04-18T13:41:12Z</time>
      </trkpt>
      <trkpt lat="43.95865" lon="2.35306">
        <ele>412</ele>
        <time>2021-04-18T13:41:13Z</time>
      </trkpt>
      <trkpt lat="43.95866" lon="2.35304">
        <ele>412</ele>
        <time>2021-04-18T13:41:14Z</time>
      </trkpt>
      <trkpt lat="43.95866" lon="2.35302">
        <ele>411</ele>
        <time>2021-04-18T13:41:15Z</time>
      </trkpt>
      <trkpt lat="43.95867" lon="2.353">
        <ele>411</ele>
        <time>2021-04-18T13:41:16Z</time>
      </trkpt>
      <trkpt lat="43.95867" lon="2.35298">
        <ele>410</ele>
        <time>2021-04-18T13:41:17Z</time>
      </trkpt>
      <trkpt lat="43.95868" lon="2.35297">
        <ele>410</ele>
        <time>2021-04-18T13:41:18Z</time>
      </trkpt>
      <trkpt lat="43.95868" lon="2.35295">
        <ele>410</ele>
        <time>2021-04-18T13:41:19Z</time>
      </trkpt>
      <trkpt lat="43.95869" lon="2.35294">
        <ele>409</ele>
        <time>2021-04-18T13:41:20Z</time>
      </trkpt>
      <trkpt lat="43.9587" lon="2.35293">
        <ele>408</ele>
        <time>2021-04-18T13:41:21Z</time>
      </trkpt>
      <trkpt lat="43.95871" lon="2.35291">
        <ele>407</ele>
        <time>2021-04-18T13:41:22Z</time>
      </trkpt>
      <trkpt lat="43.95871" lon="2.3529">
        <ele>407</ele>
        <time>2021-04-18T13:41:23Z</time>
      </trkpt>
      <trkpt lat="43.95872" lon="2.35288">
        <ele>406</ele>
        <time>2021-04-18T13:41:24Z</time>
      </trkpt>
      <trkpt lat="43.95873" lon="2.35287">
        <ele>405</ele>
        <time>2021-04-18T13:41:25Z</time>
      </trkpt>
      <trkpt lat="43.95873" lon="2.35285">
        <ele>406</ele>
        <time>2021-04-18T13:41:26Z</time>
      </trkpt>
      <trkpt lat="43.95873" lon="2.35283">
        <ele>406</ele>
        <time>2021-04-18T13:41:27Z</time>
      </trkpt>
      <trkpt lat="43.95874" lon="2.35281">
        <ele>405</ele>
        <time>2021-04-18T13:41:28Z</time>
      </trkpt>
      <trkpt lat="43.95874" lon="2.35279">
        <ele>405</ele>
        <time>2021-04-18T13:41:29Z</time>
      </trkpt>
      <trkpt lat="43.95875" lon="2.35277">
        <ele>404</ele>
        <time>2021-04-18T13:41:30Z</time>
      </trkpt>
      <trkpt lat="43.95876" lon="2.35275">
        <ele>404</ele>
        <time>2021-04-18T13:41:31Z</time>
      </trkpt>
      <trkpt lat="43.95876" lon="2.35273">
        <ele>403</ele>
        <time>2021-04-18T13:41:32Z</time>
      </trkpt>
      <trkpt lat="43.95877" lon="2.35272">
        <ele>403</ele>
        <time>2021-04-18T13:41:33Z</time>
      </trkpt>
      <trkpt lat="43.95878" lon="2.3527">
        <ele>402</ele>
        <time>2021-04-18T13:41:34Z</time>
      </trkpt>
      <trkpt lat="43.95878" lon="2.35268">
        <ele>402</ele>
        <time>2021-04-18T13:41:35Z</time>
      </trkpt>
      <trkpt lat="43.95879" lon="2.35266">
        <ele>401</ele>
        <time>2021-04-18T13:41:36Z</time>
      </trkpt>
      <trkpt lat="43.95879" lon="2.35264">
        <ele>401</ele>
        <time>2021-04-18T13:41:37Z</time>
      </trkpt>
      <trkpt lat="43.95879" lon="2.35262">
        <ele>401</ele>
        <time>2021-04-18T13:41:38Z</time>
      </trkpt>
      <trkpt lat="43.9588" lon="2.3526">
        <ele>401</ele>
        <time>2021-04-18T13:41:39Z</time>
      </trkpt>
      <trkpt lat="43.95881" lon="2.35257">
        <ele>401</ele>
        <time>2021-04-18T13:41:40Z</time>
      </trkpt>
      <trkpt lat="43.95881" lon="2.35255">
        <ele>400</ele>
        <time>2021-04-18T13:41:41Z</time>
      </trkpt>
      <trkpt lat="43.95882" lon="2.35252">
        <ele>400</ele>
        <time>2021-04-18T13:41:42Z</time>
      </trkpt>
      <trkpt lat="43.95882" lon="2.3525">
        <ele>399</ele>
        <time>2021-04-18T13:41:43Z</time>
      </trkpt>
      <trkpt lat="43.95883" lon="2.35248">
        <ele>400</ele>
        <time>2021-04-18T13:41:44Z</time>
      </trkpt>
      <trkpt lat="43.95883" lon="2.35246">
        <ele>399</ele>
        <time>2021-04-18T13:41:45Z</time>
      </trkpt>
      <trkpt lat="43.95884" lon="2.35245">
        <ele>399</ele>
        <time>2021-04-18T13:41:46Z</time>
      </trkpt>
      <trkpt lat="43.95884" lon="2.35243">
        <ele>399</ele>
        <time>2021-04-18T13:41:47Z</time>
      </trkpt>
      <trkpt lat="43.95885" lon="2.35241">
        <ele>399</ele>
        <time>2021-04-18T13:41:48Z</time>
      </trkpt>
      <trkpt lat="43.95886" lon="2.35239">
        <ele>398</ele>
        <time>2021-04-18T13:41:49Z</time>
      </trkpt>
      <trkpt lat="43.95886" lon="2.35237">
        <ele>398</ele>
        <time>2021-04-18T13:41:50Z</time>
      </trkpt>
      <trkpt lat="43.95887" lon="2.35234">
        <ele>397</ele>
        <time>2021-04-18T13:41:51Z</time>
      </trkpt>
      <trkpt lat="43.95887" lon="2.35232">
        <ele>398</ele>
        <time>2021-04-18T13:41:52Z</time>
      </trkpt>
      <trkpt lat="43.95887" lon="2.3523">
        <ele>397</ele>
        <time>2021-04-18T13:41:53Z</time>
      </trkpt>
      <trkpt lat="43.95887" lon="2.35228">
        <ele>397</ele>
        <time>2021-04-18T13:41:54Z</time>
      </trkpt>
      <trkpt lat="43.95887" lon="2.35226">
        <ele>396</ele>
        <time>2021-04-18T13:41:55Z</time>
      </trkpt>
      <trkpt lat="43.95886" lon="2.35224">
        <ele>396</ele>
        <time>2021-04-18T13:41:56Z</time>
      </trkpt>
      <trkpt lat="43.95886" lon="2.35222">
        <ele>396</ele>
        <time>2021-04-18T13:41:57Z</time>
      </trkpt>
      <trkpt lat="43.95886" lon="2.3522">
        <ele>396</ele>
        <time>2021-04-18T13:41:58Z</time>
      </trkpt>
      <trkpt lat="43.95885" lon="2.35218">
        <ele>396</ele>
        <time>2021-04-18T13:41:59Z</time>
      </trkpt>
      <trkpt lat="43.95884" lon="2.35217">
        <ele>395</ele>
        <time>2021-04-18T13:42:00Z</time>
      </trkpt>
      <trkpt lat="43.95884" lon="2.35215">
        <ele>394</ele>
        <time>2021-04-18T13:42:01Z</time>
      </trkpt>
      <trkpt lat="43.95883" lon="2.35212">
        <ele>393</ele>
        <time>2021-04-18T13:42:02Z</time>
      </trkpt>
      <trkpt lat="43.95883" lon="2.35209">
        <ele>392</ele>
        <time>2021-04-18T13:42:03Z</time>
      </trkpt>
      <trkpt lat="43.95882" lon="2.35207">
        <ele>391</ele>
        <time>2021-04-18T13:42:04Z</time>
      </trkpt>
      <trkpt lat="43.95881" lon="2.35204">
        <ele>391</ele>
        <time>2021-04-18T13:42:05Z</time>
      </trkpt>
      <trkpt lat="43.95881" lon="2.35202">
        <ele>390</ele>
        <time>2021-04-18T13:42:06Z</time>
      </trkpt>
      <trkpt lat="43.95879" lon="2.352">
        <ele>390</ele>
        <time>2021-04-18T13:42:07Z</time>
      </trkpt>
      <trkpt lat="43.95879" lon="2.35198">
        <ele>389</ele>
        <time>2021-04-18T13:42:08Z</time>
      </trkpt>
      <trkpt lat="43.95878" lon="2.35197">
        <ele>388</ele>
        <time>2021-04-18T13:42:09Z</time>
      </trkpt>
      <trkpt lat="43.95876" lon="2.35196">
        <ele>388</ele>
        <time>2021-04-18T13:42:10Z</time>
      </trkpt>
      <trkpt lat="43.95875" lon="2.35195">
        <ele>388</ele>
        <time>2021-04-18T13:42:11Z</time>
      </trkpt>
      <trkpt lat="43.95874" lon="2.35193">
        <ele>388</ele>
        <time>2021-04-18T13:42:12Z</time>
      </trkpt>
      <trkpt lat="43.95873" lon="2.35192">
        <ele>387</ele>
        <time>2021-04-18T13:42:13Z</time>
      </trkpt>
      <trkpt lat="43.95871" lon="2.35191">
        <ele>387</ele>
        <time>2021-04-18T13:42:14Z</time>
      </trkpt>
      <trkpt lat="43.9587" lon="2.3519">
        <ele>387</ele>
        <time>2021-04-18T13:42:15Z</time>
      </trkpt>
      <trkpt lat="43.95869" lon="2.35189">
        <ele>387</ele>
        <time>2021-04-18T13:42:16Z</time>
      </trkpt>
      <trkpt lat="43.95868" lon="2.35188">
        <ele>387</ele>
        <time>2021-04-18T13:42:17Z</time>
      </trkpt>
      <trkpt lat="43.95868" lon="2.35186">
        <ele>387</ele>
        <time>2021-04-18T13:42:18Z</time>
      </trkpt>
      <trkpt lat="43.95867" lon="2.35185">
        <ele>386</ele>
        <time>2021-04-18T13:42:19Z</time>
      </trkpt>
      <trkpt lat="43.95866" lon="2.35183">
        <ele>386</ele>
        <time>2021-04-18T13:42:20Z</time>
      </trkpt>
      <trkpt lat="43.95866" lon="2.35182">
        <ele>386</ele>
        <time>2021-04-18T13:42:21Z</time>
      </trkpt>
      <trkpt lat="43.95865" lon="2.35182">
        <ele>386</ele>
        <time>2021-04-18T13:42:22Z</time>
      </trkpt>
      <trkpt lat="43.95865" lon="2.35181">
        <ele>385</ele>
        <time>2021-04-18T13:42:23Z</time>
      </trkpt>
      <trkpt lat="43.95865" lon="2.3518">
        <ele>386</ele>
        <time>2021-04-18T13:42:24Z</time>
      </trkpt>
      <trkpt lat="43.95865" lon="2.35179">
        <ele>386</ele>
        <time>2021-04-18T13:42:25Z</time>
      </trkpt>
      <trkpt lat="43.95865" lon="2.35178">
        <ele>386</ele>
        <time>2021-04-18T13:42:26Z</time>
      </trkpt>
      <trkpt lat="43.95865" lon="2.35178">
        <ele>387</ele>
        <time>2021-04-18T13:42:27Z</time>
      </trkpt>
      <trkpt lat="43.95866" lon="2.35177">
        <ele>387</ele>
        <time>2021-04-18T13:42:28Z</time>
      </trkpt>
      <trkpt lat="43.95866" lon="2.35177">
        <ele>388</ele>
        <time>2021-04-18T13:42:29Z</time>
      </trkpt>
      <trkpt lat="43.95866" lon="2.35177">
        <ele>388</ele>
        <time>2021-04-18T13:42:30Z</time>
      </trkpt>
      <trkpt lat="43.95867" lon="2.35176">
        <ele>387</ele>
        <time>2021-04-18T13:42:31Z</time>
      </trkpt>
      <trkpt lat="43.95867" lon="2.35176">
        <ele>388</ele>
        <time>2021-04-18T13:42:32Z</time>
      </trkpt>
      <trkpt lat="43.95868" lon="2.35176">
        <ele>389</ele>
        <time>2021-04-18T13:42:33Z</time>
      </trkpt>
      <trkpt lat="43.95869" lon="2.35175">
        <ele>389</ele>
        <time>2021-04-18T13:42:34Z</time>
      </trkpt>
      <trkpt lat="43.9587" lon="2.35174">
        <ele>389</ele>
        <time>2021-04-18T13:42:35Z</time>
      </trkpt>
      <trkpt lat="43.95871" lon="2.35173">
        <ele>389</ele>
        <time>2021-04-18T13:42:36Z</time>
      </trkpt>
      <trkpt lat="43.95871" lon="2.35173">
        <ele>390</ele>
        <time>2021-04-18T13:42:37Z</time>
      </trkpt>
      <trkpt lat="43.95872" lon="2.35173">
        <ele>390</ele>
        <time>2021-04-18T13:42:38Z</time>
      </trkpt>
      <trkpt lat="43.95873" lon="2.35173">
        <ele>389</ele>
        <time>2021-04-18T13:42:39Z</time>
      </trkpt>
      <trkpt lat="43.95873" lon="2.35172">
        <ele>389</ele>
        <time>2021-04-18T13:42:40Z</time>
      </trkpt>
      <trkpt lat="43.95874" lon="2.35171">
        <ele>388</ele>
        <time>2021-04-18T13:42:41Z</time>
      </trkpt>
      <trkpt lat="43.95876" lon="2.3517">
        <ele>388</ele>
        <time>2021-04-18T13:42:42Z</time>
      </trkpt>
      <trkpt lat="43.95877" lon="2.35168">
        <ele>388</ele>
        <time>2021-04-18T13:42:43Z</time>
      </trkpt>
      <trkpt lat="43.95878" lon="2.35165">
        <ele>388</ele>
        <time>2021-04-18T13:42:44Z</time>
      </trkpt>
      <trkpt lat="43.95878" lon="2.35163">
        <ele>388</ele>
        <time>2021-04-18T13:42:45Z</time>
      </trkpt>
      <trkpt lat="43.95879" lon="2.35161">
        <ele>387</ele>
        <time>2021-04-18T13:42:46Z</time>
      </trkpt>
      <trkpt lat="43.9588" lon="2.3516">
        <ele>386</ele>
        <time>2021-04-18T13:42:47Z</time>
      </trkpt>
      <trkpt lat="43.95881" lon="2.35157">
        <ele>386</ele>
        <time>2021-04-18T13:42:48Z</time>
      </trkpt>
      <trkpt lat="43.95881" lon="2.35155">
        <ele>385</ele>
        <time>2021-04-18T13:42:49Z</time>
      </trkpt>
      <trkpt lat="43.95881" lon="2.35153">
        <ele>385</ele>
        <time>2021-04-18T13:42:50Z</time>
      </trkpt>
      <trkpt lat="43.95882" lon="2.35151">
        <ele>385</ele>
        <time>2021-04-18T13:42:51Z</time>
      </trkpt>
      <trkpt lat="43.95881" lon="2.35148">
        <ele>384</ele>
        <time>2021-04-18T13:42:52Z</time>
      </trkpt>
      <trkpt lat="43.95881" lon="2.35147">
        <ele>383</ele>
        <time>2021-04-18T13:42:53Z</time>
      </trkpt>
      <trkpt lat="43.95882" lon="2.35145">
        <ele>383</ele>
        <time>2021-04-18T13:42:54Z</time>
      </trkpt>
      <trkpt lat="43.95882" lon="2.35143">
        <ele>383</ele>
        <time>2021-04-18T13:42:55Z</time>
      </trkpt>
      <trkpt lat="43.95883" lon="2.3514">
        <ele>382</ele>
        <time>2021-04-18T13:42:56Z</time>
      </trkpt>
      <trkpt lat="43.95883" lon="2.35138">
        <ele>381</ele>
        <time>2021-04-18T13:42:57Z</time>
      </trkpt>
      <trkpt lat="43.95883" lon="2.35136">
        <ele>382</ele>
        <time>2021-04-18T13:42:58Z</time>
      </trkpt>
      <trkpt lat="43.95883" lon="2.35134">
        <ele>382</ele>
        <time>2021-04-18T13:42:59Z</time>
      </trkpt>
      <trkpt lat="43.95883" lon="2.35133">
        <ele>381</ele>
        <time>2021-04-18T13:43:00Z</time>
      </trkpt>
      <trkpt lat="43.95882" lon="2.35132">
        <ele>381</ele>
        <time>2021-04-18T13:43:01Z</time>
      </trkpt>
      <trkpt lat="43.95882" lon="2.3513">
        <ele>381</ele>
        <time>2021-04-18T13:43:02Z</time>
      </trkpt>
      <trkpt lat="43.95882" lon="2.35127">
        <ele>381</ele>
        <time>2021-04-18T13:43:03Z</time>
      </trkpt>
      <trkpt lat="43.95882" lon="2.35126">
        <ele>381</ele>
        <time>2021-04-18T13:43:04Z</time>
      </trkpt>
      <trkpt lat="43.95881" lon="2.35124">
        <ele>381</ele>
        <time>2021-04-18T13:43:05Z</time>
      </trkpt>
      <trkpt lat="43.95881" lon="2.35121">
        <ele>380</ele>
        <time>2021-04-18T13:43:06Z</time>
      </trkpt>
      <trkpt lat="43.9588" lon="2.35119">
        <ele>380</ele>
        <time>2021-04-18T13:43:07Z</time>
      </trkpt>
      <trkpt lat="43.9588" lon="2.35117">
        <ele>379</ele>
        <time>2021-04-18T13:43:08Z</time>
      </trkpt>
      <trkpt lat="43.9588" lon="2.35115">
        <ele>379</ele>
        <time>2021-04-18T13:43:09Z</time>
      </trkpt>
      <trkpt lat="43.9588" lon="2.35113">
        <ele>379</ele>
        <time>2021-04-18T13:43:10Z</time>
      </trkpt>
      <trkpt lat="43.95879" lon="2.35111">
        <ele>378</ele>
        <time>2021-04-18T13:43:11Z</time>
      </trkpt>
      <trkpt lat="43.95879" lon="2.35109">
        <ele>377</ele>
        <time>2021-04-18T13:43:12Z</time>
      </trkpt>
      <trkpt lat="43.95879" lon="2.35107">
        <ele>377</ele>
        <time>2021-04-18T13:43:13Z</time>
      </trkpt>
      <trkpt lat="43.95879" lon="2.35105">
        <ele>377</ele>
        <time>2021-04-18T13:43:14Z</time>
      </trkpt>
      <trkpt lat="43.95879" lon="2.35103">
        <ele>376</ele>
        <time>2021-04-18T13:43:15Z</time>
      </trkpt>
      <trkpt lat="43.9588" lon="2.35101">
        <ele>376</ele>
        <time>2021-04-18T13:43:16Z</time>
      </trkpt>
      <trkpt lat="43.95879" lon="2.35099">
        <ele>376</ele>
        <time>2021-04-18T13:43:17Z</time>
      </trkpt>
      <trkpt lat="43.95879" lon="2.35097">
        <ele>375</ele>
        <time>2021-04-18T13:43:18Z</time>
      </trkpt>
      <trkpt lat="43.95879" lon="2.35095">
        <ele>375</ele>
        <time>2021-04-18T13:43:19Z</time>
      </trkpt>
      <trkpt lat="43.95878" lon="2.35093">
        <ele>374</ele>
        <time>2021-04-18T13:43:20Z</time>
      </trkpt>
      <trkpt lat="43.95877" lon="2.35091">
        <ele>375</ele>
        <time>2021-04-18T13:43:21Z</time>
      </trkpt>
      <trkpt lat="43.95876" lon="2.3509">
        <ele>374</ele>
        <time>2021-04-18T13:43:22Z</time>
      </trkpt>
      <trkpt lat="43.95875" lon="2.35089">
        <ele>374</ele>
        <time>2021-04-18T13:43:23Z</time>
      </trkpt>
      <trkpt lat="43.95875" lon="2.35087">
        <ele>373</ele>
        <time>2021-04-18T13:43:24Z</time>
      </trkpt>
      <trkpt lat="43.95874" lon="2.35085">
        <ele>373</ele>
        <time>2021-04-18T13:43:25Z</time>
      </trkpt>
      <trkpt lat="43.95874" lon="2.35084">
        <ele>373</ele>
        <time>2021-04-18T13:43:26Z</time>
      </trkpt>
      <trkpt lat="43.95874" lon="2.35082">
        <ele>373</ele>
        <time>2021-04-18T13:43:27Z</time>
      </trkpt>
      <trkpt lat="43.95874" lon="2.3508">
        <ele>373</ele>
        <time>2021-04-18T13:43:28Z</time>
      </trkpt>
      <trkpt lat="43.95874" lon="2.35077">
        <ele>373</ele>
        <time>2021-04-18T13:43:29Z</time>
      </trkpt>
      <trkpt lat="43.95875" lon="2.35075">
        <ele>373</ele>
        <time>2021-04-18T13:43:30Z</time>
      </trkpt>
      <trkpt lat="43.95874" lon="2.35073">
        <ele>373</ele>
        <time>2021-04-18T13:43:31Z</time>
      </trkpt>
      <trkpt lat="43.95874" lon="2.35071">
        <ele>373</ele>
        <time>2021-04-18T13:43:32Z</time>
      </trkpt>
      <trkpt lat="43.95874" lon="2.35069">
        <ele>372</ele>
        <time>2021-04-18T13:43:33Z</time>
      </trkpt>
      <trkpt lat="43.95874" lon="2.35067">
        <ele>371</ele>
        <time>2021-04-18T13:43:34Z</time>
      </trkpt>
      <trkpt lat="43.95873" lon="2.35066">
        <ele>371</ele>
        <time>2021-04-18T13:43:35Z</time>
      </trkpt>
      <trkpt lat="43.95873" lon="2.35064">
        <ele>370</ele>
        <time>2021-04-18T13:43:36Z</time>
      </trkpt>
      <trkpt lat="43.95873" lon="2.35062">
        <ele>370</ele>
        <time>2021-04-18T13:43:37Z</time>
      </trkpt>
      <trkpt lat="43.95873" lon="2.3506">
        <ele>370</ele>
        <time>2021-04-18T13:43:38Z</time>
      </trkpt>
      <trkpt lat="43.95873" lon="2.35058">
        <ele>370</ele>
        <time>2021-04-18T13:43:39Z</time>
      </trkpt>
      <trkpt lat="43.95873" lon="2.35056">
        <ele>371</ele>
        <time>2021-04-18T13:43:40Z</time>
      </trkpt>
      <trkpt lat="43.95873" lon="2.35054">
        <ele>371</ele>
        <time>2021-04-18T13:43:41Z</time>
      </trkpt>
      <trkpt lat="43.95872" lon="2.35052">
        <ele>370</ele>
        <time>2021-04-18T13:43:42Z</time>
      </trkpt>
      <trkpt lat="43.95871" lon="2.3505">
        <ele>369</ele>
        <time>2021-04-18T13:43:43Z</time>
      </trkpt>
      <trkpt lat="43.9587" lon="2.35048">
        <ele>369</ele>
        <time>2021-04-18T13:43:44Z</time>
      </trkpt>
      <trkpt lat="43.9587" lon="2.35046">
        <ele>368</ele>
        <time>2021-04-18T13:43:45Z</time>
      </trkpt>
      <trkpt lat="43.9587" lon="2.35044">
        <ele>368</ele>
        <time>2021-04-18T13:43:46Z</time>
      </trkpt>
      <trkpt lat="43.9587" lon="2.35042">
        <ele>367</ele>
        <time>2021-04-18T13:43:47Z</time>
      </trkpt>
      <trkpt lat="43.95869" lon="2.3504">
        <ele>367</ele>
        <time>2021-04-18T13:43:48Z</time>
      </trkpt>
      <trkpt lat="43.95869" lon="2.35038">
        <ele>366</ele>
        <time>2021-04-18T13:43:49Z</time>
      </trkpt>
      <trkpt lat="43.95869" lon="2.35035">
        <ele>366</ele>
        <time>2021-04-18T13:43:50Z</time>
      </trkpt>
      <trkpt lat="43.95869" lon="2.35033">
        <ele>365</ele>
        <time>2021-04-18T13:43:51Z</time>
      </trkpt>
      <trkpt lat="43.95869" lon="2.35032">
        <ele>365</ele>
        <time>2021-04-18T13:43:52Z</time>
      </trkpt>
      <trkpt lat="43.95869" lon="2.3503">
        <ele>364</ele>
        <time>2021-04-18T13:43:53Z</time>
      </trkpt>
      <trkpt lat="43.95869" lon="2.35028">
        <ele>364</ele>
        <time>2021-04-18T13:43:54Z</time>
      </trkpt>
      <trkpt lat="43.95869" lon="2.35026">
        <ele>363</ele>
        <time>2021-04-18T13:43:55Z</time>
      </trkpt>
      <trkpt lat="43.95869" lon="2.35024">
        <ele>363</ele>
        <time>2021-04-18T13:43:56Z</time>
      </trkpt>
      <trkpt lat="43.95868" lon="2.35022">
        <ele>362</ele>
        <time>2021-04-18T13:43:57Z</time>
      </trkpt>
      <trkpt lat="43.95868" lon="2.3502">
        <ele>363</ele>
        <time>2021-04-18T13:43:58Z</time>
      </trkpt>
      <trkpt lat="43.95868" lon="2.35018">
        <ele>362</ele>
        <time>2021-04-18T13:43:59Z</time>
      </trkpt>
      <trkpt lat="43.95867" lon="2.35016">
        <ele>361</ele>
        <time>2021-04-18T13:44:00Z</time>
      </trkpt>
      <trkpt lat="43.95866" lon="2.35014">
        <ele>361</ele>
        <time>2021-04-18T13:44:01Z</time>
      </trkpt>
      <trkpt lat="43.95865" lon="2.35012">
        <ele>360</ele>
        <time>2021-04-18T13:44:02Z</time>
      </trkpt>
      <trkpt lat="43.95865" lon="2.3501">
        <ele>360</ele>
        <time>2021-04-18T13:44:03Z</time>
      </trkpt>
      <trkpt lat="43.95865" lon="2.35008">
        <ele>360</ele>
        <time>2021-04-18T13:44:04Z</time>
      </trkpt>
      <trkpt lat="43.95865" lon="2.35007">
        <ele>360</ele>
        <time>2021-04-18T13:44:05Z</time>
      </trkpt>
      <trkpt lat="43.95866" lon="2.35006">
        <ele>359</ele>
        <time>2021-04-18T13:44:06Z</time>
      </trkpt>
      <trkpt lat="43.95866" lon="2.35006">
        <ele>359</ele>
        <time>2021-04-18T13:44:07Z</time>
      </trkpt>
      <trkpt lat="43.95866" lon="2.35006">
        <ele>359</ele>
        <time>2021-04-18T13:44:08Z</time>
      </trkpt>
      <trkpt lat="43.95866" lon="2.35002">
        <ele>359</ele>
        <time>2021-04-18T13:44:09Z</time>
      </trkpt>
      <trkpt lat="43.95866" lon="2.35">
        <ele>360</ele>
        <time>2021-04-18T13:44:10Z</time>
      </trkpt>
      <trkpt lat="43.95866" lon="2.34997">
        <ele>360</ele>
        <time>2021-04-18T13:44:11Z</time>
      </trkpt>
      <trkpt lat="43.95866" lon="2.34995">
        <ele>360</ele>
        <time>2021-04-18T13:44:12Z</time>
      </trkpt>
      <trkpt lat="43.95866" lon="2.34993">
        <ele>360</ele>
        <time>2021-04-18T13:44:13Z</time>
      </trkpt>
      <trkpt lat="43.95865" lon="2.34991">
        <ele>359</ele>
        <time>2021-04-18T13:44:14Z</time>
      </trkpt>
      <trkpt lat="43.95865" lon="2.3499">
        <ele>359</ele>
        <time>2021-04-18T13:44:15Z</time>
      </trkpt>
      <trkpt lat="43.95864" lon="2.34988">
        <ele>358</ele>
        <time>2021-04-18T13:44:16Z</time>
      </trkpt>
      <trkpt lat="43.95863" lon="2.34987">
        <ele>359</ele>
        <time>2021-04-18T13:44:17Z</time>
      </trkpt>
      <trkpt lat="43.95864" lon="2.34985">
        <ele>359</ele>
        <time>2021-04-18T13:44:18Z</time>
      </trkpt>
      <trkpt lat="43.95864" lon="2.34982">
        <ele>359</ele>
        <time>2021-04-18T13:44:19Z</time>
      </trkpt>
      <trkpt lat="43.95863" lon="2.3498">
        <ele>358</ele>
        <time>2021-04-18T13:44:20Z</time>
      </trkpt>
      <trkpt lat="43.95863" lon="2.34979">
        <ele>358</ele>
        <time>2021-04-18T13:44:21Z</time>
      </trkpt>
      <trkpt lat="43.95862" lon="2.34977">
        <ele>358</ele>
        <time>2021-04-18T13:44:22Z</time>
      </trkpt>
      <trkpt lat="43.95862" lon="2.34976">
        <ele>358</ele>
        <time>2021-04-18T13:44:23Z</time>
      </trkpt>
      <trkpt lat="43.95862" lon="2.34974">
        <ele>358</ele>
        <time>2021-04-18T13:44:24Z</time>
      </trkpt>
      <trkpt lat="43.95862" lon="2.34973">
        <ele>358</ele>
        <time>2021-04-18T13:44:25Z</time>
      </trkpt>
      <trkpt lat="43.95862" lon="2.34971">
        <ele>358</ele>
        <time>2021-04-18T13:44:26Z</time>
      </trkpt>
      <trkpt lat="43.95863" lon="2.3497">
        <ele>357</ele>
        <time>2021-04-18T13:44:27Z</time>
      </trkpt>
      <trkpt lat="43.95862" lon="2.34969">
        <ele>357</ele>
        <time>2021-04-18T13:44:28Z</time>
      </trkpt>
      <trkpt lat="43.95861" lon="2.34968">
        <ele>357</ele>
        <time>2021-04-18T13:44:29Z</time>
      </trkpt>
      <trkpt lat="43.9586" lon="2.34968">
        <ele>357</ele>
        <time>2021-04-18T13:44:30Z</time>
      </trkpt>
      <trkpt lat="43.9586" lon="2.34968">
        <ele>357</ele>
        <time>2021-04-18T13:44:31Z</time>
      </trkpt>
      <trkpt lat="43.9586" lon="2.34968">
        <ele>357</ele>
        <time>2021-04-18T13:44:32Z</time>
      </trkpt>
      <trkpt lat="43.9586" lon="2.34968">
        <ele>357</ele>
        <time>2021-04-18T13:44:32Z</time>
      </trkpt>
      <trkpt lat="43.9586" lon="2.34968">
        <ele>357</ele>
        <time>2021-04-18T13:44:32Z</time>
      </trkpt>
      <trkpt lat="43.9586" lon="2.34968">
        <ele>354</ele>
        <time>2021-04-18T13:44:41Z</time>
      </trkpt>
      <trkpt lat="43.9586" lon="2.34968">
        <ele>354</ele>
        <time>2021-04-18T13:44:42Z</time>
      </trkpt>
      <trkpt lat="43.9586" lon="2.34968">
        <ele>354</ele>
        <time>2021-04-18T13:44:43Z</time>
      </trkpt>
      <trkpt lat="43.95861" lon="2.34968">
        <ele>353</ele>
        <time>2021-04-18T13:44:44Z</time>
      </trkpt>
      <trkpt lat="43.95862" lon="2.34968">
        <ele>353</ele>
        <time>2021-04-18T13:44:45Z</time>
      </trkpt>
      <trkpt lat="43.95863" lon="2.34968">
        <ele>353</ele>
        <time>2021-04-18T13:44:46Z</time>
      </trkpt>
      <trkpt lat="43.95864" lon="2.34969">
        <ele>352</ele>
        <time>2021-04-18T13:44:47Z</time>
      </trkpt>
      <trkpt lat="43.95865" lon="2.3497">
        <ele>351</ele>
        <time>2021-04-18T13:44:48Z</time>
      </trkpt>
      <trkpt lat="43.95866" lon="2.3497">
        <ele>352</ele>
        <time>2021-04-18T13:44:49Z</time>
      </trkpt>
      <trkpt lat="43.95868" lon="2.3497">
        <ele>351</ele>
        <time>2021-04-18T13:44:50Z</time>
      </trkpt>
      <trkpt lat="43.95869" lon="2.34969">
        <ele>351</ele>
        <time>2021-04-18T13:44:51Z</time>
      </trkpt>
      <trkpt lat="43.9587" lon="2.34969">
        <ele>351</ele>
        <time>2021-04-18T13:44:52Z</time>
      </trkpt>
      <trkpt lat="43.95871" lon="2.34968">
        <ele>351</ele>
        <time>2021-04-18T13:44:53Z</time>
      </trkpt>
      <trkpt lat="43.95872" lon="2.34967">
        <ele>351</ele>
        <time>2021-04-18T13:44:54Z</time>
      </trkpt>
      <trkpt lat="43.95874" lon="2.34967">
        <ele>350</ele>
        <time>2021-04-18T13:44:55Z</time>
      </trkpt>
      <trkpt lat="43.95875" lon="2.34967">
        <ele>350</ele>
        <time>2021-04-18T13:44:56Z</time>
      </trkpt>
      <trkpt lat="43.95876" lon="2.34967">
        <ele>350</ele>
        <time>2021-04-18T13:44:57Z</time>
      </trkpt>
      <trkpt lat="43.95878" lon="2.34967">
        <ele>350</ele>
        <time>2021-04-18T13:44:58Z</time>
      </trkpt>
      <trkpt lat="43.95879" lon="2.34967">
        <ele>350</ele>
        <time>2021-04-18T13:44:59Z</time>
      </trkpt>
      <trkpt lat="43.9588" lon="2.34967">
        <ele>350</ele>
        <time>2021-04-18T13:45:00Z</time>
      </trkpt>
      <trkpt lat="43.95881" lon="2.34967">
        <ele>350</ele>
        <time>2021-04-18T13:45:01Z</time>
      </trkpt>
      <trkpt lat="43.95882" lon="2.34967">
        <ele>350</ele>
        <time>2021-04-18T13:45:02Z</time>
      </trkpt>
      <trkpt lat="43.95884" lon="2.34968">
        <ele>349</ele>
        <time>2021-04-18T13:45:03Z</time>
      </trkpt>
      <trkpt lat="43.95885" lon="2.34968">
        <ele>350</ele>
        <time>2021-04-18T13:45:04Z</time>
      </trkpt>
      <trkpt lat="43.95886" lon="2.34969">
        <ele>349</ele>
        <time>2021-04-18T13:45:05Z</time>
      </trkpt>
      <trkpt lat="43.95887" lon="2.34968">
        <ele>348</ele>
        <time>2021-04-18T13:45:06Z</time>
      </trkpt>
      <trkpt lat="43.95889" lon="2.34968">
        <ele>348</ele>
        <time>2021-04-18T13:45:07Z</time>
      </trkpt>
      <trkpt lat="43.9589" lon="2.34967">
        <ele>347</ele>
        <time>2021-04-18T13:45:08Z</time>
      </trkpt>
      <trkpt lat="43.95892" lon="2.34966">
        <ele>347</ele>
        <time>2021-04-18T13:45:09Z</time>
      </trkpt>
      <trkpt lat="43.95893" lon="2.34964">
        <ele>346</ele>
        <time>2021-04-18T13:45:10Z</time>
      </trkpt>
      <trkpt lat="43.95894" lon="2.34961">
        <ele>347</ele>
        <time>2021-04-18T13:45:11Z</time>
      </trkpt>
      <trkpt lat="43.95894" lon="2.34959">
        <ele>347</ele>
        <time>2021-04-18T13:45:12Z</time>
      </trkpt>
      <trkpt lat="43.95894" lon="2.34956">
        <ele>346</ele>
        <time>2021-04-18T13:45:13Z</time>
      </trkpt>
      <trkpt lat="43.95894" lon="2.34954">
        <ele>346</ele>
        <time>2021-04-18T13:45:14Z</time>
      </trkpt>
      <trkpt lat="43.95894" lon="2.34952">
        <ele>346</ele>
        <time>2021-04-18T13:45:15Z</time>
      </trkpt>
      <trkpt lat="43.95894" lon="2.34951">
        <ele>345</ele>
        <time>2021-04-18T13:45:16Z</time>
      </trkpt>
      <trkpt lat="43.95892" lon="2.3495">
        <ele>344</ele>
        <time>2021-04-18T13:45:17Z</time>
      </trkpt>
      <trkpt lat="43.95892" lon="2.34949">
        <ele>344</ele>
        <time>2021-04-18T13:45:18Z</time>
      </trkpt>
      <trkpt lat="43.9589" lon="2.34949">
        <ele>343</ele>
        <time>2021-04-18T13:45:19Z</time>
      </trkpt>
      <trkpt lat="43.95889" lon="2.34949">
        <ele>342</ele>
        <time>2021-04-18T13:45:20Z</time>
      </trkpt>
      <trkpt lat="43.95887" lon="2.34948">
        <ele>342</ele>
        <time>2021-04-18T13:45:21Z</time>
      </trkpt>
      <trkpt lat="43.95886" lon="2.34947">
        <ele>342</ele>
        <time>2021-04-18T13:45:22Z</time>
      </trkpt>
      <trkpt lat="43.95885" lon="2.34945">
        <ele>342</ele>
        <time>2021-04-18T13:45:23Z</time>
      </trkpt>
      <trkpt lat="43.95883" lon="2.34944">
        <ele>341</ele>
        <time>2021-04-18T13:45:24Z</time>
      </trkpt>
      <trkpt lat="43.95882" lon="2.34943">
        <ele>340</ele>
        <time>2021-04-18T13:45:25Z</time>
      </trkpt>
      <trkpt lat="43.9588" lon="2.34942">
        <ele>340</ele>
        <time>2021-04-18T13:45:26Z</time>
      </trkpt>
      <trkpt lat="43.95879" lon="2.34941">
        <ele>339</ele>
        <time>2021-04-18T13:45:27Z</time>
      </trkpt>
      <trkpt lat="43.95876" lon="2.3494">
        <ele>339</ele>
        <time>2021-04-18T13:45:28Z</time>
      </trkpt>
      <trkpt lat="43.95875" lon="2.3494">
        <ele>338</ele>
        <time>2021-04-18T13:45:29Z</time>
      </trkpt>
      <trkpt lat="43.95874" lon="2.34939">
        <ele>337</ele>
        <time>2021-04-18T13:45:30Z</time>
      </trkpt>
      <trkpt lat="43.95873" lon="2.34938">
        <ele>336</ele>
        <time>2021-04-18T13:45:31Z</time>
      </trkpt>
      <trkpt lat="43.95871" lon="2.34937">
        <ele>336</ele>
        <time>2021-04-18T13:45:32Z</time>
      </trkpt>
      <trkpt lat="43.95871" lon="2.34937">
        <ele>336</ele>
        <time>2021-04-18T13:45:33Z</time>
      </trkpt>
      <trkpt lat="43.9587" lon="2.34937">
        <ele>335</ele>
        <time>2021-04-18T13:45:34Z</time>
      </trkpt>
      <trkpt lat="43.95871" lon="2.34936">
        <ele>335</ele>
        <time>2021-04-18T13:45:35Z</time>
      </trkpt>
      <trkpt lat="43.95871" lon="2.34935">
        <ele>335</ele>
        <time>2021-04-18T13:45:36Z</time>
      </trkpt>
      <trkpt lat="43.95871" lon="2.34936">
        <ele>335</ele>
        <time>2021-04-18T13:45:37Z</time>
      </trkpt>
      <trkpt lat="43.95871" lon="2.34936">
        <ele>336</ele>
        <time>2021-04-18T13:45:38Z</time>
      </trkpt>
      <trkpt lat="43.95871" lon="2.34937">
        <ele>336</ele>
        <time>2021-04-18T13:45:39Z</time>
      </trkpt>
      <trkpt lat="43.95872" lon="2.34937">
        <ele>337</ele>
        <time>2021-04-18T13:45:40Z</time>
      </trkpt>
      <trkpt lat="43.95872" lon="2.34937">
        <ele>337</ele>
        <time>2021-04-18T13:45:41Z</time>
      </trkpt>
      <trkpt lat="43.95872" lon="2.34938">
        <ele>337</ele>
        <time>2021-04-18T13:45:42Z</time>
      </trkpt>
      <trkpt lat="43.95873" lon="2.34938">
        <ele>338</ele>
        <time>2021-04-18T13:45:43Z</time>
      </trkpt>
      <trkpt lat="43.95873" lon="2.34939">
        <ele>338</ele>
        <time>2021-04-18T13:45:44Z</time>
      </trkpt>
      <trkpt lat="43.95874" lon="2.34939">
        <ele>338</ele>
        <time>2021-04-18T13:45:45Z</time>
      </trkpt>
      <trkpt lat="43.95874" lon="2.34939">
        <ele>338</ele>
        <time>2021-04-18T13:45:46Z</time>
      </trkpt>
      <trkpt lat="43.95875" lon="2.34939">
        <ele>338</ele>
        <time>2021-04-18T13:45:47Z</time>
      </trkpt>
      <trkpt lat="43.95876" lon="2.34939">
        <ele>337</ele>
        <time>2021-04-18T13:45:48Z</time>
      </trkpt>
      <trkpt lat="43.95876" lon="2.34939">
        <ele>337</ele>
        <time>2021-04-18T13:45:49Z</time>
      </trkpt>
      <trkpt lat="43.95878" lon="2.34939">
        <ele>336</ele>
        <time>2021-04-18T13:45:50Z</time>
      </trkpt>
      <trkpt lat="43.95879" lon="2.34939">
        <ele>336</ele>
        <time>2021-04-18T13:45:51Z</time>
      </trkpt>
      <trkpt lat="43.9588" lon="2.34939">
        <ele>336</ele>
        <time>2021-04-18T13:45:52Z</time>
      </trkpt>
      <trkpt lat="43.9588" lon="2.34939">
        <ele>335</ele>
        <time>2021-04-18T13:45:53Z</time>
      </trkpt>
      <trkpt lat="43.95881" lon="2.34938">
        <ele>335</ele>
        <time>2021-04-18T13:45:54Z</time>
      </trkpt>
      <trkpt lat="43.95881" lon="2.34938">
        <ele>335</ele>
        <time>2021-04-18T13:45:55Z</time>
      </trkpt>
      <trkpt lat="43.95882" lon="2.34937">
        <ele>334</ele>
        <time>2021-04-18T13:45:56Z</time>
      </trkpt>
      <trkpt lat="43.95883" lon="2.34936">
        <ele>334</ele>
        <time>2021-04-18T13:45:57Z</time>
      </trkpt>
      <trkpt lat="43.95884" lon="2.34935">
        <ele>334</ele>
        <time>2021-04-18T13:45:58Z</time>
      </trkpt>
      <trkpt lat="43.95886" lon="2.34934">
        <ele>334</ele>
        <time>2021-04-18T13:45:59Z</time>
      </trkpt>
      <trkpt lat="43.95887" lon="2.34934">
        <ele>334</ele>
        <time>2021-04-18T13:46:00Z</time>
      </trkpt>
      <trkpt lat="43.95888" lon="2.34934">
        <ele>333</ele>
        <time>2021-04-18T13:46:01Z</time>
      </trkpt>
      <trkpt lat="43.95889" lon="2.34933">
        <ele>333</ele>
        <time>2021-04-18T13:46:02Z</time>
      </trkpt>
      <trkpt lat="43.95889" lon="2.34933">
        <ele>332</ele>
        <time>2021-04-18T13:46:03Z</time>
      </trkpt>
      <trkpt lat="43.9589" lon="2.34932">
        <ele>332</ele>
        <time>2021-04-18T13:46:04Z</time>
      </trkpt>
      <trkpt lat="43.9589" lon="2.34932">
        <ele>332</ele>
        <time>2021-04-18T13:46:05Z</time>
      </trkpt>
      <trkpt lat="43.95892" lon="2.34932">
        <ele>330</ele>
        <time>2021-04-18T13:46:06Z</time>
      </trkpt>
      <trkpt lat="43.95893" lon="2.34931">
        <ele>330</ele>
        <time>2021-04-18T13:46:07Z</time>
      </trkpt>
      <trkpt lat="43.95894" lon="2.34931">
        <ele>330</ele>
        <time>2021-04-18T13:46:08Z</time>
      </trkpt>
      <trkpt lat="43.95895" lon="2.34931">
        <ele>329</ele>
        <time>2021-04-18T13:46:09Z</time>
      </trkpt>
      <trkpt lat="43.95896" lon="2.34931">
        <ele>329</ele>
        <time>2021-04-18T13:46:10Z</time>
      </trkpt>
      <trkpt lat="43.95898" lon="2.3493">
        <ele>329</ele>
        <time>2021-04-18T13:46:11Z</time>
      </trkpt>
      <trkpt lat="43.95899" lon="2.3493">
        <ele>329</ele>
        <time>2021-04-18T13:46:12Z</time>
      </trkpt>
      <trkpt lat="43.959" lon="2.3493">
        <ele>330</ele>
        <time>2021-04-18T13:46:13Z</time>
      </trkpt>
      <trkpt lat="43.95902" lon="2.34929">
        <ele>330</ele>
        <time>2021-04-18T13:46:14Z</time>
      </trkpt>
      <trkpt lat="43.95903" lon="2.34929">
        <ele>330</ele>
        <time>2021-04-18T13:46:15Z</time>
      </trkpt>
      <trkpt lat="43.95905" lon="2.3493">
        <ele>329</ele>
        <time>2021-04-18T13:46:16Z</time>
      </trkpt>
      <trkpt lat="43.95906" lon="2.34931">
        <ele>329</ele>
        <time>2021-04-18T13:46:17Z</time>
      </trkpt>
      <trkpt lat="43.95906" lon="2.34931">
        <ele>329</ele>
        <time>2021-04-18T13:46:18Z</time>
      </trkpt>
      <trkpt lat="43.95907" lon="2.34931">
        <ele>330</ele>
        <time>2021-04-18T13:46:19Z</time>
      </trkpt>
      <trkpt lat="43.95908" lon="2.34931">
        <ele>330</ele>
        <time>2021-04-18T13:46:20Z</time>
      </trkpt>
      <trkpt lat="43.95909" lon="2.34932">
        <ele>330</ele>
        <time>2021-04-18T13:46:21Z</time>
      </trkpt>
      <trkpt lat="43.9591" lon="2.34933">
        <ele>330</ele>
        <time>2021-04-18T13:46:22Z</time>
      </trkpt>
      <trkpt lat="43.95911" lon="2.34933">
        <ele>330</ele>
        <time>2021-04-18T13:46:23Z</time>
      </trkpt>
      <trkpt lat="43.95911" lon="2.34933">
        <ele>329</ele>
        <time>2021-04-18T13:46:24Z</time>
      </trkpt>
      <trkpt lat="43.95912" lon="2.34933">
        <ele>328</ele>
        <time>2021-04-18T13:46:25Z</time>
      </trkpt>
      <trkpt lat="43.95912" lon="2.34933">
        <ele>328</ele>
        <time>2021-04-18T13:46:26Z</time>
      </trkpt>
      <trkpt lat="43.95913" lon="2.34933">
        <ele>328</ele>
        <time>2021-04-18T13:46:27Z</time>
      </trkpt>
      <trkpt lat="43.95913" lon="2.34933">
        <ele>327</ele>
        <time>2021-04-18T13:46:28Z</time>
      </trkpt>
      <trkpt lat="43.95913" lon="2.34934">
        <ele>327</ele>
        <time>2021-04-18T13:46:29Z</time>
      </trkpt>
      <trkpt lat="43.95914" lon="2.34936">
        <ele>326</ele>
        <time>2021-04-18T13:46:30Z</time>
      </trkpt>
      <trkpt lat="43.95914" lon="2.34938">
        <ele>326</ele>
        <time>2021-04-18T13:46:31Z</time>
      </trkpt>
      <trkpt lat="43.95915" lon="2.3494">
        <ele>325</ele>
        <time>2021-04-18T13:46:32Z</time>
      </trkpt>
      <trkpt lat="43.95916" lon="2.34942">
        <ele>325</ele>
        <time>2021-04-18T13:46:33Z</time>
      </trkpt>
      <trkpt lat="43.95917" lon="2.34943">
        <ele>325</ele>
        <time>2021-04-18T13:46:34Z</time>
      </trkpt>
      <trkpt lat="43.95918" lon="2.34945">
        <ele>325</ele>
        <time>2021-04-18T13:46:35Z</time>
      </trkpt>
      <trkpt lat="43.95919" lon="2.34946">
        <ele>326</ele>
        <time>2021-04-18T13:46:36Z</time>
      </trkpt>
      <trkpt lat="43.9592" lon="2.34948">
        <ele>325</ele>
        <time>2021-04-18T13:46:37Z</time>
      </trkpt>
      <trkpt lat="43.95921" lon="2.34949">
        <ele>325</ele>
        <time>2021-04-18T13:46:38Z</time>
      </trkpt>
      <trkpt lat="43.95922" lon="2.3495">
        <ele>324</ele>
        <time>2021-04-18T13:46:39Z</time>
      </trkpt>
      <trkpt lat="43.95923" lon="2.34952">
        <ele>324</ele>
        <time>2021-04-18T13:46:40Z</time>
      </trkpt>
      <trkpt lat="43.95924" lon="2.34953">
        <ele>324</ele>
        <time>2021-04-18T13:46:41Z</time>
      </trkpt>
      <trkpt lat="43.95924" lon="2.34954">
        <ele>324</ele>
        <time>2021-04-18T13:46:42Z</time>
      </trkpt>
      <trkpt lat="43.95925" lon="2.34956">
        <ele>324</ele>
        <time>2021-04-18T13:46:43Z</time>
      </trkpt>
      <trkpt lat="43.95926" lon="2.34957">
        <ele>325</ele>
        <time>2021-04-18T13:46:44Z</time>
      </trkpt>
      <trkpt lat="43.95927" lon="2.34959">
        <ele>325</ele>
        <time>2021-04-18T13:46:45Z</time>
      </trkpt>
      <trkpt lat="43.95927" lon="2.34961">
        <ele>325</ele>
        <time>2021-04-18T13:46:46Z</time>
      </trkpt>
      <trkpt lat="43.95928" lon="2.34963">
        <ele>325</ele>
        <time>2021-04-18T13:46:47Z</time>
      </trkpt>
      <trkpt lat="43.95929" lon="2.34964">
        <ele>325</ele>
        <time>2021-04-18T13:46:48Z</time>
      </trkpt>
      <trkpt lat="43.9593" lon="2.34965">
        <ele>325</ele>
        <time>2021-04-18T13:46:49Z</time>
      </trkpt>
      <trkpt lat="43.95931" lon="2.34966">
        <ele>325</ele>
        <time>2021-04-18T13:46:50Z</time>
      </trkpt>
      <trkpt lat="43.95932" lon="2.34966">
        <ele>325</ele>
        <time>2021-04-18T13:46:51Z</time>
      </trkpt>
      <trkpt lat="43.95934" lon="2.34966">
        <ele>325</ele>
        <time>2021-04-18T13:46:52Z</time>
      </trkpt>
      <trkpt lat="43.95935" lon="2.34964">
        <ele>325</ele>
        <time>2021-04-18T13:46:53Z</time>
      </trkpt>
      <trkpt lat="43.95937" lon="2.34961">
        <ele>325</ele>
        <time>2021-04-18T13:46:54Z</time>
      </trkpt>
      <trkpt lat="43.95937" lon="2.34959">
        <ele>325</ele>
        <time>2021-04-18T13:46:55Z</time>
      </trkpt>
      <trkpt lat="43.95939" lon="2.34957">
        <ele>325</ele>
        <time>2021-04-18T13:46:56Z</time>
      </trkpt>
      <trkpt lat="43.95939" lon="2.34955">
        <ele>325</ele>
        <time>2021-04-18T13:46:57Z</time>
      </trkpt>
      <trkpt lat="43.95939" lon="2.34953">
        <ele>325</ele>
        <time>2021-04-18T13:46:58Z</time>
      </trkpt>
      <trkpt lat="43.9594" lon="2.34951">
        <ele>324</ele>
        <time>2021-04-18T13:46:59Z</time>
      </trkpt>
      <trkpt lat="43.9594" lon="2.34949">
        <ele>325</ele>
        <time>2021-04-18T13:47:00Z</time>
      </trkpt>
      <trkpt lat="43.95941" lon="2.34946">
        <ele>324</ele>
        <time>2021-04-18T13:47:01Z</time>
      </trkpt>
      <trkpt lat="43.95942" lon="2.34944">
        <ele>324</ele>
        <time>2021-04-18T13:47:02Z</time>
      </trkpt>
      <trkpt lat="43.95942" lon="2.34942">
        <ele>324</ele>
        <time>2021-04-18T13:47:03Z</time>
      </trkpt>
      <trkpt lat="43.95942" lon="2.3494">
        <ele>324</ele>
        <time>2021-04-18T13:47:04Z</time>
      </trkpt>
      <trkpt lat="43.95943" lon="2.34938">
        <ele>323</ele>
        <time>2021-04-18T13:47:05Z</time>
      </trkpt>
      <trkpt lat="43.95944" lon="2.34937">
        <ele>323</ele>
        <time>2021-04-18T13:47:06Z</time>
      </trkpt>
      <trkpt lat="43.95944" lon="2.34935">
        <ele>323</ele>
        <time>2021-04-18T13:47:07Z</time>
      </trkpt>
      <trkpt lat="43.95945" lon="2.34933">
        <ele>322</ele>
        <time>2021-04-18T13:47:08Z</time>
      </trkpt>
      <trkpt lat="43.95945" lon="2.34931">
        <ele>322</ele>
        <time>2021-04-18T13:47:09Z</time>
      </trkpt>
      <trkpt lat="43.95944" lon="2.3493">
        <ele>322</ele>
        <time>2021-04-18T13:47:10Z</time>
      </trkpt>
      <trkpt lat="43.95944" lon="2.34929">
        <ele>322</ele>
        <time>2021-04-18T13:47:11Z</time>
      </trkpt>
      <trkpt lat="43.95944" lon="2.34928">
        <ele>323</ele>
        <time>2021-04-18T13:47:12Z</time>
      </trkpt>
      <trkpt lat="43.95944" lon="2.34926">
        <ele>323</ele>
        <time>2021-04-18T13:47:13Z</time>
      </trkpt>
      <trkpt lat="43.95944" lon="2.34925">
        <ele>324</ele>
        <time>2021-04-18T13:47:14Z</time>
      </trkpt>
      <trkpt lat="43.95944" lon="2.34924">
        <ele>323</ele>
        <time>2021-04-18T13:47:15Z</time>
      </trkpt>
      <trkpt lat="43.95945" lon="2.34922">
        <ele>323</ele>
        <time>2021-04-18T13:47:16Z</time>
      </trkpt>
      <trkpt lat="43.95945" lon="2.34921">
        <ele>323</ele>
        <time>2021-04-18T13:47:17Z</time>
      </trkpt>
      <trkpt lat="43.95946" lon="2.3492">
        <ele>323</ele>
        <time>2021-04-18T13:47:18Z</time>
      </trkpt>
      <trkpt lat="43.95947" lon="2.34918">
        <ele>323</ele>
        <time>2021-04-18T13:47:19Z</time>
      </trkpt>
      <trkpt lat="43.95948" lon="2.34917">
        <ele>323</ele>
        <time>2021-04-18T13:47:20Z</time>
      </trkpt>
      <trkpt lat="43.95948" lon="2.34916">
        <ele>323</ele>
        <time>2021-04-18T13:47:21Z</time>
      </trkpt>
      <trkpt lat="43.95949" lon="2.34915">
        <ele>323</ele>
        <time>2021-04-18T13:47:22Z</time>
      </trkpt>
      <trkpt lat="43.95949" lon="2.34914">
        <ele>322</ele>
        <time>2021-04-18T13:47:23Z</time>
      </trkpt>
      <trkpt lat="43.9595" lon="2.34913">
        <ele>323</ele>
        <time>2021-04-18T13:47:24Z</time>
      </trkpt>
      <trkpt lat="43.95951" lon="2.34912">
        <ele>322</ele>
        <time>2021-04-18T13:47:25Z</time>
      </trkpt>
      <trkpt lat="43.95952" lon="2.34911">
        <ele>323</ele>
        <time>2021-04-18T13:47:26Z</time>
      </trkpt>
      <trkpt lat="43.95952" lon="2.3491">
        <ele>324</ele>
        <time>2021-04-18T13:47:27Z</time>
      </trkpt>
      <trkpt lat="43.95953" lon="2.34909">
        <ele>324</ele>
        <time>2021-04-18T13:47:28Z</time>
      </trkpt>
      <trkpt lat="43.95953" lon="2.34908">
        <ele>323</ele>
        <time>2021-04-18T13:47:29Z</time>
      </trkpt>
      <trkpt lat="43.95954" lon="2.34907">
        <ele>323</ele>
        <time>2021-04-18T13:47:30Z</time>
      </trkpt>
      <trkpt lat="43.95955" lon="2.34905">
        <ele>322</ele>
        <time>2021-04-18T13:47:31Z</time>
      </trkpt>
      <trkpt lat="43.95956" lon="2.34904">
        <ele>322</ele>
        <time>2021-04-18T13:47:32Z</time>
      </trkpt>
      <trkpt lat="43.95956" lon="2.34903">
        <ele>321</ele>
        <time>2021-04-18T13:47:33Z</time>
      </trkpt>
      <trkpt lat="43.95957" lon="2.34902">
        <ele>320</ele>
        <time>2021-04-18T13:47:34Z</time>
      </trkpt>
      <trkpt lat="43.95958" lon="2.34901">
        <ele>320</ele>
        <time>2021-04-18T13:47:35Z</time>
      </trkpt>
      <trkpt lat="43.95959" lon="2.349">
        <ele>320</ele>
        <time>2021-04-18T13:47:36Z</time>
      </trkpt>
      <trkpt lat="43.9596" lon="2.34898">
        <ele>319</ele>
        <time>2021-04-18T13:47:37Z</time>
      </trkpt>
      <trkpt lat="43.95961" lon="2.34897">
        <ele>318</ele>
        <time>2021-04-18T13:47:38Z</time>
      </trkpt>
      <trkpt lat="43.95961" lon="2.34895">
        <ele>319</ele>
        <time>2021-04-18T13:47:39Z</time>
      </trkpt>
      <trkpt lat="43.95962" lon="2.34893">
        <ele>319</ele>
        <time>2021-04-18T13:47:40Z</time>
      </trkpt>
      <trkpt lat="43.95962" lon="2.34891">
        <ele>319</ele>
        <time>2021-04-18T13:47:41Z</time>
      </trkpt>
      <trkpt lat="43.95963" lon="2.34889">
        <ele>319</ele>
        <time>2021-04-18T13:47:42Z</time>
      </trkpt>
      <trkpt lat="43.95963" lon="2.34887">
        <ele>319</ele>
        <time>2021-04-18T13:47:43Z</time>
      </trkpt>
      <trkpt lat="43.95963" lon="2.34884">
        <ele>318</ele>
        <time>2021-04-18T13:47:44Z</time>
      </trkpt>
      <trkpt lat="43.95963" lon="2.34882">
        <ele>317</ele>
        <time>2021-04-18T13:47:45Z</time>
      </trkpt>
      <trkpt lat="43.95963" lon="2.3488">
        <ele>316</ele>
        <time>2021-04-18T13:47:46Z</time>
      </trkpt>
      <trkpt lat="43.95963" lon="2.34877">
        <ele>316</ele>
        <time>2021-04-18T13:47:47Z</time>
      </trkpt>
      <trkpt lat="43.95963" lon="2.34874">
        <ele>314</ele>
        <time>2021-04-18T13:47:48Z</time>
      </trkpt>
      <trkpt lat="43.95962" lon="2.34872">
        <ele>314</ele>
        <time>2021-04-18T13:47:49Z</time>
      </trkpt>
      <trkpt lat="43.95961" lon="2.34871">
        <ele>314</ele>
        <time>2021-04-18T13:47:50Z</time>
      </trkpt>
      <trkpt lat="43.9596" lon="2.3487">
        <ele>313</ele>
        <time>2021-04-18T13:47:51Z</time>
      </trkpt>
      <trkpt lat="43.95959" lon="2.34868">
        <ele>313</ele>
        <time>2021-04-18T13:47:52Z</time>
      </trkpt>
      <trkpt lat="43.95958" lon="2.34867">
        <ele>312</ele>
        <time>2021-04-18T13:47:53Z</time>
      </trkpt>
      <trkpt lat="43.95957" lon="2.34865">
        <ele>311</ele>
        <time>2021-04-18T13:47:54Z</time>
      </trkpt>
      <trkpt lat="43.95956" lon="2.34863">
        <ele>309</ele>
        <time>2021-04-18T13:47:55Z</time>
      </trkpt>
      <trkpt lat="43.95955" lon="2.34861">
        <ele>309</ele>
        <time>2021-04-18T13:47:56Z</time>
      </trkpt>
      <trkpt lat="43.95955" lon="2.34859">
        <ele>309</ele>
        <time>2021-04-18T13:47:57Z</time>
      </trkpt>
      <trkpt lat="43.95954" lon="2.34858">
        <ele>309</ele>
        <time>2021-04-18T13:47:58Z</time>
      </trkpt>
      <trkpt lat="43.95953" lon="2.34857">
        <ele>309</ele>
        <time>2021-04-18T13:47:59Z</time>
      </trkpt>
      <trkpt lat="43.95953" lon="2.34856">
        <ele>309</ele>
        <time>2021-04-18T13:48:00Z</time>
      </trkpt>
      <trkpt lat="43.95952" lon="2.34855">
        <ele>309</ele>
        <time>2021-04-18T13:48:01Z</time>
      </trkpt>
      <trkpt lat="43.95952" lon="2.34854">
        <ele>309</ele>
        <time>2021-04-18T13:48:02Z</time>
      </trkpt>
      <trkpt lat="43.95951" lon="2.34853">
        <ele>309</ele>
        <time>2021-04-18T13:48:03Z</time>
      </trkpt>
      <trkpt lat="43.9595" lon="2.34851">
        <ele>309</ele>
        <time>2021-04-18T13:48:04Z</time>
      </trkpt>
      <trkpt lat="43.9595" lon="2.3485">
        <ele>308</ele>
        <time>2021-04-18T13:48:05Z</time>
      </trkpt>
      <trkpt lat="43.95948" lon="2.34848">
        <ele>308</ele>
        <time>2021-04-18T13:48:06Z</time>
      </trkpt>
      <trkpt lat="43.95948" lon="2.34847">
        <ele>308</ele>
        <time>2021-04-18T13:48:07Z</time>
      </trkpt>
      <trkpt lat="43.95947" lon="2.34847">
        <ele>308</ele>
        <time>2021-04-18T13:48:08Z</time>
      </trkpt>
      <trkpt lat="43.95947" lon="2.34846">
        <ele>307</ele>
        <time>2021-04-18T13:48:09Z</time>
      </trkpt>
      <trkpt lat="43.95945" lon="2.34845">
        <ele>307</ele>
        <time>2021-04-18T13:48:10Z</time>
      </trkpt>
      <trkpt lat="43.95945" lon="2.34843">
        <ele>306</ele>
        <time>2021-04-18T13:48:11Z</time>
      </trkpt>
      <trkpt lat="43.95944" lon="2.34843">
        <ele>306</ele>
        <time>2021-04-18T13:48:12Z</time>
      </trkpt>
      <trkpt lat="43.95944" lon="2.34842">
        <ele>306</ele>
        <time>2021-04-18T13:48:13Z</time>
      </trkpt>
      <trkpt lat="43.95942" lon="2.34841">
        <ele>306</ele>
        <time>2021-04-18T13:48:14Z</time>
      </trkpt>
      <trkpt lat="43.95941" lon="2.3484">
        <ele>305</ele>
        <time>2021-04-18T13:48:15Z</time>
      </trkpt>
      <trkpt lat="43.9594" lon="2.34838">
        <ele>305</ele>
        <time>2021-04-18T13:48:16Z</time>
      </trkpt>
      <trkpt lat="43.9594" lon="2.34838">
        <ele>304</ele>
        <time>2021-04-18T13:48:17Z</time>
      </trkpt>
      <trkpt lat="43.9594" lon="2.34838">
        <ele>304</ele>
        <time>2021-04-18T13:48:18Z</time>
      </trkpt>
      <trkpt lat="43.9594" lon="2.34838">
        <ele>304</ele>
        <time>2021-04-18T13:48:19Z</time>
      </trkpt>
      <trkpt lat="43.9594" lon="2.34838">
        <ele>304</ele>
        <time>2021-04-18T13:48:19Z</time>
      </trkpt>
      <trkpt lat="43.9594" lon="2.34838">
        <ele>304</ele>
        <time>2021-04-18T13:48:19Z</time>
      </trkpt>
      <trkpt lat="43.95935" lon="2.34832">
        <ele>305</ele>
        <time>2021-04-18T13:49:27Z</time>
      </trkpt>
      <trkpt lat="43.95935" lon="2.34829">
        <ele>305</ele>
        <time>2021-04-18T13:49:29Z</time>
      </trkpt>
      <trkpt lat="43.95935" lon="2.34827">
        <ele>305</ele>
        <time>2021-04-18T13:49:30Z</time>
      </trkpt>
      <trkpt lat="43.95935" lon="2.34826">
        <ele>305</ele>
        <time>2021-04-18T13:49:31Z</time>
      </trkpt>
      <trkpt lat="43.95935" lon="2.34825">
        <ele>305</ele>
        <time>2021-04-18T13:49:32Z</time>
      </trkpt>
      <trkpt lat="43.95934" lon="2.34824">
        <ele>305</ele>
        <time>2021-04-18T13:49:33Z</time>
      </trkpt>
      <trkpt lat="43.95933" lon="2.34823">
        <ele>304</ele>
        <time>2021-04-18T13:49:34Z</time>
      </trkpt>
      <trkpt lat="43.95932" lon="2.34823">
        <ele>304</ele>
        <time>2021-04-18T13:49:35Z</time>
      </trkpt>
      <trkpt lat="43.95931" lon="2.34822">
        <ele>304</ele>
        <time>2021-04-18T13:49:36Z</time>
      </trkpt>
      <trkpt lat="43.9593" lon="2.34822">
        <ele>304</ele>
        <time>2021-04-18T13:49:37Z</time>
      </trkpt>
      <trkpt lat="43.95929" lon="2.34822">
        <ele>305</ele>
        <time>2021-04-18T13:49:38Z</time>
      </trkpt>
      <trkpt lat="43.95928" lon="2.34821">
        <ele>304</ele>
        <time>2021-04-18T13:49:39Z</time>
      </trkpt>
      <trkpt lat="43.95927" lon="2.34821">
        <ele>304</ele>
        <time>2021-04-18T13:49:40Z</time>
      </trkpt>
      <trkpt lat="43.95926" lon="2.3482">
        <ele>305</ele>
        <time>2021-04-18T13:49:41Z</time>
      </trkpt>
      <trkpt lat="43.95925" lon="2.3482">
        <ele>306</ele>
        <time>2021-04-18T13:49:42Z</time>
      </trkpt>
      <trkpt lat="43.95924" lon="2.3482">
        <ele>306</ele>
        <time>2021-04-18T13:49:43Z</time>
      </trkpt>
      <trkpt lat="43.95923" lon="2.3482">
        <ele>307</ele>
        <time>2021-04-18T13:49:44Z</time>
      </trkpt>
      <trkpt lat="43.95922" lon="2.34819">
        <ele>306</ele>
        <time>2021-04-18T13:49:45Z</time>
      </trkpt>
      <trkpt lat="43.9592" lon="2.34818">
        <ele>306</ele>
        <time>2021-04-18T13:49:46Z</time>
      </trkpt>
      <trkpt lat="43.95919" lon="2.34818">
        <ele>306</ele>
        <time>2021-04-18T13:49:47Z</time>
      </trkpt>
      <trkpt lat="43.95919" lon="2.34817">
        <ele>306</ele>
        <time>2021-04-18T13:49:48Z</time>
      </trkpt>
      <trkpt lat="43.95918" lon="2.34816">
        <ele>306</ele>
        <time>2021-04-18T13:49:49Z</time>
      </trkpt>
      <trkpt lat="43.95918" lon="2.34816">
        <ele>306</ele>
        <time>2021-04-18T13:49:50Z</time>
      </trkpt>
      <trkpt lat="43.95918" lon="2.34816">
        <ele>306</ele>
        <time>2021-04-18T13:49:51Z</time>
      </trkpt>
      <trkpt lat="43.95917" lon="2.34815">
        <ele>308</ele>
        <time>2021-04-18T13:49:52Z</time>
      </trkpt>
      <trkpt lat="43.95916" lon="2.34815">
        <ele>308</ele>
        <time>2021-04-18T13:49:53Z</time>
      </trkpt>
      <trkpt lat="43.95915" lon="2.34815">
        <ele>308</ele>
        <time>2021-04-18T13:49:54Z</time>
      </trkpt>
      <trkpt lat="43.95914" lon="2.34815">
        <ele>309</ele>
        <time>2021-04-18T13:49:55Z</time>
      </trkpt>
      <trkpt lat="43.95913" lon="2.34814">
        <ele>311</ele>
        <time>2021-04-18T13:49:56Z</time>
      </trkpt>
      <trkpt lat="43.95912" lon="2.34814">
        <ele>311</ele>
        <time>2021-04-18T13:49:57Z</time>
      </trkpt>
      <trkpt lat="43.95911" lon="2.34814">
        <ele>311</ele>
        <time>2021-04-18T13:49:58Z</time>
      </trkpt>
      <trkpt lat="43.9591" lon="2.34814">
        <ele>311</ele>
        <time>2021-04-18T13:49:59Z</time>
      </trkpt>
      <trkpt lat="43.95908" lon="2.34815">
        <ele>311</ele>
        <time>2021-04-18T13:50:00Z</time>
      </trkpt>
      <trkpt lat="43.95906" lon="2.34817">
        <ele>309</ele>
        <time>2021-04-18T13:50:01Z</time>
      </trkpt>
      <trkpt lat="43.95904" lon="2.34817">
        <ele>308</ele>
        <time>2021-04-18T13:50:02Z</time>
      </trkpt>
      <trkpt lat="43.95903" lon="2.34817">
        <ele>308</ele>
        <time>2021-04-18T13:50:03Z</time>
      </trkpt>
      <trkpt lat="43.95903" lon="2.34817">
        <ele>308</ele>
        <time>2021-04-18T13:50:03Z</time>
      </trkpt>
      <trkpt lat="43.95903" lon="2.34817">
        <ele>308</ele>
        <time>2021-04-18T13:50:03Z</time>
      </trkpt>
      <trkpt lat="43.95898" lon="2.34811">
        <ele>309</ele>
        <time>2021-04-18T13:50:10Z</time>
      </trkpt>
      <trkpt lat="43.95898" lon="2.34811">
        <ele>309</ele>
        <time>2021-04-18T13:50:11Z</time>
      </trkpt>
      <trkpt lat="43.95896" lon="2.34812">
        <ele>310</ele>
        <time>2021-04-18T13:50:12Z</time>
      </trkpt>
      <trkpt lat="43.95895" lon="2.34813">
        <ele>311</ele>
        <time>2021-04-18T13:50:13Z</time>
      </trkpt>
      <trkpt lat="43.95894" lon="2.34813">
        <ele>311</ele>
        <time>2021-04-18T13:50:14Z</time>
      </trkpt>
      <trkpt lat="43.95892" lon="2.34812">
        <ele>311</ele>
        <time>2021-04-18T13:50:15Z</time>
      </trkpt>
      <trkpt lat="43.9589" lon="2.34812">
        <ele>311</ele>
        <time>2021-04-18T13:50:16Z</time>
      </trkpt>
      <trkpt lat="43.9589" lon="2.34811">
        <ele>310</ele>
        <time>2021-04-18T13:50:17Z</time>
      </trkpt>
      <trkpt lat="43.95889" lon="2.34811">
        <ele>311</ele>
        <time>2021-04-18T13:50:18Z</time>
      </trkpt>
      <trkpt lat="43.9589" lon="2.3481">
        <ele>310</ele>
        <time>2021-04-18T13:50:19Z</time>
      </trkpt>
      <trkpt lat="43.9589" lon="2.34807">
        <ele>310</ele>
        <time>2021-04-18T13:50:20Z</time>
      </trkpt>
      <trkpt lat="43.9589" lon="2.34807">
        <ele>310</ele>
        <time>2021-04-18T13:50:21Z</time>
      </trkpt>
      <trkpt lat="43.9589" lon="2.34807">
        <ele>310</ele>
        <time>2021-04-18T13:50:21Z</time>
      </trkpt>
      <trkpt lat="43.9589" lon="2.34807">
        <ele>310</ele>
        <time>2021-04-18T13:50:21Z</time>
      </trkpt>
      <trkpt lat="43.95883" lon="2.34806">
        <ele>312</ele>
        <time>2021-04-18T13:50:29Z</time>
      </trkpt>
      <trkpt lat="43.95883" lon="2.34807">
        <ele>312</ele>
        <time>2021-04-18T13:50:30Z</time>
      </trkpt>
      <trkpt lat="43.95882" lon="2.34806">
        <ele>312</ele>
        <time>2021-04-18T13:50:31Z</time>
      </trkpt>
      <trkpt lat="43.95882" lon="2.34805">
        <ele>312</ele>
        <time>2021-04-18T13:50:32Z</time>
      </trkpt>
      <trkpt lat="43.95881" lon="2.34804">
        <ele>312</ele>
        <time>2021-04-18T13:50:33Z</time>
      </trkpt>
      <trkpt lat="43.95879" lon="2.34803">
        <ele>313</ele>
        <time>2021-04-18T13:50:34Z</time>
      </trkpt>
      <trkpt lat="43.95878" lon="2.34803">
        <ele>313</ele>
        <time>2021-04-18T13:50:35Z</time>
      </trkpt>
      <trkpt lat="43.95878" lon="2.34801">
        <ele>313</ele>
        <time>2021-04-18T13:50:36Z</time>
      </trkpt>
      <trkpt lat="43.95877" lon="2.34801">
        <ele>312</ele>
        <time>2021-04-18T13:50:37Z</time>
      </trkpt>
      <trkpt lat="43.95876" lon="2.348">
        <ele>313</ele>
        <time>2021-04-18T13:50:38Z</time>
      </trkpt>
      <trkpt lat="43.95876" lon="2.34799">
        <ele>313</ele>
        <time>2021-04-18T13:50:39Z</time>
      </trkpt>
      <trkpt lat="43.95875" lon="2.34798">
        <ele>313</ele>
        <time>2021-04-18T13:50:40Z</time>
      </trkpt>
      <trkpt lat="43.95875" lon="2.34797">
        <ele>313</ele>
        <time>2021-04-18T13:50:41Z</time>
      </trkpt>
      <trkpt lat="43.95874" lon="2.34796">
        <ele>313</ele>
        <time>2021-04-18T13:50:42Z</time>
      </trkpt>
      <trkpt lat="43.95874" lon="2.34795">
        <ele>313</ele>
        <time>2021-04-18T13:50:43Z</time>
      </trkpt>
      <trkpt lat="43.95874" lon="2.34794">
        <ele>313</ele>
        <time>2021-04-18T13:50:44Z</time>
      </trkpt>
      <trkpt lat="43.95874" lon="2.34793">
        <ele>315</ele>
        <time>2021-04-18T13:50:45Z</time>
      </trkpt>
      <trkpt lat="43.95874" lon="2.34792">
        <ele>315</ele>
        <time>2021-04-18T13:50:46Z</time>
      </trkpt>
      <trkpt lat="43.95874" lon="2.34791">
        <ele>314</ele>
        <time>2021-04-18T13:50:47Z</time>
      </trkpt>
      <trkpt lat="43.95873" lon="2.3479">
        <ele>315</ele>
        <time>2021-04-18T13:50:48Z</time>
      </trkpt>
      <trkpt lat="43.95873" lon="2.34788">
        <ele>315</ele>
        <time>2021-04-18T13:50:49Z</time>
      </trkpt>
      <trkpt lat="43.95873" lon="2.34787">
        <ele>315</ele>
        <time>2021-04-18T13:50:50Z</time>
      </trkpt>
      <trkpt lat="43.95873" lon="2.34785">
        <ele>314</ele>
        <time>2021-04-18T13:50:51Z</time>
      </trkpt>
      <trkpt lat="43.95872" lon="2.34783">
        <ele>314</ele>
        <time>2021-04-18T13:50:52Z</time>
      </trkpt>
      <trkpt lat="43.95872" lon="2.34782">
        <ele>315</ele>
        <time>2021-04-18T13:50:53Z</time>
      </trkpt>
      <trkpt lat="43.95872" lon="2.34781">
        <ele>316</ele>
        <time>2021-04-18T13:50:54Z</time>
      </trkpt>
      <trkpt lat="43.95872" lon="2.34779">
        <ele>316</ele>
        <time>2021-04-18T13:50:55Z</time>
      </trkpt>
      <trkpt lat="43.95872" lon="2.34778">
        <ele>317</ele>
        <time>2021-04-18T13:50:56Z</time>
      </trkpt>
      <trkpt lat="43.95872" lon="2.34776">
        <ele>317</ele>
        <time>2021-04-18T13:50:57Z</time>
      </trkpt>
      <trkpt lat="43.95872" lon="2.34775">
        <ele>317</ele>
        <time>2021-04-18T13:50:58Z</time>
      </trkpt>
      <trkpt lat="43.95872" lon="2.34774">
        <ele>317</ele>
        <time>2021-04-18T13:50:59Z</time>
      </trkpt>
      <trkpt lat="43.95872" lon="2.34772">
        <ele>317</ele>
        <time>2021-04-18T13:51:00Z</time>
      </trkpt>
      <trkpt lat="43.95872" lon="2.34771">
        <ele>317</ele>
        <time>2021-04-18T13:51:01Z</time>
      </trkpt>
      <trkpt lat="43.95872" lon="2.34771">
        <ele>317</ele>
        <time>2021-04-18T13:51:02Z</time>
      </trkpt>
      <trkpt lat="43.95872" lon="2.34769">
        <ele>318</ele>
        <time>2021-04-18T13:51:03Z</time>
      </trkpt>
      <trkpt lat="43.95873" lon="2.34767">
        <ele>319</ele>
        <time>2021-04-18T13:51:04Z</time>
      </trkpt>
      <trkpt lat="43.95873" lon="2.34765">
        <ele>319</ele>
        <time>2021-04-18T13:51:05Z</time>
      </trkpt>
      <trkpt lat="43.95874" lon="2.34764">
        <ele>319</ele>
        <time>2021-04-18T13:51:06Z</time>
      </trkpt>
      <trkpt lat="43.95875" lon="2.34763">
        <ele>319</ele>
        <time>2021-04-18T13:51:07Z</time>
      </trkpt>
      <trkpt lat="43.95875" lon="2.34761">
        <ele>320</ele>
        <time>2021-04-18T13:51:08Z</time>
      </trkpt>
      <trkpt lat="43.95876" lon="2.3476">
        <ele>321</ele>
        <time>2021-04-18T13:51:09Z</time>
      </trkpt>
      <trkpt lat="43.95876" lon="2.34759">
        <ele>322</ele>
        <time>2021-04-18T13:51:10Z</time>
      </trkpt>
      <trkpt lat="43.95876" lon="2.34758">
        <ele>323</ele>
        <time>2021-04-18T13:51:11Z</time>
      </trkpt>
      <trkpt lat="43.95876" lon="2.34758">
        <ele>322</ele>
        <time>2021-04-18T13:51:12Z</time>
      </trkpt>
      <trkpt lat="43.95877" lon="2.34757">
        <ele>322</ele>
        <time>2021-04-18T13:51:13Z</time>
      </trkpt>
      <trkpt lat="43.95877" lon="2.34756">
        <ele>322</ele>
        <time>2021-04-18T13:51:14Z</time>
      </trkpt>
      <trkpt lat="43.95878" lon="2.34755">
        <ele>323</ele>
        <time>2021-04-18T13:51:15Z</time>
      </trkpt>
      <trkpt lat="43.95878" lon="2.34754">
        <ele>323</ele>
        <time>2021-04-18T13:51:16Z</time>
      </trkpt>
      <trkpt lat="43.95879" lon="2.34753">
        <ele>324</ele>
        <time>2021-04-18T13:51:17Z</time>
      </trkpt>
      <trkpt lat="43.9588" lon="2.34752">
        <ele>324</ele>
        <time>2021-04-18T13:51:18Z</time>
      </trkpt>
      <trkpt lat="43.95881" lon="2.3475">
        <ele>324</ele>
        <time>2021-04-18T13:51:19Z</time>
      </trkpt>
      <trkpt lat="43.95881" lon="2.3475">
        <ele>325</ele>
        <time>2021-04-18T13:51:20Z</time>
      </trkpt>
      <trkpt lat="43.95881" lon="2.34749">
        <ele>325</ele>
        <time>2021-04-18T13:51:21Z</time>
      </trkpt>
      <trkpt lat="43.95881" lon="2.34748">
        <ele>325</ele>
        <time>2021-04-18T13:51:22Z</time>
      </trkpt>
      <trkpt lat="43.95882" lon="2.34746">
        <ele>324</ele>
        <time>2021-04-18T13:51:23Z</time>
      </trkpt>
      <trkpt lat="43.95883" lon="2.34745">
        <ele>324</ele>
        <time>2021-04-18T13:51:24Z</time>
      </trkpt>
      <trkpt lat="43.95884" lon="2.34744">
        <ele>324</ele>
        <time>2021-04-18T13:51:25Z</time>
      </trkpt>
      <trkpt lat="43.95884" lon="2.34744">
        <ele>324</ele>
        <time>2021-04-18T13:51:26Z</time>
      </trkpt>
      <trkpt lat="43.95885" lon="2.34743">
        <ele>324</ele>
        <time>2021-04-18T13:51:27Z</time>
      </trkpt>
      <trkpt lat="43.95886" lon="2.34743">
        <ele>325</ele>
        <time>2021-04-18T13:51:28Z</time>
      </trkpt>
      <trkpt lat="43.95886" lon="2.34742">
        <ele>326</ele>
        <time>2021-04-18T13:51:29Z</time>
      </trkpt>
      <trkpt lat="43.95886" lon="2.34742">
        <ele>326</ele>
        <time>2021-04-18T13:51:29Z</time>
      </trkpt>
      <trkpt lat="43.95886" lon="2.3474">
        <ele>326</ele>
        <time>2021-04-18T13:51:31Z</time>
      </trkpt>
      <trkpt lat="43.95887" lon="2.3474">
        <ele>326</ele>
        <time>2021-04-18T13:51:32Z</time>
      </trkpt>
      <trkpt lat="43.95887" lon="2.3474">
        <ele>326</ele>
        <time>2021-04-18T13:51:32Z</time>
      </trkpt>
      <trkpt lat="43.95888" lon="2.34737">
        <ele>325</ele>
        <time>2021-04-18T13:51:34Z</time>
      </trkpt>
      <trkpt lat="43.95888" lon="2.34736">
        <ele>325</ele>
        <time>2021-04-18T13:51:35Z</time>
      </trkpt>
      <trkpt lat="43.95888" lon="2.34735">
        <ele>325</ele>
        <time>2021-04-18T13:51:36Z</time>
      </trkpt>
      <trkpt lat="43.95889" lon="2.34735">
        <ele>325</ele>
        <time>2021-04-18T13:51:37Z</time>
      </trkpt>
      <trkpt lat="43.9589" lon="2.34735">
        <ele>325</ele>
        <time>2021-04-18T13:51:38Z</time>
      </trkpt>
      <trkpt lat="43.9589" lon="2.34735">
        <ele>326</ele>
        <time>2021-04-18T13:51:39Z</time>
      </trkpt>
      <trkpt lat="43.9589" lon="2.34734">
        <ele>326</ele>
        <time>2021-04-18T13:51:40Z</time>
      </trkpt>
      <trkpt lat="43.9589" lon="2.34734">
        <ele>326</ele>
        <time>2021-04-18T13:51:41Z</time>
      </trkpt>
      <trkpt lat="43.95891" lon="2.34734">
        <ele>326</ele>
        <time>2021-04-18T13:51:42Z</time>
      </trkpt>
      <trkpt lat="43.95892" lon="2.34734">
        <ele>326</ele>
        <time>2021-04-18T13:51:43Z</time>
      </trkpt>
      <trkpt lat="43.95892" lon="2.34733">
        <ele>326</ele>
        <time>2021-04-18T13:51:44Z</time>
      </trkpt>
      <trkpt lat="43.95893" lon="2.34732">
        <ele>327</ele>
        <time>2021-04-18T13:51:45Z</time>
      </trkpt>
      <trkpt lat="43.95894" lon="2.34731">
        <ele>326</ele>
        <time>2021-04-18T13:51:46Z</time>
      </trkpt>
      <trkpt lat="43.95895" lon="2.34731">
        <ele>326</ele>
        <time>2021-04-18T13:51:47Z</time>
      </trkpt>
      <trkpt lat="43.95895" lon="2.3473">
        <ele>326</ele>
        <time>2021-04-18T13:51:48Z</time>
      </trkpt>
      <trkpt lat="43.95897" lon="2.3473">
        <ele>326</ele>
        <time>2021-04-18T13:51:49Z</time>
      </trkpt>
      <trkpt lat="43.95898" lon="2.34729">
        <ele>325</ele>
        <time>2021-04-18T13:51:50Z</time>
      </trkpt>
      <trkpt lat="43.95899" lon="2.34729">
        <ele>325</ele>
        <time>2021-04-18T13:51:51Z</time>
      </trkpt>
      <trkpt lat="43.95899" lon="2.34728">
        <ele>326</ele>
        <time>2021-04-18T13:51:52Z</time>
      </trkpt>
      <trkpt lat="43.959" lon="2.34728">
        <ele>326</ele>
        <time>2021-04-18T13:51:53Z</time>
      </trkpt>
      <trkpt lat="43.95901" lon="2.34728">
        <ele>327</ele>
        <time>2021-04-18T13:51:54Z</time>
      </trkpt>
      <trkpt lat="43.95902" lon="2.34728">
        <ele>327</ele>
        <time>2021-04-18T13:51:55Z</time>
      </trkpt>
      <trkpt lat="43.95903" lon="2.34727">
        <ele>326</ele>
        <time>2021-04-18T13:51:56Z</time>
      </trkpt>
      <trkpt lat="43.95904" lon="2.34727">
        <ele>327</ele>
        <time>2021-04-18T13:51:57Z</time>
      </trkpt>
      <trkpt lat="43.95905" lon="2.34727">
        <ele>328</ele>
        <time>2021-04-18T13:51:58Z</time>
      </trkpt>
      <trkpt lat="43.95905" lon="2.34727">
        <ele>328</ele>
        <time>2021-04-18T13:51:59Z</time>
      </trkpt>
      <trkpt lat="43.95906" lon="2.34727">
        <ele>328</ele>
        <time>2021-04-18T13:52:00Z</time>
      </trkpt>
      <trkpt lat="43.95906" lon="2.34727">
        <ele>327</ele>
        <time>2021-04-18T13:52:01Z</time>
      </trkpt>
      <trkpt lat="43.95906" lon="2.34727">
        <ele>327</ele>
        <time>2021-04-18T13:52:02Z</time>
      </trkpt>
      <trkpt lat="43.95908" lon="2.34727">
        <ele>328</ele>
        <time>2021-04-18T13:52:03Z</time>
      </trkpt>
      <trkpt lat="43.9591" lon="2.34727">
        <ele>328</ele>
        <time>2021-04-18T13:52:04Z</time>
      </trkpt>
      <trkpt lat="43.95911" lon="2.34726">
        <ele>328</ele>
        <time>2021-04-18T13:52:05Z</time>
      </trkpt>
      <trkpt lat="43.95912" lon="2.34726">
        <ele>329</ele>
        <time>2021-04-18T13:52:06Z</time>
      </trkpt>
      <trkpt lat="43.95913" lon="2.34726">
        <ele>329</ele>
        <time>2021-04-18T13:52:07Z</time>
      </trkpt>
      <trkpt lat="43.95914" lon="2.34726">
        <ele>329</ele>
        <time>2021-04-18T13:52:08Z</time>
      </trkpt>
      <trkpt lat="43.95916" lon="2.34726">
        <ele>329</ele>
        <time>2021-04-18T13:52:09Z</time>
      </trkpt>
      <trkpt lat="43.95916" lon="2.34726">
        <ele>330</ele>
        <time>2021-04-18T13:52:10Z</time>
      </trkpt>
      <trkpt lat="43.95918" lon="2.34726">
        <ele>330</ele>
        <time>2021-04-18T13:52:11Z</time>
      </trkpt>
      <trkpt lat="43.95918" lon="2.34726">
        <ele>331</ele>
        <time>2021-04-18T13:52:12Z</time>
      </trkpt>
      <trkpt lat="43.95919" lon="2.34725">
        <ele>332</ele>
        <time>2021-04-18T13:52:13Z</time>
      </trkpt>
      <trkpt lat="43.9592" lon="2.34725">
        <ele>332</ele>
        <time>2021-04-18T13:52:14Z</time>
      </trkpt>
      <trkpt lat="43.95922" lon="2.34724">
        <ele>332</ele>
        <time>2021-04-18T13:52:15Z</time>
      </trkpt>
      <trkpt lat="43.95923" lon="2.34724">
        <ele>332</ele>
        <time>2021-04-18T13:52:16Z</time>
      </trkpt>
      <trkpt lat="43.95924" lon="2.34724">
        <ele>332</ele>
        <time>2021-04-18T13:52:17Z</time>
      </trkpt>
      <trkpt lat="43.95925" lon="2.34724">
        <ele>332</ele>
        <time>2021-04-18T13:52:18Z</time>
      </trkpt>
      <trkpt lat="43.95926" lon="2.34724">
        <ele>332</ele>
        <time>2021-04-18T13:52:19Z</time>
      </trkpt>
      <trkpt lat="43.95927" lon="2.34724">
        <ele>333</ele>
        <time>2021-04-18T13:52:20Z</time>
      </trkpt>
      <trkpt lat="43.95928" lon="2.34724">
        <ele>335</ele>
        <time>2021-04-18T13:52:21Z</time>
      </trkpt>
      <trkpt lat="43.95929" lon="2.34723">
        <ele>335</ele>
        <time>2021-04-18T13:52:22Z</time>
      </trkpt>
      <trkpt lat="43.95931" lon="2.34723">
        <ele>335</ele>
        <time>2021-04-18T13:52:23Z</time>
      </trkpt>
      <trkpt lat="43.95932" lon="2.34723">
        <ele>335</ele>
        <time>2021-04-18T13:52:24Z</time>
      </trkpt>
      <trkpt lat="43.95933" lon="2.34723">
        <ele>334</ele>
        <time>2021-04-18T13:52:25Z</time>
      </trkpt>
      <trkpt lat="43.95934" lon="2.34722">
        <ele>335</ele>
        <time>2021-04-18T13:52:26Z</time>
      </trkpt>
      <trkpt lat="43.95934" lon="2.34722">
        <ele>335</ele>
        <time>2021-04-18T13:52:27Z</time>
      </trkpt>
      <trkpt lat="43.95935" lon="2.34721">
        <ele>335</ele>
        <time>2021-04-18T13:52:28Z</time>
      </trkpt>
      <trkpt lat="43.95937" lon="2.34721">
        <ele>335</ele>
        <time>2021-04-18T13:52:29Z</time>
      </trkpt>
      <trkpt lat="43.95938" lon="2.34721">
        <ele>335</ele>
        <time>2021-04-18T13:52:30Z</time>
      </trkpt>
      <trkpt lat="43.9594" lon="2.34721">
        <ele>334</ele>
        <time>2021-04-18T13:52:31Z</time>
      </trkpt>
      <trkpt lat="43.95941" lon="2.34721">
        <ele>334</ele>
        <time>2021-04-18T13:52:32Z</time>
      </trkpt>
      <trkpt lat="43.95942" lon="2.34721">
        <ele>335</ele>
        <time>2021-04-18T13:52:33Z</time>
      </trkpt>
      <trkpt lat="43.95944" lon="2.34721">
        <ele>334</ele>
        <time>2021-04-18T13:52:34Z</time>
      </trkpt>
      <trkpt lat="43.95945" lon="2.3472">
        <ele>334</ele>
        <time>2021-04-18T13:52:35Z</time>
      </trkpt>
      <trkpt lat="43.95946" lon="2.3472">
        <ele>335</ele>
        <time>2021-04-18T13:52:36Z</time>
      </trkpt>
      <trkpt lat="43.95947" lon="2.34721">
        <ele>335</ele>
        <time>2021-04-18T13:52:37Z</time>
      </trkpt>
      <trkpt lat="43.95948" lon="2.34721">
        <ele>335</ele>
        <time>2021-04-18T13:52:38Z</time>
      </trkpt>
      <trkpt lat="43.95948" lon="2.34721">
        <ele>335</ele>
        <time>2021-04-18T13:52:39Z</time>
      </trkpt>
      <trkpt lat="43.95949" lon="2.34721">
        <ele>335</ele>
        <time>2021-04-18T13:52:40Z</time>
      </trkpt>
      <trkpt lat="43.95949" lon="2.34721">
        <ele>335</ele>
        <time>2021-04-18T13:52:41Z</time>
      </trkpt>
      <trkpt lat="43.9595" lon="2.3472">
        <ele>335</ele>
        <time>2021-04-18T13:52:42Z</time>
      </trkpt>
      <trkpt lat="43.95951" lon="2.3472">
        <ele>335</ele>
        <time>2021-04-18T13:52:43Z</time>
      </trkpt>
      <trkpt lat="43.95952" lon="2.34721">
        <ele>335</ele>
        <time>2021-04-18T13:52:44Z</time>
      </trkpt>
      <trkpt lat="43.95952" lon="2.34722">
        <ele>336</ele>
        <time>2021-04-18T13:52:45Z</time>
      </trkpt>
      <trkpt lat="43.95953" lon="2.34722">
        <ele>336</ele>
        <time>2021-04-18T13:52:46Z</time>
      </trkpt>
      <trkpt lat="43.95954" lon="2.34722">
        <ele>336</ele>
        <time>2021-04-18T13:52:47Z</time>
      </trkpt>
      <trkpt lat="43.95955" lon="2.34723">
        <ele>336</ele>
        <time>2021-04-18T13:52:48Z</time>
      </trkpt>
      <trkpt lat="43.95955" lon="2.34724">
        <ele>338</ele>
        <time>2021-04-18T13:52:49Z</time>
      </trkpt>
      <trkpt lat="43.95956" lon="2.34725">
        <ele>338</ele>
        <time>2021-04-18T13:52:50Z</time>
      </trkpt>
      <trkpt lat="43.95957" lon="2.34725">
        <ele>338</ele>
        <time>2021-04-18T13:52:51Z</time>
      </trkpt>
      <trkpt lat="43.95959" lon="2.34725">
        <ele>339</ele>
        <time>2021-04-18T13:52:52Z</time>
      </trkpt>
      <trkpt lat="43.9596" lon="2.34725">
        <ele>339</ele>
        <time>2021-04-18T13:52:53Z</time>
      </trkpt>
      <trkpt lat="43.9596" lon="2.34725">
        <ele>340</ele>
        <time>2021-04-18T13:52:54Z</time>
      </trkpt>
      <trkpt lat="43.95961" lon="2.34725">
        <ele>340</ele>
        <time>2021-04-18T13:52:55Z</time>
      </trkpt>
      <trkpt lat="43.95963" lon="2.34724">
        <ele>340</ele>
        <time>2021-04-18T13:52:56Z</time>
      </trkpt>
      <trkpt lat="43.95963" lon="2.34724">
        <ele>339</ele>
        <time>2021-04-18T13:52:57Z</time>
      </trkpt>
      <trkpt lat="43.95964" lon="2.34724">
        <ele>340</ele>
        <time>2021-04-18T13:52:58Z</time>
      </trkpt>
      <trkpt lat="43.95966" lon="2.34723">
        <ele>340</ele>
        <time>2021-04-18T13:52:59Z</time>
      </trkpt>
      <trkpt lat="43.95968" lon="2.34723">
        <ele>340</ele>
        <time>2021-04-18T13:53:00Z</time>
      </trkpt>
      <trkpt lat="43.95969" lon="2.34723">
        <ele>340</ele>
        <time>2021-04-18T13:53:01Z</time>
      </trkpt>
      <trkpt lat="43.95969" lon="2.34723">
        <ele>339</ele>
        <time>2021-04-18T13:53:02Z</time>
      </trkpt>
      <trkpt lat="43.9597" lon="2.34722">
        <ele>339</ele>
        <time>2021-04-18T13:53:03Z</time>
      </trkpt>
      <trkpt lat="43.9597" lon="2.34722">
        <ele>339</ele>
        <time>2021-04-18T13:53:04Z</time>
      </trkpt>
      <trkpt lat="43.9597" lon="2.34722">
        <ele>339</ele>
        <time>2021-04-18T13:53:05Z</time>
      </trkpt>
      <trkpt lat="43.95973" lon="2.3472">
        <ele>338</ele>
        <time>2021-04-18T13:53:06Z</time>
      </trkpt>
      <trkpt lat="43.95974" lon="2.34719">
        <ele>338</ele>
        <time>2021-04-18T13:53:07Z</time>
      </trkpt>
      <trkpt lat="43.95974" lon="2.34719">
        <ele>337</ele>
        <time>2021-04-18T13:53:08Z</time>
      </trkpt>
      <trkpt lat="43.95976" lon="2.34719">
        <ele>337</ele>
        <time>2021-04-18T13:53:09Z</time>
      </trkpt>
      <trkpt lat="43.95977" lon="2.34718">
        <ele>337</ele>
        <time>2021-04-18T13:53:10Z</time>
      </trkpt>
      <trkpt lat="43.95977" lon="2.34717">
        <ele>337</ele>
        <time>2021-04-18T13:53:11Z</time>
      </trkpt>
      <trkpt lat="43.95979" lon="2.34717">
        <ele>336</ele>
        <time>2021-04-18T13:53:12Z</time>
      </trkpt>
      <trkpt lat="43.9598" lon="2.34717">
        <ele>336</ele>
        <time>2021-04-18T13:53:13Z</time>
      </trkpt>
      <trkpt lat="43.95981" lon="2.34716">
        <ele>337</ele>
        <time>2021-04-18T13:53:14Z</time>
      </trkpt>
      <trkpt lat="43.95982" lon="2.34715">
        <ele>337</ele>
        <time>2021-04-18T13:53:15Z</time>
      </trkpt>
      <trkpt lat="43.95983" lon="2.34715">
        <ele>337</ele>
        <time>2021-04-18T13:53:16Z</time>
      </trkpt>
      <trkpt lat="43.95984" lon="2.34715">
        <ele>338</ele>
        <time>2021-04-18T13:53:17Z</time>
      </trkpt>
      <trkpt lat="43.95985" lon="2.34715">
        <ele>339</ele>
        <time>2021-04-18T13:53:18Z</time>
      </trkpt>
      <trkpt lat="43.95986" lon="2.34714">
        <ele>339</ele>
        <time>2021-04-18T13:53:19Z</time>
      </trkpt>
      <trkpt lat="43.95987" lon="2.34713">
        <ele>339</ele>
        <time>2021-04-18T13:53:20Z</time>
      </trkpt>
      <trkpt lat="43.95988" lon="2.34713">
        <ele>339</ele>
        <time>2021-04-18T13:53:21Z</time>
      </trkpt>
      <trkpt lat="43.95989" lon="2.34712">
        <ele>340</ele>
        <time>2021-04-18T13:53:22Z</time>
      </trkpt>
      <trkpt lat="43.9599" lon="2.34711">
        <ele>340</ele>
        <time>2021-04-18T13:53:23Z</time>
      </trkpt>
      <trkpt lat="43.95991" lon="2.34711">
        <ele>340</ele>
        <time>2021-04-18T13:53:24Z</time>
      </trkpt>
      <trkpt lat="43.95992" lon="2.34711">
        <ele>341</ele>
        <time>2021-04-18T13:53:25Z</time>
      </trkpt>
      <trkpt lat="43.95993" lon="2.34711">
        <ele>341</ele>
        <time>2021-04-18T13:53:26Z</time>
      </trkpt>
      <trkpt lat="43.95993" lon="2.3471">
        <ele>342</ele>
        <time>2021-04-18T13:53:27Z</time>
      </trkpt>
      <trkpt lat="43.95995" lon="2.3471">
        <ele>342</ele>
        <time>2021-04-18T13:53:28Z</time>
      </trkpt>
      <trkpt lat="43.95996" lon="2.34709">
        <ele>342</ele>
        <time>2021-04-18T13:53:29Z</time>
      </trkpt>
      <trkpt lat="43.95997" lon="2.34709">
        <ele>342</ele>
        <time>2021-04-18T13:53:30Z</time>
      </trkpt>
      <trkpt lat="43.95998" lon="2.34708">
        <ele>343</ele>
        <time>2021-04-18T13:53:31Z</time>
      </trkpt>
      <trkpt lat="43.95999" lon="2.34708">
        <ele>343</ele>
        <time>2021-04-18T13:53:32Z</time>
      </trkpt>
      <trkpt lat="43.96" lon="2.34707">
        <ele>343</ele>
        <time>2021-04-18T13:53:33Z</time>
      </trkpt>
      <trkpt lat="43.96001" lon="2.34706">
        <ele>343</ele>
        <time>2021-04-18T13:53:34Z</time>
      </trkpt>
      <trkpt lat="43.96002" lon="2.34705">
        <ele>344</ele>
        <time>2021-04-18T13:53:35Z</time>
      </trkpt>
      <trkpt lat="43.96002" lon="2.34705">
        <ele>344</ele>
        <time>2021-04-18T13:53:36Z</time>
      </trkpt>
      <trkpt lat="43.96002" lon="2.34705">
        <ele>344</ele>
        <time>2021-04-18T13:53:37Z</time>
      </trkpt>
      <trkpt lat="43.96006" lon="2.34703">
        <ele>344</ele>
        <time>2021-04-18T13:53:38Z</time>
      </trkpt>
      <trkpt lat="43.96006" lon="2.34703">
        <ele>344</ele>
        <time>2021-04-18T13:53:39Z</time>
      </trkpt>
      <trkpt lat="43.96007" lon="2.34702">
        <ele>344</ele>
        <time>2021-04-18T13:53:40Z</time>
      </trkpt>
      <trkpt lat="43.96008" lon="2.34702">
        <ele>344</ele>
        <time>2021-04-18T13:53:41Z</time>
      </trkpt>
      <trkpt lat="43.96008" lon="2.34702">
        <ele>344</ele>
        <time>2021-04-18T13:53:42Z</time>
      </trkpt>
      <trkpt lat="43.96008" lon="2.34702">
        <ele>344</ele>
        <time>2021-04-18T13:53:42Z</time>
      </trkpt>
      <trkpt lat="43.96008" lon="2.34702">
        <ele>344</ele>
        <time>2021-04-18T13:53:42Z</time>
      </trkpt>
      <trkpt lat="43.9601" lon="2.34696">
        <ele>344</ele>
        <time>2021-04-18T13:53:49Z</time>
      </trkpt>
      <trkpt lat="43.96011" lon="2.34695">
        <ele>344</ele>
        <time>2021-04-18T13:53:50Z</time>
      </trkpt>
      <trkpt lat="43.96011" lon="2.34694">
        <ele>344</ele>
        <time>2021-04-18T13:53:51Z</time>
      </trkpt>
      <trkpt lat="43.96012" lon="2.34693">
        <ele>344</ele>
        <time>2021-04-18T13:53:52Z</time>
      </trkpt>
      <trkpt lat="43.96012" lon="2.34692">
        <ele>344</ele>
        <time>2021-04-18T13:53:53Z</time>
      </trkpt>
      <trkpt lat="43.96013" lon="2.3469">
        <ele>344</ele>
        <time>2021-04-18T13:53:54Z</time>
      </trkpt>
      <trkpt lat="43.96014" lon="2.34689">
        <ele>344</ele>
        <time>2021-04-18T13:53:55Z</time>
      </trkpt>
      <trkpt lat="43.96014" lon="2.34688">
        <ele>345</ele>
        <time>2021-04-18T13:53:56Z</time>
      </trkpt>
      <trkpt lat="43.96015" lon="2.34688">
        <ele>346</ele>
        <time>2021-04-18T13:53:57Z</time>
      </trkpt>
      <trkpt lat="43.96016" lon="2.34687">
        <ele>347</ele>
        <time>2021-04-18T13:53:58Z</time>
      </trkpt>
      <trkpt lat="43.96017" lon="2.34686">
        <ele>347</ele>
        <time>2021-04-18T13:53:59Z</time>
      </trkpt>
      <trkpt lat="43.96018" lon="2.34685">
        <ele>348</ele>
        <time>2021-04-18T13:54:00Z</time>
      </trkpt>
      <trkpt lat="43.96018" lon="2.34685">
        <ele>348</ele>
        <time>2021-04-18T13:54:01Z</time>
      </trkpt>
      <trkpt lat="43.96018" lon="2.34685">
        <ele>348</ele>
        <time>2021-04-18T13:54:02Z</time>
      </trkpt>
      <trkpt lat="43.96019" lon="2.34681">
        <ele>349</ele>
        <time>2021-04-18T13:54:03Z</time>
      </trkpt>
      <trkpt lat="43.96019" lon="2.3468">
        <ele>349</ele>
        <time>2021-04-18T13:54:04Z</time>
      </trkpt>
      <trkpt lat="43.9602" lon="2.34678">
        <ele>350</ele>
        <time>2021-04-18T13:54:05Z</time>
      </trkpt>
      <trkpt lat="43.96021" lon="2.34677">
        <ele>350</ele>
        <time>2021-04-18T13:54:06Z</time>
      </trkpt>
      <trkpt lat="43.96022" lon="2.34677">
        <ele>351</ele>
        <time>2021-04-18T13:54:07Z</time>
      </trkpt>
      <trkpt lat="43.96022" lon="2.34676">
        <ele>351</ele>
        <time>2021-04-18T13:54:08Z</time>
      </trkpt>
      <trkpt lat="43.96022" lon="2.34675">
        <ele>351</ele>
        <time>2021-04-18T13:54:09Z</time>
      </trkpt>
      <trkpt lat="43.96023" lon="2.34674">
        <ele>351</ele>
        <time>2021-04-18T13:54:10Z</time>
      </trkpt>
      <trkpt lat="43.96023" lon="2.34674">
        <ele>351</ele>
        <time>2021-04-18T13:54:11Z</time>
      </trkpt>
      <trkpt lat="43.96023" lon="2.34673">
        <ele>350</ele>
        <time>2021-04-18T13:54:12Z</time>
      </trkpt>
      <trkpt lat="43.96022" lon="2.34673">
        <ele>348</ele>
        <time>2021-04-18T13:54:13Z</time>
      </trkpt>
      <trkpt lat="43.96022" lon="2.34673">
        <ele>349</ele>
        <time>2021-04-18T13:54:14Z</time>
      </trkpt>
      <trkpt lat="43.96022" lon="2.34674">
        <ele>349</ele>
        <time>2021-04-18T13:54:15Z</time>
      </trkpt>
      <trkpt lat="43.96022" lon="2.34675">
        <ele>349</ele>
        <time>2021-04-18T13:54:16Z</time>
      </trkpt>
      <trkpt lat="43.96023" lon="2.34675">
        <ele>350</ele>
        <time>2021-04-18T13:54:17Z</time>
      </trkpt>
      <trkpt lat="43.96023" lon="2.34674">
        <ele>349</ele>
        <time>2021-04-18T13:54:18Z</time>
      </trkpt>
      <trkpt lat="43.96023" lon="2.34673">
        <ele>348</ele>
        <time>2021-04-18T13:54:19Z</time>
      </trkpt>
      <trkpt lat="43.96024" lon="2.34673">
        <ele>348</ele>
        <time>2021-04-18T13:54:20Z</time>
      </trkpt>
      <trkpt lat="43.96024" lon="2.34673">
        <ele>348</ele>
        <time>2021-04-18T13:54:21Z</time>
      </trkpt>
      <trkpt lat="43.96023" lon="2.34674">
        <ele>348</ele>
        <time>2021-04-18T13:54:22Z</time>
      </trkpt>
      <trkpt lat="43.96022" lon="2.34675">
        <ele>348</ele>
        <time>2021-04-18T13:54:23Z</time>
      </trkpt>
      <trkpt lat="43.96022" lon="2.34676">
        <ele>348</ele>
        <time>2021-04-18T13:54:24Z</time>
      </trkpt>
      <trkpt lat="43.96021" lon="2.34677">
        <ele>349</ele>
        <time>2021-04-18T13:54:25Z</time>
      </trkpt>
      <trkpt lat="43.96021" lon="2.34678">
        <ele>349</ele>
        <time>2021-04-18T13:54:26Z</time>
      </trkpt>
      <trkpt lat="43.9602" lon="2.34679">
        <ele>349</ele>
        <time>2021-04-18T13:54:27Z</time>
      </trkpt>
      <trkpt lat="43.96021" lon="2.34681">
        <ele>349</ele>
        <time>2021-04-18T13:54:28Z</time>
      </trkpt>
      <trkpt lat="43.9602" lon="2.34682">
        <ele>348</ele>
        <time>2021-04-18T13:54:29Z</time>
      </trkpt>
      <trkpt lat="43.9602" lon="2.34683">
        <ele>348</ele>
        <time>2021-04-18T13:54:30Z</time>
      </trkpt>
      <trkpt lat="43.9602" lon="2.34684">
        <ele>348</ele>
        <time>2021-04-18T13:54:31Z</time>
      </trkpt>
      <trkpt lat="43.9602" lon="2.34686">
        <ele>348</ele>
        <time>2021-04-18T13:54:32Z</time>
      </trkpt>
      <trkpt lat="43.9602" lon="2.34687">
        <ele>348</ele>
        <time>2021-04-18T13:54:33Z</time>
      </trkpt>
      <trkpt lat="43.9602" lon="2.34689">
        <ele>348</ele>
        <time>2021-04-18T13:54:34Z</time>
      </trkpt>
      <trkpt lat="43.9602" lon="2.3469">
        <ele>349</ele>
        <time>2021-04-18T13:54:35Z</time>
      </trkpt>
      <trkpt lat="43.9602" lon="2.34691">
        <ele>348</ele>
        <time>2021-04-18T13:54:36Z</time>
      </trkpt>
      <trkpt lat="43.9602" lon="2.34693">
        <ele>349</ele>
        <time>2021-04-18T13:54:37Z</time>
      </trkpt>
      <trkpt lat="43.9602" lon="2.34695">
        <ele>349</ele>
        <time>2021-04-18T13:54:38Z</time>
      </trkpt>
      <trkpt lat="43.9602" lon="2.34696">
        <ele>350</ele>
        <time>2021-04-18T13:54:39Z</time>
      </trkpt>
      <trkpt lat="43.9602" lon="2.34696">
        <ele>350</ele>
        <time>2021-04-18T13:54:40Z</time>
      </trkpt>
      <trkpt lat="43.9602" lon="2.34696">
        <ele>350</ele>
        <time>2021-04-18T13:54:41Z</time>
      </trkpt>
      <trkpt lat="43.9602" lon="2.34699">
        <ele>351</ele>
        <time>2021-04-18T13:54:42Z</time>
      </trkpt>
      <trkpt lat="43.9602" lon="2.347">
        <ele>351</ele>
        <time>2021-04-18T13:54:43Z</time>
      </trkpt>
      <trkpt lat="43.96021" lon="2.34702">
        <ele>351</ele>
        <time>2021-04-18T13:54:44Z</time>
      </trkpt>
      <trkpt lat="43.96021" lon="2.34703">
        <ele>351</ele>
        <time>2021-04-18T13:54:45Z</time>
      </trkpt>
      <trkpt lat="43.96021" lon="2.34705">
        <ele>351</ele>
        <time>2021-04-18T13:54:46Z</time>
      </trkpt>
      <trkpt lat="43.96021" lon="2.34707">
        <ele>351</ele>
        <time>2021-04-18T13:54:47Z</time>
      </trkpt>
      <trkpt lat="43.96021" lon="2.34708">
        <ele>351</ele>
        <time>2021-04-18T13:54:48Z</time>
      </trkpt>
      <trkpt lat="43.96021" lon="2.3471">
        <ele>350</ele>
        <time>2021-04-18T13:54:49Z</time>
      </trkpt>
      <trkpt lat="43.96022" lon="2.34712">
        <ele>350</ele>
        <time>2021-04-18T13:54:50Z</time>
      </trkpt>
      <trkpt lat="43.96022" lon="2.34714">
        <ele>351</ele>
        <time>2021-04-18T13:54:51Z</time>
      </trkpt>
      <trkpt lat="43.96022" lon="2.34715">
        <ele>351</ele>
        <time>2021-04-18T13:54:52Z</time>
      </trkpt>
      <trkpt lat="43.96023" lon="2.34717">
        <ele>351</ele>
        <time>2021-04-18T13:54:53Z</time>
      </trkpt>
      <trkpt lat="43.96023" lon="2.34718">
        <ele>352</ele>
        <time>2021-04-18T13:54:54Z</time>
      </trkpt>
      <trkpt lat="43.96023" lon="2.3472">
        <ele>352</ele>
        <time>2021-04-18T13:54:55Z</time>
      </trkpt>
      <trkpt lat="43.96024" lon="2.34721">
        <ele>353</ele>
        <time>2021-04-18T13:54:56Z</time>
      </trkpt>
      <trkpt lat="43.96026" lon="2.34723">
        <ele>353</ele>
        <time>2021-04-18T13:54:57Z</time>
      </trkpt>
      <trkpt lat="43.96026" lon="2.34724">
        <ele>353</ele>
        <time>2021-04-18T13:54:58Z</time>
      </trkpt>
      <trkpt lat="43.96027" lon="2.34726">
        <ele>353</ele>
        <time>2021-04-18T13:54:59Z</time>
      </trkpt>
      <trkpt lat="43.96028" lon="2.34727">
        <ele>353</ele>
        <time>2021-04-18T13:55:00Z</time>
      </trkpt>
      <trkpt lat="43.96029" lon="2.34728">
        <ele>354</ele>
        <time>2021-04-18T13:55:01Z</time>
      </trkpt>
      <trkpt lat="43.96031" lon="2.34728">
        <ele>354</ele>
        <time>2021-04-18T13:55:02Z</time>
      </trkpt>
      <trkpt lat="43.96032" lon="2.34728">
        <ele>354</ele>
        <time>2021-04-18T13:55:03Z</time>
      </trkpt>
      <trkpt lat="43.96034" lon="2.34727">
        <ele>354</ele>
        <time>2021-04-18T13:55:04Z</time>
      </trkpt>
      <trkpt lat="43.96035" lon="2.34726">
        <ele>354</ele>
        <time>2021-04-18T13:55:05Z</time>
      </trkpt>
      <trkpt lat="43.96036" lon="2.34726">
        <ele>354</ele>
        <time>2021-04-18T13:55:06Z</time>
      </trkpt>
      <trkpt lat="43.96037" lon="2.34725">
        <ele>354</ele>
        <time>2021-04-18T13:55:07Z</time>
      </trkpt>
      <trkpt lat="43.96037" lon="2.34724">
        <ele>355</ele>
        <time>2021-04-18T13:55:08Z</time>
      </trkpt>
      <trkpt lat="43.96037" lon="2.34723">
        <ele>355</ele>
        <time>2021-04-18T13:55:09Z</time>
      </trkpt>
      <trkpt lat="43.96037" lon="2.34722">
        <ele>356</ele>
        <time>2021-04-18T13:55:10Z</time>
      </trkpt>
      <trkpt lat="43.96037" lon="2.34721">
        <ele>357</ele>
        <time>2021-04-18T13:55:11Z</time>
      </trkpt>
      <trkpt lat="43.96037" lon="2.34719">
        <ele>358</ele>
        <time>2021-04-18T13:55:12Z</time>
      </trkpt>
      <trkpt lat="43.96038" lon="2.34717">
        <ele>358</ele>
        <time>2021-04-18T13:55:13Z</time>
      </trkpt>
      <trkpt lat="43.96038" lon="2.34716">
        <ele>358</ele>
        <time>2021-04-18T13:55:14Z</time>
      </trkpt>
      <trkpt lat="43.96039" lon="2.34714">
        <ele>358</ele>
        <time>2021-04-18T13:55:15Z</time>
      </trkpt>
      <trkpt lat="43.96039" lon="2.34713">
        <ele>358</ele>
        <time>2021-04-18T13:55:16Z</time>
      </trkpt>
      <trkpt lat="43.9604" lon="2.34712">
        <ele>358</ele>
        <time>2021-04-18T13:55:17Z</time>
      </trkpt>
      <trkpt lat="43.9604" lon="2.34711">
        <ele>359</ele>
        <time>2021-04-18T13:55:18Z</time>
      </trkpt>
      <trkpt lat="43.96041" lon="2.3471">
        <ele>359</ele>
        <time>2021-04-18T13:55:19Z</time>
      </trkpt>
      <trkpt lat="43.96042" lon="2.34708">
        <ele>359</ele>
        <time>2021-04-18T13:55:20Z</time>
      </trkpt>
      <trkpt lat="43.96043" lon="2.34707">
        <ele>359</ele>
        <time>2021-04-18T13:55:21Z</time>
      </trkpt>
      <trkpt lat="43.96043" lon="2.34706">
        <ele>359</ele>
        <time>2021-04-18T13:55:22Z</time>
      </trkpt>
      <trkpt lat="43.96044" lon="2.34705">
        <ele>360</ele>
        <time>2021-04-18T13:55:23Z</time>
      </trkpt>
      <trkpt lat="43.96044" lon="2.34704">
        <ele>360</ele>
        <time>2021-04-18T13:55:24Z</time>
      </trkpt>
      <trkpt lat="43.96044" lon="2.34702">
        <ele>360</ele>
        <time>2021-04-18T13:55:25Z</time>
      </trkpt>
      <trkpt lat="43.96045" lon="2.34702">
        <ele>361</ele>
        <time>2021-04-18T13:55:26Z</time>
      </trkpt>
      <trkpt lat="43.96046" lon="2.347">
        <ele>362</ele>
        <time>2021-04-18T13:55:27Z</time>
      </trkpt>
      <trkpt lat="43.96046" lon="2.34699">
        <ele>362</ele>
        <time>2021-04-18T13:55:28Z</time>
      </trkpt>
      <trkpt lat="43.96047" lon="2.34698">
        <ele>362</ele>
        <time>2021-04-18T13:55:29Z</time>
      </trkpt>
      <trkpt lat="43.96048" lon="2.34696">
        <ele>362</ele>
        <time>2021-04-18T13:55:30Z</time>
      </trkpt>
      <trkpt lat="43.96048" lon="2.34695">
        <ele>363</ele>
        <time>2021-04-18T13:55:31Z</time>
      </trkpt>
      <trkpt lat="43.96048" lon="2.34694">
        <ele>364</ele>
        <time>2021-04-18T13:55:32Z</time>
      </trkpt>
      <trkpt lat="43.96049" lon="2.34692">
        <ele>364</ele>
        <time>2021-04-18T13:55:33Z</time>
      </trkpt>
      <trkpt lat="43.9605" lon="2.34691">
        <ele>365</ele>
        <time>2021-04-18T13:55:34Z</time>
      </trkpt>
      <trkpt lat="43.9605" lon="2.3469">
        <ele>365</ele>
        <time>2021-04-18T13:55:35Z</time>
      </trkpt>
      <trkpt lat="43.9605" lon="2.34689">
        <ele>365</ele>
        <time>2021-04-18T13:55:36Z</time>
      </trkpt>
      <trkpt lat="43.9605" lon="2.34688">
        <ele>366</ele>
        <time>2021-04-18T13:55:37Z</time>
      </trkpt>
      <trkpt lat="43.9605" lon="2.34687">
        <ele>366</ele>
        <time>2021-04-18T13:55:38Z</time>
      </trkpt>
      <trkpt lat="43.9605" lon="2.34686">
        <ele>365</ele>
        <time>2021-04-18T13:55:39Z</time>
      </trkpt>
      <trkpt lat="43.9605" lon="2.34685">
        <ele>365</ele>
        <time>2021-04-18T13:55:40Z</time>
      </trkpt>
      <trkpt lat="43.96051" lon="2.34683">
        <ele>366</ele>
        <time>2021-04-18T13:55:41Z</time>
      </trkpt>
      <trkpt lat="43.96051" lon="2.34682">
        <ele>367</ele>
        <time>2021-04-18T13:55:42Z</time>
      </trkpt>
      <trkpt lat="43.96052" lon="2.34681">
        <ele>367</ele>
        <time>2021-04-18T13:55:43Z</time>
      </trkpt>
      <trkpt lat="43.96053" lon="2.34679">
        <ele>367</ele>
        <time>2021-04-18T13:55:44Z</time>
      </trkpt>
      <trkpt lat="43.96053" lon="2.34677">
        <ele>367</ele>
        <time>2021-04-18T13:55:45Z</time>
      </trkpt>
      <trkpt lat="43.96054" lon="2.34675">
        <ele>367</ele>
        <time>2021-04-18T13:55:46Z</time>
      </trkpt>
      <trkpt lat="43.96055" lon="2.34674">
        <ele>367</ele>
        <time>2021-04-18T13:55:47Z</time>
      </trkpt>
      <trkpt lat="43.96055" lon="2.34672">
        <ele>367</ele>
        <time>2021-04-18T13:55:48Z</time>
      </trkpt>
      <trkpt lat="43.96055" lon="2.3467">
        <ele>367</ele>
        <time>2021-04-18T13:55:49Z</time>
      </trkpt>
      <trkpt lat="43.96056" lon="2.34669">
        <ele>367</ele>
        <time>2021-04-18T13:55:50Z</time>
      </trkpt>
      <trkpt lat="43.96056" lon="2.34667">
        <ele>367</ele>
        <time>2021-04-18T13:55:51Z</time>
      </trkpt>
      <trkpt lat="43.96056" lon="2.34666">
        <ele>367</ele>
        <time>2021-04-18T13:55:52Z</time>
      </trkpt>
      <trkpt lat="43.96056" lon="2.34666">
        <ele>368</ele>
        <time>2021-04-18T13:55:53Z</time>
      </trkpt>
      <trkpt lat="43.96056" lon="2.34665">
        <ele>368</ele>
        <time>2021-04-18T13:55:54Z</time>
      </trkpt>
      <trkpt lat="43.96056" lon="2.34665">
        <ele>368</ele>
        <time>2021-04-18T13:55:55Z</time>
      </trkpt>
      <trkpt lat="43.96058" lon="2.34663">
        <ele>368</ele>
        <time>2021-04-18T13:55:56Z</time>
      </trkpt>
      <trkpt lat="43.96058" lon="2.34662">
        <ele>369</ele>
        <time>2021-04-18T13:55:57Z</time>
      </trkpt>
      <trkpt lat="43.96058" lon="2.34661">
        <ele>369</ele>
        <time>2021-04-18T13:55:58Z</time>
      </trkpt>
      <trkpt lat="43.96058" lon="2.34659">
        <ele>369</ele>
        <time>2021-04-18T13:55:59Z</time>
      </trkpt>
      <trkpt lat="43.96059" lon="2.34657">
        <ele>369</ele>
        <time>2021-04-18T13:56:00Z</time>
      </trkpt>
      <trkpt lat="43.96059" lon="2.34655">
        <ele>369</ele>
        <time>2021-04-18T13:56:01Z</time>
      </trkpt>
      <trkpt lat="43.96061" lon="2.34653">
        <ele>369</ele>
        <time>2021-04-18T13:56:02Z</time>
      </trkpt>
      <trkpt lat="43.96061" lon="2.34651">
        <ele>369</ele>
        <time>2021-04-18T13:56:03Z</time>
      </trkpt>
      <trkpt lat="43.96061" lon="2.34649">
        <ele>369</ele>
        <time>2021-04-18T13:56:04Z</time>
      </trkpt>
      <trkpt lat="43.96061" lon="2.34649">
        <ele>369</ele>
        <time>2021-04-18T13:56:05Z</time>
      </trkpt>
      <trkpt lat="43.96061" lon="2.34649">
        <ele>369</ele>
        <time>2021-04-18T13:56:06Z</time>
      </trkpt>
      <trkpt lat="43.96061" lon="2.34649">
        <ele>369</ele>
        <time>2021-04-18T13:56:06Z</time>
      </trkpt>
      <trkpt lat="43.96061" lon="2.34649">
        <ele>369</ele>
        <time>2021-04-18T13:56:06Z</time>
      </trkpt>
      <trkpt lat="43.96066" lon="2.34638">
        <ele>368</ele>
        <time>2021-04-18T13:56:20Z</time>
      </trkpt>
      <trkpt lat="43.96067" lon="2.34637">
        <ele>368</ele>
        <time>2021-04-18T13:56:21Z</time>
      </trkpt>
      <trkpt lat="43.96067" lon="2.34637">
        <ele>368</ele>
        <time>2021-04-18T13:56:22Z</time>
      </trkpt>
      <trkpt lat="43.96067" lon="2.34637">
        <ele>368</ele>
        <time>2021-04-18T13:56:23Z</time>
      </trkpt>
      <trkpt lat="43.96069" lon="2.34634">
        <ele>367</ele>
        <time>2021-04-18T13:56:24Z</time>
      </trkpt>
      <trkpt lat="43.9607" lon="2.34633">
        <ele>368</ele>
        <time>2021-04-18T13:56:25Z</time>
      </trkpt>
      <trkpt lat="43.96071" lon="2.34631">
        <ele>369</ele>
        <time>2021-04-18T13:56:26Z</time>
      </trkpt>
      <trkpt lat="43.96071" lon="2.3463">
        <ele>369</ele>
        <time>2021-04-18T13:56:27Z</time>
      </trkpt>
      <trkpt lat="43.96071" lon="2.34628">
        <ele>369</ele>
        <time>2021-04-18T13:56:28Z</time>
      </trkpt>
      <trkpt lat="43.96072" lon="2.34627">
        <ele>370</ele>
        <time>2021-04-18T13:56:29Z</time>
      </trkpt>
      <trkpt lat="43.96072" lon="2.34625">
        <ele>370</ele>
        <time>2021-04-18T13:56:30Z</time>
      </trkpt>
      <trkpt lat="43.96072" lon="2.34623">
        <ele>370</ele>
        <time>2021-04-18T13:56:31Z</time>
      </trkpt>
      <trkpt lat="43.96073" lon="2.34622">
        <ele>370</ele>
        <time>2021-04-18T13:56:32Z</time>
      </trkpt>
      <trkpt lat="43.96074" lon="2.34621">
        <ele>371</ele>
        <time>2021-04-18T13:56:33Z</time>
      </trkpt>
      <trkpt lat="43.96074" lon="2.3462">
        <ele>371</ele>
        <time>2021-04-18T13:56:34Z</time>
      </trkpt>
      <trkpt lat="43.96075" lon="2.34619">
        <ele>372</ele>
        <time>2021-04-18T13:56:35Z</time>
      </trkpt>
      <trkpt lat="43.96076" lon="2.34617">
        <ele>372</ele>
        <time>2021-04-18T13:56:36Z</time>
      </trkpt>
      <trkpt lat="43.96076" lon="2.34616">
        <ele>373</ele>
        <time>2021-04-18T13:56:37Z</time>
      </trkpt>
      <trkpt lat="43.96077" lon="2.34614">
        <ele>373</ele>
        <time>2021-04-18T13:56:38Z</time>
      </trkpt>
      <trkpt lat="43.96077" lon="2.34613">
        <ele>374</ele>
        <time>2021-04-18T13:56:39Z</time>
      </trkpt>
      <trkpt lat="43.96078" lon="2.34612">
        <ele>374</ele>
        <time>2021-04-18T13:56:40Z</time>
      </trkpt>
      <trkpt lat="43.96079" lon="2.3461">
        <ele>374</ele>
        <time>2021-04-18T13:56:41Z</time>
      </trkpt>
      <trkpt lat="43.96079" lon="2.34609">
        <ele>374</ele>
        <time>2021-04-18T13:56:42Z</time>
      </trkpt>
      <trkpt lat="43.9608" lon="2.34607">
        <ele>374</ele>
        <time>2021-04-18T13:56:43Z</time>
      </trkpt>
      <trkpt lat="43.9608" lon="2.34606">
        <ele>374</ele>
        <time>2021-04-18T13:56:44Z</time>
      </trkpt>
      <trkpt lat="43.9608" lon="2.34604">
        <ele>374</ele>
        <time>2021-04-18T13:56:45Z</time>
      </trkpt>
      <trkpt lat="43.96082" lon="2.34602">
        <ele>375</ele>
        <time>2021-04-18T13:56:46Z</time>
      </trkpt>
      <trkpt lat="43.96082" lon="2.34601">
        <ele>375</ele>
        <time>2021-04-18T13:56:47Z</time>
      </trkpt>
      <trkpt lat="43.96083" lon="2.346">
        <ele>375</ele>
        <time>2021-04-18T13:56:48Z</time>
      </trkpt>
      <trkpt lat="43.96084" lon="2.34599">
        <ele>376</ele>
        <time>2021-04-18T13:56:49Z</time>
      </trkpt>
      <trkpt lat="43.96085" lon="2.34598">
        <ele>376</ele>
        <time>2021-04-18T13:56:50Z</time>
      </trkpt>
      <trkpt lat="43.96087" lon="2.34597">
        <ele>376</ele>
        <time>2021-04-18T13:56:51Z</time>
      </trkpt>
      <trkpt lat="43.96087" lon="2.34595">
        <ele>377</ele>
        <time>2021-04-18T13:56:52Z</time>
      </trkpt>
      <trkpt lat="43.96087" lon="2.34594">
        <ele>377</ele>
        <time>2021-04-18T13:56:53Z</time>
      </trkpt>
      <trkpt lat="43.96088" lon="2.34592">
        <ele>376</ele>
        <time>2021-04-18T13:56:54Z</time>
      </trkpt>
      <trkpt lat="43.96088" lon="2.3459">
        <ele>376</ele>
        <time>2021-04-18T13:56:55Z</time>
      </trkpt>
      <trkpt lat="43.96088" lon="2.34588">
        <ele>376</ele>
        <time>2021-04-18T13:56:56Z</time>
      </trkpt>
      <trkpt lat="43.96088" lon="2.34587">
        <ele>377</ele>
        <time>2021-04-18T13:56:57Z</time>
      </trkpt>
      <trkpt lat="43.96089" lon="2.34585">
        <ele>377</ele>
        <time>2021-04-18T13:56:58Z</time>
      </trkpt>
      <trkpt lat="43.96089" lon="2.34584">
        <ele>377</ele>
        <time>2021-04-18T13:56:59Z</time>
      </trkpt>
      <trkpt lat="43.9609" lon="2.34583">
        <ele>378</ele>
        <time>2021-04-18T13:57:00Z</time>
      </trkpt>
      <trkpt lat="43.9609" lon="2.34581">
        <ele>378</ele>
        <time>2021-04-18T13:57:01Z</time>
      </trkpt>
      <trkpt lat="43.9609" lon="2.34579">
        <ele>378</ele>
        <time>2021-04-18T13:57:02Z</time>
      </trkpt>
      <trkpt lat="43.96091" lon="2.34578">
        <ele>378</ele>
        <time>2021-04-18T13:57:03Z</time>
      </trkpt>
      <trkpt lat="43.96092" lon="2.34577">
        <ele>378</ele>
        <time>2021-04-18T13:57:04Z</time>
      </trkpt>
      <trkpt lat="43.96092" lon="2.34576">
        <ele>378</ele>
        <time>2021-04-18T13:57:05Z</time>
      </trkpt>
      <trkpt lat="43.96092" lon="2.34576">
        <ele>378</ele>
        <time>2021-04-18T13:57:06Z</time>
      </trkpt>
      <trkpt lat="43.96093" lon="2.34574">
        <ele>377</ele>
        <time>2021-04-18T13:57:07Z</time>
      </trkpt>
      <trkpt lat="43.96094" lon="2.34572">
        <ele>377</ele>
        <time>2021-04-18T13:57:08Z</time>
      </trkpt>
      <trkpt lat="43.96095" lon="2.3457">
        <ele>377</ele>
        <time>2021-04-18T13:57:09Z</time>
      </trkpt>
      <trkpt lat="43.96096" lon="2.34569">
        <ele>377</ele>
        <time>2021-04-18T13:57:10Z</time>
      </trkpt>
      <trkpt lat="43.96097" lon="2.34568">
        <ele>377</ele>
        <time>2021-04-18T13:57:11Z</time>
      </trkpt>
      <trkpt lat="43.96098" lon="2.34567">
        <ele>377</ele>
        <time>2021-04-18T13:57:12Z</time>
      </trkpt>
      <trkpt lat="43.96099" lon="2.34567">
        <ele>378</ele>
        <time>2021-04-18T13:57:13Z</time>
      </trkpt>
      <trkpt lat="43.961" lon="2.34566">
        <ele>379</ele>
        <time>2021-04-18T13:57:14Z</time>
      </trkpt>
      <trkpt lat="43.96101" lon="2.34565">
        <ele>379</ele>
        <time>2021-04-18T13:57:15Z</time>
      </trkpt>
      <trkpt lat="43.96101" lon="2.34564">
        <ele>379</ele>
        <time>2021-04-18T13:57:16Z</time>
      </trkpt>
      <trkpt lat="43.96101" lon="2.34564">
        <ele>379</ele>
        <time>2021-04-18T13:57:17Z</time>
      </trkpt>
      <trkpt lat="43.96101" lon="2.34564">
        <ele>379</ele>
        <time>2021-04-18T13:57:18Z</time>
      </trkpt>
      <trkpt lat="43.96103" lon="2.34561">
        <ele>379</ele>
        <time>2021-04-18T13:57:19Z</time>
      </trkpt>
      <trkpt lat="43.96103" lon="2.34559">
        <ele>379</ele>
        <time>2021-04-18T13:57:20Z</time>
      </trkpt>
      <trkpt lat="43.96104" lon="2.34556">
        <ele>379</ele>
        <time>2021-04-18T13:57:21Z</time>
      </trkpt>
      <trkpt lat="43.96104" lon="2.34555">
        <ele>378</ele>
        <time>2021-04-18T13:57:22Z</time>
      </trkpt>
      <trkpt lat="43.96106" lon="2.34554">
        <ele>378</ele>
        <time>2021-04-18T13:57:23Z</time>
      </trkpt>
      <trkpt lat="43.96106" lon="2.34552">
        <ele>378</ele>
        <time>2021-04-18T13:57:24Z</time>
      </trkpt>
      <trkpt lat="43.96107" lon="2.3455">
        <ele>379</ele>
        <time>2021-04-18T13:57:25Z</time>
      </trkpt>
      <trkpt lat="43.96108" lon="2.34548">
        <ele>378</ele>
        <time>2021-04-18T13:57:26Z</time>
      </trkpt>
      <trkpt lat="43.96109" lon="2.34546">
        <ele>378</ele>
        <time>2021-04-18T13:57:27Z</time>
      </trkpt>
      <trkpt lat="43.9611" lon="2.34544">
        <ele>378</ele>
        <time>2021-04-18T13:57:28Z</time>
      </trkpt>
      <trkpt lat="43.96111" lon="2.34542">
        <ele>378</ele>
        <time>2021-04-18T13:57:29Z</time>
      </trkpt>
      <trkpt lat="43.96111" lon="2.3454">
        <ele>377</ele>
        <time>2021-04-18T13:57:30Z</time>
      </trkpt>
      <trkpt lat="43.96111" lon="2.34539">
        <ele>379</ele>
        <time>2021-04-18T13:57:31Z</time>
      </trkpt>
      <trkpt lat="43.96111" lon="2.34538">
        <ele>379</ele>
        <time>2021-04-18T13:57:32Z</time>
      </trkpt>
      <trkpt lat="43.96111" lon="2.34537">
        <ele>379</ele>
        <time>2021-04-18T13:57:33Z</time>
      </trkpt>
      <trkpt lat="43.96112" lon="2.34536">
        <ele>379</ele>
        <time>2021-04-18T13:57:34Z</time>
      </trkpt>
      <trkpt lat="43.96112" lon="2.34536">
        <ele>379</ele>
        <time>2021-04-18T13:57:35Z</time>
      </trkpt>
      <trkpt lat="43.96114" lon="2.34535">
        <ele>380</ele>
        <time>2021-04-18T13:57:36Z</time>
      </trkpt>
      <trkpt lat="43.96114" lon="2.34534">
        <ele>380</ele>
        <time>2021-04-18T13:57:37Z</time>
      </trkpt>
      <trkpt lat="43.96115" lon="2.34534">
        <ele>381</ele>
        <time>2021-04-18T13:57:38Z</time>
      </trkpt>
      <trkpt lat="43.96116" lon="2.34533">
        <ele>381</ele>
        <time>2021-04-18T13:57:39Z</time>
      </trkpt>
      <trkpt lat="43.96116" lon="2.34533">
        <ele>381</ele>
        <time>2021-04-18T13:57:40Z</time>
      </trkpt>
      <trkpt lat="43.96116" lon="2.34532">
        <ele>382</ele>
        <time>2021-04-18T13:57:41Z</time>
      </trkpt>
      <trkpt lat="43.96117" lon="2.3453">
        <ele>381</ele>
        <time>2021-04-18T13:57:42Z</time>
      </trkpt>
      <trkpt lat="43.96117" lon="2.34529">
        <ele>381</ele>
        <time>2021-04-18T13:57:43Z</time>
      </trkpt>
      <trkpt lat="43.96119" lon="2.34528">
        <ele>381</ele>
        <time>2021-04-18T13:57:44Z</time>
      </trkpt>
      <trkpt lat="43.9612" lon="2.34527">
        <ele>382</ele>
        <time>2021-04-18T13:57:45Z</time>
      </trkpt>
      <trkpt lat="43.9612" lon="2.34526">
        <ele>381</ele>
        <time>2021-04-18T13:57:46Z</time>
      </trkpt>
      <trkpt lat="43.96121" lon="2.34524">
        <ele>381</ele>
        <time>2021-04-18T13:57:47Z</time>
      </trkpt>
      <trkpt lat="43.96121" lon="2.34523">
        <ele>381</ele>
        <time>2021-04-18T13:57:48Z</time>
      </trkpt>
      <trkpt lat="43.96122" lon="2.34522">
        <ele>382</ele>
        <time>2021-04-18T13:57:49Z</time>
      </trkpt>
      <trkpt lat="43.96123" lon="2.34521">
        <ele>381</ele>
        <time>2021-04-18T13:57:50Z</time>
      </trkpt>
      <trkpt lat="43.96124" lon="2.34519">
        <ele>381</ele>
        <time>2021-04-18T13:57:51Z</time>
      </trkpt>
      <trkpt lat="43.96124" lon="2.34519">
        <ele>381</ele>
        <time>2021-04-18T13:57:52Z</time>
      </trkpt>
      <trkpt lat="43.96124" lon="2.34519">
        <ele>381</ele>
        <time>2021-04-18T13:57:53Z</time>
      </trkpt>
      <trkpt lat="43.96125" lon="2.34518">
        <ele>379</ele>
        <time>2021-04-18T13:57:54Z</time>
      </trkpt>
      <trkpt lat="43.96125" lon="2.34518">
        <ele>379</ele>
        <time>2021-04-18T13:57:54Z</time>
      </trkpt>
      <trkpt lat="43.96125" lon="2.34518">
        <ele>378</ele>
        <time>2021-04-18T13:57:56Z</time>
      </trkpt>
      <trkpt lat="43.96125" lon="2.34518">
        <ele>378</ele>
        <time>2021-04-18T13:57:56Z</time>
      </trkpt>
      <trkpt lat="43.96125" lon="2.34518">
        <ele>378</ele>
        <time>2021-04-18T13:57:56Z</time>
      </trkpt>
      <trkpt lat="43.9613" lon="2.34516">
        <ele>373</ele>
        <time>2021-04-18T13:58:28Z</time>
      </trkpt>
      <trkpt lat="43.96131" lon="2.34515">
        <ele>373</ele>
        <time>2021-04-18T13:58:29Z</time>
      </trkpt>
      <trkpt lat="43.96132" lon="2.34514">
        <ele>373</ele>
        <time>2021-04-18T13:58:30Z</time>
      </trkpt>
      <trkpt lat="43.96133" lon="2.34512">
        <ele>373</ele>
        <time>2021-04-18T13:58:31Z</time>
      </trkpt>
      <trkpt lat="43.96133" lon="2.34512">
        <ele>373</ele>
        <time>2021-04-18T13:58:32Z</time>
      </trkpt>
      <trkpt lat="43.96134" lon="2.34511">
        <ele>373</ele>
        <time>2021-04-18T13:58:33Z</time>
      </trkpt>
      <trkpt lat="43.96135" lon="2.34511">
        <ele>373</ele>
        <time>2021-04-18T13:58:34Z</time>
      </trkpt>
      <trkpt lat="43.96137" lon="2.34511">
        <ele>373</ele>
        <time>2021-04-18T13:58:35Z</time>
      </trkpt>
      <trkpt lat="43.96137" lon="2.34511">
        <ele>374</ele>
        <time>2021-04-18T13:58:36Z</time>
      </trkpt>
      <trkpt lat="43.96137" lon="2.3451">
        <ele>374</ele>
        <time>2021-04-18T13:58:37Z</time>
      </trkpt>
      <trkpt lat="43.96138" lon="2.34508">
        <ele>374</ele>
        <time>2021-04-18T13:58:38Z</time>
      </trkpt>
      <trkpt lat="43.96138" lon="2.34507">
        <ele>375</ele>
        <time>2021-04-18T13:58:39Z</time>
      </trkpt>
      <trkpt lat="43.96138" lon="2.34506">
        <ele>375</ele>
        <time>2021-04-18T13:58:40Z</time>
      </trkpt>
      <trkpt lat="43.96139" lon="2.34505">
        <ele>375</ele>
        <time>2021-04-18T13:58:41Z</time>
      </trkpt>
      <trkpt lat="43.96139" lon="2.34504">
        <ele>376</ele>
        <time>2021-04-18T13:58:42Z</time>
      </trkpt>
      <trkpt lat="43.9614" lon="2.34502">
        <ele>376</ele>
        <time>2021-04-18T13:58:43Z</time>
      </trkpt>
      <trkpt lat="43.96141" lon="2.34501">
        <ele>376</ele>
        <time>2021-04-18T13:58:44Z</time>
      </trkpt>
      <trkpt lat="43.96142" lon="2.345">
        <ele>377</ele>
        <time>2021-04-18T13:58:45Z</time>
      </trkpt>
      <trkpt lat="43.96143" lon="2.34499">
        <ele>378</ele>
        <time>2021-04-18T13:58:46Z</time>
      </trkpt>
      <trkpt lat="43.96145" lon="2.34499">
        <ele>378</ele>
        <time>2021-04-18T13:58:47Z</time>
      </trkpt>
      <trkpt lat="43.96146" lon="2.34498">
        <ele>378</ele>
        <time>2021-04-18T13:58:48Z</time>
      </trkpt>
      <trkpt lat="43.96146" lon="2.34498">
        <ele>378</ele>
        <time>2021-04-18T13:58:49Z</time>
      </trkpt>
      <trkpt lat="43.96146" lon="2.34498">
        <ele>378</ele>
        <time>2021-04-18T13:58:50Z</time>
      </trkpt>
      <trkpt lat="43.96147" lon="2.34499">
        <ele>379</ele>
        <time>2021-04-18T13:58:51Z</time>
      </trkpt>
      <trkpt lat="43.96147" lon="2.34499">
        <ele>379</ele>
        <time>2021-04-18T13:58:52Z</time>
      </trkpt>
      <trkpt lat="43.96147" lon="2.34499">
        <ele>379</ele>
        <time>2021-04-18T13:58:53Z</time>
      </trkpt>
      <trkpt lat="43.96146" lon="2.34499">
        <ele>380</ele>
        <time>2021-04-18T13:58:54Z</time>
      </trkpt>
      <trkpt lat="43.96145" lon="2.34499">
        <ele>380</ele>
        <time>2021-04-18T13:58:55Z</time>
      </trkpt>
      <trkpt lat="43.96145" lon="2.345">
        <ele>380</ele>
        <time>2021-04-18T13:58:56Z</time>
      </trkpt>
      <trkpt lat="43.96144" lon="2.34502">
        <ele>380</ele>
        <time>2021-04-18T13:58:57Z</time>
      </trkpt>
      <trkpt lat="43.96144" lon="2.34503">
        <ele>380</ele>
        <time>2021-04-18T13:58:58Z</time>
      </trkpt>
      <trkpt lat="43.96144" lon="2.34504">
        <ele>379</ele>
        <time>2021-04-18T13:58:59Z</time>
      </trkpt>
      <trkpt lat="43.96143" lon="2.34505">
        <ele>379</ele>
        <time>2021-04-18T13:59:00Z</time>
      </trkpt>
      <trkpt lat="43.96143" lon="2.34507">
        <ele>379</ele>
        <time>2021-04-18T13:59:01Z</time>
      </trkpt>
      <trkpt lat="43.96142" lon="2.34508">
        <ele>379</ele>
        <time>2021-04-18T13:59:02Z</time>
      </trkpt>
      <trkpt lat="43.96141" lon="2.34509">
        <ele>379</ele>
        <time>2021-04-18T13:59:03Z</time>
      </trkpt>
      <trkpt lat="43.96141" lon="2.3451">
        <ele>380</ele>
        <time>2021-04-18T13:59:04Z</time>
      </trkpt>
      <trkpt lat="43.96141" lon="2.34511">
        <ele>380</ele>
        <time>2021-04-18T13:59:05Z</time>
      </trkpt>
      <trkpt lat="43.9614" lon="2.34512">
        <ele>381</ele>
        <time>2021-04-18T13:59:06Z</time>
      </trkpt>
      <trkpt lat="43.9614" lon="2.34513">
        <ele>381</ele>
        <time>2021-04-18T13:59:07Z</time>
      </trkpt>
      <trkpt lat="43.96139" lon="2.34513">
        <ele>381</ele>
        <time>2021-04-18T13:59:08Z</time>
      </trkpt>
      <trkpt lat="43.96138" lon="2.34515">
        <ele>381</ele>
        <time>2021-04-18T13:59:09Z</time>
      </trkpt>
      <trkpt lat="43.96137" lon="2.34516">
        <ele>382</ele>
        <time>2021-04-18T13:59:10Z</time>
      </trkpt>
      <trkpt lat="43.96137" lon="2.34518">
        <ele>382</ele>
        <time>2021-04-18T13:59:11Z</time>
      </trkpt>
      <trkpt lat="43.96137" lon="2.3452">
        <ele>382</ele>
        <time>2021-04-18T13:59:12Z</time>
      </trkpt>
      <trkpt lat="43.96136" lon="2.34522">
        <ele>383</ele>
        <time>2021-04-18T13:59:13Z</time>
      </trkpt>
      <trkpt lat="43.96135" lon="2.34523">
        <ele>383</ele>
        <time>2021-04-18T13:59:14Z</time>
      </trkpt>
      <trkpt lat="43.96135" lon="2.34525">
        <ele>383</ele>
        <time>2021-04-18T13:59:15Z</time>
      </trkpt>
      <trkpt lat="43.96134" lon="2.34526">
        <ele>383</ele>
        <time>2021-04-18T13:59:16Z</time>
      </trkpt>
      <trkpt lat="43.96134" lon="2.34527">
        <ele>384</ele>
        <time>2021-04-18T13:59:17Z</time>
      </trkpt>
      <trkpt lat="43.96133" lon="2.34529">
        <ele>384</ele>
        <time>2021-04-18T13:59:18Z</time>
      </trkpt>
      <trkpt lat="43.96133" lon="2.3453">
        <ele>384</ele>
        <time>2021-04-18T13:59:19Z</time>
      </trkpt>
      <trkpt lat="43.96133" lon="2.34531">
        <ele>384</ele>
        <time>2021-04-18T13:59:20Z</time>
      </trkpt>
      <trkpt lat="43.96133" lon="2.34532">
        <ele>385</ele>
        <time>2021-04-18T13:59:21Z</time>
      </trkpt>
      <trkpt lat="43.96133" lon="2.34533">
        <ele>384</ele>
        <time>2021-04-18T13:59:22Z</time>
      </trkpt>
      <trkpt lat="43.96134" lon="2.34534">
        <ele>385</ele>
        <time>2021-04-18T13:59:23Z</time>
      </trkpt>
      <trkpt lat="43.96136" lon="2.34534">
        <ele>386</ele>
        <time>2021-04-18T13:59:24Z</time>
      </trkpt>
      <trkpt lat="43.96137" lon="2.34534">
        <ele>387</ele>
        <time>2021-04-18T13:59:25Z</time>
      </trkpt>
      <trkpt lat="43.96138" lon="2.34533">
        <ele>387</ele>
        <time>2021-04-18T13:59:26Z</time>
      </trkpt>
      <trkpt lat="43.96139" lon="2.34533">
        <ele>388</ele>
        <time>2021-04-18T13:59:27Z</time>
      </trkpt>
      <trkpt lat="43.9614" lon="2.34532">
        <ele>388</ele>
        <time>2021-04-18T13:59:28Z</time>
      </trkpt>
      <trkpt lat="43.9614" lon="2.34532">
        <ele>389</ele>
        <time>2021-04-18T13:59:29Z</time>
      </trkpt>
      <trkpt lat="43.96141" lon="2.34531">
        <ele>389</ele>
        <time>2021-04-18T13:59:30Z</time>
      </trkpt>
      <trkpt lat="43.96141" lon="2.34529">
        <ele>390</ele>
        <time>2021-04-18T13:59:31Z</time>
      </trkpt>
      <trkpt lat="43.96141" lon="2.3453">
        <ele>390</ele>
        <time>2021-04-18T13:59:32Z</time>
      </trkpt>
      <trkpt lat="43.96142" lon="2.3453">
        <ele>390</ele>
        <time>2021-04-18T13:59:33Z</time>
      </trkpt>
      <trkpt lat="43.96142" lon="2.34529">
        <ele>390</ele>
        <time>2021-04-18T13:59:34Z</time>
      </trkpt>
      <trkpt lat="43.96143" lon="2.34528">
        <ele>390</ele>
        <time>2021-04-18T13:59:35Z</time>
      </trkpt>
      <trkpt lat="43.96143" lon="2.34526">
        <ele>390</ele>
        <time>2021-04-18T13:59:36Z</time>
      </trkpt>
      <trkpt lat="43.96144" lon="2.34525">
        <ele>390</ele>
        <time>2021-04-18T13:59:37Z</time>
      </trkpt>
      <trkpt lat="43.96145" lon="2.34523">
        <ele>389</ele>
        <time>2021-04-18T13:59:38Z</time>
      </trkpt>
      <trkpt lat="43.96147" lon="2.34522">
        <ele>388</ele>
        <time>2021-04-18T13:59:39Z</time>
      </trkpt>
      <trkpt lat="43.96149" lon="2.34521">
        <ele>388</ele>
        <time>2021-04-18T13:59:40Z</time>
      </trkpt>
      <trkpt lat="43.9615" lon="2.34521">
        <ele>388</ele>
        <time>2021-04-18T13:59:41Z</time>
      </trkpt>
      <trkpt lat="43.96152" lon="2.3452">
        <ele>389</ele>
        <time>2021-04-18T13:59:42Z</time>
      </trkpt>
      <trkpt lat="43.96152" lon="2.34519">
        <ele>389</ele>
        <time>2021-04-18T13:59:43Z</time>
      </trkpt>
      <trkpt lat="43.96153" lon="2.34519">
        <ele>389</ele>
        <time>2021-04-18T13:59:44Z</time>
      </trkpt>
      <trkpt lat="43.96154" lon="2.34518">
        <ele>389</ele>
        <time>2021-04-18T13:59:45Z</time>
      </trkpt>
      <trkpt lat="43.96155" lon="2.34517">
        <ele>389</ele>
        <time>2021-04-18T13:59:46Z</time>
      </trkpt>
      <trkpt lat="43.96156" lon="2.34516">
        <ele>389</ele>
        <time>2021-04-18T13:59:47Z</time>
      </trkpt>
      <trkpt lat="43.96158" lon="2.34515">
        <ele>389</ele>
        <time>2021-04-18T13:59:48Z</time>
      </trkpt>
      <trkpt lat="43.96158" lon="2.34513">
        <ele>389</ele>
        <time>2021-04-18T13:59:49Z</time>
      </trkpt>
      <trkpt lat="43.96159" lon="2.34512">
        <ele>390</ele>
        <time>2021-04-18T13:59:50Z</time>
      </trkpt>
      <trkpt lat="43.96159" lon="2.3451">
        <ele>390</ele>
        <time>2021-04-18T13:59:51Z</time>
      </trkpt>
      <trkpt lat="43.96161" lon="2.3451">
        <ele>391</ele>
        <time>2021-04-18T13:59:52Z</time>
      </trkpt>
      <trkpt lat="43.96162" lon="2.34509">
        <ele>391</ele>
        <time>2021-04-18T13:59:53Z</time>
      </trkpt>
      <trkpt lat="43.96163" lon="2.34508">
        <ele>391</ele>
        <time>2021-04-18T13:59:54Z</time>
      </trkpt>
      <trkpt lat="43.96165" lon="2.34508">
        <ele>391</ele>
        <time>2021-04-18T13:59:55Z</time>
      </trkpt>
      <trkpt lat="43.96166" lon="2.34508">
        <ele>392</ele>
        <time>2021-04-18T13:59:56Z</time>
      </trkpt>
      <trkpt lat="43.96168" lon="2.34507">
        <ele>391</ele>
        <time>2021-04-18T13:59:57Z</time>
      </trkpt>
      <trkpt lat="43.96168" lon="2.34506">
        <ele>391</ele>
        <time>2021-04-18T13:59:58Z</time>
      </trkpt>
      <trkpt lat="43.96169" lon="2.34505">
        <ele>391</ele>
        <time>2021-04-18T13:59:59Z</time>
      </trkpt>
      <trkpt lat="43.9617" lon="2.34505">
        <ele>391</ele>
        <time>2021-04-18T14:00:00Z</time>
      </trkpt>
      <trkpt lat="43.96171" lon="2.34504">
        <ele>391</ele>
        <time>2021-04-18T14:00:01Z</time>
      </trkpt>
      <trkpt lat="43.96172" lon="2.34504">
        <ele>391</ele>
        <time>2021-04-18T14:00:02Z</time>
      </trkpt>
      <trkpt lat="43.96172" lon="2.34502">
        <ele>391</ele>
        <time>2021-04-18T14:00:03Z</time>
      </trkpt>
      <trkpt lat="43.96173" lon="2.34499">
        <ele>391</ele>
        <time>2021-04-18T14:00:04Z</time>
      </trkpt>
      <trkpt lat="43.96174" lon="2.34497">
        <ele>392</ele>
        <time>2021-04-18T14:00:05Z</time>
      </trkpt>
      <trkpt lat="43.96174" lon="2.34496">
        <ele>392</ele>
        <time>2021-04-18T14:00:06Z</time>
      </trkpt>
      <trkpt lat="43.96175" lon="2.34494">
        <ele>392</ele>
        <time>2021-04-18T14:00:07Z</time>
      </trkpt>
      <trkpt lat="43.96176" lon="2.34493">
        <ele>392</ele>
        <time>2021-04-18T14:00:08Z</time>
      </trkpt>
      <trkpt lat="43.96177" lon="2.34491">
        <ele>392</ele>
        <time>2021-04-18T14:00:09Z</time>
      </trkpt>
      <trkpt lat="43.96178" lon="2.3449">
        <ele>392</ele>
        <time>2021-04-18T14:00:10Z</time>
      </trkpt>
      <trkpt lat="43.96179" lon="2.34489">
        <ele>392</ele>
        <time>2021-04-18T14:00:11Z</time>
      </trkpt>
      <trkpt lat="43.9618" lon="2.34488">
        <ele>392</ele>
        <time>2021-04-18T14:00:12Z</time>
      </trkpt>
      <trkpt lat="43.96181" lon="2.34486">
        <ele>392</ele>
        <time>2021-04-18T14:00:13Z</time>
      </trkpt>
      <trkpt lat="43.96182" lon="2.34485">
        <ele>393</ele>
        <time>2021-04-18T14:00:14Z</time>
      </trkpt>
      <trkpt lat="43.96182" lon="2.34484">
        <ele>393</ele>
        <time>2021-04-18T14:00:15Z</time>
      </trkpt>
      <trkpt lat="43.96183" lon="2.34483">
        <ele>393</ele>
        <time>2021-04-18T14:00:16Z</time>
      </trkpt>
      <trkpt lat="43.96185" lon="2.34483">
        <ele>393</ele>
        <time>2021-04-18T14:00:17Z</time>
      </trkpt>
      <trkpt lat="43.96185" lon="2.34482">
        <ele>393</ele>
        <time>2021-04-18T14:00:18Z</time>
      </trkpt>
      <trkpt lat="43.96186" lon="2.34481">
        <ele>394</ele>
        <time>2021-04-18T14:00:19Z</time>
      </trkpt>
      <trkpt lat="43.96186" lon="2.3448">
        <ele>394</ele>
        <time>2021-04-18T14:00:20Z</time>
      </trkpt>
      <trkpt lat="43.96187" lon="2.34478">
        <ele>393</ele>
        <time>2021-04-18T14:00:21Z</time>
      </trkpt>
      <trkpt lat="43.96188" lon="2.34477">
        <ele>394</ele>
        <time>2021-04-18T14:00:22Z</time>
      </trkpt>
      <trkpt lat="43.96189" lon="2.34475">
        <ele>394</ele>
        <time>2021-04-18T14:00:23Z</time>
      </trkpt>
      <trkpt lat="43.9619" lon="2.34475">
        <ele>395</ele>
        <time>2021-04-18T14:00:24Z</time>
      </trkpt>
      <trkpt lat="43.96191" lon="2.34475">
        <ele>396</ele>
        <time>2021-04-18T14:00:25Z</time>
      </trkpt>
      <trkpt lat="43.96191" lon="2.34474">
        <ele>397</ele>
        <time>2021-04-18T14:00:26Z</time>
      </trkpt>
      <trkpt lat="43.96191" lon="2.34473">
        <ele>397</ele>
        <time>2021-04-18T14:00:27Z</time>
      </trkpt>
      <trkpt lat="43.96192" lon="2.34472">
        <ele>397</ele>
        <time>2021-04-18T14:00:28Z</time>
      </trkpt>
      <trkpt lat="43.96192" lon="2.3447">
        <ele>397</ele>
        <time>2021-04-18T14:00:29Z</time>
      </trkpt>
      <trkpt lat="43.96192" lon="2.34469">
        <ele>397</ele>
        <time>2021-04-18T14:00:30Z</time>
      </trkpt>
      <trkpt lat="43.96193" lon="2.34467">
        <ele>398</ele>
        <time>2021-04-18T14:00:31Z</time>
      </trkpt>
      <trkpt lat="43.96193" lon="2.34466">
        <ele>397</ele>
        <time>2021-04-18T14:00:32Z</time>
      </trkpt>
      <trkpt lat="43.96194" lon="2.34465">
        <ele>398</ele>
        <time>2021-04-18T14:00:33Z</time>
      </trkpt>
      <trkpt lat="43.96195" lon="2.34464">
        <ele>398</ele>
        <time>2021-04-18T14:00:34Z</time>
      </trkpt>
      <trkpt lat="43.96196" lon="2.34463">
        <ele>398</ele>
        <time>2021-04-18T14:00:35Z</time>
      </trkpt>
      <trkpt lat="43.96196" lon="2.34462">
        <ele>398</ele>
        <time>2021-04-18T14:00:36Z</time>
      </trkpt>
      <trkpt lat="43.96196" lon="2.34461">
        <ele>399</ele>
        <time>2021-04-18T14:00:37Z</time>
      </trkpt>
      <trkpt lat="43.96197" lon="2.3446">
        <ele>399</ele>
        <time>2021-04-18T14:00:38Z</time>
      </trkpt>
      <trkpt lat="43.96198" lon="2.3446">
        <ele>399</ele>
        <time>2021-04-18T14:00:39Z</time>
      </trkpt>
      <trkpt lat="43.96199" lon="2.34459">
        <ele>399</ele>
        <time>2021-04-18T14:00:40Z</time>
      </trkpt>
      <trkpt lat="43.962" lon="2.34459">
        <ele>400</ele>
        <time>2021-04-18T14:00:41Z</time>
      </trkpt>
      <trkpt lat="43.962" lon="2.34459">
        <ele>399</ele>
        <time>2021-04-18T14:00:42Z</time>
      </trkpt>
      <trkpt lat="43.962" lon="2.34458">
        <ele>399</ele>
        <time>2021-04-18T14:00:43Z</time>
      </trkpt>
      <trkpt lat="43.962" lon="2.34458">
        <ele>399</ele>
        <time>2021-04-18T14:00:44Z</time>
      </trkpt>
      <trkpt lat="43.96201" lon="2.34457">
        <ele>399</ele>
        <time>2021-04-18T14:00:45Z</time>
      </trkpt>
      <trkpt lat="43.96201" lon="2.34457">
        <ele>399</ele>
        <time>2021-04-18T14:00:46Z</time>
      </trkpt>
      <trkpt lat="43.96202" lon="2.34457">
        <ele>399</ele>
        <time>2021-04-18T14:00:47Z</time>
      </trkpt>
      <trkpt lat="43.96203" lon="2.34457">
        <ele>400</ele>
        <time>2021-04-18T14:00:48Z</time>
      </trkpt>
      <trkpt lat="43.96203" lon="2.34456">
        <ele>400</ele>
        <time>2021-04-18T14:00:49Z</time>
      </trkpt>
      <trkpt lat="43.96204" lon="2.34455">
        <ele>400</ele>
        <time>2021-04-18T14:00:50Z</time>
      </trkpt>
      <trkpt lat="43.96205" lon="2.34455">
        <ele>400</ele>
        <time>2021-04-18T14:00:51Z</time>
      </trkpt>
      <trkpt lat="43.96205" lon="2.34455">
        <ele>401</ele>
        <time>2021-04-18T14:00:52Z</time>
      </trkpt>
      <trkpt lat="43.96206" lon="2.34454">
        <ele>401</ele>
        <time>2021-04-18T14:00:53Z</time>
      </trkpt>
      <trkpt lat="43.96206" lon="2.34453">
        <ele>402</ele>
        <time>2021-04-18T14:00:54Z</time>
      </trkpt>
      <trkpt lat="43.96206" lon="2.34452">
        <ele>402</ele>
        <time>2021-04-18T14:00:55Z</time>
      </trkpt>
      <trkpt lat="43.96207" lon="2.34451">
        <ele>403</ele>
        <time>2021-04-18T14:00:56Z</time>
      </trkpt>
      <trkpt lat="43.96208" lon="2.34451">
        <ele>403</ele>
        <time>2021-04-18T14:00:57Z</time>
      </trkpt>
      <trkpt lat="43.96209" lon="2.34452">
        <ele>403</ele>
        <time>2021-04-18T14:00:58Z</time>
      </trkpt>
      <trkpt lat="43.96209" lon="2.34451">
        <ele>404</ele>
        <time>2021-04-18T14:00:59Z</time>
      </trkpt>
      <trkpt lat="43.9621" lon="2.3445">
        <ele>404</ele>
        <time>2021-04-18T14:01:00Z</time>
      </trkpt>
      <trkpt lat="43.96211" lon="2.34449">
        <ele>405</ele>
        <time>2021-04-18T14:01:01Z</time>
      </trkpt>
      <trkpt lat="43.96211" lon="2.34448">
        <ele>405</ele>
        <time>2021-04-18T14:01:02Z</time>
      </trkpt>
      <trkpt lat="43.96211" lon="2.34449">
        <ele>405</ele>
        <time>2021-04-18T14:01:03Z</time>
      </trkpt>
      <trkpt lat="43.96211" lon="2.34449">
        <ele>406</ele>
        <time>2021-04-18T14:01:04Z</time>
      </trkpt>
      <trkpt lat="43.96211" lon="2.34449">
        <ele>406</ele>
        <time>2021-04-18T14:01:05Z</time>
      </trkpt>
      <trkpt lat="43.96211" lon="2.3445">
        <ele>406</ele>
        <time>2021-04-18T14:01:06Z</time>
      </trkpt>
      <trkpt lat="43.96211" lon="2.3445">
        <ele>406</ele>
        <time>2021-04-18T14:01:07Z</time>
      </trkpt>
      <trkpt lat="43.96211" lon="2.3445">
        <ele>406</ele>
        <time>2021-04-18T14:01:08Z</time>
      </trkpt>
      <trkpt lat="43.96211" lon="2.34451">
        <ele>406</ele>
        <time>2021-04-18T14:01:09Z</time>
      </trkpt>
      <trkpt lat="43.96212" lon="2.34451">
        <ele>407</ele>
        <time>2021-04-18T14:01:10Z</time>
      </trkpt>
      <trkpt lat="43.96212" lon="2.34451">
        <ele>407</ele>
        <time>2021-04-18T14:01:11Z</time>
      </trkpt>
      <trkpt lat="43.96212" lon="2.34452">
        <ele>407</ele>
        <time>2021-04-18T14:01:12Z</time>
      </trkpt>
      <trkpt lat="43.96211" lon="2.34452">
        <ele>407</ele>
        <time>2021-04-18T14:01:13Z</time>
      </trkpt>
      <trkpt lat="43.96211" lon="2.34451">
        <ele>406</ele>
        <time>2021-04-18T14:01:14Z</time>
      </trkpt>
      <trkpt lat="43.96212" lon="2.34452">
        <ele>406</ele>
        <time>2021-04-18T14:01:15Z</time>
      </trkpt>
      <trkpt lat="43.96212" lon="2.34452">
        <ele>406</ele>
        <time>2021-04-18T14:01:16Z</time>
      </trkpt>
      <trkpt lat="43.96212" lon="2.34452">
        <ele>406</ele>
        <time>2021-04-18T14:01:17Z</time>
      </trkpt>
      <trkpt lat="43.96212" lon="2.34454">
        <ele>407</ele>
        <time>2021-04-18T14:01:18Z</time>
      </trkpt>
      <trkpt lat="43.96212" lon="2.34455">
        <ele>408</ele>
        <time>2021-04-18T14:01:19Z</time>
      </trkpt>
      <trkpt lat="43.96213" lon="2.34457">
        <ele>409</ele>
        <time>2021-04-18T14:01:20Z</time>
      </trkpt>
      <trkpt lat="43.96213" lon="2.34458">
        <ele>409</ele>
        <time>2021-04-18T14:01:21Z</time>
      </trkpt>
      <trkpt lat="43.96213" lon="2.34459">
        <ele>410</ele>
        <time>2021-04-18T14:01:22Z</time>
      </trkpt>
      <trkpt lat="43.96212" lon="2.3446">
        <ele>409</ele>
        <time>2021-04-18T14:01:23Z</time>
      </trkpt>
      <trkpt lat="43.96212" lon="2.34461">
        <ele>410</ele>
        <time>2021-04-18T14:01:24Z</time>
      </trkpt>
      <trkpt lat="43.96212" lon="2.34462">
        <ele>410</ele>
        <time>2021-04-18T14:01:25Z</time>
      </trkpt>
      <trkpt lat="43.96211" lon="2.34464">
        <ele>410</ele>
        <time>2021-04-18T14:01:26Z</time>
      </trkpt>
      <trkpt lat="43.96211" lon="2.34464">
        <ele>410</ele>
        <time>2021-04-18T14:01:27Z</time>
      </trkpt>
      <trkpt lat="43.96212" lon="2.34465">
        <ele>410</ele>
        <time>2021-04-18T14:01:28Z</time>
      </trkpt>
      <trkpt lat="43.96212" lon="2.34466">
        <ele>410</ele>
        <time>2021-04-18T14:01:29Z</time>
      </trkpt>
      <trkpt lat="43.96212" lon="2.34466">
        <ele>410</ele>
        <time>2021-04-18T14:01:30Z</time>
      </trkpt>
      <trkpt lat="43.96212" lon="2.34466">
        <ele>410</ele>
        <time>2021-04-18T14:01:31Z</time>
      </trkpt>
      <trkpt lat="43.96212" lon="2.34466">
        <ele>410</ele>
        <time>2021-04-18T14:01:31Z</time>
      </trkpt>
      <trkpt lat="43.96212" lon="2.34466">
        <ele>410</ele>
        <time>2021-04-18T14:01:31Z</time>
      </trkpt>
      <trkpt lat="43.96209" lon="2.34471">
        <ele>411</ele>
        <time>2021-04-18T14:01:37Z</time>
      </trkpt>
      <trkpt lat="43.96208" lon="2.34472">
        <ele>411</ele>
        <time>2021-04-18T14:01:38Z</time>
      </trkpt>
      <trkpt lat="43.96207" lon="2.34473">
        <ele>411</ele>
        <time>2021-04-18T14:01:39Z</time>
      </trkpt>
      <trkpt lat="43.96207" lon="2.34474">
        <ele>411</ele>
        <time>2021-04-18T14:01:40Z</time>
      </trkpt>
      <trkpt lat="43.96206" lon="2.34475">
        <ele>411</ele>
        <time>2021-04-18T14:01:41Z</time>
      </trkpt>
      <trkpt lat="43.96206" lon="2.34476">
        <ele>412</ele>
        <time>2021-04-18T14:01:42Z</time>
      </trkpt>
      <trkpt lat="43.96206" lon="2.34478">
        <ele>413</ele>
        <time>2021-04-18T14:01:43Z</time>
      </trkpt>
      <trkpt lat="43.96206" lon="2.34478">
        <ele>413</ele>
        <time>2021-04-18T14:01:44Z</time>
      </trkpt>
      <trkpt lat="43.96206" lon="2.34478">
        <ele>413</ele>
        <time>2021-04-18T14:01:45Z</time>
      </trkpt>
      <trkpt lat="43.96205" lon="2.34482">
        <ele>415</ele>
        <time>2021-04-18T14:01:46Z</time>
      </trkpt>
      <trkpt lat="43.96205" lon="2.34483">
        <ele>414</ele>
        <time>2021-04-18T14:01:47Z</time>
      </trkpt>
      <trkpt lat="43.96204" lon="2.34485">
        <ele>414</ele>
        <time>2021-04-18T14:01:48Z</time>
      </trkpt>
      <trkpt lat="43.96204" lon="2.34486">
        <ele>415</ele>
        <time>2021-04-18T14:01:49Z</time>
      </trkpt>
      <trkpt lat="43.96203" lon="2.34487">
        <ele>414</ele>
        <time>2021-04-18T14:01:50Z</time>
      </trkpt>
      <trkpt lat="43.96203" lon="2.34488">
        <ele>415</ele>
        <time>2021-04-18T14:01:51Z</time>
      </trkpt>
      <trkpt lat="43.96201" lon="2.34489">
        <ele>414</ele>
        <time>2021-04-18T14:01:52Z</time>
      </trkpt>
      <trkpt lat="43.96201" lon="2.34491">
        <ele>415</ele>
        <time>2021-04-18T14:01:53Z</time>
      </trkpt>
      <trkpt lat="43.962" lon="2.34492">
        <ele>415</ele>
        <time>2021-04-18T14:01:54Z</time>
      </trkpt>
      <trkpt lat="43.96199" lon="2.34493">
        <ele>416</ele>
        <time>2021-04-18T14:01:55Z</time>
      </trkpt>
      <trkpt lat="43.96199" lon="2.34494">
        <ele>416</ele>
        <time>2021-04-18T14:01:56Z</time>
      </trkpt>
      <trkpt lat="43.96199" lon="2.34494">
        <ele>416</ele>
        <time>2021-04-18T14:01:57Z</time>
      </trkpt>
      <trkpt lat="43.96199" lon="2.34494">
        <ele>416</ele>
        <time>2021-04-18T14:01:58Z</time>
      </trkpt>
      <trkpt lat="43.96198" lon="2.34499">
        <ele>415</ele>
        <time>2021-04-18T14:01:59Z</time>
      </trkpt>
      <trkpt lat="43.96198" lon="2.34501">
        <ele>414</ele>
        <time>2021-04-18T14:02:00Z</time>
      </trkpt>
      <trkpt lat="43.96197" lon="2.34502">
        <ele>415</ele>
        <time>2021-04-18T14:02:01Z</time>
      </trkpt>
      <trkpt lat="43.96197" lon="2.34504">
        <ele>414</ele>
        <time>2021-04-18T14:02:02Z</time>
      </trkpt>
      <trkpt lat="43.96198" lon="2.34505">
        <ele>415</ele>
        <time>2021-04-18T14:02:03Z</time>
      </trkpt>
      <trkpt lat="43.96198" lon="2.34506">
        <ele>415</ele>
        <time>2021-04-18T14:02:04Z</time>
      </trkpt>
      <trkpt lat="43.96197" lon="2.34508">
        <ele>416</ele>
        <time>2021-04-18T14:02:05Z</time>
      </trkpt>
      <trkpt lat="43.96197" lon="2.34509">
        <ele>417</ele>
        <time>2021-04-18T14:02:06Z</time>
      </trkpt>
      <trkpt lat="43.96197" lon="2.3451">
        <ele>417</ele>
        <time>2021-04-18T14:02:07Z</time>
      </trkpt>
      <trkpt lat="43.96196" lon="2.34512">
        <ele>417</ele>
        <time>2021-04-18T14:02:08Z</time>
      </trkpt>
      <trkpt lat="43.96196" lon="2.34513">
        <ele>417</ele>
        <time>2021-04-18T14:02:09Z</time>
      </trkpt>
      <trkpt lat="43.96195" lon="2.34515">
        <ele>418</ele>
        <time>2021-04-18T14:02:10Z</time>
      </trkpt>
      <trkpt lat="43.96195" lon="2.34516">
        <ele>417</ele>
        <time>2021-04-18T14:02:11Z</time>
      </trkpt>
      <trkpt lat="43.96195" lon="2.34518">
        <ele>417</ele>
        <time>2021-04-18T14:02:12Z</time>
      </trkpt>
      <trkpt lat="43.96195" lon="2.34521">
        <ele>418</ele>
        <time>2021-04-18T14:02:13Z</time>
      </trkpt>
      <trkpt lat="43.96195" lon="2.34522">
        <ele>417</ele>
        <time>2021-04-18T14:02:14Z</time>
      </trkpt>
      <trkpt lat="43.96195" lon="2.34524">
        <ele>418</ele>
        <time>2021-04-18T14:02:15Z</time>
      </trkpt>
      <trkpt lat="43.96195" lon="2.34526">
        <ele>419</ele>
        <time>2021-04-18T14:02:16Z</time>
      </trkpt>
      <trkpt lat="43.96194" lon="2.34528">
        <ele>419</ele>
        <time>2021-04-18T14:02:17Z</time>
      </trkpt>
      <trkpt lat="43.96194" lon="2.34529">
        <ele>419</ele>
        <time>2021-04-18T14:02:18Z</time>
      </trkpt>
      <trkpt lat="43.96193" lon="2.34531">
        <ele>419</ele>
        <time>2021-04-18T14:02:19Z</time>
      </trkpt>
      <trkpt lat="43.96193" lon="2.34532">
        <ele>418</ele>
        <time>2021-04-18T14:02:20Z</time>
      </trkpt>
      <trkpt lat="43.96193" lon="2.34534">
        <ele>419</ele>
        <time>2021-04-18T14:02:21Z</time>
      </trkpt>
      <trkpt lat="43.96192" lon="2.34536">
        <ele>418</ele>
        <time>2021-04-18T14:02:22Z</time>
      </trkpt>
      <trkpt lat="43.96192" lon="2.34538">
        <ele>418</ele>
        <time>2021-04-18T14:02:23Z</time>
      </trkpt>
      <trkpt lat="43.96191" lon="2.3454">
        <ele>418</ele>
        <time>2021-04-18T14:02:24Z</time>
      </trkpt>
      <trkpt lat="43.96191" lon="2.34542">
        <ele>418</ele>
        <time>2021-04-18T14:02:25Z</time>
      </trkpt>
      <trkpt lat="43.96191" lon="2.34544">
        <ele>418</ele>
        <time>2021-04-18T14:02:26Z</time>
      </trkpt>
      <trkpt lat="43.96191" lon="2.34547">
        <ele>418</ele>
        <time>2021-04-18T14:02:27Z</time>
      </trkpt>
      <trkpt lat="43.96191" lon="2.34548">
        <ele>418</ele>
        <time>2021-04-18T14:02:28Z</time>
      </trkpt>
      <trkpt lat="43.9619" lon="2.34549">
        <ele>418</ele>
        <time>2021-04-18T14:02:29Z</time>
      </trkpt>
      <trkpt lat="43.9619" lon="2.3455">
        <ele>417</ele>
        <time>2021-04-18T14:02:30Z</time>
      </trkpt>
      <trkpt lat="43.9619" lon="2.34551">
        <ele>417</ele>
        <time>2021-04-18T14:02:31Z</time>
      </trkpt>
      <trkpt lat="43.9619" lon="2.34553">
        <ele>418</ele>
        <time>2021-04-18T14:02:32Z</time>
      </trkpt>
      <trkpt lat="43.96188" lon="2.34554">
        <ele>418</ele>
        <time>2021-04-18T14:02:33Z</time>
      </trkpt>
      <trkpt lat="43.96188" lon="2.34557">
        <ele>419</ele>
        <time>2021-04-18T14:02:34Z</time>
      </trkpt>
      <trkpt lat="43.96187" lon="2.34559">
        <ele>419</ele>
        <time>2021-04-18T14:02:35Z</time>
      </trkpt>
      <trkpt lat="43.96186" lon="2.34561">
        <ele>419</ele>
        <time>2021-04-18T14:02:36Z</time>
      </trkpt>
      <trkpt lat="43.96186" lon="2.34563">
        <ele>419</ele>
        <time>2021-04-18T14:02:37Z</time>
      </trkpt>
      <trkpt lat="43.96186" lon="2.34565">
        <ele>420</ele>
        <time>2021-04-18T14:02:38Z</time>
      </trkpt>
      <trkpt lat="43.96186" lon="2.34566">
        <ele>420</ele>
        <time>2021-04-18T14:02:39Z</time>
      </trkpt>
      <trkpt lat="43.96186" lon="2.34567">
        <ele>421</ele>
        <time>2021-04-18T14:02:40Z</time>
      </trkpt>
      <trkpt lat="43.96185" lon="2.34569">
        <ele>421</ele>
        <time>2021-04-18T14:02:41Z</time>
      </trkpt>
      <trkpt lat="43.96185" lon="2.34571">
        <ele>422</ele>
        <time>2021-04-18T14:02:42Z</time>
      </trkpt>
      <trkpt lat="43.96184" lon="2.34573">
        <ele>423</ele>
        <time>2021-04-18T14:02:43Z</time>
      </trkpt>
      <trkpt lat="43.96183" lon="2.34574">
        <ele>423</ele>
        <time>2021-04-18T14:02:44Z</time>
      </trkpt>
      <trkpt lat="43.96182" lon="2.34576">
        <ele>423</ele>
        <time>2021-04-18T14:02:45Z</time>
      </trkpt>
      <trkpt lat="43.96183" lon="2.34577">
        <ele>423</ele>
        <time>2021-04-18T14:02:46Z</time>
      </trkpt>
      <trkpt lat="43.96183" lon="2.34579">
        <ele>423</ele>
        <time>2021-04-18T14:02:47Z</time>
      </trkpt>
      <trkpt lat="43.96183" lon="2.3458">
        <ele>424</ele>
        <time>2021-04-18T14:02:48Z</time>
      </trkpt>
      <trkpt lat="43.96183" lon="2.34581">
        <ele>424</ele>
        <time>2021-04-18T14:02:49Z</time>
      </trkpt>
      <trkpt lat="43.96183" lon="2.34581">
        <ele>424</ele>
        <time>2021-04-18T14:02:50Z</time>
      </trkpt>
      <trkpt lat="43.96183" lon="2.34583">
        <ele>424</ele>
        <time>2021-04-18T14:02:51Z</time>
      </trkpt>
      <trkpt lat="43.96183" lon="2.34584">
        <ele>424</ele>
        <time>2021-04-18T14:02:52Z</time>
      </trkpt>
      <trkpt lat="43.96184" lon="2.34586">
        <ele>424</ele>
        <time>2021-04-18T14:02:53Z</time>
      </trkpt>
      <trkpt lat="43.96184" lon="2.34587">
        <ele>424</ele>
        <time>2021-04-18T14:02:54Z</time>
      </trkpt>
      <trkpt lat="43.96184" lon="2.34588">
        <ele>424</ele>
        <time>2021-04-18T14:02:55Z</time>
      </trkpt>
      <trkpt lat="43.96184" lon="2.34589">
        <ele>423</ele>
        <time>2021-04-18T14:02:56Z</time>
      </trkpt>
      <trkpt lat="43.96185" lon="2.3459">
        <ele>424</ele>
        <time>2021-04-18T14:02:57Z</time>
      </trkpt>
      <trkpt lat="43.96185" lon="2.3459">
        <ele>424</ele>
        <time>2021-04-18T14:02:58Z</time>
      </trkpt>
      <trkpt lat="43.96185" lon="2.3459">
        <ele>424</ele>
        <time>2021-04-18T14:02:59Z</time>
      </trkpt>
      <trkpt lat="43.96186" lon="2.34595">
        <ele>425</ele>
        <time>2021-04-18T14:03:00Z</time>
      </trkpt>
      <trkpt lat="43.96186" lon="2.34597">
        <ele>426</ele>
        <time>2021-04-18T14:03:01Z</time>
      </trkpt>
      <trkpt lat="43.96186" lon="2.34598">
        <ele>426</ele>
        <time>2021-04-18T14:03:02Z</time>
      </trkpt>
      <trkpt lat="43.96187" lon="2.34599">
        <ele>426</ele>
        <time>2021-04-18T14:03:03Z</time>
      </trkpt>
      <trkpt lat="43.96188" lon="2.34601">
        <ele>426</ele>
        <time>2021-04-18T14:03:04Z</time>
      </trkpt>
      <trkpt lat="43.96188" lon="2.34603">
        <ele>427</ele>
        <time>2021-04-18T14:03:05Z</time>
      </trkpt>
      <trkpt lat="43.96188" lon="2.34604">
        <ele>427</ele>
        <time>2021-04-18T14:03:06Z</time>
      </trkpt>
      <trkpt lat="43.96188" lon="2.34606">
        <ele>428</ele>
        <time>2021-04-18T14:03:07Z</time>
      </trkpt>
      <trkpt lat="43.96188" lon="2.34607">
        <ele>429</ele>
        <time>2021-04-18T14:03:08Z</time>
      </trkpt>
      <trkpt lat="43.96189" lon="2.34609">
        <ele>430</ele>
        <time>2021-04-18T14:03:09Z</time>
      </trkpt>
      <trkpt lat="43.96188" lon="2.3461">
        <ele>430</ele>
        <time>2021-04-18T14:03:10Z</time>
      </trkpt>
      <trkpt lat="43.96189" lon="2.34612">
        <ele>430</ele>
        <time>2021-04-18T14:03:11Z</time>
      </trkpt>
      <trkpt lat="43.9619" lon="2.34613">
        <ele>429</ele>
        <time>2021-04-18T14:03:12Z</time>
      </trkpt>
      <trkpt lat="43.96191" lon="2.34615">
        <ele>428</ele>
        <time>2021-04-18T14:03:13Z</time>
      </trkpt>
      <trkpt lat="43.96192" lon="2.34617">
        <ele>428</ele>
        <time>2021-04-18T14:03:14Z</time>
      </trkpt>
      <trkpt lat="43.96193" lon="2.34619">
        <ele>428</ele>
        <time>2021-04-18T14:03:15Z</time>
      </trkpt>
      <trkpt lat="43.96193" lon="2.34621">
        <ele>429</ele>
        <time>2021-04-18T14:03:16Z</time>
      </trkpt>
      <trkpt lat="43.96194" lon="2.34623">
        <ele>429</ele>
        <time>2021-04-18T14:03:17Z</time>
      </trkpt>
      <trkpt lat="43.96194" lon="2.34625">
        <ele>430</ele>
        <time>2021-04-18T14:03:18Z</time>
      </trkpt>
      <trkpt lat="43.96195" lon="2.34626">
        <ele>431</ele>
        <time>2021-04-18T14:03:19Z</time>
      </trkpt>
      <trkpt lat="43.96195" lon="2.34628">
        <ele>431</ele>
        <time>2021-04-18T14:03:20Z</time>
      </trkpt>
      <trkpt lat="43.96195" lon="2.34629">
        <ele>431</ele>
        <time>2021-04-18T14:03:21Z</time>
      </trkpt>
      <trkpt lat="43.96196" lon="2.3463">
        <ele>431</ele>
        <time>2021-04-18T14:03:22Z</time>
      </trkpt>
      <trkpt lat="43.96196" lon="2.34631">
        <ele>431</ele>
        <time>2021-04-18T14:03:23Z</time>
      </trkpt>
      <trkpt lat="43.96197" lon="2.34633">
        <ele>431</ele>
        <time>2021-04-18T14:03:24Z</time>
      </trkpt>
      <trkpt lat="43.96197" lon="2.34633">
        <ele>430</ele>
        <time>2021-04-18T14:03:25Z</time>
      </trkpt>
      <trkpt lat="43.96198" lon="2.34634">
        <ele>431</ele>
        <time>2021-04-18T14:03:26Z</time>
      </trkpt>
      <trkpt lat="43.96198" lon="2.34635">
        <ele>431</ele>
        <time>2021-04-18T14:03:27Z</time>
      </trkpt>
      <trkpt lat="43.96199" lon="2.34637">
        <ele>431</ele>
        <time>2021-04-18T14:03:28Z</time>
      </trkpt>
      <trkpt lat="43.962" lon="2.34638">
        <ele>432</ele>
        <time>2021-04-18T14:03:29Z</time>
      </trkpt>
      <trkpt lat="43.96201" lon="2.3464">
        <ele>432</ele>
        <time>2021-04-18T14:03:30Z</time>
      </trkpt>
      <trkpt lat="43.96202" lon="2.34641">
        <ele>432</ele>
        <time>2021-04-18T14:03:31Z</time>
      </trkpt>
      <trkpt lat="43.96203" lon="2.34642">
        <ele>432</ele>
        <time>2021-04-18T14:03:32Z</time>
      </trkpt>
      <trkpt lat="43.96203" lon="2.34643">
        <ele>433</ele>
        <time>2021-04-18T14:03:33Z</time>
      </trkpt>
      <trkpt lat="43.96205" lon="2.34644">
        <ele>434</ele>
        <time>2021-04-18T14:03:34Z</time>
      </trkpt>
      <trkpt lat="43.96206" lon="2.34645">
        <ele>434</ele>
        <time>2021-04-18T14:03:35Z</time>
      </trkpt>
      <trkpt lat="43.96207" lon="2.34646">
        <ele>434</ele>
        <time>2021-04-18T14:03:36Z</time>
      </trkpt>
      <trkpt lat="43.96209" lon="2.34647">
        <ele>435</ele>
        <time>2021-04-18T14:03:37Z</time>
      </trkpt>
      <trkpt lat="43.96209" lon="2.34647">
        <ele>435</ele>
        <time>2021-04-18T14:03:38Z</time>
      </trkpt>
      <trkpt lat="43.96211" lon="2.34648">
        <ele>434</ele>
        <time>2021-04-18T14:03:39Z</time>
      </trkpt>
      <trkpt lat="43.96212" lon="2.34649">
        <ele>434</ele>
        <time>2021-04-18T14:03:40Z</time>
      </trkpt>
      <trkpt lat="43.96213" lon="2.34649">
        <ele>434</ele>
        <time>2021-04-18T14:03:41Z</time>
      </trkpt>
      <trkpt lat="43.96214" lon="2.34649">
        <ele>434</ele>
        <time>2021-04-18T14:03:42Z</time>
      </trkpt>
      <trkpt lat="43.96215" lon="2.34648">
        <ele>434</ele>
        <time>2021-04-18T14:03:43Z</time>
      </trkpt>
      <trkpt lat="43.96216" lon="2.34648">
        <ele>434</ele>
        <time>2021-04-18T14:03:44Z</time>
      </trkpt>
      <trkpt lat="43.96218" lon="2.34648">
        <ele>434</ele>
        <time>2021-04-18T14:03:45Z</time>
      </trkpt>
      <trkpt lat="43.9622" lon="2.34648">
        <ele>434</ele>
        <time>2021-04-18T14:03:46Z</time>
      </trkpt>
      <trkpt lat="43.96221" lon="2.34649">
        <ele>434</ele>
        <time>2021-04-18T14:03:47Z</time>
      </trkpt>
      <trkpt lat="43.96222" lon="2.34648">
        <ele>435</ele>
        <time>2021-04-18T14:03:48Z</time>
      </trkpt>
      <trkpt lat="43.96223" lon="2.34648">
        <ele>435</ele>
        <time>2021-04-18T14:03:49Z</time>
      </trkpt>
      <trkpt lat="43.96225" lon="2.34649">
        <ele>435</ele>
        <time>2021-04-18T14:03:50Z</time>
      </trkpt>
      <trkpt lat="43.96226" lon="2.34648">
        <ele>435</ele>
        <time>2021-04-18T14:03:51Z</time>
      </trkpt>
      <trkpt lat="43.96228" lon="2.34647">
        <ele>435</ele>
        <time>2021-04-18T14:03:52Z</time>
      </trkpt>
      <trkpt lat="43.96229" lon="2.34647">
        <ele>435</ele>
        <time>2021-04-18T14:03:53Z</time>
      </trkpt>
      <trkpt lat="43.9623" lon="2.34647">
        <ele>435</ele>
        <time>2021-04-18T14:03:54Z</time>
      </trkpt>
      <trkpt lat="43.96231" lon="2.34647">
        <ele>436</ele>
        <time>2021-04-18T14:03:55Z</time>
      </trkpt>
      <trkpt lat="43.96232" lon="2.34647">
        <ele>435</ele>
        <time>2021-04-18T14:03:56Z</time>
      </trkpt>
      <trkpt lat="43.96233" lon="2.34647">
        <ele>436</ele>
        <time>2021-04-18T14:03:57Z</time>
      </trkpt>
      <trkpt lat="43.96234" lon="2.34647">
        <ele>437</ele>
        <time>2021-04-18T14:03:58Z</time>
      </trkpt>
      <trkpt lat="43.96235" lon="2.34647">
        <ele>437</ele>
        <time>2021-04-18T14:03:59Z</time>
      </trkpt>
      <trkpt lat="43.96237" lon="2.34646">
        <ele>437</ele>
        <time>2021-04-18T14:04:00Z</time>
      </trkpt>
      <trkpt lat="43.96238" lon="2.34646">
        <ele>437</ele>
        <time>2021-04-18T14:04:01Z</time>
      </trkpt>
      <trkpt lat="43.9624" lon="2.34645">
        <ele>437</ele>
        <time>2021-04-18T14:04:02Z</time>
      </trkpt>
      <trkpt lat="43.96241" lon="2.34644">
        <ele>437</ele>
        <time>2021-04-18T14:04:03Z</time>
      </trkpt>
      <trkpt lat="43.96242" lon="2.34643">
        <ele>438</ele>
        <time>2021-04-18T14:04:04Z</time>
      </trkpt>
      <trkpt lat="43.96244" lon="2.34642">
        <ele>438</ele>
        <time>2021-04-18T14:04:05Z</time>
      </trkpt>
      <trkpt lat="43.96245" lon="2.34642">
        <ele>439</ele>
        <time>2021-04-18T14:04:06Z</time>
      </trkpt>
      <trkpt lat="43.96246" lon="2.34641">
        <ele>439</ele>
        <time>2021-04-18T14:04:07Z</time>
      </trkpt>
      <trkpt lat="43.96247" lon="2.3464">
        <ele>439</ele>
        <time>2021-04-18T14:04:08Z</time>
      </trkpt>
      <trkpt lat="43.96248" lon="2.34639">
        <ele>439</ele>
        <time>2021-04-18T14:04:09Z</time>
      </trkpt>
      <trkpt lat="43.96249" lon="2.34638">
        <ele>439</ele>
        <time>2021-04-18T14:04:10Z</time>
      </trkpt>
      <trkpt lat="43.96251" lon="2.34637">
        <ele>439</ele>
        <time>2021-04-18T14:04:11Z</time>
      </trkpt>
      <trkpt lat="43.96251" lon="2.34636">
        <ele>439</ele>
        <time>2021-04-18T14:04:12Z</time>
      </trkpt>
      <trkpt lat="43.96252" lon="2.34634">
        <ele>439</ele>
        <time>2021-04-18T14:04:13Z</time>
      </trkpt>
      <trkpt lat="43.96254" lon="2.34634">
        <ele>439</ele>
        <time>2021-04-18T14:04:14Z</time>
      </trkpt>
      <trkpt lat="43.96254" lon="2.34633">
        <ele>438</ele>
        <time>2021-04-18T14:04:15Z</time>
      </trkpt>
      <trkpt lat="43.96255" lon="2.34632">
        <ele>439</ele>
        <time>2021-04-18T14:04:16Z</time>
      </trkpt>
      <trkpt lat="43.96255" lon="2.34632">
        <ele>439</ele>
        <time>2021-04-18T14:04:17Z</time>
      </trkpt>
      <trkpt lat="43.96255" lon="2.34632">
        <ele>439</ele>
        <time>2021-04-18T14:04:18Z</time>
      </trkpt>
      <trkpt lat="43.96257" lon="2.3463">
        <ele>439</ele>
        <time>2021-04-18T14:04:19Z</time>
      </trkpt>
      <trkpt lat="43.96258" lon="2.34629">
        <ele>439</ele>
        <time>2021-04-18T14:04:20Z</time>
      </trkpt>
      <trkpt lat="43.96259" lon="2.34628">
        <ele>440</ele>
        <time>2021-04-18T14:04:21Z</time>
      </trkpt>
      <trkpt lat="43.9626" lon="2.34626">
        <ele>441</ele>
        <time>2021-04-18T14:04:22Z</time>
      </trkpt>
      <trkpt lat="43.96262" lon="2.34625">
        <ele>441</ele>
        <time>2021-04-18T14:04:23Z</time>
      </trkpt>
      <trkpt lat="43.96264" lon="2.34623">
        <ele>441</ele>
        <time>2021-04-18T14:04:24Z</time>
      </trkpt>
      <trkpt lat="43.96264" lon="2.34621">
        <ele>440</ele>
        <time>2021-04-18T14:04:25Z</time>
      </trkpt>
      <trkpt lat="43.96265" lon="2.3462">
        <ele>441</ele>
        <time>2021-04-18T14:04:26Z</time>
      </trkpt>
      <trkpt lat="43.96267" lon="2.34619">
        <ele>440</ele>
        <time>2021-04-18T14:04:27Z</time>
      </trkpt>
      <trkpt lat="43.96268" lon="2.34617">
        <ele>440</ele>
        <time>2021-04-18T14:04:28Z</time>
      </trkpt>
      <trkpt lat="43.96269" lon="2.34615">
        <ele>440</ele>
        <time>2021-04-18T14:04:29Z</time>
      </trkpt>
      <trkpt lat="43.9627" lon="2.34613">
        <ele>440</ele>
        <time>2021-04-18T14:04:30Z</time>
      </trkpt>
      <trkpt lat="43.96271" lon="2.34611">
        <ele>440</ele>
        <time>2021-04-18T14:04:31Z</time>
      </trkpt>
      <trkpt lat="43.96272" lon="2.34609">
        <ele>441</ele>
        <time>2021-04-18T14:04:32Z</time>
      </trkpt>
      <trkpt lat="43.96273" lon="2.34607">
        <ele>440</ele>
        <time>2021-04-18T14:04:33Z</time>
      </trkpt>
      <trkpt lat="43.96274" lon="2.34605">
        <ele>440</ele>
        <time>2021-04-18T14:04:34Z</time>
      </trkpt>
      <trkpt lat="43.96275" lon="2.34603">
        <ele>440</ele>
        <time>2021-04-18T14:04:35Z</time>
      </trkpt>
      <trkpt lat="43.96276" lon="2.34601">
        <ele>440</ele>
        <time>2021-04-18T14:04:36Z</time>
      </trkpt>
      <trkpt lat="43.96277" lon="2.34599">
        <ele>441</ele>
        <time>2021-04-18T14:04:37Z</time>
      </trkpt>
      <trkpt lat="43.96278" lon="2.34598">
        <ele>441</ele>
        <time>2021-04-18T14:04:38Z</time>
      </trkpt>
      <trkpt lat="43.96279" lon="2.34596">
        <ele>441</ele>
        <time>2021-04-18T14:04:39Z</time>
      </trkpt>
      <trkpt lat="43.9628" lon="2.34594">
        <ele>441</ele>
        <time>2021-04-18T14:04:40Z</time>
      </trkpt>
      <trkpt lat="43.96281" lon="2.34592">
        <ele>441</ele>
        <time>2021-04-18T14:04:41Z</time>
      </trkpt>
      <trkpt lat="43.96282" lon="2.3459">
        <ele>441</ele>
        <time>2021-04-18T14:04:42Z</time>
      </trkpt>
      <trkpt lat="43.96283" lon="2.34588">
        <ele>441</ele>
        <time>2021-04-18T14:04:43Z</time>
      </trkpt>
      <trkpt lat="43.96284" lon="2.34587">
        <ele>441</ele>
        <time>2021-04-18T14:04:44Z</time>
      </trkpt>
      <trkpt lat="43.96285" lon="2.34585">
        <ele>442</ele>
        <time>2021-04-18T14:04:45Z</time>
      </trkpt>
      <trkpt lat="43.96286" lon="2.34583">
        <ele>442</ele>
        <time>2021-04-18T14:04:46Z</time>
      </trkpt>
      <trkpt lat="43.96287" lon="2.34581">
        <ele>442</ele>
        <time>2021-04-18T14:04:47Z</time>
      </trkpt>
      <trkpt lat="43.96288" lon="2.3458">
        <ele>442</ele>
        <time>2021-04-18T14:04:48Z</time>
      </trkpt>
      <trkpt lat="43.96288" lon="2.34578">
        <ele>442</ele>
        <time>2021-04-18T14:04:49Z</time>
      </trkpt>
      <trkpt lat="43.96289" lon="2.34576">
        <ele>441</ele>
        <time>2021-04-18T14:04:50Z</time>
      </trkpt>
      <trkpt lat="43.9629" lon="2.34574">
        <ele>442</ele>
        <time>2021-04-18T14:04:51Z</time>
      </trkpt>
      <trkpt lat="43.96291" lon="2.34573">
        <ele>442</ele>
        <time>2021-04-18T14:04:52Z</time>
      </trkpt>
      <trkpt lat="43.96292" lon="2.34571">
        <ele>442</ele>
        <time>2021-04-18T14:04:53Z</time>
      </trkpt>
      <trkpt lat="43.96293" lon="2.34569">
        <ele>443</ele>
        <time>2021-04-18T14:04:54Z</time>
      </trkpt>
      <trkpt lat="43.96294" lon="2.34568">
        <ele>443</ele>
        <time>2021-04-18T14:04:55Z</time>
      </trkpt>
      <trkpt lat="43.96295" lon="2.34566">
        <ele>444</ele>
        <time>2021-04-18T14:04:56Z</time>
      </trkpt>
      <trkpt lat="43.96296" lon="2.34565">
        <ele>444</ele>
        <time>2021-04-18T14:04:57Z</time>
      </trkpt>
      <trkpt lat="43.96297" lon="2.34564">
        <ele>444</ele>
        <time>2021-04-18T14:04:58Z</time>
      </trkpt>
      <trkpt lat="43.96298" lon="2.34562">
        <ele>444</ele>
        <time>2021-04-18T14:04:59Z</time>
      </trkpt>
      <trkpt lat="43.96298" lon="2.34561">
        <ele>444</ele>
        <time>2021-04-18T14:05:00Z</time>
      </trkpt>
      <trkpt lat="43.96299" lon="2.3456">
        <ele>444</ele>
        <time>2021-04-18T14:05:01Z</time>
      </trkpt>
      <trkpt lat="43.963" lon="2.34559">
        <ele>445</ele>
        <time>2021-04-18T14:05:02Z</time>
      </trkpt>
      <trkpt lat="43.96301" lon="2.34558">
        <ele>445</ele>
        <time>2021-04-18T14:05:03Z</time>
      </trkpt>
      <trkpt lat="43.96303" lon="2.34557">
        <ele>445</ele>
        <time>2021-04-18T14:05:04Z</time>
      </trkpt>
      <trkpt lat="43.96304" lon="2.34555">
        <ele>444</ele>
        <time>2021-04-18T14:05:05Z</time>
      </trkpt>
      <trkpt lat="43.96306" lon="2.34554">
        <ele>444</ele>
        <time>2021-04-18T14:05:06Z</time>
      </trkpt>
      <trkpt lat="43.96307" lon="2.34552">
        <ele>444</ele>
        <time>2021-04-18T14:05:07Z</time>
      </trkpt>
      <trkpt lat="43.96308" lon="2.3455">
        <ele>444</ele>
        <time>2021-04-18T14:05:08Z</time>
      </trkpt>
      <trkpt lat="43.96309" lon="2.34549">
        <ele>443</ele>
        <time>2021-04-18T14:05:09Z</time>
      </trkpt>
      <trkpt lat="43.9631" lon="2.34547">
        <ele>443</ele>
        <time>2021-04-18T14:05:10Z</time>
      </trkpt>
      <trkpt lat="43.96311" lon="2.34546">
        <ele>443</ele>
        <time>2021-04-18T14:05:11Z</time>
      </trkpt>
      <trkpt lat="43.96312" lon="2.34544">
        <ele>444</ele>
        <time>2021-04-18T14:05:12Z</time>
      </trkpt>
      <trkpt lat="43.96314" lon="2.34542">
        <ele>444</ele>
        <time>2021-04-18T14:05:13Z</time>
      </trkpt>
      <trkpt lat="43.96314" lon="2.3454">
        <ele>444</ele>
        <time>2021-04-18T14:05:14Z</time>
      </trkpt>
      <trkpt lat="43.96315" lon="2.34538">
        <ele>444</ele>
        <time>2021-04-18T14:05:15Z</time>
      </trkpt>
      <trkpt lat="43.96316" lon="2.34537">
        <ele>445</ele>
        <time>2021-04-18T14:05:16Z</time>
      </trkpt>
      <trkpt lat="43.96317" lon="2.34536">
        <ele>445</ele>
        <time>2021-04-18T14:05:17Z</time>
      </trkpt>
      <trkpt lat="43.96318" lon="2.34535">
        <ele>446</ele>
        <time>2021-04-18T14:05:18Z</time>
      </trkpt>
      <trkpt lat="43.96319" lon="2.34534">
        <ele>446</ele>
        <time>2021-04-18T14:05:19Z</time>
      </trkpt>
      <trkpt lat="43.9632" lon="2.34533">
        <ele>446</ele>
        <time>2021-04-18T14:05:20Z</time>
      </trkpt>
      <trkpt lat="43.96321" lon="2.34531">
        <ele>447</ele>
        <time>2021-04-18T14:05:21Z</time>
      </trkpt>
      <trkpt lat="43.96322" lon="2.3453">
        <ele>447</ele>
        <time>2021-04-18T14:05:22Z</time>
      </trkpt>
      <trkpt lat="43.96323" lon="2.34529">
        <ele>446</ele>
        <time>2021-04-18T14:05:23Z</time>
      </trkpt>
      <trkpt lat="43.96325" lon="2.34527">
        <ele>446</ele>
        <time>2021-04-18T14:05:24Z</time>
      </trkpt>
      <trkpt lat="43.96326" lon="2.34526">
        <ele>446</ele>
        <time>2021-04-18T14:05:25Z</time>
      </trkpt>
      <trkpt lat="43.96327" lon="2.34525">
        <ele>446</ele>
        <time>2021-04-18T14:05:26Z</time>
      </trkpt>
      <trkpt lat="43.96328" lon="2.34523">
        <ele>446</ele>
        <time>2021-04-18T14:05:27Z</time>
      </trkpt>
      <trkpt lat="43.96329" lon="2.34522">
        <ele>446</ele>
        <time>2021-04-18T14:05:28Z</time>
      </trkpt>
      <trkpt lat="43.9633" lon="2.34521">
        <ele>446</ele>
        <time>2021-04-18T14:05:29Z</time>
      </trkpt>
      <trkpt lat="43.96331" lon="2.34519">
        <ele>446</ele>
        <time>2021-04-18T14:05:30Z</time>
      </trkpt>
      <trkpt lat="43.96331" lon="2.34519">
        <ele>445</ele>
        <time>2021-04-18T14:05:31Z</time>
      </trkpt>
      <trkpt lat="43.96332" lon="2.34518">
        <ele>445</ele>
        <time>2021-04-18T14:05:32Z</time>
      </trkpt>
      <trkpt lat="43.96333" lon="2.34517">
        <ele>445</ele>
        <time>2021-04-18T14:05:33Z</time>
      </trkpt>
      <trkpt lat="43.96334" lon="2.34516">
        <ele>445</ele>
        <time>2021-04-18T14:05:34Z</time>
      </trkpt>
      <trkpt lat="43.96336" lon="2.34514">
        <ele>446</ele>
        <time>2021-04-18T14:05:35Z</time>
      </trkpt>
      <trkpt lat="43.96337" lon="2.34513">
        <ele>446</ele>
        <time>2021-04-18T14:05:36Z</time>
      </trkpt>
      <trkpt lat="43.96338" lon="2.34512">
        <ele>446</ele>
        <time>2021-04-18T14:05:37Z</time>
      </trkpt>
      <trkpt lat="43.96339" lon="2.3451">
        <ele>446</ele>
        <time>2021-04-18T14:05:38Z</time>
      </trkpt>
      <trkpt lat="43.9634" lon="2.34509">
        <ele>446</ele>
        <time>2021-04-18T14:05:39Z</time>
      </trkpt>
      <trkpt lat="43.96341" lon="2.34507">
        <ele>446</ele>
        <time>2021-04-18T14:05:40Z</time>
      </trkpt>
      <trkpt lat="43.96342" lon="2.34506">
        <ele>445</ele>
        <time>2021-04-18T14:05:41Z</time>
      </trkpt>
      <trkpt lat="43.96343" lon="2.34504">
        <ele>445</ele>
        <time>2021-04-18T14:05:42Z</time>
      </trkpt>
      <trkpt lat="43.96344" lon="2.34503">
        <ele>445</ele>
        <time>2021-04-18T14:05:43Z</time>
      </trkpt>
      <trkpt lat="43.96345" lon="2.34502">
        <ele>446</ele>
        <time>2021-04-18T14:05:44Z</time>
      </trkpt>
      <trkpt lat="43.96346" lon="2.345">
        <ele>446</ele>
        <time>2021-04-18T14:05:45Z</time>
      </trkpt>
      <trkpt lat="43.96346" lon="2.34498">
        <ele>446</ele>
        <time>2021-04-18T14:05:46Z</time>
      </trkpt>
      <trkpt lat="43.96347" lon="2.34497">
        <ele>447</ele>
        <time>2021-04-18T14:05:47Z</time>
      </trkpt>
      <trkpt lat="43.96348" lon="2.34495">
        <ele>447</ele>
        <time>2021-04-18T14:05:48Z</time>
      </trkpt>
      <trkpt lat="43.96349" lon="2.34493">
        <ele>447</ele>
        <time>2021-04-18T14:05:49Z</time>
      </trkpt>
      <trkpt lat="43.96351" lon="2.34492">
        <ele>447</ele>
        <time>2021-04-18T14:05:50Z</time>
      </trkpt>
      <trkpt lat="43.96352" lon="2.34491">
        <ele>447</ele>
        <time>2021-04-18T14:05:51Z</time>
      </trkpt>
      <trkpt lat="43.96353" lon="2.34489">
        <ele>447</ele>
        <time>2021-04-18T14:05:52Z</time>
      </trkpt>
      <trkpt lat="43.96354" lon="2.34488">
        <ele>447</ele>
        <time>2021-04-18T14:05:53Z</time>
      </trkpt>
      <trkpt lat="43.96355" lon="2.34487">
        <ele>447</ele>
        <time>2021-04-18T14:05:54Z</time>
      </trkpt>
      <trkpt lat="43.96356" lon="2.34485">
        <ele>447</ele>
        <time>2021-04-18T14:05:55Z</time>
      </trkpt>
      <trkpt lat="43.96357" lon="2.34483">
        <ele>446</ele>
        <time>2021-04-18T14:05:56Z</time>
      </trkpt>
      <trkpt lat="43.96358" lon="2.34482">
        <ele>446</ele>
        <time>2021-04-18T14:05:57Z</time>
      </trkpt>
      <trkpt lat="43.9636" lon="2.3448">
        <ele>446</ele>
        <time>2021-04-18T14:05:58Z</time>
      </trkpt>
      <trkpt lat="43.96361" lon="2.34479">
        <ele>445</ele>
        <time>2021-04-18T14:05:59Z</time>
      </trkpt>
      <trkpt lat="43.96362" lon="2.34478">
        <ele>445</ele>
        <time>2021-04-18T14:06:00Z</time>
      </trkpt>
      <trkpt lat="43.96363" lon="2.34477">
        <ele>445</ele>
        <time>2021-04-18T14:06:01Z</time>
      </trkpt>
      <trkpt lat="43.96364" lon="2.34476">
        <ele>445</ele>
        <time>2021-04-18T14:06:02Z</time>
      </trkpt>
      <trkpt lat="43.96365" lon="2.34475">
        <ele>445</ele>
        <time>2021-04-18T14:06:03Z</time>
      </trkpt>
      <trkpt lat="43.96366" lon="2.34473">
        <ele>445</ele>
        <time>2021-04-18T14:06:04Z</time>
      </trkpt>
      <trkpt lat="43.96366" lon="2.34472">
        <ele>446</ele>
        <time>2021-04-18T14:06:05Z</time>
      </trkpt>
      <trkpt lat="43.96367" lon="2.34471">
        <ele>446</ele>
        <time>2021-04-18T14:06:06Z</time>
      </trkpt>
      <trkpt lat="43.96368" lon="2.34469">
        <ele>446</ele>
        <time>2021-04-18T14:06:07Z</time>
      </trkpt>
      <trkpt lat="43.96369" lon="2.34468">
        <ele>446</ele>
        <time>2021-04-18T14:06:08Z</time>
      </trkpt>
      <trkpt lat="43.9637" lon="2.34465">
        <ele>446</ele>
        <time>2021-04-18T14:06:09Z</time>
      </trkpt>
      <trkpt lat="43.96371" lon="2.34464">
        <ele>446</ele>
        <time>2021-04-18T14:06:10Z</time>
      </trkpt>
      <trkpt lat="43.96372" lon="2.34462">
        <ele>447</ele>
        <time>2021-04-18T14:06:11Z</time>
      </trkpt>
      <trkpt lat="43.96373" lon="2.3446">
        <ele>447</ele>
        <time>2021-04-18T14:06:12Z</time>
      </trkpt>
      <trkpt lat="43.96374" lon="2.34458">
        <ele>447</ele>
        <time>2021-04-18T14:06:13Z</time>
      </trkpt>
      <trkpt lat="43.96375" lon="2.34457">
        <ele>447</ele>
        <time>2021-04-18T14:06:14Z</time>
      </trkpt>
      <trkpt lat="43.96376" lon="2.34456">
        <ele>447</ele>
        <time>2021-04-18T14:06:15Z</time>
      </trkpt>
      <trkpt lat="43.96377" lon="2.34454">
        <ele>447</ele>
        <time>2021-04-18T14:06:16Z</time>
      </trkpt>
      <trkpt lat="43.96378" lon="2.34453">
        <ele>448</ele>
        <time>2021-04-18T14:06:17Z</time>
      </trkpt>
      <trkpt lat="43.96379" lon="2.34451">
        <ele>447</ele>
        <time>2021-04-18T14:06:18Z</time>
      </trkpt>
      <trkpt lat="43.9638" lon="2.34449">
        <ele>447</ele>
        <time>2021-04-18T14:06:19Z</time>
      </trkpt>
      <trkpt lat="43.96381" lon="2.34448">
        <ele>447</ele>
        <time>2021-04-18T14:06:20Z</time>
      </trkpt>
      <trkpt lat="43.96381" lon="2.34447">
        <ele>447</ele>
        <time>2021-04-18T14:06:21Z</time>
      </trkpt>
      <trkpt lat="43.96382" lon="2.34445">
        <ele>447</ele>
        <time>2021-04-18T14:06:22Z</time>
      </trkpt>
      <trkpt lat="43.96382" lon="2.34444">
        <ele>447</ele>
        <time>2021-04-18T14:06:23Z</time>
      </trkpt>
      <trkpt lat="43.96383" lon="2.34442">
        <ele>447</ele>
        <time>2021-04-18T14:06:24Z</time>
      </trkpt>
      <trkpt lat="43.96384" lon="2.34441">
        <ele>448</ele>
        <time>2021-04-18T14:06:25Z</time>
      </trkpt>
      <trkpt lat="43.96384" lon="2.34439">
        <ele>448</ele>
        <time>2021-04-18T14:06:26Z</time>
      </trkpt>
      <trkpt lat="43.96386" lon="2.34438">
        <ele>448</ele>
        <time>2021-04-18T14:06:27Z</time>
      </trkpt>
      <trkpt lat="43.96387" lon="2.34436">
        <ele>448</ele>
        <time>2021-04-18T14:06:28Z</time>
      </trkpt>
      <trkpt lat="43.96388" lon="2.34434">
        <ele>448</ele>
        <time>2021-04-18T14:06:29Z</time>
      </trkpt>
      <trkpt lat="43.96389" lon="2.34433">
        <ele>448</ele>
        <time>2021-04-18T14:06:30Z</time>
      </trkpt>
      <trkpt lat="43.9639" lon="2.34431">
        <ele>448</ele>
        <time>2021-04-18T14:06:31Z</time>
      </trkpt>
      <trkpt lat="43.96391" lon="2.3443">
        <ele>448</ele>
        <time>2021-04-18T14:06:32Z</time>
      </trkpt>
      <trkpt lat="43.96392" lon="2.34429">
        <ele>448</ele>
        <time>2021-04-18T14:06:33Z</time>
      </trkpt>
      <trkpt lat="43.96394" lon="2.34427">
        <ele>448</ele>
        <time>2021-04-18T14:06:34Z</time>
      </trkpt>
      <trkpt lat="43.96395" lon="2.34426">
        <ele>448</ele>
        <time>2021-04-18T14:06:35Z</time>
      </trkpt>
      <trkpt lat="43.96396" lon="2.34424">
        <ele>448</ele>
        <time>2021-04-18T14:06:36Z</time>
      </trkpt>
      <trkpt lat="43.96397" lon="2.34422">
        <ele>448</ele>
        <time>2021-04-18T14:06:37Z</time>
      </trkpt>
      <trkpt lat="43.96398" lon="2.34421">
        <ele>447</ele>
        <time>2021-04-18T14:06:38Z</time>
      </trkpt>
      <trkpt lat="43.96399" lon="2.34419">
        <ele>448</ele>
        <time>2021-04-18T14:06:39Z</time>
      </trkpt>
      <trkpt lat="43.96401" lon="2.34417">
        <ele>448</ele>
        <time>2021-04-18T14:06:40Z</time>
      </trkpt>
      <trkpt lat="43.96402" lon="2.34415">
        <ele>448</ele>
        <time>2021-04-18T14:06:41Z</time>
      </trkpt>
      <trkpt lat="43.96402" lon="2.34414">
        <ele>448</ele>
        <time>2021-04-18T14:06:42Z</time>
      </trkpt>
      <trkpt lat="43.96403" lon="2.34413">
        <ele>448</ele>
        <time>2021-04-18T14:06:43Z</time>
      </trkpt>
      <trkpt lat="43.96404" lon="2.34411">
        <ele>448</ele>
        <time>2021-04-18T14:06:44Z</time>
      </trkpt>
      <trkpt lat="43.96405" lon="2.34409">
        <ele>449</ele>
        <time>2021-04-18T14:06:45Z</time>
      </trkpt>
      <trkpt lat="43.96406" lon="2.34408">
        <ele>448</ele>
        <time>2021-04-18T14:06:46Z</time>
      </trkpt>
      <trkpt lat="43.96407" lon="2.34406">
        <ele>448</ele>
        <time>2021-04-18T14:06:47Z</time>
      </trkpt>
      <trkpt lat="43.96408" lon="2.34404">
        <ele>448</ele>
        <time>2021-04-18T14:06:48Z</time>
      </trkpt>
      <trkpt lat="43.96409" lon="2.34403">
        <ele>448</ele>
        <time>2021-04-18T14:06:49Z</time>
      </trkpt>
      <trkpt lat="43.9641" lon="2.34401">
        <ele>447</ele>
        <time>2021-04-18T14:06:50Z</time>
      </trkpt>
      <trkpt lat="43.96411" lon="2.344">
        <ele>447</ele>
        <time>2021-04-18T14:06:51Z</time>
      </trkpt>
      <trkpt lat="43.96412" lon="2.34398">
        <ele>447</ele>
        <time>2021-04-18T14:06:52Z</time>
      </trkpt>
      <trkpt lat="43.96412" lon="2.34396">
        <ele>446</ele>
        <time>2021-04-18T14:06:53Z</time>
      </trkpt>
      <trkpt lat="43.96413" lon="2.34395">
        <ele>446</ele>
        <time>2021-04-18T14:06:54Z</time>
      </trkpt>
      <trkpt lat="43.96414" lon="2.34393">
        <ele>446</ele>
        <time>2021-04-18T14:06:55Z</time>
      </trkpt>
      <trkpt lat="43.96414" lon="2.34392">
        <ele>446</ele>
        <time>2021-04-18T14:06:56Z</time>
      </trkpt>
      <trkpt lat="43.96415" lon="2.34391">
        <ele>446</ele>
        <time>2021-04-18T14:06:57Z</time>
      </trkpt>
      <trkpt lat="43.96415" lon="2.34389">
        <ele>445</ele>
        <time>2021-04-18T14:06:58Z</time>
      </trkpt>
      <trkpt lat="43.96416" lon="2.34388">
        <ele>445</ele>
        <time>2021-04-18T14:06:59Z</time>
      </trkpt>
      <trkpt lat="43.96417" lon="2.34388">
        <ele>445</ele>
        <time>2021-04-18T14:07:00Z</time>
      </trkpt>
      <trkpt lat="43.96417" lon="2.34388">
        <ele>445</ele>
        <time>2021-04-18T14:07:01Z</time>
      </trkpt>
      <trkpt lat="43.96417" lon="2.34388">
        <ele>445</ele>
        <time>2021-04-18T14:07:02Z</time>
      </trkpt>
      <trkpt lat="43.96417" lon="2.34388">
        <ele>445</ele>
        <time>2021-04-18T14:07:03Z</time>
      </trkpt>
      <trkpt lat="43.96417" lon="2.34388">
        <ele>445</ele>
        <time>2021-04-18T14:07:04Z</time>
      </trkpt>
      <trkpt lat="43.96417" lon="2.34388">
        <ele>445</ele>
        <time>2021-04-18T14:07:04Z</time>
      </trkpt>
      <trkpt lat="43.96417" lon="2.34388">
        <ele>445</ele>
        <time>2021-04-18T14:07:04Z</time>
      </trkpt>
      <trkpt lat="43.9642" lon="2.34382">
        <ele>444</ele>
        <time>2021-04-18T14:07:12Z</time>
      </trkpt>
      <trkpt lat="43.96421" lon="2.34381">
        <ele>444</ele>
        <time>2021-04-18T14:07:13Z</time>
      </trkpt>
      <trkpt lat="43.96421" lon="2.3438">
        <ele>444</ele>
        <time>2021-04-18T14:07:14Z</time>
      </trkpt>
      <trkpt lat="43.96422" lon="2.34378">
        <ele>444</ele>
        <time>2021-04-18T14:07:15Z</time>
      </trkpt>
      <trkpt lat="43.96423" lon="2.34376">
        <ele>443</ele>
        <time>2021-04-18T14:07:16Z</time>
      </trkpt>
      <trkpt lat="43.96424" lon="2.34375">
        <ele>443</ele>
        <time>2021-04-18T14:07:17Z</time>
      </trkpt>
      <trkpt lat="43.96425" lon="2.34374">
        <ele>443</ele>
        <time>2021-04-18T14:07:18Z</time>
      </trkpt>
      <trkpt lat="43.96425" lon="2.34373">
        <ele>443</ele>
        <time>2021-04-18T14:07:19Z</time>
      </trkpt>
      <trkpt lat="43.96426" lon="2.34371">
        <ele>443</ele>
        <time>2021-04-18T14:07:20Z</time>
      </trkpt>
      <trkpt lat="43.96427" lon="2.34369">
        <ele>443</ele>
        <time>2021-04-18T14:07:21Z</time>
      </trkpt>
      <trkpt lat="43.96428" lon="2.34368">
        <ele>443</ele>
        <time>2021-04-18T14:07:22Z</time>
      </trkpt>
      <trkpt lat="43.96428" lon="2.34366">
        <ele>443</ele>
        <time>2021-04-18T14:07:23Z</time>
      </trkpt>
      <trkpt lat="43.96429" lon="2.34364">
        <ele>443</ele>
        <time>2021-04-18T14:07:24Z</time>
      </trkpt>
      <trkpt lat="43.96431" lon="2.34363">
        <ele>443</ele>
        <time>2021-04-18T14:07:25Z</time>
      </trkpt>
      <trkpt lat="43.96432" lon="2.34361">
        <ele>443</ele>
        <time>2021-04-18T14:07:26Z</time>
      </trkpt>
      <trkpt lat="43.96433" lon="2.3436">
        <ele>443</ele>
        <time>2021-04-18T14:07:27Z</time>
      </trkpt>
      <trkpt lat="43.96433" lon="2.34358">
        <ele>443</ele>
        <time>2021-04-18T14:07:28Z</time>
      </trkpt>
      <trkpt lat="43.96434" lon="2.34357">
        <ele>443</ele>
        <time>2021-04-18T14:07:29Z</time>
      </trkpt>
      <trkpt lat="43.96435" lon="2.34356">
        <ele>444</ele>
        <time>2021-04-18T14:07:30Z</time>
      </trkpt>
      <trkpt lat="43.96436" lon="2.34354">
        <ele>444</ele>
        <time>2021-04-18T14:07:31Z</time>
      </trkpt>
      <trkpt lat="43.96437" lon="2.34352">
        <ele>443</ele>
        <time>2021-04-18T14:07:32Z</time>
      </trkpt>
      <trkpt lat="43.96438" lon="2.34351">
        <ele>443</ele>
        <time>2021-04-18T14:07:33Z</time>
      </trkpt>
      <trkpt lat="43.96439" lon="2.34349">
        <ele>443</ele>
        <time>2021-04-18T14:07:34Z</time>
      </trkpt>
      <trkpt lat="43.9644" lon="2.34347">
        <ele>443</ele>
        <time>2021-04-18T14:07:35Z</time>
      </trkpt>
      <trkpt lat="43.96441" lon="2.34346">
        <ele>443</ele>
        <time>2021-04-18T14:07:36Z</time>
      </trkpt>
      <trkpt lat="43.96441" lon="2.34344">
        <ele>442</ele>
        <time>2021-04-18T14:07:37Z</time>
      </trkpt>
      <trkpt lat="43.96442" lon="2.34343">
        <ele>442</ele>
        <time>2021-04-18T14:07:38Z</time>
      </trkpt>
      <trkpt lat="43.96443" lon="2.34341">
        <ele>442</ele>
        <time>2021-04-18T14:07:39Z</time>
      </trkpt>
      <trkpt lat="43.96444" lon="2.34339">
        <ele>442</ele>
        <time>2021-04-18T14:07:40Z</time>
      </trkpt>
      <trkpt lat="43.96444" lon="2.34337">
        <ele>442</ele>
        <time>2021-04-18T14:07:41Z</time>
      </trkpt>
      <trkpt lat="43.96445" lon="2.34335">
        <ele>441</ele>
        <time>2021-04-18T14:07:42Z</time>
      </trkpt>
      <trkpt lat="43.96446" lon="2.34333">
        <ele>441</ele>
        <time>2021-04-18T14:07:43Z</time>
      </trkpt>
      <trkpt lat="43.96447" lon="2.34332">
        <ele>442</ele>
        <time>2021-04-18T14:07:44Z</time>
      </trkpt>
      <trkpt lat="43.96448" lon="2.34331">
        <ele>442</ele>
        <time>2021-04-18T14:07:45Z</time>
      </trkpt>
      <trkpt lat="43.96449" lon="2.3433">
        <ele>441</ele>
        <time>2021-04-18T14:07:46Z</time>
      </trkpt>
      <trkpt lat="43.96449" lon="2.34329">
        <ele>441</ele>
        <time>2021-04-18T14:07:47Z</time>
      </trkpt>
      <trkpt lat="43.9645" lon="2.34328">
        <ele>441</ele>
        <time>2021-04-18T14:07:48Z</time>
      </trkpt>
      <trkpt lat="43.9645" lon="2.34327">
        <ele>441</ele>
        <time>2021-04-18T14:07:49Z</time>
      </trkpt>
      <trkpt lat="43.9645" lon="2.34326">
        <ele>442</ele>
        <time>2021-04-18T14:07:50Z</time>
      </trkpt>
      <trkpt lat="43.96451" lon="2.34326">
        <ele>442</ele>
        <time>2021-04-18T14:07:51Z</time>
      </trkpt>
      <trkpt lat="43.96452" lon="2.34325">
        <ele>443</ele>
        <time>2021-04-18T14:07:52Z</time>
      </trkpt>
      <trkpt lat="43.96453" lon="2.34324">
        <ele>443</ele>
        <time>2021-04-18T14:07:53Z</time>
      </trkpt>
      <trkpt lat="43.96454" lon="2.34322">
        <ele>443</ele>
        <time>2021-04-18T14:07:54Z</time>
      </trkpt>
      <trkpt lat="43.96454" lon="2.34322">
        <ele>443</ele>
        <time>2021-04-18T14:07:54Z</time>
      </trkpt>
      <trkpt lat="43.96456" lon="2.3432">
        <ele>443</ele>
        <time>2021-04-18T14:07:56Z</time>
      </trkpt>
      <trkpt lat="43.96457" lon="2.34318">
        <ele>443</ele>
        <time>2021-04-18T14:07:57Z</time>
      </trkpt>
      <trkpt lat="43.96458" lon="2.34316">
        <ele>443</ele>
        <time>2021-04-18T14:07:58Z</time>
      </trkpt>
      <trkpt lat="43.9646" lon="2.34315">
        <ele>442</ele>
        <time>2021-04-18T14:07:59Z</time>
      </trkpt>
      <trkpt lat="43.96461" lon="2.34313">
        <ele>442</ele>
        <time>2021-04-18T14:08:00Z</time>
      </trkpt>
      <trkpt lat="43.96462" lon="2.34311">
        <ele>442</ele>
        <time>2021-04-18T14:08:01Z</time>
      </trkpt>
      <trkpt lat="43.96463" lon="2.3431">
        <ele>442</ele>
        <time>2021-04-18T14:08:02Z</time>
      </trkpt>
      <trkpt lat="43.96464" lon="2.34308">
        <ele>442</ele>
        <time>2021-04-18T14:08:03Z</time>
      </trkpt>
      <trkpt lat="43.96465" lon="2.34307">
        <ele>442</ele>
        <time>2021-04-18T14:08:04Z</time>
      </trkpt>
      <trkpt lat="43.96465" lon="2.34306">
        <ele>442</ele>
        <time>2021-04-18T14:08:05Z</time>
      </trkpt>
      <trkpt lat="43.96466" lon="2.34304">
        <ele>442</ele>
        <time>2021-04-18T14:08:06Z</time>
      </trkpt>
      <trkpt lat="43.96466" lon="2.34303">
        <ele>443</ele>
        <time>2021-04-18T14:08:07Z</time>
      </trkpt>
      <trkpt lat="43.96467" lon="2.34301">
        <ele>442</ele>
        <time>2021-04-18T14:08:08Z</time>
      </trkpt>
      <trkpt lat="43.96468" lon="2.34299">
        <ele>442</ele>
        <time>2021-04-18T14:08:09Z</time>
      </trkpt>
      <trkpt lat="43.96469" lon="2.34297">
        <ele>442</ele>
        <time>2021-04-18T14:08:10Z</time>
      </trkpt>
      <trkpt lat="43.9647" lon="2.34296">
        <ele>441</ele>
        <time>2021-04-18T14:08:11Z</time>
      </trkpt>
      <trkpt lat="43.9647" lon="2.34294">
        <ele>441</ele>
        <time>2021-04-18T14:08:12Z</time>
      </trkpt>
      <trkpt lat="43.96471" lon="2.34292">
        <ele>442</ele>
        <time>2021-04-18T14:08:13Z</time>
      </trkpt>
      <trkpt lat="43.96472" lon="2.3429">
        <ele>442</ele>
        <time>2021-04-18T14:08:14Z</time>
      </trkpt>
      <trkpt lat="43.96473" lon="2.34288">
        <ele>442</ele>
        <time>2021-04-18T14:08:15Z</time>
      </trkpt>
      <trkpt lat="43.96473" lon="2.34287">
        <ele>441</ele>
        <time>2021-04-18T14:08:16Z</time>
      </trkpt>
      <trkpt lat="43.96475" lon="2.34285">
        <ele>441</ele>
        <time>2021-04-18T14:08:17Z</time>
      </trkpt>
      <trkpt lat="43.96476" lon="2.34284">
        <ele>441</ele>
        <time>2021-04-18T14:08:18Z</time>
      </trkpt>
      <trkpt lat="43.96477" lon="2.34282">
        <ele>442</ele>
        <time>2021-04-18T14:08:19Z</time>
      </trkpt>
      <trkpt lat="43.96478" lon="2.3428">
        <ele>441</ele>
        <time>2021-04-18T14:08:20Z</time>
      </trkpt>
      <trkpt lat="43.96479" lon="2.34278">
        <ele>441</ele>
        <time>2021-04-18T14:08:21Z</time>
      </trkpt>
      <trkpt lat="43.9648" lon="2.34277">
        <ele>441</ele>
        <time>2021-04-18T14:08:22Z</time>
      </trkpt>
      <trkpt lat="43.96481" lon="2.34276">
        <ele>441</ele>
        <time>2021-04-18T14:08:23Z</time>
      </trkpt>
      <trkpt lat="43.96482" lon="2.34275">
        <ele>441</ele>
        <time>2021-04-18T14:08:24Z</time>
      </trkpt>
      <trkpt lat="43.96483" lon="2.34273">
        <ele>441</ele>
        <time>2021-04-18T14:08:25Z</time>
      </trkpt>
      <trkpt lat="43.96483" lon="2.34272">
        <ele>441</ele>
        <time>2021-04-18T14:08:26Z</time>
      </trkpt>
      <trkpt lat="43.96484" lon="2.3427">
        <ele>441</ele>
        <time>2021-04-18T14:08:27Z</time>
      </trkpt>
      <trkpt lat="43.96485" lon="2.34269">
        <ele>441</ele>
        <time>2021-04-18T14:08:28Z</time>
      </trkpt>
      <trkpt lat="43.96486" lon="2.34267">
        <ele>441</ele>
        <time>2021-04-18T14:08:29Z</time>
      </trkpt>
      <trkpt lat="43.96487" lon="2.34266">
        <ele>441</ele>
        <time>2021-04-18T14:08:30Z</time>
      </trkpt>
      <trkpt lat="43.96489" lon="2.34265">
        <ele>440</ele>
        <time>2021-04-18T14:08:31Z</time>
      </trkpt>
      <trkpt lat="43.9649" lon="2.34263">
        <ele>440</ele>
        <time>2021-04-18T14:08:32Z</time>
      </trkpt>
      <trkpt lat="43.96491" lon="2.34262">
        <ele>440</ele>
        <time>2021-04-18T14:08:33Z</time>
      </trkpt>
      <trkpt lat="43.96491" lon="2.34261">
        <ele>440</ele>
        <time>2021-04-18T14:08:34Z</time>
      </trkpt>
      <trkpt lat="43.96492" lon="2.34259">
        <ele>440</ele>
        <time>2021-04-18T14:08:35Z</time>
      </trkpt>
      <trkpt lat="43.96492" lon="2.34258">
        <ele>440</ele>
        <time>2021-04-18T14:08:36Z</time>
      </trkpt>
      <trkpt lat="43.96492" lon="2.34258">
        <ele>440</ele>
        <time>2021-04-18T14:08:37Z</time>
      </trkpt>
      <trkpt lat="43.96492" lon="2.34258">
        <ele>438</ele>
        <time>2021-04-18T14:08:38Z</time>
      </trkpt>
      <trkpt lat="43.96492" lon="2.34258">
        <ele>438</ele>
        <time>2021-04-18T14:08:38Z</time>
      </trkpt>
      <trkpt lat="43.96489" lon="2.34253">
        <ele>435</ele>
        <time>2021-04-18T14:08:45Z</time>
      </trkpt>
      <trkpt lat="43.96488" lon="2.34251">
        <ele>435</ele>
        <time>2021-04-18T14:08:46Z</time>
      </trkpt>
      <trkpt lat="43.96488" lon="2.34251">
        <ele>434</ele>
        <time>2021-04-18T14:08:47Z</time>
      </trkpt>
      <trkpt lat="43.96488" lon="2.34251">
        <ele>434</ele>
        <time>2021-04-18T14:08:48Z</time>
      </trkpt>
      <trkpt lat="43.96488" lon="2.34251">
        <ele>434</ele>
        <time>2021-04-18T14:08:48Z</time>
      </trkpt>
      <trkpt lat="43.96488" lon="2.3425">
        <ele>434</ele>
        <time>2021-04-18T14:08:51Z</time>
      </trkpt>
      <trkpt lat="43.96488" lon="2.34251">
        <ele>434</ele>
        <time>2021-04-18T14:08:52Z</time>
      </trkpt>
      <trkpt lat="43.96488" lon="2.34251">
        <ele>434</ele>
        <time>2021-04-18T14:08:53Z</time>
      </trkpt>
      <trkpt lat="43.96489" lon="2.3425">
        <ele>433</ele>
        <time>2021-04-18T14:08:54Z</time>
      </trkpt>
      <trkpt lat="43.96489" lon="2.3425">
        <ele>433</ele>
        <time>2021-04-18T14:08:55Z</time>
      </trkpt>
      <trkpt lat="43.96489" lon="2.3425">
        <ele>433</ele>
        <time>2021-04-18T14:08:55Z</time>
      </trkpt>
      <trkpt lat="43.96489" lon="2.3425">
        <ele>433</ele>
        <time>2021-04-18T14:08:55Z</time>
      </trkpt>
      <trkpt lat="43.96493" lon="2.34248">
        <ele>434</ele>
        <time>2021-04-18T14:09:26Z</time>
      </trkpt>
      <trkpt lat="43.96494" lon="2.34248">
        <ele>434</ele>
        <time>2021-04-18T14:09:27Z</time>
      </trkpt>
      <trkpt lat="43.96494" lon="2.34247">
        <ele>434</ele>
        <time>2021-04-18T14:09:28Z</time>
      </trkpt>
      <trkpt lat="43.96494" lon="2.34247">
        <ele>434</ele>
        <time>2021-04-18T14:09:29Z</time>
      </trkpt>
      <trkpt lat="43.96495" lon="2.34247">
        <ele>434</ele>
        <time>2021-04-18T14:09:30Z</time>
      </trkpt>
      <trkpt lat="43.96495" lon="2.34247">
        <ele>434</ele>
        <time>2021-04-18T14:09:31Z</time>
      </trkpt>
      <trkpt lat="43.96496" lon="2.34246">
        <ele>434</ele>
        <time>2021-04-18T14:09:32Z</time>
      </trkpt>
      <trkpt lat="43.96497" lon="2.34246">
        <ele>434</ele>
        <time>2021-04-18T14:09:33Z</time>
      </trkpt>
      <trkpt lat="43.96497" lon="2.34245">
        <ele>434</ele>
        <time>2021-04-18T14:09:34Z</time>
      </trkpt>
      <trkpt lat="43.96498" lon="2.34244">
        <ele>434</ele>
        <time>2021-04-18T14:09:35Z</time>
      </trkpt>
      <trkpt lat="43.96498" lon="2.34245">
        <ele>435</ele>
        <time>2021-04-18T14:09:36Z</time>
      </trkpt>
      <trkpt lat="43.96498" lon="2.34245">
        <ele>435</ele>
        <time>2021-04-18T14:09:36Z</time>
      </trkpt>
      <trkpt lat="43.96498" lon="2.34245">
        <ele>435</ele>
        <time>2021-04-18T14:09:36Z</time>
      </trkpt>
      <trkpt lat="43.96502" lon="2.34241">
        <ele>432</ele>
        <time>2021-04-18T14:10:09Z</time>
      </trkpt>
      <trkpt lat="43.96503" lon="2.3424">
        <ele>432</ele>
        <time>2021-04-18T14:10:10Z</time>
      </trkpt>
      <trkpt lat="43.96504" lon="2.34239">
        <ele>432</ele>
        <time>2021-04-18T14:10:11Z</time>
      </trkpt>
      <trkpt lat="43.96505" lon="2.34237">
        <ele>432</ele>
        <time>2021-04-18T14:10:12Z</time>
      </trkpt>
      <trkpt lat="43.96505" lon="2.34236">
        <ele>432</ele>
        <time>2021-04-18T14:10:13Z</time>
      </trkpt>
      <trkpt lat="43.96506" lon="2.34235">
        <ele>432</ele>
        <time>2021-04-18T14:10:14Z</time>
      </trkpt>
      <trkpt lat="43.96507" lon="2.34233">
        <ele>431</ele>
        <time>2021-04-18T14:10:15Z</time>
      </trkpt>
      <trkpt lat="43.96507" lon="2.34232">
        <ele>431</ele>
        <time>2021-04-18T14:10:16Z</time>
      </trkpt>
      <trkpt lat="43.96508" lon="2.3423">
        <ele>431</ele>
        <time>2021-04-18T14:10:17Z</time>
      </trkpt>
      <trkpt lat="43.96509" lon="2.34229">
        <ele>431</ele>
        <time>2021-04-18T14:10:18Z</time>
      </trkpt>
      <trkpt lat="43.9651" lon="2.34227">
        <ele>431</ele>
        <time>2021-04-18T14:10:19Z</time>
      </trkpt>
      <trkpt lat="43.96512" lon="2.34226">
        <ele>431</ele>
        <time>2021-04-18T14:10:20Z</time>
      </trkpt>
      <trkpt lat="43.96512" lon="2.34224">
        <ele>431</ele>
        <time>2021-04-18T14:10:21Z</time>
      </trkpt>
      <trkpt lat="43.96513" lon="2.34222">
        <ele>432</ele>
        <time>2021-04-18T14:10:22Z</time>
      </trkpt>
      <trkpt lat="43.96513" lon="2.3422">
        <ele>431</ele>
        <time>2021-04-18T14:10:23Z</time>
      </trkpt>
      <trkpt lat="43.96514" lon="2.34219">
        <ele>431</ele>
        <time>2021-04-18T14:10:24Z</time>
      </trkpt>
      <trkpt lat="43.96515" lon="2.34217">
        <ele>432</ele>
        <time>2021-04-18T14:10:25Z</time>
      </trkpt>
      <trkpt lat="43.96516" lon="2.34216">
        <ele>431</ele>
        <time>2021-04-18T14:10:26Z</time>
      </trkpt>
      <trkpt lat="43.96516" lon="2.34214">
        <ele>431</ele>
        <time>2021-04-18T14:10:27Z</time>
      </trkpt>
      <trkpt lat="43.96516" lon="2.34213">
        <ele>431</ele>
        <time>2021-04-18T14:10:28Z</time>
      </trkpt>
      <trkpt lat="43.96517" lon="2.34211">
        <ele>432</ele>
        <time>2021-04-18T14:10:29Z</time>
      </trkpt>
      <trkpt lat="43.96518" lon="2.3421">
        <ele>432</ele>
        <time>2021-04-18T14:10:30Z</time>
      </trkpt>
      <trkpt lat="43.96518" lon="2.34208">
        <ele>432</ele>
        <time>2021-04-18T14:10:31Z</time>
      </trkpt>
      <trkpt lat="43.96519" lon="2.34206">
        <ele>432</ele>
        <time>2021-04-18T14:10:32Z</time>
      </trkpt>
      <trkpt lat="43.9652" lon="2.34205">
        <ele>433</ele>
        <time>2021-04-18T14:10:33Z</time>
      </trkpt>
      <trkpt lat="43.96521" lon="2.34203">
        <ele>432</ele>
        <time>2021-04-18T14:10:34Z</time>
      </trkpt>
      <trkpt lat="43.96522" lon="2.34201">
        <ele>432</ele>
        <time>2021-04-18T14:10:35Z</time>
      </trkpt>
      <trkpt lat="43.96522" lon="2.342">
        <ele>432</ele>
        <time>2021-04-18T14:10:36Z</time>
      </trkpt>
      <trkpt lat="43.96523" lon="2.34198">
        <ele>432</ele>
        <time>2021-04-18T14:10:37Z</time>
      </trkpt>
      <trkpt lat="43.96523" lon="2.34197">
        <ele>432</ele>
        <time>2021-04-18T14:10:38Z</time>
      </trkpt>
      <trkpt lat="43.96524" lon="2.34195">
        <ele>432</ele>
        <time>2021-04-18T14:10:39Z</time>
      </trkpt>
      <trkpt lat="43.96524" lon="2.34193">
        <ele>432</ele>
        <time>2021-04-18T14:10:40Z</time>
      </trkpt>
      <trkpt lat="43.96525" lon="2.34191">
        <ele>432</ele>
        <time>2021-04-18T14:10:41Z</time>
      </trkpt>
      <trkpt lat="43.96526" lon="2.34189">
        <ele>432</ele>
        <time>2021-04-18T14:10:42Z</time>
      </trkpt>
      <trkpt lat="43.96527" lon="2.34187">
        <ele>432</ele>
        <time>2021-04-18T14:10:43Z</time>
      </trkpt>
      <trkpt lat="43.96528" lon="2.34185">
        <ele>432</ele>
        <time>2021-04-18T14:10:44Z</time>
      </trkpt>
      <trkpt lat="43.96528" lon="2.34183">
        <ele>432</ele>
        <time>2021-04-18T14:10:45Z</time>
      </trkpt>
      <trkpt lat="43.96529" lon="2.34181">
        <ele>431</ele>
        <time>2021-04-18T14:10:46Z</time>
      </trkpt>
      <trkpt lat="43.96529" lon="2.34179">
        <ele>432</ele>
        <time>2021-04-18T14:10:47Z</time>
      </trkpt>
      <trkpt lat="43.9653" lon="2.34177">
        <ele>432</ele>
        <time>2021-04-18T14:10:48Z</time>
      </trkpt>
      <trkpt lat="43.96531" lon="2.34175">
        <ele>432</ele>
        <time>2021-04-18T14:10:49Z</time>
      </trkpt>
      <trkpt lat="43.96531" lon="2.34174">
        <ele>431</ele>
        <time>2021-04-18T14:10:50Z</time>
      </trkpt>
      <trkpt lat="43.96532" lon="2.34172">
        <ele>432</ele>
        <time>2021-04-18T14:10:51Z</time>
      </trkpt>
      <trkpt lat="43.96533" lon="2.3417">
        <ele>431</ele>
        <time>2021-04-18T14:10:52Z</time>
      </trkpt>
      <trkpt lat="43.96533" lon="2.34168">
        <ele>431</ele>
        <time>2021-04-18T14:10:53Z</time>
      </trkpt>
      <trkpt lat="43.96534" lon="2.34166">
        <ele>431</ele>
        <time>2021-04-18T14:10:54Z</time>
      </trkpt>
      <trkpt lat="43.96534" lon="2.34165">
        <ele>431</ele>
        <time>2021-04-18T14:10:55Z</time>
      </trkpt>
      <trkpt lat="43.96535" lon="2.34163">
        <ele>431</ele>
        <time>2021-04-18T14:10:56Z</time>
      </trkpt>
      <trkpt lat="43.96536" lon="2.34161">
        <ele>431</ele>
        <time>2021-04-18T14:10:57Z</time>
      </trkpt>
      <trkpt lat="43.96537" lon="2.34159">
        <ele>431</ele>
        <time>2021-04-18T14:10:58Z</time>
      </trkpt>
      <trkpt lat="43.96537" lon="2.34157">
        <ele>431</ele>
        <time>2021-04-18T14:10:59Z</time>
      </trkpt>
      <trkpt lat="43.96539" lon="2.34155">
        <ele>430</ele>
        <time>2021-04-18T14:11:00Z</time>
      </trkpt>
      <trkpt lat="43.96539" lon="2.34154">
        <ele>430</ele>
        <time>2021-04-18T14:11:01Z</time>
      </trkpt>
      <trkpt lat="43.9654" lon="2.34152">
        <ele>430</ele>
        <time>2021-04-18T14:11:02Z</time>
      </trkpt>
      <trkpt lat="43.96541" lon="2.34151">
        <ele>430</ele>
        <time>2021-04-18T14:11:03Z</time>
      </trkpt>
      <trkpt lat="43.96542" lon="2.34149">
        <ele>430</ele>
        <time>2021-04-18T14:11:04Z</time>
      </trkpt>
      <trkpt lat="43.96542" lon="2.34147">
        <ele>431</ele>
        <time>2021-04-18T14:11:05Z</time>
      </trkpt>
      <trkpt lat="43.96543" lon="2.34145">
        <ele>431</ele>
        <time>2021-04-18T14:11:06Z</time>
      </trkpt>
      <trkpt lat="43.96544" lon="2.34143">
        <ele>432</ele>
        <time>2021-04-18T14:11:07Z</time>
      </trkpt>
      <trkpt lat="43.96545" lon="2.34141">
        <ele>432</ele>
        <time>2021-04-18T14:11:08Z</time>
      </trkpt>
      <trkpt lat="43.96546" lon="2.34139">
        <ele>432</ele>
        <time>2021-04-18T14:11:09Z</time>
      </trkpt>
      <trkpt lat="43.96547" lon="2.34137">
        <ele>432</ele>
        <time>2021-04-18T14:11:10Z</time>
      </trkpt>
      <trkpt lat="43.96548" lon="2.34135">
        <ele>432</ele>
        <time>2021-04-18T14:11:11Z</time>
      </trkpt>
      <trkpt lat="43.96549" lon="2.34133">
        <ele>432</ele>
        <time>2021-04-18T14:11:12Z</time>
      </trkpt>
      <trkpt lat="43.96549" lon="2.34131">
        <ele>432</ele>
        <time>2021-04-18T14:11:13Z</time>
      </trkpt>
      <trkpt lat="43.9655" lon="2.3413">
        <ele>432</ele>
        <time>2021-04-18T14:11:14Z</time>
      </trkpt>
      <trkpt lat="43.96551" lon="2.34128">
        <ele>433</ele>
        <time>2021-04-18T14:11:15Z</time>
      </trkpt>
      <trkpt lat="43.96552" lon="2.34127">
        <ele>433</ele>
        <time>2021-04-18T14:11:16Z</time>
      </trkpt>
      <trkpt lat="43.96553" lon="2.34125">
        <ele>433</ele>
        <time>2021-04-18T14:11:17Z</time>
      </trkpt>
      <trkpt lat="43.96553" lon="2.34123">
        <ele>432</ele>
        <time>2021-04-18T14:11:18Z</time>
      </trkpt>
      <trkpt lat="43.96554" lon="2.34121">
        <ele>432</ele>
        <time>2021-04-18T14:11:19Z</time>
      </trkpt>
      <trkpt lat="43.96554" lon="2.34119">
        <ele>431</ele>
        <time>2021-04-18T14:11:20Z</time>
      </trkpt>
      <trkpt lat="43.96555" lon="2.34117">
        <ele>431</ele>
        <time>2021-04-18T14:11:21Z</time>
      </trkpt>
      <trkpt lat="43.96556" lon="2.34115">
        <ele>431</ele>
        <time>2021-04-18T14:11:22Z</time>
      </trkpt>
      <trkpt lat="43.96557" lon="2.34114">
        <ele>432</ele>
        <time>2021-04-18T14:11:23Z</time>
      </trkpt>
      <trkpt lat="43.96557" lon="2.34112">
        <ele>432</ele>
        <time>2021-04-18T14:11:24Z</time>
      </trkpt>
      <trkpt lat="43.96558" lon="2.3411">
        <ele>431</ele>
        <time>2021-04-18T14:11:25Z</time>
      </trkpt>
      <trkpt lat="43.96558" lon="2.34108">
        <ele>431</ele>
        <time>2021-04-18T14:11:26Z</time>
      </trkpt>
      <trkpt lat="43.9656" lon="2.34106">
        <ele>431</ele>
        <time>2021-04-18T14:11:27Z</time>
      </trkpt>
      <trkpt lat="43.96561" lon="2.34104">
        <ele>430</ele>
        <time>2021-04-18T14:11:28Z</time>
      </trkpt>
      <trkpt lat="43.96563" lon="2.34102">
        <ele>430</ele>
        <time>2021-04-18T14:11:29Z</time>
      </trkpt>
      <trkpt lat="43.96564" lon="2.341">
        <ele>431</ele>
        <time>2021-04-18T14:11:30Z</time>
      </trkpt>
      <trkpt lat="43.96565" lon="2.34099">
        <ele>431</ele>
        <time>2021-04-18T14:11:31Z</time>
      </trkpt>
      <trkpt lat="43.96566" lon="2.34097">
        <ele>431</ele>
        <time>2021-04-18T14:11:32Z</time>
      </trkpt>
      <trkpt lat="43.96566" lon="2.34095">
        <ele>430</ele>
        <time>2021-04-18T14:11:33Z</time>
      </trkpt>
      <trkpt lat="43.96567" lon="2.34094">
        <ele>430</ele>
        <time>2021-04-18T14:11:34Z</time>
      </trkpt>
      <trkpt lat="43.96567" lon="2.34092">
        <ele>430</ele>
        <time>2021-04-18T14:11:35Z</time>
      </trkpt>
      <trkpt lat="43.96568" lon="2.3409">
        <ele>430</ele>
        <time>2021-04-18T14:11:36Z</time>
      </trkpt>
      <trkpt lat="43.96568" lon="2.34089">
        <ele>430</ele>
        <time>2021-04-18T14:11:37Z</time>
      </trkpt>
      <trkpt lat="43.96569" lon="2.34087">
        <ele>430</ele>
        <time>2021-04-18T14:11:38Z</time>
      </trkpt>
      <trkpt lat="43.9657" lon="2.34085">
        <ele>430</ele>
        <time>2021-04-18T14:11:39Z</time>
      </trkpt>
      <trkpt lat="43.96571" lon="2.34084">
        <ele>430</ele>
        <time>2021-04-18T14:11:40Z</time>
      </trkpt>
      <trkpt lat="43.96572" lon="2.34083">
        <ele>431</ele>
        <time>2021-04-18T14:11:41Z</time>
      </trkpt>
      <trkpt lat="43.96573" lon="2.34081">
        <ele>431</ele>
        <time>2021-04-18T14:11:42Z</time>
      </trkpt>
      <trkpt lat="43.96574" lon="2.34079">
        <ele>431</ele>
        <time>2021-04-18T14:11:43Z</time>
      </trkpt>
      <trkpt lat="43.96574" lon="2.34078">
        <ele>431</ele>
        <time>2021-04-18T14:11:44Z</time>
      </trkpt>
      <trkpt lat="43.96576" lon="2.34076">
        <ele>431</ele>
        <time>2021-04-18T14:11:45Z</time>
      </trkpt>
      <trkpt lat="43.96577" lon="2.34075">
        <ele>431</ele>
        <time>2021-04-18T14:11:46Z</time>
      </trkpt>
      <trkpt lat="43.96578" lon="2.34073">
        <ele>430</ele>
        <time>2021-04-18T14:11:47Z</time>
      </trkpt>
      <trkpt lat="43.96578" lon="2.34072">
        <ele>430</ele>
        <time>2021-04-18T14:11:48Z</time>
      </trkpt>
      <trkpt lat="43.96578" lon="2.34071">
        <ele>429</ele>
        <time>2021-04-18T14:11:49Z</time>
      </trkpt>
      <trkpt lat="43.96579" lon="2.3407">
        <ele>429</ele>
        <time>2021-04-18T14:11:50Z</time>
      </trkpt>
      <trkpt lat="43.96579" lon="2.34069">
        <ele>428</ele>
        <time>2021-04-18T14:11:51Z</time>
      </trkpt>
      <trkpt lat="43.9658" lon="2.34068">
        <ele>428</ele>
        <time>2021-04-18T14:11:52Z</time>
      </trkpt>
      <trkpt lat="43.9658" lon="2.34066">
        <ele>427</ele>
        <time>2021-04-18T14:11:53Z</time>
      </trkpt>
      <trkpt lat="43.96581" lon="2.34063">
        <ele>426</ele>
        <time>2021-04-18T14:11:54Z</time>
      </trkpt>
      <trkpt lat="43.96581" lon="2.34061">
        <ele>426</ele>
        <time>2021-04-18T14:11:55Z</time>
      </trkpt>
      <trkpt lat="43.96581" lon="2.34059">
        <ele>426</ele>
        <time>2021-04-18T14:11:56Z</time>
      </trkpt>
      <trkpt lat="43.96581" lon="2.34056">
        <ele>426</ele>
        <time>2021-04-18T14:11:57Z</time>
      </trkpt>
      <trkpt lat="43.96581" lon="2.34054">
        <ele>426</ele>
        <time>2021-04-18T14:11:58Z</time>
      </trkpt>
      <trkpt lat="43.96581" lon="2.34052">
        <ele>426</ele>
        <time>2021-04-18T14:11:59Z</time>
      </trkpt>
      <trkpt lat="43.96582" lon="2.34051">
        <ele>426</ele>
        <time>2021-04-18T14:12:00Z</time>
      </trkpt>
      <trkpt lat="43.96581" lon="2.34048">
        <ele>426</ele>
        <time>2021-04-18T14:12:01Z</time>
      </trkpt>
      <trkpt lat="43.96582" lon="2.34047">
        <ele>426</ele>
        <time>2021-04-18T14:12:02Z</time>
      </trkpt>
      <trkpt lat="43.96582" lon="2.34045">
        <ele>426</ele>
        <time>2021-04-18T14:12:03Z</time>
      </trkpt>
      <trkpt lat="43.96582" lon="2.34043">
        <ele>426</ele>
        <time>2021-04-18T14:12:04Z</time>
      </trkpt>
      <trkpt lat="43.96582" lon="2.34042">
        <ele>426</ele>
        <time>2021-04-18T14:12:05Z</time>
      </trkpt>
      <trkpt lat="43.96583" lon="2.3404">
        <ele>426</ele>
        <time>2021-04-18T14:12:06Z</time>
      </trkpt>
      <trkpt lat="43.96583" lon="2.34038">
        <ele>426</ele>
        <time>2021-04-18T14:12:07Z</time>
      </trkpt>
      <trkpt lat="43.96584" lon="2.34036">
        <ele>425</ele>
        <time>2021-04-18T14:12:08Z</time>
      </trkpt>
      <trkpt lat="43.96584" lon="2.34034">
        <ele>425</ele>
        <time>2021-04-18T14:12:09Z</time>
      </trkpt>
      <trkpt lat="43.96583" lon="2.34031">
        <ele>425</ele>
        <time>2021-04-18T14:12:10Z</time>
      </trkpt>
      <trkpt lat="43.96583" lon="2.34029">
        <ele>425</ele>
        <time>2021-04-18T14:12:11Z</time>
      </trkpt>
      <trkpt lat="43.96584" lon="2.34027">
        <ele>425</ele>
        <time>2021-04-18T14:12:12Z</time>
      </trkpt>
      <trkpt lat="43.96584" lon="2.34024">
        <ele>425</ele>
        <time>2021-04-18T14:12:13Z</time>
      </trkpt>
      <trkpt lat="43.96584" lon="2.34022">
        <ele>425</ele>
        <time>2021-04-18T14:12:14Z</time>
      </trkpt>
      <trkpt lat="43.96584" lon="2.3402">
        <ele>425</ele>
        <time>2021-04-18T14:12:15Z</time>
      </trkpt>
      <trkpt lat="43.96584" lon="2.34019">
        <ele>425</ele>
        <time>2021-04-18T14:12:16Z</time>
      </trkpt>
      <trkpt lat="43.96584" lon="2.34017">
        <ele>425</ele>
        <time>2021-04-18T14:12:17Z</time>
      </trkpt>
      <trkpt lat="43.96584" lon="2.34015">
        <ele>425</ele>
        <time>2021-04-18T14:12:18Z</time>
      </trkpt>
      <trkpt lat="43.96584" lon="2.34013">
        <ele>425</ele>
        <time>2021-04-18T14:12:19Z</time>
      </trkpt>
      <trkpt lat="43.96584" lon="2.34011">
        <ele>425</ele>
        <time>2021-04-18T14:12:20Z</time>
      </trkpt>
      <trkpt lat="43.96584" lon="2.34009">
        <ele>426</ele>
        <time>2021-04-18T14:12:21Z</time>
      </trkpt>
      <trkpt lat="43.96584" lon="2.34007">
        <ele>426</ele>
        <time>2021-04-18T14:12:22Z</time>
      </trkpt>
      <trkpt lat="43.96584" lon="2.34005">
        <ele>426</ele>
        <time>2021-04-18T14:12:23Z</time>
      </trkpt>
      <trkpt lat="43.96584" lon="2.34003">
        <ele>426</ele>
        <time>2021-04-18T14:12:24Z</time>
      </trkpt>
      <trkpt lat="43.96585" lon="2.34">
        <ele>426</ele>
        <time>2021-04-18T14:12:25Z</time>
      </trkpt>
      <trkpt lat="43.96586" lon="2.33998">
        <ele>425</ele>
        <time>2021-04-18T14:12:26Z</time>
      </trkpt>
      <trkpt lat="43.96586" lon="2.33995">
        <ele>425</ele>
        <time>2021-04-18T14:12:27Z</time>
      </trkpt>
      <trkpt lat="43.96587" lon="2.33993">
        <ele>425</ele>
        <time>2021-04-18T14:12:28Z</time>
      </trkpt>
      <trkpt lat="43.96587" lon="2.33991">
        <ele>425</ele>
        <time>2021-04-18T14:12:29Z</time>
      </trkpt>
      <trkpt lat="43.96587" lon="2.33989">
        <ele>425</ele>
        <time>2021-04-18T14:12:30Z</time>
      </trkpt>
      <trkpt lat="43.96587" lon="2.33987">
        <ele>426</ele>
        <time>2021-04-18T14:12:31Z</time>
      </trkpt>
      <trkpt lat="43.96588" lon="2.33985">
        <ele>426</ele>
        <time>2021-04-18T14:12:32Z</time>
      </trkpt>
      <trkpt lat="43.96588" lon="2.33983">
        <ele>426</ele>
        <time>2021-04-18T14:12:33Z</time>
      </trkpt>
      <trkpt lat="43.96588" lon="2.33982">
        <ele>426</ele>
        <time>2021-04-18T14:12:34Z</time>
      </trkpt>
      <trkpt lat="43.96589" lon="2.3398">
        <ele>426</ele>
        <time>2021-04-18T14:12:35Z</time>
      </trkpt>
      <trkpt lat="43.96589" lon="2.33978">
        <ele>426</ele>
        <time>2021-04-18T14:12:36Z</time>
      </trkpt>
      <trkpt lat="43.96589" lon="2.33977">
        <ele>425</ele>
        <time>2021-04-18T14:12:37Z</time>
      </trkpt>
      <trkpt lat="43.96589" lon="2.33975">
        <ele>425</ele>
        <time>2021-04-18T14:12:38Z</time>
      </trkpt>
      <trkpt lat="43.9659" lon="2.33973">
        <ele>425</ele>
        <time>2021-04-18T14:12:39Z</time>
      </trkpt>
      <trkpt lat="43.9659" lon="2.33972">
        <ele>425</ele>
        <time>2021-04-18T14:12:40Z</time>
      </trkpt>
      <trkpt lat="43.96591" lon="2.3397">
        <ele>424</ele>
        <time>2021-04-18T14:12:41Z</time>
      </trkpt>
      <trkpt lat="43.96591" lon="2.33968">
        <ele>424</ele>
        <time>2021-04-18T14:12:42Z</time>
      </trkpt>
      <trkpt lat="43.96591" lon="2.33966">
        <ele>424</ele>
        <time>2021-04-18T14:12:43Z</time>
      </trkpt>
      <trkpt lat="43.9659" lon="2.33964">
        <ele>424</ele>
        <time>2021-04-18T14:12:44Z</time>
      </trkpt>
      <trkpt lat="43.9659" lon="2.33963">
        <ele>424</ele>
        <time>2021-04-18T14:12:45Z</time>
      </trkpt>
      <trkpt lat="43.9659" lon="2.33961">
        <ele>424</ele>
        <time>2021-04-18T14:12:46Z</time>
      </trkpt>
      <trkpt lat="43.9659" lon="2.33959">
        <ele>424</ele>
        <time>2021-04-18T14:12:47Z</time>
      </trkpt>
      <trkpt lat="43.96589" lon="2.33958">
        <ele>423</ele>
        <time>2021-04-18T14:12:48Z</time>
      </trkpt>
      <trkpt lat="43.96589" lon="2.33956">
        <ele>424</ele>
        <time>2021-04-18T14:12:49Z</time>
      </trkpt>
      <trkpt lat="43.96589" lon="2.33954">
        <ele>423</ele>
        <time>2021-04-18T14:12:50Z</time>
      </trkpt>
      <trkpt lat="43.96589" lon="2.33953">
        <ele>423</ele>
        <time>2021-04-18T14:12:51Z</time>
      </trkpt>
      <trkpt lat="43.96589" lon="2.33951">
        <ele>423</ele>
        <time>2021-04-18T14:12:52Z</time>
      </trkpt>
      <trkpt lat="43.96588" lon="2.3395">
        <ele>423</ele>
        <time>2021-04-18T14:12:53Z</time>
      </trkpt>
      <trkpt lat="43.96587" lon="2.33948">
        <ele>423</ele>
        <time>2021-04-18T14:12:54Z</time>
      </trkpt>
      <trkpt lat="43.96587" lon="2.33946">
        <ele>422</ele>
        <time>2021-04-18T14:12:55Z</time>
      </trkpt>
      <trkpt lat="43.96587" lon="2.33945">
        <ele>422</ele>
        <time>2021-04-18T14:12:56Z</time>
      </trkpt>
      <trkpt lat="43.96586" lon="2.33943">
        <ele>422</ele>
        <time>2021-04-18T14:12:57Z</time>
      </trkpt>
      <trkpt lat="43.96586" lon="2.33941">
        <ele>422</ele>
        <time>2021-04-18T14:12:58Z</time>
      </trkpt>
      <trkpt lat="43.96585" lon="2.33939">
        <ele>422</ele>
        <time>2021-04-18T14:12:59Z</time>
      </trkpt>
      <trkpt lat="43.96585" lon="2.33937">
        <ele>422</ele>
        <time>2021-04-18T14:13:00Z</time>
      </trkpt>
      <trkpt lat="43.96584" lon="2.33935">
        <ele>422</ele>
        <time>2021-04-18T14:13:01Z</time>
      </trkpt>
      <trkpt lat="43.96583" lon="2.33933">
        <ele>422</ele>
        <time>2021-04-18T14:13:02Z</time>
      </trkpt>
      <trkpt lat="43.96582" lon="2.3393">
        <ele>421</ele>
        <time>2021-04-18T14:13:03Z</time>
      </trkpt>
      <trkpt lat="43.96582" lon="2.33928">
        <ele>421</ele>
        <time>2021-04-18T14:13:04Z</time>
      </trkpt>
      <trkpt lat="43.96581" lon="2.33927">
        <ele>421</ele>
        <time>2021-04-18T14:13:05Z</time>
      </trkpt>
      <trkpt lat="43.96581" lon="2.33925">
        <ele>421</ele>
        <time>2021-04-18T14:13:06Z</time>
      </trkpt>
      <trkpt lat="43.96581" lon="2.33923">
        <ele>421</ele>
        <time>2021-04-18T14:13:07Z</time>
      </trkpt>
      <trkpt lat="43.9658" lon="2.33921">
        <ele>420</ele>
        <time>2021-04-18T14:13:08Z</time>
      </trkpt>
      <trkpt lat="43.9658" lon="2.33919">
        <ele>420</ele>
        <time>2021-04-18T14:13:09Z</time>
      </trkpt>
      <trkpt lat="43.96579" lon="2.33917">
        <ele>420</ele>
        <time>2021-04-18T14:13:10Z</time>
      </trkpt>
      <trkpt lat="43.96579" lon="2.33915">
        <ele>420</ele>
        <time>2021-04-18T14:13:11Z</time>
      </trkpt>
      <trkpt lat="43.96579" lon="2.33914">
        <ele>420</ele>
        <time>2021-04-18T14:13:12Z</time>
      </trkpt>
      <trkpt lat="43.96579" lon="2.33912">
        <ele>420</ele>
        <time>2021-04-18T14:13:13Z</time>
      </trkpt>
      <trkpt lat="43.96579" lon="2.33909">
        <ele>419</ele>
        <time>2021-04-18T14:13:14Z</time>
      </trkpt>
      <trkpt lat="43.96579" lon="2.33907">
        <ele>419</ele>
        <time>2021-04-18T14:13:15Z</time>
      </trkpt>
      <trkpt lat="43.96579" lon="2.33904">
        <ele>419</ele>
        <time>2021-04-18T14:13:16Z</time>
      </trkpt>
      <trkpt lat="43.96578" lon="2.33902">
        <ele>419</ele>
        <time>2021-04-18T14:13:17Z</time>
      </trkpt>
      <trkpt lat="43.96578" lon="2.33899">
        <ele>419</ele>
        <time>2021-04-18T14:13:18Z</time>
      </trkpt>
      <trkpt lat="43.96578" lon="2.33897">
        <ele>419</ele>
        <time>2021-04-18T14:13:19Z</time>
      </trkpt>
      <trkpt lat="43.96578" lon="2.33895">
        <ele>419</ele>
        <time>2021-04-18T14:13:20Z</time>
      </trkpt>
      <trkpt lat="43.96578" lon="2.33892">
        <ele>419</ele>
        <time>2021-04-18T14:13:21Z</time>
      </trkpt>
      <trkpt lat="43.96578" lon="2.3389">
        <ele>419</ele>
        <time>2021-04-18T14:13:22Z</time>
      </trkpt>
      <trkpt lat="43.96578" lon="2.33888">
        <ele>419</ele>
        <time>2021-04-18T14:13:23Z</time>
      </trkpt>
      <trkpt lat="43.96577" lon="2.33886">
        <ele>419</ele>
        <time>2021-04-18T14:13:24Z</time>
      </trkpt>
      <trkpt lat="43.96577" lon="2.33884">
        <ele>419</ele>
        <time>2021-04-18T14:13:25Z</time>
      </trkpt>
      <trkpt lat="43.96577" lon="2.33881">
        <ele>419</ele>
        <time>2021-04-18T14:13:26Z</time>
      </trkpt>
      <trkpt lat="43.96577" lon="2.33879">
        <ele>419</ele>
        <time>2021-04-18T14:13:27Z</time>
      </trkpt>
      <trkpt lat="43.96577" lon="2.33876">
        <ele>419</ele>
        <time>2021-04-18T14:13:28Z</time>
      </trkpt>
      <trkpt lat="43.96577" lon="2.33874">
        <ele>419</ele>
        <time>2021-04-18T14:13:29Z</time>
      </trkpt>
      <trkpt lat="43.96577" lon="2.33871">
        <ele>419</ele>
        <time>2021-04-18T14:13:30Z</time>
      </trkpt>
      <trkpt lat="43.96577" lon="2.33869">
        <ele>419</ele>
        <time>2021-04-18T14:13:31Z</time>
      </trkpt>
      <trkpt lat="43.96577" lon="2.33866">
        <ele>419</ele>
        <time>2021-04-18T14:13:32Z</time>
      </trkpt>
      <trkpt lat="43.96577" lon="2.33864">
        <ele>419</ele>
        <time>2021-04-18T14:13:33Z</time>
      </trkpt>
      <trkpt lat="43.96578" lon="2.33862">
        <ele>419</ele>
        <time>2021-04-18T14:13:34Z</time>
      </trkpt>
      <trkpt lat="43.96578" lon="2.3386">
        <ele>419</ele>
        <time>2021-04-18T14:13:35Z</time>
      </trkpt>
      <trkpt lat="43.96578" lon="2.33858">
        <ele>419</ele>
        <time>2021-04-18T14:13:36Z</time>
      </trkpt>
      <trkpt lat="43.96578" lon="2.33855">
        <ele>418</ele>
        <time>2021-04-18T14:13:37Z</time>
      </trkpt>
      <trkpt lat="43.96578" lon="2.33852">
        <ele>418</ele>
        <time>2021-04-18T14:13:38Z</time>
      </trkpt>
      <trkpt lat="43.96577" lon="2.3385">
        <ele>418</ele>
        <time>2021-04-18T14:13:39Z</time>
      </trkpt>
      <trkpt lat="43.96578" lon="2.33847">
        <ele>418</ele>
        <time>2021-04-18T14:13:40Z</time>
      </trkpt>
      <trkpt lat="43.96577" lon="2.33845">
        <ele>418</ele>
        <time>2021-04-18T14:13:41Z</time>
      </trkpt>
      <trkpt lat="43.96577" lon="2.33843">
        <ele>418</ele>
        <time>2021-04-18T14:13:42Z</time>
      </trkpt>
      <trkpt lat="43.96578" lon="2.33841">
        <ele>418</ele>
        <time>2021-04-18T14:13:43Z</time>
      </trkpt>
      <trkpt lat="43.96578" lon="2.33838">
        <ele>418</ele>
        <time>2021-04-18T14:13:44Z</time>
      </trkpt>
      <trkpt lat="43.96578" lon="2.33836">
        <ele>418</ele>
        <time>2021-04-18T14:13:45Z</time>
      </trkpt>
      <trkpt lat="43.96577" lon="2.33833">
        <ele>418</ele>
        <time>2021-04-18T14:13:46Z</time>
      </trkpt>
      <trkpt lat="43.96577" lon="2.3383">
        <ele>419</ele>
        <time>2021-04-18T14:13:47Z</time>
      </trkpt>
      <trkpt lat="43.96577" lon="2.33828">
        <ele>419</ele>
        <time>2021-04-18T14:13:48Z</time>
      </trkpt>
      <trkpt lat="43.96577" lon="2.33826">
        <ele>420</ele>
        <time>2021-04-18T14:13:49Z</time>
      </trkpt>
      <trkpt lat="43.96577" lon="2.33823">
        <ele>420</ele>
        <time>2021-04-18T14:13:50Z</time>
      </trkpt>
      <trkpt lat="43.96577" lon="2.3382">
        <ele>421</ele>
        <time>2021-04-18T14:13:51Z</time>
      </trkpt>
      <trkpt lat="43.96578" lon="2.33818">
        <ele>421</ele>
        <time>2021-04-18T14:13:52Z</time>
      </trkpt>
      <trkpt lat="43.96578" lon="2.33814">
        <ele>421</ele>
        <time>2021-04-18T14:13:53Z</time>
      </trkpt>
      <trkpt lat="43.96578" lon="2.33812">
        <ele>421</ele>
        <time>2021-04-18T14:13:54Z</time>
      </trkpt>
      <trkpt lat="43.96579" lon="2.33809">
        <ele>422</ele>
        <time>2021-04-18T14:13:55Z</time>
      </trkpt>
      <trkpt lat="43.96579" lon="2.33806">
        <ele>422</ele>
        <time>2021-04-18T14:13:56Z</time>
      </trkpt>
      <trkpt lat="43.96579" lon="2.33804">
        <ele>422</ele>
        <time>2021-04-18T14:13:57Z</time>
      </trkpt>
      <trkpt lat="43.96579" lon="2.33801">
        <ele>422</ele>
        <time>2021-04-18T14:13:58Z</time>
      </trkpt>
      <trkpt lat="43.96579" lon="2.33799">
        <ele>423</ele>
        <time>2021-04-18T14:13:59Z</time>
      </trkpt>
      <trkpt lat="43.96579" lon="2.33797">
        <ele>423</ele>
        <time>2021-04-18T14:14:00Z</time>
      </trkpt>
      <trkpt lat="43.96579" lon="2.33795">
        <ele>423</ele>
        <time>2021-04-18T14:14:01Z</time>
      </trkpt>
      <trkpt lat="43.96579" lon="2.33793">
        <ele>424</ele>
        <time>2021-04-18T14:14:02Z</time>
      </trkpt>
      <trkpt lat="43.96579" lon="2.33791">
        <ele>424</ele>
        <time>2021-04-18T14:14:03Z</time>
      </trkpt>
      <trkpt lat="43.9658" lon="2.33789">
        <ele>424</ele>
        <time>2021-04-18T14:14:04Z</time>
      </trkpt>
      <trkpt lat="43.9658" lon="2.33787">
        <ele>424</ele>
        <time>2021-04-18T14:14:05Z</time>
      </trkpt>
      <trkpt lat="43.9658" lon="2.33785">
        <ele>424</ele>
        <time>2021-04-18T14:14:06Z</time>
      </trkpt>
      <trkpt lat="43.9658" lon="2.33783">
        <ele>423</ele>
        <time>2021-04-18T14:14:07Z</time>
      </trkpt>
      <trkpt lat="43.96581" lon="2.33781">
        <ele>423</ele>
        <time>2021-04-18T14:14:08Z</time>
      </trkpt>
      <trkpt lat="43.96581" lon="2.33779">
        <ele>423</ele>
        <time>2021-04-18T14:14:09Z</time>
      </trkpt>
      <trkpt lat="43.96581" lon="2.33777">
        <ele>423</ele>
        <time>2021-04-18T14:14:10Z</time>
      </trkpt>
      <trkpt lat="43.96581" lon="2.33774">
        <ele>423</ele>
        <time>2021-04-18T14:14:11Z</time>
      </trkpt>
      <trkpt lat="43.96581" lon="2.33772">
        <ele>423</ele>
        <time>2021-04-18T14:14:12Z</time>
      </trkpt>
      <trkpt lat="43.96581" lon="2.33769">
        <ele>423</ele>
        <time>2021-04-18T14:14:13Z</time>
      </trkpt>
      <trkpt lat="43.96582" lon="2.33767">
        <ele>423</ele>
        <time>2021-04-18T14:14:14Z</time>
      </trkpt>
      <trkpt lat="43.96582" lon="2.33766">
        <ele>423</ele>
        <time>2021-04-18T14:14:15Z</time>
      </trkpt>
      <trkpt lat="43.96582" lon="2.33764">
        <ele>423</ele>
        <time>2021-04-18T14:14:16Z</time>
      </trkpt>
      <trkpt lat="43.96582" lon="2.33762">
        <ele>423</ele>
        <time>2021-04-18T14:14:17Z</time>
      </trkpt>
      <trkpt lat="43.96582" lon="2.3376">
        <ele>423</ele>
        <time>2021-04-18T14:14:18Z</time>
      </trkpt>
      <trkpt lat="43.96582" lon="2.33758">
        <ele>423</ele>
        <time>2021-04-18T14:14:19Z</time>
      </trkpt>
      <trkpt lat="43.96583" lon="2.33756">
        <ele>423</ele>
        <time>2021-04-18T14:14:20Z</time>
      </trkpt>
      <trkpt lat="43.96583" lon="2.33753">
        <ele>423</ele>
        <time>2021-04-18T14:14:21Z</time>
      </trkpt>
      <trkpt lat="43.96584" lon="2.33751">
        <ele>423</ele>
        <time>2021-04-18T14:14:22Z</time>
      </trkpt>
      <trkpt lat="43.96584" lon="2.33749">
        <ele>423</ele>
        <time>2021-04-18T14:14:23Z</time>
      </trkpt>
      <trkpt lat="43.96584" lon="2.33747">
        <ele>422</ele>
        <time>2021-04-18T14:14:24Z</time>
      </trkpt>
      <trkpt lat="43.96584" lon="2.33745">
        <ele>422</ele>
        <time>2021-04-18T14:14:25Z</time>
      </trkpt>
      <trkpt lat="43.96585" lon="2.33743">
        <ele>423</ele>
        <time>2021-04-18T14:14:26Z</time>
      </trkpt>
      <trkpt lat="43.96585" lon="2.33741">
        <ele>423</ele>
        <time>2021-04-18T14:14:27Z</time>
      </trkpt>
      <trkpt lat="43.96586" lon="2.33739">
        <ele>423</ele>
        <time>2021-04-18T14:14:28Z</time>
      </trkpt>
      <trkpt lat="43.96586" lon="2.33737">
        <ele>423</ele>
        <time>2021-04-18T14:14:29Z</time>
      </trkpt>
      <trkpt lat="43.96586" lon="2.33735">
        <ele>423</ele>
        <time>2021-04-18T14:14:30Z</time>
      </trkpt>
      <trkpt lat="43.96587" lon="2.33733">
        <ele>423</ele>
        <time>2021-04-18T14:14:31Z</time>
      </trkpt>
      <trkpt lat="43.96587" lon="2.33731">
        <ele>423</ele>
        <time>2021-04-18T14:14:32Z</time>
      </trkpt>
      <trkpt lat="43.96588" lon="2.33729">
        <ele>423</ele>
        <time>2021-04-18T14:14:33Z</time>
      </trkpt>
      <trkpt lat="43.96588" lon="2.33727">
        <ele>423</ele>
        <time>2021-04-18T14:14:34Z</time>
      </trkpt>
      <trkpt lat="43.96589" lon="2.33725">
        <ele>423</ele>
        <time>2021-04-18T14:14:35Z</time>
      </trkpt>
      <trkpt lat="43.9659" lon="2.33724">
        <ele>423</ele>
        <time>2021-04-18T14:14:36Z</time>
      </trkpt>
      <trkpt lat="43.9659" lon="2.33722">
        <ele>423</ele>
        <time>2021-04-18T14:14:37Z</time>
      </trkpt>
      <trkpt lat="43.96591" lon="2.33721">
        <ele>423</ele>
        <time>2021-04-18T14:14:38Z</time>
      </trkpt>
      <trkpt lat="43.96592" lon="2.33719">
        <ele>423</ele>
        <time>2021-04-18T14:14:39Z</time>
      </trkpt>
      <trkpt lat="43.96593" lon="2.33718">
        <ele>423</ele>
        <time>2021-04-18T14:14:40Z</time>
      </trkpt>
      <trkpt lat="43.96594" lon="2.33716">
        <ele>423</ele>
        <time>2021-04-18T14:14:41Z</time>
      </trkpt>
      <trkpt lat="43.96595" lon="2.33714">
        <ele>423</ele>
        <time>2021-04-18T14:14:42Z</time>
      </trkpt>
      <trkpt lat="43.96596" lon="2.33713">
        <ele>423</ele>
        <time>2021-04-18T14:14:43Z</time>
      </trkpt>
      <trkpt lat="43.96597" lon="2.33711">
        <ele>423</ele>
        <time>2021-04-18T14:14:44Z</time>
      </trkpt>
      <trkpt lat="43.96597" lon="2.33709">
        <ele>423</ele>
        <time>2021-04-18T14:14:45Z</time>
      </trkpt>
      <trkpt lat="43.96598" lon="2.33707">
        <ele>423</ele>
        <time>2021-04-18T14:14:46Z</time>
      </trkpt>
      <trkpt lat="43.96598" lon="2.33705">
        <ele>423</ele>
        <time>2021-04-18T14:14:47Z</time>
      </trkpt>
      <trkpt lat="43.96599" lon="2.33702">
        <ele>424</ele>
        <time>2021-04-18T14:14:48Z</time>
      </trkpt>
      <trkpt lat="43.966" lon="2.33701">
        <ele>424</ele>
        <time>2021-04-18T14:14:49Z</time>
      </trkpt>
      <trkpt lat="43.96599" lon="2.33699">
        <ele>424</ele>
        <time>2021-04-18T14:14:50Z</time>
      </trkpt>
      <trkpt lat="43.96599" lon="2.33697">
        <ele>424</ele>
        <time>2021-04-18T14:14:51Z</time>
      </trkpt>
      <trkpt lat="43.96598" lon="2.33694">
        <ele>423</ele>
        <time>2021-04-18T14:14:52Z</time>
      </trkpt>
      <trkpt lat="43.96598" lon="2.33693">
        <ele>424</ele>
        <time>2021-04-18T14:14:53Z</time>
      </trkpt>
      <trkpt lat="43.96598" lon="2.33692">
        <ele>423</ele>
        <time>2021-04-18T14:14:54Z</time>
      </trkpt>
      <trkpt lat="43.96597" lon="2.3369">
        <ele>423</ele>
        <time>2021-04-18T14:14:55Z</time>
      </trkpt>
      <trkpt lat="43.96597" lon="2.3369">
        <ele>423</ele>
        <time>2021-04-18T14:14:56Z</time>
      </trkpt>
      <trkpt lat="43.96596" lon="2.33688">
        <ele>423</ele>
        <time>2021-04-18T14:14:57Z</time>
      </trkpt>
      <trkpt lat="43.96595" lon="2.33687">
        <ele>423</ele>
        <time>2021-04-18T14:14:58Z</time>
      </trkpt>
      <trkpt lat="43.96595" lon="2.33686">
        <ele>423</ele>
        <time>2021-04-18T14:14:59Z</time>
      </trkpt>
      <trkpt lat="43.96595" lon="2.33685">
        <ele>422</ele>
        <time>2021-04-18T14:15:00Z</time>
      </trkpt>
      <trkpt lat="43.96594" lon="2.33684">
        <ele>422</ele>
        <time>2021-04-18T14:15:01Z</time>
      </trkpt>
      <trkpt lat="43.96594" lon="2.33684">
        <ele>422</ele>
        <time>2021-04-18T14:15:02Z</time>
      </trkpt>
      <trkpt lat="43.96592" lon="2.33683">
        <ele>422</ele>
        <time>2021-04-18T14:15:03Z</time>
      </trkpt>
      <trkpt lat="43.96591" lon="2.33681">
        <ele>421</ele>
        <time>2021-04-18T14:15:04Z</time>
      </trkpt>
      <trkpt lat="43.9659" lon="2.3368">
        <ele>421</ele>
        <time>2021-04-18T14:15:05Z</time>
      </trkpt>
      <trkpt lat="43.96589" lon="2.33679">
        <ele>420</ele>
        <time>2021-04-18T14:15:06Z</time>
      </trkpt>
      <trkpt lat="43.96588" lon="2.33678">
        <ele>420</ele>
        <time>2021-04-18T14:15:07Z</time>
      </trkpt>
      <trkpt lat="43.96587" lon="2.33676">
        <ele>420</ele>
        <time>2021-04-18T14:15:08Z</time>
      </trkpt>
      <trkpt lat="43.96586" lon="2.33674">
        <ele>419</ele>
        <time>2021-04-18T14:15:09Z</time>
      </trkpt>
      <trkpt lat="43.96585" lon="2.33671">
        <ele>419</ele>
        <time>2021-04-18T14:15:10Z</time>
      </trkpt>
      <trkpt lat="43.96582" lon="2.33667">
        <ele>419</ele>
        <time>2021-04-18T14:15:11Z</time>
      </trkpt>
      <trkpt lat="43.96581" lon="2.33665">
        <ele>419</ele>
        <time>2021-04-18T14:15:12Z</time>
      </trkpt>
      <trkpt lat="43.9658" lon="2.33663">
        <ele>419</ele>
        <time>2021-04-18T14:15:13Z</time>
      </trkpt>
      <trkpt lat="43.96578" lon="2.33661">
        <ele>419</ele>
        <time>2021-04-18T14:15:14Z</time>
      </trkpt>
      <trkpt lat="43.96577" lon="2.33659">
        <ele>418</ele>
        <time>2021-04-18T14:15:15Z</time>
      </trkpt>
      <trkpt lat="43.96576" lon="2.33658">
        <ele>418</ele>
        <time>2021-04-18T14:15:16Z</time>
      </trkpt>
      <trkpt lat="43.96574" lon="2.33657">
        <ele>418</ele>
        <time>2021-04-18T14:15:17Z</time>
      </trkpt>
      <trkpt lat="43.96573" lon="2.33655">
        <ele>418</ele>
        <time>2021-04-18T14:15:18Z</time>
      </trkpt>
      <trkpt lat="43.96572" lon="2.33654">
        <ele>418</ele>
        <time>2021-04-18T14:15:19Z</time>
      </trkpt>
      <trkpt lat="43.96571" lon="2.33653">
        <ele>418</ele>
        <time>2021-04-18T14:15:20Z</time>
      </trkpt>
      <trkpt lat="43.9657" lon="2.33651">
        <ele>418</ele>
        <time>2021-04-18T14:15:21Z</time>
      </trkpt>
      <trkpt lat="43.96569" lon="2.3365">
        <ele>418</ele>
        <time>2021-04-18T14:15:22Z</time>
      </trkpt>
      <trkpt lat="43.96567" lon="2.33649">
        <ele>418</ele>
        <time>2021-04-18T14:15:23Z</time>
      </trkpt>
      <trkpt lat="43.96566" lon="2.33647">
        <ele>418</ele>
        <time>2021-04-18T14:15:24Z</time>
      </trkpt>
      <trkpt lat="43.96565" lon="2.33646">
        <ele>418</ele>
        <time>2021-04-18T14:15:25Z</time>
      </trkpt>
      <trkpt lat="43.96564" lon="2.33644">
        <ele>418</ele>
        <time>2021-04-18T14:15:26Z</time>
      </trkpt>
      <trkpt lat="43.96563" lon="2.33642">
        <ele>418</ele>
        <time>2021-04-18T14:15:27Z</time>
      </trkpt>
      <trkpt lat="43.96561" lon="2.33641">
        <ele>418</ele>
        <time>2021-04-18T14:15:28Z</time>
      </trkpt>
      <trkpt lat="43.9656" lon="2.33639">
        <ele>417</ele>
        <time>2021-04-18T14:15:29Z</time>
      </trkpt>
      <trkpt lat="43.96559" lon="2.33637">
        <ele>417</ele>
        <time>2021-04-18T14:15:30Z</time>
      </trkpt>
      <trkpt lat="43.96558" lon="2.33635">
        <ele>417</ele>
        <time>2021-04-18T14:15:31Z</time>
      </trkpt>
      <trkpt lat="43.96557" lon="2.33634">
        <ele>417</ele>
        <time>2021-04-18T14:15:32Z</time>
      </trkpt>
      <trkpt lat="43.96556" lon="2.33633">
        <ele>417</ele>
        <time>2021-04-18T14:15:33Z</time>
      </trkpt>
      <trkpt lat="43.96555" lon="2.33631">
        <ele>417</ele>
        <time>2021-04-18T14:15:34Z</time>
      </trkpt>
      <trkpt lat="43.96555" lon="2.3363">
        <ele>417</ele>
        <time>2021-04-18T14:15:35Z</time>
      </trkpt>
      <trkpt lat="43.96553" lon="2.33628">
        <ele>417</ele>
        <time>2021-04-18T14:15:36Z</time>
      </trkpt>
      <trkpt lat="43.96552" lon="2.33626">
        <ele>417</ele>
        <time>2021-04-18T14:15:37Z</time>
      </trkpt>
      <trkpt lat="43.96551" lon="2.33625">
        <ele>417</ele>
        <time>2021-04-18T14:15:38Z</time>
      </trkpt>
      <trkpt lat="43.9655" lon="2.33623">
        <ele>417</ele>
        <time>2021-04-18T14:15:39Z</time>
      </trkpt>
      <trkpt lat="43.9655" lon="2.33622">
        <ele>417</ele>
        <time>2021-04-18T14:15:40Z</time>
      </trkpt>
      <trkpt lat="43.96549" lon="2.3362">
        <ele>417</ele>
        <time>2021-04-18T14:15:41Z</time>
      </trkpt>
      <trkpt lat="43.96548" lon="2.33619">
        <ele>416</ele>
        <time>2021-04-18T14:15:42Z</time>
      </trkpt>
      <trkpt lat="43.96547" lon="2.33617">
        <ele>416</ele>
        <time>2021-04-18T14:15:43Z</time>
      </trkpt>
      <trkpt lat="43.96547" lon="2.33615">
        <ele>416</ele>
        <time>2021-04-18T14:15:44Z</time>
      </trkpt>
      <trkpt lat="43.96546" lon="2.33614">
        <ele>416</ele>
        <time>2021-04-18T14:15:45Z</time>
      </trkpt>
      <trkpt lat="43.96545" lon="2.33611">
        <ele>416</ele>
        <time>2021-04-18T14:15:46Z</time>
      </trkpt>
      <trkpt lat="43.96544" lon="2.33609">
        <ele>416</ele>
        <time>2021-04-18T14:15:47Z</time>
      </trkpt>
      <trkpt lat="43.96543" lon="2.33607">
        <ele>416</ele>
        <time>2021-04-18T14:15:48Z</time>
      </trkpt>
      <trkpt lat="43.96542" lon="2.33606">
        <ele>416</ele>
        <time>2021-04-18T14:15:49Z</time>
      </trkpt>
      <trkpt lat="43.96541" lon="2.33604">
        <ele>416</ele>
        <time>2021-04-18T14:15:50Z</time>
      </trkpt>
      <trkpt lat="43.96541" lon="2.33602">
        <ele>416</ele>
        <time>2021-04-18T14:15:51Z</time>
      </trkpt>
      <trkpt lat="43.96539" lon="2.336">
        <ele>416</ele>
        <time>2021-04-18T14:15:52Z</time>
      </trkpt>
      <trkpt lat="43.96538" lon="2.33598">
        <ele>416</ele>
        <time>2021-04-18T14:15:53Z</time>
      </trkpt>
      <trkpt lat="43.96537" lon="2.33596">
        <ele>416</ele>
        <time>2021-04-18T14:15:54Z</time>
      </trkpt>
      <trkpt lat="43.96537" lon="2.33595">
        <ele>416</ele>
        <time>2021-04-18T14:15:55Z</time>
      </trkpt>
      <trkpt lat="43.96536" lon="2.33593">
        <ele>416</ele>
        <time>2021-04-18T14:15:56Z</time>
      </trkpt>
      <trkpt lat="43.96535" lon="2.33591">
        <ele>416</ele>
        <time>2021-04-18T14:15:57Z</time>
      </trkpt>
      <trkpt lat="43.96534" lon="2.3359">
        <ele>416</ele>
        <time>2021-04-18T14:15:58Z</time>
      </trkpt>
      <trkpt lat="43.96533" lon="2.33588">
        <ele>416</ele>
        <time>2021-04-18T14:15:59Z</time>
      </trkpt>
      <trkpt lat="43.96532" lon="2.33586">
        <ele>416</ele>
        <time>2021-04-18T14:16:00Z</time>
      </trkpt>
      <trkpt lat="43.96531" lon="2.33584">
        <ele>416</ele>
        <time>2021-04-18T14:16:01Z</time>
      </trkpt>
      <trkpt lat="43.9653" lon="2.33582">
        <ele>416</ele>
        <time>2021-04-18T14:16:02Z</time>
      </trkpt>
      <trkpt lat="43.96529" lon="2.33581">
        <ele>416</ele>
        <time>2021-04-18T14:16:03Z</time>
      </trkpt>
      <trkpt lat="43.96528" lon="2.33579">
        <ele>417</ele>
        <time>2021-04-18T14:16:04Z</time>
      </trkpt>
      <trkpt lat="43.96527" lon="2.33577">
        <ele>417</ele>
        <time>2021-04-18T14:16:05Z</time>
      </trkpt>
      <trkpt lat="43.96526" lon="2.33576">
        <ele>417</ele>
        <time>2021-04-18T14:16:06Z</time>
      </trkpt>
      <trkpt lat="43.96525" lon="2.33575">
        <ele>417</ele>
        <time>2021-04-18T14:16:07Z</time>
      </trkpt>
      <trkpt lat="43.96524" lon="2.33573">
        <ele>418</ele>
        <time>2021-04-18T14:16:08Z</time>
      </trkpt>
      <trkpt lat="43.96522" lon="2.33571">
        <ele>418</ele>
        <time>2021-04-18T14:16:09Z</time>
      </trkpt>
      <trkpt lat="43.96521" lon="2.33569">
        <ele>418</ele>
        <time>2021-04-18T14:16:10Z</time>
      </trkpt>
      <trkpt lat="43.9652" lon="2.33568">
        <ele>418</ele>
        <time>2021-04-18T14:16:11Z</time>
      </trkpt>
      <trkpt lat="43.96519" lon="2.33566">
        <ele>419</ele>
        <time>2021-04-18T14:16:12Z</time>
      </trkpt>
      <trkpt lat="43.96518" lon="2.33564">
        <ele>419</ele>
        <time>2021-04-18T14:16:13Z</time>
      </trkpt>
      <trkpt lat="43.96517" lon="2.33563">
        <ele>419</ele>
        <time>2021-04-18T14:16:14Z</time>
      </trkpt>
      <trkpt lat="43.96516" lon="2.33561">
        <ele>420</ele>
        <time>2021-04-18T14:16:15Z</time>
      </trkpt>
      <trkpt lat="43.96515" lon="2.33559">
        <ele>420</ele>
        <time>2021-04-18T14:16:16Z</time>
      </trkpt>
      <trkpt lat="43.96515" lon="2.33558">
        <ele>420</ele>
        <time>2021-04-18T14:16:17Z</time>
      </trkpt>
      <trkpt lat="43.96514" lon="2.33556">
        <ele>421</ele>
        <time>2021-04-18T14:16:18Z</time>
      </trkpt>
      <trkpt lat="43.96513" lon="2.33554">
        <ele>421</ele>
        <time>2021-04-18T14:16:19Z</time>
      </trkpt>
      <trkpt lat="43.96512" lon="2.33552">
        <ele>421</ele>
        <time>2021-04-18T14:16:20Z</time>
      </trkpt>
      <trkpt lat="43.96512" lon="2.3355">
        <ele>421</ele>
        <time>2021-04-18T14:16:21Z</time>
      </trkpt>
      <trkpt lat="43.96511" lon="2.33549">
        <ele>422</ele>
        <time>2021-04-18T14:16:22Z</time>
      </trkpt>
      <trkpt lat="43.9651" lon="2.33547">
        <ele>422</ele>
        <time>2021-04-18T14:16:23Z</time>
      </trkpt>
      <trkpt lat="43.96509" lon="2.33545">
        <ele>422</ele>
        <time>2021-04-18T14:16:24Z</time>
      </trkpt>
      <trkpt lat="43.96508" lon="2.33544">
        <ele>422</ele>
        <time>2021-04-18T14:16:25Z</time>
      </trkpt>
      <trkpt lat="43.96507" lon="2.33543">
        <ele>422</ele>
        <time>2021-04-18T14:16:26Z</time>
      </trkpt>
      <trkpt lat="43.96505" lon="2.33542">
        <ele>422</ele>
        <time>2021-04-18T14:16:27Z</time>
      </trkpt>
      <trkpt lat="43.96504" lon="2.33541">
        <ele>422</ele>
        <time>2021-04-18T14:16:28Z</time>
      </trkpt>
      <trkpt lat="43.96503" lon="2.3354">
        <ele>423</ele>
        <time>2021-04-18T14:16:29Z</time>
      </trkpt>
      <trkpt lat="43.96502" lon="2.33539">
        <ele>423</ele>
        <time>2021-04-18T14:16:30Z</time>
      </trkpt>
      <trkpt lat="43.96501" lon="2.3354">
        <ele>423</ele>
        <time>2021-04-18T14:16:31Z</time>
      </trkpt>
      <trkpt lat="43.96499" lon="2.33539">
        <ele>424</ele>
        <time>2021-04-18T14:16:32Z</time>
      </trkpt>
      <trkpt lat="43.96498" lon="2.33539">
        <ele>425</ele>
        <time>2021-04-18T14:16:33Z</time>
      </trkpt>
      <trkpt lat="43.96497" lon="2.33539">
        <ele>426</ele>
        <time>2021-04-18T14:16:34Z</time>
      </trkpt>
      <trkpt lat="43.96495" lon="2.33539">
        <ele>426</ele>
        <time>2021-04-18T14:16:35Z</time>
      </trkpt>
      <trkpt lat="43.96494" lon="2.33539">
        <ele>426</ele>
        <time>2021-04-18T14:16:36Z</time>
      </trkpt>
      <trkpt lat="43.96492" lon="2.33539">
        <ele>426</ele>
        <time>2021-04-18T14:16:37Z</time>
      </trkpt>
      <trkpt lat="43.96491" lon="2.33538">
        <ele>426</ele>
        <time>2021-04-18T14:16:38Z</time>
      </trkpt>
      <trkpt lat="43.9649" lon="2.33538">
        <ele>426</ele>
        <time>2021-04-18T14:16:39Z</time>
      </trkpt>
      <trkpt lat="43.96489" lon="2.33538">
        <ele>426</ele>
        <time>2021-04-18T14:16:40Z</time>
      </trkpt>
      <trkpt lat="43.96487" lon="2.33537">
        <ele>426</ele>
        <time>2021-04-18T14:16:41Z</time>
      </trkpt>
      <trkpt lat="43.96486" lon="2.33538">
        <ele>426</ele>
        <time>2021-04-18T14:16:42Z</time>
      </trkpt>
      <trkpt lat="43.96484" lon="2.33538">
        <ele>426</ele>
        <time>2021-04-18T14:16:43Z</time>
      </trkpt>
      <trkpt lat="43.96483" lon="2.33538">
        <ele>426</ele>
        <time>2021-04-18T14:16:44Z</time>
      </trkpt>
      <trkpt lat="43.96481" lon="2.33538">
        <ele>426</ele>
        <time>2021-04-18T14:16:45Z</time>
      </trkpt>
      <trkpt lat="43.96479" lon="2.33538">
        <ele>426</ele>
        <time>2021-04-18T14:16:46Z</time>
      </trkpt>
      <trkpt lat="43.96478" lon="2.33538">
        <ele>426</ele>
        <time>2021-04-18T14:16:47Z</time>
      </trkpt>
      <trkpt lat="43.96477" lon="2.33538">
        <ele>426</ele>
        <time>2021-04-18T14:16:48Z</time>
      </trkpt>
      <trkpt lat="43.96476" lon="2.33538">
        <ele>426</ele>
        <time>2021-04-18T14:16:49Z</time>
      </trkpt>
      <trkpt lat="43.96474" lon="2.33538">
        <ele>427</ele>
        <time>2021-04-18T14:16:50Z</time>
      </trkpt>
      <trkpt lat="43.96473" lon="2.33538">
        <ele>427</ele>
        <time>2021-04-18T14:16:51Z</time>
      </trkpt>
      <trkpt lat="43.96471" lon="2.33538">
        <ele>426</ele>
        <time>2021-04-18T14:16:52Z</time>
      </trkpt>
      <trkpt lat="43.9647" lon="2.33539">
        <ele>426</ele>
        <time>2021-04-18T14:16:53Z</time>
      </trkpt>
      <trkpt lat="43.96468" lon="2.33539">
        <ele>427</ele>
        <time>2021-04-18T14:16:54Z</time>
      </trkpt>
      <trkpt lat="43.96467" lon="2.3354">
        <ele>428</ele>
        <time>2021-04-18T14:16:55Z</time>
      </trkpt>
      <trkpt lat="43.96465" lon="2.3354">
        <ele>429</ele>
        <time>2021-04-18T14:16:56Z</time>
      </trkpt>
      <trkpt lat="43.96464" lon="2.33539">
        <ele>429</ele>
        <time>2021-04-18T14:16:57Z</time>
      </trkpt>
      <trkpt lat="43.96463" lon="2.33539">
        <ele>429</ele>
        <time>2021-04-18T14:16:58Z</time>
      </trkpt>
      <trkpt lat="43.96461" lon="2.33539">
        <ele>429</ele>
        <time>2021-04-18T14:16:59Z</time>
      </trkpt>
      <trkpt lat="43.96459" lon="2.33539">
        <ele>429</ele>
        <time>2021-04-18T14:17:00Z</time>
      </trkpt>
      <trkpt lat="43.96458" lon="2.33539">
        <ele>429</ele>
        <time>2021-04-18T14:17:01Z</time>
      </trkpt>
      <trkpt lat="43.96456" lon="2.3354">
        <ele>429</ele>
        <time>2021-04-18T14:17:02Z</time>
      </trkpt>
      <trkpt lat="43.96455" lon="2.3354">
        <ele>429</ele>
        <time>2021-04-18T14:17:03Z</time>
      </trkpt>
      <trkpt lat="43.96453" lon="2.3354">
        <ele>429</ele>
        <time>2021-04-18T14:17:04Z</time>
      </trkpt>
      <trkpt lat="43.96451" lon="2.33541">
        <ele>430</ele>
        <time>2021-04-18T14:17:05Z</time>
      </trkpt>
      <trkpt lat="43.9645" lon="2.33541">
        <ele>430</ele>
        <time>2021-04-18T14:17:06Z</time>
      </trkpt>
      <trkpt lat="43.96449" lon="2.33541">
        <ele>430</ele>
        <time>2021-04-18T14:17:07Z</time>
      </trkpt>
      <trkpt lat="43.96447" lon="2.33542">
        <ele>431</ele>
        <time>2021-04-18T14:17:08Z</time>
      </trkpt>
      <trkpt lat="43.96446" lon="2.33542">
        <ele>431</ele>
        <time>2021-04-18T14:17:09Z</time>
      </trkpt>
      <trkpt lat="43.96444" lon="2.33542">
        <ele>431</ele>
        <time>2021-04-18T14:17:10Z</time>
      </trkpt>
      <trkpt lat="43.96442" lon="2.33542">
        <ele>431</ele>
        <time>2021-04-18T14:17:11Z</time>
      </trkpt>
      <trkpt lat="43.96441" lon="2.33543">
        <ele>432</ele>
        <time>2021-04-18T14:17:12Z</time>
      </trkpt>
      <trkpt lat="43.9644" lon="2.33543">
        <ele>432</ele>
        <time>2021-04-18T14:17:13Z</time>
      </trkpt>
      <trkpt lat="43.96438" lon="2.33543">
        <ele>433</ele>
        <time>2021-04-18T14:17:14Z</time>
      </trkpt>
      <trkpt lat="43.96437" lon="2.33544">
        <ele>433</ele>
        <time>2021-04-18T14:17:15Z</time>
      </trkpt>
      <trkpt lat="43.96436" lon="2.33544">
        <ele>433</ele>
        <time>2021-04-18T14:17:16Z</time>
      </trkpt>
      <trkpt lat="43.96434" lon="2.33545">
        <ele>433</ele>
        <time>2021-04-18T14:17:17Z</time>
      </trkpt>
      <trkpt lat="43.96433" lon="2.33545">
        <ele>433</ele>
        <time>2021-04-18T14:17:18Z</time>
      </trkpt>
      <trkpt lat="43.96432" lon="2.33546">
        <ele>434</ele>
        <time>2021-04-18T14:17:19Z</time>
      </trkpt>
      <trkpt lat="43.9643" lon="2.33546">
        <ele>434</ele>
        <time>2021-04-18T14:17:20Z</time>
      </trkpt>
      <trkpt lat="43.96429" lon="2.33547">
        <ele>434</ele>
        <time>2021-04-18T14:17:21Z</time>
      </trkpt>
      <trkpt lat="43.96428" lon="2.33547">
        <ele>434</ele>
        <time>2021-04-18T14:17:22Z</time>
      </trkpt>
      <trkpt lat="43.96426" lon="2.33546">
        <ele>434</ele>
        <time>2021-04-18T14:17:23Z</time>
      </trkpt>
      <trkpt lat="43.96425" lon="2.33546">
        <ele>434</ele>
        <time>2021-04-18T14:17:24Z</time>
      </trkpt>
      <trkpt lat="43.96423" lon="2.33546">
        <ele>434</ele>
        <time>2021-04-18T14:17:25Z</time>
      </trkpt>
      <trkpt lat="43.96423" lon="2.33545">
        <ele>434</ele>
        <time>2021-04-18T14:17:26Z</time>
      </trkpt>
      <trkpt lat="43.96421" lon="2.33546">
        <ele>434</ele>
        <time>2021-04-18T14:17:27Z</time>
      </trkpt>
      <trkpt lat="43.9642" lon="2.33547">
        <ele>434</ele>
        <time>2021-04-18T14:17:28Z</time>
      </trkpt>
      <trkpt lat="43.96419" lon="2.33548">
        <ele>434</ele>
        <time>2021-04-18T14:17:29Z</time>
      </trkpt>
      <trkpt lat="43.96419" lon="2.33549">
        <ele>434</ele>
        <time>2021-04-18T14:17:30Z</time>
      </trkpt>
      <trkpt lat="43.96418" lon="2.3355">
        <ele>434</ele>
        <time>2021-04-18T14:17:31Z</time>
      </trkpt>
      <trkpt lat="43.96417" lon="2.33551">
        <ele>434</ele>
        <time>2021-04-18T14:17:32Z</time>
      </trkpt>
      <trkpt lat="43.96416" lon="2.33552">
        <ele>433</ele>
        <time>2021-04-18T14:17:33Z</time>
      </trkpt>
      <trkpt lat="43.96414" lon="2.33553">
        <ele>434</ele>
        <time>2021-04-18T14:17:34Z</time>
      </trkpt>
      <trkpt lat="43.96413" lon="2.33555">
        <ele>434</ele>
        <time>2021-04-18T14:17:35Z</time>
      </trkpt>
      <trkpt lat="43.96411" lon="2.33557">
        <ele>434</ele>
        <time>2021-04-18T14:17:36Z</time>
      </trkpt>
      <trkpt lat="43.9641" lon="2.33558">
        <ele>433</ele>
        <time>2021-04-18T14:17:37Z</time>
      </trkpt>
      <trkpt lat="43.96409" lon="2.33559">
        <ele>433</ele>
        <time>2021-04-18T14:17:38Z</time>
      </trkpt>
      <trkpt lat="43.96407" lon="2.3356">
        <ele>434</ele>
        <time>2021-04-18T14:17:39Z</time>
      </trkpt>
      <trkpt lat="43.96406" lon="2.3356">
        <ele>433</ele>
        <time>2021-04-18T14:17:40Z</time>
      </trkpt>
      <trkpt lat="43.96404" lon="2.33561">
        <ele>434</ele>
        <time>2021-04-18T14:17:41Z</time>
      </trkpt>
      <trkpt lat="43.96403" lon="2.33562">
        <ele>434</ele>
        <time>2021-04-18T14:17:42Z</time>
      </trkpt>
      <trkpt lat="43.96401" lon="2.33562">
        <ele>434</ele>
        <time>2021-04-18T14:17:43Z</time>
      </trkpt>
      <trkpt lat="43.96399" lon="2.33562">
        <ele>435</ele>
        <time>2021-04-18T14:17:44Z</time>
      </trkpt>
      <trkpt lat="43.96397" lon="2.33562">
        <ele>435</ele>
        <time>2021-04-18T14:17:45Z</time>
      </trkpt>
      <trkpt lat="43.96396" lon="2.33561">
        <ele>435</ele>
        <time>2021-04-18T14:17:46Z</time>
      </trkpt>
      <trkpt lat="43.96396" lon="2.33561">
        <ele>435</ele>
        <time>2021-04-18T14:17:47Z</time>
      </trkpt>
      <trkpt lat="43.96395" lon="2.33561">
        <ele>435</ele>
        <time>2021-04-18T14:17:48Z</time>
      </trkpt>
      <trkpt lat="43.96394" lon="2.33561">
        <ele>435</ele>
        <time>2021-04-18T14:17:49Z</time>
      </trkpt>
      <trkpt lat="43.96393" lon="2.3356">
        <ele>435</ele>
        <time>2021-04-18T14:17:50Z</time>
      </trkpt>
      <trkpt lat="43.96391" lon="2.33561">
        <ele>436</ele>
        <time>2021-04-18T14:17:51Z</time>
      </trkpt>
      <trkpt lat="43.9639" lon="2.33562">
        <ele>436</ele>
        <time>2021-04-18T14:17:52Z</time>
      </trkpt>
      <trkpt lat="43.96389" lon="2.33563">
        <ele>435</ele>
        <time>2021-04-18T14:17:53Z</time>
      </trkpt>
      <trkpt lat="43.96388" lon="2.33565">
        <ele>435</ele>
        <time>2021-04-18T14:17:54Z</time>
      </trkpt>
      <trkpt lat="43.96386" lon="2.33567">
        <ele>435</ele>
        <time>2021-04-18T14:17:55Z</time>
      </trkpt>
      <trkpt lat="43.96385" lon="2.33568">
        <ele>435</ele>
        <time>2021-04-18T14:17:56Z</time>
      </trkpt>
      <trkpt lat="43.96384" lon="2.33569">
        <ele>435</ele>
        <time>2021-04-18T14:17:57Z</time>
      </trkpt>
      <trkpt lat="43.96382" lon="2.33571">
        <ele>435</ele>
        <time>2021-04-18T14:17:58Z</time>
      </trkpt>
      <trkpt lat="43.96381" lon="2.33572">
        <ele>436</ele>
        <time>2021-04-18T14:17:59Z</time>
      </trkpt>
      <trkpt lat="43.9638" lon="2.33573">
        <ele>436</ele>
        <time>2021-04-18T14:18:00Z</time>
      </trkpt>
      <trkpt lat="43.96379" lon="2.33574">
        <ele>436</ele>
        <time>2021-04-18T14:18:01Z</time>
      </trkpt>
      <trkpt lat="43.96379" lon="2.33576">
        <ele>435</ele>
        <time>2021-04-18T14:18:02Z</time>
      </trkpt>
      <trkpt lat="43.96378" lon="2.33577">
        <ele>435</ele>
        <time>2021-04-18T14:18:03Z</time>
      </trkpt>
      <trkpt lat="43.96377" lon="2.33579">
        <ele>435</ele>
        <time>2021-04-18T14:18:04Z</time>
      </trkpt>
      <trkpt lat="43.96376" lon="2.33581">
        <ele>435</ele>
        <time>2021-04-18T14:18:05Z</time>
      </trkpt>
      <trkpt lat="43.96375" lon="2.33583">
        <ele>435</ele>
        <time>2021-04-18T14:18:06Z</time>
      </trkpt>
      <trkpt lat="43.96374" lon="2.33584">
        <ele>436</ele>
        <time>2021-04-18T14:18:07Z</time>
      </trkpt>
      <trkpt lat="43.96373" lon="2.33585">
        <ele>436</ele>
        <time>2021-04-18T14:18:08Z</time>
      </trkpt>
      <trkpt lat="43.96373" lon="2.33586">
        <ele>436</ele>
        <time>2021-04-18T14:18:09Z</time>
      </trkpt>
      <trkpt lat="43.96372" lon="2.33587">
        <ele>437</ele>
        <time>2021-04-18T14:18:10Z</time>
      </trkpt>
      <trkpt lat="43.96371" lon="2.33588">
        <ele>437</ele>
        <time>2021-04-18T14:18:11Z</time>
      </trkpt>
      <trkpt lat="43.9637" lon="2.3359">
        <ele>437</ele>
        <time>2021-04-18T14:18:12Z</time>
      </trkpt>
      <trkpt lat="43.9637" lon="2.3359">
        <ele>437</ele>
        <time>2021-04-18T14:18:13Z</time>
      </trkpt>
      <trkpt lat="43.96369" lon="2.33591">
        <ele>437</ele>
        <time>2021-04-18T14:18:14Z</time>
      </trkpt>
      <trkpt lat="43.96368" lon="2.33591">
        <ele>437</ele>
        <time>2021-04-18T14:18:15Z</time>
      </trkpt>
      <trkpt lat="43.96368" lon="2.33592">
        <ele>437</ele>
        <time>2021-04-18T14:18:16Z</time>
      </trkpt>
      <trkpt lat="43.96367" lon="2.33593">
        <ele>437</ele>
        <time>2021-04-18T14:18:17Z</time>
      </trkpt>
      <trkpt lat="43.96366" lon="2.33593">
        <ele>437</ele>
        <time>2021-04-18T14:18:18Z</time>
      </trkpt>
      <trkpt lat="43.96366" lon="2.33593">
        <ele>437</ele>
        <time>2021-04-18T14:18:18Z</time>
      </trkpt>
      <trkpt lat="43.96366" lon="2.33593">
        <ele>437</ele>
        <time>2021-04-18T14:18:18Z</time>
      </trkpt>
      <trkpt lat="43.96366" lon="2.33593">
        <ele>437</ele>
        <time>2021-04-18T14:18:18Z</time>
      </trkpt>
      <trkpt lat="43.96366" lon="2.33593">
        <ele>437</ele>
        <time>2021-04-18T14:18:18Z</time>
      </trkpt>
      <trkpt lat="43.96366" lon="2.33593">
        <ele>437</ele>
        <time>2021-04-18T14:18:18Z</time>
      </trkpt>
      <trkpt lat="43.96372" lon="2.33589">
        <ele>424</ele>
        <time>2021-04-18T14:19:20Z</time>
      </trkpt>
      <trkpt lat="43.96372" lon="2.33587">
        <ele>424</ele>
        <time>2021-04-18T14:19:21Z</time>
      </trkpt>
      <trkpt lat="43.96372" lon="2.33584">
        <ele>425</ele>
        <time>2021-04-18T14:19:22Z</time>
      </trkpt>
      <trkpt lat="43.96373" lon="2.33583">
        <ele>425</ele>
        <time>2021-04-18T14:19:23Z</time>
      </trkpt>
      <trkpt lat="43.96374" lon="2.33581">
        <ele>425</ele>
        <time>2021-04-18T14:19:24Z</time>
      </trkpt>
      <trkpt lat="43.96375" lon="2.33579">
        <ele>425</ele>
        <time>2021-04-18T14:19:25Z</time>
      </trkpt>
      <trkpt lat="43.96375" lon="2.33578">
        <ele>425</ele>
        <time>2021-04-18T14:19:26Z</time>
      </trkpt>
      <trkpt lat="43.96376" lon="2.33577">
        <ele>425</ele>
        <time>2021-04-18T14:19:27Z</time>
      </trkpt>
      <trkpt lat="43.96376" lon="2.33575">
        <ele>425</ele>
        <time>2021-04-18T14:19:28Z</time>
      </trkpt>
      <trkpt lat="43.96377" lon="2.33574">
        <ele>425</ele>
        <time>2021-04-18T14:19:29Z</time>
      </trkpt>
      <trkpt lat="43.96378" lon="2.33573">
        <ele>426</ele>
        <time>2021-04-18T14:19:30Z</time>
      </trkpt>
      <trkpt lat="43.96378" lon="2.33571">
        <ele>426</ele>
        <time>2021-04-18T14:19:31Z</time>
      </trkpt>
      <trkpt lat="43.96379" lon="2.3357">
        <ele>426</ele>
        <time>2021-04-18T14:19:32Z</time>
      </trkpt>
      <trkpt lat="43.9638" lon="2.33568">
        <ele>427</ele>
        <time>2021-04-18T14:19:33Z</time>
      </trkpt>
      <trkpt lat="43.96381" lon="2.33566">
        <ele>426</ele>
        <time>2021-04-18T14:19:34Z</time>
      </trkpt>
      <trkpt lat="43.96381" lon="2.33564">
        <ele>427</ele>
        <time>2021-04-18T14:19:35Z</time>
      </trkpt>
      <trkpt lat="43.96383" lon="2.33562">
        <ele>427</ele>
        <time>2021-04-18T14:19:36Z</time>
      </trkpt>
      <trkpt lat="43.96383" lon="2.33561">
        <ele>428</ele>
        <time>2021-04-18T14:19:37Z</time>
      </trkpt>
      <trkpt lat="43.96384" lon="2.3356">
        <ele>428</ele>
        <time>2021-04-18T14:19:38Z</time>
      </trkpt>
      <trkpt lat="43.96385" lon="2.33558">
        <ele>428</ele>
        <time>2021-04-18T14:19:39Z</time>
      </trkpt>
      <trkpt lat="43.96386" lon="2.33556">
        <ele>428</ele>
        <time>2021-04-18T14:19:40Z</time>
      </trkpt>
      <trkpt lat="43.96386" lon="2.33555">
        <ele>428</ele>
        <time>2021-04-18T14:19:41Z</time>
      </trkpt>
      <trkpt lat="43.96386" lon="2.33553">
        <ele>428</ele>
        <time>2021-04-18T14:19:42Z</time>
      </trkpt>
      <trkpt lat="43.96387" lon="2.33552">
        <ele>428</ele>
        <time>2021-04-18T14:19:43Z</time>
      </trkpt>
      <trkpt lat="43.96386" lon="2.3355">
        <ele>428</ele>
        <time>2021-04-18T14:19:44Z</time>
      </trkpt>
      <trkpt lat="43.96387" lon="2.33548">
        <ele>428</ele>
        <time>2021-04-18T14:19:45Z</time>
      </trkpt>
      <trkpt lat="43.96387" lon="2.33546">
        <ele>428</ele>
        <time>2021-04-18T14:19:46Z</time>
      </trkpt>
      <trkpt lat="43.96387" lon="2.33545">
        <ele>428</ele>
        <time>2021-04-18T14:19:47Z</time>
      </trkpt>
      <trkpt lat="43.96387" lon="2.33543">
        <ele>428</ele>
        <time>2021-04-18T14:19:48Z</time>
      </trkpt>
      <trkpt lat="43.96387" lon="2.3354">
        <ele>427</ele>
        <time>2021-04-18T14:19:49Z</time>
      </trkpt>
      <trkpt lat="43.96387" lon="2.33538">
        <ele>427</ele>
        <time>2021-04-18T14:19:50Z</time>
      </trkpt>
      <trkpt lat="43.96386" lon="2.33536">
        <ele>427</ele>
        <time>2021-04-18T14:19:51Z</time>
      </trkpt>
      <trkpt lat="43.96387" lon="2.33534">
        <ele>427</ele>
        <time>2021-04-18T14:19:52Z</time>
      </trkpt>
      <trkpt lat="43.96387" lon="2.33532">
        <ele>427</ele>
        <time>2021-04-18T14:19:53Z</time>
      </trkpt>
      <trkpt lat="43.96387" lon="2.3353">
        <ele>427</ele>
        <time>2021-04-18T14:19:54Z</time>
      </trkpt>
      <trkpt lat="43.96388" lon="2.33528">
        <ele>427</ele>
        <time>2021-04-18T14:19:55Z</time>
      </trkpt>
      <trkpt lat="43.96388" lon="2.33526">
        <ele>427</ele>
        <time>2021-04-18T14:19:56Z</time>
      </trkpt>
      <trkpt lat="43.96388" lon="2.33524">
        <ele>427</ele>
        <time>2021-04-18T14:19:57Z</time>
      </trkpt>
      <trkpt lat="43.96387" lon="2.33521">
        <ele>427</ele>
        <time>2021-04-18T14:19:58Z</time>
      </trkpt>
      <trkpt lat="43.96387" lon="2.33519">
        <ele>427</ele>
        <time>2021-04-18T14:19:59Z</time>
      </trkpt>
      <trkpt lat="43.96387" lon="2.33517">
        <ele>427</ele>
        <time>2021-04-18T14:20:00Z</time>
      </trkpt>
      <trkpt lat="43.96388" lon="2.33515">
        <ele>427</ele>
        <time>2021-04-18T14:20:01Z</time>
      </trkpt>
      <trkpt lat="43.96388" lon="2.33512">
        <ele>427</ele>
        <time>2021-04-18T14:20:02Z</time>
      </trkpt>
      <trkpt lat="43.96388" lon="2.3351">
        <ele>427</ele>
        <time>2021-04-18T14:20:03Z</time>
      </trkpt>
      <trkpt lat="43.96388" lon="2.33508">
        <ele>427</ele>
        <time>2021-04-18T14:20:04Z</time>
      </trkpt>
      <trkpt lat="43.96388" lon="2.33507">
        <ele>427</ele>
        <time>2021-04-18T14:20:05Z</time>
      </trkpt>
      <trkpt lat="43.96388" lon="2.33505">
        <ele>427</ele>
        <time>2021-04-18T14:20:06Z</time>
      </trkpt>
      <trkpt lat="43.96388" lon="2.33504">
        <ele>427</ele>
        <time>2021-04-18T14:20:07Z</time>
      </trkpt>
      <trkpt lat="43.96389" lon="2.33502">
        <ele>426</ele>
        <time>2021-04-18T14:20:08Z</time>
      </trkpt>
      <trkpt lat="43.96388" lon="2.335">
        <ele>426</ele>
        <time>2021-04-18T14:20:09Z</time>
      </trkpt>
      <trkpt lat="43.96389" lon="2.33498">
        <ele>426</ele>
        <time>2021-04-18T14:20:10Z</time>
      </trkpt>
      <trkpt lat="43.96389" lon="2.33496">
        <ele>426</ele>
        <time>2021-04-18T14:20:11Z</time>
      </trkpt>
      <trkpt lat="43.96389" lon="2.33494">
        <ele>426</ele>
        <time>2021-04-18T14:20:12Z</time>
      </trkpt>
      <trkpt lat="43.96389" lon="2.33492">
        <ele>426</ele>
        <time>2021-04-18T14:20:13Z</time>
      </trkpt>
      <trkpt lat="43.96389" lon="2.3349">
        <ele>426</ele>
        <time>2021-04-18T14:20:14Z</time>
      </trkpt>
      <trkpt lat="43.96389" lon="2.33488">
        <ele>426</ele>
        <time>2021-04-18T14:20:15Z</time>
      </trkpt>
      <trkpt lat="43.9639" lon="2.33486">
        <ele>425</ele>
        <time>2021-04-18T14:20:16Z</time>
      </trkpt>
      <trkpt lat="43.9639" lon="2.33484">
        <ele>425</ele>
        <time>2021-04-18T14:20:17Z</time>
      </trkpt>
      <trkpt lat="43.96391" lon="2.33482">
        <ele>425</ele>
        <time>2021-04-18T14:20:18Z</time>
      </trkpt>
      <trkpt lat="43.96391" lon="2.3348">
        <ele>424</ele>
        <time>2021-04-18T14:20:19Z</time>
      </trkpt>
      <trkpt lat="43.96391" lon="2.33479">
        <ele>424</ele>
        <time>2021-04-18T14:20:20Z</time>
      </trkpt>
      <trkpt lat="43.96392" lon="2.33477">
        <ele>425</ele>
        <time>2021-04-18T14:20:21Z</time>
      </trkpt>
      <trkpt lat="43.96392" lon="2.33475">
        <ele>425</ele>
        <time>2021-04-18T14:20:22Z</time>
      </trkpt>
      <trkpt lat="43.96392" lon="2.33473">
        <ele>424</ele>
        <time>2021-04-18T14:20:23Z</time>
      </trkpt>
      <trkpt lat="43.96392" lon="2.33471">
        <ele>424</ele>
        <time>2021-04-18T14:20:24Z</time>
      </trkpt>
      <trkpt lat="43.96393" lon="2.33469">
        <ele>424</ele>
        <time>2021-04-18T14:20:25Z</time>
      </trkpt>
      <trkpt lat="43.96393" lon="2.33467">
        <ele>424</ele>
        <time>2021-04-18T14:20:26Z</time>
      </trkpt>
      <trkpt lat="43.96393" lon="2.33465">
        <ele>424</ele>
        <time>2021-04-18T14:20:27Z</time>
      </trkpt>
      <trkpt lat="43.96394" lon="2.33464">
        <ele>425</ele>
        <time>2021-04-18T14:20:28Z</time>
      </trkpt>
      <trkpt lat="43.96393" lon="2.33463">
        <ele>425</ele>
        <time>2021-04-18T14:20:29Z</time>
      </trkpt>
      <trkpt lat="43.96393" lon="2.33462">
        <ele>425</ele>
        <time>2021-04-18T14:20:30Z</time>
      </trkpt>
      <trkpt lat="43.96393" lon="2.3346">
        <ele>425</ele>
        <time>2021-04-18T14:20:31Z</time>
      </trkpt>
      <trkpt lat="43.96392" lon="2.33458">
        <ele>424</ele>
        <time>2021-04-18T14:20:32Z</time>
      </trkpt>
      <trkpt lat="43.96392" lon="2.33456">
        <ele>424</ele>
        <time>2021-04-18T14:20:33Z</time>
      </trkpt>
      <trkpt lat="43.96391" lon="2.33454">
        <ele>424</ele>
        <time>2021-04-18T14:20:34Z</time>
      </trkpt>
      <trkpt lat="43.96391" lon="2.33453">
        <ele>423</ele>
        <time>2021-04-18T14:20:35Z</time>
      </trkpt>
      <trkpt lat="43.9639" lon="2.33451">
        <ele>423</ele>
        <time>2021-04-18T14:20:36Z</time>
      </trkpt>
      <trkpt lat="43.96389" lon="2.3345">
        <ele>423</ele>
        <time>2021-04-18T14:20:37Z</time>
      </trkpt>
      <trkpt lat="43.96388" lon="2.33448">
        <ele>423</ele>
        <time>2021-04-18T14:20:38Z</time>
      </trkpt>
      <trkpt lat="43.96387" lon="2.33446">
        <ele>423</ele>
        <time>2021-04-18T14:20:39Z</time>
      </trkpt>
      <trkpt lat="43.96386" lon="2.33444">
        <ele>423</ele>
        <time>2021-04-18T14:20:40Z</time>
      </trkpt>
      <trkpt lat="43.96386" lon="2.33441">
        <ele>423</ele>
        <time>2021-04-18T14:20:41Z</time>
      </trkpt>
      <trkpt lat="43.96386" lon="2.33439">
        <ele>422</ele>
        <time>2021-04-18T14:20:42Z</time>
      </trkpt>
      <trkpt lat="43.96385" lon="2.33437">
        <ele>422</ele>
        <time>2021-04-18T14:20:43Z</time>
      </trkpt>
      <trkpt lat="43.96384" lon="2.33434">
        <ele>422</ele>
        <time>2021-04-18T14:20:44Z</time>
      </trkpt>
      <trkpt lat="43.96383" lon="2.33431">
        <ele>422</ele>
        <time>2021-04-18T14:20:45Z</time>
      </trkpt>
      <trkpt lat="43.96383" lon="2.33429">
        <ele>422</ele>
        <time>2021-04-18T14:20:46Z</time>
      </trkpt>
      <trkpt lat="43.96382" lon="2.33428">
        <ele>422</ele>
        <time>2021-04-18T14:20:47Z</time>
      </trkpt>
      <trkpt lat="43.96382" lon="2.33427">
        <ele>422</ele>
        <time>2021-04-18T14:20:48Z</time>
      </trkpt>
      <trkpt lat="43.96381" lon="2.33425">
        <ele>422</ele>
        <time>2021-04-18T14:20:50Z</time>
      </trkpt>
      <trkpt lat="43.9638" lon="2.33424">
        <ele>421</ele>
        <time>2021-04-18T14:20:51Z</time>
      </trkpt>
      <trkpt lat="43.96379" lon="2.33422">
        <ele>421</ele>
        <time>2021-04-18T14:20:52Z</time>
      </trkpt>
      <trkpt lat="43.96378" lon="2.3342">
        <ele>421</ele>
        <time>2021-04-18T14:20:53Z</time>
      </trkpt>
      <trkpt lat="43.96377" lon="2.33418">
        <ele>421</ele>
        <time>2021-04-18T14:20:54Z</time>
      </trkpt>
      <trkpt lat="43.96376" lon="2.33416">
        <ele>421</ele>
        <time>2021-04-18T14:20:55Z</time>
      </trkpt>
      <trkpt lat="43.96376" lon="2.33414">
        <ele>421</ele>
        <time>2021-04-18T14:20:56Z</time>
      </trkpt>
      <trkpt lat="43.96375" lon="2.33412">
        <ele>420</ele>
        <time>2021-04-18T14:20:57Z</time>
      </trkpt>
      <trkpt lat="43.96375" lon="2.3341">
        <ele>420</ele>
        <time>2021-04-18T14:20:58Z</time>
      </trkpt>
      <trkpt lat="43.96373" lon="2.33409">
        <ele>419</ele>
        <time>2021-04-18T14:20:59Z</time>
      </trkpt>
      <trkpt lat="43.96372" lon="2.33407">
        <ele>419</ele>
        <time>2021-04-18T14:21:00Z</time>
      </trkpt>
      <trkpt lat="43.96372" lon="2.33405">
        <ele>419</ele>
        <time>2021-04-18T14:21:01Z</time>
      </trkpt>
      <trkpt lat="43.96371" lon="2.33403">
        <ele>419</ele>
        <time>2021-04-18T14:21:02Z</time>
      </trkpt>
      <trkpt lat="43.9637" lon="2.33402">
        <ele>419</ele>
        <time>2021-04-18T14:21:03Z</time>
      </trkpt>
      <trkpt lat="43.96369" lon="2.33401">
        <ele>419</ele>
        <time>2021-04-18T14:21:04Z</time>
      </trkpt>
      <trkpt lat="43.96369" lon="2.33399">
        <ele>419</ele>
        <time>2021-04-18T14:21:05Z</time>
      </trkpt>
      <trkpt lat="43.96368" lon="2.33397">
        <ele>419</ele>
        <time>2021-04-18T14:21:06Z</time>
      </trkpt>
      <trkpt lat="43.96368" lon="2.33396">
        <ele>419</ele>
        <time>2021-04-18T14:21:07Z</time>
      </trkpt>
      <trkpt lat="43.96367" lon="2.33397">
        <ele>419</ele>
        <time>2021-04-18T14:21:08Z</time>
      </trkpt>
      <trkpt lat="43.96367" lon="2.33397">
        <ele>419</ele>
        <time>2021-04-18T14:21:09Z</time>
      </trkpt>
      <trkpt lat="43.96367" lon="2.33397">
        <ele>419</ele>
        <time>2021-04-18T14:21:10Z</time>
      </trkpt>
      <trkpt lat="43.96367" lon="2.33398">
        <ele>419</ele>
        <time>2021-04-18T14:21:11Z</time>
      </trkpt>
      <trkpt lat="43.96367" lon="2.33398">
        <ele>419</ele>
        <time>2021-04-18T14:21:11Z</time>
      </trkpt>
      <trkpt lat="43.96367" lon="2.33398">
        <ele>419</ele>
        <time>2021-04-18T14:21:11Z</time>
      </trkpt>
      <trkpt lat="43.96363" lon="2.33382">
        <ele>425</ele>
        <time>2021-04-18T14:21:37Z</time>
      </trkpt>
      <trkpt lat="43.96363" lon="2.3338">
        <ele>426</ele>
        <time>2021-04-18T14:21:38Z</time>
      </trkpt>
      <trkpt lat="43.96363" lon="2.33378">
        <ele>426</ele>
        <time>2021-04-18T14:21:39Z</time>
      </trkpt>
      <trkpt lat="43.96363" lon="2.33376">
        <ele>426</ele>
        <time>2021-04-18T14:21:40Z</time>
      </trkpt>
      <trkpt lat="43.96362" lon="2.33374">
        <ele>426</ele>
        <time>2021-04-18T14:21:41Z</time>
      </trkpt>
      <trkpt lat="43.96361" lon="2.33372">
        <ele>426</ele>
        <time>2021-04-18T14:21:42Z</time>
      </trkpt>
      <trkpt lat="43.96361" lon="2.3337">
        <ele>426</ele>
        <time>2021-04-18T14:21:43Z</time>
      </trkpt>
      <trkpt lat="43.9636" lon="2.33368">
        <ele>426</ele>
        <time>2021-04-18T14:21:44Z</time>
      </trkpt>
      <trkpt lat="43.9636" lon="2.33366">
        <ele>426</ele>
        <time>2021-04-18T14:21:45Z</time>
      </trkpt>
      <trkpt lat="43.9636" lon="2.33364">
        <ele>426</ele>
        <time>2021-04-18T14:21:46Z</time>
      </trkpt>
      <trkpt lat="43.9636" lon="2.33362">
        <ele>426</ele>
        <time>2021-04-18T14:21:47Z</time>
      </trkpt>
      <trkpt lat="43.96359" lon="2.33361">
        <ele>426</ele>
        <time>2021-04-18T14:21:48Z</time>
      </trkpt>
      <trkpt lat="43.96359" lon="2.33359">
        <ele>427</ele>
        <time>2021-04-18T14:21:49Z</time>
      </trkpt>
      <trkpt lat="43.96359" lon="2.33357">
        <ele>426</ele>
        <time>2021-04-18T14:21:50Z</time>
      </trkpt>
      <trkpt lat="43.96358" lon="2.33355">
        <ele>426</ele>
        <time>2021-04-18T14:21:51Z</time>
      </trkpt>
      <trkpt lat="43.96358" lon="2.33353">
        <ele>426</ele>
        <time>2021-04-18T14:21:52Z</time>
      </trkpt>
      <trkpt lat="43.96357" lon="2.3335">
        <ele>426</ele>
        <time>2021-04-18T14:21:53Z</time>
      </trkpt>
      <trkpt lat="43.96357" lon="2.33349">
        <ele>426</ele>
        <time>2021-04-18T14:21:54Z</time>
      </trkpt>
      <trkpt lat="43.96356" lon="2.33347">
        <ele>426</ele>
        <time>2021-04-18T14:21:55Z</time>
      </trkpt>
      <trkpt lat="43.96355" lon="2.33345">
        <ele>426</ele>
        <time>2021-04-18T14:21:56Z</time>
      </trkpt>
      <trkpt lat="43.96355" lon="2.33343">
        <ele>426</ele>
        <time>2021-04-18T14:21:57Z</time>
      </trkpt>
      <trkpt lat="43.96354" lon="2.33342">
        <ele>426</ele>
        <time>2021-04-18T14:21:58Z</time>
      </trkpt>
      <trkpt lat="43.96354" lon="2.3334">
        <ele>426</ele>
        <time>2021-04-18T14:21:59Z</time>
      </trkpt>
      <trkpt lat="43.96353" lon="2.33339">
        <ele>426</ele>
        <time>2021-04-18T14:22:00Z</time>
      </trkpt>
      <trkpt lat="43.96352" lon="2.33337">
        <ele>426</ele>
        <time>2021-04-18T14:22:01Z</time>
      </trkpt>
      <trkpt lat="43.96352" lon="2.33335">
        <ele>426</ele>
        <time>2021-04-18T14:22:02Z</time>
      </trkpt>
      <trkpt lat="43.96351" lon="2.33333">
        <ele>426</ele>
        <time>2021-04-18T14:22:03Z</time>
      </trkpt>
      <trkpt lat="43.9635" lon="2.33331">
        <ele>426</ele>
        <time>2021-04-18T14:22:04Z</time>
      </trkpt>
      <trkpt lat="43.96349" lon="2.3333">
        <ele>426</ele>
        <time>2021-04-18T14:22:05Z</time>
      </trkpt>
      <trkpt lat="43.96349" lon="2.33328">
        <ele>426</ele>
        <time>2021-04-18T14:22:06Z</time>
      </trkpt>
      <trkpt lat="43.96348" lon="2.33327">
        <ele>426</ele>
        <time>2021-04-18T14:22:07Z</time>
      </trkpt>
      <trkpt lat="43.96347" lon="2.33325">
        <ele>427</ele>
        <time>2021-04-18T14:22:08Z</time>
      </trkpt>
      <trkpt lat="43.96347" lon="2.33324">
        <ele>426</ele>
        <time>2021-04-18T14:22:09Z</time>
      </trkpt>
      <trkpt lat="43.96347" lon="2.33321">
        <ele>427</ele>
        <time>2021-04-18T14:22:10Z</time>
      </trkpt>
      <trkpt lat="43.96346" lon="2.33319">
        <ele>427</ele>
        <time>2021-04-18T14:22:11Z</time>
      </trkpt>
      <trkpt lat="43.96346" lon="2.33317">
        <ele>427</ele>
        <time>2021-04-18T14:22:12Z</time>
      </trkpt>
      <trkpt lat="43.96346" lon="2.33315">
        <ele>427</ele>
        <time>2021-04-18T14:22:13Z</time>
      </trkpt>
      <trkpt lat="43.96345" lon="2.33313">
        <ele>427</ele>
        <time>2021-04-18T14:22:14Z</time>
      </trkpt>
      <trkpt lat="43.96344" lon="2.3331">
        <ele>427</ele>
        <time>2021-04-18T14:22:15Z</time>
      </trkpt>
      <trkpt lat="43.96344" lon="2.33308">
        <ele>427</ele>
        <time>2021-04-18T14:22:16Z</time>
      </trkpt>
      <trkpt lat="43.96343" lon="2.33305">
        <ele>426</ele>
        <time>2021-04-18T14:22:17Z</time>
      </trkpt>
      <trkpt lat="43.96342" lon="2.33303">
        <ele>426</ele>
        <time>2021-04-18T14:22:18Z</time>
      </trkpt>
      <trkpt lat="43.96342" lon="2.33301">
        <ele>426</ele>
        <time>2021-04-18T14:22:19Z</time>
      </trkpt>
      <trkpt lat="43.96341" lon="2.33299">
        <ele>426</ele>
        <time>2021-04-18T14:22:20Z</time>
      </trkpt>
      <trkpt lat="43.96341" lon="2.33297">
        <ele>426</ele>
        <time>2021-04-18T14:22:21Z</time>
      </trkpt>
      <trkpt lat="43.9634" lon="2.33295">
        <ele>425</ele>
        <time>2021-04-18T14:22:22Z</time>
      </trkpt>
      <trkpt lat="43.96339" lon="2.33293">
        <ele>426</ele>
        <time>2021-04-18T14:22:23Z</time>
      </trkpt>
      <trkpt lat="43.96339" lon="2.33291">
        <ele>426</ele>
        <time>2021-04-18T14:22:24Z</time>
      </trkpt>
      <trkpt lat="43.96338" lon="2.33289">
        <ele>426</ele>
        <time>2021-04-18T14:22:25Z</time>
      </trkpt>
      <trkpt lat="43.96338" lon="2.33286">
        <ele>426</ele>
        <time>2021-04-18T14:22:26Z</time>
      </trkpt>
      <trkpt lat="43.96337" lon="2.33284">
        <ele>426</ele>
        <time>2021-04-18T14:22:27Z</time>
      </trkpt>
      <trkpt lat="43.96336" lon="2.33282">
        <ele>426</ele>
        <time>2021-04-18T14:22:28Z</time>
      </trkpt>
      <trkpt lat="43.96336" lon="2.3328">
        <ele>426</ele>
        <time>2021-04-18T14:22:29Z</time>
      </trkpt>
      <trkpt lat="43.96336" lon="2.33278">
        <ele>426</ele>
        <time>2021-04-18T14:22:30Z</time>
      </trkpt>
      <trkpt lat="43.96335" lon="2.33276">
        <ele>426</ele>
        <time>2021-04-18T14:22:31Z</time>
      </trkpt>
      <trkpt lat="43.96335" lon="2.33274">
        <ele>426</ele>
        <time>2021-04-18T14:22:32Z</time>
      </trkpt>
      <trkpt lat="43.96334" lon="2.33272">
        <ele>426</ele>
        <time>2021-04-18T14:22:33Z</time>
      </trkpt>
      <trkpt lat="43.96333" lon="2.3327">
        <ele>425</ele>
        <time>2021-04-18T14:22:34Z</time>
      </trkpt>
      <trkpt lat="43.96333" lon="2.33268">
        <ele>425</ele>
        <time>2021-04-18T14:22:35Z</time>
      </trkpt>
      <trkpt lat="43.96332" lon="2.33266">
        <ele>424</ele>
        <time>2021-04-18T14:22:36Z</time>
      </trkpt>
      <trkpt lat="43.96331" lon="2.33264">
        <ele>424</ele>
        <time>2021-04-18T14:22:37Z</time>
      </trkpt>
      <trkpt lat="43.96331" lon="2.33262">
        <ele>424</ele>
        <time>2021-04-18T14:22:38Z</time>
      </trkpt>
      <trkpt lat="43.96331" lon="2.3326">
        <ele>424</ele>
        <time>2021-04-18T14:22:39Z</time>
      </trkpt>
      <trkpt lat="43.9633" lon="2.33258">
        <ele>425</ele>
        <time>2021-04-18T14:22:40Z</time>
      </trkpt>
      <trkpt lat="43.9633" lon="2.33257">
        <ele>425</ele>
        <time>2021-04-18T14:22:41Z</time>
      </trkpt>
      <trkpt lat="43.96329" lon="2.33255">
        <ele>425</ele>
        <time>2021-04-18T14:22:42Z</time>
      </trkpt>
      <trkpt lat="43.96329" lon="2.33253">
        <ele>424</ele>
        <time>2021-04-18T14:22:43Z</time>
      </trkpt>
      <trkpt lat="43.96329" lon="2.33251">
        <ele>424</ele>
        <time>2021-04-18T14:22:44Z</time>
      </trkpt>
      <trkpt lat="43.96329" lon="2.3325">
        <ele>424</ele>
        <time>2021-04-18T14:22:45Z</time>
      </trkpt>
      <trkpt lat="43.96329" lon="2.33248">
        <ele>423</ele>
        <time>2021-04-18T14:22:46Z</time>
      </trkpt>
      <trkpt lat="43.96328" lon="2.33247">
        <ele>423</ele>
        <time>2021-04-18T14:22:47Z</time>
      </trkpt>
      <trkpt lat="43.96328" lon="2.33245">
        <ele>424</ele>
        <time>2021-04-18T14:22:48Z</time>
      </trkpt>
      <trkpt lat="43.96328" lon="2.33243">
        <ele>424</ele>
        <time>2021-04-18T14:22:49Z</time>
      </trkpt>
      <trkpt lat="43.96327" lon="2.33241">
        <ele>424</ele>
        <time>2021-04-18T14:22:50Z</time>
      </trkpt>
      <trkpt lat="43.96326" lon="2.33239">
        <ele>424</ele>
        <time>2021-04-18T14:22:51Z</time>
      </trkpt>
      <trkpt lat="43.96326" lon="2.33238">
        <ele>424</ele>
        <time>2021-04-18T14:22:52Z</time>
      </trkpt>
      <trkpt lat="43.96326" lon="2.33236">
        <ele>424</ele>
        <time>2021-04-18T14:22:53Z</time>
      </trkpt>
      <trkpt lat="43.96325" lon="2.33235">
        <ele>424</ele>
        <time>2021-04-18T14:22:54Z</time>
      </trkpt>
      <trkpt lat="43.96324" lon="2.33232">
        <ele>424</ele>
        <time>2021-04-18T14:22:55Z</time>
      </trkpt>
      <trkpt lat="43.96323" lon="2.3323">
        <ele>424</ele>
        <time>2021-04-18T14:22:56Z</time>
      </trkpt>
      <trkpt lat="43.96323" lon="2.33228">
        <ele>424</ele>
        <time>2021-04-18T14:22:57Z</time>
      </trkpt>
      <trkpt lat="43.96322" lon="2.33226">
        <ele>424</ele>
        <time>2021-04-18T14:22:58Z</time>
      </trkpt>
      <trkpt lat="43.96321" lon="2.33224">
        <ele>424</ele>
        <time>2021-04-18T14:22:59Z</time>
      </trkpt>
      <trkpt lat="43.9632" lon="2.33222">
        <ele>424</ele>
        <time>2021-04-18T14:23:00Z</time>
      </trkpt>
      <trkpt lat="43.96319" lon="2.3322">
        <ele>424</ele>
        <time>2021-04-18T14:23:01Z</time>
      </trkpt>
      <trkpt lat="43.96318" lon="2.33218">
        <ele>424</ele>
        <time>2021-04-18T14:23:02Z</time>
      </trkpt>
      <trkpt lat="43.96318" lon="2.33216">
        <ele>424</ele>
        <time>2021-04-18T14:23:03Z</time>
      </trkpt>
      <trkpt lat="43.96317" lon="2.33214">
        <ele>424</ele>
        <time>2021-04-18T14:23:04Z</time>
      </trkpt>
      <trkpt lat="43.96317" lon="2.33212">
        <ele>424</ele>
        <time>2021-04-18T14:23:05Z</time>
      </trkpt>
      <trkpt lat="43.96316" lon="2.3321">
        <ele>424</ele>
        <time>2021-04-18T14:23:06Z</time>
      </trkpt>
      <trkpt lat="43.96315" lon="2.33208">
        <ele>424</ele>
        <time>2021-04-18T14:23:07Z</time>
      </trkpt>
      <trkpt lat="43.96315" lon="2.33206">
        <ele>424</ele>
        <time>2021-04-18T14:23:08Z</time>
      </trkpt>
      <trkpt lat="43.96314" lon="2.33204">
        <ele>424</ele>
        <time>2021-04-18T14:23:09Z</time>
      </trkpt>
      <trkpt lat="43.96313" lon="2.33202">
        <ele>424</ele>
        <time>2021-04-18T14:23:10Z</time>
      </trkpt>
      <trkpt lat="43.96312" lon="2.33201">
        <ele>425</ele>
        <time>2021-04-18T14:23:11Z</time>
      </trkpt>
      <trkpt lat="43.96311" lon="2.33199">
        <ele>425</ele>
        <time>2021-04-18T14:23:12Z</time>
      </trkpt>
      <trkpt lat="43.9631" lon="2.33197">
        <ele>425</ele>
        <time>2021-04-18T14:23:13Z</time>
      </trkpt>
      <trkpt lat="43.96309" lon="2.33195">
        <ele>425</ele>
        <time>2021-04-18T14:23:14Z</time>
      </trkpt>
      <trkpt lat="43.96308" lon="2.33194">
        <ele>425</ele>
        <time>2021-04-18T14:23:15Z</time>
      </trkpt>
      <trkpt lat="43.96307" lon="2.33192">
        <ele>425</ele>
        <time>2021-04-18T14:23:16Z</time>
      </trkpt>
      <trkpt lat="43.96306" lon="2.3319">
        <ele>425</ele>
        <time>2021-04-18T14:23:17Z</time>
      </trkpt>
      <trkpt lat="43.96306" lon="2.33188">
        <ele>425</ele>
        <time>2021-04-18T14:23:18Z</time>
      </trkpt>
      <trkpt lat="43.96305" lon="2.33186">
        <ele>425</ele>
        <time>2021-04-18T14:23:19Z</time>
      </trkpt>
      <trkpt lat="43.96304" lon="2.33184">
        <ele>426</ele>
        <time>2021-04-18T14:23:20Z</time>
      </trkpt>
      <trkpt lat="43.96303" lon="2.33182">
        <ele>426</ele>
        <time>2021-04-18T14:23:21Z</time>
      </trkpt>
      <trkpt lat="43.96302" lon="2.33179">
        <ele>425</ele>
        <time>2021-04-18T14:23:22Z</time>
      </trkpt>
      <trkpt lat="43.96301" lon="2.33177">
        <ele>425</ele>
        <time>2021-04-18T14:23:23Z</time>
      </trkpt>
      <trkpt lat="43.96301" lon="2.33176">
        <ele>426</ele>
        <time>2021-04-18T14:23:24Z</time>
      </trkpt>
      <trkpt lat="43.963" lon="2.33174">
        <ele>426</ele>
        <time>2021-04-18T14:23:25Z</time>
      </trkpt>
      <trkpt lat="43.96299" lon="2.33172">
        <ele>426</ele>
        <time>2021-04-18T14:23:26Z</time>
      </trkpt>
      <trkpt lat="43.96298" lon="2.3317">
        <ele>426</ele>
        <time>2021-04-18T14:23:27Z</time>
      </trkpt>
      <trkpt lat="43.96298" lon="2.33169">
        <ele>426</ele>
        <time>2021-04-18T14:23:28Z</time>
      </trkpt>
      <trkpt lat="43.96297" lon="2.33167">
        <ele>427</ele>
        <time>2021-04-18T14:23:29Z</time>
      </trkpt>
      <trkpt lat="43.96297" lon="2.33166">
        <ele>427</ele>
        <time>2021-04-18T14:23:30Z</time>
      </trkpt>
      <trkpt lat="43.96296" lon="2.33165">
        <ele>427</ele>
        <time>2021-04-18T14:23:31Z</time>
      </trkpt>
      <trkpt lat="43.96296" lon="2.33165">
        <ele>427</ele>
        <time>2021-04-18T14:23:32Z</time>
      </trkpt>
      <trkpt lat="43.96296" lon="2.33165">
        <ele>427</ele>
        <time>2021-04-18T14:23:33Z</time>
      </trkpt>
      <trkpt lat="43.96296" lon="2.33165">
        <ele>427</ele>
        <time>2021-04-18T14:23:34Z</time>
      </trkpt>
      <trkpt lat="43.96296" lon="2.33165">
        <ele>427</ele>
        <time>2021-04-18T14:23:35Z</time>
      </trkpt>
      <trkpt lat="43.96296" lon="2.33165">
        <ele>427</ele>
        <time>2021-04-18T14:23:35Z</time>
      </trkpt>
      <trkpt lat="43.96296" lon="2.33165">
        <ele>427</ele>
        <time>2021-04-18T14:23:35Z</time>
      </trkpt>
      <trkpt lat="43.96291" lon="2.33158">
        <ele>427</ele>
        <time>2021-04-18T14:23:46Z</time>
      </trkpt>
      <trkpt lat="43.96291" lon="2.33156">
        <ele>427</ele>
        <time>2021-04-18T14:23:47Z</time>
      </trkpt>
      <trkpt lat="43.9629" lon="2.33154">
        <ele>427</ele>
        <time>2021-04-18T14:23:48Z</time>
      </trkpt>
      <trkpt lat="43.96289" lon="2.33153">
        <ele>427</ele>
        <time>2021-04-18T14:23:49Z</time>
      </trkpt>
      <trkpt lat="43.96288" lon="2.33151">
        <ele>428</ele>
        <time>2021-04-18T14:23:50Z</time>
      </trkpt>
      <trkpt lat="43.96287" lon="2.33149">
        <ele>428</ele>
        <time>2021-04-18T14:23:51Z</time>
      </trkpt>
      <trkpt lat="43.96286" lon="2.33148">
        <ele>428</ele>
        <time>2021-04-18T14:23:52Z</time>
      </trkpt>
      <trkpt lat="43.96285" lon="2.33147">
        <ele>427</ele>
        <time>2021-04-18T14:23:53Z</time>
      </trkpt>
      <trkpt lat="43.96284" lon="2.33145">
        <ele>428</ele>
        <time>2021-04-18T14:23:54Z</time>
      </trkpt>
      <trkpt lat="43.96283" lon="2.33144">
        <ele>427</ele>
        <time>2021-04-18T14:23:55Z</time>
      </trkpt>
      <trkpt lat="43.96281" lon="2.33143">
        <ele>427</ele>
        <time>2021-04-18T14:23:56Z</time>
      </trkpt>
      <trkpt lat="43.96281" lon="2.33141">
        <ele>427</ele>
        <time>2021-04-18T14:23:57Z</time>
      </trkpt>
      <trkpt lat="43.9628" lon="2.3314">
        <ele>427</ele>
        <time>2021-04-18T14:23:58Z</time>
      </trkpt>
      <trkpt lat="43.96278" lon="2.33138">
        <ele>427</ele>
        <time>2021-04-18T14:23:59Z</time>
      </trkpt>
      <trkpt lat="43.96277" lon="2.33137">
        <ele>427</ele>
        <time>2021-04-18T14:24:00Z</time>
      </trkpt>
      <trkpt lat="43.96276" lon="2.33136">
        <ele>427</ele>
        <time>2021-04-18T14:24:01Z</time>
      </trkpt>
      <trkpt lat="43.96275" lon="2.33134">
        <ele>426</ele>
        <time>2021-04-18T14:24:02Z</time>
      </trkpt>
      <trkpt lat="43.96274" lon="2.33133">
        <ele>426</ele>
        <time>2021-04-18T14:24:03Z</time>
      </trkpt>
      <trkpt lat="43.96273" lon="2.33132">
        <ele>426</ele>
        <time>2021-04-18T14:24:04Z</time>
      </trkpt>
      <trkpt lat="43.96272" lon="2.33132">
        <ele>426</ele>
        <time>2021-04-18T14:24:05Z</time>
      </trkpt>
      <trkpt lat="43.96271" lon="2.33131">
        <ele>425</ele>
        <time>2021-04-18T14:24:06Z</time>
      </trkpt>
      <trkpt lat="43.9627" lon="2.33129">
        <ele>425</ele>
        <time>2021-04-18T14:24:07Z</time>
      </trkpt>
      <trkpt lat="43.96269" lon="2.33129">
        <ele>425</ele>
        <time>2021-04-18T14:24:08Z</time>
      </trkpt>
      <trkpt lat="43.96267" lon="2.33127">
        <ele>425</ele>
        <time>2021-04-18T14:24:09Z</time>
      </trkpt>
      <trkpt lat="43.96266" lon="2.33126">
        <ele>425</ele>
        <time>2021-04-18T14:24:10Z</time>
      </trkpt>
      <trkpt lat="43.96265" lon="2.33124">
        <ele>424</ele>
        <time>2021-04-18T14:24:11Z</time>
      </trkpt>
      <trkpt lat="43.96264" lon="2.33123">
        <ele>424</ele>
        <time>2021-04-18T14:24:12Z</time>
      </trkpt>
      <trkpt lat="43.96263" lon="2.33121">
        <ele>424</ele>
        <time>2021-04-18T14:24:13Z</time>
      </trkpt>
      <trkpt lat="43.96262" lon="2.33121">
        <ele>424</ele>
        <time>2021-04-18T14:24:14Z</time>
      </trkpt>
      <trkpt lat="43.96261" lon="2.3312">
        <ele>424</ele>
        <time>2021-04-18T14:24:15Z</time>
      </trkpt>
      <trkpt lat="43.9626" lon="2.3312">
        <ele>424</ele>
        <time>2021-04-18T14:24:16Z</time>
      </trkpt>
      <trkpt lat="43.96259" lon="2.33119">
        <ele>424</ele>
        <time>2021-04-18T14:24:17Z</time>
      </trkpt>
      <trkpt lat="43.96259" lon="2.33119">
        <ele>424</ele>
        <time>2021-04-18T14:24:18Z</time>
      </trkpt>
      <trkpt lat="43.9626" lon="2.33118">
        <ele>423</ele>
        <time>2021-04-18T14:24:19Z</time>
      </trkpt>
      <trkpt lat="43.9626" lon="2.33118">
        <ele>423</ele>
        <time>2021-04-18T14:24:20Z</time>
      </trkpt>
      <trkpt lat="43.9626" lon="2.33118">
        <ele>423</ele>
        <time>2021-04-18T14:24:20Z</time>
      </trkpt>
      <trkpt lat="43.9626" lon="2.33118">
        <ele>423</ele>
        <time>2021-04-18T14:24:20Z</time>
      </trkpt>
    </trkseg>
  </trk>
</gpx>